<?xml version='1.0' encoding='UTF-8'?><gpx version="1.1" creator="JPX - https://github.com/jenetics/jpx" xmlns="http://www.topografix.com/GPX/1/1"><trk><trkseg><trkpt lat="43.45824463297028" lon="11.900857547309158"><ele>268.0</ele><time>2026-03-22T07:42:37.266Z</time></trkpt><trkpt lat="43.458365534365434" lon="11.90086610670096"><ele>268.0</ele><time>2026-03-22T07:43:01.266Z</time></trkpt><trkpt lat="43.45839207415539" lon="11.900956258683447"><ele>268.0</ele><time>2026-03-22T07:43:12.265Z</time></trkpt><trkpt lat="43.458365771231136" lon="11.901065543395559"><ele>268.0</ele><time>2026-03-22T07:43:14.266Z</time></trkpt><trkpt lat="43.45835921945048" lon="11.901163403518384"><ele>268.0</ele><time>2026-03-22T07:43:16.267Z</time></trkpt><trkpt lat="43.45836134361557" lon="11.901300123504114"><ele>268.0</ele><time>2026-03-22T07:43:18.266Z</time></trkpt><trkpt lat="43.45832728374181" lon="11.90138834575905"><ele>268.16666666666663</ele><time>2026-03-22T07:43:19.266Z</time></trkpt><trkpt lat="43.45828995131298" lon="11.901474923341851"><ele>268.3333333333333</ele><time>2026-03-22T07:43:20.257Z</time></trkpt><trkpt lat="43.458261943294445" lon="11.90157949052475"><ele>268.5</ele><time>2026-03-22T07:43:21.266Z</time></trkpt><trkpt lat="43.45822857592761" lon="11.90169530609551"><ele>268.6666666666667</ele><time>2026-03-22T07:43:22.265Z</time></trkpt><trkpt lat="43.458192126111655" lon="11.901821869052847"><ele>268.83333333333337</ele><time>2026-03-22T07:43:23.266Z</time></trkpt><trkpt lat="43.45816662594001" lon="11.901938735713726"><ele>269.0</ele><time>2026-03-22T07:43:24.266Z</time></trkpt><trkpt lat="43.45812437754485" lon="11.902047709936987"><ele>269.4</ele><time>2026-03-22T07:43:25.264Z</time></trkpt><trkpt lat="43.458083920663434" lon="11.902159836409966"><ele>269.79999999999995</ele><time>2026-03-22T07:43:26.267Z</time></trkpt><trkpt lat="43.45805160727077" lon="11.90228683060244"><ele>270.20000000000005</ele><time>2026-03-22T07:43:27.268Z</time></trkpt><trkpt lat="43.45801045537949" lon="11.902433413046843"><ele>270.6</ele><time>2026-03-22T07:43:28.264Z</time></trkpt><trkpt lat="43.45796318932681" lon="11.902581393566495"><ele>271.0</ele><time>2026-03-22T07:43:29.267Z</time></trkpt><trkpt lat="43.45791223683574" lon="11.902736755439832"><ele>271.2</ele><time>2026-03-22T07:43:30.266Z</time></trkpt><trkpt lat="43.45787386764255" lon="11.902883043908712"><ele>271.40000000000003</ele><time>2026-03-22T07:43:31.267Z</time></trkpt><trkpt lat="43.45781298191732" lon="11.903053819149408"><ele>271.6</ele><time>2026-03-22T07:43:32.268Z</time></trkpt><trkpt lat="43.45777176546842" lon="11.903181582385601"><ele>271.8</ele><time>2026-03-22T07:43:33.267Z</time></trkpt><trkpt lat="43.45774332257448" lon="11.903285927725584"><ele>272.0</ele><time>2026-03-22T07:43:34.268Z</time></trkpt><trkpt lat="43.45771289055105" lon="11.903400834911047"><ele>272.0</ele><time>2026-03-22T07:43:35.266Z</time></trkpt><trkpt lat="43.457665865431025" lon="11.903510291033237"><ele>272.0</ele><time>2026-03-22T07:43:36.268Z</time></trkpt><trkpt lat="43.457604915861154" lon="11.903600392140957"><ele>272.0</ele><time>2026-03-22T07:43:37.266Z</time></trkpt><trkpt lat="43.45753144690362" lon="11.90364739987567"><ele>272.0</ele><time>2026-03-22T07:43:38.266Z</time></trkpt><trkpt lat="43.45743405228883" lon="11.903654708324353"><ele>272.0</ele><time>2026-03-22T07:43:39.266Z</time></trkpt><trkpt lat="43.45732359051499" lon="11.903641658085574"><ele>272.0</ele><time>2026-03-22T07:43:40.265Z</time></trkpt><trkpt lat="43.457213790247735" lon="11.903619890786956"><ele>272.0</ele><time>2026-03-22T07:43:41.266Z</time></trkpt><trkpt lat="43.45711100951046" lon="11.903600735213235"><ele>272.0</ele><time>2026-03-22T07:43:42.266Z</time></trkpt><trkpt lat="43.45704189614164" lon="11.903594044500801"><ele>272.0</ele><time>2026-03-22T07:43:43.267Z</time></trkpt><trkpt lat="43.45697168297694" lon="11.903567964018492"><ele>272.0</ele><time>2026-03-22T07:43:44.267Z</time></trkpt><trkpt lat="43.45692231474041" lon="11.903509789625975"><ele>272.0</ele><time>2026-03-22T07:43:45.266Z</time></trkpt><trkpt lat="43.45685010120491" lon="11.903433665760565"><ele>271.4</ele><time>2026-03-22T07:43:46.267Z</time></trkpt><trkpt lat="43.45677716018756" lon="11.903435308512048"><ele>270.79999999999995</ele><time>2026-03-22T07:43:47.267Z</time></trkpt><trkpt lat="43.45670653719104" lon="11.903476351680837"><ele>270.2</ele><time>2026-03-22T07:43:48.266Z</time></trkpt><trkpt lat="43.45662398063725" lon="11.903548973141415"><ele>269.59999999999997</ele><time>2026-03-22T07:43:49.267Z</time></trkpt><trkpt lat="43.45652718454724" lon="11.90358267008474"><ele>269.0</ele><time>2026-03-22T07:43:50.269Z</time></trkpt><trkpt lat="43.45640949244521" lon="11.903578391481622"><ele>269.0</ele><time>2026-03-22T07:43:51.268Z</time></trkpt><trkpt lat="43.45629896000106" lon="11.903559670395271"><ele>269.0</ele><time>2026-03-22T07:43:52.265Z</time></trkpt><trkpt lat="43.45618282148638" lon="11.903537426063652"><ele>269.0</ele><time>2026-03-22T07:43:53.268Z</time></trkpt><trkpt lat="43.456069313796704" lon="11.903512155694258"><ele>269.0</ele><time>2026-03-22T07:43:54.266Z</time></trkpt><trkpt lat="43.45594529338884" lon="11.903498682922574"><ele>268.75</ele><time>2026-03-22T07:43:55.266Z</time></trkpt><trkpt lat="43.45582534856125" lon="11.90350007663678"><ele>268.5</ele><time>2026-03-22T07:43:56.268Z</time></trkpt><trkpt lat="43.455715759529575" lon="11.903525338893953"><ele>268.25</ele><time>2026-03-22T07:43:57.267Z</time></trkpt><trkpt lat="43.45560351955402" lon="11.903585649659847"><ele>268.0</ele><time>2026-03-22T07:43:58.269Z</time></trkpt><trkpt lat="43.455510013821765" lon="11.903677743970757"><ele>269.0</ele><time>2026-03-22T07:43:59.265Z</time></trkpt><trkpt lat="43.45542547911422" lon="11.903806023649453"><ele>270.0</ele><time>2026-03-22T07:44:00.265Z</time></trkpt><trkpt lat="43.45536023846583" lon="11.903948672074398"><ele>271.0</ele><time>2026-03-22T07:44:01.267Z</time></trkpt><trkpt lat="43.45531396521563" lon="11.904096973709095"><ele>272.0</ele><time>2026-03-22T07:44:02.267Z</time></trkpt><trkpt lat="43.455286612834236" lon="11.904244857448639"><ele>272.5</ele><time>2026-03-22T07:44:03.266Z</time></trkpt><trkpt lat="43.455267950847585" lon="11.90439263219794"><ele>273.0</ele><time>2026-03-22T07:44:04.268Z</time></trkpt><trkpt lat="43.45523892370624" lon="11.904541311850332"><ele>273.5</ele><time>2026-03-22T07:44:05.267Z</time></trkpt><trkpt lat="43.45520108530321" lon="11.904692034416843"><ele>274.0</ele><time>2026-03-22T07:44:06.267Z</time></trkpt><trkpt lat="43.455161304857796" lon="11.904868708845596"><ele>274.0</ele><time>2026-03-22T07:44:07.266Z</time></trkpt><trkpt lat="43.45512259524192" lon="11.905037606979818"><ele>274.0</ele><time>2026-03-22T07:44:08.268Z</time></trkpt><trkpt lat="43.45508238904032" lon="11.905190796178383"><ele>274.0</ele><time>2026-03-22T07:44:09.267Z</time></trkpt><trkpt lat="43.455025477019255" lon="11.905353248139116"><ele>274.0</ele><time>2026-03-22T07:44:10.265Z</time></trkpt><trkpt lat="43.45495952070415" lon="11.90550476827402"><ele>273.75</ele><time>2026-03-22T07:44:11.267Z</time></trkpt><trkpt lat="43.4548779222331" lon="11.905660715101485"><ele>273.5</ele><time>2026-03-22T07:44:12.267Z</time></trkpt><trkpt lat="43.45480025653112" lon="11.905820813518723"><ele>273.25</ele><time>2026-03-22T07:44:13.266Z</time></trkpt><trkpt lat="43.45471151967936" lon="11.905960205401655"><ele>273.0</ele><time>2026-03-22T07:44:14.267Z</time></trkpt><trkpt lat="43.45462554906421" lon="11.906127661210897"><ele>273.0</ele><time>2026-03-22T07:44:15.268Z</time></trkpt><trkpt lat="43.45453602864461" lon="11.906267204924836"><ele>273.0</ele><time>2026-03-22T07:44:16.266Z</time></trkpt><trkpt lat="43.45444828684612" lon="11.906425126422947"><ele>273.0</ele><time>2026-03-22T07:44:17.27Z</time></trkpt><trkpt lat="43.45434359977549" lon="11.906582731874423"><ele>273.0</ele><time>2026-03-22T07:44:18.266Z</time></trkpt><trkpt lat="43.45424884809731" lon="11.906734064133227"><ele>273.0</ele><time>2026-03-22T07:44:19.266Z</time></trkpt><trkpt lat="43.45416662380736" lon="11.906864022255041"><ele>273.0</ele><time>2026-03-22T07:44:20.266Z</time></trkpt><trkpt lat="43.45409524219777" lon="11.906995579738544"><ele>273.0</ele><time>2026-03-22T07:44:21.26Z</time></trkpt><trkpt lat="43.45402240823241" lon="11.907127751668137"><ele>273.0</ele><time>2026-03-22T07:44:22.266Z</time></trkpt><trkpt lat="43.45394771892805" lon="11.907254158602484"><ele>273.0</ele><time>2026-03-22T07:44:23.266Z</time></trkpt><trkpt lat="43.45387279369476" lon="11.907382219599834"><ele>273.0</ele><time>2026-03-22T07:44:24.266Z</time></trkpt><trkpt lat="43.453797180863944" lon="11.907522759931902"><ele>273.0</ele><time>2026-03-22T07:44:25.266Z</time></trkpt><trkpt lat="43.45372641749246" lon="11.90765988985688"><ele>273.0</ele><time>2026-03-22T07:44:26.268Z</time></trkpt><trkpt lat="43.453651017573314" lon="11.907796037262072"><ele>273.25</ele><time>2026-03-22T07:44:27.267Z</time></trkpt><trkpt lat="43.4535752473159" lon="11.907932269075816"><ele>273.5</ele><time>2026-03-22T07:44:28.266Z</time></trkpt><trkpt lat="43.45350164751689" lon="11.908068749568951"><ele>273.75</ele><time>2026-03-22T07:44:29.268Z</time></trkpt><trkpt lat="43.4534341355049" lon="11.908206551554779"><ele>274.0</ele><time>2026-03-22T07:44:30.269Z</time></trkpt><trkpt lat="43.453353076255596" lon="11.908346579363853"><ele>274.25</ele><time>2026-03-22T07:44:31.266Z</time></trkpt><trkpt lat="43.45327071745578" lon="11.90848312292562"><ele>274.5</ele><time>2026-03-22T07:44:32.266Z</time></trkpt><trkpt lat="43.453203936109006" lon="11.908618702443098"><ele>274.75</ele><time>2026-03-22T07:44:33.264Z</time></trkpt><trkpt lat="43.45313864438836" lon="11.908750101571446"><ele>275.0</ele><time>2026-03-22T07:44:34.266Z</time></trkpt><trkpt lat="43.4530651457778" lon="11.908886149542008"><ele>275.0</ele><time>2026-03-22T07:44:35.266Z</time></trkpt><trkpt lat="43.452996499017736" lon="11.90901368740757"><ele>275.0</ele><time>2026-03-22T07:44:36.266Z</time></trkpt><trkpt lat="43.452926867876386" lon="11.909140468362843"><ele>275.0</ele><time>2026-03-22T07:44:37.265Z</time></trkpt><trkpt lat="43.452863038318554" lon="11.909267641767359"><ele>275.0</ele><time>2026-03-22T07:44:38.268Z</time></trkpt><trkpt lat="43.45279733360807" lon="11.909395655574523"><ele>275.25</ele><time>2026-03-22T07:44:39.266Z</time></trkpt><trkpt lat="43.45272349583024" lon="11.909522954076298"><ele>275.5</ele><time>2026-03-22T07:44:40.265Z</time></trkpt><trkpt lat="43.45265250956461" lon="11.909653779338939"><ele>275.75</ele><time>2026-03-22T07:44:41.26Z</time></trkpt><trkpt lat="43.45257948125489" lon="11.90979085632789"><ele>276.0</ele><time>2026-03-22T07:44:42.266Z</time></trkpt><trkpt lat="43.45250554604436" lon="11.90992563384065"><ele>276.0</ele><time>2026-03-22T07:44:43.269Z</time></trkpt><trkpt lat="43.452431251622095" lon="11.910064852996653"><ele>276.0</ele><time>2026-03-22T07:44:44.256Z</time></trkpt><trkpt lat="43.45235616185065" lon="11.910200610339661"><ele>276.0</ele><time>2026-03-22T07:44:45.267Z</time></trkpt><trkpt lat="43.45228001352717" lon="11.910329549896591"><ele>276.0</ele><time>2026-03-22T07:44:46.266Z</time></trkpt><trkpt lat="43.4521989483206" lon="11.910461814128308"><ele>276.0</ele><time>2026-03-22T07:44:47.268Z</time></trkpt><trkpt lat="43.452135103053216" lon="11.910577063831655"><ele>276.0</ele><time>2026-03-22T07:44:48.267Z</time></trkpt><trkpt lat="43.45206922959182" lon="11.910688833269953"><ele>276.0</ele><time>2026-03-22T07:44:49.266Z</time></trkpt><trkpt lat="43.45199572918785" lon="11.910810671640586"><ele>276.0</ele><time>2026-03-22T07:44:50.266Z</time></trkpt><trkpt lat="43.45191846190213" lon="11.910932378903953"><ele>276.0</ele><time>2026-03-22T07:44:51.267Z</time></trkpt><trkpt lat="43.45184196248462" lon="11.911057589853078"><ele>276.6</ele><time>2026-03-22T07:44:52.268Z</time></trkpt><trkpt lat="43.45177355338017" lon="11.91116063108159"><ele>277.20000000000005</ele><time>2026-03-22T07:44:53.267Z</time></trkpt><trkpt lat="43.45170541367424" lon="11.911266086298252"><ele>277.79999999999995</ele><time>2026-03-22T07:44:54.267Z</time></trkpt><trkpt lat="43.451640596661974" lon="11.911375202060974"><ele>278.4</ele><time>2026-03-22T07:44:55.266Z</time></trkpt><trkpt lat="43.451584245961364" lon="11.911484539301478"><ele>279.0</ele><time>2026-03-22T07:44:56.266Z</time></trkpt><trkpt lat="43.45151752803622" lon="11.911582956354767"><ele>279.0</ele><time>2026-03-22T07:44:57.271Z</time></trkpt><trkpt lat="43.45145648534647" lon="11.911704946079386"><ele>279.0</ele><time>2026-03-22T07:44:58.266Z</time></trkpt><trkpt lat="43.45140057439204" lon="11.91183100367038"><ele>279.0</ele><time>2026-03-22T07:44:59.269Z</time></trkpt><trkpt lat="43.45134495044839" lon="11.91195611495196"><ele>279.0</ele><time>2026-03-22T07:45:00.258Z</time></trkpt><trkpt lat="43.451285414939356" lon="11.91208393381144"><ele>279.0</ele><time>2026-03-22T07:45:01.264Z</time></trkpt><trkpt lat="43.45122588651074" lon="11.912209076452946"><ele>279.2</ele><time>2026-03-22T07:45:02.261Z</time></trkpt><trkpt lat="43.451168117144135" lon="11.912327685328156"><ele>279.4</ele><time>2026-03-22T07:45:03.267Z</time></trkpt><trkpt lat="43.45111470692594" lon="11.912444824889157"><ele>279.6</ele><time>2026-03-22T07:45:04.267Z</time></trkpt><trkpt lat="43.45106861989764" lon="11.912556822515242"><ele>279.8</ele><time>2026-03-22T07:45:05.266Z</time></trkpt><trkpt lat="43.45101381112245" lon="11.91268335861831"><ele>280.0</ele><time>2026-03-22T07:45:06.267Z</time></trkpt><trkpt lat="43.45095746243813" lon="11.912803648613387"><ele>280.0</ele><time>2026-03-22T07:45:07.267Z</time></trkpt><trkpt lat="43.45090326436671" lon="11.912931326664548"><ele>280.0</ele><time>2026-03-22T07:45:08.266Z</time></trkpt><trkpt lat="43.450847373558595" lon="11.91305227104596"><ele>280.0</ele><time>2026-03-22T07:45:09.269Z</time></trkpt><trkpt lat="43.45078820534754" lon="11.913170830710541"><ele>280.0</ele><time>2026-03-22T07:45:10.266Z</time></trkpt><trkpt lat="43.45072362793231" lon="11.913305843561227"><ele>280.0</ele><time>2026-03-22T07:45:11.266Z</time></trkpt><trkpt lat="43.4506517608193" lon="11.913447127887853"><ele>279.75</ele><time>2026-03-22T07:45:12.267Z</time></trkpt><trkpt lat="43.45057366505988" lon="11.913567494375984"><ele>279.5</ele><time>2026-03-22T07:45:13.269Z</time></trkpt><trkpt lat="43.45049236779051" lon="11.913679231819794"><ele>279.25</ele><time>2026-03-22T07:45:14.267Z</time></trkpt><trkpt lat="43.45040853564176" lon="11.913793161701488"><ele>279.0</ele><time>2026-03-22T07:45:15.266Z</time></trkpt><trkpt lat="43.45033625646158" lon="11.913921805421928"><ele>279.75</ele><time>2026-03-22T07:45:16.267Z</time></trkpt><trkpt lat="43.45027831353366" lon="11.914061439619339"><ele>280.5</ele><time>2026-03-22T07:45:17.267Z</time></trkpt><trkpt lat="43.45023871743143" lon="11.914208082783638"><ele>281.25</ele><time>2026-03-22T07:45:18.267Z</time></trkpt><trkpt lat="43.4502034420873" lon="11.91436310904351"><ele>282.0</ele><time>2026-03-22T07:45:19.266Z</time></trkpt><trkpt lat="43.45016342043675" lon="11.914510971464367"><ele>282.0</ele><time>2026-03-22T07:45:20.26Z</time></trkpt><trkpt lat="43.45012657129395" lon="11.914655196933294"><ele>282.0</ele><time>2026-03-22T07:45:21.27Z</time></trkpt><trkpt lat="43.450084474278896" lon="11.914796463193097"><ele>282.0</ele><time>2026-03-22T07:45:22.265Z</time></trkpt><trkpt lat="43.450049234867684" lon="11.91493476537451"><ele>282.0</ele><time>2026-03-22T07:45:23.266Z</time></trkpt><trkpt lat="43.45001055694547" lon="11.915071338274453"><ele>282.0</ele><time>2026-03-22T07:45:24.267Z</time></trkpt><trkpt lat="43.44997713874901" lon="11.915210635651485"><ele>281.8333333333333</ele><time>2026-03-22T07:45:25.267Z</time></trkpt><trkpt lat="43.449939386111524" lon="11.915343431813511"><ele>281.6666666666667</ele><time>2026-03-22T07:45:26.266Z</time></trkpt><trkpt lat="43.4499077674589" lon="11.91545835641266"><ele>281.5</ele><time>2026-03-22T07:45:27.27Z</time></trkpt><trkpt lat="43.44988251860905" lon="11.915557771496495"><ele>281.33333333333337</ele><time>2026-03-22T07:45:28.266Z</time></trkpt><trkpt lat="43.44985744082385" lon="11.915659864354138"><ele>281.1666666666667</ele><time>2026-03-22T07:45:29.266Z</time></trkpt><trkpt lat="43.44982788246356" lon="11.91576780610519"><ele>281.0</ele><time>2026-03-22T07:45:30.266Z</time></trkpt><trkpt lat="43.449800685727" lon="11.915852454857651"><ele>281.5</ele><time>2026-03-22T07:45:31.266Z</time></trkpt><trkpt lat="43.449769874999426" lon="11.915963028057867"><ele>282.0</ele><time>2026-03-22T07:45:32.265Z</time></trkpt><trkpt lat="43.449743265886234" lon="11.916072184860754"><ele>282.5</ele><time>2026-03-22T07:45:33.267Z</time></trkpt><trkpt lat="43.44971634068623" lon="11.916174286036785"><ele>283.0</ele><time>2026-03-22T07:45:34.264Z</time></trkpt><trkpt lat="43.449685906054206" lon="11.916282670632176"><ele>283.5</ele><time>2026-03-22T07:45:35.266Z</time></trkpt><trkpt lat="43.44965295450911" lon="11.91638704241779"><ele>284.0</ele><time>2026-03-22T07:45:36.265Z</time></trkpt><trkpt lat="43.44962137880191" lon="11.916503362981887"><ele>284.33333333333337</ele><time>2026-03-22T07:45:37.264Z</time></trkpt><trkpt lat="43.449591120551055" lon="11.916622682323151"><ele>284.6666666666667</ele><time>2026-03-22T07:45:38.259Z</time></trkpt><trkpt lat="43.44955908400072" lon="11.91673419811853"><ele>285.0</ele><time>2026-03-22T07:45:39.266Z</time></trkpt><trkpt lat="43.44953028131618" lon="11.916843789925583"><ele>285.3333333333333</ele><time>2026-03-22T07:45:40.267Z</time></trkpt><trkpt lat="43.44950067753652" lon="11.916958686721223"><ele>285.66666666666663</ele><time>2026-03-22T07:45:41.267Z</time></trkpt><trkpt lat="43.449469576827596" lon="11.917069982354937"><ele>286.0</ele><time>2026-03-22T07:45:42.267Z</time></trkpt><trkpt lat="43.44943899262008" lon="11.917165691313762"><ele>286.2</ele><time>2026-03-22T07:45:43.264Z</time></trkpt><trkpt lat="43.4494073695216" lon="11.91726990718881"><ele>286.40000000000003</ele><time>2026-03-22T07:45:44.266Z</time></trkpt><trkpt lat="43.44937806065932" lon="11.91738442241614"><ele>286.6</ele><time>2026-03-22T07:45:45.266Z</time></trkpt><trkpt lat="43.449349899485156" lon="11.917505877938618"><ele>286.8</ele><time>2026-03-22T07:45:46.266Z</time></trkpt><trkpt lat="43.449319431556255" lon="11.917628274950735"><ele>287.0</ele><time>2026-03-22T07:45:47.265Z</time></trkpt><trkpt lat="43.44928603066912" lon="11.917762574419145"><ele>287.2</ele><time>2026-03-22T07:45:48.266Z</time></trkpt><trkpt lat="43.44924254114517" lon="11.917894575226239"><ele>287.4</ele><time>2026-03-22T07:45:49.266Z</time></trkpt><trkpt lat="43.44921594588968" lon="11.91804277471011"><ele>287.6</ele><time>2026-03-22T07:45:50.266Z</time></trkpt><trkpt lat="43.449174822128796" lon="11.91815976804059"><ele>287.8</ele><time>2026-03-22T07:45:51.267Z</time></trkpt><trkpt lat="43.44914695953818" lon="11.918274168821867"><ele>288.0</ele><time>2026-03-22T07:45:52.267Z</time></trkpt><trkpt lat="43.4491146803485" lon="11.91837925018779"><ele>287.6666666666667</ele><time>2026-03-22T07:45:53.267Z</time></trkpt><trkpt lat="43.44908964795679" lon="11.918469758012336"><ele>287.3333333333333</ele><time>2026-03-22T07:45:54.267Z</time></trkpt><trkpt lat="43.449071960116264" lon="11.918558281881468"><ele>287.0</ele><time>2026-03-22T07:45:55.268Z</time></trkpt><trkpt lat="43.44903278920217" lon="11.918707810821589"><ele>286.66666666666663</ele><time>2026-03-22T07:45:57.268Z</time></trkpt><trkpt lat="43.44899937300159" lon="11.918798258364202"><ele>286.3333333333333</ele><time>2026-03-22T07:45:58.265Z</time></trkpt><trkpt lat="43.44897562207383" lon="11.91890527892177"><ele>286.0</ele><time>2026-03-22T07:45:59.266Z</time></trkpt><trkpt lat="43.448943865452925" lon="11.919033855487859"><ele>286.0</ele><time>2026-03-22T07:46:00.268Z</time></trkpt><trkpt lat="43.44890381602442" lon="11.91916580018492"><ele>286.0</ele><time>2026-03-22T07:46:01.261Z</time></trkpt><trkpt lat="43.448863212370846" lon="11.91929157447132"><ele>286.0</ele><time>2026-03-22T07:46:02.268Z</time></trkpt><trkpt lat="43.4488243766646" lon="11.919432540176755"><ele>286.0</ele><time>2026-03-22T07:46:03.267Z</time></trkpt><trkpt lat="43.44878546661471" lon="11.919566943431578"><ele>286.0</ele><time>2026-03-22T07:46:04.267Z</time></trkpt><trkpt lat="43.44875953312441" lon="11.919679494348602"><ele>287.0</ele><time>2026-03-22T07:46:05.267Z</time></trkpt><trkpt lat="43.44874089896082" lon="11.919768473537355"><ele>288.0</ele><time>2026-03-22T07:46:06.267Z</time></trkpt><trkpt lat="43.448696882351655" lon="11.91991267974314"><ele>289.0</ele><time>2026-03-22T07:46:08.267Z</time></trkpt><trkpt lat="43.448649489478754" lon="11.920067801048408"><ele>290.0</ele><time>2026-03-22T07:46:10.266Z</time></trkpt><trkpt lat="43.448611714434215" lon="11.920233833127089"><ele>291.0</ele><time>2026-03-22T07:46:12.267Z</time></trkpt><trkpt lat="43.448589042316485" lon="11.920332607206735"><ele>291.5</ele><time>2026-03-22T07:46:13.268Z</time></trkpt><trkpt lat="43.448561388175854" lon="11.920440263293534"><ele>292.0</ele><time>2026-03-22T07:46:14.267Z</time></trkpt><trkpt lat="43.44853253545517" lon="11.920547532730618"><ele>292.5</ele><time>2026-03-22T07:46:15.266Z</time></trkpt><trkpt lat="43.44850921146663" lon="11.920643284262024"><ele>293.0</ele><time>2026-03-22T07:46:16.266Z</time></trkpt><trkpt lat="43.44847612985142" lon="11.920761540446767"><ele>293.5</ele><time>2026-03-22T07:46:18.266Z</time></trkpt><trkpt lat="43.44843004272098" lon="11.92090314464469"><ele>294.0</ele><time>2026-03-22T07:46:20.266Z</time></trkpt><trkpt lat="43.44838841061537" lon="11.920997181773073"><ele>294.0</ele><time>2026-03-22T07:46:21.26Z</time></trkpt><trkpt lat="43.44833579631246" lon="11.921118126968254"><ele>294.0</ele><time>2026-03-22T07:46:22.265Z</time></trkpt><trkpt lat="43.44825249603957" lon="11.921227405305327"><ele>294.0</ele><time>2026-03-22T07:46:23.266Z</time></trkpt><trkpt lat="43.44814753838563" lon="11.921343573323723"><ele>294.0</ele><time>2026-03-22T07:46:24.266Z</time></trkpt><trkpt lat="43.44805273746982" lon="11.92149549772214"><ele>294.0</ele><time>2026-03-22T07:46:25.266Z</time></trkpt><trkpt lat="43.44796371285726" lon="11.921603607239993"><ele>294.0</ele><time>2026-03-22T07:46:26.265Z</time></trkpt><trkpt lat="43.44787959275472" lon="11.921674347358886"><ele>294.0</ele><time>2026-03-22T07:46:27.268Z</time></trkpt><trkpt lat="43.44777893693081" lon="11.921728318548217"><ele>294.0</ele><time>2026-03-22T07:46:28.266Z</time></trkpt><trkpt lat="43.44767515916797" lon="11.921782193012872"><ele>294.0</ele><time>2026-03-22T07:46:29.266Z</time></trkpt><trkpt lat="43.44758221792447" lon="11.921829158143002"><ele>294.2</ele><time>2026-03-22T07:46:30.268Z</time></trkpt><trkpt lat="43.447481768718916" lon="11.92187853550372"><ele>294.4</ele><time>2026-03-22T07:46:31.266Z</time></trkpt><trkpt lat="43.447387651116124" lon="11.921913611296343"><ele>294.6</ele><time>2026-03-22T07:46:32.266Z</time></trkpt><trkpt lat="43.44728260967944" lon="11.921931783015886"><ele>294.8</ele><time>2026-03-22T07:46:33.266Z</time></trkpt><trkpt lat="43.447179688750076" lon="11.921935062046586"><ele>295.0</ele><time>2026-03-22T07:46:34.266Z</time></trkpt><trkpt lat="43.447077072333336" lon="11.921917657696603"><ele>299.0</ele><time>2026-03-22T07:46:35.267Z</time></trkpt><trkpt lat="43.44697096645502" lon="11.921893125729591"><ele>303.0</ele><time>2026-03-22T07:46:36.266Z</time></trkpt><trkpt lat="43.4468674687445" lon="11.921860984026043"><ele>307.0</ele><time>2026-03-22T07:46:37.267Z</time></trkpt><trkpt lat="43.446772650489834" lon="11.921838193439479"><ele>311.0</ele><time>2026-03-22T07:46:38.266Z</time></trkpt><trkpt lat="43.44667399993252" lon="11.921815110528659"><ele>315.0</ele><time>2026-03-22T07:46:39.267Z</time></trkpt><trkpt lat="43.44657994712698" lon="11.92177883537211"><ele>315.0</ele><time>2026-03-22T07:46:40.262Z</time></trkpt><trkpt lat="43.44647492326692" lon="11.921740322406468"><ele>315.0</ele><time>2026-03-22T07:46:41.267Z</time></trkpt><trkpt lat="43.44638299705021" lon="11.921671198378743"><ele>315.0</ele><time>2026-03-22T07:46:42.266Z</time></trkpt><trkpt lat="43.446309904491216" lon="11.921561389218814"><ele>315.0</ele><time>2026-03-22T07:46:43.267Z</time></trkpt><trkpt lat="43.44626265476092" lon="11.921442462457692"><ele>315.0</ele><time>2026-03-22T07:46:44.266Z</time></trkpt><trkpt lat="43.44620386922443" lon="11.921314642731716"><ele>314.4</ele><time>2026-03-22T07:46:45.268Z</time></trkpt><trkpt lat="43.44612683937417" lon="11.921192498763627"><ele>313.8</ele><time>2026-03-22T07:46:46.267Z</time></trkpt><trkpt lat="43.446053104288836" lon="11.92107343023167"><ele>313.2</ele><time>2026-03-22T07:46:47.267Z</time></trkpt><trkpt lat="43.44597901677996" lon="11.920955263566853"><ele>312.6</ele><time>2026-03-22T07:46:48.265Z</time></trkpt><trkpt lat="43.44592111741838" lon="11.92085975595663"><ele>312.0</ele><time>2026-03-22T07:46:49.266Z</time></trkpt><trkpt lat="43.44588163517872" lon="11.920791927621288"><ele>312.0</ele><time>2026-03-22T07:46:50.263Z</time></trkpt><trkpt lat="43.44583699394591" lon="11.920720179720517"><ele>312.0</ele><time>2026-03-22T07:46:51.264Z</time></trkpt><trkpt lat="43.44578343760538" lon="11.920612589367057"><ele>312.0</ele><time>2026-03-22T07:46:52.265Z</time></trkpt><trkpt lat="43.445717406335035" lon="11.920506628597797"><ele>312.0</ele><time>2026-03-22T07:46:53.266Z</time></trkpt><trkpt lat="43.4456379092131" lon="11.9204083521328"><ele>312.0</ele><time>2026-03-22T07:46:54.265Z</time></trkpt><trkpt lat="43.44554318047174" lon="11.920339107492541"><ele>315.75</ele><time>2026-03-22T07:46:55.267Z</time></trkpt><trkpt lat="43.445429665777574" lon="11.920292391859354"><ele>319.5</ele><time>2026-03-22T07:46:56.266Z</time></trkpt><trkpt lat="43.44532322632834" lon="11.92026235551354"><ele>323.25</ele><time>2026-03-22T07:46:57.267Z</time></trkpt><trkpt lat="43.44520557364553" lon="11.920232403131061"><ele>327.0</ele><time>2026-03-22T07:46:58.267Z</time></trkpt><trkpt lat="43.44509907716991" lon="11.92021300373563"><ele>327.0</ele><time>2026-03-22T07:46:59.267Z</time></trkpt><trkpt lat="43.444987514699726" lon="11.920216084292003"><ele>327.0</ele><time>2026-03-22T07:47:00.267Z</time></trkpt><trkpt lat="43.44487260227286" lon="11.920254444379651"><ele>327.0</ele><time>2026-03-22T07:47:01.267Z</time></trkpt><trkpt lat="43.444765774740034" lon="11.920323443270304"><ele>327.0</ele><time>2026-03-22T07:47:02.268Z</time></trkpt><trkpt lat="43.444657784963" lon="11.920426252258359"><ele>326.0</ele><time>2026-03-22T07:47:03.261Z</time></trkpt><trkpt lat="43.44456518302803" lon="11.920562404949283"><ele>325.0</ele><time>2026-03-22T07:47:04.266Z</time></trkpt><trkpt lat="43.44450086415114" lon="11.92068331026494"><ele>324.0</ele><time>2026-03-22T07:47:05.267Z</time></trkpt><trkpt lat="43.44446466008617" lon="11.920782036921544"><ele>323.0</ele><time>2026-03-22T07:47:06.266Z</time></trkpt><trkpt lat="43.44444346557664" lon="11.9208715841206"><ele>322.0</ele><time>2026-03-22T07:47:07.266Z</time></trkpt><trkpt lat="43.444423938072944" lon="11.920964618094741"><ele>322.0</ele><time>2026-03-22T07:47:08.266Z</time></trkpt><trkpt lat="43.44439752662416" lon="11.921105435789155"><ele>322.0</ele><time>2026-03-22T07:47:10.265Z</time></trkpt><trkpt lat="43.44435762304354" lon="11.92127846813828"><ele>322.0</ele><time>2026-03-22T07:47:12.266Z</time></trkpt><trkpt lat="43.44434384882649" lon="11.921379018199284"><ele>322.0</ele><time>2026-03-22T07:47:13.266Z</time></trkpt><trkpt lat="43.44433346068573" lon="11.92148973515679"><ele>322.0</ele><time>2026-03-22T07:47:14.266Z</time></trkpt><trkpt lat="43.44432468167511" lon="11.921612955118816"><ele>322.6</ele><time>2026-03-22T07:47:15.267Z</time></trkpt><trkpt lat="43.44435178054527" lon="11.921740286779482"><ele>323.20000000000005</ele><time>2026-03-22T07:47:16.266Z</time></trkpt><trkpt lat="43.444354649592405" lon="11.921866438493131"><ele>323.8</ele><time>2026-03-22T07:47:17.266Z</time></trkpt><trkpt lat="43.44436982890239" lon="11.922011657741683"><ele>324.4</ele><time>2026-03-22T07:47:18.257Z</time></trkpt><trkpt lat="43.44438648776743" lon="11.92213353153534"><ele>325.0</ele><time>2026-03-22T07:47:19.267Z</time></trkpt><trkpt lat="43.44441137468778" lon="11.92226167032191"><ele>325.0</ele><time>2026-03-22T07:47:20.264Z</time></trkpt><trkpt lat="43.44443183846689" lon="11.922395192308223"><ele>325.0</ele><time>2026-03-22T07:47:21.259Z</time></trkpt><trkpt lat="43.44446299687292" lon="11.922531935467962"><ele>325.0</ele><time>2026-03-22T07:47:22.267Z</time></trkpt><trkpt lat="43.44449767898998" lon="11.922652602144796"><ele>325.0</ele><time>2026-03-22T07:47:23.265Z</time></trkpt><trkpt lat="43.44453220408205" lon="11.92277411077682"><ele>325.0</ele><time>2026-03-22T07:47:24.265Z</time></trkpt><trkpt lat="43.44456284167466" lon="11.922895448027605"><ele>326.5</ele><time>2026-03-22T07:47:25.266Z</time></trkpt><trkpt lat="43.444573798442505" lon="11.923010884021366"><ele>328.0</ele><time>2026-03-22T07:47:26.265Z</time></trkpt><trkpt lat="43.44458453717097" lon="11.923131237599915"><ele>329.5</ele><time>2026-03-22T07:47:27.266Z</time></trkpt><trkpt lat="43.44457529545251" lon="11.923244704747813"><ele>331.0</ele><time>2026-03-22T07:47:28.265Z</time></trkpt><trkpt lat="43.44454723487359" lon="11.923351449289823"><ele>332.5</ele><time>2026-03-22T07:47:29.267Z</time></trkpt><trkpt lat="43.44450183706721" lon="11.92344388632422"><ele>334.0</ele><time>2026-03-22T07:47:30.265Z</time></trkpt><trkpt lat="43.44442870249752" lon="11.923514182033925"><ele>338.6</ele><time>2026-03-22T07:47:31.266Z</time></trkpt><trkpt lat="43.444326618148715" lon="11.923567930837072"><ele>343.2</ele><time>2026-03-22T07:47:32.266Z</time></trkpt><trkpt lat="43.44422041075106" lon="11.923627307894296"><ele>347.8</ele><time>2026-03-22T07:47:33.266Z</time></trkpt><trkpt lat="43.44412180260255" lon="11.923689612110651"><ele>352.40000000000003</ele><time>2026-03-22T07:47:34.266Z</time></trkpt><trkpt lat="43.44402799363162" lon="11.923766095608986"><ele>357.0</ele><time>2026-03-22T07:47:35.267Z</time></trkpt><trkpt lat="43.44394889708488" lon="11.923871610108534"><ele>357.0</ele><time>2026-03-22T07:47:36.265Z</time></trkpt><trkpt lat="43.4438929731091" lon="11.923980367663882"><ele>357.0</ele><time>2026-03-22T07:47:37.265Z</time></trkpt><trkpt lat="43.44384432156894" lon="11.924090098644255"><ele>357.0</ele><time>2026-03-22T07:47:38.266Z</time></trkpt><trkpt lat="43.44379731686495" lon="11.92420539675454"><ele>357.0</ele><time>2026-03-22T07:47:39.261Z</time></trkpt><trkpt lat="43.4437515126898" lon="11.924319702991369"><ele>357.0</ele><time>2026-03-22T07:47:40.266Z</time></trkpt><trkpt lat="43.4437129275394" lon="11.924448730673651"><ele>355.8</ele><time>2026-03-22T07:47:41.26Z</time></trkpt><trkpt lat="43.44368650110182" lon="11.92458366044655"><ele>354.6</ele><time>2026-03-22T07:47:42.266Z</time></trkpt><trkpt lat="43.44367582402987" lon="11.924728893848927"><ele>353.40000000000003</ele><time>2026-03-22T07:47:43.266Z</time></trkpt><trkpt lat="43.44367977053871" lon="11.924855365355556"><ele>352.20000000000005</ele><time>2026-03-22T07:47:44.266Z</time></trkpt><trkpt lat="43.44364481066212" lon="11.924992524769108"><ele>351.0</ele><time>2026-03-22T07:47:45.267Z</time></trkpt><trkpt lat="43.4436367876976" lon="11.925122077397306"><ele>353.4</ele><time>2026-03-22T07:47:46.267Z</time></trkpt><trkpt lat="43.443602424853076" lon="11.92524084018129"><ele>355.8</ele><time>2026-03-22T07:47:47.267Z</time></trkpt><trkpt lat="43.443548206932334" lon="11.925339616003045"><ele>358.2</ele><time>2026-03-22T07:47:48.267Z</time></trkpt><trkpt lat="43.44346848086773" lon="11.925419518186223"><ele>360.59999999999997</ele><time>2026-03-22T07:47:49.269Z</time></trkpt><trkpt lat="43.443370161810186" lon="11.92549707942654"><ele>363.0</ele><time>2026-03-22T07:47:50.266Z</time></trkpt><trkpt lat="43.44327466154345" lon="11.925570791462077"><ele>363.0</ele><time>2026-03-22T07:47:51.268Z</time></trkpt><trkpt lat="43.443183380771366" lon="11.925650230162626"><ele>363.0</ele><time>2026-03-22T07:47:52.268Z</time></trkpt><trkpt lat="43.443093881807854" lon="11.92572543061609"><ele>363.0</ele><time>2026-03-22T07:47:53.266Z</time></trkpt><trkpt lat="43.443001105736336" lon="11.925813258414417"><ele>363.0</ele><time>2026-03-22T07:47:54.267Z</time></trkpt><trkpt lat="43.44292754405913" lon="11.925896370230038"><ele>363.0</ele><time>2026-03-22T07:47:55.267Z</time></trkpt><trkpt lat="43.44284114388719" lon="11.925978650280426"><ele>366.2</ele><time>2026-03-22T07:47:56.267Z</time></trkpt><trkpt lat="43.44275670952343" lon="11.926056084869561"><ele>369.4</ele><time>2026-03-22T07:47:57.26Z</time></trkpt><trkpt lat="43.44267936476427" lon="11.926129400112044"><ele>372.59999999999997</ele><time>2026-03-22T07:47:58.267Z</time></trkpt><trkpt lat="43.44260827547494" lon="11.926200913762216"><ele>375.79999999999995</ele><time>2026-03-22T07:47:59.266Z</time></trkpt><trkpt lat="43.44252792265336" lon="11.926265700609216"><ele>379.0</ele><time>2026-03-22T07:48:00.266Z</time></trkpt><trkpt lat="43.44243869064574" lon="11.926317398737718"><ele>379.0</ele><time>2026-03-22T07:48:01.261Z</time></trkpt><trkpt lat="43.442331168176324" lon="11.926348633439101"><ele>379.0</ele><time>2026-03-22T07:48:02.266Z</time></trkpt><trkpt lat="43.44221020980403" lon="11.92637344045236"><ele>379.0</ele><time>2026-03-22T07:48:03.268Z</time></trkpt><trkpt lat="43.442091149974836" lon="11.926399555385702"><ele>379.0</ele><time>2026-03-22T07:48:04.267Z</time></trkpt><trkpt lat="43.44197326792548" lon="11.926428291079297"><ele>378.79999999999995</ele><time>2026-03-22T07:48:05.268Z</time></trkpt><trkpt lat="43.44186373045327" lon="11.92646031141371"><ele>378.59999999999997</ele><time>2026-03-22T07:48:06.266Z</time></trkpt><trkpt lat="43.441753582070135" lon="11.92649603554979"><ele>378.4</ele><time>2026-03-22T07:48:07.266Z</time></trkpt><trkpt lat="43.44163743996953" lon="11.926535766115517"><ele>378.2</ele><time>2026-03-22T07:48:08.266Z</time></trkpt><trkpt lat="43.44154949566528" lon="11.926557978520915"><ele>378.0</ele><time>2026-03-22T07:48:09.267Z</time></trkpt><trkpt lat="43.441450488507286" lon="11.926586899948385"><ele>378.0</ele><time>2026-03-22T07:48:10.267Z</time></trkpt><trkpt lat="43.44136792093716" lon="11.926610365977275"><ele>378.0</ele><time>2026-03-22T07:48:11.267Z</time></trkpt><trkpt lat="43.44130477111234" lon="11.926635758063187"><ele>378.0</ele><time>2026-03-22T07:48:12.266Z</time></trkpt><trkpt lat="43.44122911782887" lon="11.926680451333665"><ele>378.0</ele><time>2026-03-22T07:48:14.266Z</time></trkpt><trkpt lat="43.44116769903059" lon="11.926731129786429"><ele>378.0</ele><time>2026-03-22T07:48:15.26Z</time></trkpt><trkpt lat="43.441073726353316" lon="11.926819423992846"><ele>378.0</ele><time>2026-03-22T07:48:17.266Z</time></trkpt><trkpt lat="43.44100692233654" lon="11.926854093242353"><ele>379.0</ele><time>2026-03-22T07:48:18.265Z</time></trkpt><trkpt lat="43.440935259204245" lon="11.926834653315959"><ele>380.0</ele><time>2026-03-22T07:48:19.266Z</time></trkpt><trkpt lat="43.44087435757069" lon="11.926774303704116"><ele>381.0</ele><time>2026-03-22T07:48:20.259Z</time></trkpt><trkpt lat="43.44082444754121" lon="11.926711074001512"><ele>382.0</ele><time>2026-03-22T07:48:21.269Z</time></trkpt><trkpt lat="43.440783531272764" lon="11.926638604341298"><ele>383.0</ele><time>2026-03-22T07:48:22.266Z</time></trkpt><trkpt lat="43.44077119963877" lon="11.92653562580271"><ele>384.0</ele><time>2026-03-22T07:48:23.267Z</time></trkpt><trkpt lat="43.440785738029284" lon="11.926412668157129"><ele>385.0</ele><time>2026-03-22T07:48:24.267Z</time></trkpt><trkpt lat="43.44083234630002" lon="11.92629581102449"><ele>385.00000000000006</ele><time>2026-03-22T07:48:25.266Z</time></trkpt><trkpt lat="43.44086611857022" lon="11.926176343209137"><ele>385.0</ele><time>2026-03-22T07:48:26.266Z</time></trkpt><trkpt lat="43.44089424041703" lon="11.926085188877986"><ele>385.0</ele><time>2026-03-22T07:48:27.267Z</time></trkpt><trkpt lat="43.440917656879584" lon="11.926004289313152"><ele>385.0</ele><time>2026-03-22T07:48:28.277Z</time></trkpt><trkpt lat="43.44094708778226" lon="11.925917028674881"><ele>385.00000000000006</ele><time>2026-03-22T07:48:29.266Z</time></trkpt><trkpt lat="43.440967612266014" lon="11.925796758083877"><ele>385.0</ele><time>2026-03-22T07:48:30.267Z</time></trkpt><trkpt lat="43.440964470214105" lon="11.925679714110696"><ele>385.0</ele><time>2026-03-22T07:48:31.267Z</time></trkpt><trkpt lat="43.44092620084694" lon="11.925575738443701"><ele>385.0</ele><time>2026-03-22T07:48:32.267Z</time></trkpt><trkpt lat="43.44085429950964" lon="11.925481764893913"><ele>385.0</ele><time>2026-03-22T07:48:33.268Z</time></trkpt><trkpt lat="43.44077516890044" lon="11.925413977103489"><ele>385.0</ele><time>2026-03-22T07:48:34.267Z</time></trkpt><trkpt lat="43.44069518496" lon="11.925320181659426"><ele>385.0</ele><time>2026-03-22T07:48:35.268Z</time></trkpt><trkpt lat="43.44062874071559" lon="11.92525167298605"><ele>385.00000000000006</ele><time>2026-03-22T07:48:36.266Z</time></trkpt><trkpt lat="43.44055821001405" lon="11.925130512313038"><ele>385.0</ele><time>2026-03-22T07:48:37.267Z</time></trkpt><trkpt lat="43.44048120778282" lon="11.925060541116396"><ele>385.0</ele><time>2026-03-22T07:48:38.268Z</time></trkpt><trkpt lat="43.440423247885036" lon="11.925024778297445"><ele>385.0</ele><time>2026-03-22T07:48:39.268Z</time></trkpt><trkpt lat="43.44033903931168" lon="11.925021512169629"><ele>385.00000000000006</ele><time>2026-03-22T07:48:40.268Z</time></trkpt><trkpt lat="43.44025284206081" lon="11.925079117258546"><ele>385.0</ele><time>2026-03-22T07:48:41.268Z</time></trkpt><trkpt lat="43.44017805465149" lon="11.925170048527077"><ele>387.1666666666667</ele><time>2026-03-22T07:48:42.268Z</time></trkpt><trkpt lat="43.44010854048515" lon="11.925258442805776"><ele>389.33333333333337</ele><time>2026-03-22T07:48:43.268Z</time></trkpt><trkpt lat="43.440041748914346" lon="11.925328212267846"><ele>391.5</ele><time>2026-03-22T07:48:44.266Z</time></trkpt><trkpt lat="43.439972239759314" lon="11.925403881784186"><ele>393.66666666666663</ele><time>2026-03-22T07:48:45.268Z</time></trkpt><trkpt lat="43.43990365984601" lon="11.925471526246037"><ele>395.8333333333333</ele><time>2026-03-22T07:48:46.268Z</time></trkpt><trkpt lat="43.43982671045495" lon="11.925521728784979"><ele>398.0</ele><time>2026-03-22T07:48:47.268Z</time></trkpt><trkpt lat="43.439742328280566" lon="11.925562698511252"><ele>398.0</ele><time>2026-03-22T07:48:48.266Z</time></trkpt><trkpt lat="43.43965774452555" lon="11.925605012994177"><ele>398.0</ele><time>2026-03-22T07:48:49.267Z</time></trkpt><trkpt lat="43.43956734841269" lon="11.925641870744213"><ele>398.0</ele><time>2026-03-22T07:48:50.267Z</time></trkpt><trkpt lat="43.43946951978677" lon="11.925672941116414"><ele>398.0</ele><time>2026-03-22T07:48:51.269Z</time></trkpt><trkpt lat="43.43937958609582" lon="11.925701992541839"><ele>398.0</ele><time>2026-03-22T07:48:52.267Z</time></trkpt><trkpt lat="43.439284702027656" lon="11.925729953925922"><ele>398.0</ele><time>2026-03-22T07:48:53.267Z</time></trkpt><trkpt lat="43.43918506476378" lon="11.925768608912316"><ele>398.0</ele><time>2026-03-22T07:48:54.268Z</time></trkpt><trkpt lat="43.43907911487983" lon="11.9258091775132"><ele>398.0</ele><time>2026-03-22T07:48:55.269Z</time></trkpt><trkpt lat="43.438973887464996" lon="11.92583978654304"><ele>398.0</ele><time>2026-03-22T07:48:56.268Z</time></trkpt><trkpt lat="43.438864974293736" lon="11.92586792235793"><ele>398.0</ele><time>2026-03-22T07:48:57.267Z</time></trkpt><trkpt lat="43.43875850289948" lon="11.92590369057794"><ele>403.4</ele><time>2026-03-22T07:48:58.268Z</time></trkpt><trkpt lat="43.43865604770902" lon="11.925945005683804"><ele>408.79999999999995</ele><time>2026-03-22T07:48:59.267Z</time></trkpt><trkpt lat="43.43854704948111" lon="11.925965258001337"><ele>414.2</ele><time>2026-03-22T07:49:00.265Z</time></trkpt><trkpt lat="43.43844742558083" lon="11.925973158291475"><ele>419.6</ele><time>2026-03-22T07:49:01.267Z</time></trkpt><trkpt lat="43.43834481932195" lon="11.92595734039333"><ele>425.0</ele><time>2026-03-22T07:49:02.265Z</time></trkpt><trkpt lat="43.43824365935014" lon="11.925902305474146"><ele>424.5</ele><time>2026-03-22T07:49:03.267Z</time></trkpt><trkpt lat="43.4381332869869" lon="11.92583953340336"><ele>424.0</ele><time>2026-03-22T07:49:04.268Z</time></trkpt><trkpt lat="43.43802031324273" lon="11.92576842929781"><ele>423.5</ele><time>2026-03-22T07:49:05.266Z</time></trkpt><trkpt lat="43.43791807121864" lon="11.9256922212406"><ele>423.0</ele><time>2026-03-22T07:49:06.267Z</time></trkpt><trkpt lat="43.43783649615687" lon="11.925583051945008"><ele>423.0</ele><time>2026-03-22T07:49:07.267Z</time></trkpt><trkpt lat="43.43778141342183" lon="11.925435849788398"><ele>423.0</ele><time>2026-03-22T07:49:08.264Z</time></trkpt><trkpt lat="43.437749061951926" lon="11.92528849185052"><ele>423.0</ele><time>2026-03-22T07:49:09.266Z</time></trkpt><trkpt lat="43.437716135924376" lon="11.925178356303087"><ele>423.0</ele><time>2026-03-22T07:49:10.27Z</time></trkpt><trkpt lat="43.43762746302809" lon="11.925098882538714"><ele>423.0</ele><time>2026-03-22T07:49:11.267Z</time></trkpt><trkpt lat="43.43751613845674" lon="11.925059645590204"><ele>420.75</ele><time>2026-03-22T07:49:12.268Z</time></trkpt><trkpt lat="43.437389045749256" lon="11.92505951225631"><ele>418.5</ele><time>2026-03-22T07:49:13.268Z</time></trkpt><trkpt lat="43.43726377172653" lon="11.925056038666145"><ele>416.25</ele><time>2026-03-22T07:49:14.266Z</time></trkpt><trkpt lat="43.437151109941645" lon="11.92501810155846"><ele>414.0</ele><time>2026-03-22T07:49:15.266Z</time></trkpt><trkpt lat="43.437036692862975" lon="11.924952158752243"><ele>414.0</ele><time>2026-03-22T07:49:16.266Z</time></trkpt><trkpt lat="43.4369462819056" lon="11.92484059157232"><ele>414.0</ele><time>2026-03-22T07:49:17.267Z</time></trkpt><trkpt lat="43.436876414810655" lon="11.924705982150755"><ele>414.0</ele><time>2026-03-22T07:49:18.267Z</time></trkpt><trkpt lat="43.43682303302441" lon="11.924584810350977"><ele>414.0</ele><time>2026-03-22T07:49:19.268Z</time></trkpt><trkpt lat="43.43674124684666" lon="11.92449503464117"><ele>414.0</ele><time>2026-03-22T07:49:20.266Z</time></trkpt><trkpt lat="43.43663742353683" lon="11.924430779868626"><ele>414.0</ele><time>2026-03-22T07:49:21.261Z</time></trkpt><trkpt lat="43.436534911925754" lon="11.924415132324322"><ele>414.0</ele><time>2026-03-22T07:49:22.269Z</time></trkpt><trkpt lat="43.4364502259523" lon="11.924451847276467"><ele>414.0</ele><time>2026-03-22T07:49:23.267Z</time></trkpt><trkpt lat="43.43637667145711" lon="11.924543028945298"><ele>414.0</ele><time>2026-03-22T07:49:24.266Z</time></trkpt><trkpt lat="43.43632577729464" lon="11.924671424490716"><ele>414.0</ele><time>2026-03-22T07:49:25.268Z</time></trkpt><trkpt lat="43.436301827781975" lon="11.924802268802182"><ele>414.0</ele><time>2026-03-22T07:49:26.267Z</time></trkpt><trkpt lat="43.43631467400804" lon="11.924955794138501"><ele>414.0</ele><time>2026-03-22T07:49:27.267Z</time></trkpt><trkpt lat="43.43635864134039" lon="11.925112256074964"><ele>414.0</ele><time>2026-03-22T07:49:28.267Z</time></trkpt><trkpt lat="43.436431432013194" lon="11.925271286505241"><ele>414.0</ele><time>2026-03-22T07:49:29.266Z</time></trkpt><trkpt lat="43.43651198960431" lon="11.925416061406258"><ele>415.5</ele><time>2026-03-22T07:49:30.266Z</time></trkpt><trkpt lat="43.43659565056676" lon="11.925531268334877"><ele>417.0</ele><time>2026-03-22T07:49:31.267Z</time></trkpt><trkpt lat="43.43666127657463" lon="11.925662726418466"><ele>418.5</ele><time>2026-03-22T07:49:32.267Z</time></trkpt><trkpt lat="43.436708165973734" lon="11.925825132380888"><ele>420.0</ele><time>2026-03-22T07:49:33.267Z</time></trkpt><trkpt lat="43.43674404360842" lon="11.926001840968661"><ele>422.0</ele><time>2026-03-22T07:49:34.266Z</time></trkpt><trkpt lat="43.43674837153846" lon="11.926180160094594"><ele>424.0</ele><time>2026-03-22T07:49:35.267Z</time></trkpt><trkpt lat="43.43674165138356" lon="11.926355475042577"><ele>426.0</ele><time>2026-03-22T07:49:36.265Z</time></trkpt><trkpt lat="43.4367305593669" lon="11.92650583974766"><ele>428.0</ele><time>2026-03-22T07:49:37.266Z</time></trkpt><trkpt lat="43.4367081511552" lon="11.926629115489755"><ele>427.99999999999994</ele><time>2026-03-22T07:49:38.266Z</time></trkpt><trkpt lat="43.43669410237613" lon="11.926726925453483"><ele>428.0</ele><time>2026-03-22T07:49:39.265Z</time></trkpt><trkpt lat="43.436685198672336" lon="11.926828294686358"><ele>428.0</ele><time>2026-03-22T07:49:40.268Z</time></trkpt><trkpt lat="43.43668627546" lon="11.926940516739434"><ele>428.0</ele><time>2026-03-22T07:49:41.261Z</time></trkpt><trkpt lat="43.43668168395497" lon="11.927072208479103"><ele>427.99999999999994</ele><time>2026-03-22T07:49:42.267Z</time></trkpt><trkpt lat="43.43667743289797" lon="11.927194083362892"><ele>428.0</ele><time>2026-03-22T07:49:43.268Z</time></trkpt><trkpt lat="43.43667385075961" lon="11.927319004150181"><ele>430.0</ele><time>2026-03-22T07:49:44.268Z</time></trkpt><trkpt lat="43.436664061473365" lon="11.927448173123066"><ele>431.99999999999994</ele><time>2026-03-22T07:49:45.267Z</time></trkpt><trkpt lat="43.436653437981114" lon="11.927588001037352"><ele>433.99999999999994</ele><time>2026-03-22T07:49:46.264Z</time></trkpt><trkpt lat="43.43663993279863" lon="11.927727531229436"><ele>436.0</ele><time>2026-03-22T07:49:47.268Z</time></trkpt><trkpt lat="43.436608492806805" lon="11.927839055351216"><ele>438.0</ele><time>2026-03-22T07:49:48.267Z</time></trkpt><trkpt lat="43.43655803839671" lon="11.927958092805115"><ele>437.79999999999995</ele><time>2026-03-22T07:49:49.266Z</time></trkpt><trkpt lat="43.43648850687106" lon="11.928070607186301"><ele>437.59999999999997</ele><time>2026-03-22T07:49:50.266Z</time></trkpt><trkpt lat="43.436404895497624" lon="11.92816262382042"><ele>437.40000000000003</ele><time>2026-03-22T07:49:51.266Z</time></trkpt><trkpt lat="43.43631334458148" lon="11.928246768244467"><ele>437.20000000000005</ele><time>2026-03-22T07:49:52.265Z</time></trkpt><trkpt lat="43.43621544879493" lon="11.92833265200017"><ele>437.0</ele><time>2026-03-22T07:49:53.267Z</time></trkpt><trkpt lat="43.43612972911266" lon="11.928423643418537"><ele>440.0</ele><time>2026-03-22T07:49:54.267Z</time></trkpt><trkpt lat="43.43603918809972" lon="11.92851193499095"><ele>443.00000000000006</ele><time>2026-03-22T07:49:55.266Z</time></trkpt><trkpt lat="43.43596254693578" lon="11.92859332805986"><ele>446.00000000000006</ele><time>2026-03-22T07:49:56.266Z</time></trkpt><trkpt lat="43.435870312656576" lon="11.9286761103789"><ele>449.0</ele><time>2026-03-22T07:49:57.266Z</time></trkpt><trkpt lat="43.43578299151664" lon="11.928761809090673"><ele>452.0</ele><time>2026-03-22T07:49:58.259Z</time></trkpt><trkpt lat="43.43568831392443" lon="11.928871447289653"><ele>452.0</ele><time>2026-03-22T07:49:59.265Z</time></trkpt><trkpt lat="43.43560114361193" lon="11.92896559396476"><ele>452.00000000000006</ele><time>2026-03-22T07:50:00.258Z</time></trkpt><trkpt lat="43.435506311713105" lon="11.929044911018797"><ele>452.00000000000006</ele><time>2026-03-22T07:50:01.268Z</time></trkpt><trkpt lat="43.435421887170705" lon="11.929111681093104"><ele>452.0</ele><time>2026-03-22T07:50:02.266Z</time></trkpt><trkpt lat="43.43530886429533" lon="11.929195226160015"><ele>452.0</ele><time>2026-03-22T07:50:03.27Z</time></trkpt><trkpt lat="43.43519634844728" lon="11.92926019151951"><ele>454.8</ele><time>2026-03-22T07:50:04.266Z</time></trkpt><trkpt lat="43.435108861699916" lon="11.929308616486185"><ele>457.6</ele><time>2026-03-22T07:50:05.268Z</time></trkpt><trkpt lat="43.43503259819375" lon="11.929365184323842"><ele>460.40000000000003</ele><time>2026-03-22T07:50:06.265Z</time></trkpt><trkpt lat="43.43492769629402" lon="11.929407689654088"><ele>463.20000000000005</ele><time>2026-03-22T07:50:07.267Z</time></trkpt><trkpt lat="43.434819919398535" lon="11.929460168422153"><ele>466.0</ele><time>2026-03-22T07:50:08.268Z</time></trkpt><trkpt lat="43.43470010712872" lon="11.929520375803307"><ele>466.6666666666667</ele><time>2026-03-22T07:50:09.267Z</time></trkpt><trkpt lat="43.434607628108104" lon="11.92958288094137"><ele>467.33333333333337</ele><time>2026-03-22T07:50:10.267Z</time></trkpt><trkpt lat="43.43453568245105" lon="11.929640160976577"><ele>468.0</ele><time>2026-03-22T07:50:11.267Z</time></trkpt><trkpt lat="43.43446044326222" lon="11.929683372481431"><ele>468.66666666666663</ele><time>2026-03-22T07:50:12.266Z</time></trkpt><trkpt lat="43.43439487132879" lon="11.929710751710692"><ele>469.3333333333333</ele><time>2026-03-22T07:50:13.266Z</time></trkpt><trkpt lat="43.434304843353644" lon="11.929757646356169"><ele>470.0</ele><time>2026-03-22T07:50:15.265Z</time></trkpt><trkpt lat="43.434246141575045" lon="11.929795202482202"><ele>469.99999999999994</ele><time>2026-03-22T07:50:19.268Z</time></trkpt><trkpt lat="43.434296984407254" lon="11.929910627562528"><ele>470.0</ele><time>2026-03-22T07:50:22.265Z</time></trkpt><trkpt lat="43.434363201362615" lon="11.929898627966152"><ele>470.0</ele><time>2026-03-22T07:50:23.266Z</time></trkpt><trkpt lat="43.434426768481906" lon="11.92987596085465"><ele>470.0</ele><time>2026-03-22T07:50:24.256Z</time></trkpt><trkpt lat="43.43451983364938" lon="11.929867133834549"><ele>469.99999999999994</ele><time>2026-03-22T07:50:25.265Z</time></trkpt><trkpt lat="43.4346206898216" lon="11.929884519732237"><ele>470.0</ele><time>2026-03-22T07:50:26.266Z</time></trkpt><trkpt lat="43.43473872308463" lon="11.929910886522135"><ele>469.2</ele><time>2026-03-22T07:50:27.267Z</time></trkpt><trkpt lat="43.43485636444256" lon="11.929947312929386"><ele>468.4</ele><time>2026-03-22T07:50:28.266Z</time></trkpt><trkpt lat="43.43495453854176" lon="11.929992524008405"><ele>467.6</ele><time>2026-03-22T07:50:29.268Z</time></trkpt><trkpt lat="43.435038612566615" lon="11.930054239912526"><ele>466.8</ele><time>2026-03-22T07:50:32.267Z</time></trkpt><trkpt lat="43.43510007383048" lon="11.930094148595067"><ele>466.0</ele><time>2026-03-22T07:50:33.267Z</time></trkpt><trkpt lat="43.435162108463295" lon="11.9301258399609"><ele>469.14285714285717</ele><time>2026-03-22T07:50:34.26Z</time></trkpt><trkpt lat="43.435224620519854" lon="11.930193314600126"><ele>472.2857142857142</ele><time>2026-03-22T07:50:35.266Z</time></trkpt><trkpt lat="43.43528826946375" lon="11.930222519312421"><ele>475.4285714285714</ele><time>2026-03-22T07:50:36.268Z</time></trkpt><trkpt lat="43.435343508285136" lon="11.93026705922076"><ele>478.57142857142856</ele><time>2026-03-22T07:50:37.266Z</time></trkpt><trkpt lat="43.435341823032076" lon="11.930361051846887"><ele>481.71428571428567</ele><time>2026-03-22T07:50:40.267Z</time></trkpt><trkpt lat="43.435285758103305" lon="11.93040720524568"><ele>484.8571428571428</ele><time>2026-03-22T07:50:41.267Z</time></trkpt><trkpt lat="43.43521779529023" lon="11.930458874277832"><ele>487.99999999999994</ele><time>2026-03-22T07:50:42.267Z</time></trkpt><trkpt lat="43.435150336078145" lon="11.930487883928363"><ele>488.0</ele><time>2026-03-22T07:50:43.268Z</time></trkpt><trkpt lat="43.435035003453955" lon="11.930530379303363"><ele>487.99999999999994</ele><time>2026-03-22T07:50:45.267Z</time></trkpt><trkpt lat="43.43498276371133" lon="11.930597285512151"><ele>487.99999999999994</ele><time>2026-03-22T07:50:46.267Z</time></trkpt><trkpt lat="43.43490541650491" lon="11.930671152683615"><ele>488.0</ele><time>2026-03-22T07:50:47.267Z</time></trkpt><trkpt lat="43.43483467183727" lon="11.93072973843104"><ele>488.0</ele><time>2026-03-22T07:50:48.266Z</time></trkpt><trkpt lat="43.43472660578145" lon="11.930835528619404"><ele>491.79999999999995</ele><time>2026-03-22T07:50:50.266Z</time></trkpt><trkpt lat="43.43465755443615" lon="11.930911533786894"><ele>495.59999999999997</ele><time>2026-03-22T07:50:51.268Z</time></trkpt><trkpt lat="43.43459059253002" lon="11.93094446342279"><ele>499.40000000000003</ele><time>2026-03-22T07:50:52.258Z</time></trkpt><trkpt lat="43.434533183796326" lon="11.931018483260866"><ele>503.20000000000005</ele><time>2026-03-22T07:50:54.266Z</time></trkpt><trkpt lat="43.434610130814946" lon="11.931108464895697"><ele>507.0</ele><time>2026-03-22T07:50:57.266Z</time></trkpt><trkpt lat="43.4347308796399" lon="11.931115926105479"><ele>507.1666666666667</ele><time>2026-03-22T07:50:59.265Z</time></trkpt><trkpt lat="43.43481283018226" lon="11.9311436511246"><ele>507.33333333333337</ele><time>2026-03-22T07:51:00.267Z</time></trkpt><trkpt lat="43.43488291865281" lon="11.931167176723022"><ele>507.5</ele><time>2026-03-22T07:51:01.261Z</time></trkpt><trkpt lat="43.43495307922498" lon="11.931165522597885"><ele>507.6666666666667</ele><time>2026-03-22T07:51:02.267Z</time></trkpt><trkpt lat="43.435058931650374" lon="11.931239467411181"><ele>507.83333333333337</ele><time>2026-03-22T07:51:04.267Z</time></trkpt><trkpt lat="43.43512310954355" lon="11.931309930311771"><ele>508.0</ele><time>2026-03-22T07:51:06.265Z</time></trkpt><trkpt lat="43.43520094844814" lon="11.931441085775404"><ele>508.0</ele><time>2026-03-22T07:51:08.266Z</time></trkpt><trkpt lat="43.43528323863024" lon="11.931522198587647"><ele>508.0</ele><time>2026-03-22T07:51:09.265Z</time></trkpt><trkpt lat="43.43538993152647" lon="11.93160220207595"><ele>508.0</ele><time>2026-03-22T07:51:10.266Z</time></trkpt><trkpt lat="43.43549969254327" lon="11.931670898740473"><ele>508.0</ele><time>2026-03-22T07:51:12.265Z</time></trkpt><trkpt lat="43.43559589833784" lon="11.931817787150257"><ele>509.4</ele><time>2026-03-22T07:51:14.267Z</time></trkpt><trkpt lat="43.43563837995195" lon="11.931912598572806"><ele>510.79999999999995</ele><time>2026-03-22T07:51:15.266Z</time></trkpt><trkpt lat="43.4356710737052" lon="11.932048298865304"><ele>512.2</ele><time>2026-03-22T07:51:16.267Z</time></trkpt><trkpt lat="43.43572794251096" lon="11.932192379502787"><ele>513.6</ele><time>2026-03-22T07:51:17.267Z</time></trkpt><trkpt lat="43.43578949813753" lon="11.932310237506515"><ele>515.0</ele><time>2026-03-22T07:51:18.266Z</time></trkpt><trkpt lat="43.435808868846756" lon="11.93241518064781"><ele>515.0</ele><time>2026-03-22T07:51:19.266Z</time></trkpt><trkpt lat="43.43583263101043" lon="11.932540964460468"><ele>515.0</ele><time>2026-03-22T07:51:20.265Z</time></trkpt><trkpt lat="43.435855276035845" lon="11.932700630974718"><ele>515.0</ele><time>2026-03-22T07:51:21.259Z</time></trkpt><trkpt lat="43.435871313006196" lon="11.932877156111307"><ele>515.0</ele><time>2026-03-22T07:51:22.267Z</time></trkpt><trkpt lat="43.435895957959346" lon="11.933076889162544"><ele>517.4</ele><time>2026-03-22T07:51:23.267Z</time></trkpt><trkpt lat="43.435919087181766" lon="11.933246100475003"><ele>519.8</ele><time>2026-03-22T07:51:24.266Z</time></trkpt><trkpt lat="43.43593610769574" lon="11.933377098705925"><ele>522.2</ele><time>2026-03-22T07:51:25.266Z</time></trkpt><trkpt lat="43.43595109923165" lon="11.93347840147247"><ele>524.6</ele><time>2026-03-22T07:51:26.266Z</time></trkpt><trkpt lat="43.4359436253701" lon="11.933617853355717"><ele>527.0</ele><time>2026-03-22T07:51:28.266Z</time></trkpt><trkpt lat="43.43603517210574" lon="11.93357887036166"><ele>527.0</ele><time>2026-03-22T07:51:31.266Z</time></trkpt><trkpt lat="43.43610134571957" lon="11.933500150991872"><ele>527.0</ele><time>2026-03-22T07:51:32.266Z</time></trkpt><trkpt lat="43.436160665720394" lon="11.933403996821903"><ele>527.0</ele><time>2026-03-22T07:51:33.266Z</time></trkpt><trkpt lat="43.436216335809476" lon="11.933257632153182"><ele>527.0</ele><time>2026-03-22T07:51:35.265Z</time></trkpt><trkpt lat="43.43627232051604" lon="11.933142029242276"><ele>527.0</ele><time>2026-03-22T07:51:36.267Z</time></trkpt><trkpt lat="43.43631072171749" lon="11.933032349695017"><ele>528.0</ele><time>2026-03-22T07:51:37.266Z</time></trkpt><trkpt lat="43.436402646277095" lon="11.932917791762765"><ele>529.0</ele><time>2026-03-22T07:51:39.267Z</time></trkpt><trkpt lat="43.43649105942229" lon="11.93279357771148"><ele>530.0</ele><time>2026-03-22T07:51:41.268Z</time></trkpt><trkpt lat="43.43655603152597" lon="11.932724765719094"><ele>531.0</ele><time>2026-03-22T07:51:42.267Z</time></trkpt><trkpt lat="43.436618063531114" lon="11.93263379893729"><ele>532.0</ele><time>2026-03-22T07:51:43.267Z</time></trkpt><trkpt lat="43.43667974186251" lon="11.932581227538442"><ele>532.0</ele><time>2026-03-22T07:51:44.266Z</time></trkpt><trkpt lat="43.43679419008101" lon="11.932554665814749"><ele>532.0</ele><time>2026-03-22T07:51:46.265Z</time></trkpt><trkpt lat="43.43686146052201" lon="11.932549938367693"><ele>532.0</ele><time>2026-03-22T07:51:47.267Z</time></trkpt><trkpt lat="43.436969288745516" lon="11.932637643344874"><ele>532.0</ele><time>2026-03-22T07:51:49.267Z</time></trkpt><trkpt lat="43.437056116074736" lon="11.932706119847959"><ele>532.0</ele><time>2026-03-22T07:51:50.267Z</time></trkpt><trkpt lat="43.43714675395479" lon="11.93274909451352"><ele>532.0</ele><time>2026-03-22T07:51:51.267Z</time></trkpt><trkpt lat="43.437180580640465" lon="11.932847409805367"><ele>532.0</ele><time>2026-03-22T07:51:53.268Z</time></trkpt><trkpt lat="43.437138820615026" lon="11.932924640056395"><ele>532.0</ele><time>2026-03-22T07:51:55.268Z</time></trkpt><trkpt lat="43.437073431912914" lon="11.933035832828075"><ele>532.0</ele><time>2026-03-22T07:53:20.261Z</time></trkpt><trkpt lat="43.437036380691495" lon="11.933124667510352"><ele>532.0</ele><time>2026-03-22T07:53:21.269Z</time></trkpt><trkpt lat="43.436996436767956" lon="11.933225535806699"><ele>532.0</ele><time>2026-03-22T07:53:22.267Z</time></trkpt><trkpt lat="43.43695943736412" lon="11.933358772573223"><ele>534.1666666666667</ele><time>2026-03-22T07:53:23.267Z</time></trkpt><trkpt lat="43.43692516689185" lon="11.9334611126914"><ele>536.3333333333334</ele><time>2026-03-22T07:53:24.268Z</time></trkpt><trkpt lat="43.43689677467311" lon="11.933575767526127"><ele>538.5</ele><time>2026-03-22T07:53:25.267Z</time></trkpt><trkpt lat="43.436874222602185" lon="11.933672140908058"><ele>540.6666666666666</ele><time>2026-03-22T07:53:26.268Z</time></trkpt><trkpt lat="43.43685355773032" lon="11.933775995771352"><ele>542.8333333333333</ele><time>2026-03-22T07:53:27.267Z</time></trkpt><trkpt lat="43.436835747612726" lon="11.933888870367586"><ele>545.0</ele><time>2026-03-22T07:53:28.267Z</time></trkpt><trkpt lat="43.43682382799185" lon="11.933988488283962"><ele>545.0</ele><time>2026-03-22T07:53:29.268Z</time></trkpt><trkpt lat="43.43683003039346" lon="11.934089218951119"><ele>545.0</ele><time>2026-03-22T07:53:30.266Z</time></trkpt><trkpt lat="43.43681934622636" lon="11.934182387745764"><ele>545.0</ele><time>2026-03-22T07:53:31.267Z</time></trkpt><trkpt lat="43.43676982556338" lon="11.934271902571464"><ele>545.0</ele><time>2026-03-22T07:53:32.267Z</time></trkpt><trkpt lat="43.43671256126029" lon="11.934332947607633"><ele>545.0</ele><time>2026-03-22T07:53:33.267Z</time></trkpt><trkpt lat="43.436633081046224" lon="11.93435882176329"><ele>545.0</ele><time>2026-03-22T07:53:34.267Z</time></trkpt><trkpt lat="43.43654884095323" lon="11.93441895101587"><ele>546.8333333333333</ele><time>2026-03-22T07:53:36.267Z</time></trkpt><trkpt lat="43.43652989135407" lon="11.934587732714123"><ele>548.6666666666666</ele><time>2026-03-22T07:53:38.267Z</time></trkpt><trkpt lat="43.4365378970325" lon="11.934682794830936"><ele>550.5</ele><time>2026-03-22T07:53:39.269Z</time></trkpt><trkpt lat="43.43653261819932" lon="11.934771690183416"><ele>552.3333333333334</ele><time>2026-03-22T07:53:40.267Z</time></trkpt><trkpt lat="43.436541837043215" lon="11.934865742103984"><ele>554.1666666666667</ele><time>2026-03-22T07:53:41.268Z</time></trkpt><trkpt lat="43.436579824597324" lon="11.934968804677412"><ele>556.0</ele><time>2026-03-22T07:53:42.269Z</time></trkpt><trkpt lat="43.436621492107356" lon="11.935051511949986"><ele>557.8333333333334</ele><time>2026-03-22T07:53:43.268Z</time></trkpt><trkpt lat="43.43665188270011" lon="11.935168661801415"><ele>559.6666666666667</ele><time>2026-03-22T07:53:44.267Z</time></trkpt><trkpt lat="43.43668859514498" lon="11.935267741071334"><ele>561.5</ele><time>2026-03-22T07:53:45.267Z</time></trkpt><trkpt lat="43.43670543890522" lon="11.935356823494914"><ele>563.3333333333334</ele><time>2026-03-22T07:53:46.267Z</time></trkpt><trkpt lat="43.436699324947504" lon="11.935464981678845"><ele>565.1666666666666</ele><time>2026-03-22T07:53:47.269Z</time></trkpt><trkpt lat="43.43668551269342" lon="11.935593649095534"><ele>567.0</ele><time>2026-03-22T07:53:48.267Z</time></trkpt><trkpt lat="43.43667008022431" lon="11.93573901317637"><ele>567.0</ele><time>2026-03-22T07:53:49.268Z</time></trkpt><trkpt lat="43.436642250386114" lon="11.9358622153506"><ele>567.0</ele><time>2026-03-22T07:53:50.267Z</time></trkpt><trkpt lat="43.4366062313323" lon="11.93596553185652"><ele>567.0</ele><time>2026-03-22T07:53:51.266Z</time></trkpt><trkpt lat="43.43655356422673" lon="11.936093311903486"><ele>567.0</ele><time>2026-03-22T07:53:52.267Z</time></trkpt><trkpt lat="43.43651662193249" lon="11.93622661228065"><ele>567.0</ele><time>2026-03-22T07:53:53.267Z</time></trkpt><trkpt lat="43.436470763506826" lon="11.93637976067038"><ele>568.6666666666666</ele><time>2026-03-22T07:53:54.268Z</time></trkpt><trkpt lat="43.43643417312678" lon="11.936510374955672"><ele>570.3333333333334</ele><time>2026-03-22T07:53:55.268Z</time></trkpt><trkpt lat="43.436394593048206" lon="11.936605409225471"><ele>572.0</ele><time>2026-03-22T07:53:56.268Z</time></trkpt><trkpt lat="43.4363482694409" lon="11.936685953972079"><ele>573.6666666666667</ele><time>2026-03-22T07:53:57.267Z</time></trkpt><trkpt lat="43.436334703770015" lon="11.93679338998231"><ele>575.3333333333334</ele><time>2026-03-22T07:53:58.267Z</time></trkpt><trkpt lat="43.436354405631675" lon="11.936882267990685"><ele>577.0</ele><time>2026-03-22T07:54:01.268Z</time></trkpt><trkpt lat="43.43640518206787" lon="11.936978612265149"><ele>577.6</ele><time>2026-03-22T07:54:03.266Z</time></trkpt><trkpt lat="43.436437053329605" lon="11.937102075874462"><ele>578.2</ele><time>2026-03-22T07:54:07.268Z</time></trkpt><trkpt lat="43.43642840606394" lon="11.937248090944408"><ele>578.8</ele><time>2026-03-22T07:54:09.267Z</time></trkpt><trkpt lat="43.436393386730764" lon="11.937340044035409"><ele>579.4</ele><time>2026-03-22T07:54:10.268Z</time></trkpt><trkpt lat="43.43639595905513" lon="11.937501170018642"><ele>580.0</ele><time>2026-03-22T07:54:12.267Z</time></trkpt><trkpt lat="43.43639420476621" lon="11.937657775111669"><ele>579.0</ele><time>2026-03-22T07:54:14.267Z</time></trkpt><trkpt lat="43.43636601666742" lon="11.93774299482941"><ele>578.0</ele><time>2026-03-22T07:54:15.267Z</time></trkpt><trkpt lat="43.43635094522117" lon="11.937869929089976"><ele>577.0</ele><time>2026-03-22T07:54:16.267Z</time></trkpt><trkpt lat="43.43633582873801" lon="11.937959397234168"><ele>576.0</ele><time>2026-03-22T07:54:17.267Z</time></trkpt><trkpt lat="43.43634798997283" lon="11.93806976051138"><ele>575.0</ele><time>2026-03-22T07:54:19.268Z</time></trkpt><trkpt lat="43.43633291431136" lon="11.938171800856708"><ele>574.0</ele><time>2026-03-22T07:54:21.26Z</time></trkpt><trkpt lat="43.43633150693635" lon="11.938306916006509"><ele>571.2</ele><time>2026-03-22T07:54:23.266Z</time></trkpt><trkpt lat="43.43631714494703" lon="11.938400380387515"><ele>568.4</ele><time>2026-03-22T07:54:24.265Z</time></trkpt><trkpt lat="43.43622598484747" lon="11.938523459631202"><ele>565.6</ele><time>2026-03-22T07:54:26.265Z</time></trkpt><trkpt lat="43.43616827259906" lon="11.938602586971507"><ele>562.8</ele><time>2026-03-22T07:54:27.267Z</time></trkpt><trkpt lat="43.43611783097532" lon="11.938687189391644"><ele>560.0</ele><time>2026-03-22T07:54:28.266Z</time></trkpt><trkpt lat="43.43603178302157" lon="11.938794009731394"><ele>564.1666666666666</ele><time>2026-03-22T07:54:30.265Z</time></trkpt><trkpt lat="43.435970564651846" lon="11.938859712327567"><ele>568.3333333333333</ele><time>2026-03-22T07:54:31.266Z</time></trkpt><trkpt lat="43.435892221205684" lon="11.938906751738077"><ele>572.5</ele><time>2026-03-22T07:54:32.266Z</time></trkpt><trkpt lat="43.43584690822287" lon="11.938970089257968"><ele>576.6666666666666</ele><time>2026-03-22T07:54:33.266Z</time></trkpt><trkpt lat="43.43575748335753" lon="11.939079872524466"><ele>580.8333333333334</ele><time>2026-03-22T07:54:35.266Z</time></trkpt><trkpt lat="43.435718408097785" lon="11.939165762180357"><ele>585.0</ele><time>2026-03-22T07:54:37.266Z</time></trkpt><trkpt lat="43.4356954249019" lon="11.939252000618838"><ele>585.0</ele><time>2026-03-22T07:54:38.266Z</time></trkpt><trkpt lat="43.43569386867022" lon="11.939344268045195"><ele>585.0</ele><time>2026-03-22T07:54:39.265Z</time></trkpt><trkpt lat="43.43567600899711" lon="11.939462426459256"><ele>585.0</ele><time>2026-03-22T07:54:40.266Z</time></trkpt><trkpt lat="43.435601759240356" lon="11.93957125857232"><ele>585.0</ele><time>2026-03-22T07:54:42.267Z</time></trkpt><trkpt lat="43.43551967026317" lon="11.939616401434385"><ele>585.0</ele><time>2026-03-22T07:54:43.267Z</time></trkpt><trkpt lat="43.43545893764402" lon="11.93966505714658"><ele>585.0</ele><time>2026-03-22T07:54:44.266Z</time></trkpt><trkpt lat="43.43536749276105" lon="11.939782057540263"><ele>588.0</ele><time>2026-03-22T07:54:46.267Z</time></trkpt><trkpt lat="43.435309530634385" lon="11.939858797656143"><ele>591.0</ele><time>2026-03-22T07:54:47.268Z</time></trkpt><trkpt lat="43.43522774176836" lon="11.939884057867355"><ele>594.0</ele><time>2026-03-22T07:54:49.268Z</time></trkpt><trkpt lat="43.43512832690173" lon="11.93990232589544"><ele>597.0</ele><time>2026-03-22T07:54:51.268Z</time></trkpt><trkpt lat="43.43505152203473" lon="11.939952249446035"><ele>600.0</ele><time>2026-03-22T07:54:54.259Z</time></trkpt><trkpt lat="43.435000171727765" lon="11.94003634719008"><ele>603.0</ele><time>2026-03-22T07:54:56.266Z</time></trkpt><trkpt lat="43.434948830896346" lon="11.94018760219204"><ele>603.8571428571429</ele><time>2026-03-22T07:54:58.266Z</time></trkpt><trkpt lat="43.43491105459869" lon="11.940278514310176"><ele>604.7142857142857</ele><time>2026-03-22T07:54:59.267Z</time></trkpt><trkpt lat="43.43486892598311" lon="11.94036787113465"><ele>605.5714285714286</ele><time>2026-03-22T07:55:00.261Z</time></trkpt><trkpt lat="43.434837589769465" lon="11.940461917501192"><ele>606.4285714285714</ele><time>2026-03-22T07:55:01.269Z</time></trkpt><trkpt lat="43.434819625940904" lon="11.940558767250932"><ele>607.2857142857142</ele><time>2026-03-22T07:55:02.267Z</time></trkpt><trkpt lat="43.434811490968755" lon="11.940657056595157"><ele>608.1428571428571</ele><time>2026-03-22T07:55:03.267Z</time></trkpt><trkpt lat="43.434811718190545" lon="11.940760117636227"><ele>609.0</ele><time>2026-03-22T07:55:04.267Z</time></trkpt><trkpt lat="43.43483176326335" lon="11.940857478295328"><ele>610.8333333333334</ele><time>2026-03-22T07:55:05.267Z</time></trkpt><trkpt lat="43.43483313730719" lon="11.94094619993371"><ele>612.6666666666666</ele><time>2026-03-22T07:55:06.267Z</time></trkpt><trkpt lat="43.43480722211004" lon="11.941029327768282"><ele>614.5</ele><time>2026-03-22T07:55:07.268Z</time></trkpt><trkpt lat="43.434753465763215" lon="11.941082612303083"><ele>616.3333333333333</ele><time>2026-03-22T07:55:08.267Z</time></trkpt><trkpt lat="43.434682565741625" lon="11.941069372338072"><ele>618.1666666666666</ele><time>2026-03-22T07:55:09.267Z</time></trkpt><trkpt lat="43.4345856399241" lon="11.941081613942627"><ele>620.0</ele><time>2026-03-22T07:55:10.267Z</time></trkpt><trkpt lat="43.43448327086075" lon="11.941088971241834"><ele>620.6</ele><time>2026-03-22T07:55:11.267Z</time></trkpt><trkpt lat="43.434393556337824" lon="11.941103614890292"><ele>621.2</ele><time>2026-03-22T07:55:12.259Z</time></trkpt><trkpt lat="43.434272581831955" lon="11.941134986240215"><ele>621.8</ele><time>2026-03-22T07:55:13.265Z</time></trkpt><trkpt lat="43.43415645312113" lon="11.941157439948542"><ele>622.4</ele><time>2026-03-22T07:55:14.266Z</time></trkpt><trkpt lat="43.4340566982032" lon="11.941166533960805"><ele>623.0</ele><time>2026-03-22T07:55:15.267Z</time></trkpt><trkpt lat="43.43397347972207" lon="11.941211885233335"><ele>623.0</ele><time>2026-03-22T07:55:16.266Z</time></trkpt><trkpt lat="43.433914967961876" lon="11.941313766125445"><ele>623.0</ele><time>2026-03-22T07:55:17.267Z</time></trkpt><trkpt lat="43.433886119160164" lon="11.941440291167872"><ele>623.0</ele><time>2026-03-22T07:55:18.266Z</time></trkpt><trkpt lat="43.43390862511835" lon="11.941571104224707"><ele>623.0</ele><time>2026-03-22T07:55:19.267Z</time></trkpt><trkpt lat="43.43397195726476" lon="11.94168140206703"><ele>623.0</ele><time>2026-03-22T07:55:20.266Z</time></trkpt><trkpt lat="43.43405024587171" lon="11.941763116201319"><ele>621.0</ele><time>2026-03-22T07:55:21.265Z</time></trkpt><trkpt lat="43.4341454365967" lon="11.941848659221066"><ele>619.0</ele><time>2026-03-22T07:55:22.267Z</time></trkpt><trkpt lat="43.43423510934761" lon="11.941910423042017"><ele>617.0</ele><time>2026-03-22T07:55:23.267Z</time></trkpt><trkpt lat="43.434332165758576" lon="11.941955158367014"><ele>615.0</ele><time>2026-03-22T07:55:24.268Z</time></trkpt><trkpt lat="43.43444431029008" lon="11.941981204915725"><ele>613.0</ele><time>2026-03-22T07:55:25.265Z</time></trkpt><trkpt lat="43.43454846732085" lon="11.941996136894002"><ele>615.5</ele><time>2026-03-22T07:55:26.266Z</time></trkpt><trkpt lat="43.43463877538524" lon="11.942007522398422"><ele>618.0</ele><time>2026-03-22T07:55:27.266Z</time></trkpt><trkpt lat="43.43471651275914" lon="11.942036219929095"><ele>620.5</ele><time>2026-03-22T07:55:28.268Z</time></trkpt><trkpt lat="43.43479674055792" lon="11.942097445880686"><ele>623.0</ele><time>2026-03-22T07:55:29.268Z</time></trkpt><trkpt lat="43.43484998360755" lon="11.942176810286833"><ele>625.5</ele><time>2026-03-22T07:55:30.259Z</time></trkpt><trkpt lat="43.434899597483714" lon="11.942266043576911"><ele>628.0</ele><time>2026-03-22T07:55:31.267Z</time></trkpt><trkpt lat="43.43494144463559" lon="11.942370000061597"><ele>628.0</ele><time>2026-03-22T07:55:32.267Z</time></trkpt><trkpt lat="43.434979453038025" lon="11.942469597489753"><ele>628.0</ele><time>2026-03-22T07:55:33.266Z</time></trkpt><trkpt lat="43.43500966422661" lon="11.942578052122483"><ele>628.0</ele><time>2026-03-22T07:55:34.268Z</time></trkpt><trkpt lat="43.43503137923423" lon="11.942685627092107"><ele>628.0</ele><time>2026-03-22T07:55:35.266Z</time></trkpt><trkpt lat="43.43504608123813" lon="11.942820451196438"><ele>628.0</ele><time>2026-03-22T07:55:36.268Z</time></trkpt><trkpt lat="43.43505308001069" lon="11.942990011927638"><ele>630.3333333333334</ele><time>2026-03-22T07:55:37.268Z</time></trkpt><trkpt lat="43.43503853352163" lon="11.943188204950465"><ele>632.6666666666666</ele><time>2026-03-22T07:55:38.267Z</time></trkpt><trkpt lat="43.43503279456173" lon="11.943399312766452"><ele>635.0</ele><time>2026-03-22T07:55:39.267Z</time></trkpt><trkpt lat="43.43503135088777" lon="11.943626070756178"><ele>635.0</ele><time>2026-03-22T07:55:40.266Z</time></trkpt><trkpt lat="43.4351111806269" lon="11.943333001808135"><ele>635.0</ele><time>2026-03-22T07:55:41.268Z</time></trkpt><trkpt lat="43.4351276718617" lon="11.943447920761724"><ele>635.0</ele><time>2026-03-22T07:55:42.268Z</time></trkpt><trkpt lat="43.43512151639332" lon="11.943560074285463"><ele>635.0</ele><time>2026-03-22T07:55:43.266Z</time></trkpt><trkpt lat="43.435076266209165" lon="11.943671661167874"><ele>636.4</ele><time>2026-03-22T07:55:44.268Z</time></trkpt><trkpt lat="43.435054889217845" lon="11.943784761063306"><ele>637.8</ele><time>2026-03-22T07:55:45.266Z</time></trkpt><trkpt lat="43.43504889439422" lon="11.943913591106755"><ele>639.2</ele><time>2026-03-22T07:55:46.267Z</time></trkpt><trkpt lat="43.43503411051829" lon="11.944074059792412"><ele>640.6</ele><time>2026-03-22T07:55:47.264Z</time></trkpt><trkpt lat="43.435035022781264" lon="11.944222991559357"><ele>642.0</ele><time>2026-03-22T07:55:48.259Z</time></trkpt><trkpt lat="43.43501287470235" lon="11.944330690572446"><ele>642.2</ele><time>2026-03-22T07:55:49.267Z</time></trkpt><trkpt lat="43.4349772526628" lon="11.94444863238633"><ele>642.4000000000001</ele><time>2026-03-22T07:55:50.266Z</time></trkpt><trkpt lat="43.4349660257876" lon="11.944558656922698"><ele>642.5999999999999</ele><time>2026-03-22T07:55:51.266Z</time></trkpt><trkpt lat="43.43495213511188" lon="11.944720169981078"><ele>642.8</ele><time>2026-03-22T07:55:53.267Z</time></trkpt><trkpt lat="43.434995958399305" lon="11.944824420450637"><ele>643.0</ele><time>2026-03-22T07:55:55.267Z</time></trkpt><trkpt lat="43.435060568325575" lon="11.944878950646821"><ele>643.0</ele><time>2026-03-22T07:57:26.268Z</time></trkpt><trkpt lat="43.43513143130315" lon="11.944919911047679"><ele>643.0</ele><time>2026-03-22T07:57:28.268Z</time></trkpt><trkpt lat="43.43521084617441" lon="11.94496990113213"><ele>643.0</ele><time>2026-03-22T07:57:30.268Z</time></trkpt><trkpt lat="43.43531949320709" lon="11.94504766523169"><ele>643.0</ele><time>2026-03-22T07:57:32.269Z</time></trkpt><trkpt lat="43.435385391929046" lon="11.945105019026583"><ele>643.0</ele><time>2026-03-22T07:57:33.268Z</time></trkpt><trkpt lat="43.43543841507189" lon="11.945180208062775"><ele>643.0</ele><time>2026-03-22T07:57:34.269Z</time></trkpt><trkpt lat="43.43547968228218" lon="11.945280204638575"><ele>645.5999999999999</ele><time>2026-03-22T07:57:35.268Z</time></trkpt><trkpt lat="43.43552691219188" lon="11.945408282180484"><ele>648.1999999999999</ele><time>2026-03-22T07:57:36.269Z</time></trkpt><trkpt lat="43.435547507697216" lon="11.94553300288346"><ele>650.8</ele><time>2026-03-22T07:57:37.266Z</time></trkpt><trkpt lat="43.43555228389509" lon="11.945684085358895"><ele>653.4</ele><time>2026-03-22T07:57:38.266Z</time></trkpt><trkpt lat="43.43554067194186" lon="11.945817772125345"><ele>656.0</ele><time>2026-03-22T07:57:39.267Z</time></trkpt><trkpt lat="43.43553669886916" lon="11.945919587689165"><ele>656.7142857142857</ele><time>2026-03-22T07:57:40.269Z</time></trkpt><trkpt lat="43.43554954417237" lon="11.946008458330109"><ele>657.4285714285714</ele><time>2026-03-22T07:57:41.261Z</time></trkpt><trkpt lat="43.435547506196244" lon="11.94610431001024"><ele>658.1428571428571</ele><time>2026-03-22T07:57:42.267Z</time></trkpt><trkpt lat="43.43553939850952" lon="11.946198052203068"><ele>658.8571428571429</ele><time>2026-03-22T07:57:43.267Z</time></trkpt><trkpt lat="43.43553804485407" lon="11.94630214095903"><ele>659.5714285714286</ele><time>2026-03-22T07:57:44.268Z</time></trkpt><trkpt lat="43.43551037369927" lon="11.946402082356714"><ele>660.2857142857142</ele><time>2026-03-22T07:57:45.267Z</time></trkpt><trkpt lat="43.435501711178766" lon="11.946510193082867"><ele>661.0</ele><time>2026-03-22T07:57:46.266Z</time></trkpt><trkpt lat="43.435496567093544" lon="11.94661222653692"><ele>661.0</ele><time>2026-03-22T07:57:47.267Z</time></trkpt><trkpt lat="43.43549988173164" lon="11.946734400540105"><ele>661.0</ele><time>2026-03-22T07:57:48.268Z</time></trkpt><trkpt lat="43.43549406953588" lon="11.946849526978385"><ele>661.0</ele><time>2026-03-22T07:57:49.261Z</time></trkpt><trkpt lat="43.43545368782954" lon="11.94695539097468"><ele>661.0</ele><time>2026-03-22T07:57:50.267Z</time></trkpt><trkpt lat="43.435420052877355" lon="11.947064484835575"><ele>661.0</ele><time>2026-03-22T07:57:51.271Z</time></trkpt><trkpt lat="43.43540823252077" lon="11.947166947551109"><ele>661.0</ele><time>2026-03-22T07:57:52.267Z</time></trkpt><trkpt lat="43.435406054890294" lon="11.947264755131314"><ele>659.0</ele><time>2026-03-22T07:57:53.268Z</time></trkpt><trkpt lat="43.43541403307166" lon="11.947369915256271"><ele>657.0</ele><time>2026-03-22T07:57:54.267Z</time></trkpt><trkpt lat="43.4354243654367" lon="11.947476730385036"><ele>655.0</ele><time>2026-03-22T07:57:55.267Z</time></trkpt><trkpt lat="43.4354193423003" lon="11.94757681884138"><ele>653.0</ele><time>2026-03-22T07:57:56.268Z</time></trkpt><trkpt lat="43.435407043245256" lon="11.947691380458489"><ele>651.0</ele><time>2026-03-22T07:57:57.267Z</time></trkpt><trkpt lat="43.43540325779512" lon="11.947780717624045"><ele>649.0</ele><time>2026-03-22T07:57:58.268Z</time></trkpt><trkpt lat="43.43540866645157" lon="11.9478739770934"><ele>647.0</ele><time>2026-03-22T07:57:59.268Z</time></trkpt><trkpt lat="43.43542810597929" lon="11.94796688822076"><ele>647.0</ele><time>2026-03-22T07:58:00.269Z</time></trkpt><trkpt lat="43.43546324947801" lon="11.948076808158838"><ele>647.0</ele><time>2026-03-22T07:58:01.261Z</time></trkpt><trkpt lat="43.43548374231769" lon="11.948197557545882"><ele>647.0</ele><time>2026-03-22T07:58:02.266Z</time></trkpt><trkpt lat="43.43548518009447" lon="11.948320751479462"><ele>647.0</ele><time>2026-03-22T07:58:03.268Z</time></trkpt><trkpt lat="43.43547801814002" lon="11.94843047983621"><ele>647.0</ele><time>2026-03-22T07:58:04.268Z</time></trkpt><trkpt lat="43.43548149330138" lon="11.948518543631273"><ele>647.0</ele><time>2026-03-22T07:58:05.268Z</time></trkpt><trkpt lat="43.43548014195331" lon="11.948607361433277"><ele>648.5</ele><time>2026-03-22T07:58:06.267Z</time></trkpt><trkpt lat="43.43549095443429" lon="11.948774564540802"><ele>650.0</ele><time>2026-03-22T07:58:08.267Z</time></trkpt><trkpt lat="43.43550618304209" lon="11.94888065683749"><ele>651.5</ele><time>2026-03-22T07:58:09.267Z</time></trkpt><trkpt lat="43.43551524785611" lon="11.94900572720613"><ele>653.0</ele><time>2026-03-22T07:58:10.267Z</time></trkpt><trkpt lat="43.435517006828185" lon="11.949105865768603"><ele>654.5</ele><time>2026-03-22T07:58:11.267Z</time></trkpt><trkpt lat="43.43551062926548" lon="11.949209040022007"><ele>656.0</ele><time>2026-03-22T07:58:12.267Z</time></trkpt><trkpt lat="43.4354972927013" lon="11.94931380946718"><ele>656.8</ele><time>2026-03-22T07:58:13.267Z</time></trkpt><trkpt lat="43.43549158553717" lon="11.949418830470975"><ele>657.5999999999999</ele><time>2026-03-22T07:58:14.267Z</time></trkpt><trkpt lat="43.43550433131367" lon="11.94956767873781"><ele>658.4</ele><time>2026-03-22T07:58:16.268Z</time></trkpt><trkpt lat="43.43547871534904" lon="11.94973418430941"><ele>659.2</ele><time>2026-03-22T07:58:18.266Z</time></trkpt><trkpt lat="43.43545225496442" lon="11.949889795513885"><ele>660.0</ele><time>2026-03-22T07:58:20.26Z</time></trkpt><trkpt lat="43.435431554177946" lon="11.9499874301312"><ele>658.8333333333334</ele><time>2026-03-22T07:58:21.267Z</time></trkpt><trkpt lat="43.43542271736245" lon="11.950074725641423"><ele>657.6666666666666</ele><time>2026-03-22T07:58:22.267Z</time></trkpt><trkpt lat="43.43541930475703" lon="11.95016867828217"><ele>656.5</ele><time>2026-03-22T07:58:23.267Z</time></trkpt><trkpt lat="43.43538504353124" lon="11.950250552513117"><ele>655.3333333333333</ele><time>2026-03-22T07:58:24.267Z</time></trkpt><trkpt lat="43.435344383761965" lon="11.9503343733259"><ele>654.1666666666666</ele><time>2026-03-22T07:58:25.257Z</time></trkpt><trkpt lat="43.435308057085074" lon="11.950433271916664"><ele>653.0</ele><time>2026-03-22T07:58:26.267Z</time></trkpt><trkpt lat="43.435275585292956" lon="11.95057862087755"><ele>653.0</ele><time>2026-03-22T07:58:28.269Z</time></trkpt><trkpt lat="43.43523137171668" lon="11.950692182189426"><ele>653.0</ele><time>2026-03-22T07:58:30.267Z</time></trkpt><trkpt lat="43.43517956873047" lon="11.950809697360153"><ele>653.0</ele><time>2026-03-22T07:58:32.267Z</time></trkpt><trkpt lat="43.43509553730452" lon="11.950817342958816"><ele>653.0</ele><time>2026-03-22T07:58:33.267Z</time></trkpt><trkpt lat="43.434983713423826" lon="11.950833452551354"><ele>653.0</ele><time>2026-03-22T07:58:34.267Z</time></trkpt><trkpt lat="43.43489309153496" lon="11.95097582454652"><ele>654.3333333333333</ele><time>2026-03-22T07:58:36.267Z</time></trkpt><trkpt lat="43.43485966887364" lon="11.951087749542868"><ele>655.6666666666666</ele><time>2026-03-22T07:58:37.267Z</time></trkpt><trkpt lat="43.434834129152854" lon="11.951186878715369"><ele>657.0</ele><time>2026-03-22T07:58:38.273Z</time></trkpt><trkpt lat="43.4348238341862" lon="11.951299579577041"><ele>658.3333333333334</ele><time>2026-03-22T07:58:39.267Z</time></trkpt><trkpt lat="43.43482773648721" lon="11.951419091219977"><ele>659.6666666666667</ele><time>2026-03-22T07:58:40.268Z</time></trkpt><trkpt lat="43.43481943287935" lon="11.951552722887723"><ele>661.0</ele><time>2026-03-22T07:58:41.268Z</time></trkpt><trkpt lat="43.43482806356328" lon="11.95165748230585"><ele>661.5714285714286</ele><time>2026-03-22T07:58:42.267Z</time></trkpt><trkpt lat="43.43484612880307" lon="11.951749158315106"><ele>662.1428571428571</ele><time>2026-03-22T07:58:43.269Z</time></trkpt><trkpt lat="43.43482759710017" lon="11.951843453155615"><ele>662.7142857142858</ele><time>2026-03-22T07:58:44.267Z</time></trkpt><trkpt lat="43.434811788323444" lon="11.951951841327913"><ele>663.2857142857142</ele><time>2026-03-22T07:58:45.268Z</time></trkpt><trkpt lat="43.43481600695548" lon="11.952045469062414"><ele>663.8571428571429</ele><time>2026-03-22T07:58:47.268Z</time></trkpt><trkpt lat="43.43483062336666" lon="11.952146424906793"><ele>664.4285714285714</ele><time>2026-03-22T07:58:48.267Z</time></trkpt><trkpt lat="43.43483281952449" lon="11.952251437916502"><ele>665.0</ele><time>2026-03-22T07:58:49.267Z</time></trkpt><trkpt lat="43.43481682142682" lon="11.952360732549453"><ele>665.0</ele><time>2026-03-22T07:58:50.267Z</time></trkpt><trkpt lat="43.43480417830478" lon="11.952536426143759"><ele>665.0</ele><time>2026-03-22T07:58:52.268Z</time></trkpt><trkpt lat="43.43479251710818" lon="11.952643232654562"><ele>665.0</ele><time>2026-03-22T07:58:53.266Z</time></trkpt><trkpt lat="43.43471139636982" lon="11.952776556450806"><ele>665.0</ele><time>2026-03-22T07:58:55.267Z</time></trkpt><trkpt lat="43.434637565317246" lon="11.952816413019338"><ele>665.0</ele><time>2026-03-22T07:58:56.26Z</time></trkpt><trkpt lat="43.434547783908826" lon="11.952846511654894"><ele>664.0</ele><time>2026-03-22T07:58:57.267Z</time></trkpt><trkpt lat="43.4344691400767" lon="11.952881913760166"><ele>663.0</ele><time>2026-03-22T07:58:58.266Z</time></trkpt><trkpt lat="43.43440204691802" lon="11.952932898487534"><ele>662.0</ele><time>2026-03-22T07:58:59.267Z</time></trkpt><trkpt lat="43.43434451031604" lon="11.952992972272158"><ele>661.0</ele><time>2026-03-22T07:59:00.267Z</time></trkpt><trkpt lat="43.434298275063234" lon="11.953057389924066"><ele>660.0</ele><time>2026-03-22T07:59:01.269Z</time></trkpt><trkpt lat="43.434243212611214" lon="11.953116949435467"><ele>659.0</ele><time>2026-03-22T07:59:02.266Z</time></trkpt><trkpt lat="43.43419600385061" lon="11.953203064529728"><ele>658.0</ele><time>2026-03-22T07:59:03.267Z</time></trkpt><trkpt lat="43.434114644128165" lon="11.95327666320696"><ele>659.5</ele><time>2026-03-22T07:59:05.268Z</time></trkpt><trkpt lat="43.43406613774303" lon="11.95339108673009"><ele>661.0</ele><time>2026-03-22T07:59:07.269Z</time></trkpt><trkpt lat="43.433993991485174" lon="11.953429384747201"><ele>662.5</ele><time>2026-03-22T07:59:08.269Z</time></trkpt><trkpt lat="43.433908777231856" lon="11.95346377247221"><ele>664.0</ele><time>2026-03-22T07:59:09.269Z</time></trkpt><trkpt lat="43.43384751841072" lon="11.953504188469262"><ele>665.5</ele><time>2026-03-22T07:59:10.268Z</time></trkpt><trkpt lat="43.43380491001555" lon="11.953576799616174"><ele>667.0</ele><time>2026-03-22T07:59:11.268Z</time></trkpt><trkpt lat="43.43377755367365" lon="11.953672213883943"><ele>663.5</ele><time>2026-03-22T07:59:12.271Z</time></trkpt><trkpt lat="43.43376132631656" lon="11.953778801458652"><ele>660.0</ele><time>2026-03-22T07:59:13.268Z</time></trkpt><trkpt lat="43.4337377027679" lon="11.9538651845538"><ele>656.5</ele><time>2026-03-22T07:59:14.269Z</time></trkpt><trkpt lat="43.433738457745946" lon="11.954035121618876"><ele>653.0</ele><time>2026-03-22T07:59:16.268Z</time></trkpt><trkpt lat="43.433738721664504" lon="11.954142210783557"><ele>649.5</ele><time>2026-03-22T07:59:17.268Z</time></trkpt><trkpt lat="43.433732627737584" lon="11.954237332602784"><ele>646.0</ele><time>2026-03-22T07:59:18.267Z</time></trkpt><trkpt lat="43.43374324122201" lon="11.9543474142887"><ele>645.1666666666667</ele><time>2026-03-22T07:59:19.267Z</time></trkpt><trkpt lat="43.43376748158945" lon="11.954438133188908"><ele>644.3333333333334</ele><time>2026-03-22T07:59:20.268Z</time></trkpt><trkpt lat="43.43379940168611" lon="11.954517053808667"><ele>643.5</ele><time>2026-03-22T07:59:21.262Z</time></trkpt><trkpt lat="43.43381860197474" lon="11.954614964228304"><ele>642.6666666666666</ele><time>2026-03-22T07:59:22.267Z</time></trkpt><trkpt lat="43.433843277219616" lon="11.954714159095968"><ele>641.8333333333333</ele><time>2026-03-22T07:59:23.269Z</time></trkpt><trkpt lat="43.43387675456969" lon="11.95489253118698"><ele>641.0</ele><time>2026-03-22T07:59:25.267Z</time></trkpt><trkpt lat="43.43389680641353" lon="11.954984525885939"><ele>643.1666666666666</ele><time>2026-03-22T07:59:26.267Z</time></trkpt><trkpt lat="43.43390413162991" lon="11.955076994828628"><ele>645.3333333333333</ele><time>2026-03-22T07:59:27.267Z</time></trkpt><trkpt lat="43.43389023579918" lon="11.955204970037368"><ele>647.5</ele><time>2026-03-22T07:59:28.267Z</time></trkpt><trkpt lat="43.43387966728156" lon="11.955302466096022"><ele>649.6666666666666</ele><time>2026-03-22T07:59:29.267Z</time></trkpt><trkpt lat="43.433846317037954" lon="11.955436328108426"><ele>651.8333333333334</ele><time>2026-03-22T07:59:31.268Z</time></trkpt><trkpt lat="43.4338355530368" lon="11.955589422555084"><ele>654.0</ele><time>2026-03-22T07:59:33.267Z</time></trkpt><trkpt lat="43.4338472401177" lon="11.955732401225523"><ele>651.6</ele><time>2026-03-22T07:59:35.267Z</time></trkpt><trkpt lat="43.43383796468152" lon="11.95589861042209"><ele>649.2</ele><time>2026-03-22T07:59:37.267Z</time></trkpt><trkpt lat="43.433828439408046" lon="11.956082515740807"><ele>646.8000000000001</ele><time>2026-03-22T07:59:39.267Z</time></trkpt><trkpt lat="43.43381636304289" lon="11.956198316881437"><ele>644.4000000000001</ele><time>2026-03-22T07:59:40.268Z</time></trkpt><trkpt lat="43.433809907453664" lon="11.956297907742346"><ele>642.0</ele><time>2026-03-22T07:59:41.262Z</time></trkpt><trkpt lat="43.43381534428961" lon="11.956408305336552"><ele>641.9999999999999</ele><time>2026-03-22T07:59:42.267Z</time></trkpt><trkpt lat="43.43381784791232" lon="11.956507893019637"><ele>642.0</ele><time>2026-03-22T07:59:43.268Z</time></trkpt><trkpt lat="43.43383625499645" lon="11.956606429839537"><ele>642.0</ele><time>2026-03-22T07:59:44.269Z</time></trkpt><trkpt lat="43.4338549627406" lon="11.956690684897522"><ele>642.0</ele><time>2026-03-22T07:59:45.268Z</time></trkpt><trkpt lat="43.433870113899644" lon="11.956775837514849"><ele>642.0</ele><time>2026-03-22T07:59:46.267Z</time></trkpt><trkpt lat="43.433900082154636" lon="11.956865467564679"><ele>641.9999999999999</ele><time>2026-03-22T07:59:47.268Z</time></trkpt><trkpt lat="43.43394315563807" lon="11.956938897832691"><ele>642.0</ele><time>2026-03-22T07:59:48.268Z</time></trkpt><trkpt lat="43.43398007135298" lon="11.957029304619057"><ele>639.9999999999999</ele><time>2026-03-22T07:59:49.268Z</time></trkpt><trkpt lat="43.43401850531845" lon="11.957118611722331"><ele>638.0</ele><time>2026-03-22T07:59:50.269Z</time></trkpt><trkpt lat="43.434053634977076" lon="11.957193053956773"><ele>636.0</ele><time>2026-03-22T07:59:51.267Z</time></trkpt><trkpt lat="43.43409258113993" lon="11.957264928192545"><ele>634.0</ele><time>2026-03-22T07:59:52.269Z</time></trkpt><trkpt lat="43.434138185927516" lon="11.957338524899724"><ele>632.0</ele><time>2026-03-22T07:59:53.267Z</time></trkpt><trkpt lat="43.43418789431764" lon="11.957400029197773"><ele>629.9999999999999</ele><time>2026-03-22T07:59:54.268Z</time></trkpt><trkpt lat="43.434244412797" lon="11.957446088883156"><ele>628.0</ele><time>2026-03-22T07:59:55.269Z</time></trkpt><trkpt lat="43.43431268353125" lon="11.957573125236523"><ele>626.0</ele><time>2026-03-22T07:59:57.267Z</time></trkpt><trkpt lat="43.43436243909985" lon="11.95765721653799"><ele>624.0</ele><time>2026-03-22T07:59:59.268Z</time></trkpt><trkpt lat="43.434420167093805" lon="11.957739833328382"><ele>622.0</ele><time>2026-03-22T08:00:02.267Z</time></trkpt><trkpt lat="43.43448364428027" lon="11.957839105940504"><ele>620.0</ele><time>2026-03-22T08:00:05.267Z</time></trkpt><trkpt lat="43.4345628209447" lon="11.957894780560244"><ele>618.0</ele><time>2026-03-22T08:00:08.259Z</time></trkpt><trkpt lat="43.43465117072172" lon="11.957957545467924"><ele>616.0</ele><time>2026-03-22T08:00:10.268Z</time></trkpt><trkpt lat="43.43474282807822" lon="11.957976091611817"><ele>615.5</ele><time>2026-03-22T08:00:12.268Z</time></trkpt><trkpt lat="43.43481541433675" lon="11.957986717648875"><ele>615.0</ele><time>2026-03-22T08:00:14.269Z</time></trkpt><trkpt lat="43.43489757535953" lon="11.95801223911838"><ele>614.5</ele><time>2026-03-22T08:00:16.267Z</time></trkpt><trkpt lat="43.43499271045435" lon="11.958037823135927"><ele>614.0</ele><time>2026-03-22T08:00:18.267Z</time></trkpt><trkpt lat="43.435075547346585" lon="11.958103061902438"><ele>613.5</ele><time>2026-03-22T08:00:20.268Z</time></trkpt><trkpt lat="43.43514731657919" lon="11.958160097916833"><ele>613.0</ele><time>2026-03-22T08:00:22.266Z</time></trkpt><trkpt lat="43.43522785609739" lon="11.958219193921613"><ele>613.0</ele><time>2026-03-22T08:00:24.267Z</time></trkpt><trkpt lat="43.43527377329923" lon="11.95827971641756"><ele>613.0</ele><time>2026-03-22T08:00:25.266Z</time></trkpt><trkpt lat="43.43533500119401" lon="11.95837998157595"><ele>613.0</ele><time>2026-03-22T08:00:27.268Z</time></trkpt><trkpt lat="43.43540709234349" lon="11.958445790639384"><ele>613.0</ele><time>2026-03-22T08:00:29.268Z</time></trkpt><trkpt lat="43.43548084157975" lon="11.958471552887545"><ele>613.0</ele><time>2026-03-22T08:00:31.268Z</time></trkpt><trkpt lat="43.43553154398053" lon="11.958368119733649"><ele>613.0</ele><time>2026-03-22T08:00:34.267Z</time></trkpt><trkpt lat="43.43558901655533" lon="11.958329904357052"><ele>609.3333333333334</ele><time>2026-03-22T08:00:36.267Z</time></trkpt><trkpt lat="43.4356323975341" lon="11.958449900218007"><ele>605.6666666666667</ele><time>2026-03-22T08:00:39.268Z</time></trkpt><trkpt lat="43.435613318430775" lon="11.958572409930792"><ele>602.0</ele><time>2026-03-22T08:00:41.268Z</time></trkpt><trkpt lat="43.43562366948726" lon="11.958658371868518"><ele>598.3333333333334</ele><time>2026-03-22T08:00:43.268Z</time></trkpt><trkpt lat="43.43562635229241" lon="11.958778582346682"><ele>594.6666666666666</ele><time>2026-03-22T08:00:46.267Z</time></trkpt><trkpt lat="43.435631096374564" lon="11.958905937817923"><ele>591.0</ele><time>2026-03-22T08:00:49.266Z</time></trkpt><trkpt lat="43.435640052037066" lon="11.959019927734241"><ele>591.0</ele><time>2026-03-22T08:00:51.268Z</time></trkpt><trkpt lat="43.43565142962178" lon="11.95912297786838"><ele>591.0</ele><time>2026-03-22T08:00:53.268Z</time></trkpt><trkpt lat="43.4356672248868" lon="11.959257938413716"><ele>591.0</ele><time>2026-03-22T08:00:55.267Z</time></trkpt><trkpt lat="43.435635812748195" lon="11.959335148381964"><ele>591.0</ele><time>2026-03-22T08:00:57.268Z</time></trkpt><trkpt lat="43.43555942336914" lon="11.959329005021402"><ele>591.0</ele><time>2026-03-22T08:00:59.269Z</time></trkpt><trkpt lat="43.43546727661923" lon="11.959340466343715"><ele>591.0</ele><time>2026-03-22T08:01:02.26Z</time></trkpt><trkpt lat="43.43537170474945" lon="11.959256502055482"><ele>591.2</ele><time>2026-03-22T08:01:04.267Z</time></trkpt><trkpt lat="43.43526877260595" lon="11.959214266947328"><ele>591.4000000000001</ele><time>2026-03-22T08:01:06.267Z</time></trkpt><trkpt lat="43.4351978712241" lon="11.959205777801845"><ele>591.6</ele><time>2026-03-22T08:01:07.267Z</time></trkpt><trkpt lat="43.4350809530563" lon="11.959187649732499"><ele>591.8000000000001</ele><time>2026-03-22T08:01:09.267Z</time></trkpt><trkpt lat="43.43499963276556" lon="11.959178193059758"><ele>592.0</ele><time>2026-03-22T08:01:10.267Z</time></trkpt><trkpt lat="43.434915836067624" lon="11.959165384170902"><ele>592.0</ele><time>2026-03-22T08:01:11.268Z</time></trkpt><trkpt lat="43.43485129120606" lon="11.95917266177732"><ele>592.0</ele><time>2026-03-22T08:01:12.266Z</time></trkpt><trkpt lat="43.43476473305484" lon="11.959183605675813"><ele>592.0</ele><time>2026-03-22T08:01:13.266Z</time></trkpt><trkpt lat="43.434655960297626" lon="11.959209714494596"><ele>592.0</ele><time>2026-03-22T08:01:15.266Z</time></trkpt><trkpt lat="43.43455212714612" lon="11.95924153819437"><ele>592.0</ele><time>2026-03-22T08:01:17.267Z</time></trkpt><trkpt lat="43.43448970591487" lon="11.959271421040356"><ele>592.0</ele><time>2026-03-22T08:01:20.258Z</time></trkpt><trkpt lat="43.43437701459279" lon="11.959417180005833"><ele>590.4</ele><time>2026-03-22T08:01:22.267Z</time></trkpt><trkpt lat="43.434333026141566" lon="11.959559474878143"><ele>588.8000000000001</ele><time>2026-03-22T08:01:24.267Z</time></trkpt><trkpt lat="43.434310796611506" lon="11.959651822873306"><ele>587.2</ele><time>2026-03-22T08:01:25.267Z</time></trkpt><trkpt lat="43.43426069184124" lon="11.9598120350949"><ele>585.6</ele><time>2026-03-22T08:01:27.267Z</time></trkpt><trkpt lat="43.434233249998414" lon="11.95990251653985"><ele>584.0</ele><time>2026-03-22T08:01:28.268Z</time></trkpt><trkpt lat="43.43421251508896" lon="11.959997579126508"><ele>582.0</ele><time>2026-03-22T08:01:29.267Z</time></trkpt><trkpt lat="43.43418528223479" lon="11.960090865974427"><ele>580.0</ele><time>2026-03-22T08:01:30.266Z</time></trkpt><trkpt lat="43.43415351267052" lon="11.960173419161091"><ele>578.0</ele><time>2026-03-22T08:01:31.266Z</time></trkpt><trkpt lat="43.43409716810068" lon="11.960254950307224"><ele>576.0</ele><time>2026-03-22T08:01:33.261Z</time></trkpt><trkpt lat="43.43404620632654" lon="11.960351442074032"><ele>574.0</ele><time>2026-03-22T08:01:38.269Z</time></trkpt><trkpt lat="43.43402791968282" lon="11.960441396091843"><ele>572.0</ele><time>2026-03-22T08:01:40.261Z</time></trkpt><trkpt lat="43.43398910776466" lon="11.960564112915302"><ele>572.0</ele><time>2026-03-22T08:01:42.268Z</time></trkpt><trkpt lat="43.433985520116586" lon="11.960681805869461"><ele>572.0</ele><time>2026-03-22T08:01:43.267Z</time></trkpt><trkpt lat="43.43397906441846" lon="11.960769218260216"><ele>572.0</ele><time>2026-03-22T08:01:44.268Z</time></trkpt><trkpt lat="43.4339460182373" lon="11.960868290201983"><ele>572.0</ele><time>2026-03-22T08:01:45.267Z</time></trkpt><trkpt lat="43.433897242709264" lon="11.960958970333657"><ele>572.0</ele><time>2026-03-22T08:01:46.267Z</time></trkpt><trkpt lat="43.43383254598454" lon="11.961034163571272"><ele>572.0</ele><time>2026-03-22T08:01:47.268Z</time></trkpt><trkpt lat="43.43376846807847" lon="11.961106694973624"><ele>572.8333333333333</ele><time>2026-03-22T08:01:48.269Z</time></trkpt><trkpt lat="43.43371528126371" lon="11.96117142562744"><ele>573.6666666666666</ele><time>2026-03-22T08:01:49.268Z</time></trkpt><trkpt lat="43.43364565604903" lon="11.961226451937899"><ele>574.5</ele><time>2026-03-22T08:01:50.269Z</time></trkpt><trkpt lat="43.433568303828174" lon="11.961284518004001"><ele>575.3333333333334</ele><time>2026-03-22T08:01:51.27Z</time></trkpt><trkpt lat="43.433497891959185" lon="11.961346977006105"><ele>576.1666666666667</ele><time>2026-03-22T08:01:52.267Z</time></trkpt><trkpt lat="43.43348351799977" lon="11.961503450682232"><ele>577.0</ele><time>2026-03-22T08:01:54.268Z</time></trkpt><trkpt lat="43.4335059334178" lon="11.961600919048527"><ele>574.0</ele><time>2026-03-22T08:01:55.267Z</time></trkpt><trkpt lat="43.43354998763085" lon="11.961702707091957"><ele>571.0</ele><time>2026-03-22T08:01:56.268Z</time></trkpt><trkpt lat="43.43357198822819" lon="11.961854329406176"><ele>568.0</ele><time>2026-03-22T08:01:58.267Z</time></trkpt><trkpt lat="43.433547171559454" lon="11.961939478868151"><ele>565.0</ele><time>2026-03-22T08:01:59.268Z</time></trkpt><trkpt lat="43.43353542872687" lon="11.962080789600346"><ele>562.0</ele><time>2026-03-22T08:02:01.274Z</time></trkpt><trkpt lat="43.433476667546564" lon="11.962177822755065"><ele>562.0</ele><time>2026-03-22T08:02:03.268Z</time></trkpt><trkpt lat="43.43339235156714" lon="11.962232292211588"><ele>562.0</ele><time>2026-03-22T08:02:05.268Z</time></trkpt><trkpt lat="43.433314688696946" lon="11.962312695203074"><ele>562.0</ele><time>2026-03-22T08:02:07.267Z</time></trkpt><trkpt lat="43.43324205038384" lon="11.962389627858329"><ele>562.0</ele><time>2026-03-22T08:02:09.27Z</time></trkpt><trkpt lat="43.433185485119715" lon="11.96247505760148"><ele>562.0</ele><time>2026-03-22T08:02:11.268Z</time></trkpt><trkpt lat="43.43314936406484" lon="11.962621312152917"><ele>559.6666666666667</ele><time>2026-03-22T08:02:13.268Z</time></trkpt><trkpt lat="43.43308404524408" lon="11.962743597865952"><ele>557.3333333333334</ele><time>2026-03-22T08:02:15.268Z</time></trkpt><trkpt lat="43.43304293332428" lon="11.962842593529587"><ele>555.0</ele><time>2026-03-22T08:02:17.268Z</time></trkpt><trkpt lat="43.43300685612041" lon="11.962916892424534"><ele>552.6666666666666</ele><time>2026-03-22T08:02:19.268Z</time></trkpt><trkpt lat="43.43295273458327" lon="11.96302092561119"><ele>550.3333333333333</ele><time>2026-03-22T08:02:22.267Z</time></trkpt><trkpt lat="43.43291676186371" lon="11.963110054854678"><ele>548.0</ele><time>2026-03-22T08:02:24.268Z</time></trkpt><trkpt lat="43.43289743954029" lon="11.963227963049546"><ele>546.6666666666666</ele><time>2026-03-22T08:02:26.267Z</time></trkpt><trkpt lat="43.432906373132795" lon="11.963338276864011"><ele>545.3333333333333</ele><time>2026-03-22T08:02:28.268Z</time></trkpt><trkpt lat="43.43290292839356" lon="11.963450969899592"><ele>544.0</ele><time>2026-03-22T08:02:30.267Z</time></trkpt><trkpt lat="43.43286087598125" lon="11.963548963106511"><ele>542.6666666666666</ele><time>2026-03-22T08:02:32.268Z</time></trkpt><trkpt lat="43.43279384750285" lon="11.96361155284182"><ele>541.3333333333334</ele><time>2026-03-22T08:02:34.268Z</time></trkpt><trkpt lat="43.43275274406487" lon="11.963686315349182"><ele>540.0</ele><time>2026-03-22T08:02:36.267Z</time></trkpt><trkpt lat="43.432732037776425" lon="11.963781224653578"><ele>539.8</ele><time>2026-03-22T08:02:37.268Z</time></trkpt><trkpt lat="43.43268179367181" lon="11.963902182767105"><ele>539.6</ele><time>2026-03-22T08:02:38.268Z</time></trkpt><trkpt lat="43.43265784970974" lon="11.964011563881273"><ele>539.4</ele><time>2026-03-22T08:02:39.268Z</time></trkpt><trkpt lat="43.4326285173519" lon="11.964102339273389"><ele>539.2</ele><time>2026-03-22T08:02:40.268Z</time></trkpt><trkpt lat="43.432630815292676" lon="11.964259796466658"><ele>539.0</ele><time>2026-03-22T08:02:42.267Z</time></trkpt><trkpt lat="43.43266771142825" lon="11.96439692304018"><ele>539.0</ele><time>2026-03-22T08:02:45.268Z</time></trkpt><trkpt lat="43.43269755769515" lon="11.964522047619765"><ele>539.0</ele><time>2026-03-22T08:02:47.267Z</time></trkpt><trkpt lat="43.43271619842954" lon="11.96463644399427"><ele>539.0</ele><time>2026-03-22T08:02:49.267Z</time></trkpt><trkpt lat="43.432828011203235" lon="11.96466211066252"><ele>539.0</ele><time>2026-03-22T08:02:51.268Z</time></trkpt><trkpt lat="43.43287396573826" lon="11.96472355869991"><ele>539.0</ele><time>2026-03-22T08:02:52.268Z</time></trkpt><trkpt lat="43.4328957759841" lon="11.964823262924746"><ele>539.0</ele><time>2026-03-22T08:02:53.268Z</time></trkpt><trkpt lat="43.4328984126083" lon="11.964936012256759"><ele>539.2</ele><time>2026-03-22T08:02:54.268Z</time></trkpt><trkpt lat="43.43290004570587" lon="11.965033140642607"><ele>539.4</ele><time>2026-03-22T08:02:55.267Z</time></trkpt><trkpt lat="43.43291206638623" lon="11.965138955806664"><ele>539.6</ele><time>2026-03-22T08:02:56.268Z</time></trkpt><trkpt lat="43.432978844978294" lon="11.965259056470169"><ele>539.8</ele><time>2026-03-22T08:02:58.267Z</time></trkpt><trkpt lat="43.43311144520602" lon="11.965259570123358"><ele>540.0</ele><time>2026-03-22T08:03:00.268Z</time></trkpt><trkpt lat="43.433182793895746" lon="11.965278663520664"><ele>540.0</ele><time>2026-03-22T08:03:01.261Z</time></trkpt><trkpt lat="43.43327226708417" lon="11.965362737891228"><ele>540.0</ele><time>2026-03-22T08:03:03.26Z</time></trkpt><trkpt lat="43.43332794104023" lon="11.965461392798067"><ele>540.0</ele><time>2026-03-22T08:03:05.268Z</time></trkpt><trkpt lat="43.433381153880276" lon="11.965569401776783"><ele>540.0</ele><time>2026-03-22T08:03:07.268Z</time></trkpt><trkpt lat="43.433374055196694" lon="11.965690666892732"><ele>540.0</ele><time>2026-03-22T08:03:09.268Z</time></trkpt><trkpt lat="43.433308650163454" lon="11.965785427292563"><ele>541.8333333333334</ele><time>2026-03-22T08:03:11.267Z</time></trkpt><trkpt lat="43.4332743086858" lon="11.965910890184421"><ele>543.6666666666666</ele><time>2026-03-22T08:03:13.267Z</time></trkpt><trkpt lat="43.43326658215307" lon="11.966000872835812"><ele>545.5</ele><time>2026-03-22T08:03:15.259Z</time></trkpt><trkpt lat="43.43329717313122" lon="11.966110041479576"><ele>547.3333333333333</ele><time>2026-03-22T08:03:16.267Z</time></trkpt><trkpt lat="43.43335974060163" lon="11.966161125381273"><ele>549.1666666666666</ele><time>2026-03-22T08:03:17.268Z</time></trkpt><trkpt lat="43.43343036467403" lon="11.966290584831446"><ele>551.0</ele><time>2026-03-22T08:03:19.267Z</time></trkpt><trkpt lat="43.43351016033301" lon="11.966313249250074"><ele>551.0</ele><time>2026-03-22T08:03:21.26Z</time></trkpt><trkpt lat="43.43359951055099" lon="11.96638854907367"><ele>551.0</ele><time>2026-03-22T08:03:24.267Z</time></trkpt><trkpt lat="43.43364578674736" lon="11.966463400653724"><ele>551.0</ele><time>2026-03-22T08:03:25.268Z</time></trkpt><trkpt lat="43.43368518128491" lon="11.966531907621283"><ele>551.0</ele><time>2026-03-22T08:03:26.269Z</time></trkpt><trkpt lat="43.43374031264644" lon="11.966613320899237"><ele>551.0</ele><time>2026-03-22T08:03:27.267Z</time></trkpt><trkpt lat="43.43381693777804" lon="11.966672941839498"><ele>551.0</ele><time>2026-03-22T08:03:28.267Z</time></trkpt><trkpt lat="43.43387772245802" lon="11.966824614255305"><ele>546.5</ele><time>2026-03-22T08:03:30.267Z</time></trkpt><trkpt lat="43.433905491598345" lon="11.966904138787564"><ele>542.0</ele><time>2026-03-22T08:03:31.267Z</time></trkpt><trkpt lat="43.433909851840525" lon="11.96706244851153"><ele>537.5</ele><time>2026-03-22T08:03:33.268Z</time></trkpt><trkpt lat="43.43391279838711" lon="11.967155790651008"><ele>533.0</ele><time>2026-03-22T08:03:34.268Z</time></trkpt><trkpt lat="43.433916541513504" lon="11.967247947770426"><ele>528.5</ele><time>2026-03-22T08:03:35.268Z</time></trkpt><trkpt lat="43.43394880622394" lon="11.967409762805795"><ele>524.0</ele><time>2026-03-22T08:03:37.268Z</time></trkpt><trkpt lat="43.43396675996634" lon="11.967559360127847"><ele>524.0</ele><time>2026-03-22T08:03:39.26Z</time></trkpt><trkpt lat="43.43395455698408" lon="11.967698563154013"><ele>524.0</ele><time>2026-03-22T08:03:41.268Z</time></trkpt><trkpt lat="43.43394034375453" lon="11.967787257645572"><ele>524.0</ele><time>2026-03-22T08:03:42.267Z</time></trkpt><trkpt lat="43.43390936980677" lon="11.96787632911929"><ele>524.0</ele><time>2026-03-22T08:03:43.268Z</time></trkpt><trkpt lat="43.43388993005341" lon="11.967968409062575"><ele>524.0</ele><time>2026-03-22T08:03:44.267Z</time></trkpt><trkpt lat="43.433881776310066" lon="11.968055144646035"><ele>524.0</ele><time>2026-03-22T08:03:45.266Z</time></trkpt><trkpt lat="43.43388210459701" lon="11.96814278169665"><ele>524.0</ele><time>2026-03-22T08:03:46.267Z</time></trkpt><trkpt lat="43.43386814028097" lon="11.968292141931657"><ele>523.1666666666666</ele><time>2026-03-22T08:03:48.268Z</time></trkpt><trkpt lat="43.43387662648077" lon="11.968395037515993"><ele>522.3333333333333</ele><time>2026-03-22T08:03:50.267Z</time></trkpt><trkpt lat="43.43389331668761" lon="11.968495756742096"><ele>521.5</ele><time>2026-03-22T08:03:52.267Z</time></trkpt><trkpt lat="43.43384854534593" lon="11.968572426587416"><ele>520.6666666666666</ele><time>2026-03-22T08:03:55.266Z</time></trkpt><trkpt lat="43.43376911244554" lon="11.968558653950094"><ele>519.8333333333334</ele><time>2026-03-22T08:03:58.267Z</time></trkpt><trkpt lat="43.43366865647898" lon="11.968610376002145"><ele>519.0</ele><time>2026-03-22T08:04:18.268Z</time></trkpt><trkpt lat="43.43360488261646" lon="11.968632472134733"><ele>519.0</ele><time>2026-03-22T08:04:19.266Z</time></trkpt><trkpt lat="43.433529439715024" lon="11.968656670277378"><ele>519.0</ele><time>2026-03-22T08:04:20.267Z</time></trkpt><trkpt lat="43.43344824706205" lon="11.968670490339111"><ele>519.0</ele><time>2026-03-22T08:04:21.26Z</time></trkpt><trkpt lat="43.433349956354945" lon="11.968672901494333"><ele>519.0</ele><time>2026-03-22T08:04:22.267Z</time></trkpt><trkpt lat="43.43324402763641" lon="11.9686746791415"><ele>519.0</ele><time>2026-03-22T08:04:23.266Z</time></trkpt><trkpt lat="43.43314320399386" lon="11.968669732050797"><ele>519.0</ele><time>2026-03-22T08:04:24.266Z</time></trkpt><trkpt lat="43.43304453252107" lon="11.96866063352585"><ele>519.0</ele><time>2026-03-22T08:04:25.267Z</time></trkpt><trkpt lat="43.43295293595995" lon="11.968636304399555"><ele>519.0</ele><time>2026-03-22T08:04:26.268Z</time></trkpt><trkpt lat="43.432875793844296" lon="11.9686224714148"><ele>519.0</ele><time>2026-03-22T08:04:27.267Z</time></trkpt><trkpt lat="43.43279892213831" lon="11.968623581880589"><ele>519.0</ele><time>2026-03-22T08:04:28.261Z</time></trkpt><trkpt lat="43.43272840082467" lon="11.968621718500252"><ele>519.0</ele><time>2026-03-22T08:04:29.266Z</time></trkpt><trkpt lat="43.43266312705319" lon="11.968621925834887"><ele>518.5</ele><time>2026-03-22T08:04:30.267Z</time></trkpt><trkpt lat="43.43257887870847" lon="11.968641875235761"><ele>518.0</ele><time>2026-03-22T08:04:32.268Z</time></trkpt><trkpt lat="43.43251602280381" lon="11.968682689946558"><ele>517.5</ele><time>2026-03-22T08:04:43.268Z</time></trkpt><trkpt lat="43.43247732620686" lon="11.968765021708593"><ele>517.0</ele><time>2026-03-22T08:04:45.268Z</time></trkpt><trkpt lat="43.432460982536405" lon="11.968877080946163"><ele>516.5</ele><time>2026-03-22T08:04:47.268Z</time></trkpt><trkpt lat="43.43242062105183" lon="11.969033623734258"><ele>516.0</ele><time>2026-03-22T08:04:49.268Z</time></trkpt><trkpt lat="43.43239210783024" lon="11.969120282398658"><ele>516.5</ele><time>2026-03-22T08:04:50.267Z</time></trkpt><trkpt lat="43.43235469256304" lon="11.969221120640734"><ele>517.0</ele><time>2026-03-22T08:04:51.268Z</time></trkpt><trkpt lat="43.432325109699626" lon="11.969307275415517"><ele>517.5</ele><time>2026-03-22T08:04:52.267Z</time></trkpt><trkpt lat="43.43226958281861" lon="11.969445343407367"><ele>518.0</ele><time>2026-03-22T08:04:54.263Z</time></trkpt><trkpt lat="43.43223308493075" lon="11.969525670711716"><ele>518.5</ele><time>2026-03-22T08:04:55.268Z</time></trkpt><trkpt lat="43.43218210497098" lon="11.969638786163932"><ele>519.0</ele><time>2026-03-22T08:04:56.267Z</time></trkpt><trkpt lat="43.43210439542568" lon="11.969764540932688"><ele>514.6666666666666</ele><time>2026-03-22T08:04:57.268Z</time></trkpt><trkpt lat="43.432002727087756" lon="11.969870004000496"><ele>510.3333333333333</ele><time>2026-03-22T08:04:58.268Z</time></trkpt><trkpt lat="43.43185989760492" lon="11.969972770018568"><ele>506.0</ele><time>2026-03-22T08:04:59.268Z</time></trkpt><trkpt lat="43.4316909160168" lon="11.970106181482874"><ele>505.66666666666663</ele><time>2026-03-22T08:05:00.261Z</time></trkpt><trkpt lat="43.43153000709416" lon="11.970227688534504"><ele>505.33333333333337</ele><time>2026-03-22T08:05:01.267Z</time></trkpt><trkpt lat="43.43138914819017" lon="11.970325693359214"><ele>505.0</ele><time>2026-03-22T08:05:02.269Z</time></trkpt><trkpt lat="43.43127521087928" lon="11.970427080305598"><ele>502.8</ele><time>2026-03-22T08:05:03.268Z</time></trkpt><trkpt lat="43.43117852315384" lon="11.970542924476261"><ele>500.6</ele><time>2026-03-22T08:05:04.267Z</time></trkpt><trkpt lat="43.431089487568904" lon="11.970634623057046"><ele>498.4</ele><time>2026-03-22T08:05:05.268Z</time></trkpt><trkpt lat="43.431011910087044" lon="11.970699718504779"><ele>496.2</ele><time>2026-03-22T08:05:06.269Z</time></trkpt><trkpt lat="43.43094145866537" lon="11.970739127721725"><ele>494.0</ele><time>2026-03-22T08:05:07.269Z</time></trkpt><trkpt lat="43.43087026668093" lon="11.97074455919178"><ele>494.0</ele><time>2026-03-22T08:05:08.268Z</time></trkpt><trkpt lat="43.43076710933252" lon="11.970793318291834"><ele>494.0</ele><time>2026-03-22T08:05:10.267Z</time></trkpt><trkpt lat="43.43073598075763" lon="11.970935436951011"><ele>494.0</ele><time>2026-03-22T08:05:12.268Z</time></trkpt><trkpt lat="43.430710476223446" lon="11.97104936518112"><ele>494.0</ele><time>2026-03-22T08:05:14.268Z</time></trkpt><trkpt lat="43.430634598036896" lon="11.971093806867698"><ele>494.0</ele><time>2026-03-22T08:05:16.269Z</time></trkpt><trkpt lat="43.43054416925175" lon="11.971060858868437"><ele>492.16666666666663</ele><time>2026-03-22T08:05:18.269Z</time></trkpt><trkpt lat="43.430486929022045" lon="11.971009414219417"><ele>490.3333333333333</ele><time>2026-03-22T08:05:19.268Z</time></trkpt><trkpt lat="43.43041456734824" lon="11.970941918421632"><ele>488.5</ele><time>2026-03-22T08:05:20.268Z</time></trkpt><trkpt lat="43.43034353257415" lon="11.970902373395603"><ele>486.66666666666663</ele><time>2026-03-22T08:05:21.268Z</time></trkpt><trkpt lat="43.430272614095465" lon="11.970886477338427"><ele>484.8333333333333</ele><time>2026-03-22T08:05:22.269Z</time></trkpt><trkpt lat="43.43020602965352" lon="11.970899747317443"><ele>483.0</ele><time>2026-03-22T08:05:23.27Z</time></trkpt><trkpt lat="43.430130036874495" lon="11.970924623182887"><ele>482.4</ele><time>2026-03-22T08:05:24.268Z</time></trkpt><trkpt lat="43.43004614317263" lon="11.97096475574216"><ele>481.79999999999995</ele><time>2026-03-22T08:05:25.268Z</time></trkpt><trkpt lat="43.42995354495322" lon="11.971021637501865"><ele>481.2</ele><time>2026-03-22T08:05:26.267Z</time></trkpt><trkpt lat="43.429854692266204" lon="11.971092469597533"><ele>480.6</ele><time>2026-03-22T08:05:27.268Z</time></trkpt><trkpt lat="43.42974618654023" lon="11.971165334017781"><ele>480.0</ele><time>2026-03-22T08:05:28.268Z</time></trkpt><trkpt lat="43.429630696671445" lon="11.971230109753607"><ele>480.0</ele><time>2026-03-22T08:05:29.269Z</time></trkpt><trkpt lat="43.4295144176058" lon="11.971282917881423"><ele>480.0</ele><time>2026-03-22T08:05:30.27Z</time></trkpt><trkpt lat="43.42938448119282" lon="11.97133111689451"><ele>480.0</ele><time>2026-03-22T08:05:31.269Z</time></trkpt><trkpt lat="43.429264283441704" lon="11.971387022239906"><ele>480.0</ele><time>2026-03-22T08:05:32.267Z</time></trkpt><trkpt lat="43.42913692591151" lon="11.971448955455351"><ele>480.0</ele><time>2026-03-22T08:05:33.268Z</time></trkpt><trkpt lat="43.42902622797063" lon="11.971520621921671"><ele>480.0</ele><time>2026-03-22T08:05:34.268Z</time></trkpt><trkpt lat="43.428900869722" lon="11.971591114343033"><ele>480.0</ele><time>2026-03-22T08:05:35.267Z</time></trkpt><trkpt lat="43.42877210438305" lon="11.971657416985439"><ele>480.0</ele><time>2026-03-22T08:05:36.268Z</time></trkpt><trkpt lat="43.428653696749585" lon="11.971736823433504"><ele>482.75</ele><time>2026-03-22T08:05:37.267Z</time></trkpt><trkpt lat="43.428531272475794" lon="11.971831778151834"><ele>485.5</ele><time>2026-03-22T08:05:38.266Z</time></trkpt><trkpt lat="43.42842190691949" lon="11.971895124136031"><ele>488.25</ele><time>2026-03-22T08:05:39.267Z</time></trkpt><trkpt lat="43.428315205229175" lon="11.971913198402449"><ele>491.0</ele><time>2026-03-22T08:05:40.272Z</time></trkpt><trkpt lat="43.42819865843712" lon="11.971900268746108"><ele>491.0</ele><time>2026-03-22T08:05:41.268Z</time></trkpt><trkpt lat="43.42808381635662" lon="11.971881637728155"><ele>491.0</ele><time>2026-03-22T08:05:42.265Z</time></trkpt><trkpt lat="43.427971466113064" lon="11.971877180128518"><ele>491.0</ele><time>2026-03-22T08:05:43.266Z</time></trkpt><trkpt lat="43.42785882077382" lon="11.971887863248076"><ele>491.0</ele><time>2026-03-22T08:05:44.267Z</time></trkpt><trkpt lat="43.427759132106694" lon="11.971913350241788"><ele>491.0</ele><time>2026-03-22T08:05:45.267Z</time></trkpt><trkpt lat="43.42765588159647" lon="11.971957929469523"><ele>491.25</ele><time>2026-03-22T08:05:46.266Z</time></trkpt><trkpt lat="43.42755441005439" lon="11.972017710677143"><ele>491.5</ele><time>2026-03-22T08:05:47.269Z</time></trkpt><trkpt lat="43.42745195604684" lon="11.972057860971368"><ele>491.75</ele><time>2026-03-22T08:05:48.267Z</time></trkpt><trkpt lat="43.42733463030386" lon="11.972058155631201"><ele>492.0</ele><time>2026-03-22T08:05:49.267Z</time></trkpt><trkpt lat="43.427217372883284" lon="11.972064055770465"><ele>490.6</ele><time>2026-03-22T08:05:50.267Z</time></trkpt><trkpt lat="43.42710052148602" lon="11.972087325078135"><ele>489.20000000000005</ele><time>2026-03-22T08:05:51.267Z</time></trkpt><trkpt lat="43.42699188873792" lon="11.972097839544169"><ele>487.8</ele><time>2026-03-22T08:05:52.267Z</time></trkpt><trkpt lat="43.426882268818154" lon="11.972113269684117"><ele>486.4</ele><time>2026-03-22T08:05:53.266Z</time></trkpt><trkpt lat="43.42678541216453" lon="11.97207564447341"><ele>485.0</ele><time>2026-03-22T08:05:54.267Z</time></trkpt><trkpt lat="43.42670763765532" lon="11.972013215683836"><ele>484.99999999999994</ele><time>2026-03-22T08:05:55.267Z</time></trkpt><trkpt lat="43.426644048954266" lon="11.971947076139665"><ele>485.0</ele><time>2026-03-22T08:05:56.267Z</time></trkpt><trkpt lat="43.42657111336232" lon="11.971877121371366"><ele>485.0</ele><time>2026-03-22T08:05:57.268Z</time></trkpt><trkpt lat="43.42649141935723" lon="11.971828224368783"><ele>485.0</ele><time>2026-03-22T08:05:58.259Z</time></trkpt><trkpt lat="43.42640921937383" lon="11.971798424993471"><ele>484.99999999999994</ele><time>2026-03-22T08:05:59.268Z</time></trkpt><trkpt lat="43.426328679284" lon="11.971770817160884"><ele>485.0</ele><time>2026-03-22T08:06:00.267Z</time></trkpt><trkpt lat="43.426254135294876" lon="11.971738236206765"><ele>482.57142857142867</ele><time>2026-03-22T08:06:01.262Z</time></trkpt><trkpt lat="43.426185597472255" lon="11.971707366628326"><ele>480.14285714285717</ele><time>2026-03-22T08:06:02.268Z</time></trkpt><trkpt lat="43.42612162019126" lon="11.971669916012356"><ele>477.7142857142858</ele><time>2026-03-22T08:06:03.267Z</time></trkpt><trkpt lat="43.42605115133309" lon="11.971632347388997"><ele>475.28571428571433</ele><time>2026-03-22T08:06:04.268Z</time></trkpt><trkpt lat="43.42599339561868" lon="11.971582890952249"><ele>472.8571428571429</ele><time>2026-03-22T08:06:05.268Z</time></trkpt><trkpt lat="43.4259468137432" lon="11.971517141980147"><ele>470.42857142857144</ele><time>2026-03-22T08:06:06.267Z</time></trkpt><trkpt lat="43.425905268857896" lon="11.971427877618835"><ele>468.0</ele><time>2026-03-22T08:06:07.268Z</time></trkpt><trkpt lat="43.42583549216531" lon="11.971312339847902"><ele>467.0</ele><time>2026-03-22T08:06:09.266Z</time></trkpt><trkpt lat="43.425743623969296" lon="11.971251504535017"><ele>465.99999999999994</ele><time>2026-03-22T08:06:10.267Z</time></trkpt><trkpt lat="43.425676211921065" lon="11.97121236297411"><ele>464.99999999999994</ele><time>2026-03-22T08:06:11.267Z</time></trkpt><trkpt lat="43.42556412784572" lon="11.971155292983005"><ele>464.0</ele><time>2026-03-22T08:06:13.268Z</time></trkpt><trkpt lat="43.425446758464986" lon="11.97112547743331"><ele>463.0</ele><time>2026-03-22T08:06:15.268Z</time></trkpt><trkpt lat="43.42534536733961" lon="11.971065393236277"><ele>460.1666666666667</ele><time>2026-03-22T08:06:17.268Z</time></trkpt><trkpt lat="43.425259624981706" lon="11.970993727175534"><ele>457.33333333333337</ele><time>2026-03-22T08:06:19.268Z</time></trkpt><trkpt lat="43.42520112043947" lon="11.97088897542745"><ele>454.5</ele><time>2026-03-22T08:06:21.261Z</time></trkpt><trkpt lat="43.425161266383235" lon="11.97077160156814"><ele>451.66666666666663</ele><time>2026-03-22T08:06:24.267Z</time></trkpt><trkpt lat="43.42514978857014" lon="11.97068096633366"><ele>448.8333333333333</ele><time>2026-03-22T08:06:26.267Z</time></trkpt><trkpt lat="43.425112475525204" lon="11.970608473935329"><ele>446.0</ele><time>2026-03-22T08:06:28.268Z</time></trkpt><trkpt lat="43.42503595320853" lon="11.97060992731621"><ele>445.99999999999994</ele><time>2026-03-22T08:06:30.268Z</time></trkpt><trkpt lat="43.42498285350408" lon="11.970683471720427"><ele>446.0</ele><time>2026-03-22T08:06:32.268Z</time></trkpt><trkpt lat="43.424963627254726" lon="11.970770220791845"><ele>446.0</ele><time>2026-03-22T08:06:34.262Z</time></trkpt><trkpt lat="43.42493949779523" lon="11.970874896188027"><ele>446.0</ele><time>2026-03-22T08:06:37.268Z</time></trkpt><trkpt lat="43.424871121927985" lon="11.970882246657592"><ele>445.99999999999994</ele><time>2026-03-22T08:06:39.268Z</time></trkpt><trkpt lat="43.42478975700166" lon="11.970808211072844"><ele>446.0</ele><time>2026-03-22T08:06:41.268Z</time></trkpt><trkpt lat="43.424719562004796" lon="11.970767123300131"><ele>442.4</ele><time>2026-03-22T08:06:43.268Z</time></trkpt><trkpt lat="43.42462093113473" lon="11.970815261625885"><ele>438.8</ele><time>2026-03-22T08:06:45.267Z</time></trkpt><trkpt lat="43.424530999312886" lon="11.970917203610703"><ele>435.19999999999993</ele><time>2026-03-22T08:06:47.265Z</time></trkpt><trkpt lat="43.424405501002944" lon="11.970939026174982"><ele>431.59999999999997</ele><time>2026-03-22T08:06:49.267Z</time></trkpt><trkpt lat="43.42433081242346" lon="11.970913100287326"><ele>428.0</ele><time>2026-03-22T08:06:50.267Z</time></trkpt><trkpt lat="43.42425289079147" lon="11.970877294422102"><ele>428.0</ele><time>2026-03-22T08:06:51.269Z</time></trkpt><trkpt lat="43.42419144422479" lon="11.970851643307077"><ele>427.99999999999994</ele><time>2026-03-22T08:06:52.26Z</time></trkpt><trkpt lat="43.424127514336476" lon="11.970834550190188"><ele>427.99999999999994</ele><time>2026-03-22T08:06:53.268Z</time></trkpt><trkpt lat="43.42406336105638" lon="11.970826358319211"><ele>428.0</ele><time>2026-03-22T08:06:54.267Z</time></trkpt><trkpt lat="43.423942678073125" lon="11.970863796796811"><ele>428.0</ele><time>2026-03-22T08:06:56.267Z</time></trkpt><trkpt lat="43.423834403730424" lon="11.970974329962253"><ele>425.49999999999994</ele><time>2026-03-22T08:06:58.267Z</time></trkpt><trkpt lat="43.423785082551554" lon="11.971053266649292"><ele>423.0</ele><time>2026-03-22T08:06:59.268Z</time></trkpt><trkpt lat="43.42375785085528" lon="11.97113924789252"><ele>420.5</ele><time>2026-03-22T08:07:00.268Z</time></trkpt><trkpt lat="43.423697254302894" lon="11.97127658144997"><ele>418.0</ele><time>2026-03-22T08:07:02.268Z</time></trkpt><trkpt lat="43.423622065746144" lon="11.971372816244296"><ele>415.49999999999994</ele><time>2026-03-22T08:07:04.268Z</time></trkpt><trkpt lat="43.42353891206303" lon="11.971368516815009"><ele>413.0</ele><time>2026-03-22T08:07:06.267Z</time></trkpt><trkpt lat="43.423475265942336" lon="11.971277128617567"><ele>412.99999999999994</ele><time>2026-03-22T08:07:08.267Z</time></trkpt><trkpt lat="43.423455485004276" lon="11.971190818971719"><ele>413.0</ele><time>2026-03-22T08:07:09.267Z</time></trkpt><trkpt lat="43.42344361333225" lon="11.971064723742067"><ele>413.0</ele><time>2026-03-22T08:07:10.269Z</time></trkpt><trkpt lat="43.42343185712499" lon="11.970937218268556"><ele>413.0</ele><time>2026-03-22T08:07:11.268Z</time></trkpt><trkpt lat="43.423413937120095" lon="11.970801816252239"><ele>412.99999999999994</ele><time>2026-03-22T08:07:12.267Z</time></trkpt><trkpt lat="43.42339332103492" lon="11.970690468149806"><ele>413.0</ele><time>2026-03-22T08:07:13.267Z</time></trkpt><trkpt lat="43.42338204476124" lon="11.970601089650732"><ele>412.7142857142857</ele><time>2026-03-22T08:07:14.267Z</time></trkpt><trkpt lat="43.42334850807538" lon="11.970503398795378"><ele>412.42857142857144</ele><time>2026-03-22T08:07:15.266Z</time></trkpt><trkpt lat="43.42330768227078" lon="11.970429793386446"><ele>412.1428571428571</ele><time>2026-03-22T08:07:16.266Z</time></trkpt><trkpt lat="43.42324548645759" lon="11.970386017002047"><ele>411.8571428571429</ele><time>2026-03-22T08:07:17.267Z</time></trkpt><trkpt lat="43.42318231388946" lon="11.970385516290987"><ele>411.57142857142856</ele><time>2026-03-22T08:07:18.259Z</time></trkpt><trkpt lat="43.423115395211184" lon="11.970397123998609"><ele>411.2857142857143</ele><time>2026-03-22T08:07:19.268Z</time></trkpt><trkpt lat="43.42303268857576" lon="11.97042094150782"><ele>411.0</ele><time>2026-03-22T08:07:20.268Z</time></trkpt><trkpt lat="43.42295240421587" lon="11.970434964730202"><ele>410.0</ele><time>2026-03-22T08:07:21.267Z</time></trkpt><trkpt lat="43.42286446427403" lon="11.970490519047763"><ele>409.0</ele><time>2026-03-22T08:07:22.266Z</time></trkpt><trkpt lat="43.42280050733587" lon="11.970614360833874"><ele>408.0</ele><time>2026-03-22T08:07:23.27Z</time></trkpt><trkpt lat="43.422747638406754" lon="11.97071800531832"><ele>407.0</ele><time>2026-03-22T08:07:24.267Z</time></trkpt><trkpt lat="43.42270345844731" lon="11.970833909592889"><ele>406.0</ele><time>2026-03-22T08:07:25.267Z</time></trkpt><trkpt lat="43.42266305447496" lon="11.970966127852243"><ele>406.0</ele><time>2026-03-22T08:07:26.268Z</time></trkpt><trkpt lat="43.4226309253507" lon="11.971110364509778"><ele>406.0</ele><time>2026-03-22T08:07:27.268Z</time></trkpt><trkpt lat="43.422599710926356" lon="11.971261803693777"><ele>406.0</ele><time>2026-03-22T08:07:28.269Z</time></trkpt><trkpt lat="43.422568201468124" lon="11.97142051659809"><ele>406.0</ele><time>2026-03-22T08:07:29.267Z</time></trkpt><trkpt lat="43.42254262883762" lon="11.971579924647441"><ele>405.6</ele><time>2026-03-22T08:07:30.267Z</time></trkpt><trkpt lat="43.42252548818144" lon="11.97173510860726"><ele>405.20000000000005</ele><time>2026-03-22T08:07:31.267Z</time></trkpt><trkpt lat="43.422504357475546" lon="11.971879735041613"><ele>404.79999999999995</ele><time>2026-03-22T08:07:32.267Z</time></trkpt><trkpt lat="43.42248599719942" lon="11.972015155697076"><ele>404.4</ele><time>2026-03-22T08:07:33.268Z</time></trkpt><trkpt lat="43.422476506697244" lon="11.972127513612278"><ele>404.0</ele><time>2026-03-22T08:07:34.267Z</time></trkpt><trkpt lat="43.42246375624507" lon="11.972223183575412"><ele>404.0</ele><time>2026-03-22T08:07:35.267Z</time></trkpt><trkpt lat="43.42243529523866" lon="11.972309698498004"><ele>404.0</ele><time>2026-03-22T08:07:36.268Z</time></trkpt><trkpt lat="43.42238618108732" lon="11.972381575051836"><ele>404.0</ele><time>2026-03-22T08:07:37.268Z</time></trkpt><trkpt lat="43.422316895001785" lon="11.97240471883455"><ele>404.0</ele><time>2026-03-22T08:07:38.267Z</time></trkpt><trkpt lat="43.422236525123424" lon="11.972406671273346"><ele>404.0</ele><time>2026-03-22T08:07:39.268Z</time></trkpt><trkpt lat="43.42215819439854" lon="11.972421808177316"><ele>404.0</ele><time>2026-03-22T08:07:40.268Z</time></trkpt><trkpt lat="43.42208581868728" lon="11.972444871805626"><ele>404.0</ele><time>2026-03-22T08:07:41.263Z</time></trkpt><trkpt lat="43.42202019325176" lon="11.972468182227324"><ele>404.6</ele><time>2026-03-22T08:07:42.268Z</time></trkpt><trkpt lat="43.42195500889523" lon="11.972487920437715"><ele>405.2</ele><time>2026-03-22T08:07:43.268Z</time></trkpt><trkpt lat="43.42183858221964" lon="11.972522555040898"><ele>405.8</ele><time>2026-03-22T08:07:45.268Z</time></trkpt><trkpt lat="43.42171658374184" lon="11.97255362962306"><ele>406.40000000000003</ele><time>2026-03-22T08:07:47.268Z</time></trkpt><trkpt lat="43.42162302608991" lon="11.972577724503646"><ele>407.0</ele><time>2026-03-22T08:07:49.268Z</time></trkpt><trkpt lat="43.421549137515335" lon="11.972634113149256"><ele>407.20000000000005</ele><time>2026-03-22T08:07:52.268Z</time></trkpt><trkpt lat="43.42151997039325" lon="11.972757766514807"><ele>407.4</ele><time>2026-03-22T08:07:54.267Z</time></trkpt><trkpt lat="43.42153092654554" lon="11.97293215109533"><ele>407.6</ele><time>2026-03-22T08:07:56.268Z</time></trkpt><trkpt lat="43.42153802059356" lon="11.973041418713148"><ele>407.79999999999995</ele><time>2026-03-22T08:07:57.268Z</time></trkpt><trkpt lat="43.42153868552193" lon="11.973149124372899"><ele>408.0</ele><time>2026-03-22T08:07:58.268Z</time></trkpt><trkpt lat="43.42154272118719" lon="11.973266444591843"><ele>407.59999999999997</ele><time>2026-03-22T08:07:59.271Z</time></trkpt><trkpt lat="43.421553201650596" lon="11.973388424710354"><ele>407.2</ele><time>2026-03-22T08:08:00.268Z</time></trkpt><trkpt lat="43.421564787881316" lon="11.973520772518192"><ele>406.8</ele><time>2026-03-22T08:08:01.261Z</time></trkpt><trkpt lat="43.42157366244626" lon="11.973655646485064"><ele>406.4</ele><time>2026-03-22T08:08:02.267Z</time></trkpt><trkpt lat="43.42158210677526" lon="11.973788989689012"><ele>406.0</ele><time>2026-03-22T08:08:03.268Z</time></trkpt><trkpt lat="43.42160250755902" lon="11.973936686866594"><ele>406.0</ele><time>2026-03-22T08:08:04.267Z</time></trkpt><trkpt lat="43.4216246828922" lon="11.974093069682077"><ele>406.0</ele><time>2026-03-22T08:08:05.267Z</time></trkpt><trkpt lat="43.421656310034315" lon="11.974256336887228"><ele>406.0</ele><time>2026-03-22T08:08:06.269Z</time></trkpt><trkpt lat="43.421691888264114" lon="11.974410821501593"><ele>406.0</ele><time>2026-03-22T08:08:07.267Z</time></trkpt><trkpt lat="43.421730347076256" lon="11.974572033785458"><ele>405.5</ele><time>2026-03-22T08:08:08.268Z</time></trkpt><trkpt lat="43.421765786783716" lon="11.974742046508096"><ele>405.0</ele><time>2026-03-22T08:08:09.268Z</time></trkpt><trkpt lat="43.42180134981211" lon="11.97490674126853"><ele>404.5</ele><time>2026-03-22T08:08:10.268Z</time></trkpt><trkpt lat="43.42183314290273" lon="11.975060828269354"><ele>404.0</ele><time>2026-03-22T08:08:11.268Z</time></trkpt><trkpt lat="43.42186491884401" lon="11.975217977391516"><ele>403.79999999999995</ele><time>2026-03-22T08:08:12.266Z</time></trkpt><trkpt lat="43.42189760718261" lon="11.9753784672952"><ele>403.59999999999997</ele><time>2026-03-22T08:08:13.268Z</time></trkpt><trkpt lat="43.42192831719844" lon="11.975526213569854"><ele>403.4</ele><time>2026-03-22T08:08:14.267Z</time></trkpt><trkpt lat="43.42195574491142" lon="11.975656852396062"><ele>403.2</ele><time>2026-03-22T08:08:15.269Z</time></trkpt><trkpt lat="43.421988049748855" lon="11.975804659681545"><ele>403.0</ele><time>2026-03-22T08:08:16.268Z</time></trkpt><trkpt lat="43.42201803381628" lon="11.975942147410425"><ele>403.0</ele><time>2026-03-22T08:08:17.264Z</time></trkpt><trkpt lat="43.42204850739247" lon="11.97607345240302"><ele>403.0</ele><time>2026-03-22T08:08:18.268Z</time></trkpt><trkpt lat="43.422078506103155" lon="11.976203442194535"><ele>403.0</ele><time>2026-03-22T08:08:19.268Z</time></trkpt><trkpt lat="43.42210637094143" lon="11.976322918710984"><ele>403.0</ele><time>2026-03-22T08:08:20.263Z</time></trkpt><trkpt lat="43.42213165673253" lon="11.976441652457519"><ele>403.0</ele><time>2026-03-22T08:08:21.268Z</time></trkpt><trkpt lat="43.42216605743307" lon="11.976559732405352"><ele>403.33333333333337</ele><time>2026-03-22T08:08:22.268Z</time></trkpt><trkpt lat="43.42219209040552" lon="11.976654062832827"><ele>403.6666666666667</ele><time>2026-03-22T08:08:23.27Z</time></trkpt><trkpt lat="43.422239677232966" lon="11.976742410670447"><ele>404.0</ele><time>2026-03-22T08:08:24.268Z</time></trkpt><trkpt lat="43.42230623511731" lon="11.976811534291603"><ele>404.33333333333337</ele><time>2026-03-22T08:08:25.268Z</time></trkpt><trkpt lat="43.422387581225614" lon="11.976856948543823"><ele>404.6666666666667</ele><time>2026-03-22T08:08:26.268Z</time></trkpt><trkpt lat="43.42245870429359" lon="11.976889713952165"><ele>405.0</ele><time>2026-03-22T08:08:27.268Z</time></trkpt><trkpt lat="43.4225346841839" lon="11.976896173561732"><ele>405.0</ele><time>2026-03-22T08:08:28.267Z</time></trkpt><trkpt lat="43.422613211591525" lon="11.976893640243434"><ele>405.0</ele><time>2026-03-22T08:08:29.268Z</time></trkpt><trkpt lat="43.42268171231771" lon="11.976886399919547"><ele>405.0</ele><time>2026-03-22T08:08:30.268Z</time></trkpt><trkpt lat="43.42275711948721" lon="11.976869750075473"><ele>405.0</ele><time>2026-03-22T08:08:31.268Z</time></trkpt><trkpt lat="43.42283288746885" lon="11.976860435326772"><ele>405.0</ele><time>2026-03-22T08:08:32.269Z</time></trkpt><trkpt lat="43.42291742896454" lon="11.976863277388857"><ele>405.0</ele><time>2026-03-22T08:08:33.269Z</time></trkpt><trkpt lat="43.42298882724798" lon="11.976873921798699"><ele>404.57142857142856</ele><time>2026-03-22T08:08:34.268Z</time></trkpt><trkpt lat="43.42305849993206" lon="11.976865392015334"><ele>404.1428571428571</ele><time>2026-03-22T08:08:35.26Z</time></trkpt><trkpt lat="43.42313455995887" lon="11.97687910441513"><ele>403.71428571428567</ele><time>2026-03-22T08:08:36.268Z</time></trkpt><trkpt lat="43.4231606385916" lon="11.976959286274965"><ele>403.2857142857143</ele><time>2026-03-22T08:08:39.268Z</time></trkpt><trkpt lat="43.423210450540225" lon="11.977014047259706"><ele>402.8571428571429</ele><time>2026-03-22T08:08:42.269Z</time></trkpt><trkpt lat="43.42327709690764" lon="11.977009340391126"><ele>402.4285714285714</ele><time>2026-03-22T08:13:56.267Z</time></trkpt><trkpt lat="43.42320108564909" lon="11.976995946735592"><ele>402.0</ele><time>2026-03-22T08:14:15.27Z</time></trkpt><trkpt lat="43.42322136399311" lon="11.976875695372176"><ele>402.0</ele><time>2026-03-22T08:14:17.268Z</time></trkpt><trkpt lat="43.42328347055109" lon="11.976854281329862"><ele>402.0</ele><time>2026-03-22T08:14:18.269Z</time></trkpt><trkpt lat="43.423378788494226" lon="11.976858441258399"><ele>402.0</ele><time>2026-03-22T08:14:19.269Z</time></trkpt><trkpt lat="43.42344260890241" lon="11.976851016789993"><ele>402.0</ele><time>2026-03-22T08:14:20.268Z</time></trkpt><trkpt lat="43.423548657827" lon="11.97676437838324"><ele>402.0</ele><time>2026-03-22T08:14:22.269Z</time></trkpt><trkpt lat="43.42364676306505" lon="11.976730751123121"><ele>402.0</ele><time>2026-03-22T08:14:23.269Z</time></trkpt><trkpt lat="43.423767816371615" lon="11.976713220853027"><ele>403.0</ele><time>2026-03-22T08:14:24.268Z</time></trkpt><trkpt lat="43.42390151467499" lon="11.976699957942172"><ele>404.0</ele><time>2026-03-22T08:14:25.259Z</time></trkpt><trkpt lat="43.42405804715541" lon="11.97667473380263"><ele>405.0</ele><time>2026-03-22T08:14:26.267Z</time></trkpt><trkpt lat="43.42421242850641" lon="11.976654716739437"><ele>406.0</ele><time>2026-03-22T08:14:27.267Z</time></trkpt><trkpt lat="43.42436341237893" lon="11.976638834010352"><ele>406.0</ele><time>2026-03-22T08:14:28.266Z</time></trkpt><trkpt lat="43.42451489161442" lon="11.976624399117666"><ele>406.0</ele><time>2026-03-22T08:14:29.265Z</time></trkpt><trkpt lat="43.4246581085175" lon="11.9766200873715"><ele>406.0</ele><time>2026-03-22T08:14:30.268Z</time></trkpt><trkpt lat="43.42480015501362" lon="11.976627372952986"><ele>406.0</ele><time>2026-03-22T08:14:31.267Z</time></trkpt><trkpt lat="43.42493953130104" lon="11.976640868370614"><ele>406.25</ele><time>2026-03-22T08:14:32.266Z</time></trkpt><trkpt lat="43.42507761141766" lon="11.976674873337727"><ele>406.5</ele><time>2026-03-22T08:14:33.266Z</time></trkpt><trkpt lat="43.42521698131694" lon="11.976710865758786"><ele>406.75</ele><time>2026-03-22T08:14:34.267Z</time></trkpt><trkpt lat="43.425349068805374" lon="11.976761205219978"><ele>407.0</ele><time>2026-03-22T08:14:35.267Z</time></trkpt><trkpt lat="43.4254886195369" lon="11.976801614178587"><ele>407.5</ele><time>2026-03-22T08:14:36.266Z</time></trkpt><trkpt lat="43.42562360563545" lon="11.976837583644645"><ele>408.0</ele><time>2026-03-22T08:14:37.268Z</time></trkpt><trkpt lat="43.42576013732355" lon="11.976878046620609"><ele>408.5</ele><time>2026-03-22T08:14:38.268Z</time></trkpt><trkpt lat="43.42589026012385" lon="11.976928677719801"><ele>409.0</ele><time>2026-03-22T08:14:39.268Z</time></trkpt><trkpt lat="43.42601132550645" lon="11.977012233471926"><ele>409.0</ele><time>2026-03-22T08:14:40.269Z</time></trkpt><trkpt lat="43.4261214568795" lon="11.9771229247822"><ele>409.0</ele><time>2026-03-22T08:14:41.261Z</time></trkpt><trkpt lat="43.42622059149747" lon="11.977212775622373"><ele>409.0</ele><time>2026-03-22T08:14:42.268Z</time></trkpt><trkpt lat="43.426300627900815" lon="11.977305143060205"><ele>409.0</ele><time>2026-03-22T08:14:43.263Z</time></trkpt><trkpt lat="43.426354504868854" lon="11.977391239497145"><ele>409.0</ele><time>2026-03-22T08:14:44.269Z</time></trkpt><trkpt lat="43.42636723496257" lon="11.977482076478896"><ele>410.79999999999995</ele><time>2026-03-22T08:14:45.269Z</time></trkpt><trkpt lat="43.42630050276598" lon="11.977583907540415"><ele>412.59999999999997</ele><time>2026-03-22T08:14:47.269Z</time></trkpt><trkpt lat="43.42619162768988" lon="11.977616824905933"><ele>414.4</ele><time>2026-03-22T08:14:49.268Z</time></trkpt><trkpt lat="43.426115724776245" lon="11.977740294582985"><ele>416.2</ele><time>2026-03-22T08:14:51.269Z</time></trkpt><trkpt lat="43.42620510137982" lon="11.97783563644288"><ele>418.0</ele><time>2026-03-22T08:14:53.268Z</time></trkpt><trkpt lat="43.42627782532558" lon="11.977872823054698"><ele>418.00000000000006</ele><time>2026-03-22T08:14:54.268Z</time></trkpt><trkpt lat="43.426349137580566" lon="11.977930122355446"><ele>418.0</ele><time>2026-03-22T08:14:55.259Z</time></trkpt><trkpt lat="43.426395046600774" lon="11.978004022824075"><ele>418.0</ele><time>2026-03-22T08:14:56.268Z</time></trkpt><trkpt lat="43.4263533090912" lon="11.978143518322963"><ele>418.0</ele><time>2026-03-22T08:14:58.268Z</time></trkpt><trkpt lat="43.426293011365246" lon="11.978177094413988"><ele>418.00000000000006</ele><time>2026-03-22T08:14:59.269Z</time></trkpt><trkpt lat="43.42623292032697" lon="11.978213872459548"><ele>418.0</ele><time>2026-03-22T08:15:00.261Z</time></trkpt><trkpt lat="43.42622127079902" lon="11.978360505286886"><ele>419.59999999999997</ele><time>2026-03-22T08:15:02.268Z</time></trkpt><trkpt lat="43.4262812757004" lon="11.97842029832864"><ele>421.2</ele><time>2026-03-22T08:15:03.268Z</time></trkpt><trkpt lat="43.426359438665756" lon="11.978461823952482"><ele>422.8</ele><time>2026-03-22T08:15:04.267Z</time></trkpt><trkpt lat="43.42643815377148" lon="11.97852092354077"><ele>424.4</ele><time>2026-03-22T08:15:05.268Z</time></trkpt><trkpt lat="43.42649788014571" lon="11.978609347967113"><ele>426.0</ele><time>2026-03-22T08:15:06.269Z</time></trkpt><trkpt lat="43.426482372635405" lon="11.978766704932887"><ele>426.0</ele><time>2026-03-22T08:15:08.269Z</time></trkpt><trkpt lat="43.42642038200112" lon="11.978822361047659"><ele>426.0</ele><time>2026-03-22T08:15:09.27Z</time></trkpt><trkpt lat="43.42634510233841" lon="11.978903520463609"><ele>426.0</ele><time>2026-03-22T08:15:10.269Z</time></trkpt><trkpt lat="43.42630615180261" lon="11.979029620047086"><ele>426.0</ele><time>2026-03-22T08:15:11.269Z</time></trkpt><trkpt lat="43.426299923653055" lon="11.97918287460306"><ele>426.0</ele><time>2026-03-22T08:15:12.27Z</time></trkpt><trkpt lat="43.42631819721559" lon="11.979327799355147"><ele>429.4</ele><time>2026-03-22T08:15:13.269Z</time></trkpt><trkpt lat="43.42633772793597" lon="11.979471122265771"><ele>432.8</ele><time>2026-03-22T08:15:14.268Z</time></trkpt><trkpt lat="43.4263464936759" lon="11.97960645881847"><ele>436.19999999999993</ele><time>2026-03-22T08:15:15.269Z</time></trkpt><trkpt lat="43.42635116209083" lon="11.979749289264376"><ele>439.59999999999997</ele><time>2026-03-22T08:15:16.269Z</time></trkpt><trkpt lat="43.42635299995657" lon="11.979888514760136"><ele>443.0</ele><time>2026-03-22T08:15:17.269Z</time></trkpt><trkpt lat="43.42635710878351" lon="11.980038342787827"><ele>444.0</ele><time>2026-03-22T08:15:18.269Z</time></trkpt><trkpt lat="43.42635995154459" lon="11.98020888018355"><ele>444.99999999999994</ele><time>2026-03-22T08:15:19.262Z</time></trkpt><trkpt lat="43.426366143200816" lon="11.980361701128752"><ele>445.99999999999994</ele><time>2026-03-22T08:15:20.269Z</time></trkpt><trkpt lat="43.42637315377245" lon="11.980505676384613"><ele>447.0</ele><time>2026-03-22T08:15:21.269Z</time></trkpt><trkpt lat="43.42639406386467" lon="11.980639678622635"><ele>448.0</ele><time>2026-03-22T08:15:22.269Z</time></trkpt><trkpt lat="43.426427049835006" lon="11.980765516467446"><ele>449.25</ele><time>2026-03-22T08:15:23.27Z</time></trkpt><trkpt lat="43.426454976986065" lon="11.980892356931578"><ele>450.5</ele><time>2026-03-22T08:15:24.269Z</time></trkpt><trkpt lat="43.42649452276671" lon="11.981041260760064"><ele>451.75</ele><time>2026-03-22T08:15:25.268Z</time></trkpt><trkpt lat="43.42653331825142" lon="11.98122212358246"><ele>453.0</ele><time>2026-03-22T08:15:26.269Z</time></trkpt><trkpt lat="43.426579926204674" lon="11.981404970643622"><ele>453.0</ele><time>2026-03-22T08:15:27.269Z</time></trkpt><trkpt lat="43.42662616823679" lon="11.981590356158168"><ele>453.0</ele><time>2026-03-22T08:15:28.269Z</time></trkpt><trkpt lat="43.42666845345167" lon="11.981788385580632"><ele>453.0</ele><time>2026-03-22T08:15:29.268Z</time></trkpt><trkpt lat="43.42670738726121" lon="11.981986670526355"><ele>453.0</ele><time>2026-03-22T08:15:30.269Z</time></trkpt><trkpt lat="43.42674514864556" lon="11.98218191496324"><ele>455.0</ele><time>2026-03-22T08:15:31.269Z</time></trkpt><trkpt lat="43.42678191459938" lon="11.982378956410995"><ele>457.0</ele><time>2026-03-22T08:15:32.27Z</time></trkpt><trkpt lat="43.42680057301689" lon="11.982539846464242"><ele>459.0</ele><time>2026-03-22T08:15:33.268Z</time></trkpt><trkpt lat="43.42679370533622" lon="11.982696100818462"><ele>461.0</ele><time>2026-03-22T08:15:34.269Z</time></trkpt><trkpt lat="43.426751831739566" lon="11.982860866239172"><ele>462.75</ele><time>2026-03-22T08:15:35.268Z</time></trkpt><trkpt lat="43.4266921310239" lon="11.983035051124428"><ele>464.5</ele><time>2026-03-22T08:15:36.269Z</time></trkpt><trkpt lat="43.42662979447014" lon="11.983196184590023"><ele>466.25</ele><time>2026-03-22T08:15:37.271Z</time></trkpt><trkpt lat="43.426580026843034" lon="11.983388243994147"><ele>468.0</ele><time>2026-03-22T08:15:38.268Z</time></trkpt><trkpt lat="43.42653029037675" lon="11.983588904200893"><ele>467.75</ele><time>2026-03-22T08:15:39.269Z</time></trkpt><trkpt lat="43.4264817707332" lon="11.983762338444278"><ele>467.5</ele><time>2026-03-22T08:15:40.269Z</time></trkpt><trkpt lat="43.426423802198485" lon="11.983904374984586"><ele>467.25</ele><time>2026-03-22T08:15:41.268Z</time></trkpt><trkpt lat="43.42634527368201" lon="11.98402232350319"><ele>467.0</ele><time>2026-03-22T08:15:42.269Z</time></trkpt><trkpt lat="43.42625829083531" lon="11.984087017962725"><ele>467.0</ele><time>2026-03-22T08:15:43.269Z</time></trkpt><trkpt lat="43.42619925693063" lon="11.984121254663144"><ele>467.00000000000006</ele><time>2026-03-22T08:15:44.27Z</time></trkpt><trkpt lat="43.426170910063824" lon="11.984253445820329"><ele>467.00000000000006</ele><time>2026-03-22T08:15:46.269Z</time></trkpt><trkpt lat="43.42623809963025" lon="11.984357879883888"><ele>467.0</ele><time>2026-03-22T08:15:48.268Z</time></trkpt><trkpt lat="43.42634947988223" lon="11.984467833114731"><ele>467.0</ele><time>2026-03-22T08:15:50.269Z</time></trkpt><trkpt lat="43.42642624093559" lon="11.98454830599004"><ele>468.99999999999994</ele><time>2026-03-22T08:15:51.269Z</time></trkpt><trkpt lat="43.42647251732835" lon="11.984626831053864"><ele>471.0</ele><time>2026-03-22T08:15:52.268Z</time></trkpt><trkpt lat="43.426498909001715" lon="11.984711641770504"><ele>473.0</ele><time>2026-03-22T08:15:53.268Z</time></trkpt><trkpt lat="43.426428458794334" lon="11.984805736316323"><ele>475.0</ele><time>2026-03-22T08:15:55.269Z</time></trkpt><trkpt lat="43.426331845338325" lon="11.98482389254078"><ele>476.99999999999994</ele><time>2026-03-22T08:15:57.267Z</time></trkpt><trkpt lat="43.42626055767535" lon="11.984883392312216"><ele>479.0</ele><time>2026-03-22T08:15:58.268Z</time></trkpt><trkpt lat="43.42622472723601" lon="11.984970411428808"><ele>481.79999999999995</ele><time>2026-03-22T08:15:59.269Z</time></trkpt><trkpt lat="43.42626185386793" lon="11.985091156181275"><ele>484.59999999999997</ele><time>2026-03-22T08:16:01.261Z</time></trkpt><trkpt lat="43.42636909094075" lon="11.985146512008846"><ele>487.4</ele><time>2026-03-22T08:16:03.268Z</time></trkpt><trkpt lat="43.42643631497051" lon="11.985192288265349"><ele>490.2</ele><time>2026-03-22T08:16:04.268Z</time></trkpt><trkpt lat="43.42650264114756" lon="11.985267549033663"><ele>493.0</ele><time>2026-03-22T08:16:05.268Z</time></trkpt><trkpt lat="43.42647751794449" lon="11.985389315010146"><ele>493.0</ele><time>2026-03-22T08:16:07.269Z</time></trkpt><trkpt lat="43.42637675336881" lon="11.985399455086096"><ele>492.99999999999994</ele><time>2026-03-22T08:16:09.27Z</time></trkpt><trkpt lat="43.42630911313102" lon="11.985431244968566"><ele>492.99999999999994</ele><time>2026-03-22T08:16:10.269Z</time></trkpt><trkpt lat="43.42625460907549" lon="11.98550534781173"><ele>493.0</ele><time>2026-03-22T08:16:11.269Z</time></trkpt><trkpt lat="43.426269810623616" lon="11.985650458831838"><ele>493.0</ele><time>2026-03-22T08:16:13.269Z</time></trkpt><trkpt lat="43.426388591914076" lon="11.985743653435652"><ele>494.57142857142856</ele><time>2026-03-22T08:16:15.27Z</time></trkpt><trkpt lat="43.426433916641614" lon="11.98580755755437"><ele>496.14285714285717</ele><time>2026-03-22T08:16:16.269Z</time></trkpt><trkpt lat="43.42645393428055" lon="11.985898891439978"><ele>497.7142857142857</ele><time>2026-03-22T08:16:17.269Z</time></trkpt><trkpt lat="43.42643111738233" lon="11.985989501159436"><ele>499.2857142857143</ele><time>2026-03-22T08:16:18.269Z</time></trkpt><trkpt lat="43.42640382049832" lon="11.986088736527483"><ele>500.8571428571429</ele><time>2026-03-22T08:16:19.269Z</time></trkpt><trkpt lat="43.426419058442534" lon="11.986194383859658"><ele>502.42857142857144</ele><time>2026-03-22T08:16:20.269Z</time></trkpt><trkpt lat="43.42643682795263" lon="11.986311054027986"><ele>504.0</ele><time>2026-03-22T08:16:22.269Z</time></trkpt><trkpt lat="43.42637027127912" lon="11.986395095194103"><ele>507.2</ele><time>2026-03-22T08:16:24.268Z</time></trkpt><trkpt lat="43.42633975790714" lon="11.986509834107238"><ele>510.4</ele><time>2026-03-22T08:16:26.27Z</time></trkpt><trkpt lat="43.42642331779941" lon="11.98658669430925"><ele>513.6</ele><time>2026-03-22T08:16:28.269Z</time></trkpt><trkpt lat="43.42648341808109" lon="11.986631721911737"><ele>516.8</ele><time>2026-03-22T08:16:29.268Z</time></trkpt><trkpt lat="43.426551312218194" lon="11.986720124028256"><ele>520.0</ele><time>2026-03-22T08:16:30.268Z</time></trkpt><trkpt lat="43.42660701902557" lon="11.986837501826278"><ele>522.6</ele><time>2026-03-22T08:16:31.269Z</time></trkpt><trkpt lat="43.42664963319567" lon="11.986963761182272"><ele>525.2</ele><time>2026-03-22T08:16:32.268Z</time></trkpt><trkpt lat="43.42665437284725" lon="11.98708519311526"><ele>527.8</ele><time>2026-03-22T08:16:33.268Z</time></trkpt><trkpt lat="43.42663640564856" lon="11.987223290004117"><ele>530.4</ele><time>2026-03-22T08:16:34.269Z</time></trkpt><trkpt lat="43.4266109986426" lon="11.987360692450569"><ele>533.0</ele><time>2026-03-22T08:16:35.262Z</time></trkpt><trkpt lat="43.426589597932164" lon="11.98750612334837"><ele>535.4</ele><time>2026-03-22T08:16:36.268Z</time></trkpt><trkpt lat="43.42657705046698" lon="11.987638062580563"><ele>537.8</ele><time>2026-03-22T08:16:37.268Z</time></trkpt><trkpt lat="43.426574131590314" lon="11.987772982706163"><ele>540.2</ele><time>2026-03-22T08:16:38.267Z</time></trkpt><trkpt lat="43.426582647385544" lon="11.987898073535414"><ele>542.6</ele><time>2026-03-22T08:16:39.268Z</time></trkpt><trkpt lat="43.426610559401226" lon="11.988030361494106"><ele>545.0</ele><time>2026-03-22T08:16:40.26Z</time></trkpt><trkpt lat="43.42664174604907" lon="11.988184387466209"><ele>548.75</ele><time>2026-03-22T08:16:41.268Z</time></trkpt><trkpt lat="43.426670114538865" lon="11.988343815398725"><ele>552.5</ele><time>2026-03-22T08:16:42.267Z</time></trkpt><trkpt lat="43.42669943134981" lon="11.988503487846225"><ele>556.25</ele><time>2026-03-22T08:16:43.267Z</time></trkpt><trkpt lat="43.42672666353078" lon="11.988646810890701"><ele>560.0</ele><time>2026-03-22T08:16:44.267Z</time></trkpt><trkpt lat="43.426751288487345" lon="11.988784699544231"><ele>560.0</ele><time>2026-03-22T08:16:45.267Z</time></trkpt><trkpt lat="43.426763597471336" lon="11.988890293093336"><ele>560.0</ele><time>2026-03-22T08:16:46.267Z</time></trkpt><trkpt lat="43.42668731119964" lon="11.988975861571442"><ele>560.0</ele><time>2026-03-22T08:16:48.268Z</time></trkpt><trkpt lat="43.42654122585942" lon="11.989048621646726"><ele>560.0</ele><time>2026-03-22T08:16:50.268Z</time></trkpt><trkpt lat="43.42644364359813" lon="11.98909657341156"><ele>560.0</ele><time>2026-03-22T08:16:51.268Z</time></trkpt><trkpt lat="43.42637796840202" lon="11.989152094094832"><ele>562.7142857142857</ele><time>2026-03-22T08:16:52.269Z</time></trkpt><trkpt lat="43.426342913254544" lon="11.989237285482618"><ele>565.4285714285714</ele><time>2026-03-22T08:16:53.269Z</time></trkpt><trkpt lat="43.42632983976853" lon="11.98933805698552"><ele>568.1428571428571</ele><time>2026-03-22T08:16:54.268Z</time></trkpt><trkpt lat="43.42634036928668" lon="11.989435046476931"><ele>570.8571428571429</ele><time>2026-03-22T08:16:55.269Z</time></trkpt><trkpt lat="43.42637264096845" lon="11.989512186266486"><ele>573.5714285714286</ele><time>2026-03-22T08:16:56.268Z</time></trkpt><trkpt lat="43.42643347769222" lon="11.989556342370989"><ele>576.2857142857142</ele><time>2026-03-22T08:16:57.269Z</time></trkpt><trkpt lat="43.42649843618153" lon="11.98958201469076"><ele>579.0</ele><time>2026-03-22T08:16:58.269Z</time></trkpt><trkpt lat="43.42657932559962" lon="11.989634592179003"><ele>579.0</ele><time>2026-03-22T08:16:59.268Z</time></trkpt><trkpt lat="43.42666149934462" lon="11.989708328721782"><ele>579.0</ele><time>2026-03-22T08:17:00.269Z</time></trkpt><trkpt lat="43.42673564972633" lon="11.989785310786699"><ele>579.0</ele><time>2026-03-22T08:17:01.269Z</time></trkpt><trkpt lat="43.42677007381549" lon="11.989896465357486"><ele>579.0</ele><time>2026-03-22T08:17:03.268Z</time></trkpt><trkpt lat="43.42671125722971" lon="11.989971630750224"><ele>579.0</ele><time>2026-03-22T08:17:05.267Z</time></trkpt><trkpt lat="43.42661474770039" lon="11.990016621871476"><ele>581.4</ele><time>2026-03-22T08:17:07.269Z</time></trkpt><trkpt lat="43.42652765888175" lon="11.990111025287979"><ele>583.8</ele><time>2026-03-22T08:17:09.268Z</time></trkpt><trkpt lat="43.4265800730581" lon="11.990232728624747"><ele>586.2</ele><time>2026-03-22T08:17:11.269Z</time></trkpt><trkpt lat="43.42668543530752" lon="11.990338851273533"><ele>588.6</ele><time>2026-03-22T08:17:13.268Z</time></trkpt><trkpt lat="43.426758476132775" lon="11.990414514966751"><ele>591.0</ele><time>2026-03-22T08:17:14.269Z</time></trkpt><trkpt lat="43.42683671643042" lon="11.99051228601388"><ele>591.0</ele><time>2026-03-22T08:17:15.269Z</time></trkpt><trkpt lat="43.426922623771844" lon="11.990622153732875"><ele>591.0</ele><time>2026-03-22T08:17:16.269Z</time></trkpt><trkpt lat="43.42701209940381" lon="11.990749991119117"><ele>591.0</ele><time>2026-03-22T08:17:17.268Z</time></trkpt><trkpt lat="43.42709447567675" lon="11.990882577705165"><ele>591.0</ele><time>2026-03-22T08:17:18.264Z</time></trkpt><trkpt lat="43.42715233880407" lon="11.990972178506802"><ele>593.2</ele><time>2026-03-22T08:17:19.268Z</time></trkpt><trkpt lat="43.42717908473804" lon="11.991119310441785"><ele>595.4000000000001</ele><time>2026-03-22T08:17:21.269Z</time></trkpt><trkpt lat="43.427100449412464" lon="11.991205292274321"><ele>597.6</ele><time>2026-03-22T08:17:23.269Z</time></trkpt><trkpt lat="43.42699424835455" lon="11.9912588847743"><ele>599.8000000000001</ele><time>2026-03-22T08:17:25.269Z</time></trkpt><trkpt lat="43.42693303741112" lon="11.991318084572248"><ele>602.0</ele><time>2026-03-22T08:17:26.27Z</time></trkpt><trkpt lat="43.42693941205386" lon="11.99146234359847"><ele>602.0</ele><time>2026-03-22T08:17:28.269Z</time></trkpt><trkpt lat="43.42697441667652" lon="11.99164001566933"><ele>602.0</ele><time>2026-03-22T08:17:30.27Z</time></trkpt><trkpt lat="43.4270002435596" lon="11.991777845761613"><ele>602.0</ele><time>2026-03-22T08:17:31.269Z</time></trkpt><trkpt lat="43.427018490980856" lon="11.99191277034915"><ele>602.0</ele><time>2026-03-22T08:17:32.269Z</time></trkpt><trkpt lat="43.42703020737617" lon="11.992056102699182"><ele>602.0</ele><time>2026-03-22T08:17:33.269Z</time></trkpt><trkpt lat="43.42703517465083" lon="11.99219635458333"><ele>603.6</ele><time>2026-03-22T08:17:34.269Z</time></trkpt><trkpt lat="43.42704228558492" lon="11.992342048838546"><ele>605.2</ele><time>2026-03-22T08:17:35.269Z</time></trkpt><trkpt lat="43.42705190313603" lon="11.992488565691286"><ele>606.8</ele><time>2026-03-22T08:17:36.268Z</time></trkpt><trkpt lat="43.427057426888055" lon="11.992632663966507"><ele>608.4</ele><time>2026-03-22T08:17:37.269Z</time></trkpt><trkpt lat="43.4270651978006" lon="11.992778964072617"><ele>610.0</ele><time>2026-03-22T08:17:38.263Z</time></trkpt><trkpt lat="43.4270907494837" lon="11.992925402008039"><ele>610.8</ele><time>2026-03-22T08:17:39.269Z</time></trkpt><trkpt lat="43.427111177321486" lon="11.99306098276485"><ele>611.6</ele><time>2026-03-22T08:17:40.268Z</time></trkpt><trkpt lat="43.42714024356932" lon="11.993198886994517"><ele>612.4</ele><time>2026-03-22T08:17:41.262Z</time></trkpt><trkpt lat="43.42717557941303" lon="11.993313007939891"><ele>613.2</ele><time>2026-03-22T08:17:42.268Z</time></trkpt><trkpt lat="43.42725615763386" lon="11.9933739861225"><ele>614.0</ele><time>2026-03-22T08:17:44.267Z</time></trkpt><trkpt lat="43.427354428443536" lon="11.993318998866487"><ele>618.6</ele><time>2026-03-22T08:17:46.268Z</time></trkpt><trkpt lat="43.42746364844326" lon="11.99330004921925"><ele>623.2</ele><time>2026-03-22T08:17:48.269Z</time></trkpt><trkpt lat="43.427562233746826" lon="11.99338718041076"><ele>627.8000000000001</ele><time>2026-03-22T08:17:50.268Z</time></trkpt><trkpt lat="43.427596867891886" lon="11.993473083567624"><ele>632.4</ele><time>2026-03-22T08:17:51.268Z</time></trkpt><trkpt lat="43.42760901120425" lon="11.993565814198167"><ele>637.0</ele><time>2026-03-22T08:17:52.268Z</time></trkpt><trkpt lat="43.42761226382224" lon="11.99368284940441"><ele>637.6666666666667</ele><time>2026-03-22T08:17:53.268Z</time></trkpt><trkpt lat="43.427650227960946" lon="11.993760897064842"><ele>638.3333333333334</ele><time>2026-03-22T08:17:54.267Z</time></trkpt><trkpt lat="43.42772548266882" lon="11.993847610470212"><ele>639.0</ele><time>2026-03-22T08:17:55.27Z</time></trkpt><trkpt lat="43.427783266344285" lon="11.993924389472964"><ele>639.6666666666666</ele><time>2026-03-22T08:17:56.262Z</time></trkpt><trkpt lat="43.427818119749624" lon="11.9940184969552"><ele>640.3333333333333</ele><time>2026-03-22T08:17:57.268Z</time></trkpt><trkpt lat="43.427829380380025" lon="11.994134594567361"><ele>641.0</ele><time>2026-03-22T08:17:58.268Z</time></trkpt><trkpt lat="43.42782687987422" lon="11.994251182950814"><ele>641.5</ele><time>2026-03-22T08:17:59.268Z</time></trkpt><trkpt lat="43.427826847280556" lon="11.994359788587833"><ele>642.0</ele><time>2026-03-22T08:18:00.267Z</time></trkpt><trkpt lat="43.42783694902342" lon="11.994451060144852"><ele>642.5</ele><time>2026-03-22T08:18:01.261Z</time></trkpt><trkpt lat="43.42790226031617" lon="11.99450600304471"><ele>643.0</ele><time>2026-03-22T08:18:03.268Z</time></trkpt><trkpt lat="43.42795511792662" lon="11.994428719799828"><ele>643.5</ele><time>2026-03-22T08:18:05.267Z</time></trkpt><trkpt lat="43.427984318287685" lon="11.994265563300988"><ele>644.0</ele><time>2026-03-22T08:18:07.268Z</time></trkpt><trkpt lat="43.42806163599561" lon="11.994175524613896"><ele>649.0</ele><time>2026-03-22T08:18:09.278Z</time></trkpt><trkpt lat="43.42815691675395" lon="11.9942022991186"><ele>654.0</ele><time>2026-03-22T08:18:11.27Z</time></trkpt><trkpt lat="43.42819581571491" lon="11.994279400286656"><ele>659.0</ele><time>2026-03-22T08:18:12.268Z</time></trkpt><trkpt lat="43.428237524899174" lon="11.994346892968231"><ele>664.0</ele><time>2026-03-22T08:18:13.269Z</time></trkpt><trkpt lat="43.42828173847904" lon="11.994409627195129"><ele>669.0</ele><time>2026-03-22T08:18:14.27Z</time></trkpt><trkpt lat="43.428348257808416" lon="11.994499601878436"><ele>674.0</ele><time>2026-03-22T08:18:15.262Z</time></trkpt><trkpt lat="43.42840953684838" lon="11.994599466800574"><ele>674.0</ele><time>2026-03-22T08:18:16.271Z</time></trkpt><trkpt lat="43.428455856908954" lon="11.994707070385642"><ele>674.0</ele><time>2026-03-22T08:18:17.27Z</time></trkpt><trkpt lat="43.42847206299713" lon="11.994819438401656"><ele>674.0</ele><time>2026-03-22T08:18:18.269Z</time></trkpt><trkpt lat="43.42848121627234" lon="11.994953576330637"><ele>674.0</ele><time>2026-03-22T08:18:19.269Z</time></trkpt><trkpt lat="43.42849122860601" lon="11.995080358031245"><ele>674.0</ele><time>2026-03-22T08:18:20.266Z</time></trkpt><trkpt lat="43.4285107160984" lon="11.995225463563223"><ele>675.75</ele><time>2026-03-22T08:18:21.269Z</time></trkpt><trkpt lat="43.428527513057524" lon="11.995369586523971"><ele>677.5</ele><time>2026-03-22T08:18:22.269Z</time></trkpt><trkpt lat="43.428550059759175" lon="11.995522844512257"><ele>679.25</ele><time>2026-03-22T08:18:23.269Z</time></trkpt><trkpt lat="43.42856926969153" lon="11.995686048207686"><ele>681.0</ele><time>2026-03-22T08:18:24.269Z</time></trkpt><trkpt lat="43.42859042081083" lon="11.995843283444545"><ele>682.5999999999999</ele><time>2026-03-22T08:18:25.271Z</time></trkpt><trkpt lat="43.42860834396456" lon="11.996001823963352"><ele>684.2</ele><time>2026-03-22T08:18:26.269Z</time></trkpt><trkpt lat="43.42862162857606" lon="11.996156277767255"><ele>685.8</ele><time>2026-03-22T08:18:27.271Z</time></trkpt><trkpt lat="43.42862044113144" lon="11.9963078399235"><ele>687.4000000000001</ele><time>2026-03-22T08:18:28.269Z</time></trkpt><trkpt lat="43.428592315641566" lon="11.996451904005811"><ele>689.0</ele><time>2026-03-22T08:18:29.269Z</time></trkpt><trkpt lat="43.428551611724735" lon="11.996602481014166"><ele>690.5</ele><time>2026-03-22T08:18:30.27Z</time></trkpt><trkpt lat="43.42849596652116" lon="11.996743200901301"><ele>692.0</ele><time>2026-03-22T08:18:31.269Z</time></trkpt><trkpt lat="43.42844636431579" lon="11.996883820635626"><ele>693.5</ele><time>2026-03-22T08:18:32.27Z</time></trkpt><trkpt lat="43.42841711380038" lon="11.997026762327488"><ele>695.0</ele><time>2026-03-22T08:18:33.269Z</time></trkpt><trkpt lat="43.42840984936154" lon="11.99720374320518"><ele>695.0</ele><time>2026-03-22T08:18:34.269Z</time></trkpt><trkpt lat="43.42842125663599" lon="11.99737569799756"><ele>695.0</ele><time>2026-03-22T08:18:35.268Z</time></trkpt><trkpt lat="43.428446872008976" lon="11.997553501242523"><ele>695.0</ele><time>2026-03-22T08:18:36.269Z</time></trkpt><trkpt lat="43.428476931284365" lon="11.997715977603848"><ele>695.0</ele><time>2026-03-22T08:18:37.268Z</time></trkpt><trkpt lat="43.42852833115863" lon="11.997854894174573"><ele>694.75</ele><time>2026-03-22T08:18:38.268Z</time></trkpt><trkpt lat="43.42858341219528" lon="11.998008740881733"><ele>694.5</ele><time>2026-03-22T08:18:39.268Z</time></trkpt><trkpt lat="43.42863854100133" lon="11.998158926164676"><ele>694.25</ele><time>2026-03-22T08:18:40.268Z</time></trkpt><trkpt lat="43.42867206937346" lon="11.9982966365136"><ele>694.0</ele><time>2026-03-22T08:18:41.268Z</time></trkpt><trkpt lat="43.42870106642236" lon="11.998438004538244"><ele>694.0</ele><time>2026-03-22T08:18:42.269Z</time></trkpt><trkpt lat="43.42872390487331" lon="11.998562836324027"><ele>694.0</ele><time>2026-03-22T08:18:43.268Z</time></trkpt><trkpt lat="43.42873986539144" lon="11.998672366324314"><ele>694.0</ele><time>2026-03-22T08:18:44.269Z</time></trkpt><trkpt lat="43.42874837775811" lon="11.998769525265947"><ele>694.0</ele><time>2026-03-22T08:18:45.269Z</time></trkpt><trkpt lat="43.42874859019438" lon="11.998921401167486"><ele>694.0</ele><time>2026-03-22T08:18:47.268Z</time></trkpt><trkpt lat="43.42872420980164" lon="11.999010676575546"><ele>694.0</ele><time>2026-03-22T08:19:19.268Z</time></trkpt><trkpt lat="43.428705940238984" lon="11.999104253463772"><ele>695.8333333333334</ele><time>2026-03-22T08:19:21.264Z</time></trkpt><trkpt lat="43.42867326984544" lon="11.999179022646507"><ele>697.6666666666667</ele><time>2026-03-22T08:19:24.268Z</time></trkpt><trkpt lat="43.42861748432088" lon="11.999329777579383"><ele>699.5</ele><time>2026-03-22T08:19:26.268Z</time></trkpt><trkpt lat="43.42859169839714" lon="11.99943333707906"><ele>701.3333333333334</ele><time>2026-03-22T08:19:27.269Z</time></trkpt><trkpt lat="43.42855805941965" lon="11.999544967018263"><ele>703.1666666666666</ele><time>2026-03-22T08:19:28.267Z</time></trkpt><trkpt lat="43.42851530320007" lon="11.999632584840974"><ele>705.0</ele><time>2026-03-22T08:19:29.261Z</time></trkpt><trkpt lat="43.42847268487628" lon="11.999744262723572"><ele>705.0</ele><time>2026-03-22T08:19:31.268Z</time></trkpt><trkpt lat="43.42853660256238" lon="11.999793106076968"><ele>705.0</ele><time>2026-03-22T08:19:47.267Z</time></trkpt><trkpt lat="43.42862016870515" lon="11.999818808050875"><ele>705.0</ele><time>2026-03-22T08:19:49.268Z</time></trkpt><trkpt lat="43.428732437806346" lon="11.999873551398135"><ele>705.0</ele><time>2026-03-22T08:19:51.267Z</time></trkpt><trkpt lat="43.42879237148703" lon="11.999905835457097"><ele>705.0</ele><time>2026-03-22T08:19:52.269Z</time></trkpt><trkpt lat="43.42885908994822" lon="11.999935510939626"><ele>705.0</ele><time>2026-03-22T08:19:55.263Z</time></trkpt><trkpt lat="43.428833328193605" lon="12.000056546640263"><ele>705.0</ele><time>2026-03-22T08:19:58.268Z</time></trkpt><trkpt lat="43.42873111835726" lon="12.00009739567901"><ele>705.0</ele><time>2026-03-22T08:20:00.263Z</time></trkpt><trkpt lat="43.42864015216061" lon="12.000171969522244"><ele>705.0</ele><time>2026-03-22T08:20:02.267Z</time></trkpt><trkpt lat="43.4286022204018" lon="12.000293760885652"><ele>705.0</ele><time>2026-03-22T08:20:04.267Z</time></trkpt><trkpt lat="43.42856895683026" lon="12.000374136970763"><ele>705.0</ele><time>2026-03-22T08:20:05.268Z</time></trkpt><trkpt lat="43.42853050325206" lon="12.000470232958284"><ele>705.0</ele><time>2026-03-22T08:20:06.268Z</time></trkpt><trkpt lat="43.42848788177388" lon="12.000550913897941"><ele>705.0</ele><time>2026-03-22T08:20:07.264Z</time></trkpt><trkpt lat="43.42842473639903" lon="12.000610301982217"><ele>705.0</ele><time>2026-03-22T08:20:08.265Z</time></trkpt><trkpt lat="43.42835016721307" lon="12.000657529118628"><ele>705.0</ele><time>2026-03-22T08:20:09.266Z</time></trkpt><trkpt lat="43.42828562086961" lon="12.000723326967666"><ele>705.0</ele><time>2026-03-22T08:20:10.266Z</time></trkpt><trkpt lat="43.4282238707978" lon="12.000828115706485"><ele>705.0</ele><time>2026-03-22T08:20:11.266Z</time></trkpt><trkpt lat="43.428196244295656" lon="12.000934319110712"><ele>707.6</ele><time>2026-03-22T08:20:12.268Z</time></trkpt><trkpt lat="43.42817516272679" lon="12.001019120650302"><ele>710.2</ele><time>2026-03-22T08:20:13.267Z</time></trkpt><trkpt lat="43.42816987372599" lon="12.001118629702356"><ele>712.8</ele><time>2026-03-22T08:20:14.265Z</time></trkpt><trkpt lat="43.428134062798115" lon="12.00126391440871"><ele>715.4</ele><time>2026-03-22T08:20:16.265Z</time></trkpt><trkpt lat="43.42808193407508" lon="12.001384094168232"><ele>718.0</ele><time>2026-03-22T08:20:17.265Z</time></trkpt><trkpt lat="43.428085940302225" lon="12.001555614264781"><ele>718.0</ele><time>2026-03-22T08:20:18.265Z</time></trkpt><trkpt lat="43.42803843654673" lon="12.00163896161757"><ele>718.0</ele><time>2026-03-22T08:20:19.266Z</time></trkpt><trkpt lat="43.42793981106085" lon="12.001644012325418"><ele>718.0</ele><time>2026-03-22T08:20:21.265Z</time></trkpt><trkpt lat="43.42786177916326" lon="12.00161362725128"><ele>718.0</ele><time>2026-03-22T08:20:22.266Z</time></trkpt><trkpt lat="43.427793304470356" lon="12.001592430085225"><ele>718.0</ele><time>2026-03-22T08:20:23.268Z</time></trkpt><trkpt lat="43.427723543994055" lon="12.001617760254835"><ele>718.0</ele><time>2026-03-22T08:20:24.267Z</time></trkpt><trkpt lat="43.42768902729875" lon="12.001765309237006"><ele>720.1666666666667</ele><time>2026-03-22T08:20:26.267Z</time></trkpt><trkpt lat="43.42768520317039" lon="12.001868793376012"><ele>722.3333333333334</ele><time>2026-03-22T08:20:27.269Z</time></trkpt><trkpt lat="43.427708259708396" lon="12.001953616356115"><ele>724.5</ele><time>2026-03-22T08:20:28.268Z</time></trkpt><trkpt lat="43.427681469505565" lon="12.002096496208203"><ele>726.6666666666666</ele><time>2026-03-22T08:20:30.268Z</time></trkpt><trkpt lat="43.427632141714376" lon="12.002165568683955"><ele>728.8333333333333</ele><time>2026-03-22T08:20:31.268Z</time></trkpt><trkpt lat="43.42756537450125" lon="12.002269256364233"><ele>731.0</ele><time>2026-03-22T08:20:32.268Z</time></trkpt><trkpt lat="43.42751673014488" lon="12.002351145008127"><ele>731.0</ele><time>2026-03-22T08:20:33.261Z</time></trkpt><trkpt lat="43.42745266483744" lon="12.002436379285237"><ele>731.0</ele><time>2026-03-22T08:20:34.268Z</time></trkpt><trkpt lat="43.427403421284865" lon="12.002507797367846"><ele>731.0</ele><time>2026-03-22T08:20:35.269Z</time></trkpt><trkpt lat="43.42731018032251" lon="12.002600314468602"><ele>731.0</ele><time>2026-03-22T08:20:37.269Z</time></trkpt><trkpt lat="43.427225754259055" lon="12.002689529122605"><ele>731.0</ele><time>2026-03-22T08:20:39.27Z</time></trkpt><trkpt lat="43.42712923559652" lon="12.002779325239828"><ele>731.8571428571429</ele><time>2026-03-22T08:20:41.27Z</time></trkpt><trkpt lat="43.42707346254894" lon="12.002822901119064"><ele>732.7142857142857</ele><time>2026-03-22T08:20:42.269Z</time></trkpt><trkpt lat="43.42702020195918" lon="12.002871810573197"><ele>733.5714285714287</ele><time>2026-03-22T08:20:43.269Z</time></trkpt><trkpt lat="43.426966273035035" lon="12.002937076027445"><ele>734.4285714285714</ele><time>2026-03-22T08:20:45.268Z</time></trkpt><trkpt lat="43.4269546153725" lon="12.00304144708439"><ele>735.2857142857143</ele><time>2026-03-22T08:21:28.267Z</time></trkpt><trkpt lat="43.4269458920827" lon="12.003145250211576"><ele>736.1428571428572</ele><time>2026-03-22T08:21:30.269Z</time></trkpt><trkpt lat="43.426918319386026" lon="12.003266394066214"><ele>737.0</ele><time>2026-03-22T08:21:32.268Z</time></trkpt><trkpt lat="43.42690570475786" lon="12.003357532646904"><ele>737.6</ele><time>2026-03-22T08:21:33.269Z</time></trkpt><trkpt lat="43.426889056223914" lon="12.003459052101393"><ele>738.2</ele><time>2026-03-22T08:21:34.267Z</time></trkpt><trkpt lat="43.42687940820436" lon="12.003553379032764"><ele>738.8</ele><time>2026-03-22T08:21:35.262Z</time></trkpt><trkpt lat="43.426879871812154" lon="12.003725569725027"><ele>739.4</ele><time>2026-03-22T08:21:37.268Z</time></trkpt><trkpt lat="43.426903573901306" lon="12.00387884996558"><ele>740.0</ele><time>2026-03-22T08:21:39.269Z</time></trkpt><trkpt lat="43.42692975310102" lon="12.00400816672622"><ele>740.0</ele><time>2026-03-22T08:21:41.268Z</time></trkpt><trkpt lat="43.426861130829955" lon="12.00409491721598"><ele>740.0</ele><time>2026-03-22T08:21:43.269Z</time></trkpt><trkpt lat="43.426780101838965" lon="12.004180486179404"><ele>740.0</ele><time>2026-03-22T08:21:45.269Z</time></trkpt><trkpt lat="43.42675493204964" lon="12.004318954528618"><ele>740.0</ele><time>2026-03-22T08:21:47.269Z</time></trkpt><trkpt lat="43.42680633237781" lon="12.004491319036894"><ele>740.0</ele><time>2026-03-22T08:21:49.268Z</time></trkpt><trkpt lat="43.426840776095986" lon="12.004596158502574"><ele>739.4</ele><time>2026-03-22T08:21:50.268Z</time></trkpt><trkpt lat="43.42684596737041" lon="12.004775296431625"><ele>738.8</ele><time>2026-03-22T08:21:52.268Z</time></trkpt><trkpt lat="43.42684521135809" lon="12.004868924811497"><ele>738.2</ele><time>2026-03-22T08:21:53.269Z</time></trkpt><trkpt lat="43.42682927372153" lon="12.004963234396982"><ele>737.6</ele><time>2026-03-22T08:21:54.266Z</time></trkpt><trkpt lat="43.426747698292075" lon="12.005085784201885"><ele>737.0</ele><time>2026-03-22T08:21:56.267Z</time></trkpt><trkpt lat="43.426691995929964" lon="12.005140197104643"><ele>735.2</ele><time>2026-03-22T08:21:57.266Z</time></trkpt><trkpt lat="43.426610095437034" lon="12.005203974028637"><ele>733.4000000000001</ele><time>2026-03-22T08:21:58.269Z</time></trkpt><trkpt lat="43.42651757491209" lon="12.0052604248232"><ele>731.5999999999999</ele><time>2026-03-22T08:21:59.267Z</time></trkpt><trkpt lat="43.42645083747454" lon="12.00530993567842"><ele>729.8</ele><time>2026-03-22T08:22:00.266Z</time></trkpt><trkpt lat="43.42634944322662" lon="12.005392603524502"><ele>728.0</ele><time>2026-03-22T08:22:02.267Z</time></trkpt><trkpt lat="43.42629873711076" lon="12.005450177970307"><ele>728.0</ele><time>2026-03-22T08:22:03.268Z</time></trkpt><trkpt lat="43.42626020142586" lon="12.005525478754715"><ele>728.0</ele><time>2026-03-22T08:22:04.267Z</time></trkpt><trkpt lat="43.426248670722856" lon="12.005631933672827"><ele>728.0</ele><time>2026-03-22T08:22:06.267Z</time></trkpt><trkpt lat="43.426309676599445" lon="12.005701157539487"><ele>728.0</ele><time>2026-03-22T08:22:08.268Z</time></trkpt><trkpt lat="43.42636793126115" lon="12.005766004302819"><ele>728.0</ele><time>2026-03-22T08:22:09.268Z</time></trkpt><trkpt lat="43.426432845022084" lon="12.005784185272788"><ele>728.0</ele><time>2026-03-22T08:22:10.266Z</time></trkpt><trkpt lat="43.4264789277108" lon="12.005855461866553"><ele>728.0</ele><time>2026-03-22T08:22:11.269Z</time></trkpt><trkpt lat="43.42646063922504" lon="12.005947917174316"><ele>730.2</ele><time>2026-03-22T08:22:13.269Z</time></trkpt><trkpt lat="43.42637749123204" lon="12.006077324319513"><ele>732.4</ele><time>2026-03-22T08:22:15.268Z</time></trkpt><trkpt lat="43.42631329179856" lon="12.006188125076502"><ele>734.6</ele><time>2026-03-22T08:22:16.269Z</time></trkpt><trkpt lat="43.42625080996257" lon="12.00631715947354"><ele>736.8000000000001</ele><time>2026-03-22T08:22:17.267Z</time></trkpt><trkpt lat="43.42617803120728" lon="12.00642228773251"><ele>739.0</ele><time>2026-03-22T08:22:18.26Z</time></trkpt><trkpt lat="43.42612093093879" lon="12.006542500885834"><ele>739.0</ele><time>2026-03-22T08:22:19.267Z</time></trkpt><trkpt lat="43.42606092735031" lon="12.006676937487786"><ele>739.0</ele><time>2026-03-22T08:22:20.269Z</time></trkpt><trkpt lat="43.42599660768515" lon="12.0067664007691"><ele>739.0</ele><time>2026-03-22T08:22:21.268Z</time></trkpt><trkpt lat="43.42595136406901" lon="12.006869346179771"><ele>739.0</ele><time>2026-03-22T08:22:22.268Z</time></trkpt><trkpt lat="43.42590146968071" lon="12.006944849209289"><ele>739.0</ele><time>2026-03-22T08:22:23.267Z</time></trkpt><trkpt lat="43.42581658268596" lon="12.00706750898814"><ele>739.0</ele><time>2026-03-22T08:22:25.268Z</time></trkpt><trkpt lat="43.4257653652658" lon="12.007155312799147"><ele>739.0</ele><time>2026-03-22T08:22:27.267Z</time></trkpt><trkpt lat="43.425815550103344" lon="12.007223362964929"><ele>739.0</ele><time>2026-03-22T08:22:32.267Z</time></trkpt><trkpt lat="43.425922893249215" lon="12.007185831683117"><ele>739.0</ele><time>2026-03-22T08:22:34.262Z</time></trkpt><trkpt lat="43.4259754757342" lon="12.007125130233156"><ele>739.0</ele><time>2026-03-22T08:22:35.267Z</time></trkpt><trkpt lat="43.426103123026174" lon="12.007105877067945"><ele>739.0</ele><time>2026-03-22T08:22:37.268Z</time></trkpt><trkpt lat="43.426217776576706" lon="12.007140908282851"><ele>739.0</ele><time>2026-03-22T08:22:39.269Z</time></trkpt><trkpt lat="43.42631095652023" lon="12.007207411093528"><ele>739.0</ele><time>2026-03-22T08:22:41.264Z</time></trkpt><trkpt lat="43.426380266165665" lon="12.007305237587925"><ele>739.0</ele><time>2026-03-22T08:22:43.269Z</time></trkpt><trkpt lat="43.42641938216911" lon="12.007375004398797"><ele>739.0</ele><time>2026-03-22T08:22:44.269Z</time></trkpt><trkpt lat="43.42648180771421" lon="12.007428008533527"><ele>737.5</ele><time>2026-03-22T08:22:45.27Z</time></trkpt><trkpt lat="43.426548517370406" lon="12.007466244107995"><ele>736.0</ele><time>2026-03-22T08:22:46.269Z</time></trkpt><trkpt lat="43.42663552360298" lon="12.00753024283392"><ele>734.5</ele><time>2026-03-22T08:22:47.269Z</time></trkpt><trkpt lat="43.42669154795292" lon="12.007590448883752"><ele>733.0</ele><time>2026-03-22T08:22:48.268Z</time></trkpt><trkpt lat="43.426756473532954" lon="12.007647913771919"><ele>731.5</ele><time>2026-03-22T08:22:50.269Z</time></trkpt><trkpt lat="43.4267436554892" lon="12.007768810831546"><ele>730.0</ele><time>2026-03-22T08:22:52.263Z</time></trkpt><trkpt lat="43.426669604887365" lon="12.00782907955208"><ele>730.0</ele><time>2026-03-22T08:22:54.268Z</time></trkpt><trkpt lat="43.42656977159782" lon="12.0079022412512"><ele>730.0</ele><time>2026-03-22T08:22:56.269Z</time></trkpt><trkpt lat="43.426455262092524" lon="12.007970369002017"><ele>730.0</ele><time>2026-03-22T08:22:58.268Z</time></trkpt><trkpt lat="43.426378538588054" lon="12.007981314441366"><ele>730.0</ele><time>2026-03-22T08:22:59.268Z</time></trkpt><trkpt lat="43.426348975799804" lon="12.008080115744113"><ele>730.0</ele><time>2026-03-22T08:23:01.261Z</time></trkpt><trkpt lat="43.426423791337726" lon="12.008175117310145"><ele>730.0</ele><time>2026-03-22T08:23:03.27Z</time></trkpt><trkpt lat="43.42647983777983" lon="12.008225006423602"><ele>730.0</ele><time>2026-03-22T08:23:04.269Z</time></trkpt><trkpt lat="43.4265349920648" lon="12.0082796038487"><ele>730.0</ele><time>2026-03-22T08:23:05.269Z</time></trkpt><trkpt lat="43.42662243107834" lon="12.008372103575962"><ele>730.0</ele><time>2026-03-22T08:23:07.269Z</time></trkpt><trkpt lat="43.42669225045533" lon="12.00845015502842"><ele>730.0</ele><time>2026-03-22T08:23:09.269Z</time></trkpt><trkpt lat="43.42674031428219" lon="12.008531446008277"><ele>730.0</ele><time>2026-03-22T08:23:10.263Z</time></trkpt><trkpt lat="43.42678822276752" lon="12.008616423370478"><ele>733.1666666666667</ele><time>2026-03-22T08:23:11.27Z</time></trkpt><trkpt lat="43.42682597058389" lon="12.00868792078667"><ele>736.3333333333334</ele><time>2026-03-22T08:23:12.269Z</time></trkpt><trkpt lat="43.42687672696405" lon="12.008816046183615"><ele>739.5</ele><time>2026-03-22T08:23:14.269Z</time></trkpt><trkpt lat="43.42686952467662" lon="12.008974841524077"><ele>742.6666666666666</ele><time>2026-03-22T08:23:16.27Z</time></trkpt><trkpt lat="43.426831920906444" lon="12.00906719309656"><ele>745.8333333333333</ele><time>2026-03-22T08:23:17.269Z</time></trkpt><trkpt lat="43.426775411280204" lon="12.009153495888317"><ele>749.0</ele><time>2026-03-22T08:23:18.268Z</time></trkpt><trkpt lat="43.42674146936572" lon="12.009231744121628"><ele>751.0</ele><time>2026-03-22T08:23:19.27Z</time></trkpt><trkpt lat="43.426725400015854" lon="12.00935178679465"><ele>753.0</ele><time>2026-03-22T08:23:29.268Z</time></trkpt><trkpt lat="43.42665454323793" lon="12.009507884303392"><ele>755.0</ele><time>2026-03-22T08:23:31.27Z</time></trkpt><trkpt lat="43.426608281517716" lon="12.009596299181286"><ele>757.0</ele><time>2026-03-22T08:23:32.266Z</time></trkpt><trkpt lat="43.42656229685826" lon="12.00966567850334"><ele>759.0</ele><time>2026-03-22T08:23:33.266Z</time></trkpt><trkpt lat="43.42651727156724" lon="12.009730752767098"><ele>761.0</ele><time>2026-03-22T08:23:34.268Z</time></trkpt><trkpt lat="43.426504620434315" lon="12.009858496594767"><ele>761.0</ele><time>2026-03-22T08:23:36.267Z</time></trkpt><trkpt lat="43.42656115870968" lon="12.009911941251328"><ele>761.0</ele><time>2026-03-22T08:23:38.266Z</time></trkpt><trkpt lat="43.42666633287927" lon="12.009881852540353"><ele>761.0</ele><time>2026-03-22T08:23:40.269Z</time></trkpt><trkpt lat="43.42678685972693" lon="12.00991801385233"><ele>761.0</ele><time>2026-03-22T08:23:42.269Z</time></trkpt><trkpt lat="43.42685631826954" lon="12.010005354633279"><ele>761.0</ele><time>2026-03-22T08:23:43.268Z</time></trkpt><trkpt lat="43.42690556126493" lon="12.010084420950514"><ele>761.8333333333333</ele><time>2026-03-22T08:23:44.269Z</time></trkpt><trkpt lat="43.42698183940902" lon="12.010130862292804"><ele>762.6666666666666</ele><time>2026-03-22T08:23:45.267Z</time></trkpt><trkpt lat="43.427059704697875" lon="12.01016219468423"><ele>763.5</ele><time>2026-03-22T08:23:46.27Z</time></trkpt><trkpt lat="43.427130519709415" lon="12.010159512302165"><ele>764.3333333333334</ele><time>2026-03-22T08:23:47.269Z</time></trkpt><trkpt lat="43.427195532276095" lon="12.010156665948301"><ele>765.1666666666667</ele><time>2026-03-22T08:23:48.269Z</time></trkpt><trkpt lat="43.42727369520982" lon="12.010188227811502"><ele>766.0</ele><time>2026-03-22T08:23:49.269Z</time></trkpt><trkpt lat="43.42736365918732" lon="12.010253307937415"><ele>763.4</ele><time>2026-03-22T08:23:51.269Z</time></trkpt><trkpt lat="43.42744833664712" lon="12.010354719506557"><ele>760.8</ele><time>2026-03-22T08:23:53.269Z</time></trkpt><trkpt lat="43.42754234068104" lon="12.010407159526444"><ele>758.1999999999999</ele><time>2026-03-22T08:23:54.27Z</time></trkpt><trkpt lat="43.42759266868537" lon="12.01047233545704"><ele>755.5999999999999</ele><time>2026-03-22T08:23:55.269Z</time></trkpt><trkpt lat="43.427638269282326" lon="12.010638932308805"><ele>753.0</ele><time>2026-03-22T08:23:57.269Z</time></trkpt><trkpt lat="43.427673011060016" lon="12.010810147585858"><ele>756.0</ele><time>2026-03-22T08:23:59.271Z</time></trkpt><trkpt lat="43.4277075612034" lon="12.010903828288509"><ele>759.0</ele><time>2026-03-22T08:24:00.269Z</time></trkpt><trkpt lat="43.42774210955847" lon="12.011008831303943"><ele>762.0</ele><time>2026-03-22T08:24:02.269Z</time></trkpt><trkpt lat="43.42774903330994" lon="12.011164023198202"><ele>765.0</ele><time>2026-03-22T08:24:04.268Z</time></trkpt><trkpt lat="43.42772696539816" lon="12.011270607410562"><ele>768.0</ele><time>2026-03-22T08:24:06.267Z</time></trkpt><trkpt lat="43.42771499673" lon="12.011358192345705"><ele>771.0</ele><time>2026-03-22T08:24:10.268Z</time></trkpt><trkpt lat="43.42780016553435" lon="12.011368357266461"><ele>771.0</ele><time>2026-03-22T08:24:13.268Z</time></trkpt><trkpt lat="43.427899389862795" lon="12.011283230346887"><ele>771.0</ele><time>2026-03-22T08:24:15.267Z</time></trkpt><trkpt lat="43.42798054889284" lon="12.011223098161004"><ele>771.0</ele><time>2026-03-22T08:24:16.267Z</time></trkpt><trkpt lat="43.42806908258804" lon="12.011169721323482"><ele>771.0</ele><time>2026-03-22T08:24:17.267Z</time></trkpt><trkpt lat="43.42816381626198" lon="12.011091444283602"><ele>771.0</ele><time>2026-03-22T08:24:19.27Z</time></trkpt><trkpt lat="43.42822167842703" lon="12.011023881290852"><ele>767.8</ele><time>2026-03-22T08:24:20.267Z</time></trkpt><trkpt lat="43.4283113016039" lon="12.010970928598484"><ele>764.5999999999999</ele><time>2026-03-22T08:24:22.269Z</time></trkpt><trkpt lat="43.42837903492044" lon="12.010996264614475"><ele>761.4</ele><time>2026-03-22T08:24:23.269Z</time></trkpt><trkpt lat="43.42849048473977" lon="12.01111120491301"><ele>758.2</ele><time>2026-03-22T08:24:25.269Z</time></trkpt><trkpt lat="43.428533288796444" lon="12.011189681914882"><ele>755.0</ele><time>2026-03-22T08:24:26.269Z</time></trkpt><trkpt lat="43.428608118726096" lon="12.01125245925277"><ele>755.0</ele><time>2026-03-22T08:24:27.268Z</time></trkpt><trkpt lat="43.428730387401394" lon="12.01120917804087"><ele>755.0</ele><time>2026-03-22T08:24:29.267Z</time></trkpt><trkpt lat="43.4288149446497" lon="12.01120409238717"><ele>755.0</ele><time>2026-03-22T08:24:30.267Z</time></trkpt><trkpt lat="43.42889614104046" lon="12.01121339562323"><ele>755.0</ele><time>2026-03-22T08:24:31.268Z</time></trkpt><trkpt lat="43.42899661365097" lon="12.01123324928492"><ele>755.0</ele><time>2026-03-22T08:24:32.269Z</time></trkpt><trkpt lat="43.42909395785547" lon="12.011252413488112"><ele>755.1666666666666</ele><time>2026-03-22T08:24:33.269Z</time></trkpt><trkpt lat="43.42917380974812" lon="12.011285595335899"><ele>755.3333333333333</ele><time>2026-03-22T08:24:34.269Z</time></trkpt><trkpt lat="43.42924800353587" lon="12.01126896900525"><ele>755.5</ele><time>2026-03-22T08:24:35.268Z</time></trkpt><trkpt lat="43.42931023668859" lon="12.011247446189715"><ele>755.6666666666666</ele><time>2026-03-22T08:24:36.268Z</time></trkpt><trkpt lat="43.42939741093001" lon="12.011210534797117"><ele>755.8333333333334</ele><time>2026-03-22T08:24:38.268Z</time></trkpt><trkpt lat="43.429519689536114" lon="12.011173640065781"><ele>756.0</ele><time>2026-03-22T08:24:41.261Z</time></trkpt><trkpt lat="43.42960430494226" lon="12.011183165182342"><ele>757.4</ele><time>2026-03-22T08:24:42.268Z</time></trkpt><trkpt lat="43.42968292485996" lon="12.011195235799777"><ele>758.8</ele><time>2026-03-22T08:24:43.269Z</time></trkpt><trkpt lat="43.42979218652134" lon="12.01120703890322"><ele>760.1999999999999</ele><time>2026-03-22T08:24:44.268Z</time></trkpt><trkpt lat="43.42985489886043" lon="12.011228728213121"><ele>761.5999999999999</ele><time>2026-03-22T08:24:45.269Z</time></trkpt><trkpt lat="43.42998491948457" lon="12.01128958578281"><ele>763.0</ele><time>2026-03-22T08:24:47.269Z</time></trkpt><trkpt lat="43.43004818929388" lon="12.011336416850188"><ele>763.0</ele><time>2026-03-22T08:24:48.269Z</time></trkpt><trkpt lat="43.43009919987619" lon="12.01141260583932"><ele>763.0</ele><time>2026-03-22T08:24:49.269Z</time></trkpt><trkpt lat="43.430137188023956" lon="12.011526374962113"><ele>763.0</ele><time>2026-03-22T08:24:51.269Z</time></trkpt><trkpt lat="43.43005212746837" lon="12.011626642507835"><ele>763.0</ele><time>2026-03-22T08:27:35.269Z</time></trkpt><trkpt lat="43.43000312739722" lon="12.011683290325367"><ele>763.0</ele><time>2026-03-22T08:27:36.269Z</time></trkpt><trkpt lat="43.42990437819841" lon="12.011769668332775"><ele>765.0</ele><time>2026-03-22T08:27:38.271Z</time></trkpt><trkpt lat="43.4298408179337" lon="12.011802193991885"><ele>767.0</ele><time>2026-03-22T08:27:39.271Z</time></trkpt><trkpt lat="43.42973608053505" lon="12.01188798291679"><ele>769.0</ele><time>2026-03-22T08:27:41.264Z</time></trkpt><trkpt lat="43.42965764719362" lon="12.01193385139564"><ele>771.0</ele><time>2026-03-22T08:27:43.27Z</time></trkpt><trkpt lat="43.42955420903446" lon="12.012019561678903"><ele>773.0</ele><time>2026-03-22T08:27:45.269Z</time></trkpt><trkpt lat="43.42947302761123" lon="12.012052470738546"><ele>773.8333333333334</ele><time>2026-03-22T08:27:46.27Z</time></trkpt><trkpt lat="43.42939159838264" lon="12.012092963816134"><ele>774.6666666666667</ele><time>2026-03-22T08:27:47.269Z</time></trkpt><trkpt lat="43.42932670507845" lon="12.01213238122086"><ele>775.5</ele><time>2026-03-22T08:27:48.261Z</time></trkpt><trkpt lat="43.429277254428385" lon="12.012187478444593"><ele>776.3333333333333</ele><time>2026-03-22T08:27:49.27Z</time></trkpt><trkpt lat="43.42920153328651" lon="12.012290983757001"><ele>777.1666666666666</ele><time>2026-03-22T08:27:51.269Z</time></trkpt><trkpt lat="43.429158482415424" lon="12.012370475694183"><ele>778.0</ele><time>2026-03-22T08:27:52.27Z</time></trkpt><trkpt lat="43.42909798540263" lon="12.012511707156719"><ele>781.1666666666666</ele><time>2026-03-22T08:27:54.269Z</time></trkpt><trkpt lat="43.42905682824265" lon="12.012647903117582"><ele>784.3333333333333</ele><time>2026-03-22T08:27:56.269Z</time></trkpt><trkpt lat="43.42898509409579" lon="12.01276350695331"><ele>787.5</ele><time>2026-03-22T08:27:58.27Z</time></trkpt><trkpt lat="43.42894914657806" lon="12.012848990915625"><ele>790.6666666666667</ele><time>2026-03-22T08:27:59.269Z</time></trkpt><trkpt lat="43.428907759150086" lon="12.012926240090952"><ele>793.8333333333334</ele><time>2026-03-22T08:28:00.269Z</time></trkpt><trkpt lat="43.42886565932963" lon="12.01300784142399"><ele>797.0</ele><time>2026-03-22T08:28:01.262Z</time></trkpt><trkpt lat="43.42882021340704" lon="12.013080492893723"><ele>797.6666666666667</ele><time>2026-03-22T08:28:02.27Z</time></trkpt><trkpt lat="43.42873791864716" lon="12.013195115520334"><ele>798.3333333333334</ele><time>2026-03-22T08:28:04.269Z</time></trkpt><trkpt lat="43.42867175862813" lon="12.01323463428697"><ele>799.0</ele><time>2026-03-22T08:28:05.27Z</time></trkpt><trkpt lat="43.42860902537957" lon="12.013284773074718"><ele>799.6666666666667</ele><time>2026-03-22T08:28:06.262Z</time></trkpt><trkpt lat="43.42854891251491" lon="12.01333021378719"><ele>800.3333333333334</ele><time>2026-03-22T08:28:07.269Z</time></trkpt><trkpt lat="43.428485023354995" lon="12.01337454204213"><ele>801.0</ele><time>2026-03-22T08:28:08.27Z</time></trkpt><trkpt lat="43.428414476749225" lon="12.013444138390726"><ele>804.0</ele><time>2026-03-22T08:28:09.269Z</time></trkpt><trkpt lat="43.42834945786612" lon="12.013540847934415"><ele>807.0</ele><time>2026-03-22T08:28:10.271Z</time></trkpt><trkpt lat="43.42831672957927" lon="12.013625458252307"><ele>810.0</ele><time>2026-03-22T08:28:11.271Z</time></trkpt><trkpt lat="43.42834738034576" lon="12.01382388859761"><ele>813.0</ele><time>2026-03-22T08:28:13.273Z</time></trkpt><trkpt lat="43.42833959214456" lon="12.013926839979954"><ele>816.0</ele><time>2026-03-22T08:28:14.271Z</time></trkpt><trkpt lat="43.42831094731617" lon="12.014008814300075"><ele>816.0</ele><time>2026-03-22T08:28:15.264Z</time></trkpt><trkpt lat="43.42820818574007" lon="12.014084889248933"><ele>816.0</ele><time>2026-03-22T08:28:17.271Z</time></trkpt><trkpt lat="43.428142046747425" lon="12.014099715994858"><ele>816.0</ele><time>2026-03-22T08:28:18.27Z</time></trkpt><trkpt lat="43.42802127479974" lon="12.014108483128982"><ele>816.0</ele><time>2026-03-22T08:28:20.266Z</time></trkpt><trkpt lat="43.42795581861272" lon="12.014086041103598"><ele>816.0</ele><time>2026-03-22T08:28:21.27Z</time></trkpt><trkpt lat="43.427873664237374" lon="12.014052516983947"><ele>816.1666666666666</ele><time>2026-03-22T08:28:22.271Z</time></trkpt><trkpt lat="43.4277871096679" lon="12.014006822173975"><ele>816.3333333333333</ele><time>2026-03-22T08:28:23.271Z</time></trkpt><trkpt lat="43.42772380675758" lon="12.013977781836608"><ele>816.5</ele><time>2026-03-22T08:28:24.263Z</time></trkpt><trkpt lat="43.42766099142857" lon="12.013986923865424"><ele>816.6666666666666</ele><time>2026-03-22T08:28:25.27Z</time></trkpt><trkpt lat="43.42759239676317" lon="12.014025083068638"><ele>816.8333333333333</ele><time>2026-03-22T08:28:26.27Z</time></trkpt><trkpt lat="43.42751304710514" lon="12.014087098627709"><ele>817.0</ele><time>2026-03-22T08:28:27.271Z</time></trkpt><trkpt lat="43.427421481017404" lon="12.014146080655866"><ele>818.8333333333333</ele><time>2026-03-22T08:28:28.27Z</time></trkpt><trkpt lat="43.42733075353276" lon="12.014193286515123"><ele>820.6666666666666</ele><time>2026-03-22T08:28:29.271Z</time></trkpt><trkpt lat="43.4272420107333" lon="12.014217627513204"><ele>822.5</ele><time>2026-03-22T08:28:30.271Z</time></trkpt><trkpt lat="43.427171758738545" lon="12.014251534478344"><ele>824.3333333333333</ele><time>2026-03-22T08:28:31.27Z</time></trkpt><trkpt lat="43.42710715712624" lon="12.014261239877865"><ele>826.1666666666666</ele><time>2026-03-22T08:28:32.271Z</time></trkpt><trkpt lat="43.42702731806479" lon="12.014282644244634"><ele>828.0</ele><time>2026-03-22T08:28:33.27Z</time></trkpt><trkpt lat="43.42695346348426" lon="12.014287053017"><ele>829.5</ele><time>2026-03-22T08:28:34.27Z</time></trkpt><trkpt lat="43.426878608113675" lon="12.014307409928623"><ele>831.0</ele><time>2026-03-22T08:28:35.27Z</time></trkpt><trkpt lat="43.42681051455834" lon="12.014355624761373"><ele>832.5</ele><time>2026-03-22T08:28:36.269Z</time></trkpt><trkpt lat="43.42674555632565" lon="12.014409996712487"><ele>834.0</ele><time>2026-03-22T08:28:37.27Z</time></trkpt><trkpt lat="43.42668313616867" lon="12.014438319023142"><ele>835.5</ele><time>2026-03-22T08:28:38.27Z</time></trkpt><trkpt lat="43.42656831163881" lon="12.01439363921138"><ele>837.0</ele><time>2026-03-22T08:28:41.27Z</time></trkpt><trkpt lat="43.42649618207733" lon="12.014377655870616"><ele>837.0</ele><time>2026-03-22T08:28:42.264Z</time></trkpt><trkpt lat="43.42642916334738" lon="12.014383499878553"><ele>837.0</ele><time>2026-03-22T08:28:43.269Z</time></trkpt><trkpt lat="43.42631038895303" lon="12.014437390055459"><ele>837.0</ele><time>2026-03-22T08:28:45.27Z</time></trkpt><trkpt lat="43.42620966512473" lon="12.014519157077048"><ele>837.0</ele><time>2026-03-22T08:28:47.269Z</time></trkpt><trkpt lat="43.42614404518943" lon="12.014562010675442"><ele>837.0</ele><time>2026-03-22T08:28:48.27Z</time></trkpt><trkpt lat="43.42605748466304" lon="12.014533809014676"><ele>839.8</ele><time>2026-03-22T08:28:50.27Z</time></trkpt><trkpt lat="43.42597108261033" lon="12.014415727699776"><ele>842.6</ele><time>2026-03-22T08:28:52.269Z</time></trkpt><trkpt lat="43.425897890509496" lon="12.014373284659696"><ele>845.4</ele><time>2026-03-22T08:28:53.271Z</time></trkpt><trkpt lat="43.425816369909874" lon="12.014367864731929"><ele>848.1999999999999</ele><time>2026-03-22T08:28:54.27Z</time></trkpt><trkpt lat="43.42573191824274" lon="12.01432969090907"><ele>851.0</ele><time>2026-03-22T08:28:55.268Z</time></trkpt><trkpt lat="43.42560809918246" lon="12.01428131301271"><ele>851.0</ele><time>2026-03-22T08:28:57.269Z</time></trkpt><trkpt lat="43.42549789559949" lon="12.01433313188597"><ele>851.0</ele><time>2026-03-22T08:28:59.27Z</time></trkpt><trkpt lat="43.42544170983399" lon="12.014427029912595"><ele>851.0</ele><time>2026-03-22T08:29:01.27Z</time></trkpt><trkpt lat="43.42530253259512" lon="12.014386172029763"><ele>851.0</ele><time>2026-03-22T08:29:09.27Z</time></trkpt><trkpt lat="43.42520221702408" lon="12.014391731100396"><ele>851.0</ele><time>2026-03-22T08:29:10.269Z</time></trkpt><trkpt lat="43.42512227286066" lon="12.014414299812222"><ele>852.0000000000001</ele><time>2026-03-22T08:29:11.268Z</time></trkpt><trkpt lat="43.42504519426589" lon="12.014473406429051"><ele>853.0</ele><time>2026-03-22T08:29:12.269Z</time></trkpt><trkpt lat="43.42495696298252" lon="12.014520537601964"><ele>854.0</ele><time>2026-03-22T08:29:13.277Z</time></trkpt><trkpt lat="43.42486194219872" lon="12.014558977392038"><ele>855.0</ele><time>2026-03-22T08:29:14.269Z</time></trkpt><trkpt lat="43.42477652569646" lon="12.014601418616609"><ele>856.0000000000001</ele><time>2026-03-22T08:29:15.27Z</time></trkpt><trkpt lat="43.424713423972676" lon="12.014584165103859"><ele>857.0</ele><time>2026-03-22T08:29:17.27Z</time></trkpt><trkpt lat="43.42465184109681" lon="12.014645918705456"><ele>857.6666666666667</ele><time>2026-03-22T08:29:33.27Z</time></trkpt><trkpt lat="43.42459026846801" lon="12.01474239538102"><ele>858.3333333333334</ele><time>2026-03-22T08:29:35.269Z</time></trkpt><trkpt lat="43.424524217166606" lon="12.014846000838281"><ele>859.0</ele><time>2026-03-22T08:29:37.27Z</time></trkpt><trkpt lat="43.42443062142354" lon="12.01487948561216"><ele>859.6666666666667</ele><time>2026-03-22T08:29:41.261Z</time></trkpt><trkpt lat="43.424378780064984" lon="12.01493176175644"><ele>860.3333333333334</ele><time>2026-03-22T08:29:42.27Z</time></trkpt><trkpt lat="43.42431993622459" lon="12.014973659481088"><ele>861.0</ele><time>2026-03-22T08:29:43.269Z</time></trkpt><trkpt lat="43.42425692122958" lon="12.015002620065896"><ele>862.5</ele><time>2026-03-22T08:29:44.269Z</time></trkpt><trkpt lat="43.42420044859299" lon="12.015052616965498"><ele>864.0</ele><time>2026-03-22T08:29:45.269Z</time></trkpt><trkpt lat="43.424132169480714" lon="12.015176673999521"><ele>865.5</ele><time>2026-03-22T08:29:47.27Z</time></trkpt><trkpt lat="43.42409845111623" lon="12.015252246058722"><ele>867.0</ele><time>2026-03-22T08:29:48.269Z</time></trkpt><trkpt lat="43.42405594739229" lon="12.0153319855769"><ele>868.5</ele><time>2026-03-22T08:29:49.271Z</time></trkpt><trkpt lat="43.42395930853005" lon="12.015434472619225"><ele>870.0</ele><time>2026-03-22T08:29:51.27Z</time></trkpt><trkpt lat="43.42389521623552" lon="12.015452394146577"><ele>873.6</ele><time>2026-03-22T08:29:52.27Z</time></trkpt><trkpt lat="43.42378374065253" lon="12.01543542886602"><ele>877.2</ele><time>2026-03-22T08:29:54.273Z</time></trkpt><trkpt lat="43.42370402676566" lon="12.015529876950117"><ele>880.8</ele><time>2026-03-22T08:29:56.271Z</time></trkpt><trkpt lat="43.423629262242144" lon="12.015665137504172"><ele>884.4</ele><time>2026-03-22T08:29:58.27Z</time></trkpt><trkpt lat="43.423563039261815" lon="12.01569558460571"><ele>888.0</ele><time>2026-03-22T08:29:59.27Z</time></trkpt><trkpt lat="43.42350311658979" lon="12.015744489673459"><ele>888.0</ele><time>2026-03-22T08:30:00.265Z</time></trkpt><trkpt lat="43.423433861003815" lon="12.015795893756994"><ele>888.0</ele><time>2026-03-22T08:30:01.27Z</time></trkpt><trkpt lat="43.42336629415711" lon="12.015841215284597"><ele>888.0</ele><time>2026-03-22T08:30:02.271Z</time></trkpt><trkpt lat="43.42329778360504" lon="12.015850748121819"><ele>888.0</ele><time>2026-03-22T08:30:03.271Z</time></trkpt><trkpt lat="43.42321527341476" lon="12.015846065502192"><ele>888.0</ele><time>2026-03-22T08:30:04.271Z</time></trkpt><trkpt lat="43.4231181581306" lon="12.01576398252683"><ele>888.0</ele><time>2026-03-22T08:30:06.27Z</time></trkpt><trkpt lat="43.42298896681473" lon="12.015792325988164"><ele>891.8333333333334</ele><time>2026-03-22T08:30:08.27Z</time></trkpt><trkpt lat="43.422921010693" lon="12.015846544514023"><ele>895.6666666666667</ele><time>2026-03-22T08:30:09.27Z</time></trkpt><trkpt lat="43.4228599826789" lon="12.015903117399908"><ele>899.5</ele><time>2026-03-22T08:30:10.27Z</time></trkpt><trkpt lat="43.42278066719529" lon="12.015929867812847"><ele>903.3333333333334</ele><time>2026-03-22T08:30:11.27Z</time></trkpt><trkpt lat="43.42270245260295" lon="12.015928614959853"><ele>907.1666666666667</ele><time>2026-03-22T08:30:12.27Z</time></trkpt><trkpt lat="43.42261929422357" lon="12.015908169920719"><ele>911.0</ele><time>2026-03-22T08:30:13.27Z</time></trkpt><trkpt lat="43.422462291426804" lon="12.015895242935715"><ele>911.0</ele><time>2026-03-22T08:30:15.271Z</time></trkpt><trkpt lat="43.42235771204506" lon="12.015899155862654"><ele>910.9999999999999</ele><time>2026-03-22T08:30:16.27Z</time></trkpt><trkpt lat="43.42227174666853" lon="12.015953018759586"><ele>910.9999999999999</ele><time>2026-03-22T08:30:17.271Z</time></trkpt><trkpt lat="43.422180888518206" lon="12.0160306011693"><ele>911.0</ele><time>2026-03-22T08:30:18.271Z</time></trkpt><trkpt lat="43.42209543968126" lon="12.01610389570447"><ele>911.0</ele><time>2026-03-22T08:30:19.27Z</time></trkpt><trkpt lat="43.42200954398614" lon="12.016167665662744"><ele>910.6666666666667</ele><time>2026-03-22T08:30:20.27Z</time></trkpt><trkpt lat="43.42192968536754" lon="12.016227086950106"><ele>910.3333333333334</ele><time>2026-03-22T08:30:21.268Z</time></trkpt><trkpt lat="43.421886991828856" lon="12.016317031911914"><ele>910.0</ele><time>2026-03-22T08:30:22.269Z</time></trkpt><trkpt lat="43.42187022989287" lon="12.016409170780497"><ele>909.6666666666667</ele><time>2026-03-22T08:30:23.27Z</time></trkpt><trkpt lat="43.42188514022419" lon="12.0165011736585"><ele>909.3333333333334</ele><time>2026-03-22T08:30:24.269Z</time></trkpt><trkpt lat="43.42188010068589" lon="12.016619713878775"><ele>909.0</ele><time>2026-03-22T08:30:26.269Z</time></trkpt><trkpt lat="43.421811248612784" lon="12.016668840435981"><ele>908.2</ele><time>2026-03-22T08:30:28.27Z</time></trkpt><trkpt lat="43.42171523882095" lon="12.016747870123803"><ele>907.4000000000001</ele><time>2026-03-22T08:30:30.27Z</time></trkpt><trkpt lat="43.421646097374094" lon="12.016847910880935"><ele>906.6</ele><time>2026-03-22T08:30:32.27Z</time></trkpt><trkpt lat="43.4215603217145" lon="12.016859088064011"><ele>905.8</ele><time>2026-03-22T08:30:34.268Z</time></trkpt><trkpt lat="43.42150531873338" lon="12.016905210234587"><ele>905.0</ele><time>2026-03-22T08:31:23.269Z</time></trkpt><trkpt lat="43.42141793371616" lon="12.016960775797363"><ele>905.0000000000001</ele><time>2026-03-22T08:31:25.27Z</time></trkpt><trkpt lat="43.42137303649197" lon="12.017038610706015"><ele>905.0</ele><time>2026-03-22T08:31:28.269Z</time></trkpt><trkpt lat="43.42129812067005" lon="12.017067627488522"><ele>905.0</ele><time>2026-03-22T08:31:30.27Z</time></trkpt><trkpt lat="43.42126406781573" lon="12.017171733264789"><ele>905.0</ele><time>2026-03-22T08:31:33.27Z</time></trkpt><trkpt lat="43.42119256421646" lon="12.017243593043185"><ele>905.0000000000001</ele><time>2026-03-22T08:31:36.269Z</time></trkpt><trkpt lat="43.421140460566605" lon="12.017302471216784"><ele>905.0</ele><time>2026-03-22T08:31:38.271Z</time></trkpt><trkpt lat="43.421081282763375" lon="12.01737341772996"><ele>906.0000000000001</ele><time>2026-03-22T08:31:41.271Z</time></trkpt><trkpt lat="43.42103493996806" lon="12.017449043673434"><ele>907.0</ele><time>2026-03-22T08:31:43.271Z</time></trkpt><trkpt lat="43.42098525871314" lon="12.017550175522333"><ele>908.0</ele><time>2026-03-22T08:31:46.27Z</time></trkpt><trkpt lat="43.42095096931165" lon="12.017633134857324"><ele>909.0</ele><time>2026-03-22T08:31:48.272Z</time></trkpt><trkpt lat="43.42091805324701" lon="12.017738482284011"><ele>910.0000000000001</ele><time>2026-03-22T08:31:50.272Z</time></trkpt><trkpt lat="43.42084159854881" lon="12.017876875317297"><ele>911.0</ele><time>2026-03-22T08:31:52.271Z</time></trkpt><trkpt lat="43.420785283508806" lon="12.017932549024588"><ele>913.1999999999999</ele><time>2026-03-22T08:31:53.27Z</time></trkpt><trkpt lat="43.42070689617708" lon="12.01797031514576"><ele>915.3999999999999</ele><time>2026-03-22T08:31:54.272Z</time></trkpt><trkpt lat="43.42061362684564" lon="12.018005861046426"><ele>917.6</ele><time>2026-03-22T08:31:55.265Z</time></trkpt><trkpt lat="43.420524367740036" lon="12.01803268418908"><ele>919.8</ele><time>2026-03-22T08:31:56.271Z</time></trkpt><trkpt lat="43.4204267029619" lon="12.018090796302753"><ele>922.0</ele><time>2026-03-22T08:31:58.272Z</time></trkpt><trkpt lat="43.420345839149974" lon="12.018125210874171"><ele>923.0</ele><time>2026-03-22T08:32:01.272Z</time></trkpt><trkpt lat="43.42027291822819" lon="12.018111277448508"><ele>924.0</ele><time>2026-03-22T08:32:03.272Z</time></trkpt><trkpt lat="43.420139660367894" lon="12.018015737549106"><ele>925.0</ele><time>2026-03-22T08:32:05.272Z</time></trkpt><trkpt lat="43.42007472790134" lon="12.017959043174802"><ele>926.0</ele><time>2026-03-22T08:32:06.273Z</time></trkpt><trkpt lat="43.4200799550689" lon="12.01783113671887"><ele>927.0</ele><time>2026-03-22T08:32:08.281Z</time></trkpt><trkpt lat="43.42016793006913" lon="12.017738790986801"><ele>927.0</ele><time>2026-03-22T08:32:10.272Z</time></trkpt><trkpt lat="43.42026699082623" lon="12.01779248832879"><ele>927.0</ele><time>2026-03-22T08:32:12.272Z</time></trkpt><trkpt lat="43.42029230898556" lon="12.017925590793622"><ele>927.0</ele><time>2026-03-22T08:32:14.271Z</time></trkpt><trkpt lat="43.42028564552627" lon="12.01803147365312"><ele>927.0</ele><time>2026-03-22T08:32:15.271Z</time></trkpt><trkpt lat="43.4202595261824" lon="12.018125373206699"><ele>927.0</ele><time>2026-03-22T08:32:16.272Z</time></trkpt><trkpt lat="43.420322214631874" lon="12.018169166067445"><ele>927.0</ele><time>2026-03-22T08:32:26.273Z</time></trkpt><trkpt lat="43.42042954915432" lon="12.018128051684702"><ele>926.0</ele><time>2026-03-22T08:32:28.272Z</time></trkpt><trkpt lat="43.42050235646965" lon="12.018081289878863"><ele>925.0</ele><time>2026-03-22T08:32:29.272Z</time></trkpt><trkpt lat="43.420572402925195" lon="12.01803410464915"><ele>924.0</ele><time>2026-03-22T08:32:30.271Z</time></trkpt><trkpt lat="43.42069018358145" lon="12.017984509919275"><ele>923.0</ele><time>2026-03-22T08:32:32.272Z</time></trkpt><trkpt lat="43.42079386415934" lon="12.0179409350597"><ele>922.0</ele><time>2026-03-22T08:32:34.272Z</time></trkpt><trkpt lat="43.420874577124366" lon="12.017862114072395"><ele>921.9999999999999</ele><time>2026-03-22T08:32:36.273Z</time></trkpt><trkpt lat="43.42092378253595" lon="12.01775223908853"><ele>922.0</ele><time>2026-03-22T08:32:38.271Z</time></trkpt><trkpt lat="43.420975031325504" lon="12.017679340563019"><ele>922.0</ele><time>2026-03-22T08:32:40.271Z</time></trkpt><trkpt lat="43.42106121719461" lon="12.017622792313354"><ele>922.0</ele><time>2026-03-22T08:32:42.272Z</time></trkpt><trkpt lat="43.42112382547175" lon="12.017605032617173"><ele>921.9999999999999</ele><time>2026-03-22T08:32:44.271Z</time></trkpt><trkpt lat="43.42121226562287" lon="12.017542212196854"><ele>922.0</ele><time>2026-03-22T08:32:46.271Z</time></trkpt><trkpt lat="43.42129061721234" lon="12.01741602857602"><ele>919.1666666666666</ele><time>2026-03-22T08:32:48.271Z</time></trkpt><trkpt lat="43.42133500657865" lon="12.017347328754187"><ele>916.3333333333333</ele><time>2026-03-22T08:32:49.271Z</time></trkpt><trkpt lat="43.42141070641704" lon="12.017261439097714"><ele>913.5</ele><time>2026-03-22T08:32:51.27Z</time></trkpt><trkpt lat="43.42147225356569" lon="12.017175815879465"><ele>910.6666666666667</ele><time>2026-03-22T08:32:53.27Z</time></trkpt><trkpt lat="43.42149357003456" lon="12.017051738083111"><ele>907.8333333333334</ele><time>2026-03-22T08:32:55.27Z</time></trkpt><trkpt lat="43.421535727250564" lon="12.016929989267279"><ele>905.0</ele><time>2026-03-22T08:32:57.27Z</time></trkpt><trkpt lat="43.42146336210512" lon="12.016938398774478"><ele>905.0000000000001</ele><time>2026-03-22T08:33:20.264Z</time></trkpt><trkpt lat="43.42139139935134" lon="12.017015444231346"><ele>905.0</ele><time>2026-03-22T08:33:22.269Z</time></trkpt><trkpt lat="43.42128766692004" lon="12.01707011741117"><ele>905.0</ele><time>2026-03-22T08:33:24.27Z</time></trkpt><trkpt lat="43.42123065220481" lon="12.01714804389187"><ele>905.0</ele><time>2026-03-22T08:33:26.27Z</time></trkpt><trkpt lat="43.4212118202431" lon="12.017248716536134"><ele>905.0000000000001</ele><time>2026-03-22T08:33:28.271Z</time></trkpt><trkpt lat="43.42113460821063" lon="12.017308555681844"><ele>905.0</ele><time>2026-03-22T08:33:31.271Z</time></trkpt><trkpt lat="43.421069873983136" lon="12.017387868299016"><ele>908.4</ele><time>2026-03-22T08:33:33.271Z</time></trkpt><trkpt lat="43.42101412262827" lon="12.017495678443815"><ele>911.8</ele><time>2026-03-22T08:33:35.271Z</time></trkpt><trkpt lat="43.42096974215906" lon="12.01759815406841"><ele>915.2</ele><time>2026-03-22T08:33:38.273Z</time></trkpt><trkpt lat="43.420929795499774" lon="12.017710470023319"><ele>918.6</ele><time>2026-03-22T08:33:40.271Z</time></trkpt><trkpt lat="43.42086349962522" lon="12.017848559424754"><ele>922.0</ele><time>2026-03-22T08:33:42.272Z</time></trkpt><trkpt lat="43.42080635138998" lon="12.017903685937247"><ele>922.0</ele><time>2026-03-22T08:33:43.271Z</time></trkpt><trkpt lat="43.420531250635" lon="12.01806261467482"><ele>922.0</ele><time>2026-03-22T08:33:45.272Z</time></trkpt><trkpt lat="43.42042121148312" lon="12.018098314392565"><ele>922.0</ele><time>2026-03-22T08:33:46.272Z</time></trkpt><trkpt lat="43.420347786129696" lon="12.018150597323675"><ele>922.8333333333333</ele><time>2026-03-22T08:33:47.271Z</time></trkpt><trkpt lat="43.420290374893874" lon="12.018186749543807"><ele>923.6666666666666</ele><time>2026-03-22T08:33:50.272Z</time></trkpt><trkpt lat="43.42021617736202" lon="12.018189516340241"><ele>924.5</ele><time>2026-03-22T08:33:53.271Z</time></trkpt><trkpt lat="43.42017213208006" lon="12.01826851729767"><ele>925.3333333333333</ele><time>2026-03-22T08:46:49.272Z</time></trkpt><trkpt lat="43.42008519695625" lon="12.01832965701376"><ele>926.1666666666666</ele><time>2026-03-22T08:46:52.271Z</time></trkpt><trkpt lat="43.42001459129114" lon="12.0183548489802"><ele>927.0</ele><time>2026-03-22T08:46:54.27Z</time></trkpt><trkpt lat="43.419944281025174" lon="12.018424160496435"><ele>927.4000000000001</ele><time>2026-03-22T08:46:56.271Z</time></trkpt><trkpt lat="43.419869420154484" lon="12.018544118632516"><ele>927.8000000000001</ele><time>2026-03-22T08:46:58.27Z</time></trkpt><trkpt lat="43.41980444533319" lon="12.018613913994685"><ele>928.2</ele><time>2026-03-22T08:47:00.27Z</time></trkpt><trkpt lat="43.41974745363908" lon="12.018670225526076"><ele>928.6</ele><time>2026-03-22T08:47:02.269Z</time></trkpt><trkpt lat="43.419657134406286" lon="12.018769047885527"><ele>929.0</ele><time>2026-03-22T08:47:03.269Z</time></trkpt><trkpt lat="43.41956057217898" lon="12.018856591865346"><ele>926.2</ele><time>2026-03-22T08:47:05.27Z</time></trkpt><trkpt lat="43.419504945947665" lon="12.018905998359408"><ele>923.4000000000001</ele><time>2026-03-22T08:47:06.259Z</time></trkpt><trkpt lat="43.41941440324407" lon="12.019015988696129"><ele>920.6</ele><time>2026-03-22T08:47:08.27Z</time></trkpt><trkpt lat="43.419342606819896" lon="12.019150322518676"><ele>917.8</ele><time>2026-03-22T08:47:10.269Z</time></trkpt><trkpt lat="43.4193455312297" lon="12.01923938561448"><ele>915.0</ele><time>2026-03-22T08:47:11.27Z</time></trkpt><trkpt lat="43.41925779238976" lon="12.019271983266869"><ele>915.0</ele><time>2026-03-22T08:47:13.27Z</time></trkpt><trkpt lat="43.41912503334032" lon="12.019204172123525"><ele>915.0</ele><time>2026-03-22T08:47:15.27Z</time></trkpt><trkpt lat="43.41906461180218" lon="12.019179730750741"><ele>915.0</ele><time>2026-03-22T08:47:16.27Z</time></trkpt><trkpt lat="43.41895273054485" lon="12.019135023502544"><ele>915.0</ele><time>2026-03-22T08:47:18.265Z</time></trkpt><trkpt lat="43.418866369227764" lon="12.019100907138755"><ele>915.0</ele><time>2026-03-22T08:47:19.271Z</time></trkpt><trkpt lat="43.41873889900571" lon="12.019087989672755"><ele>913.6</ele><time>2026-03-22T08:47:20.269Z</time></trkpt><trkpt lat="43.41865074762772" lon="12.019097330272244"><ele>912.2</ele><time>2026-03-22T08:47:21.269Z</time></trkpt><trkpt lat="43.418581603463664" lon="12.019102220765015"><ele>910.8</ele><time>2026-03-22T08:47:22.27Z</time></trkpt><trkpt lat="43.41844728241644" lon="12.01905317884264"><ele>909.4</ele><time>2026-03-22T08:47:24.272Z</time></trkpt><trkpt lat="43.41839001418139" lon="12.0189777904809"><ele>908.0</ele><time>2026-03-22T08:47:25.27Z</time></trkpt><trkpt lat="43.41833143485624" lon="12.018882873942564"><ele>908.0</ele><time>2026-03-22T08:47:26.27Z</time></trkpt><trkpt lat="43.41827656414137" lon="12.018829382340016"><ele>908.0000000000001</ele><time>2026-03-22T08:47:27.27Z</time></trkpt><trkpt lat="43.41822109185758" lon="12.018782919420127"><ele>908.0</ele><time>2026-03-22T08:47:28.269Z</time></trkpt><trkpt lat="43.41815366936185" lon="12.01875589689829"><ele>908.0</ele><time>2026-03-22T08:47:29.271Z</time></trkpt><trkpt lat="43.41808612333466" lon="12.01872718630862"><ele>908.0000000000001</ele><time>2026-03-22T08:47:30.27Z</time></trkpt><trkpt lat="43.418009767130734" lon="12.0186838187605"><ele>908.0</ele><time>2026-03-22T08:47:31.269Z</time></trkpt><trkpt lat="43.417937206482584" lon="12.018618980232063"><ele>908.0</ele><time>2026-03-22T08:47:32.27Z</time></trkpt><trkpt lat="43.417871137585195" lon="12.018549929754816"><ele>906.5999999999999</ele><time>2026-03-22T08:47:33.27Z</time></trkpt><trkpt lat="43.417769041895745" lon="12.018523357539975"><ele>905.1999999999999</ele><time>2026-03-22T08:47:35.27Z</time></trkpt><trkpt lat="43.4176661695833" lon="12.018498181421633"><ele>903.8</ele><time>2026-03-22T08:47:37.27Z</time></trkpt><trkpt lat="43.4175608175191" lon="12.018430807965945"><ele>902.4</ele><time>2026-03-22T08:47:39.27Z</time></trkpt><trkpt lat="43.41749275644344" lon="12.01839560865592"><ele>901.0</ele><time>2026-03-22T08:47:40.27Z</time></trkpt><trkpt lat="43.41737748068136" lon="12.01831512875196"><ele>899.5999999999999</ele><time>2026-03-22T08:47:42.272Z</time></trkpt><trkpt lat="43.41729051564357" lon="12.018241339413853"><ele>898.1999999999999</ele><time>2026-03-22T08:47:44.27Z</time></trkpt><trkpt lat="43.41719484531324" lon="12.018273184572708"><ele>896.8000000000001</ele><time>2026-03-22T08:47:46.269Z</time></trkpt><trkpt lat="43.41713176415235" lon="12.018306702801508"><ele>895.4000000000001</ele><time>2026-03-22T08:47:47.269Z</time></trkpt><trkpt lat="43.417042771339254" lon="12.018370866242403"><ele>894.0</ele><time>2026-03-22T08:47:49.268Z</time></trkpt><trkpt lat="43.41695169647832" lon="12.018419606191896"><ele>893.5</ele><time>2026-03-22T08:47:51.269Z</time></trkpt><trkpt lat="43.416879246587094" lon="12.0184729687779"><ele>893.0</ele><time>2026-03-22T08:47:53.268Z</time></trkpt><trkpt lat="43.416867921039746" lon="12.018630332549801"><ele>892.5</ele><time>2026-03-22T08:47:55.271Z</time></trkpt><trkpt lat="43.416858446097926" lon="12.018728675347871"><ele>892.0</ele><time>2026-03-22T08:47:56.268Z</time></trkpt><trkpt lat="43.41682359162748" lon="12.018851031439313"><ele>891.5</ele><time>2026-03-22T08:47:57.268Z</time></trkpt><trkpt lat="43.41681367548532" lon="12.01894864102809"><ele>891.0</ele><time>2026-03-22T08:47:58.269Z</time></trkpt><trkpt lat="43.416773664193954" lon="12.01901757149969"><ele>891.0</ele><time>2026-03-22T08:47:59.269Z</time></trkpt><trkpt lat="43.416661169891825" lon="12.019073263265197"><ele>890.9999999999999</ele><time>2026-03-22T08:48:01.265Z</time></trkpt><trkpt lat="43.416592126118964" lon="12.019099442679646"><ele>890.9999999999999</ele><time>2026-03-22T08:48:02.27Z</time></trkpt><trkpt lat="43.41651502906956" lon="12.019121803413586"><ele>891.0</ele><time>2026-03-22T08:48:03.27Z</time></trkpt><trkpt lat="43.416420775551224" lon="12.019134472003575"><ele>891.0</ele><time>2026-03-22T08:48:04.27Z</time></trkpt><trkpt lat="43.416331966431095" lon="12.019141457203407"><ele>890.8333333333334</ele><time>2026-03-22T08:48:05.27Z</time></trkpt><trkpt lat="43.41623875007886" lon="12.01914436862376"><ele>890.6666666666667</ele><time>2026-03-22T08:48:06.27Z</time></trkpt><trkpt lat="43.416152819058084" lon="12.019132005198873"><ele>890.5</ele><time>2026-03-22T08:48:07.269Z</time></trkpt><trkpt lat="43.416074140549355" lon="12.019120592703857"><ele>890.3333333333334</ele><time>2026-03-22T08:48:08.269Z</time></trkpt><trkpt lat="43.41599299125956" lon="12.01910672734991"><ele>890.1666666666667</ele><time>2026-03-22T08:48:09.269Z</time></trkpt><trkpt lat="43.41591516970559" lon="12.01908280215355"><ele>890.0</ele><time>2026-03-22T08:48:10.267Z</time></trkpt><trkpt lat="43.415829704018996" lon="12.019037542049361"><ele>890.0000000000001</ele><time>2026-03-22T08:48:11.267Z</time></trkpt><trkpt lat="43.415766006612" lon="12.019009923561851"><ele>890.0</ele><time>2026-03-22T08:48:12.268Z</time></trkpt><trkpt lat="43.41570663059373" lon="12.018947380809147"><ele>890.0</ele><time>2026-03-22T08:48:13.269Z</time></trkpt><trkpt lat="43.415625325297015" lon="12.018869163023888"><ele>890.0</ele><time>2026-03-22T08:48:14.267Z</time></trkpt><trkpt lat="43.415561430891536" lon="12.01878953199342"><ele>890.0000000000001</ele><time>2026-03-22T08:48:15.26Z</time></trkpt><trkpt lat="43.41548301399141" lon="12.018721117748202"><ele>890.0</ele><time>2026-03-22T08:48:16.266Z</time></trkpt><trkpt lat="43.41537673901097" lon="12.018696744400664"><ele>890.0</ele><time>2026-03-22T08:48:17.266Z</time></trkpt><trkpt lat="43.41526905036356" lon="12.018706349584525"><ele>890.0</ele><time>2026-03-22T08:48:18.265Z</time></trkpt><trkpt lat="43.41515819767057" lon="12.018738530539887"><ele>890.0</ele><time>2026-03-22T08:48:19.267Z</time></trkpt><trkpt lat="43.41502341396086" lon="12.018772875132518"><ele>890.0</ele><time>2026-03-22T08:48:20.262Z</time></trkpt><trkpt lat="43.41491265987566" lon="12.018809543818117"><ele>890.0</ele><time>2026-03-22T08:48:21.266Z</time></trkpt><trkpt lat="43.41476373331742" lon="12.018822651127888"><ele>890.0</ele><time>2026-03-22T08:48:22.267Z</time></trkpt><trkpt lat="43.41462839998064" lon="12.018787350288951"><ele>890.0</ele><time>2026-03-22T08:48:23.267Z</time></trkpt><trkpt lat="43.41449812552059" lon="12.018711611948557"><ele>890.0</ele><time>2026-03-22T08:48:24.267Z</time></trkpt><trkpt lat="43.4144020436037" lon="12.018716678858377"><ele>890.8333333333334</ele><time>2026-03-22T08:48:25.266Z</time></trkpt><trkpt lat="43.414332938517255" lon="12.018774515309023"><ele>891.6666666666667</ele><time>2026-03-22T08:48:26.268Z</time></trkpt><trkpt lat="43.41426373829147" lon="12.018823585423057"><ele>892.5</ele><time>2026-03-22T08:48:27.268Z</time></trkpt><trkpt lat="43.41420214690271" lon="12.018895957396385"><ele>893.3333333333333</ele><time>2026-03-22T08:48:28.267Z</time></trkpt><trkpt lat="43.414166542482995" lon="12.018973000561937"><ele>894.1666666666666</ele><time>2026-03-22T08:48:29.268Z</time></trkpt><trkpt lat="43.41411946932078" lon="12.019053004597735"><ele>895.0</ele><time>2026-03-22T08:48:32.27Z</time></trkpt><trkpt lat="43.414061894358255" lon="12.019198079131103"><ele>898.2</ele><time>2026-03-22T08:48:34.268Z</time></trkpt><trkpt lat="43.41401141612571" lon="12.019273134651158"><ele>901.4</ele><time>2026-03-22T08:48:35.266Z</time></trkpt><trkpt lat="43.41395442370077" lon="12.019410897461814"><ele>904.5999999999999</ele><time>2026-03-22T08:48:36.266Z</time></trkpt><trkpt lat="43.41388549096571" lon="12.01954464246896"><ele>907.8</ele><time>2026-03-22T08:48:37.268Z</time></trkpt><trkpt lat="43.41381056925173" lon="12.019657890408176"><ele>911.0</ele><time>2026-03-22T08:48:38.265Z</time></trkpt><trkpt lat="43.413738186297074" lon="12.019781400766977"><ele>911.1999999999999</ele><time>2026-03-22T08:48:39.268Z</time></trkpt><trkpt lat="43.4136887103718" lon="12.019892517206916"><ele>911.3999999999999</ele><time>2026-03-22T08:48:40.267Z</time></trkpt><trkpt lat="43.41364430612987" lon="12.020007333565236"><ele>911.6</ele><time>2026-03-22T08:48:41.266Z</time></trkpt><trkpt lat="43.413596822625806" lon="12.020106258709802"><ele>911.8</ele><time>2026-03-22T08:48:42.268Z</time></trkpt><trkpt lat="43.413585412734726" lon="12.020270502140168"><ele>912.0</ele><time>2026-03-22T08:48:44.268Z</time></trkpt><trkpt lat="43.41357024658428" lon="12.020385308667578"><ele>911.6666666666666</ele><time>2026-03-22T08:48:45.268Z</time></trkpt><trkpt lat="43.413536973754766" lon="12.020459249656783"><ele>911.3333333333333</ele><time>2026-03-22T08:48:46.269Z</time></trkpt><trkpt lat="43.413428228895754" lon="12.0204444262273"><ele>911.0</ele><time>2026-03-22T08:48:48.269Z</time></trkpt><trkpt lat="43.413373261687106" lon="12.020368843217364"><ele>910.6666666666666</ele><time>2026-03-22T08:48:49.271Z</time></trkpt><trkpt lat="43.41332466761965" lon="12.020286965600178"><ele>910.3333333333333</ele><time>2026-03-22T08:48:50.268Z</time></trkpt><trkpt lat="43.41325023864979" lon="12.020185836388665"><ele>910.0</ele><time>2026-03-22T08:48:51.27Z</time></trkpt><trkpt lat="43.41318482214618" lon="12.020150838974047"><ele>909.9999999999999</ele><time>2026-03-22T08:48:52.268Z</time></trkpt><trkpt lat="43.413125374847056" lon="12.020066320642353"><ele>910.0</ele><time>2026-03-22T08:48:53.269Z</time></trkpt><trkpt lat="43.41307188502368" lon="12.019982944417135"><ele>910.0</ele><time>2026-03-22T08:48:54.269Z</time></trkpt><trkpt lat="43.41301923247653" lon="12.019906484444904"><ele>910.0</ele><time>2026-03-22T08:48:55.268Z</time></trkpt><trkpt lat="43.412982612828095" lon="12.019816620814787"><ele>909.9999999999999</ele><time>2026-03-22T08:48:57.269Z</time></trkpt><trkpt lat="43.41290157263259" lon="12.01979543702109"><ele>910.0</ele><time>2026-03-22T08:51:47.27Z</time></trkpt><trkpt lat="43.412794760437045" lon="12.01974381771457"><ele>910.5714285714286</ele><time>2026-03-22T08:51:49.27Z</time></trkpt><trkpt lat="43.412733708022124" lon="12.01971000768422"><ele>911.1428571428571</ele><time>2026-03-22T08:51:50.269Z</time></trkpt><trkpt lat="43.41266539447994" lon="12.019662957741158"><ele>911.7142857142858</ele><time>2026-03-22T08:51:51.27Z</time></trkpt><trkpt lat="43.41259990658633" lon="12.019598243256963"><ele>912.2857142857143</ele><time>2026-03-22T08:51:52.269Z</time></trkpt><trkpt lat="43.41255736651433" lon="12.019533868733673"><ele>912.8571428571429</ele><time>2026-03-22T08:51:53.27Z</time></trkpt><trkpt lat="43.41250890121878" lon="12.019470511592518"><ele>913.4285714285716</ele><time>2026-03-22T08:51:56.27Z</time></trkpt><trkpt lat="43.41243411379219" lon="12.01948122545293"><ele>914.0000000000001</ele><time>2026-03-22T08:51:58.27Z</time></trkpt><trkpt lat="43.412332960758825" lon="12.019505275687617"><ele>914.0000000000001</ele><time>2026-03-22T08:52:00.27Z</time></trkpt><trkpt lat="43.412257510599105" lon="12.019491118939484"><ele>914.0</ele><time>2026-03-22T08:52:01.272Z</time></trkpt><trkpt lat="43.41218727015793" lon="12.019491752410792"><ele>914.0000000000001</ele><time>2026-03-22T08:52:02.266Z</time></trkpt><trkpt lat="43.41211263994705" lon="12.0195135489587"><ele>914.0000000000001</ele><time>2026-03-22T08:52:03.268Z</time></trkpt><trkpt lat="43.41204676128717" lon="12.019520430172907"><ele>914.0</ele><time>2026-03-22T08:52:04.269Z</time></trkpt><trkpt lat="43.41199743213074" lon="12.01957998235364"><ele>914.0000000000001</ele><time>2026-03-22T08:52:05.269Z</time></trkpt><trkpt lat="43.41195846968204" lon="12.01965722256343"><ele>914.0000000000001</ele><time>2026-03-22T08:52:06.27Z</time></trkpt><trkpt lat="43.411947414438416" lon="12.019756506082908"><ele>915.0000000000001</ele><time>2026-03-22T08:52:07.271Z</time></trkpt><trkpt lat="43.41195776162005" lon="12.019877562353187"><ele>916.0</ele><time>2026-03-22T08:52:08.269Z</time></trkpt><trkpt lat="43.41198554220064" lon="12.01996793021055"><ele>917.0</ele><time>2026-03-22T08:52:09.269Z</time></trkpt><trkpt lat="43.41202697078857" lon="12.020101241657889"><ele>918.0</ele><time>2026-03-22T08:52:11.269Z</time></trkpt><trkpt lat="43.412046634364366" lon="12.020225134586665"><ele>919.0000000000001</ele><time>2026-03-22T08:52:12.269Z</time></trkpt><trkpt lat="43.41205873409789" lon="12.020314444723452"><ele>920.0</ele><time>2026-03-22T08:52:13.27Z</time></trkpt><trkpt lat="43.41207527986589" lon="12.02041265229994"><ele>920.0000000000001</ele><time>2026-03-22T08:52:14.269Z</time></trkpt><trkpt lat="43.41207838469348" lon="12.020519681431093"><ele>920.0</ele><time>2026-03-22T08:52:15.269Z</time></trkpt><trkpt lat="43.41208818134602" lon="12.02064186289144"><ele>920.0</ele><time>2026-03-22T08:52:16.269Z</time></trkpt><trkpt lat="43.41209632031938" lon="12.020757964011347"><ele>920.0</ele><time>2026-03-22T08:52:17.269Z</time></trkpt><trkpt lat="43.4120939681608" lon="12.02086917112974"><ele>920.0000000000001</ele><time>2026-03-22T08:52:18.265Z</time></trkpt><trkpt lat="43.41206388509685" lon="12.020993391834986"><ele>920.0</ele><time>2026-03-22T08:52:19.269Z</time></trkpt><trkpt lat="43.41201598149327" lon="12.021125599730023"><ele>921.8333333333334</ele><time>2026-03-22T08:52:20.266Z</time></trkpt><trkpt lat="43.411968450721474" lon="12.021262936809098"><ele>923.6666666666667</ele><time>2026-03-22T08:52:21.27Z</time></trkpt><trkpt lat="43.41191775050476" lon="12.021387895717101"><ele>925.5</ele><time>2026-03-22T08:52:22.271Z</time></trkpt><trkpt lat="43.41187870995271" lon="12.021480488179888"><ele>927.3333333333333</ele><time>2026-03-22T08:52:23.27Z</time></trkpt><trkpt lat="43.41181339434526" lon="12.021543102853498"><ele>929.1666666666666</ele><time>2026-03-22T08:52:24.27Z</time></trkpt><trkpt lat="43.41174019715052" lon="12.02157523772759"><ele>931.0</ele><time>2026-03-22T08:52:25.269Z</time></trkpt><trkpt lat="43.41164643883404" lon="12.021565718381968"><ele>931.0</ele><time>2026-03-22T08:52:26.27Z</time></trkpt><trkpt lat="43.411537403702134" lon="12.021582491220236"><ele>930.9999999999999</ele><time>2026-03-22T08:52:27.27Z</time></trkpt><trkpt lat="43.41142860328784" lon="12.02162671585717"><ele>930.9999999999999</ele><time>2026-03-22T08:52:28.269Z</time></trkpt><trkpt lat="43.41133147755917" lon="12.021665731162992"><ele>931.0</ele><time>2026-03-22T08:52:29.269Z</time></trkpt><trkpt lat="43.41124465858268" lon="12.021719702836199"><ele>931.0</ele><time>2026-03-22T08:52:30.27Z</time></trkpt><trkpt lat="43.41117128066122" lon="12.02179159619991"><ele>930.1666666666666</ele><time>2026-03-22T08:52:31.27Z</time></trkpt><trkpt lat="43.411086719908184" lon="12.021848401991527"><ele>929.3333333333333</ele><time>2026-03-22T08:52:32.269Z</time></trkpt><trkpt lat="43.41099032299308" lon="12.021876563920522"><ele>928.5</ele><time>2026-03-22T08:52:33.27Z</time></trkpt><trkpt lat="43.41091522727453" lon="12.021876518249398"><ele>927.6666666666667</ele><time>2026-03-22T08:52:34.269Z</time></trkpt><trkpt lat="43.410836063522886" lon="12.021904320968906"><ele>926.8333333333334</ele><time>2026-03-22T08:52:35.269Z</time></trkpt><trkpt lat="43.41075796502501" lon="12.021964450260544"><ele>926.0</ele><time>2026-03-22T08:52:36.269Z</time></trkpt><trkpt lat="43.41067912627673" lon="12.022029209833248"><ele>926.0</ele><time>2026-03-22T08:52:37.27Z</time></trkpt><trkpt lat="43.410595326198006" lon="12.02205797053441"><ele>925.9999999999999</ele><time>2026-03-22T08:52:38.263Z</time></trkpt><trkpt lat="43.41050686424845" lon="12.022011244657842"><ele>925.9999999999999</ele><time>2026-03-22T08:52:39.27Z</time></trkpt><trkpt lat="43.410423256074054" lon="12.021968037298542"><ele>926.0</ele><time>2026-03-22T08:52:40.269Z</time></trkpt><trkpt lat="43.41031648078469" lon="12.021947186252513"><ele>926.0</ele><time>2026-03-22T08:52:41.262Z</time></trkpt><trkpt lat="43.41020424298371" lon="12.021951246928808"><ele>925.0</ele><time>2026-03-22T08:52:42.269Z</time></trkpt><trkpt lat="43.41008845402435" lon="12.021951966870239"><ele>924.0</ele><time>2026-03-22T08:52:43.268Z</time></trkpt><trkpt lat="43.40997369029268" lon="12.021947322752627"><ele>923.0</ele><time>2026-03-22T08:52:44.27Z</time></trkpt><trkpt lat="43.40985626977203" lon="12.021930178392045"><ele>922.0</ele><time>2026-03-22T08:52:45.27Z</time></trkpt><trkpt lat="43.409750894536764" lon="12.021917164488723"><ele>923.0</ele><time>2026-03-22T08:52:46.27Z</time></trkpt><trkpt lat="43.40964660244397" lon="12.021893978841236"><ele>924.0</ele><time>2026-03-22T08:52:47.269Z</time></trkpt><trkpt lat="43.40956126432672" lon="12.021869530282844"><ele>925.0</ele><time>2026-03-22T08:52:48.269Z</time></trkpt><trkpt lat="43.409483748979355" lon="12.02187248283798"><ele>926.0</ele><time>2026-03-22T08:52:49.27Z</time></trkpt><trkpt lat="43.40939239481678" lon="12.021947978511957"><ele>927.0</ele><time>2026-03-22T08:52:51.268Z</time></trkpt><trkpt lat="43.40935173380371" lon="12.02209622572397"><ele>927.0</ele><time>2026-03-22T08:52:53.271Z</time></trkpt><trkpt lat="43.40932785828091" lon="12.022193702733174"><ele>927.0</ele><time>2026-03-22T08:52:54.271Z</time></trkpt><trkpt lat="43.409238419527284" lon="12.022329719117407"><ele>927.0</ele><time>2026-03-22T08:52:56.264Z</time></trkpt><trkpt lat="43.409184716444244" lon="12.022428870882024"><ele>927.0</ele><time>2026-03-22T08:52:58.27Z</time></trkpt><trkpt lat="43.409104086141014" lon="12.022543251982748"><ele>927.0</ele><time>2026-03-22T08:53:00.269Z</time></trkpt><trkpt lat="43.409035704996754" lon="12.022633516285792"><ele>928.6</ele><time>2026-03-22T08:53:01.264Z</time></trkpt><trkpt lat="43.40898515255019" lon="12.022713540693458"><ele>930.2</ele><time>2026-03-22T08:53:02.27Z</time></trkpt><trkpt lat="43.40891236145115" lon="12.022795901599316"><ele>931.8</ele><time>2026-03-22T08:53:03.27Z</time></trkpt><trkpt lat="43.408830927633815" lon="12.022856954966477"><ele>933.4</ele><time>2026-03-22T08:53:04.271Z</time></trkpt><trkpt lat="43.40875730982398" lon="12.022909315572758"><ele>935.0</ele><time>2026-03-22T08:53:05.27Z</time></trkpt><trkpt lat="43.4086567348187" lon="12.022948287423409"><ele>935.0</ele><time>2026-03-22T08:53:07.27Z</time></trkpt><trkpt lat="43.40854520561518" lon="12.022982815005097"><ele>935.0</ele><time>2026-03-22T08:53:09.272Z</time></trkpt><trkpt lat="43.40847341503663" lon="12.02304745901939"><ele>935.0</ele><time>2026-03-22T08:53:10.27Z</time></trkpt><trkpt lat="43.40838242401176" lon="12.023103761143599"><ele>935.0</ele><time>2026-03-22T08:53:11.27Z</time></trkpt><trkpt lat="43.40827877116027" lon="12.023144131433671"><ele>935.0</ele><time>2026-03-22T08:53:12.269Z</time></trkpt><trkpt lat="43.40817783221048" lon="12.02318131242469"><ele>935.0</ele><time>2026-03-22T08:53:13.27Z</time></trkpt><trkpt lat="43.40804971079331" lon="12.023238151221182"><ele>935.0</ele><time>2026-03-22T08:53:14.271Z</time></trkpt><trkpt lat="43.4079636429433" lon="12.023286186585251"><ele>935.0</ele><time>2026-03-22T08:53:15.265Z</time></trkpt><trkpt lat="43.40786752205726" lon="12.023330976712359"><ele>935.0</ele><time>2026-03-22T08:53:16.27Z</time></trkpt><trkpt lat="43.407773646391284" lon="12.02337700241591"><ele>935.0</ele><time>2026-03-22T08:53:17.27Z</time></trkpt><trkpt lat="43.40768593641412" lon="12.023421733365142"><ele>936.0</ele><time>2026-03-22T08:53:18.27Z</time></trkpt><trkpt lat="43.4075840501593" lon="12.023464959277762"><ele>937.0</ele><time>2026-03-22T08:53:19.27Z</time></trkpt><trkpt lat="43.40748685439739" lon="12.023496541610672"><ele>938.0</ele><time>2026-03-22T08:53:20.264Z</time></trkpt><trkpt lat="43.407396572746364" lon="12.023531896540858"><ele>939.0</ele><time>2026-03-22T08:53:21.27Z</time></trkpt><trkpt lat="43.407288853375576" lon="12.023560254308984"><ele>940.0</ele><time>2026-03-22T08:53:22.27Z</time></trkpt><trkpt lat="43.40718891909319" lon="12.023579012534155"><ele>939.0</ele><time>2026-03-22T08:53:23.27Z</time></trkpt><trkpt lat="43.40709774975674" lon="12.023588183925881"><ele>938.0</ele><time>2026-03-22T08:53:24.269Z</time></trkpt><trkpt lat="43.40701034413066" lon="12.023600671624315"><ele>937.0</ele><time>2026-03-22T08:53:25.27Z</time></trkpt><trkpt lat="43.4069194997043" lon="12.023618164348308"><ele>936.0</ele><time>2026-03-22T08:53:26.27Z</time></trkpt><trkpt lat="43.406828079825566" lon="12.023654488918146"><ele>935.0</ele><time>2026-03-22T08:53:27.271Z</time></trkpt><trkpt lat="43.40674260387098" lon="12.023715496175763"><ele>935.0</ele><time>2026-03-22T08:53:28.27Z</time></trkpt><trkpt lat="43.40666136886186" lon="12.023779000828316"><ele>935.0</ele><time>2026-03-22T08:53:29.27Z</time></trkpt><trkpt lat="43.40658350946571" lon="12.023850060191894"><ele>935.0</ele><time>2026-03-22T08:53:30.269Z</time></trkpt><trkpt lat="43.406487605198365" lon="12.02392804275287"><ele>935.0</ele><time>2026-03-22T08:53:31.27Z</time></trkpt><trkpt lat="43.40640171858421" lon="12.024013450972209"><ele>935.0</ele><time>2026-03-22T08:53:32.271Z</time></trkpt><trkpt lat="43.406333010518075" lon="12.024085063876804"><ele>936.0</ele><time>2026-03-22T08:53:33.269Z</time></trkpt><trkpt lat="43.406264815528615" lon="12.0241630185282"><ele>937.0</ele><time>2026-03-22T08:53:34.27Z</time></trkpt><trkpt lat="43.40618174879404" lon="12.02422095012551"><ele>938.0</ele><time>2026-03-22T08:53:35.269Z</time></trkpt><trkpt lat="43.40608711042185" lon="12.024280149679226"><ele>939.0</ele><time>2026-03-22T08:53:36.27Z</time></trkpt><trkpt lat="43.405987886281196" lon="12.024319239868305"><ele>940.0</ele><time>2026-03-22T08:53:37.27Z</time></trkpt><trkpt lat="43.405884873326265" lon="12.024370184206234"><ele>940.0</ele><time>2026-03-22T08:53:38.269Z</time></trkpt><trkpt lat="43.40578252786532" lon="12.024420437642993"><ele>940.0</ele><time>2026-03-22T08:53:39.27Z</time></trkpt><trkpt lat="43.40567496733076" lon="12.024466013072281"><ele>940.0</ele><time>2026-03-22T08:53:40.269Z</time></trkpt><trkpt lat="43.40556279272324" lon="12.024518564341495"><ele>940.0</ele><time>2026-03-22T08:53:41.27Z</time></trkpt><trkpt lat="43.40545865043615" lon="12.024558029272292"><ele>940.0</ele><time>2026-03-22T08:53:42.267Z</time></trkpt><trkpt lat="43.40534681187512" lon="12.024599774139839"><ele>940.6</ele><time>2026-03-22T08:53:43.268Z</time></trkpt><trkpt lat="43.40524866234921" lon="12.024637904493908"><ele>941.2</ele><time>2026-03-22T08:53:44.267Z</time></trkpt><trkpt lat="43.40519455599343" lon="12.02471438822415"><ele>941.8</ele><time>2026-03-22T08:53:45.268Z</time></trkpt><trkpt lat="43.40521664885049" lon="12.024917368579342"><ele>942.4</ele><time>2026-03-22T08:53:47.269Z</time></trkpt><trkpt lat="43.40526159761911" lon="12.025041267508442"><ele>943.0</ele><time>2026-03-22T08:53:48.268Z</time></trkpt><trkpt lat="43.40530243603305" lon="12.025236154298696"><ele>943.0</ele><time>2026-03-22T08:53:50.267Z</time></trkpt><trkpt lat="43.4053085219519" lon="12.025375895150832"><ele>943.0</ele><time>2026-03-22T08:53:51.267Z</time></trkpt><trkpt lat="43.40537196578461" lon="12.025592730466027"><ele>943.0</ele><time>2026-03-22T08:53:52.269Z</time></trkpt><trkpt lat="43.4053390709953" lon="12.025686956621195"><ele>943.0</ele><time>2026-03-22T08:53:56.27Z</time></trkpt><trkpt lat="43.40535794104985" lon="12.025782657685387"><ele>943.0</ele><time>2026-03-22T08:54:36.266Z</time></trkpt><trkpt lat="43.40543282017241" lon="12.025874413518954"><ele>942.0</ele><time>2026-03-22T08:54:38.269Z</time></trkpt><trkpt lat="43.40548852819996" lon="12.025919789725396"><ele>941.0</ele><time>2026-03-22T08:54:39.27Z</time></trkpt><trkpt lat="43.4055542271448" lon="12.0260759674295"><ele>940.0</ele><time>2026-03-22T08:54:41.263Z</time></trkpt><trkpt lat="43.405606841992835" lon="12.02616325569574"><ele>939.0</ele><time>2026-03-22T08:54:42.269Z</time></trkpt><trkpt lat="43.40566716774773" lon="12.02629889877163"><ele>938.0</ele><time>2026-03-22T08:54:43.269Z</time></trkpt><trkpt lat="43.405725456151785" lon="12.02642921553909"><ele>938.0</ele><time>2026-03-22T08:54:44.269Z</time></trkpt><trkpt lat="43.405785843615334" lon="12.026562079085535"><ele>938.0</ele><time>2026-03-22T08:54:45.269Z</time></trkpt><trkpt lat="43.40584348388206" lon="12.026724054682843"><ele>938.0</ele><time>2026-03-22T08:54:46.269Z</time></trkpt><trkpt lat="43.405861001864025" lon="12.026853274136405"><ele>938.0</ele><time>2026-03-22T08:54:47.269Z</time></trkpt><trkpt lat="43.40589209224716" lon="12.026961418806646"><ele>938.0</ele><time>2026-03-22T08:54:48.269Z</time></trkpt><trkpt lat="43.40591444532561" lon="12.027049887221022"><ele>938.1666666666667</ele><time>2026-03-22T08:54:49.269Z</time></trkpt><trkpt lat="43.405940735561074" lon="12.027146348084516"><ele>938.3333333333334</ele><time>2026-03-22T08:54:50.269Z</time></trkpt><trkpt lat="43.40596252965786" lon="12.027265687061632"><ele>938.5</ele><time>2026-03-22T08:54:51.269Z</time></trkpt><trkpt lat="43.40595879517712" lon="12.027376101406555"><ele>938.6666666666667</ele><time>2026-03-22T08:54:52.269Z</time></trkpt><trkpt lat="43.40593686779222" lon="12.02748599309375"><ele>938.8333333333334</ele><time>2026-03-22T08:54:53.269Z</time></trkpt><trkpt lat="43.40589811660217" lon="12.027570142146368"><ele>939.0</ele><time>2026-03-22T08:54:54.268Z</time></trkpt><trkpt lat="43.405814411933136" lon="12.027651889130624"><ele>939.0</ele><time>2026-03-22T08:54:55.261Z</time></trkpt><trkpt lat="43.40573289055697" lon="12.027752734304787"><ele>939.0000000000001</ele><time>2026-03-22T08:54:56.266Z</time></trkpt><trkpt lat="43.405672259667845" lon="12.027881457801438"><ele>939.0000000000001</ele><time>2026-03-22T08:54:57.26Z</time></trkpt><trkpt lat="43.40562324276081" lon="12.028030561382556"><ele>939.0</ele><time>2026-03-22T08:54:58.268Z</time></trkpt><trkpt lat="43.40558092317365" lon="12.028163715090324"><ele>939.0</ele><time>2026-03-22T08:54:59.265Z</time></trkpt><trkpt lat="43.40556201220508" lon="12.028286848270852"><ele>939.8333333333334</ele><time>2026-03-22T08:55:00.261Z</time></trkpt><trkpt lat="43.40555600065714" lon="12.02837570095839"><ele>940.6666666666667</ele><time>2026-03-22T08:55:01.268Z</time></trkpt><trkpt lat="43.40557229433695" lon="12.028478496860183"><ele>941.5</ele><time>2026-03-22T08:55:02.266Z</time></trkpt><trkpt lat="43.405597624549884" lon="12.028574002308858"><ele>942.3333333333334</ele><time>2026-03-22T08:55:03.267Z</time></trkpt><trkpt lat="43.40562324069303" lon="12.028690946405563"><ele>943.1666666666667</ele><time>2026-03-22T08:55:04.268Z</time></trkpt><trkpt lat="43.405550178317085" lon="12.028836819157005"><ele>944.0</ele><time>2026-03-22T08:55:06.266Z</time></trkpt><trkpt lat="43.405439792495336" lon="12.028988582108576"><ele>944.0000000000001</ele><time>2026-03-22T08:55:08.267Z</time></trkpt><trkpt lat="43.40540193989271" lon="12.029109598920842"><ele>944.0</ele><time>2026-03-22T08:55:09.265Z</time></trkpt><trkpt lat="43.405380651999614" lon="12.029207208189732"><ele>944.0</ele><time>2026-03-22T08:55:10.267Z</time></trkpt><trkpt lat="43.40533365021975" lon="12.029311544694176"><ele>944.0</ele><time>2026-03-22T08:55:11.266Z</time></trkpt><trkpt lat="43.4052517012627" lon="12.029395786399819"><ele>944.0000000000001</ele><time>2026-03-22T08:55:12.265Z</time></trkpt><trkpt lat="43.40518556651735" lon="12.02945321385325"><ele>944.0</ele><time>2026-03-22T08:55:13.267Z</time></trkpt><trkpt lat="43.40513079768023" lon="12.029527536591107"><ele>941.1666666666667</ele><time>2026-03-22T08:55:14.267Z</time></trkpt><trkpt lat="43.40507224156475" lon="12.029591682847148"><ele>938.3333333333334</ele><time>2026-03-22T08:55:15.26Z</time></trkpt><trkpt lat="43.40500344991554" lon="12.02963628614274"><ele>935.5</ele><time>2026-03-22T08:55:16.267Z</time></trkpt><trkpt lat="43.40492006647866" lon="12.029681199450131"><ele>932.6666666666667</ele><time>2026-03-22T08:55:18.266Z</time></trkpt><trkpt lat="43.40484965299566" lon="12.029748007162896"><ele>929.8333333333334</ele><time>2026-03-22T08:55:20.266Z</time></trkpt><trkpt lat="43.404847714736675" lon="12.029866252600721"><ele>927.0</ele><time>2026-03-22T08:55:22.265Z</time></trkpt><trkpt lat="43.404892523555105" lon="12.02994327245044"><ele>927.0</ele><time>2026-03-22T08:55:23.267Z</time></trkpt><trkpt lat="43.405008521534405" lon="12.030024045553484"><ele>927.0</ele><time>2026-03-22T08:55:25.266Z</time></trkpt><trkpt lat="43.405075641575095" lon="12.030027418343368"><ele>927.0</ele><time>2026-03-22T08:55:26.267Z</time></trkpt><trkpt lat="43.40515463775548" lon="12.030026395192879"><ele>927.0</ele><time>2026-03-22T08:55:27.265Z</time></trkpt><trkpt lat="43.40527423585081" lon="12.029976682027806"><ele>927.0</ele><time>2026-03-22T08:55:28.267Z</time></trkpt><trkpt lat="43.40535783783473" lon="12.029921335190032"><ele>925.0</ele><time>2026-03-22T08:55:29.266Z</time></trkpt><trkpt lat="43.405447598755" lon="12.029983137311415"><ele>923.0</ele><time>2026-03-22T08:55:31.267Z</time></trkpt><trkpt lat="43.40558608890078" lon="12.03005255482368"><ele>921.0</ele><time>2026-03-22T08:55:33.26Z</time></trkpt><trkpt lat="43.405640646448866" lon="12.030121144119915"><ele>919.0</ele><time>2026-03-22T08:55:34.268Z</time></trkpt><trkpt lat="43.40570570893126" lon="12.030130229080886"><ele>917.0</ele><time>2026-03-22T08:55:35.268Z</time></trkpt><trkpt lat="43.40578832449165" lon="12.030133917615382"><ele>916.0</ele><time>2026-03-22T08:55:37.267Z</time></trkpt><trkpt lat="43.405897122498196" lon="12.030098871875934"><ele>915.0</ele><time>2026-03-22T08:55:39.266Z</time></trkpt><trkpt lat="43.40600947814307" lon="12.030019980753979"><ele>914.0</ele><time>2026-03-22T08:55:41.268Z</time></trkpt><trkpt lat="43.40605927403197" lon="12.029961099648101"><ele>913.0</ele><time>2026-03-22T08:55:42.268Z</time></trkpt><trkpt lat="43.40612894989267" lon="12.02992060594159"><ele>912.0</ele><time>2026-03-22T08:55:43.269Z</time></trkpt><trkpt lat="43.40620913413628" lon="12.029919992305507"><ele>911.0</ele><time>2026-03-22T08:55:44.268Z</time></trkpt><trkpt lat="43.406272573048795" lon="12.029887832699691"><ele>910.0</ele><time>2026-03-22T08:55:45.268Z</time></trkpt><trkpt lat="43.40638211973462" lon="12.029828309598209"><ele>909.0</ele><time>2026-03-22T08:55:47.27Z</time></trkpt><trkpt lat="43.406486751077466" lon="12.029798773773502"><ele>908.0</ele><time>2026-03-22T08:55:49.268Z</time></trkpt><trkpt lat="43.406621729536454" lon="12.029877302879337"><ele>907.0</ele><time>2026-03-22T08:55:51.259Z</time></trkpt><trkpt lat="43.406701785725446" lon="12.029888317517848"><ele>906.6</ele><time>2026-03-22T08:55:52.27Z</time></trkpt><trkpt lat="43.40678873784799" lon="12.029895783465662"><ele>906.2</ele><time>2026-03-22T08:55:53.269Z</time></trkpt><trkpt lat="43.406873604942795" lon="12.029896494563603"><ele>905.8</ele><time>2026-03-22T08:55:54.268Z</time></trkpt><trkpt lat="43.40700036878661" lon="12.02993600025403"><ele>905.4</ele><time>2026-03-22T08:55:56.269Z</time></trkpt><trkpt lat="43.40709952049468" lon="12.029925140849604"><ele>905.0</ele><time>2026-03-22T08:55:58.271Z</time></trkpt><trkpt lat="43.407165385216494" lon="12.029881242512003"><ele>905.0000000000001</ele><time>2026-03-22T08:55:59.269Z</time></trkpt><trkpt lat="43.407200757918744" lon="12.029800958315725"><ele>905.0</ele><time>2026-03-22T08:56:00.269Z</time></trkpt><trkpt lat="43.407239733211206" lon="12.029693672824008"><ele>905.0</ele><time>2026-03-22T08:56:01.262Z</time></trkpt><trkpt lat="43.407267158135475" lon="12.029573341396414"><ele>905.0</ele><time>2026-03-22T08:56:02.27Z</time></trkpt><trkpt lat="43.40726817793009" lon="12.029482670979458"><ele>905.0000000000001</ele><time>2026-03-22T08:56:03.27Z</time></trkpt><trkpt lat="43.407289114791276" lon="12.029393973806217"><ele>905.0</ele><time>2026-03-22T08:56:04.272Z</time></trkpt><trkpt lat="43.4073297011643" lon="12.029305790162317"><ele>905.0</ele><time>2026-03-22T08:56:05.271Z</time></trkpt><trkpt lat="43.40738292613015" lon="12.029247335177855"><ele>904.9999999999999</ele><time>2026-03-22T08:56:06.27Z</time></trkpt><trkpt lat="43.407454075180496" lon="12.02921296212694"><ele>905.0</ele><time>2026-03-22T08:56:07.269Z</time></trkpt><trkpt lat="43.40751166031961" lon="12.029177115486144"><ele>905.0</ele><time>2026-03-22T08:56:08.269Z</time></trkpt><trkpt lat="43.40758587540572" lon="12.029169770496111"><ele>904.9999999999999</ele><time>2026-03-22T08:56:09.271Z</time></trkpt><trkpt lat="43.40765856524565" lon="12.02917608822523"><ele>905.0</ele><time>2026-03-22T08:56:10.269Z</time></trkpt><trkpt lat="43.40773387779679" lon="12.02920243478177"><ele>905.0</ele><time>2026-03-22T08:56:11.27Z</time></trkpt><trkpt lat="43.407800165017406" lon="12.029246008005906"><ele>905.0000000000001</ele><time>2026-03-22T08:56:12.27Z</time></trkpt><trkpt lat="43.40786264367828" lon="12.029308354811858"><ele>905.0</ele><time>2026-03-22T08:56:13.269Z</time></trkpt><trkpt lat="43.407920955504636" lon="12.029371292271449"><ele>905.0</ele><time>2026-03-22T08:56:14.269Z</time></trkpt><trkpt lat="43.407986953801824" lon="12.029432044626786"><ele>905.0</ele><time>2026-03-22T08:56:15.27Z</time></trkpt><trkpt lat="43.408053680166816" lon="12.029568863192159"><ele>905.0000000000001</ele><time>2026-03-22T08:56:17.27Z</time></trkpt><trkpt lat="43.40806635543989" lon="12.029664820371725"><ele>905.0</ele><time>2026-03-22T08:56:18.269Z</time></trkpt><trkpt lat="43.408071441403976" lon="12.029764632334098"><ele>904.4285714285713</ele><time>2026-03-22T08:56:19.269Z</time></trkpt><trkpt lat="43.40808140802922" lon="12.029869128709148"><ele>903.8571428571428</ele><time>2026-03-22T08:56:20.268Z</time></trkpt><trkpt lat="43.408113486160765" lon="12.029953378928507"><ele>903.2857142857142</ele><time>2026-03-22T08:56:21.262Z</time></trkpt><trkpt lat="43.40815095680507" lon="12.030033222915334"><ele>902.7142857142858</ele><time>2026-03-22T08:56:22.269Z</time></trkpt><trkpt lat="43.408198009051006" lon="12.030108411853753"><ele>902.1428571428572</ele><time>2026-03-22T08:56:23.269Z</time></trkpt><trkpt lat="43.40825487492249" lon="12.0301629368937"><ele>901.5714285714287</ele><time>2026-03-22T08:56:24.269Z</time></trkpt><trkpt lat="43.40830671096406" lon="12.030215701160522"><ele>901.0</ele><time>2026-03-22T08:56:25.268Z</time></trkpt><trkpt lat="43.40836644707711" lon="12.030274343509372"><ele>902.6666666666666</ele><time>2026-03-22T08:56:26.268Z</time></trkpt><trkpt lat="43.408445637951985" lon="12.030332508538068"><ele>904.3333333333333</ele><time>2026-03-22T08:56:28.269Z</time></trkpt><trkpt lat="43.40850930376724" lon="12.030384028991236"><ele>906.0</ele><time>2026-03-22T08:56:31.269Z</time></trkpt><trkpt lat="43.40857707275193" lon="12.03040939766078"><ele>907.6666666666667</ele><time>2026-03-22T08:56:33.269Z</time></trkpt><trkpt lat="43.40869733362747" lon="12.030483370576134"><ele>909.3333333333334</ele><time>2026-03-22T08:56:35.264Z</time></trkpt><trkpt lat="43.40875710210473" lon="12.030542179045414"><ele>911.0</ele><time>2026-03-22T08:56:36.27Z</time></trkpt><trkpt lat="43.40882808160464" lon="12.030611586751776"><ele>911.0</ele><time>2026-03-22T08:56:37.269Z</time></trkpt><trkpt lat="43.40889803339639" lon="12.030682342574147"><ele>910.9999999999999</ele><time>2026-03-22T08:56:38.269Z</time></trkpt><trkpt lat="43.40896656354975" lon="12.030743471293277"><ele>910.9999999999999</ele><time>2026-03-22T08:56:39.268Z</time></trkpt><trkpt lat="43.40902651821935" lon="12.030792236357224"><ele>911.0</ele><time>2026-03-22T08:56:40.262Z</time></trkpt><trkpt lat="43.40914088519304" lon="12.030904815911933"><ele>911.0</ele><time>2026-03-22T08:56:42.266Z</time></trkpt><trkpt lat="43.40924718242869" lon="12.030905929287943"><ele>911.0</ele><time>2026-03-22T08:56:44.268Z</time></trkpt><trkpt lat="43.40929358247257" lon="12.030762695958982"><ele>911.0</ele><time>2026-03-22T08:56:46.267Z</time></trkpt><trkpt lat="43.40941045608692" lon="12.030599446185088"><ele>911.0</ele><time>2026-03-22T08:56:48.27Z</time></trkpt><trkpt lat="43.40953032434828" lon="12.030626956779024"><ele>911.0</ele><time>2026-03-22T08:56:50.27Z</time></trkpt><trkpt lat="43.40959124435732" lon="12.030651287484169"><ele>912.0</ele><time>2026-03-22T08:56:51.27Z</time></trkpt><trkpt lat="43.40968008731194" lon="12.030628736650007"><ele>912.9999999999999</ele><time>2026-03-22T08:56:53.267Z</time></trkpt><trkpt lat="43.40979800624687" lon="12.030604589769574"><ele>913.9999999999999</ele><time>2026-03-22T08:56:55.27Z</time></trkpt><trkpt lat="43.40986214248383" lon="12.03062252224358"><ele>915.0</ele><time>2026-03-22T08:56:56.269Z</time></trkpt><trkpt lat="43.41000478506719" lon="12.03061335289396"><ele>916.0</ele><time>2026-03-22T08:56:58.27Z</time></trkpt><trkpt lat="43.41011901302577" lon="12.030663352275164"><ele>915.9999999999999</ele><time>2026-03-22T08:57:00.269Z</time></trkpt><trkpt lat="43.410197165879374" lon="12.030720901122201"><ele>916.0</ele><time>2026-03-22T08:57:01.267Z</time></trkpt><trkpt lat="43.41024997153345" lon="12.030774485203313"><ele>916.0</ele><time>2026-03-22T08:57:02.268Z</time></trkpt><trkpt lat="43.410315882117445" lon="12.03083233897232"><ele>916.0</ele><time>2026-03-22T08:57:04.268Z</time></trkpt><trkpt lat="43.410374957089495" lon="12.030920158800122"><ele>915.9999999999999</ele><time>2026-03-22T08:57:05.268Z</time></trkpt><trkpt lat="43.410472669539814" lon="12.030987854704144"><ele>916.0</ele><time>2026-03-22T08:57:07.268Z</time></trkpt><trkpt lat="43.410546138033844" lon="12.031112556629118"><ele>918.8333333333333</ele><time>2026-03-22T08:57:09.269Z</time></trkpt><trkpt lat="43.410589251068586" lon="12.031188595823918"><ele>921.6666666666666</ele><time>2026-03-22T08:57:10.267Z</time></trkpt><trkpt lat="43.41067613041237" lon="12.031248902845778"><ele>924.5</ele><time>2026-03-22T08:57:12.269Z</time></trkpt><trkpt lat="43.4107523289579" lon="12.031324078881283"><ele>927.3333333333333</ele><time>2026-03-22T08:57:23.268Z</time></trkpt><trkpt lat="43.410805294953185" lon="12.031371881636062"><ele>930.1666666666666</ele><time>2026-03-22T08:57:25.267Z</time></trkpt><trkpt lat="43.410828547691864" lon="12.03145439646708"><ele>933.0</ele><time>2026-03-22T08:57:26.267Z</time></trkpt><trkpt lat="43.4108608484613" lon="12.031537252304076"><ele>938.0</ele><time>2026-03-22T08:57:27.268Z</time></trkpt><trkpt lat="43.41094715751524" lon="12.031661018808823"><ele>943.0</ele><time>2026-03-22T08:57:28.265Z</time></trkpt><trkpt lat="43.410979994783254" lon="12.03176160290154"><ele>948.0</ele><time>2026-03-22T08:57:29.268Z</time></trkpt><trkpt lat="43.41102446593346" lon="12.031864850628738"><ele>953.0</ele><time>2026-03-22T08:57:30.266Z</time></trkpt><trkpt lat="43.41109043447463" lon="12.031947909948263"><ele>958.0</ele><time>2026-03-22T08:57:31.266Z</time></trkpt><trkpt lat="43.41115603606559" lon="12.032028526146775"><ele>958.0</ele><time>2026-03-22T08:57:32.269Z</time></trkpt><trkpt lat="43.41121577712816" lon="12.032102668259267"><ele>958.0</ele><time>2026-03-22T08:57:33.268Z</time></trkpt><trkpt lat="43.4112547610287" lon="12.032180707389065"><ele>958.0</ele><time>2026-03-22T08:57:34.267Z</time></trkpt><trkpt lat="43.411310619205985" lon="12.032323706331452"><ele>958.0</ele><time>2026-03-22T08:57:35.266Z</time></trkpt><trkpt lat="43.41134581938409" lon="12.032412781996118"><ele>958.0</ele><time>2026-03-22T08:57:36.266Z</time></trkpt><trkpt lat="43.41142421640141" lon="12.032543249366514"><ele>959.4</ele><time>2026-03-22T08:57:38.269Z</time></trkpt><trkpt lat="43.4115205610415" lon="12.0326199080809"><ele>960.8</ele><time>2026-03-22T08:57:39.267Z</time></trkpt><trkpt lat="43.4115745501147" lon="12.032717357715581"><ele>962.2</ele><time>2026-03-22T08:57:40.267Z</time></trkpt><trkpt lat="43.411653834520756" lon="12.032833661802632"><ele>963.6</ele><time>2026-03-22T08:57:41.26Z</time></trkpt><trkpt lat="43.411721854020456" lon="12.032930989715615"><ele>965.0</ele><time>2026-03-22T08:57:42.268Z</time></trkpt><trkpt lat="43.41177401894416" lon="12.033016764824255"><ele>965.0</ele><time>2026-03-22T08:57:43.268Z</time></trkpt><trkpt lat="43.41182197853723" lon="12.03313824288146"><ele>965.0</ele><time>2026-03-22T08:57:44.267Z</time></trkpt><trkpt lat="43.41185117117002" lon="12.033264375566995"><ele>965.0</ele><time>2026-03-22T08:57:45.267Z</time></trkpt><trkpt lat="43.41188242010769" lon="12.033415722879322"><ele>965.0</ele><time>2026-03-22T08:57:46.267Z</time></trkpt><trkpt lat="43.41190782532509" lon="12.033543606339501"><ele>965.0</ele><time>2026-03-22T08:57:47.267Z</time></trkpt><trkpt lat="43.41188524999745" lon="12.033682904719711"><ele>967.8333333333334</ele><time>2026-03-22T08:57:48.266Z</time></trkpt><trkpt lat="43.41188882795404" lon="12.0337992403052"><ele>970.6666666666667</ele><time>2026-03-22T08:57:49.268Z</time></trkpt><trkpt lat="43.411875009834056" lon="12.033908154516128"><ele>973.5</ele><time>2026-03-22T08:57:50.268Z</time></trkpt><trkpt lat="43.411871592559706" lon="12.03401828797191"><ele>976.3333333333333</ele><time>2026-03-22T08:57:51.267Z</time></trkpt><trkpt lat="43.4118977888045" lon="12.034135134961971"><ele>979.1666666666666</ele><time>2026-03-22T08:57:52.261Z</time></trkpt><trkpt lat="43.4119183066202" lon="12.034229580869628"><ele>982.0</ele><time>2026-03-22T08:57:53.267Z</time></trkpt><trkpt lat="43.41186846404531" lon="12.034300806339203"><ele>982.3333333333333</ele><time>2026-03-22T08:57:55.269Z</time></trkpt><trkpt lat="43.411872514009474" lon="12.034410287074476"><ele>982.6666666666666</ele><time>2026-03-22T08:57:58.269Z</time></trkpt><trkpt lat="43.41182013401861" lon="12.034529370179886"><ele>983.0</ele><time>2026-03-22T08:58:00.269Z</time></trkpt><trkpt lat="43.41174969699532" lon="12.034555878600656"><ele>983.3333333333333</ele><time>2026-03-22T08:58:01.264Z</time></trkpt><trkpt lat="43.411670116552244" lon="12.034626454527"><ele>983.6666666666666</ele><time>2026-03-22T08:58:03.269Z</time></trkpt><trkpt lat="43.41157964131237" lon="12.034614196271852"><ele>984.0</ele><time>2026-03-22T08:58:05.269Z</time></trkpt><trkpt lat="43.41150593685195" lon="12.034579940442521"><ele>984.0</ele><time>2026-03-22T08:58:07.269Z</time></trkpt><trkpt lat="43.411397253799414" lon="12.03465533083073"><ele>984.0000000000001</ele><time>2026-03-22T08:58:09.268Z</time></trkpt><trkpt lat="43.41131396049594" lon="12.034743525812132"><ele>984.0000000000001</ele><time>2026-03-22T08:58:10.261Z</time></trkpt><trkpt lat="43.411271160310825" lon="12.034838774577725"><ele>984.0</ele><time>2026-03-22T08:58:11.267Z</time></trkpt><trkpt lat="43.411231871187695" lon="12.034927791111556"><ele>984.0</ele><time>2026-03-22T08:58:12.267Z</time></trkpt><trkpt lat="43.41118750711913" lon="12.035066768852186"><ele>984.6</ele><time>2026-03-22T08:58:13.268Z</time></trkpt><trkpt lat="43.4111743181558" lon="12.03519514252894"><ele>985.2</ele><time>2026-03-22T08:58:14.268Z</time></trkpt><trkpt lat="43.41117428234594" lon="12.035304439115594"><ele>985.8000000000001</ele><time>2026-03-22T08:58:15.262Z</time></trkpt><trkpt lat="43.41113037436264" lon="12.035429619861075"><ele>986.4000000000001</ele><time>2026-03-22T08:58:16.268Z</time></trkpt><trkpt lat="43.411094386549046" lon="12.035577420279647"><ele>987.0</ele><time>2026-03-22T08:58:17.266Z</time></trkpt><trkpt lat="43.41107151019249" lon="12.035732016330696"><ele>986.0</ele><time>2026-03-22T08:58:18.266Z</time></trkpt><trkpt lat="43.41104784228911" lon="12.035913544593651"><ele>985.0</ele><time>2026-03-22T08:58:19.265Z</time></trkpt><trkpt lat="43.411034972942254" lon="12.036029532841622"><ele>984.0</ele><time>2026-03-22T08:58:21.269Z</time></trkpt><trkpt lat="43.41100339071651" lon="12.036250333553483"><ele>983.0</ele><time>2026-03-22T08:58:23.267Z</time></trkpt><trkpt lat="43.41097383016044" lon="12.03637735997965"><ele>983.0</ele><time>2026-03-22T08:58:24.268Z</time></trkpt><trkpt lat="43.41097586193956" lon="12.036521718586934"><ele>983.0</ele><time>2026-03-22T08:58:25.269Z</time></trkpt><trkpt lat="43.41100168899287" lon="12.036644265180916"><ele>983.0</ele><time>2026-03-22T08:58:26.268Z</time></trkpt><trkpt lat="43.41101169235303" lon="12.03676040629116"><ele>983.0</ele><time>2026-03-22T08:58:27.269Z</time></trkpt><trkpt lat="43.410954641237645" lon="12.036914326386666"><ele>983.0</ele><time>2026-03-22T08:58:29.268Z</time></trkpt><trkpt lat="43.410949798964964" lon="12.037010406130323"><ele>981.0</ele><time>2026-03-22T08:58:30.269Z</time></trkpt><trkpt lat="43.410875497866634" lon="12.037161548501787"><ele>979.0</ele><time>2026-03-22T08:58:32.268Z</time></trkpt><trkpt lat="43.41075143751867" lon="12.037230120217796"><ele>977.0</ele><time>2026-03-22T08:58:34.268Z</time></trkpt><trkpt lat="43.410647928019245" lon="12.037224135914341"><ele>975.0</ele><time>2026-03-22T08:58:36.267Z</time></trkpt><trkpt lat="43.41057632316614" lon="12.037261286392592"><ele>973.0</ele><time>2026-03-22T08:58:38.269Z</time></trkpt><trkpt lat="43.41052747125505" lon="12.037357438355802"><ele>972.9999999999999</ele><time>2026-03-22T08:58:40.267Z</time></trkpt><trkpt lat="43.410518347256236" lon="12.037443631279261"><ele>973.0</ele><time>2026-03-22T08:58:41.268Z</time></trkpt><trkpt lat="43.41053134851832" lon="12.03760344138104"><ele>973.0</ele><time>2026-03-22T08:58:44.267Z</time></trkpt><trkpt lat="43.41057344164603" lon="12.037678930371989"><ele>973.0</ele><time>2026-03-22T08:58:46.259Z</time></trkpt><trkpt lat="43.41063513369086" lon="12.037760738696216"><ele>972.9999999999999</ele><time>2026-03-22T08:58:49.269Z</time></trkpt><trkpt lat="43.410655886625875" lon="12.037859037694735"><ele>973.0</ele><time>2026-03-22T08:58:51.268Z</time></trkpt><trkpt lat="43.41070747586446" lon="12.03797038626749"><ele>969.8333333333333</ele><time>2026-03-22T08:58:55.268Z</time></trkpt><trkpt lat="43.410752015221945" lon="12.038075179776376"><ele>966.6666666666666</ele><time>2026-03-22T08:58:58.269Z</time></trkpt><trkpt lat="43.41077188923926" lon="12.038191257046792"><ele>963.5</ele><time>2026-03-22T08:59:02.268Z</time></trkpt><trkpt lat="43.410819683960355" lon="12.03830523676009"><ele>960.3333333333333</ele><time>2026-03-22T08:59:04.27Z</time></trkpt><trkpt lat="43.41086591805507" lon="12.038396921344997"><ele>957.1666666666666</ele><time>2026-03-22T08:59:07.269Z</time></trkpt><trkpt lat="43.41091050152955" lon="12.03850202387904"><ele>954.0</ele><time>2026-03-22T08:59:09.268Z</time></trkpt><trkpt lat="43.41095733404544" lon="12.038615226485538"><ele>953.1666666666666</ele><time>2026-03-22T08:59:11.268Z</time></trkpt><trkpt lat="43.41102194550168" lon="12.03871139621824"><ele>952.3333333333333</ele><time>2026-03-22T08:59:14.268Z</time></trkpt><trkpt lat="43.41107831918079" lon="12.038763298341467"><ele>951.5</ele><time>2026-03-22T08:59:15.269Z</time></trkpt><trkpt lat="43.411137387341185" lon="12.038806364930418"><ele>950.6666666666666</ele><time>2026-03-22T08:59:16.267Z</time></trkpt><trkpt lat="43.411192526242836" lon="12.038856917547417"><ele>949.8333333333333</ele><time>2026-03-22T08:59:20.268Z</time></trkpt><trkpt lat="43.411304611924415" lon="12.038913727198704"><ele>949.0</ele><time>2026-03-22T08:59:26.268Z</time></trkpt><trkpt lat="43.411365969928646" lon="12.038935960939176"><ele>943.8000000000001</ele><time>2026-03-22T08:59:27.268Z</time></trkpt><trkpt lat="43.41145993857015" lon="12.038966836489816"><ele>938.6000000000001</ele><time>2026-03-22T08:59:28.268Z</time></trkpt><trkpt lat="43.4115445563465" lon="12.03898536863206"><ele>933.4</ele><time>2026-03-22T08:59:29.27Z</time></trkpt><trkpt lat="43.411616396875125" lon="12.039010474903728"><ele>928.2</ele><time>2026-03-22T08:59:30.268Z</time></trkpt><trkpt lat="43.41172921252012" lon="12.039060827552062"><ele>923.0</ele><time>2026-03-22T08:59:32.27Z</time></trkpt><trkpt lat="43.41180256832852" lon="12.039107759047948"><ele>923.0000000000001</ele><time>2026-03-22T08:59:33.27Z</time></trkpt><trkpt lat="43.411877814639865" lon="12.039130416620402"><ele>923.0</ele><time>2026-03-22T08:59:34.27Z</time></trkpt><trkpt lat="43.41195100013577" lon="12.039145846096801"><ele>923.0</ele><time>2026-03-22T08:59:35.271Z</time></trkpt><trkpt lat="43.41201566901808" lon="12.0391886869561"><ele>923.0</ele><time>2026-03-22T08:59:36.27Z</time></trkpt><trkpt lat="43.41209205838718" lon="12.039206724529693"><ele>923.0000000000001</ele><time>2026-03-22T08:59:37.27Z</time></trkpt><trkpt lat="43.4121849777565" lon="12.039224700924557"><ele>923.0</ele><time>2026-03-22T08:59:38.27Z</time></trkpt><trkpt lat="43.4122558431196" lon="12.039256659344163"><ele>923.4285714285713</ele><time>2026-03-22T08:59:39.269Z</time></trkpt><trkpt lat="43.41232392609042" lon="12.039269184294128"><ele>923.8571428571429</ele><time>2026-03-22T08:59:40.27Z</time></trkpt><trkpt lat="43.412390949455464" lon="12.03928408748569"><ele>924.2857142857142</ele><time>2026-03-22T08:59:41.263Z</time></trkpt><trkpt lat="43.41246028787631" lon="12.039319603673116"><ele>924.7142857142857</ele><time>2026-03-22T08:59:42.269Z</time></trkpt><trkpt lat="43.412524131286894" lon="12.039340111061469"><ele>925.1428571428571</ele><time>2026-03-22T08:59:43.27Z</time></trkpt><trkpt lat="43.412583984109226" lon="12.03937101244801"><ele>925.5714285714286</ele><time>2026-03-22T08:59:44.27Z</time></trkpt><trkpt lat="43.4126879249654" lon="12.039391870271372"><ele>926.0</ele><time>2026-03-22T08:59:46.27Z</time></trkpt><trkpt lat="43.412774527049336" lon="12.03947160663213"><ele>926.0</ele><time>2026-03-22T08:59:48.271Z</time></trkpt><trkpt lat="43.412892096171475" lon="12.03958629987008"><ele>925.9999999999999</ele><time>2026-03-22T08:59:50.269Z</time></trkpt><trkpt lat="43.41295105312087" lon="12.039665295650305"><ele>925.9999999999999</ele><time>2026-03-22T08:59:51.27Z</time></trkpt><trkpt lat="43.413016730217365" lon="12.039735736531153"><ele>926.0</ele><time>2026-03-22T08:59:52.269Z</time></trkpt><trkpt lat="43.41307429034556" lon="12.039796691312693"><ele>926.0</ele><time>2026-03-22T08:59:53.271Z</time></trkpt><trkpt lat="43.413150889390465" lon="12.039853099114765"><ele>923.5000000000001</ele><time>2026-03-22T08:59:54.269Z</time></trkpt><trkpt lat="43.413215532692156" lon="12.039893689125641"><ele>921.0</ele><time>2026-03-22T08:59:55.262Z</time></trkpt><trkpt lat="43.41327925765888" lon="12.039932659347922"><ele>918.5</ele><time>2026-03-22T08:59:56.268Z</time></trkpt><trkpt lat="43.4133684464638" lon="12.039974134765643"><ele>916.0</ele><time>2026-03-22T08:59:57.269Z</time></trkpt><trkpt lat="43.41345254112131" lon="12.03999906130099"><ele>913.5000000000001</ele><time>2026-03-22T08:59:58.268Z</time></trkpt><trkpt lat="43.41353112736761" lon="12.040026231252432"><ele>911.0</ele><time>2026-03-22T08:59:59.269Z</time></trkpt><trkpt lat="43.41362607651323" lon="12.040058778152954"><ele>911.0</ele><time>2026-03-22T09:00:00.264Z</time></trkpt><trkpt lat="43.41372713074532" lon="12.040027338263672"><ele>910.9999999999999</ele><time>2026-03-22T09:00:01.271Z</time></trkpt><trkpt lat="43.41382161306581" lon="12.04000695162006"><ele>910.9999999999999</ele><time>2026-03-22T09:00:02.269Z</time></trkpt><trkpt lat="43.413936860469484" lon="12.039948925670544"><ele>911.0</ele><time>2026-03-22T09:00:03.27Z</time></trkpt><trkpt lat="43.414018364479666" lon="12.039908111240413"><ele>911.0</ele><time>2026-03-22T09:00:04.27Z</time></trkpt><trkpt lat="43.41410212880158" lon="12.03991150899832"><ele>908.6666666666667</ele><time>2026-03-22T09:00:05.27Z</time></trkpt><trkpt lat="43.414183367858655" lon="12.039922452013966"><ele>906.3333333333334</ele><time>2026-03-22T09:00:06.27Z</time></trkpt><trkpt lat="43.41424706418465" lon="12.039960237291933"><ele>904.0</ele><time>2026-03-22T09:00:07.27Z</time></trkpt><trkpt lat="43.41430755999144" lon="12.039996063655888"><ele>901.6666666666667</ele><time>2026-03-22T09:00:08.27Z</time></trkpt><trkpt lat="43.414418830288035" lon="12.040098370098454"><ele>899.3333333333334</ele><time>2026-03-22T09:00:10.271Z</time></trkpt><trkpt lat="43.414466444499595" lon="12.040198100487672"><ele>897.0</ele><time>2026-03-22T09:00:11.269Z</time></trkpt><trkpt lat="43.41448741033311" lon="12.040352421653857"><ele>897.0</ele><time>2026-03-22T09:00:13.271Z</time></trkpt><trkpt lat="43.41449079648798" lon="12.04044903140767"><ele>897.0</ele><time>2026-03-22T09:00:14.27Z</time></trkpt><trkpt lat="43.414476315190086" lon="12.04059423784834"><ele>897.0</ele><time>2026-03-22T09:00:15.269Z</time></trkpt><trkpt lat="43.41445649271438" lon="12.040725173607854"><ele>897.0</ele><time>2026-03-22T09:00:16.268Z</time></trkpt><trkpt lat="43.41444385213403" lon="12.040846134138528"><ele>897.0</ele><time>2026-03-22T09:00:17.27Z</time></trkpt><trkpt lat="43.41444106301479" lon="12.040962798536034"><ele>897.0</ele><time>2026-03-22T09:00:18.27Z</time></trkpt><trkpt lat="43.41440964510596" lon="12.041075385810448"><ele>896.0</ele><time>2026-03-22T09:00:19.27Z</time></trkpt><trkpt lat="43.41435449228577" lon="12.041223893865991"><ele>895.0</ele><time>2026-03-22T09:00:20.27Z</time></trkpt><trkpt lat="43.414325428682545" lon="12.04130790666297"><ele>894.0</ele><time>2026-03-22T09:00:21.27Z</time></trkpt><trkpt lat="43.414299222947236" lon="12.041419744185962"><ele>893.0</ele><time>2026-03-22T09:00:23.27Z</time></trkpt><trkpt lat="43.41430477518187" lon="12.041508011798399"><ele>892.0</ele><time>2026-03-22T09:00:41.271Z</time></trkpt><trkpt lat="43.414370907093584" lon="12.04157476108907"><ele>891.0</ele><time>2026-03-22T09:00:50.27Z</time></trkpt><trkpt lat="43.4144345401717" lon="12.041604306172568"><ele>891.0</ele><time>2026-03-22T09:00:52.27Z</time></trkpt><trkpt lat="43.414508926641076" lon="12.04162036410407"><ele>891.0</ele><time>2026-03-22T09:00:55.27Z</time></trkpt><trkpt lat="43.41456480686929" lon="12.041675382862563"><ele>891.0</ele><time>2026-03-22T09:00:59.271Z</time></trkpt><trkpt lat="43.41451500655044" lon="12.041730453953832"><ele>891.0</ele><time>2026-03-22T09:01:04.27Z</time></trkpt><trkpt lat="43.41440425882176" lon="12.041795866874736"><ele>891.0</ele><time>2026-03-22T09:03:38.271Z</time></trkpt><trkpt lat="43.41430698099212" lon="12.041798763473125"><ele>891.0</ele><time>2026-03-22T09:03:40.269Z</time></trkpt><trkpt lat="43.414169799059614" lon="12.04183236236592"><ele>889.1666666666666</ele><time>2026-03-22T09:03:42.263Z</time></trkpt><trkpt lat="43.414103737351276" lon="12.041847752332446"><ele>887.3333333333333</ele><time>2026-03-22T09:03:43.269Z</time></trkpt><trkpt lat="43.41401446042013" lon="12.041873153901737"><ele>885.5</ele><time>2026-03-22T09:03:44.268Z</time></trkpt><trkpt lat="43.41391831031942" lon="12.04191025531922"><ele>883.6666666666666</ele><time>2026-03-22T09:03:45.269Z</time></trkpt><trkpt lat="43.41384310034553" lon="12.041936330426186"><ele>881.8333333333333</ele><time>2026-03-22T09:03:46.268Z</time></trkpt><trkpt lat="43.41376630090836" lon="12.041955024342851"><ele>880.0</ele><time>2026-03-22T09:03:47.269Z</time></trkpt><trkpt lat="43.41368599897103" lon="12.041960814381236"><ele>879.8</ele><time>2026-03-22T09:03:48.268Z</time></trkpt><trkpt lat="43.41358550068083" lon="12.041973073931045"><ele>879.6</ele><time>2026-03-22T09:03:49.268Z</time></trkpt><trkpt lat="43.41347179897773" lon="12.041993765877665"><ele>879.4000000000001</ele><time>2026-03-22T09:03:50.267Z</time></trkpt><trkpt lat="43.413349364060224" lon="12.041997748099705"><ele>879.2</ele><time>2026-03-22T09:03:51.266Z</time></trkpt><trkpt lat="43.413250793312784" lon="12.041978046030607"><ele>879.0</ele><time>2026-03-22T09:03:52.267Z</time></trkpt><trkpt lat="43.413154415431414" lon="12.041976995914231"><ele>879.0</ele><time>2026-03-22T09:03:53.267Z</time></trkpt><trkpt lat="43.41307263973668" lon="12.041983953091597"><ele>879.0</ele><time>2026-03-22T09:03:54.267Z</time></trkpt><trkpt lat="43.41298341651606" lon="12.041985020922072"><ele>879.0</ele><time>2026-03-22T09:03:55.267Z</time></trkpt><trkpt lat="43.4128967255772" lon="12.042005868468635"><ele>879.0</ele><time>2026-03-22T09:03:56.267Z</time></trkpt><trkpt lat="43.41280989167555" lon="12.042021712899796"><ele>879.0</ele><time>2026-03-22T09:03:57.267Z</time></trkpt><trkpt lat="43.412724917880055" lon="12.042056853301414"><ele>879.0</ele><time>2026-03-22T09:03:58.266Z</time></trkpt><trkpt lat="43.41262620634393" lon="12.042121631947758"><ele>878.6666666666666</ele><time>2026-03-22T09:03:59.267Z</time></trkpt><trkpt lat="43.41251863718594" lon="12.042195573566449"><ele>878.3333333333333</ele><time>2026-03-22T09:04:00.26Z</time></trkpt><trkpt lat="43.41244253619767" lon="12.042244466310802"><ele>878.0</ele><time>2026-03-22T09:04:01.267Z</time></trkpt><trkpt lat="43.412394785404636" lon="12.042318866369838"><ele>877.6666666666666</ele><time>2026-03-22T09:04:03.267Z</time></trkpt><trkpt lat="43.412436906756476" lon="12.042435222651548"><ele>877.3333333333333</ele><time>2026-03-22T09:04:06.266Z</time></trkpt><trkpt lat="43.41249274962452" lon="12.0424812517674"><ele>877.0</ele><time>2026-03-22T09:04:07.267Z</time></trkpt><trkpt lat="43.412535338844506" lon="12.042566133570512"><ele>874.1666666666666</ele><time>2026-03-22T09:04:08.267Z</time></trkpt><trkpt lat="43.41257545620831" lon="12.042645539308362"><ele>871.3333333333333</ele><time>2026-03-22T09:04:09.267Z</time></trkpt><trkpt lat="43.41263546800141" lon="12.04267857423923"><ele>868.5</ele><time>2026-03-22T09:04:10.267Z</time></trkpt><trkpt lat="43.41272625818767" lon="12.042707706536413"><ele>865.6666666666667</ele><time>2026-03-22T09:04:11.266Z</time></trkpt><trkpt lat="43.41279379273611" lon="12.042831113873632"><ele>862.8333333333334</ele><time>2026-03-22T09:04:12.267Z</time></trkpt><trkpt lat="43.41285821559921" lon="12.042945374544125"><ele>860.0</ele><time>2026-03-22T09:04:13.266Z</time></trkpt><trkpt lat="43.412910497478144" lon="12.04303429909854"><ele>860.0000000000001</ele><time>2026-03-22T09:04:14.265Z</time></trkpt><trkpt lat="43.412963285656225" lon="12.043119493226905"><ele>860.0</ele><time>2026-03-22T09:04:16.267Z</time></trkpt><trkpt lat="43.412949566206706" lon="12.043225519978554"><ele>860.0</ele><time>2026-03-22T09:04:18.26Z</time></trkpt><trkpt lat="43.41303456773364" lon="12.043287284898382"><ele>860.0</ele><time>2026-03-22T09:04:21.26Z</time></trkpt><trkpt lat="43.4130983229454" lon="12.043302176371247"><ele>860.0000000000001</ele><time>2026-03-22T09:04:22.265Z</time></trkpt><trkpt lat="43.413172702616" lon="12.043348105074022"><ele>860.0</ele><time>2026-03-22T09:04:23.266Z</time></trkpt><trkpt lat="43.413267010295556" lon="12.043447188739734"><ele>858.2</ele><time>2026-03-22T09:04:24.267Z</time></trkpt><trkpt lat="43.413329243650594" lon="12.043520270556842"><ele>856.4</ele><time>2026-03-22T09:04:25.266Z</time></trkpt><trkpt lat="43.41337887416054" lon="12.043644599216686"><ele>854.5999999999999</ele><time>2026-03-22T09:04:26.268Z</time></trkpt><trkpt lat="43.41341705777028" lon="12.04372686200003"><ele>852.8</ele><time>2026-03-22T09:04:27.266Z</time></trkpt><trkpt lat="43.413502673934794" lon="12.043849544505932"><ele>851.0</ele><time>2026-03-22T09:04:28.267Z</time></trkpt><trkpt lat="43.41356482534647" lon="12.043909346322014"><ele>851.0</ele><time>2026-03-22T09:04:29.269Z</time></trkpt><trkpt lat="43.41362474762445" lon="12.043963098396988"><ele>851.0</ele><time>2026-03-22T09:04:30.267Z</time></trkpt><trkpt lat="43.413736715732774" lon="12.04403801720172"><ele>851.0</ele><time>2026-03-22T09:04:32.268Z</time></trkpt><trkpt lat="43.41382062527573" lon="12.044082229071623"><ele>851.0</ele><time>2026-03-22T09:04:33.267Z</time></trkpt><trkpt lat="43.413868639408776" lon="12.04419796601302"><ele>851.0</ele><time>2026-03-22T09:04:35.268Z</time></trkpt><trkpt lat="43.41388676820703" lon="12.044286701867144"><ele>849.5000000000001</ele><time>2026-03-22T09:04:36.258Z</time></trkpt><trkpt lat="43.41388187593865" lon="12.04439069209587"><ele>848.0</ele><time>2026-03-22T09:04:37.266Z</time></trkpt><trkpt lat="43.41385604872465" lon="12.044474515831027"><ele>846.5</ele><time>2026-03-22T09:04:38.266Z</time></trkpt><trkpt lat="43.413852117531" lon="12.044574255115462"><ele>845.0</ele><time>2026-03-22T09:04:40.266Z</time></trkpt><trkpt lat="43.41393943359852" lon="12.0446425324438"><ele>843.5000000000001</ele><time>2026-03-22T09:04:42.268Z</time></trkpt><trkpt lat="43.41401066895197" lon="12.044666355663503"><ele>842.0</ele><time>2026-03-22T09:04:44.269Z</time></trkpt><trkpt lat="43.414107018639584" lon="12.044693606886177"><ele>842.0</ele><time>2026-03-22T09:04:46.268Z</time></trkpt><trkpt lat="43.41417779515807" lon="12.044772282681498"><ele>842.0</ele><time>2026-03-22T09:04:47.266Z</time></trkpt><trkpt lat="43.41426520496059" lon="12.044805075601507"><ele>842.0</ele><time>2026-03-22T09:04:48.267Z</time></trkpt><trkpt lat="43.414349073896254" lon="12.04484909966329"><ele>842.0</ele><time>2026-03-22T09:04:49.26Z</time></trkpt><trkpt lat="43.41446021890878" lon="12.044878856625111"><ele>842.0</ele><time>2026-03-22T09:04:51.265Z</time></trkpt><trkpt lat="43.414560497206786" lon="12.044934421415899"><ele>842.0000000000001</ele><time>2026-03-22T09:04:53.267Z</time></trkpt><trkpt lat="43.41462744761488" lon="12.044933046868021"><ele>842.0</ele><time>2026-03-22T09:04:55.263Z</time></trkpt><trkpt lat="43.414754255846816" lon="12.044977998805766"><ele>842.0</ele><time>2026-03-22T09:04:57.268Z</time></trkpt><trkpt lat="43.41482191016668" lon="12.044973264453404"><ele>842.0</ele><time>2026-03-22T09:04:58.267Z</time></trkpt><trkpt lat="43.41489740363229" lon="12.045001451761351"><ele>842.0000000000001</ele><time>2026-03-22T09:04:59.267Z</time></trkpt><trkpt lat="43.41498172891124" lon="12.045038155024608"><ele>842.0</ele><time>2026-03-22T09:05:00.262Z</time></trkpt><trkpt lat="43.415045439873055" lon="12.045040287495377"><ele>842.8333333333334</ele><time>2026-03-22T09:05:01.269Z</time></trkpt><trkpt lat="43.4151352059469" lon="12.045060740207031"><ele>843.6666666666667</ele><time>2026-03-22T09:05:02.269Z</time></trkpt><trkpt lat="43.41524729879149" lon="12.04502360556696"><ele>844.5</ele><time>2026-03-22T09:05:04.269Z</time></trkpt><trkpt lat="43.41532862685655" lon="12.045069083305416"><ele>845.3333333333333</ele><time>2026-03-22T09:05:06.269Z</time></trkpt><trkpt lat="43.41537553059324" lon="12.045128568650513"><ele>846.1666666666666</ele><time>2026-03-22T09:05:07.271Z</time></trkpt><trkpt lat="43.4154263176569" lon="12.045205908450448"><ele>847.0</ele><time>2026-03-22T09:05:09.271Z</time></trkpt><trkpt lat="43.41547559564892" lon="12.045283307701053"><ele>843.8333333333333</ele><time>2026-03-22T09:05:11.27Z</time></trkpt><trkpt lat="43.41552541268383" lon="12.045384628597867"><ele>840.6666666666666</ele><time>2026-03-22T09:05:14.27Z</time></trkpt><trkpt lat="43.415574345943746" lon="12.045501613519052"><ele>837.5</ele><time>2026-03-22T09:05:16.272Z</time></trkpt><trkpt lat="43.41560232735672" lon="12.045643329441683"><ele>834.3333333333333</ele><time>2026-03-22T09:05:18.27Z</time></trkpt><trkpt lat="43.41557942722027" lon="12.045761534154769"><ele>831.1666666666666</ele><time>2026-03-22T09:05:20.269Z</time></trkpt><trkpt lat="43.41557104182754" lon="12.045850183098779"><ele>828.0</ele><time>2026-03-22T09:05:21.269Z</time></trkpt><trkpt lat="43.4155297768573" lon="12.045965380395588"><ele>828.0</ele><time>2026-03-22T09:05:22.269Z</time></trkpt><trkpt lat="43.41551906538996" lon="12.046051275545514"><ele>828.0</ele><time>2026-03-22T09:05:23.269Z</time></trkpt><trkpt lat="43.41550276549393" lon="12.046222347232703"><ele>828.0</ele><time>2026-03-22T09:05:25.262Z</time></trkpt><trkpt lat="43.41551174991083" lon="12.046322721152762"><ele>828.0</ele><time>2026-03-22T09:05:26.271Z</time></trkpt><trkpt lat="43.41556756980522" lon="12.04646057279963"><ele>828.0</ele><time>2026-03-22T09:05:28.267Z</time></trkpt><trkpt lat="43.41558370449737" lon="12.046558765426038"><ele>828.0</ele><time>2026-03-22T09:05:29.269Z</time></trkpt><trkpt lat="43.41559694000181" lon="12.046644044812444"><ele>828.0</ele><time>2026-03-22T09:05:30.269Z</time></trkpt><trkpt lat="43.41559353286853" lon="12.046737959884103"><ele>828.0</ele><time>2026-03-22T09:05:31.27Z</time></trkpt><trkpt lat="43.4155858619606" lon="12.04683750236241"><ele>828.0</ele><time>2026-03-22T09:05:32.267Z</time></trkpt><trkpt lat="43.41557901735937" lon="12.04700276920223"><ele>828.0</ele><time>2026-03-22T09:05:34.268Z</time></trkpt><trkpt lat="43.41561076897618" lon="12.047212885163194"><ele>828.0</ele><time>2026-03-22T09:05:37.267Z</time></trkpt><trkpt lat="43.4157237811997" lon="12.047309189812802"><ele>828.0</ele><time>2026-03-22T09:05:39.267Z</time></trkpt><trkpt lat="43.41585287820517" lon="12.047276247360895"><ele>828.0</ele><time>2026-03-22T09:05:41.267Z</time></trkpt><trkpt lat="43.415921867619744" lon="12.047269931428731"><ele>828.0</ele><time>2026-03-22T09:05:42.266Z</time></trkpt><trkpt lat="43.41601556203071" lon="12.04727525185848"><ele>828.0</ele><time>2026-03-22T09:05:44.268Z</time></trkpt><trkpt lat="43.41607319754487" lon="12.047343406770832"><ele>828.0</ele><time>2026-03-22T09:05:45.268Z</time></trkpt><trkpt lat="43.416125658446504" lon="12.04743594048306"><ele>828.0</ele><time>2026-03-22T09:05:46.265Z</time></trkpt><trkpt lat="43.416171958537305" lon="12.047525414580571"><ele>828.0</ele><time>2026-03-22T09:05:47.267Z</time></trkpt><trkpt lat="43.41620478544713" lon="12.047611985474532"><ele>828.0</ele><time>2026-03-22T09:05:48.267Z</time></trkpt><trkpt lat="43.41627728351732" lon="12.047729931620921"><ele>828.0</ele><time>2026-03-22T09:05:50.266Z</time></trkpt><trkpt lat="43.4163860405826" lon="12.047770329273899"><ele>824.4</ele><time>2026-03-22T09:05:52.266Z</time></trkpt><trkpt lat="43.41648992427737" lon="12.047812515403887"><ele>820.8</ele><time>2026-03-22T09:05:53.267Z</time></trkpt><trkpt lat="43.416550994317774" lon="12.0478358998728"><ele>817.2</ele><time>2026-03-22T09:05:54.268Z</time></trkpt><trkpt lat="43.41662717139213" lon="12.047876055770432"><ele>813.6</ele><time>2026-03-22T09:05:55.266Z</time></trkpt><trkpt lat="43.4167358309984" lon="12.047911378452072"><ele>810.0</ele><time>2026-03-22T09:05:57.267Z</time></trkpt><trkpt lat="43.41683353208087" lon="12.048031562531488"><ele>810.0</ele><time>2026-03-22T09:05:59.268Z</time></trkpt><trkpt lat="43.41687011413428" lon="12.048104110249579"><ele>810.0</ele><time>2026-03-22T09:06:00.269Z</time></trkpt><trkpt lat="43.4168990270226" lon="12.048199982280467"><ele>810.0</ele><time>2026-03-22T09:06:02.268Z</time></trkpt><trkpt lat="43.41693668950574" lon="12.048287124768311"><ele>810.0</ele><time>2026-03-22T09:08:36.268Z</time></trkpt><trkpt lat="43.41700297324644" lon="12.048306851216648"><ele>810.0</ele><time>2026-03-22T09:08:39.268Z</time></trkpt><trkpt lat="43.417070151793844" lon="12.048292630936933"><ele>810.0</ele><time>2026-03-22T09:08:41.268Z</time></trkpt><trkpt lat="43.417168425406324" lon="12.048402181913225"><ele>809.6666666666666</ele><time>2026-03-22T09:08:43.268Z</time></trkpt><trkpt lat="43.41722559910048" lon="12.048450455206106"><ele>809.3333333333333</ele><time>2026-03-22T09:08:44.268Z</time></trkpt><trkpt lat="43.41730325240818" lon="12.048471455553091"><ele>809.0</ele><time>2026-03-22T09:08:45.268Z</time></trkpt><trkpt lat="43.41738585378489" lon="12.048481721768763"><ele>808.6666666666666</ele><time>2026-03-22T09:08:46.269Z</time></trkpt><trkpt lat="43.41744064947309" lon="12.048554427005955"><ele>808.3333333333333</ele><time>2026-03-22T09:08:47.269Z</time></trkpt><trkpt lat="43.41751160987389" lon="12.048632501283997"><ele>808.0</ele><time>2026-03-22T09:08:48.269Z</time></trkpt><trkpt lat="43.41755256352645" lon="12.048743171442036"><ele>808.0</ele><time>2026-03-22T09:08:49.268Z</time></trkpt><trkpt lat="43.41761554751528" lon="12.048893280763924"><ele>808.0</ele><time>2026-03-22T09:08:50.269Z</time></trkpt><trkpt lat="43.41766009617838" lon="12.049068505742827"><ele>808.0</ele><time>2026-03-22T09:08:51.268Z</time></trkpt><trkpt lat="43.41770106233928" lon="12.049251705234722"><ele>808.0</ele><time>2026-03-22T09:08:52.268Z</time></trkpt><trkpt lat="43.417717872034814" lon="12.049374718073807"><ele>810.8</ele><time>2026-03-22T09:08:53.268Z</time></trkpt><trkpt lat="43.417748053114046" lon="12.049502662184983"><ele>813.5999999999999</ele><time>2026-03-22T09:08:54.268Z</time></trkpt><trkpt lat="43.417800844067756" lon="12.049628761092743"><ele>816.4000000000001</ele><time>2026-03-22T09:08:55.268Z</time></trkpt><trkpt lat="43.417860219299826" lon="12.049732491961878"><ele>819.2</ele><time>2026-03-22T09:08:56.269Z</time></trkpt><trkpt lat="43.41792051542782" lon="12.04986511150554"><ele>822.0</ele><time>2026-03-22T09:08:57.269Z</time></trkpt><trkpt lat="43.41794093115833" lon="12.049955718200671"><ele>823.6666666666666</ele><time>2026-03-22T09:08:58.267Z</time></trkpt><trkpt lat="43.4179580162717" lon="12.050052145754865"><ele>825.3333333333333</ele><time>2026-03-22T09:08:59.269Z</time></trkpt><trkpt lat="43.41799258118945" lon="12.050183112458877"><ele>827.0</ele><time>2026-03-22T09:09:01.265Z</time></trkpt><trkpt lat="43.41805825565045" lon="12.050205868407069"><ele>828.6666666666666</ele><time>2026-03-22T09:09:02.266Z</time></trkpt><trkpt lat="43.41812298890968" lon="12.050183386914096"><ele>830.3333333333333</ele><time>2026-03-22T09:09:03.265Z</time></trkpt><trkpt lat="43.41822598868313" lon="12.050170148750123"><ele>832.0</ele><time>2026-03-22T09:09:04.268Z</time></trkpt><trkpt lat="43.418305032987924" lon="12.050158828815269"><ele>826.6</ele><time>2026-03-22T09:09:05.268Z</time></trkpt><trkpt lat="43.4184085210682" lon="12.050206961882719"><ele>821.2</ele><time>2026-03-22T09:09:07.269Z</time></trkpt><trkpt lat="43.418478595402256" lon="12.050258543703029"><ele>815.8</ele><time>2026-03-22T09:09:08.269Z</time></trkpt><trkpt lat="43.418583877437875" lon="12.050332245244268"><ele>810.4</ele><time>2026-03-22T09:09:09.268Z</time></trkpt><trkpt lat="43.41867893139966" lon="12.050380062643434"><ele>805.0</ele><time>2026-03-22T09:09:10.269Z</time></trkpt><trkpt lat="43.41875981221771" lon="12.050425986241274"><ele>804.0</ele><time>2026-03-22T09:09:11.268Z</time></trkpt><trkpt lat="43.418847090399076" lon="12.050546972686602"><ele>803.0</ele><time>2026-03-22T09:09:13.268Z</time></trkpt><trkpt lat="43.41886770742089" lon="12.0506418827836"><ele>802.0</ele><time>2026-03-22T09:09:14.272Z</time></trkpt><trkpt lat="43.41888145404382" lon="12.05082539498599"><ele>801.0</ele><time>2026-03-22T09:09:16.271Z</time></trkpt><trkpt lat="43.418886086679294" lon="12.050917591671412"><ele>800.0</ele><time>2026-03-22T09:09:17.27Z</time></trkpt><trkpt lat="43.418889482465474" lon="12.05102463199748"><ele>800.0000000000001</ele><time>2026-03-22T09:09:18.271Z</time></trkpt><trkpt lat="43.418879970358844" lon="12.05112296371354"><ele>800.0</ele><time>2026-03-22T09:09:19.271Z</time></trkpt><trkpt lat="43.41884801910597" lon="12.051243740268442"><ele>800.0</ele><time>2026-03-22T09:09:20.271Z</time></trkpt><trkpt lat="43.41883223615061" lon="12.05133657654349"><ele>800.0</ele><time>2026-03-22T09:09:21.265Z</time></trkpt><trkpt lat="43.41878101454418" lon="12.051449466070478"><ele>800.0000000000001</ele><time>2026-03-22T09:09:23.27Z</time></trkpt><trkpt lat="43.41873038942548" lon="12.05155082271416"><ele>800.0</ele><time>2026-03-22T09:09:25.271Z</time></trkpt><trkpt lat="43.418681238749635" lon="12.051622507081252"><ele>803.1666666666667</ele><time>2026-03-22T09:09:27.27Z</time></trkpt><trkpt lat="43.418640177461704" lon="12.051738966191083"><ele>806.3333333333334</ele><time>2026-03-22T09:09:29.27Z</time></trkpt><trkpt lat="43.41859869275997" lon="12.051858138998895"><ele>809.5</ele><time>2026-03-22T09:09:31.271Z</time></trkpt><trkpt lat="43.418585767739465" lon="12.051947843616938"><ele>812.6666666666667</ele><time>2026-03-22T09:09:32.274Z</time></trkpt><trkpt lat="43.41855094733717" lon="12.05207759171539"><ele>815.8333333333334</ele><time>2026-03-22T09:09:33.27Z</time></trkpt><trkpt lat="43.418522694086604" lon="12.052196175250634"><ele>819.0</ele><time>2026-03-22T09:09:34.27Z</time></trkpt><trkpt lat="43.418445749039094" lon="12.052261227254919"><ele>819.0</ele><time>2026-03-22T09:09:35.27Z</time></trkpt><trkpt lat="43.418365632708166" lon="12.052330793299811"><ele>819.0</ele><time>2026-03-22T09:09:36.271Z</time></trkpt><trkpt lat="43.418274285138416" lon="12.052375805108776"><ele>819.0</ele><time>2026-03-22T09:09:37.27Z</time></trkpt><trkpt lat="43.4181673056333" lon="12.052387853387723"><ele>819.0</ele><time>2026-03-22T09:09:38.269Z</time></trkpt><trkpt lat="43.41804186148977" lon="12.052432675262887"><ele>819.0</ele><time>2026-03-22T09:09:39.268Z</time></trkpt><trkpt lat="43.417924271540244" lon="12.052471884544024"><ele>817.0</ele><time>2026-03-22T09:09:40.268Z</time></trkpt><trkpt lat="43.417835412559704" lon="12.052481602249498"><ele>815.0</ele><time>2026-03-22T09:09:41.262Z</time></trkpt><trkpt lat="43.41776373433087" lon="12.052535758335413"><ele>813.0</ele><time>2026-03-22T09:09:42.266Z</time></trkpt><trkpt lat="43.4176660695572" lon="12.052627140733989"><ele>811.0</ele><time>2026-03-22T09:09:43.267Z</time></trkpt><trkpt lat="43.417598762074505" lon="12.052712630001107"><ele>809.0</ele><time>2026-03-22T09:09:44.269Z</time></trkpt><trkpt lat="43.417580378255046" lon="12.052815974786084"><ele>809.0</ele><time>2026-03-22T09:09:45.269Z</time></trkpt><trkpt lat="43.41753108417275" lon="12.052901320568555"><ele>809.0</ele><time>2026-03-22T09:09:46.268Z</time></trkpt><trkpt lat="43.41749566051614" lon="12.05302270774018"><ele>809.0</ele><time>2026-03-22T09:09:47.268Z</time></trkpt><trkpt lat="43.41744445995146" lon="12.053093781678266"><ele>809.0</ele><time>2026-03-22T09:09:48.269Z</time></trkpt><trkpt lat="43.417324443701574" lon="12.053208757311491"><ele>809.0</ele><time>2026-03-22T09:09:50.262Z</time></trkpt><trkpt lat="43.41725449042908" lon="12.053299783080478"><ele>804.6666666666667</ele><time>2026-03-22T09:09:51.267Z</time></trkpt><trkpt lat="43.41716562258281" lon="12.053382998413824"><ele>800.3333333333334</ele><time>2026-03-22T09:09:52.268Z</time></trkpt><trkpt lat="43.41710434594049" lon="12.0534162748556"><ele>796.0</ele><time>2026-03-22T09:09:53.268Z</time></trkpt><trkpt lat="43.417024648416735" lon="12.05348342730116"><ele>791.6666666666667</ele><time>2026-03-22T09:09:54.268Z</time></trkpt><trkpt lat="43.41695309782676" lon="12.05352111471452"><ele>787.3333333333334</ele><time>2026-03-22T09:09:55.262Z</time></trkpt><trkpt lat="43.41687183033297" lon="12.053541521195372"><ele>783.0</ele><time>2026-03-22T09:09:56.267Z</time></trkpt><trkpt lat="43.416774316046656" lon="12.0535543795027"><ele>782.0</ele><time>2026-03-22T09:09:57.268Z</time></trkpt><trkpt lat="43.41670504360433" lon="12.05352512845914"><ele>781.0</ele><time>2026-03-22T09:09:58.268Z</time></trkpt><trkpt lat="43.416629460136676" lon="12.05345562392389"><ele>780.0</ele><time>2026-03-22T09:09:59.268Z</time></trkpt><trkpt lat="43.416559288215005" lon="12.053393406508684"><ele>779.0</ele><time>2026-03-22T09:10:00.262Z</time></trkpt><trkpt lat="43.4165080252133" lon="12.053323234067893"><ele>778.0</ele><time>2026-03-22T09:10:01.267Z</time></trkpt><trkpt lat="43.41645052363912" lon="12.053239366042286"><ele>777.0</ele><time>2026-03-22T09:10:02.266Z</time></trkpt><trkpt lat="43.41640378270562" lon="12.053149334324637"><ele>778.0</ele><time>2026-03-22T09:10:03.268Z</time></trkpt><trkpt lat="43.416352599003204" lon="12.053060620196742"><ele>779.0</ele><time>2026-03-22T09:10:04.265Z</time></trkpt><trkpt lat="43.416267386187535" lon="12.05297211758257"><ele>780.0</ele><time>2026-03-22T09:10:05.268Z</time></trkpt><trkpt lat="43.416207925161665" lon="12.052880104500977"><ele>781.0</ele><time>2026-03-22T09:10:06.268Z</time></trkpt><trkpt lat="43.41611364499829" lon="12.052783609825786"><ele>782.0</ele><time>2026-03-22T09:10:07.267Z</time></trkpt><trkpt lat="43.41604447288956" lon="12.052728305932963"><ele>782.0000000000001</ele><time>2026-03-22T09:10:08.261Z</time></trkpt><trkpt lat="43.41592955753129" lon="12.052688388418087"><ele>782.0</ele><time>2026-03-22T09:10:10.266Z</time></trkpt><trkpt lat="43.415831007345595" lon="12.052685394914667"><ele>782.0</ele><time>2026-03-22T09:10:12.266Z</time></trkpt><trkpt lat="43.41576180461673" lon="12.052743499276556"><ele>782.0</ele><time>2026-03-22T09:10:15.267Z</time></trkpt><trkpt lat="43.41581400911532" lon="12.052818987378116"><ele>782.0000000000001</ele><time>2026-03-22T09:10:18.267Z</time></trkpt><trkpt lat="43.41586075214308" lon="12.052886776289839"><ele>782.0</ele><time>2026-03-22T09:10:23.267Z</time></trkpt><trkpt lat="43.41589557004669" lon="12.052962879974672"><ele>782.0000000000001</ele><time>2026-03-22T09:10:25.267Z</time></trkpt><trkpt lat="43.415933054299266" lon="12.053040735350148"><ele>782.0</ele><time>2026-03-22T09:10:27.268Z</time></trkpt><trkpt lat="43.41598855738406" lon="12.053159750981107"><ele>782.0</ele><time>2026-03-22T09:10:28.267Z</time></trkpt><trkpt lat="43.41602693272698" lon="12.053240918359297"><ele>782.0</ele><time>2026-03-22T09:10:29.269Z</time></trkpt><trkpt lat="43.4160697017945" lon="12.05334104147285"><ele>782.0000000000001</ele><time>2026-03-22T09:10:30.266Z</time></trkpt><trkpt lat="43.41613196922116" lon="12.05339145590295"><ele>782.0</ele><time>2026-03-22T09:10:32.267Z</time></trkpt><trkpt lat="43.41620641261435" lon="12.05341860739277"><ele>781.0</ele><time>2026-03-22T09:10:35.266Z</time></trkpt><trkpt lat="43.41622698931035" lon="12.053506954844567"><ele>780.0</ele><time>2026-03-22T09:10:37.268Z</time></trkpt><trkpt lat="43.41628665373775" lon="12.053668519817753"><ele>779.0</ele><time>2026-03-22T09:10:39.271Z</time></trkpt><trkpt lat="43.41632366839658" lon="12.053787947410516"><ele>778.0</ele><time>2026-03-22T09:10:40.268Z</time></trkpt><trkpt lat="43.416362234062035" lon="12.053890870646855"><ele>777.0</ele><time>2026-03-22T09:10:41.267Z</time></trkpt><trkpt lat="43.41638681652416" lon="12.053993875220225"><ele>777.0</ele><time>2026-03-22T09:10:42.268Z</time></trkpt><trkpt lat="43.41639444663234" lon="12.054105744818365"><ele>777.0</ele><time>2026-03-22T09:10:45.267Z</time></trkpt><trkpt lat="43.41644507263041" lon="12.054185462789082"><ele>777.0</ele><time>2026-03-22T09:10:47.268Z</time></trkpt><trkpt lat="43.41649845519305" lon="12.054234168762969"><ele>777.0</ele><time>2026-03-22T09:10:48.268Z</time></trkpt><trkpt lat="43.41656403412471" lon="12.05428521233568"><ele>777.0</ele><time>2026-03-22T09:10:49.268Z</time></trkpt><trkpt lat="43.416654696302295" lon="12.054319277840825"><ele>777.0</ele><time>2026-03-22T09:10:50.267Z</time></trkpt><trkpt lat="43.41673572722638" lon="12.054384983882303"><ele>775.0</ele><time>2026-03-22T09:10:51.267Z</time></trkpt><trkpt lat="43.416881940839055" lon="12.05444774404169"><ele>773.0</ele><time>2026-03-22T09:10:53.267Z</time></trkpt><trkpt lat="43.41690556804205" lon="12.054545103470874"><ele>771.0</ele><time>2026-03-22T09:10:55.267Z</time></trkpt><trkpt lat="43.41689838896697" lon="12.054642160271309"><ele>769.0</ele><time>2026-03-22T09:10:56.269Z</time></trkpt><trkpt lat="43.41693854570057" lon="12.054728213837212"><ele>767.0</ele><time>2026-03-22T09:10:57.269Z</time></trkpt><trkpt lat="43.41700117936565" lon="12.054928411109614"><ele>766.0</ele><time>2026-03-22T09:10:59.268Z</time></trkpt><trkpt lat="43.417039975315944" lon="12.055042533698677"><ele>765.0</ele><time>2026-03-22T09:11:00.268Z</time></trkpt><trkpt lat="43.417072250684114" lon="12.055163275706125"><ele>764.0</ele><time>2026-03-22T09:11:01.261Z</time></trkpt><trkpt lat="43.41708350588897" lon="12.055307429254313"><ele>763.0</ele><time>2026-03-22T09:11:02.27Z</time></trkpt><trkpt lat="43.41707441131372" lon="12.055406611507818"><ele>762.0</ele><time>2026-03-22T09:11:03.267Z</time></trkpt><trkpt lat="43.41709851449372" lon="12.055504790173828"><ele>761.0</ele><time>2026-03-22T09:11:04.269Z</time></trkpt><trkpt lat="43.41715265360471" lon="12.055582371796207"><ele>761.0</ele><time>2026-03-22T09:11:05.269Z</time></trkpt><trkpt lat="43.41721140053962" lon="12.055616596114008"><ele>761.0</ele><time>2026-03-22T09:11:06.268Z</time></trkpt><trkpt lat="43.417274088339305" lon="12.055678981277053"><ele>761.0</ele><time>2026-03-22T09:11:07.269Z</time></trkpt><trkpt lat="43.41734960571016" lon="12.055829239629267"><ele>761.0</ele><time>2026-03-22T09:11:09.27Z</time></trkpt><trkpt lat="43.41730130734345" lon="12.055918870966751"><ele>761.0</ele><time>2026-03-22T09:11:12.27Z</time></trkpt><trkpt lat="43.41720710558843" lon="12.055947364785611"><ele>766.6666666666666</ele><time>2026-03-22T09:11:18.27Z</time></trkpt><trkpt lat="43.41711629490847" lon="12.055954670957512"><ele>772.3333333333333</ele><time>2026-03-22T09:11:20.275Z</time></trkpt><trkpt lat="43.417046970486304" lon="12.055970153775561"><ele>778.0</ele><time>2026-03-22T09:11:21.263Z</time></trkpt><trkpt lat="43.416970098647916" lon="12.055969021186398"><ele>783.6666666666666</ele><time>2026-03-22T09:11:22.269Z</time></trkpt><trkpt lat="43.416903446107774" lon="12.056059951737666"><ele>789.3333333333334</ele><time>2026-03-22T09:11:24.269Z</time></trkpt><trkpt lat="43.41689880473517" lon="12.056199582477783"><ele>795.0</ele><time>2026-03-22T09:11:26.269Z</time></trkpt><trkpt lat="43.4169254836963" lon="12.056351771233238"><ele>795.0</ele><time>2026-03-22T09:11:28.27Z</time></trkpt><trkpt lat="43.4169442743682" lon="12.056497719447988"><ele>795.0</ele><time>2026-03-22T09:11:29.267Z</time></trkpt><trkpt lat="43.41695094712055" lon="12.056639005688057"><ele>795.0</ele><time>2026-03-22T09:11:30.268Z</time></trkpt><trkpt lat="43.41688952753903" lon="12.0567425444945"><ele>795.0</ele><time>2026-03-22T09:11:32.268Z</time></trkpt><trkpt lat="43.41688889220791" lon="12.056889825928943"><ele>795.0</ele><time>2026-03-22T09:11:34.267Z</time></trkpt><trkpt lat="43.41687815484898" lon="12.057036363371191"><ele>798.0</ele><time>2026-03-22T09:11:36.268Z</time></trkpt><trkpt lat="43.416899374869196" lon="12.057124606919679"><ele>801.0</ele><time>2026-03-22T09:11:37.268Z</time></trkpt><trkpt lat="43.416939900738946" lon="12.057206268790813"><ele>804.0</ele><time>2026-03-22T09:11:38.267Z</time></trkpt><trkpt lat="43.41697563129697" lon="12.057296434550997"><ele>807.0</ele><time>2026-03-22T09:11:39.268Z</time></trkpt><trkpt lat="43.417026368769854" lon="12.057381841638419"><ele>810.0</ele><time>2026-03-22T09:11:40.265Z</time></trkpt><trkpt lat="43.41700541514742" lon="12.057564533924113"><ele>813.0</ele><time>2026-03-22T09:11:42.268Z</time></trkpt><trkpt lat="43.416947883376565" lon="12.057668584309752"><ele>816.4</ele><time>2026-03-22T09:11:43.267Z</time></trkpt><trkpt lat="43.41693771620409" lon="12.057802018500794"><ele>819.8</ele><time>2026-03-22T09:11:44.268Z</time></trkpt><trkpt lat="43.41692553972184" lon="12.057923764509408"><ele>823.2</ele><time>2026-03-22T09:11:45.268Z</time></trkpt><trkpt lat="43.41689143423942" lon="12.058042866326646"><ele>826.6</ele><time>2026-03-22T09:11:46.267Z</time></trkpt><trkpt lat="43.41684017683926" lon="12.05815002222736"><ele>830.0</ele><time>2026-03-22T09:11:47.267Z</time></trkpt><trkpt lat="43.41680817317502" lon="12.058281624041054"><ele>831.8</ele><time>2026-03-22T09:11:48.267Z</time></trkpt><trkpt lat="43.41678443120393" lon="12.058383078586495"><ele>833.6</ele><time>2026-03-22T09:11:49.268Z</time></trkpt><trkpt lat="43.41680502642026" lon="12.058496295579058"><ele>835.4000000000001</ele><time>2026-03-22T09:11:50.269Z</time></trkpt><trkpt lat="43.41682891776389" lon="12.058589614977643"><ele>837.2</ele><time>2026-03-22T09:11:51.271Z</time></trkpt><trkpt lat="43.41686151421531" lon="12.058742525065195"><ele>839.0</ele><time>2026-03-22T09:11:53.27Z</time></trkpt><trkpt lat="43.41678138963252" lon="12.058836862878696"><ele>839.0000000000001</ele><time>2026-03-22T09:11:55.269Z</time></trkpt><trkpt lat="43.41671706001542" lon="12.05889208373423"><ele>839.0</ele><time>2026-03-22T09:11:56.27Z</time></trkpt><trkpt lat="43.41666152619844" lon="12.058947058141811"><ele>839.0</ele><time>2026-03-22T09:11:57.27Z</time></trkpt><trkpt lat="43.41659243568406" lon="12.059033791933398"><ele>839.0</ele><time>2026-03-22T09:11:58.27Z</time></trkpt><trkpt lat="43.41655056608279" lon="12.059136729360777"><ele>839.0000000000001</ele><time>2026-03-22T09:11:59.267Z</time></trkpt><trkpt lat="43.41656998858416" lon="12.0593052451545"><ele>839.0</ele><time>2026-03-22T09:12:01.268Z</time></trkpt><trkpt lat="43.41659097080041" lon="12.059401618042816"><ele>840.3333333333334</ele><time>2026-03-22T09:12:02.266Z</time></trkpt><trkpt lat="43.41660846298509" lon="12.059534179716714"><ele>841.6666666666667</ele><time>2026-03-22T09:12:03.269Z</time></trkpt><trkpt lat="43.41665895766671" lon="12.059639282875933"><ele>843.0</ele><time>2026-03-22T09:12:04.27Z</time></trkpt><trkpt lat="43.416706200284175" lon="12.059716182266865"><ele>844.3333333333333</ele><time>2026-03-22T09:12:05.268Z</time></trkpt><trkpt lat="43.416772122481916" lon="12.059775690516613"><ele>845.6666666666666</ele><time>2026-03-22T09:12:06.267Z</time></trkpt><trkpt lat="43.416848580740954" lon="12.059827709663944"><ele>847.0</ele><time>2026-03-22T09:12:07.269Z</time></trkpt><trkpt lat="43.41693649716229" lon="12.05988601161083"><ele>847.0</ele><time>2026-03-22T09:12:08.27Z</time></trkpt><trkpt lat="43.41702658261408" lon="12.059946789058854"><ele>847.0</ele><time>2026-03-22T09:12:09.267Z</time></trkpt><trkpt lat="43.41708145819751" lon="12.059993183678205"><ele>847.0</ele><time>2026-03-22T09:12:10.27Z</time></trkpt><trkpt lat="43.417086267270385" lon="12.060176204275239"><ele>847.0</ele><time>2026-03-22T09:12:12.27Z</time></trkpt><trkpt lat="43.41705339066178" lon="12.06028435410664"><ele>847.0</ele><time>2026-03-22T09:12:13.27Z</time></trkpt><trkpt lat="43.41702325722192" lon="12.06039896513042"><ele>849.4999999999999</ele><time>2026-03-22T09:12:14.271Z</time></trkpt><trkpt lat="43.416955110037684" lon="12.060483536206721"><ele>852.0</ele><time>2026-03-22T09:12:15.27Z</time></trkpt><trkpt lat="43.41688332831018" lon="12.060570356676525"><ele>854.5</ele><time>2026-03-22T09:12:16.271Z</time></trkpt><trkpt lat="43.41681074780084" lon="12.060622556707292"><ele>857.0</ele><time>2026-03-22T09:12:17.27Z</time></trkpt><trkpt lat="43.41674538716324" lon="12.060616906359364"><ele>859.4999999999999</ele><time>2026-03-22T09:12:18.266Z</time></trkpt><trkpt lat="43.41665814504713" lon="12.060609102499155"><ele>862.0</ele><time>2026-03-22T09:12:19.27Z</time></trkpt><trkpt lat="43.416567430947154" lon="12.06065044696571"><ele>862.0</ele><time>2026-03-22T09:12:20.27Z</time></trkpt><trkpt lat="43.41652383399206" lon="12.060716301300047"><ele>862.0</ele><time>2026-03-22T09:12:21.27Z</time></trkpt><trkpt lat="43.41648786115951" lon="12.060808096428367"><ele>862.0</ele><time>2026-03-22T09:12:22.27Z</time></trkpt><trkpt lat="43.416457954851104" lon="12.060899563692152"><ele>862.0</ele><time>2026-03-22T09:12:23.27Z</time></trkpt><trkpt lat="43.416458576474355" lon="12.060995905220288"><ele>862.0</ele><time>2026-03-22T09:12:24.267Z</time></trkpt><trkpt lat="43.41645598806889" lon="12.061115991054383"><ele>862.0</ele><time>2026-03-22T09:12:25.269Z</time></trkpt><trkpt lat="43.416423525217354" lon="12.061207030455012"><ele>862.0</ele><time>2026-03-22T09:12:26.269Z</time></trkpt><trkpt lat="43.41638771479566" lon="12.061288474378156"><ele>863.8333333333333</ele><time>2026-03-22T09:12:27.259Z</time></trkpt><trkpt lat="43.41635518921697" lon="12.061395314634678"><ele>865.6666666666666</ele><time>2026-03-22T09:12:28.269Z</time></trkpt><trkpt lat="43.4163175535935" lon="12.061502584780436"><ele>867.5</ele><time>2026-03-22T09:12:29.27Z</time></trkpt><trkpt lat="43.41632836055745" lon="12.061609054957815"><ele>869.3333333333333</ele><time>2026-03-22T09:12:31.267Z</time></trkpt><trkpt lat="43.41637469355251" lon="12.06170472224555"><ele>871.1666666666666</ele><time>2026-03-22T09:12:41.263Z</time></trkpt><trkpt lat="43.416440707111356" lon="12.061729364484954"><ele>873.0</ele><time>2026-03-22T09:12:45.266Z</time></trkpt><trkpt lat="43.416530814230505" lon="12.06180550255294"><ele>874.8333333333334</ele><time>2026-03-22T09:12:47.27Z</time></trkpt><trkpt lat="43.4166101873145" lon="12.061918374064202"><ele>876.6666666666667</ele><time>2026-03-22T09:12:49.272Z</time></trkpt><trkpt lat="43.416705662385596" lon="12.061990809114086"><ele>878.5</ele><time>2026-03-22T09:12:51.266Z</time></trkpt><trkpt lat="43.41675929112464" lon="12.06205022893019"><ele>880.3333333333334</ele><time>2026-03-22T09:12:52.272Z</time></trkpt><trkpt lat="43.41684372412196" lon="12.062076057118103"><ele>882.1666666666667</ele><time>2026-03-22T09:12:54.272Z</time></trkpt><trkpt lat="43.416902861412694" lon="12.062120425148793"><ele>884.0</ele><time>2026-03-22T09:12:57.272Z</time></trkpt><trkpt lat="43.416899865222305" lon="12.062215759018555"><ele>884.0</ele><time>2026-03-22T09:19:07.271Z</time></trkpt><trkpt lat="43.41695713814688" lon="12.062289367688166"><ele>884.0000000000001</ele><time>2026-03-22T09:19:09.271Z</time></trkpt><trkpt lat="43.41702001606984" lon="12.062337119684798"><ele>884.0000000000001</ele><time>2026-03-22T09:19:10.271Z</time></trkpt><trkpt lat="43.41709738753969" lon="12.062404400024786"><ele>884.0</ele><time>2026-03-22T09:19:11.27Z</time></trkpt><trkpt lat="43.417203809788596" lon="12.062535771330882"><ele>884.0</ele><time>2026-03-22T09:19:13.271Z</time></trkpt><trkpt lat="43.41726239555805" lon="12.062610859285327"><ele>884.2</ele><time>2026-03-22T09:19:14.27Z</time></trkpt><trkpt lat="43.417328739566656" lon="12.062698703566662"><ele>884.4000000000001</ele><time>2026-03-22T09:19:15.269Z</time></trkpt><trkpt lat="43.41739387601177" lon="12.06280004296459"><ele>884.6</ele><time>2026-03-22T09:19:16.271Z</time></trkpt><trkpt lat="43.41746048910989" lon="12.0629016179706"><ele>884.8</ele><time>2026-03-22T09:19:17.27Z</time></trkpt><trkpt lat="43.417541384586976" lon="12.063044198627168"><ele>885.0</ele><time>2026-03-22T09:19:18.27Z</time></trkpt><trkpt lat="43.417576624828406" lon="12.06323400547385"><ele>887.75</ele><time>2026-03-22T09:19:19.269Z</time></trkpt><trkpt lat="43.41752862455307" lon="12.063345544727659"><ele>890.5</ele><time>2026-03-22T09:19:20.269Z</time></trkpt><trkpt lat="43.41747856288046" lon="12.063508606541296"><ele>893.25</ele><time>2026-03-22T09:19:22.27Z</time></trkpt><trkpt lat="43.41760030907295" lon="12.063685252115826"><ele>896.0</ele><time>2026-03-22T09:19:23.269Z</time></trkpt><trkpt lat="43.41766266674973" lon="12.063752341024147"><ele>896.0</ele><time>2026-03-22T09:19:24.268Z</time></trkpt><trkpt lat="43.417729871454114" lon="12.063853745089268"><ele>895.9999999999999</ele><time>2026-03-22T09:19:25.27Z</time></trkpt><trkpt lat="43.41779720754431" lon="12.06398973609036"><ele>895.9999999999999</ele><time>2026-03-22T09:19:26.27Z</time></trkpt><trkpt lat="43.417794476588796" lon="12.064107299892584"><ele>896.0</ele><time>2026-03-22T09:19:27.271Z</time></trkpt><trkpt lat="43.41781040382677" lon="12.06425399933663"><ele>896.0</ele><time>2026-03-22T09:19:28.271Z</time></trkpt><trkpt lat="43.41782025909108" lon="12.06441095201172"><ele>897.4</ele><time>2026-03-22T09:19:29.262Z</time></trkpt><trkpt lat="43.41783907036519" lon="12.064575272843962"><ele>898.8</ele><time>2026-03-22T09:19:30.271Z</time></trkpt><trkpt lat="43.417849671661095" lon="12.064719682807423"><ele>900.1999999999999</ele><time>2026-03-22T09:19:31.272Z</time></trkpt><trkpt lat="43.417868237243155" lon="12.06485562482178"><ele>901.5999999999999</ele><time>2026-03-22T09:19:32.271Z</time></trkpt><trkpt lat="43.41790900875995" lon="12.064973772098504"><ele>903.0</ele><time>2026-03-22T09:19:33.272Z</time></trkpt><trkpt lat="43.417961442672954" lon="12.065054543073268"><ele>906.8</ele><time>2026-03-22T09:19:34.272Z</time></trkpt><trkpt lat="43.41801945197956" lon="12.065130100992013"><ele>910.5999999999999</ele><time>2026-03-22T09:19:35.271Z</time></trkpt><trkpt lat="43.41813833241937" lon="12.065184159590437"><ele>914.4000000000001</ele><time>2026-03-22T09:19:37.272Z</time></trkpt><trkpt lat="43.418215892512116" lon="12.06518569003887"><ele>918.2</ele><time>2026-03-22T09:19:38.273Z</time></trkpt><trkpt lat="43.41829658415079" lon="12.065162187328598"><ele>922.0</ele><time>2026-03-22T09:19:39.27Z</time></trkpt><trkpt lat="43.41838190019306" lon="12.065113114285714"><ele>922.0</ele><time>2026-03-22T09:19:40.27Z</time></trkpt><trkpt lat="43.418460773199826" lon="12.065044092376018"><ele>922.0</ele><time>2026-03-22T09:19:41.262Z</time></trkpt><trkpt lat="43.418548976268845" lon="12.064983820083498"><ele>922.0</ele><time>2026-03-22T09:19:42.277Z</time></trkpt><trkpt lat="43.41863949769332" lon="12.06496324694828"><ele>922.0</ele><time>2026-03-22T09:19:43.27Z</time></trkpt><trkpt lat="43.41873551077159" lon="12.064940776077206"><ele>922.0</ele><time>2026-03-22T09:19:44.27Z</time></trkpt><trkpt lat="43.418828542704745" lon="12.064910177556687"><ele>922.8333333333333</ele><time>2026-03-22T09:19:45.271Z</time></trkpt><trkpt lat="43.41890798081101" lon="12.064925516933606"><ele>923.6666666666666</ele><time>2026-03-22T09:19:46.27Z</time></trkpt><trkpt lat="43.41894151034766" lon="12.065019015018303"><ele>924.5</ele><time>2026-03-22T09:19:48.271Z</time></trkpt><trkpt lat="43.41890537192181" lon="12.065116117663267"><ele>925.3333333333333</ele><time>2026-03-22T09:19:50.271Z</time></trkpt><trkpt lat="43.41890794686084" lon="12.06527337840744"><ele>926.1666666666666</ele><time>2026-03-22T09:19:52.27Z</time></trkpt><trkpt lat="43.41893845641391" lon="12.065367987832454"><ele>927.0</ele><time>2026-03-22T09:19:53.27Z</time></trkpt><trkpt lat="43.418986070744104" lon="12.065458796516088"><ele>927.0</ele><time>2026-03-22T09:19:54.271Z</time></trkpt><trkpt lat="43.41904467159203" lon="12.065599667420422"><ele>927.0</ele><time>2026-03-22T09:19:55.265Z</time></trkpt><trkpt lat="43.419091652376245" lon="12.065704085382558"><ele>927.0</ele><time>2026-03-22T09:19:56.271Z</time></trkpt><trkpt lat="43.419139577970896" lon="12.065846116835758"><ele>927.0</ele><time>2026-03-22T09:19:57.271Z</time></trkpt><trkpt lat="43.419175528324324" lon="12.06596277434873"><ele>927.0</ele><time>2026-03-22T09:19:58.272Z</time></trkpt><trkpt lat="43.419180049292756" lon="12.066095997812626"><ele>929.75</ele><time>2026-03-22T09:19:59.272Z</time></trkpt><trkpt lat="43.41918425420972" lon="12.06622606742522"><ele>932.5</ele><time>2026-03-22T09:20:00.266Z</time></trkpt><trkpt lat="43.4192015072178" lon="12.066397268750752"><ele>935.25</ele><time>2026-03-22T09:20:01.271Z</time></trkpt><trkpt lat="43.41922172124122" lon="12.066590467676926"><ele>938.0</ele><time>2026-03-22T09:20:02.272Z</time></trkpt><trkpt lat="43.41924416132804" lon="12.066780782473606"><ele>938.8333333333334</ele><time>2026-03-22T09:20:03.271Z</time></trkpt><trkpt lat="43.419265050795524" lon="12.066913604520783"><ele>939.6666666666667</ele><time>2026-03-22T09:20:04.272Z</time></trkpt><trkpt lat="43.419285714706135" lon="12.067025119917252"><ele>940.5</ele><time>2026-03-22T09:20:05.273Z</time></trkpt><trkpt lat="43.4192832356953" lon="12.067112728165167"><ele>941.3333333333333</ele><time>2026-03-22T09:20:06.271Z</time></trkpt><trkpt lat="43.419288736071074" lon="12.06728249844045"><ele>942.1666666666666</ele><time>2026-03-22T09:20:08.272Z</time></trkpt><trkpt lat="43.41929813170014" lon="12.067384814770467"><ele>943.0</ele><time>2026-03-22T09:20:09.272Z</time></trkpt><trkpt lat="43.419314283318464" lon="12.067506549973482"><ele>943.0</ele><time>2026-03-22T09:20:10.271Z</time></trkpt><trkpt lat="43.41931725777228" lon="12.067648385431971"><ele>943.0</ele><time>2026-03-22T09:20:11.27Z</time></trkpt><trkpt lat="43.41930337510477" lon="12.067794384176098"><ele>943.0</ele><time>2026-03-22T09:20:12.272Z</time></trkpt><trkpt lat="43.41927901482938" lon="12.067924687681545"><ele>943.0</ele><time>2026-03-22T09:20:13.271Z</time></trkpt><trkpt lat="43.41927487514696" lon="12.068055028462759"><ele>943.0</ele><time>2026-03-22T09:20:14.272Z</time></trkpt><trkpt lat="43.4192989569896" lon="12.06818109429046"><ele>942.0</ele><time>2026-03-22T09:20:15.271Z</time></trkpt><trkpt lat="43.419332067090565" lon="12.068315477924264"><ele>941.0</ele><time>2026-03-22T09:20:16.271Z</time></trkpt><trkpt lat="43.419386788792295" lon="12.068419406534186"><ele>940.0</ele><time>2026-03-22T09:20:17.271Z</time></trkpt><trkpt lat="43.41945438374915" lon="12.06852753702491"><ele>939.0</ele><time>2026-03-22T09:20:18.272Z</time></trkpt><trkpt lat="43.419545910583814" lon="12.068634125278097"><ele>938.0</ele><time>2026-03-22T09:20:19.272Z</time></trkpt><trkpt lat="43.41963965703004" lon="12.068736932319402"><ele>937.1666666666667</ele><time>2026-03-22T09:20:20.272Z</time></trkpt><trkpt lat="43.419701776336815" lon="12.068819629844318"><ele>936.3333333333334</ele><time>2026-03-22T09:20:21.271Z</time></trkpt><trkpt lat="43.41973671678151" lon="12.068910246108569"><ele>935.5</ele><time>2026-03-22T09:20:22.271Z</time></trkpt><trkpt lat="43.41978010036356" lon="12.068995742038455"><ele>934.6666666666667</ele><time>2026-03-22T09:20:23.272Z</time></trkpt><trkpt lat="43.41983368842474" lon="12.06910076020055"><ele>933.8333333333334</ele><time>2026-03-22T09:20:24.271Z</time></trkpt><trkpt lat="43.41986656511383" lon="12.069239263491946"><ele>933.0</ele><time>2026-03-22T09:20:25.271Z</time></trkpt><trkpt lat="43.41988366105512" lon="12.06940219143224"><ele>933.0</ele><time>2026-03-22T09:20:26.272Z</time></trkpt><trkpt lat="43.41990305392454" lon="12.069544956375262"><ele>933.0</ele><time>2026-03-22T09:20:27.269Z</time></trkpt><trkpt lat="43.419949023066785" lon="12.069647198673913"><ele>933.0</ele><time>2026-03-22T09:20:28.268Z</time></trkpt><trkpt lat="43.42002045927116" lon="12.06973722546696"><ele>933.0</ele><time>2026-03-22T09:20:29.27Z</time></trkpt><trkpt lat="43.42010562051535" lon="12.069802612476238"><ele>933.0</ele><time>2026-03-22T09:20:30.269Z</time></trkpt><trkpt lat="43.420204688365736" lon="12.069862778220255"><ele>934.0</ele><time>2026-03-22T09:20:31.269Z</time></trkpt><trkpt lat="43.42025898595528" lon="12.069964256880528"><ele>935.0</ele><time>2026-03-22T09:20:32.271Z</time></trkpt><trkpt lat="43.42029655923221" lon="12.070093970309658"><ele>936.0</ele><time>2026-03-22T09:20:33.271Z</time></trkpt><trkpt lat="43.42036092439925" lon="12.07024247838844"><ele>937.0</ele><time>2026-03-22T09:20:34.271Z</time></trkpt><trkpt lat="43.4204229519836" lon="12.070384847491773"><ele>938.0</ele><time>2026-03-22T09:20:35.271Z</time></trkpt><trkpt lat="43.42046590699611" lon="12.070531575277007"><ele>936.2</ele><time>2026-03-22T09:20:36.272Z</time></trkpt><trkpt lat="43.42051483943814" lon="12.070645380049344"><ele>934.4</ele><time>2026-03-22T09:20:37.271Z</time></trkpt><trkpt lat="43.42055361544951" lon="12.07075144949821"><ele>932.6000000000001</ele><time>2026-03-22T09:20:38.271Z</time></trkpt><trkpt lat="43.42060672599071" lon="12.070872179076948"><ele>930.8000000000001</ele><time>2026-03-22T09:20:39.271Z</time></trkpt><trkpt lat="43.420657685606635" lon="12.07100202677722"><ele>929.0</ele><time>2026-03-22T09:20:40.272Z</time></trkpt><trkpt lat="43.420700855546905" lon="12.071109703452041"><ele>929.0000000000001</ele><time>2026-03-22T09:20:41.27Z</time></trkpt><trkpt lat="43.420763751014086" lon="12.071195763040103"><ele>929.0</ele><time>2026-03-22T09:20:42.27Z</time></trkpt><trkpt lat="43.42084955633403" lon="12.071267950195274"><ele>929.0</ele><time>2026-03-22T09:20:43.27Z</time></trkpt><trkpt lat="43.42093666758" lon="12.071322194982876"><ele>929.0</ele><time>2026-03-22T09:20:44.269Z</time></trkpt><trkpt lat="43.42100113849093" lon="12.071368340575281"><ele>929.0000000000001</ele><time>2026-03-22T09:20:45.271Z</time></trkpt><trkpt lat="43.4210513395208" lon="12.071435969839506"><ele>929.0</ele><time>2026-03-22T09:20:46.269Z</time></trkpt><trkpt lat="43.421110127459684" lon="12.07151553807171"><ele>929.0000000000001</ele><time>2026-03-22T09:20:47.27Z</time></trkpt><trkpt lat="43.42118246200785" lon="12.071590646335572"><ele>929.0</ele><time>2026-03-22T09:20:48.272Z</time></trkpt><trkpt lat="43.42125397334052" lon="12.071635271119934"><ele>929.0</ele><time>2026-03-22T09:20:49.272Z</time></trkpt><trkpt lat="43.421320474734415" lon="12.071687825767588"><ele>929.0</ele><time>2026-03-22T09:20:50.272Z</time></trkpt><trkpt lat="43.42139276407773" lon="12.071726936484648"><ele>929.0000000000001</ele><time>2026-03-22T09:20:51.272Z</time></trkpt><trkpt lat="43.421490775492664" lon="12.07176756767983"><ele>929.0</ele><time>2026-03-22T09:20:52.272Z</time></trkpt><trkpt lat="43.421604375131984" lon="12.071803042790616"><ele>929.0</ele><time>2026-03-22T09:20:53.271Z</time></trkpt><trkpt lat="43.42171665252433" lon="12.0718456342007"><ele>929.0000000000001</ele><time>2026-03-22T09:20:54.271Z</time></trkpt><trkpt lat="43.42181668002454" lon="12.071906015839607"><ele>929.0000000000001</ele><time>2026-03-22T09:20:55.27Z</time></trkpt><trkpt lat="43.42190311627859" lon="12.071967205692225"><ele>929.0</ele><time>2026-03-22T09:20:56.269Z</time></trkpt><trkpt lat="43.421971693172715" lon="12.072012180026078"><ele>929.0</ele><time>2026-03-22T09:20:57.27Z</time></trkpt><trkpt lat="43.422036608667" lon="12.072066223523441"><ele>929.0</ele><time>2026-03-22T09:20:58.268Z</time></trkpt><trkpt lat="43.422126145109026" lon="12.072131241050057"><ele>929.0000000000001</ele><time>2026-03-22T09:20:59.27Z</time></trkpt><trkpt lat="43.42221576941129" lon="12.072192004808642"><ele>929.0000000000001</ele><time>2026-03-22T09:21:00.269Z</time></trkpt><trkpt lat="43.42230798620789" lon="12.072231734787504"><ele>929.0</ele><time>2026-03-22T09:21:01.265Z</time></trkpt><trkpt lat="43.42239813304732" lon="12.072257736955468"><ele>929.0</ele><time>2026-03-22T09:21:02.271Z</time></trkpt><trkpt lat="43.42248293356618" lon="12.072290907307321"><ele>928.8333333333334</ele><time>2026-03-22T09:21:03.271Z</time></trkpt><trkpt lat="43.42256099990804" lon="12.072345052822316"><ele>928.6666666666667</ele><time>2026-03-22T09:21:04.272Z</time></trkpt><trkpt lat="43.42262818392227" lon="12.072426523513842"><ele>928.5</ele><time>2026-03-22T09:21:05.27Z</time></trkpt><trkpt lat="43.42270380966721" lon="12.072510891099805"><ele>928.3333333333333</ele><time>2026-03-22T09:21:06.27Z</time></trkpt><trkpt lat="43.42276553118286" lon="12.072583458675282"><ele>928.1666666666666</ele><time>2026-03-22T09:21:07.27Z</time></trkpt><trkpt lat="43.42282783464403" lon="12.07264303600854"><ele>928.0</ele><time>2026-03-22T09:21:08.271Z</time></trkpt><trkpt lat="43.42290073118395" lon="12.07270251568637"><ele>926.8</ele><time>2026-03-22T09:21:09.27Z</time></trkpt><trkpt lat="43.422979057269295" lon="12.072768346690447"><ele>925.5999999999999</ele><time>2026-03-22T09:21:10.27Z</time></trkpt><trkpt lat="43.42303248471135" lon="12.072832572718204"><ele>924.4000000000001</ele><time>2026-03-22T09:21:11.271Z</time></trkpt><trkpt lat="43.423095660813104" lon="12.07291782319178"><ele>923.2</ele><time>2026-03-22T09:21:12.263Z</time></trkpt><trkpt lat="43.42315815239959" lon="12.073022722777003"><ele>922.0</ele><time>2026-03-22T09:21:13.272Z</time></trkpt><trkpt lat="43.42323112627837" lon="12.073123890482288"><ele>921.75</ele><time>2026-03-22T09:21:14.272Z</time></trkpt><trkpt lat="43.42330592439951" lon="12.073203475502224"><ele>921.5</ele><time>2026-03-22T09:21:15.272Z</time></trkpt><trkpt lat="43.42338215788948" lon="12.073264088799116"><ele>921.25</ele><time>2026-03-22T09:21:16.271Z</time></trkpt><trkpt lat="43.423519857724415" lon="12.073427381593723"><ele>921.0</ele><time>2026-03-22T09:21:18.271Z</time></trkpt><trkpt lat="43.423590511352124" lon="12.073499331709995"><ele>919.8</ele><time>2026-03-22T09:21:19.271Z</time></trkpt><trkpt lat="43.42364184687396" lon="12.073550275028373"><ele>918.5999999999999</ele><time>2026-03-22T09:21:20.271Z</time></trkpt><trkpt lat="43.42374190752283" lon="12.07362168791564"><ele>917.4</ele><time>2026-03-22T09:21:22.271Z</time></trkpt><trkpt lat="43.423822414650985" lon="12.073619815796386"><ele>916.2</ele><time>2026-03-22T09:21:23.27Z</time></trkpt><trkpt lat="43.42392550833642" lon="12.073612620439594"><ele>915.0</ele><time>2026-03-22T09:21:24.272Z</time></trkpt><trkpt lat="43.424030082671756" lon="12.073610962302421"><ele>913.0</ele><time>2026-03-22T09:21:25.271Z</time></trkpt><trkpt lat="43.424135857548706" lon="12.073636658516028"><ele>911.0</ele><time>2026-03-22T09:21:26.272Z</time></trkpt><trkpt lat="43.424238437315616" lon="12.073666210009877"><ele>909.0</ele><time>2026-03-22T09:21:27.271Z</time></trkpt><trkpt lat="43.42432267572821" lon="12.073693874733626"><ele>907.0</ele><time>2026-03-22T09:21:28.272Z</time></trkpt><trkpt lat="43.42440889400542" lon="12.073717427987944"><ele>905.0</ele><time>2026-03-22T09:21:29.271Z</time></trkpt><trkpt lat="43.42449061655621" lon="12.073731461613404"><ele>905.0000000000001</ele><time>2026-03-22T09:21:30.272Z</time></trkpt><trkpt lat="43.42457489794339" lon="12.073741346550637"><ele>905.0</ele><time>2026-03-22T09:21:31.271Z</time></trkpt><trkpt lat="43.42467341450521" lon="12.073762053825108"><ele>905.0</ele><time>2026-03-22T09:21:32.272Z</time></trkpt><trkpt lat="43.42473653425048" lon="12.073774736688229"><ele>905.0</ele><time>2026-03-22T09:21:33.271Z</time></trkpt><trkpt lat="43.424815749023566" lon="12.07379067991852"><ele>905.0000000000001</ele><time>2026-03-22T09:21:34.271Z</time></trkpt><trkpt lat="43.42491412133033" lon="12.073854399516865"><ele>905.0</ele><time>2026-03-22T09:21:36.271Z</time></trkpt><trkpt lat="43.425030768565286" lon="12.073946145586415"><ele>902.8333333333334</ele><time>2026-03-22T09:21:38.271Z</time></trkpt><trkpt lat="43.42508004400882" lon="12.074011621485761"><ele>900.6666666666667</ele><time>2026-03-22T09:21:39.271Z</time></trkpt><trkpt lat="43.425120264394906" lon="12.07407851821755"><ele>898.5</ele><time>2026-03-22T09:21:40.266Z</time></trkpt><trkpt lat="43.42520085827934" lon="12.074206193991552"><ele>896.3333333333333</ele><time>2026-03-22T09:21:42.272Z</time></trkpt><trkpt lat="43.42524642033992" lon="12.07428415553272"><ele>894.1666666666666</ele><time>2026-03-22T09:21:43.271Z</time></trkpt><trkpt lat="43.425291722975736" lon="12.074360286972611"><ele>892.0</ele><time>2026-03-22T09:21:44.271Z</time></trkpt><trkpt lat="43.42532730998417" lon="12.07444144878559"><ele>891.9999999999999</ele><time>2026-03-22T09:21:45.271Z</time></trkpt><trkpt lat="43.42537779535193" lon="12.074532718808145"><ele>892.0</ele><time>2026-03-22T09:21:46.271Z</time></trkpt><trkpt lat="43.42541994799246" lon="12.074623348799362"><ele>892.0</ele><time>2026-03-22T09:21:47.271Z</time></trkpt><trkpt lat="43.425498371660154" lon="12.074763456333507"><ele>892.0</ele><time>2026-03-22T09:21:49.271Z</time></trkpt><trkpt lat="43.42553481351255" lon="12.07485582498336"><ele>891.9999999999999</ele><time>2026-03-22T09:21:50.271Z</time></trkpt><trkpt lat="43.425563855150386" lon="12.074956093134483"><ele>892.0</ele><time>2026-03-22T09:21:51.272Z</time></trkpt><trkpt lat="43.425598626306446" lon="12.075086479668853"><ele>888.1666666666666</ele><time>2026-03-22T09:21:52.271Z</time></trkpt><trkpt lat="43.42561377529682" lon="12.075182594510807"><ele>884.3333333333333</ele><time>2026-03-22T09:21:53.271Z</time></trkpt><trkpt lat="43.42565803133335" lon="12.075312696978235"><ele>880.5</ele><time>2026-03-22T09:21:55.272Z</time></trkpt><trkpt lat="43.42573428926607" lon="12.075326191206823"><ele>876.6666666666667</ele><time>2026-03-22T09:21:56.272Z</time></trkpt><trkpt lat="43.425838336644006" lon="12.075353661556381"><ele>872.8333333333334</ele><time>2026-03-22T09:21:57.271Z</time></trkpt><trkpt lat="43.42591539931019" lon="12.075398691504404"><ele>869.0</ele><time>2026-03-22T09:21:58.271Z</time></trkpt><trkpt lat="43.42597887277023" lon="12.07547369651185"><ele>869.0000000000001</ele><time>2026-03-22T09:21:59.272Z</time></trkpt><trkpt lat="43.42605264616025" lon="12.075529797217282"><ele>869.0</ele><time>2026-03-22T09:22:00.273Z</time></trkpt><trkpt lat="43.42615961040139" lon="12.075569582753241"><ele>869.0</ele><time>2026-03-22T09:22:01.272Z</time></trkpt><trkpt lat="43.4262480154269" lon="12.075594271277149"><ele>869.0</ele><time>2026-03-22T09:22:02.272Z</time></trkpt><trkpt lat="43.42632144355354" lon="12.075613195361909"><ele>869.0000000000001</ele><time>2026-03-22T09:22:03.271Z</time></trkpt><trkpt lat="43.426398097611916" lon="12.075637408243255"><ele>869.0</ele><time>2026-03-22T09:22:04.274Z</time></trkpt><trkpt lat="43.42650067375091" lon="12.075651481289936"><ele>867.0000000000001</ele><time>2026-03-22T09:22:05.271Z</time></trkpt><trkpt lat="43.42659681761166" lon="12.075670486870441"><ele>865.0</ele><time>2026-03-22T09:22:06.265Z</time></trkpt><trkpt lat="43.426675553807996" lon="12.075710089607107"><ele>863.0</ele><time>2026-03-22T09:22:07.271Z</time></trkpt><trkpt lat="43.42675212680968" lon="12.075756746445077"><ele>861.0</ele><time>2026-03-22T09:22:08.271Z</time></trkpt><trkpt lat="43.42680975649425" lon="12.075820206557667"><ele>859.0000000000001</ele><time>2026-03-22T09:22:09.271Z</time></trkpt><trkpt lat="43.4268364259283" lon="12.075900194153126"><ele>857.0</ele><time>2026-03-22T09:22:10.271Z</time></trkpt><trkpt lat="43.42685371342805" lon="12.07600851383549"><ele>857.0</ele><time>2026-03-22T09:22:12.271Z</time></trkpt><trkpt lat="43.42694668975257" lon="12.076041089531802"><ele>857.0</ele><time>2026-03-22T09:22:14.271Z</time></trkpt><trkpt lat="43.4270233413083" lon="12.07603448273153"><ele>857.0</ele><time>2026-03-22T09:22:15.272Z</time></trkpt><trkpt lat="43.42711617930033" lon="12.076019628035903"><ele>857.0</ele><time>2026-03-22T09:22:16.271Z</time></trkpt><trkpt lat="43.427230667487606" lon="12.076017955971347"><ele>857.0</ele><time>2026-03-22T09:22:17.272Z</time></trkpt><trkpt lat="43.42736050460868" lon="12.076031796452531"><ele>855.5</ele><time>2026-03-22T09:22:18.263Z</time></trkpt><trkpt lat="43.427515740220876" lon="12.076059929900632"><ele>854.0</ele><time>2026-03-22T09:22:19.271Z</time></trkpt><trkpt lat="43.42765321642503" lon="12.0760982625534"><ele>852.5</ele><time>2026-03-22T09:22:20.272Z</time></trkpt><trkpt lat="43.42776833328011" lon="12.076134797408992"><ele>851.0</ele><time>2026-03-22T09:22:21.271Z</time></trkpt><trkpt lat="43.427892956226685" lon="12.076171443862728"><ele>849.25</ele><time>2026-03-22T09:22:22.272Z</time></trkpt><trkpt lat="43.428051206752826" lon="12.076197550984864"><ele>847.5</ele><time>2026-03-22T09:22:23.27Z</time></trkpt><trkpt lat="43.42818824096833" lon="12.076246464994885"><ele>845.75</ele><time>2026-03-22T09:22:24.264Z</time></trkpt><trkpt lat="43.42830126261732" lon="12.07628594637601"><ele>844.0</ele><time>2026-03-22T09:22:25.273Z</time></trkpt><trkpt lat="43.42840252804796" lon="12.07630986696954"><ele>844.0</ele><time>2026-03-22T09:22:26.272Z</time></trkpt><trkpt lat="43.428493504343" lon="12.07632503211439"><ele>844.0</ele><time>2026-03-22T09:22:27.272Z</time></trkpt><trkpt lat="43.42858793653156" lon="12.0763374393547"><ele>844.0</ele><time>2026-03-22T09:22:28.272Z</time></trkpt><trkpt lat="43.42868310855444" lon="12.076348858320786"><ele>844.0</ele><time>2026-03-22T09:22:29.272Z</time></trkpt><trkpt lat="43.4287859738135" lon="12.076367242686228"><ele>844.0</ele><time>2026-03-22T09:22:30.271Z</time></trkpt><trkpt lat="43.428890310340705" lon="12.076402515677271"><ele>843.2</ele><time>2026-03-22T09:22:31.271Z</time></trkpt><trkpt lat="43.42899221893105" lon="12.076458571603435"><ele>842.4000000000001</ele><time>2026-03-22T09:22:32.271Z</time></trkpt><trkpt lat="43.429067956327856" lon="12.076526611277721"><ele>841.6</ele><time>2026-03-22T09:22:33.271Z</time></trkpt><trkpt lat="43.42911588347092" lon="12.076589237071616"><ele>840.8</ele><time>2026-03-22T09:22:34.271Z</time></trkpt><trkpt lat="43.42919399502128" lon="12.07666773553313"><ele>840.0</ele><time>2026-03-22T09:22:36.273Z</time></trkpt><trkpt lat="43.429284123966625" lon="12.076604344078046"><ele>840.0</ele><time>2026-03-22T09:22:41.265Z</time></trkpt><trkpt lat="43.429289235940246" lon="12.07651088908406"><ele>840.0</ele><time>2026-03-22T09:22:44.27Z</time></trkpt><trkpt lat="43.429186679591446" lon="12.076494086579707"><ele>840.0</ele><time>2026-03-22T09:22:47.271Z</time></trkpt><trkpt lat="43.42910789275159" lon="12.076548286513603"><ele>840.0</ele><time>2026-03-22T09:22:49.271Z</time></trkpt><trkpt lat="43.42911852640634" lon="12.076636874984134"><ele>840.0</ele><time>2026-03-22T09:22:51.271Z</time></trkpt><trkpt lat="43.42918089191214" lon="12.076679612663295"><ele>840.0</ele><time>2026-03-22T09:22:53.27Z</time></trkpt><trkpt lat="43.42926781128108" lon="12.076707311753369"><ele>840.0</ele><time>2026-03-22T09:22:55.272Z</time></trkpt><trkpt lat="43.42923881207447" lon="12.076823311731049"><ele>840.0</ele><time>2026-03-22T09:22:59.271Z</time></trkpt><trkpt lat="43.429171922530195" lon="12.076756522764914"><ele>840.0</ele><time>2026-03-22T09:23:01.265Z</time></trkpt><trkpt lat="43.42914053671315" lon="12.076669802349043"><ele>840.0</ele><time>2026-03-22T09:23:03.272Z</time></trkpt><trkpt lat="43.42909538338726" lon="12.076602542003368"><ele>840.0</ele><time>2026-03-22T09:23:18.271Z</time></trkpt><trkpt lat="43.42914926076876" lon="12.07669451517712"><ele>840.0</ele><time>2026-03-22T09:23:26.271Z</time></trkpt><trkpt lat="43.42918641983932" lon="12.076784738512353"><ele>842.6</ele><time>2026-03-22T09:23:28.273Z</time></trkpt><trkpt lat="43.42917960649244" lon="12.076941066559131"><ele>845.2</ele><time>2026-03-22T09:23:30.269Z</time></trkpt><trkpt lat="43.42918663857672" lon="12.077031592278257"><ele>847.8</ele><time>2026-03-22T09:23:31.272Z</time></trkpt><trkpt lat="43.4292142168919" lon="12.077204923848702"><ele>850.4</ele><time>2026-03-22T09:23:33.27Z</time></trkpt><trkpt lat="43.42923326046071" lon="12.077298770471218"><ele>853.0</ele><time>2026-03-22T09:23:34.269Z</time></trkpt><trkpt lat="43.42926379916107" lon="12.077399424062765"><ele>853.2</ele><time>2026-03-22T09:23:35.27Z</time></trkpt><trkpt lat="43.429278279974405" lon="12.077501341236006"><ele>853.4</ele><time>2026-03-22T09:23:36.268Z</time></trkpt><trkpt lat="43.42928967267457" lon="12.077626977002016"><ele>853.6000000000001</ele><time>2026-03-22T09:23:37.268Z</time></trkpt><trkpt lat="43.42927985460003" lon="12.07776083042502"><ele>853.8000000000001</ele><time>2026-03-22T09:23:38.27Z</time></trkpt><trkpt lat="43.429267299735436" lon="12.077895364723783"><ele>854.0</ele><time>2026-03-22T09:23:39.267Z</time></trkpt><trkpt lat="43.4292643418324" lon="12.078036718641801"><ele>854.0</ele><time>2026-03-22T09:23:40.269Z</time></trkpt><trkpt lat="43.42926550775306" lon="12.07817589834486"><ele>854.0000000000001</ele><time>2026-03-22T09:23:41.268Z</time></trkpt><trkpt lat="43.429274589322596" lon="12.078319079317103"><ele>854.0000000000001</ele><time>2026-03-22T09:23:42.27Z</time></trkpt><trkpt lat="43.42929463894614" lon="12.078453626084245"><ele>854.0</ele><time>2026-03-22T09:23:43.269Z</time></trkpt><trkpt lat="43.429314876270425" lon="12.078588576526416"><ele>854.0</ele><time>2026-03-22T09:23:44.271Z</time></trkpt><trkpt lat="43.429351374210746" lon="12.078718662681043"><ele>853.25</ele><time>2026-03-22T09:23:45.269Z</time></trkpt><trkpt lat="43.42941285321294" lon="12.07884908397497"><ele>852.5</ele><time>2026-03-22T09:23:46.268Z</time></trkpt><trkpt lat="43.42948443025589" lon="12.078985093792273"><ele>851.75</ele><time>2026-03-22T09:23:47.27Z</time></trkpt><trkpt lat="43.429570979631" lon="12.079125919676777"><ele>851.0</ele><time>2026-03-22T09:23:48.268Z</time></trkpt><trkpt lat="43.429654598981514" lon="12.079233427026567"><ele>853.4</ele><time>2026-03-22T09:23:49.27Z</time></trkpt><trkpt lat="43.42971133396655" lon="12.07934713254341"><ele>855.8</ele><time>2026-03-22T09:23:50.268Z</time></trkpt><trkpt lat="43.4297351009139" lon="12.079489909425595"><ele>858.1999999999999</ele><time>2026-03-22T09:23:51.266Z</time></trkpt><trkpt lat="43.42974673639669" lon="12.079639865574682"><ele>860.5999999999999</ele><time>2026-03-22T09:23:52.268Z</time></trkpt><trkpt lat="43.42977822371007" lon="12.079773373772909"><ele>863.0</ele><time>2026-03-22T09:23:53.268Z</time></trkpt><trkpt lat="43.42983757591292" lon="12.079905455831893"><ele>861.8</ele><time>2026-03-22T09:23:54.266Z</time></trkpt><trkpt lat="43.42990184256532" lon="12.080028242870164"><ele>860.5999999999999</ele><time>2026-03-22T09:23:55.268Z</time></trkpt><trkpt lat="43.42995537653045" lon="12.080138703630892"><ele>859.4000000000001</ele><time>2026-03-22T09:23:56.266Z</time></trkpt><trkpt lat="43.42998207236373" lon="12.08026827454502"><ele>858.2</ele><time>2026-03-22T09:23:57.266Z</time></trkpt><trkpt lat="43.43000664840477" lon="12.080420614096326"><ele>857.0</ele><time>2026-03-22T09:23:58.269Z</time></trkpt><trkpt lat="43.43004271953245" lon="12.08055247332803"><ele>857.0</ele><time>2026-03-22T09:23:59.268Z</time></trkpt><trkpt lat="43.43008519732718" lon="12.080666032917906"><ele>857.0</ele><time>2026-03-22T09:24:00.268Z</time></trkpt><trkpt lat="43.43014233893176" lon="12.080752178506781"><ele>857.0</ele><time>2026-03-22T09:24:01.268Z</time></trkpt><trkpt lat="43.43022561820023" lon="12.080815239325435"><ele>857.0</ele><time>2026-03-22T09:24:02.268Z</time></trkpt><trkpt lat="43.43033074534995" lon="12.08086547409518"><ele>857.0</ele><time>2026-03-22T09:24:03.267Z</time></trkpt><trkpt lat="43.430400632497594" lon="12.08092586320327"><ele>856.8</ele><time>2026-03-22T09:24:04.267Z</time></trkpt><trkpt lat="43.43043902255691" lon="12.081017787347673"><ele>856.6</ele><time>2026-03-22T09:24:05.268Z</time></trkpt><trkpt lat="43.43042996977486" lon="12.08112361705293"><ele>856.3999999999999</ele><time>2026-03-22T09:24:06.266Z</time></trkpt><trkpt lat="43.43039300240779" lon="12.081224408862306"><ele>856.1999999999999</ele><time>2026-03-22T09:24:07.262Z</time></trkpt><trkpt lat="43.430343816080835" lon="12.081328240680433"><ele>856.0</ele><time>2026-03-22T09:24:08.266Z</time></trkpt><trkpt lat="43.43025907366894" lon="12.081451778643864"><ele>856.0</ele><time>2026-03-22T09:24:09.266Z</time></trkpt><trkpt lat="43.43015576481136" lon="12.081584731071755"><ele>856.0</ele><time>2026-03-22T09:24:10.266Z</time></trkpt><trkpt lat="43.43005158275263" lon="12.08171808132476"><ele>856.0</ele><time>2026-03-22T09:24:11.266Z</time></trkpt><trkpt lat="43.429989890722084" lon="12.081837554073939"><ele>856.0</ele><time>2026-03-22T09:24:12.268Z</time></trkpt><trkpt lat="43.42997542393031" lon="12.081967406473627"><ele>856.0</ele><time>2026-03-22T09:24:13.269Z</time></trkpt><trkpt lat="43.42999954343916" lon="12.082101092289466"><ele>855.9999999999999</ele><time>2026-03-22T09:24:14.271Z</time></trkpt><trkpt lat="43.43005149432085" lon="12.08221523279045"><ele>855.9999999999999</ele><time>2026-03-22T09:24:15.271Z</time></trkpt><trkpt lat="43.43011833332029" lon="12.082316411556466"><ele>856.0</ele><time>2026-03-22T09:24:16.272Z</time></trkpt><trkpt lat="43.43020474514782" lon="12.082379677103406"><ele>856.0</ele><time>2026-03-22T09:24:17.27Z</time></trkpt><trkpt lat="43.43030520467099" lon="12.082393717381843"><ele>856.0</ele><time>2026-03-22T09:24:18.27Z</time></trkpt><trkpt lat="43.43042968580642" lon="12.082393528832153"><ele>855.9999999999999</ele><time>2026-03-22T09:24:19.269Z</time></trkpt><trkpt lat="43.430544267879085" lon="12.082396700689465"><ele>855.9999999999999</ele><time>2026-03-22T09:24:20.269Z</time></trkpt><trkpt lat="43.43064851044123" lon="12.082397763167181"><ele>856.0</ele><time>2026-03-22T09:24:21.262Z</time></trkpt><trkpt lat="43.430732126343635" lon="12.082397038541089"><ele>856.0</ele><time>2026-03-22T09:24:22.269Z</time></trkpt><trkpt lat="43.43080562233512" lon="12.082448751335301"><ele>857.9999999999999</ele><time>2026-03-22T09:24:23.268Z</time></trkpt><trkpt lat="43.43084846223116" lon="12.082553301803205"><ele>860.0</ele><time>2026-03-22T09:24:24.268Z</time></trkpt><trkpt lat="43.43085886910573" lon="12.082674005647617"><ele>862.0</ele><time>2026-03-22T09:24:25.259Z</time></trkpt><trkpt lat="43.43084107302169" lon="12.082804550177743"><ele>864.0</ele><time>2026-03-22T09:24:26.268Z</time></trkpt><trkpt lat="43.43080364191089" lon="12.082917165207965"><ele>865.9999999999999</ele><time>2026-03-22T09:24:27.267Z</time></trkpt><trkpt lat="43.43078296647264" lon="12.08303198257946"><ele>868.0</ele><time>2026-03-22T09:24:28.267Z</time></trkpt><trkpt lat="43.430796324552624" lon="12.083161073791612"><ele>865.4</ele><time>2026-03-22T09:24:29.269Z</time></trkpt><trkpt lat="43.430834297350465" lon="12.083303278487845"><ele>862.8</ele><time>2026-03-22T09:24:30.269Z</time></trkpt><trkpt lat="43.4308963079387" lon="12.083434354726718"><ele>860.2</ele><time>2026-03-22T09:24:31.269Z</time></trkpt><trkpt lat="43.43097140745244" lon="12.083550940725324"><ele>857.6</ele><time>2026-03-22T09:24:32.269Z</time></trkpt><trkpt lat="43.431059481915" lon="12.083629559816611"><ele>855.0</ele><time>2026-03-22T09:24:33.268Z</time></trkpt><trkpt lat="43.43115116217836" lon="12.083692317084717"><ele>855.0</ele><time>2026-03-22T09:24:34.268Z</time></trkpt><trkpt lat="43.43124632726477" lon="12.083778550074832"><ele>855.0</ele><time>2026-03-22T09:24:35.269Z</time></trkpt><trkpt lat="43.43133557449981" lon="12.083863798850308"><ele>855.0</ele><time>2026-03-22T09:24:36.271Z</time></trkpt><trkpt lat="43.431430502902685" lon="12.083955715668758"><ele>855.0</ele><time>2026-03-22T09:24:37.269Z</time></trkpt><trkpt lat="43.431534999774804" lon="12.084063160083183"><ele>854.75</ele><time>2026-03-22T09:24:38.267Z</time></trkpt><trkpt lat="43.43162610501579" lon="12.084199196231188"><ele>854.5</ele><time>2026-03-22T09:24:39.269Z</time></trkpt><trkpt lat="43.431710018370296" lon="12.084339609239615"><ele>854.25</ele><time>2026-03-22T09:24:40.27Z</time></trkpt><trkpt lat="43.43179268305097" lon="12.084457871031796"><ele>854.0</ele><time>2026-03-22T09:24:41.262Z</time></trkpt><trkpt lat="43.43185676927743" lon="12.084554366625005"><ele>854.0</ele><time>2026-03-22T09:24:42.268Z</time></trkpt><trkpt lat="43.43188734398234" lon="12.084656330380492"><ele>854.0000000000001</ele><time>2026-03-22T09:24:43.263Z</time></trkpt><trkpt lat="43.431901980313924" lon="12.084776049891607"><ele>854.0000000000001</ele><time>2026-03-22T09:24:44.27Z</time></trkpt><trkpt lat="43.43191808383663" lon="12.08492375819569"><ele>854.0</ele><time>2026-03-22T09:24:45.269Z</time></trkpt><trkpt lat="43.431951830307256" lon="12.085060885967822"><ele>854.0</ele><time>2026-03-22T09:24:46.269Z</time></trkpt><trkpt lat="43.43199337997566" lon="12.085199268617764"><ele>853.25</ele><time>2026-03-22T09:24:47.268Z</time></trkpt><trkpt lat="43.432030888434085" lon="12.085343096586914"><ele>852.5</ele><time>2026-03-22T09:24:48.271Z</time></trkpt><trkpt lat="43.432076139580985" lon="12.085522322086918"><ele>851.75</ele><time>2026-03-22T09:24:49.268Z</time></trkpt><trkpt lat="43.43214500848361" lon="12.085734643412446"><ele>851.0</ele><time>2026-03-22T09:24:50.269Z</time></trkpt><trkpt lat="43.432226135767365" lon="12.08595629479537"><ele>851.0</ele><time>2026-03-22T09:24:51.266Z</time></trkpt><trkpt lat="43.43231515747801" lon="12.086191510678503"><ele>851.0</ele><time>2026-03-22T09:24:52.268Z</time></trkpt><trkpt lat="43.43240072652278" lon="12.086387279884242"><ele>851.0</ele><time>2026-03-22T09:24:53.268Z</time></trkpt><trkpt lat="43.43246783233077" lon="12.086581560309511"><ele>849.75</ele><time>2026-03-22T09:24:54.267Z</time></trkpt><trkpt lat="43.43253409744857" lon="12.086761843453667"><ele>848.5</ele><time>2026-03-22T09:24:55.262Z</time></trkpt><trkpt lat="43.432585546035774" lon="12.08695208004456"><ele>847.25</ele><time>2026-03-22T09:24:56.271Z</time></trkpt><trkpt lat="43.432624637144315" lon="12.087118527779548"><ele>846.0</ele><time>2026-03-22T09:24:57.27Z</time></trkpt><trkpt lat="43.43266562987979" lon="12.087269933110239"><ele>846.0</ele><time>2026-03-22T09:24:58.268Z</time></trkpt><trkpt lat="43.432704970132406" lon="12.0874044902185"><ele>846.0</ele><time>2026-03-22T09:24:59.268Z</time></trkpt><trkpt lat="43.4327549469936" lon="12.087534318263494"><ele>846.0</ele><time>2026-03-22T09:25:00.262Z</time></trkpt><trkpt lat="43.432858802645235" lon="12.087662956654809"><ele>846.0</ele><time>2026-03-22T09:25:01.261Z</time></trkpt><trkpt lat="43.43291450633297" lon="12.087802508491192"><ele>845.8</ele><time>2026-03-22T09:25:02.268Z</time></trkpt><trkpt lat="43.43296765818012" lon="12.087911294443929"><ele>845.5999999999999</ele><time>2026-03-22T09:25:03.269Z</time></trkpt><trkpt lat="43.4330541853874" lon="12.087999272001067"><ele>845.4</ele><time>2026-03-22T09:25:04.269Z</time></trkpt><trkpt lat="43.433149825905495" lon="12.088070057211121"><ele>845.2</ele><time>2026-03-22T09:25:05.27Z</time></trkpt><trkpt lat="43.43325676907024" lon="12.088105506653267"><ele>845.0</ele><time>2026-03-22T09:25:06.27Z</time></trkpt><trkpt lat="43.43336510517331" lon="12.088136937497246"><ele>845.0</ele><time>2026-03-22T09:25:07.269Z</time></trkpt><trkpt lat="43.433483919404104" lon="12.088146115996253"><ele>845.0</ele><time>2026-03-22T09:25:08.271Z</time></trkpt><trkpt lat="43.43359338770643" lon="12.088131371563051"><ele>845.0</ele><time>2026-03-22T09:25:09.269Z</time></trkpt><trkpt lat="43.43369840815905" lon="12.088095556001912"><ele>845.0</ele><time>2026-03-22T09:25:10.269Z</time></trkpt><trkpt lat="43.43380203900124" lon="12.088055245942867"><ele>845.0</ele><time>2026-03-22T09:25:11.27Z</time></trkpt><trkpt lat="43.433904557820746" lon="12.088026417658003"><ele>842.5</ele><time>2026-03-22T09:25:12.269Z</time></trkpt><trkpt lat="43.43401649193035" lon="12.088020145068969"><ele>840.0</ele><time>2026-03-22T09:25:13.269Z</time></trkpt><trkpt lat="43.43413639081003" lon="12.088058601796568"><ele>837.5</ele><time>2026-03-22T09:25:14.268Z</time></trkpt><trkpt lat="43.43424999177225" lon="12.088084735860583"><ele>835.0</ele><time>2026-03-22T09:25:15.269Z</time></trkpt><trkpt lat="43.43436544324428" lon="12.088066349419076"><ele>835.0</ele><time>2026-03-22T09:25:16.271Z</time></trkpt><trkpt lat="43.434479310456716" lon="12.088034023211423"><ele>835.0</ele><time>2026-03-22T09:25:17.269Z</time></trkpt><trkpt lat="43.43459042209978" lon="12.08802261890722"><ele>835.0</ele><time>2026-03-22T09:25:18.269Z</time></trkpt><trkpt lat="43.43469817369507" lon="12.088002928556092"><ele>835.0</ele><time>2026-03-22T09:25:19.263Z</time></trkpt><trkpt lat="43.43479659237437" lon="12.088003052464313"><ele>835.0</ele><time>2026-03-22T09:25:20.268Z</time></trkpt><trkpt lat="43.43488687185674" lon="12.088038403061692"><ele>831.25</ele><time>2026-03-22T09:25:21.268Z</time></trkpt><trkpt lat="43.43497614178187" lon="12.088061428448315"><ele>827.5</ele><time>2026-03-22T09:25:22.269Z</time></trkpt><trkpt lat="43.43505592555229" lon="12.08812776529952"><ele>823.75</ele><time>2026-03-22T09:25:23.269Z</time></trkpt><trkpt lat="43.435151565690234" lon="12.088238060689807"><ele>820.0</ele><time>2026-03-22T09:25:24.271Z</time></trkpt><trkpt lat="43.435251405662946" lon="12.088381330721871"><ele>814.5</ele><time>2026-03-22T09:25:25.269Z</time></trkpt><trkpt lat="43.43536339849201" lon="12.088508128449956"><ele>809.0</ele><time>2026-03-22T09:25:26.267Z</time></trkpt><trkpt lat="43.43547543544705" lon="12.088594881224786"><ele>803.5</ele><time>2026-03-22T09:25:27.268Z</time></trkpt><trkpt lat="43.435578667646375" lon="12.088661446901396"><ele>798.0</ele><time>2026-03-22T09:25:28.269Z</time></trkpt><trkpt lat="43.43568569403218" lon="12.088705052037039"><ele>797.0</ele><time>2026-03-22T09:25:29.269Z</time></trkpt><trkpt lat="43.43578975470819" lon="12.088747009238967"><ele>796.0</ele><time>2026-03-22T09:25:30.269Z</time></trkpt><trkpt lat="43.43589002994715" lon="12.088793776509235"><ele>795.0</ele><time>2026-03-22T09:25:31.269Z</time></trkpt><trkpt lat="43.43598879705642" lon="12.08882764851493"><ele>794.0</ele><time>2026-03-22T09:25:32.267Z</time></trkpt><trkpt lat="43.43608404142567" lon="12.088894711112587"><ele>793.0</ele><time>2026-03-22T09:25:33.269Z</time></trkpt><trkpt lat="43.43616054323933" lon="12.089008309358837"><ele>789.2</ele><time>2026-03-22T09:25:34.27Z</time></trkpt><trkpt lat="43.43621305186374" lon="12.089095932213727"><ele>785.4</ele><time>2026-03-22T09:25:35.269Z</time></trkpt><trkpt lat="43.43626944979321" lon="12.089192600950005"><ele>781.6</ele><time>2026-03-22T09:25:36.271Z</time></trkpt><trkpt lat="43.43632152735135" lon="12.089297344291515"><ele>777.8000000000001</ele><time>2026-03-22T09:25:37.262Z</time></trkpt><trkpt lat="43.43636401799869" lon="12.089393605555388"><ele>774.0</ele><time>2026-03-22T09:25:38.27Z</time></trkpt><trkpt lat="43.43643447677229" lon="12.089499491459387"><ele>772.8000000000001</ele><time>2026-03-22T09:25:39.269Z</time></trkpt><trkpt lat="43.43648226426016" lon="12.089638797374578"><ele>771.6</ele><time>2026-03-22T09:25:40.271Z</time></trkpt><trkpt lat="43.43654830326924" lon="12.089738537372837"><ele>770.4</ele><time>2026-03-22T09:25:41.269Z</time></trkpt><trkpt lat="43.43662490439527" lon="12.089827280454413"><ele>769.2</ele><time>2026-03-22T09:25:42.269Z</time></trkpt><trkpt lat="43.43671690671505" lon="12.089883941682437"><ele>768.0</ele><time>2026-03-22T09:25:43.269Z</time></trkpt><trkpt lat="43.43681219409795" lon="12.089951925692889"><ele>766.8</ele><time>2026-03-22T09:25:44.269Z</time></trkpt><trkpt lat="43.43690785144937" lon="12.090024992192117"><ele>765.5999999999999</ele><time>2026-03-22T09:25:45.27Z</time></trkpt><trkpt lat="43.436994366488186" lon="12.090091662348742"><ele>764.4000000000001</ele><time>2026-03-22T09:25:46.269Z</time></trkpt><trkpt lat="43.437080457128594" lon="12.090168528321648"><ele>763.2</ele><time>2026-03-22T09:25:47.269Z</time></trkpt><trkpt lat="43.43716526867764" lon="12.090249704668501"><ele>762.0</ele><time>2026-03-22T09:25:48.271Z</time></trkpt><trkpt lat="43.43723605333485" lon="12.090332515608445"><ele>760.1666666666666</ele><time>2026-03-22T09:25:49.27Z</time></trkpt><trkpt lat="43.43729906639656" lon="12.090419516994471"><ele>758.3333333333334</ele><time>2026-03-22T09:25:50.276Z</time></trkpt><trkpt lat="43.437343280339604" lon="12.090517302512556"><ele>756.5</ele><time>2026-03-22T09:25:51.268Z</time></trkpt><trkpt lat="43.43737387097124" lon="12.09063218064013"><ele>754.6666666666667</ele><time>2026-03-22T09:25:52.27Z</time></trkpt><trkpt lat="43.43742093105172" lon="12.090753046955262"><ele>752.8333333333334</ele><time>2026-03-22T09:25:53.269Z</time></trkpt><trkpt lat="43.437477968402945" lon="12.090836721958706"><ele>751.0</ele><time>2026-03-22T09:25:54.269Z</time></trkpt><trkpt lat="43.4375408057214" lon="12.090919866147647"><ele>750.1999999999999</ele><time>2026-03-22T09:25:55.271Z</time></trkpt><trkpt lat="43.437603894615926" lon="12.091020234082501"><ele>749.4</ele><time>2026-03-22T09:25:56.27Z</time></trkpt><trkpt lat="43.437684059962855" lon="12.09114818784346"><ele>748.6</ele><time>2026-03-22T09:25:57.27Z</time></trkpt><trkpt lat="43.43774363161729" lon="12.091267216474252"><ele>747.8</ele><time>2026-03-22T09:25:58.271Z</time></trkpt><trkpt lat="43.43778237538364" lon="12.091391031270671"><ele>747.0</ele><time>2026-03-22T09:25:59.272Z</time></trkpt><trkpt lat="43.43780988701204" lon="12.091527751111322"><ele>744.8333333333334</ele><time>2026-03-22T09:26:00.272Z</time></trkpt><trkpt lat="43.43783438134935" lon="12.0916357682754"><ele>742.6666666666666</ele><time>2026-03-22T09:26:01.264Z</time></trkpt><trkpt lat="43.43786916450006" lon="12.091760052583401"><ele>740.5</ele><time>2026-03-22T09:26:02.271Z</time></trkpt><trkpt lat="43.437898409135805" lon="12.091881150336151"><ele>738.3333333333333</ele><time>2026-03-22T09:26:03.271Z</time></trkpt><trkpt lat="43.43792190170213" lon="12.092000125227525"><ele>736.1666666666666</ele><time>2026-03-22T09:26:04.272Z</time></trkpt><trkpt lat="43.43794392971264" lon="12.092111545031006"><ele>734.0</ele><time>2026-03-22T09:26:05.27Z</time></trkpt><trkpt lat="43.43797233217974" lon="12.092230819005955"><ele>732.3333333333333</ele><time>2026-03-22T09:26:06.27Z</time></trkpt><trkpt lat="43.43798903700294" lon="12.09233990124863"><ele>730.6666666666666</ele><time>2026-03-22T09:26:07.27Z</time></trkpt><trkpt lat="43.43799767349885" lon="12.092460466324328"><ele>729.0</ele><time>2026-03-22T09:26:08.273Z</time></trkpt><trkpt lat="43.438005047461466" lon="12.092579106924065"><ele>727.3333333333334</ele><time>2026-03-22T09:26:09.272Z</time></trkpt><trkpt lat="43.43801237172686" lon="12.092693018893321"><ele>725.6666666666667</ele><time>2026-03-22T09:26:10.271Z</time></trkpt><trkpt lat="43.43801216773714" lon="12.092800881064589"><ele>724.0</ele><time>2026-03-22T09:26:11.271Z</time></trkpt><trkpt lat="43.43800103137816" lon="12.092914783763131"><ele>723.5</ele><time>2026-03-22T09:26:12.272Z</time></trkpt><trkpt lat="43.43798262586126" lon="12.093039857384031"><ele>723.0</ele><time>2026-03-22T09:26:13.272Z</time></trkpt><trkpt lat="43.43794880646589" lon="12.09315997338182"><ele>722.5</ele><time>2026-03-22T09:26:14.272Z</time></trkpt><trkpt lat="43.437889005290316" lon="12.09324365292183"><ele>722.0</ele><time>2026-03-22T09:26:15.27Z</time></trkpt><trkpt lat="43.437809546579366" lon="12.093296388561852"><ele>721.5</ele><time>2026-03-22T09:26:16.271Z</time></trkpt><trkpt lat="43.43774215397785" lon="12.09331807888139"><ele>721.0</ele><time>2026-03-22T09:26:17.27Z</time></trkpt><trkpt lat="43.43765728621578" lon="12.093428146689062"><ele>718.5999999999999</ele><time>2026-03-22T09:26:19.269Z</time></trkpt><trkpt lat="43.437659476580954" lon="12.093523561559454"><ele>716.2</ele><time>2026-03-22T09:26:20.271Z</time></trkpt><trkpt lat="43.43769199475712" lon="12.093630727045939"><ele>713.8</ele><time>2026-03-22T09:26:21.264Z</time></trkpt><trkpt lat="43.43774103229101" lon="12.093769483918635"><ele>711.4000000000001</ele><time>2026-03-22T09:26:22.269Z</time></trkpt><trkpt lat="43.43778628440795" lon="12.09390543440884"><ele>709.0</ele><time>2026-03-22T09:26:23.269Z</time></trkpt><trkpt lat="43.43783389037021" lon="12.094000039909412"><ele>708.0</ele><time>2026-03-22T09:26:24.269Z</time></trkpt><trkpt lat="43.437893694802234" lon="12.09410012382162"><ele>707.0</ele><time>2026-03-22T09:26:25.268Z</time></trkpt><trkpt lat="43.43795309494096" lon="12.094193429715022"><ele>706.0</ele><time>2026-03-22T09:26:26.271Z</time></trkpt><trkpt lat="43.438007642888515" lon="12.094285639143642"><ele>705.0</ele><time>2026-03-22T09:26:27.27Z</time></trkpt><trkpt lat="43.43806119153457" lon="12.094370204769431"><ele>704.0</ele><time>2026-03-22T09:26:28.27Z</time></trkpt><trkpt lat="43.43811518436864" lon="12.094458448140092"><ele>703.0</ele><time>2026-03-22T09:26:29.27Z</time></trkpt><trkpt lat="43.438177218676124" lon="12.094552257423468"><ele>703.0</ele><time>2026-03-22T09:26:30.27Z</time></trkpt><trkpt lat="43.43824260844144" lon="12.09463010542016"><ele>703.0</ele><time>2026-03-22T09:26:31.271Z</time></trkpt><trkpt lat="43.4383173750221" lon="12.094697526202454"><ele>703.0</ele><time>2026-03-22T09:26:32.271Z</time></trkpt><trkpt lat="43.438379574475334" lon="12.094784430687687"><ele>703.0</ele><time>2026-03-22T09:26:33.271Z</time></trkpt><trkpt lat="43.4384469190127" lon="12.094875935169041"><ele>703.0</ele><time>2026-03-22T09:26:34.271Z</time></trkpt><trkpt lat="43.43850562654372" lon="12.094964727241477"><ele>703.0</ele><time>2026-03-22T09:26:35.265Z</time></trkpt><trkpt lat="43.438559308186605" lon="12.095065710113676"><ele>700.5</ele><time>2026-03-22T09:26:36.271Z</time></trkpt><trkpt lat="43.43861517973949" lon="12.095171905502413"><ele>698.0</ele><time>2026-03-22T09:26:37.271Z</time></trkpt><trkpt lat="43.438667291416536" lon="12.095250119055041"><ele>695.5</ele><time>2026-03-22T09:26:38.27Z</time></trkpt><trkpt lat="43.43873027211795" lon="12.095331163121235"><ele>693.0</ele><time>2026-03-22T09:26:39.271Z</time></trkpt><trkpt lat="43.43880077921185" lon="12.095386111548386"><ele>690.5</ele><time>2026-03-22T09:26:40.266Z</time></trkpt><trkpt lat="43.438899081578484" lon="12.095451217189282"><ele>688.0</ele><time>2026-03-22T09:26:41.271Z</time></trkpt><trkpt lat="43.43899780073268" lon="12.095529586193706"><ele>685.8</ele><time>2026-03-22T09:26:42.271Z</time></trkpt><trkpt lat="43.43908995667311" lon="12.095606204510537"><ele>683.5999999999999</ele><time>2026-03-22T09:26:43.27Z</time></trkpt><trkpt lat="43.439176299650505" lon="12.095684633826512"><ele>681.4000000000001</ele><time>2026-03-22T09:26:44.272Z</time></trkpt><trkpt lat="43.43926307919837" lon="12.095765270044994"><ele>679.2</ele><time>2026-03-22T09:26:45.27Z</time></trkpt><trkpt lat="43.43934737381616" lon="12.095837553444477"><ele>677.0</ele><time>2026-03-22T09:26:46.269Z</time></trkpt><trkpt lat="43.43943692160672" lon="12.095915100477146"><ele>677.0</ele><time>2026-03-22T09:26:47.27Z</time></trkpt><trkpt lat="43.4395242168895" lon="12.096014696270217"><ele>677.0</ele><time>2026-03-22T09:26:48.272Z</time></trkpt><trkpt lat="43.43961217449893" lon="12.096099141758513"><ele>677.0</ele><time>2026-03-22T09:26:49.27Z</time></trkpt><trkpt lat="43.43971119850337" lon="12.096163629896507"><ele>677.0</ele><time>2026-03-22T09:26:50.27Z</time></trkpt><trkpt lat="43.43979276382708" lon="12.09622869448583"><ele>677.0</ele><time>2026-03-22T09:26:51.271Z</time></trkpt><trkpt lat="43.43986317621732" lon="12.096281377349912"><ele>677.4000000000001</ele><time>2026-03-22T09:26:52.272Z</time></trkpt><trkpt lat="43.43990990023492" lon="12.096355453560028"><ele>677.8000000000001</ele><time>2026-03-22T09:26:53.271Z</time></trkpt><trkpt lat="43.43994815528735" lon="12.096481073879819"><ele>678.2</ele><time>2026-03-22T09:26:54.27Z</time></trkpt><trkpt lat="43.43997584808134" lon="12.096651826788667"><ele>678.6</ele><time>2026-03-22T09:26:55.27Z</time></trkpt><trkpt lat="43.439988124075825" lon="12.09684604128845"><ele>679.0</ele><time>2026-03-22T09:26:56.271Z</time></trkpt><trkpt lat="43.44000553729667" lon="12.09704614653476"><ele>679.0</ele><time>2026-03-22T09:26:57.27Z</time></trkpt><trkpt lat="43.44000709197439" lon="12.09724492570659"><ele>679.0</ele><time>2026-03-22T09:26:58.269Z</time></trkpt><trkpt lat="43.43999273955528" lon="12.097400007376017"><ele>679.0</ele><time>2026-03-22T09:26:59.27Z</time></trkpt><trkpt lat="43.43996148684737" lon="12.097554358367669"><ele>679.0</ele><time>2026-03-22T09:27:00.271Z</time></trkpt><trkpt lat="43.43995592677406" lon="12.097673583481003"><ele>678.7142857142857</ele><time>2026-03-22T09:27:01.271Z</time></trkpt><trkpt lat="43.4399636793127" lon="12.097784778997543"><ele>678.4285714285714</ele><time>2026-03-22T09:27:02.272Z</time></trkpt><trkpt lat="43.43998060319171" lon="12.097873393822077"><ele>678.1428571428571</ele><time>2026-03-22T09:27:03.269Z</time></trkpt><trkpt lat="43.440000427134194" lon="12.097968271987073"><ele>677.8571428571429</ele><time>2026-03-22T09:27:04.27Z</time></trkpt><trkpt lat="43.44003230931703" lon="12.098044557529148"><ele>677.5714285714286</ele><time>2026-03-22T09:27:05.269Z</time></trkpt><trkpt lat="43.44007161544985" lon="12.098122205688588"><ele>677.2857142857142</ele><time>2026-03-22T09:27:06.269Z</time></trkpt><trkpt lat="43.440128627383395" lon="12.09819905634201"><ele>677.0</ele><time>2026-03-22T09:27:07.27Z</time></trkpt><trkpt lat="43.44020917284519" lon="12.098276790662148"><ele>674.8</ele><time>2026-03-22T09:27:08.269Z</time></trkpt><trkpt lat="43.440298115014635" lon="12.098353176392322"><ele>672.6</ele><time>2026-03-22T09:27:09.27Z</time></trkpt><trkpt lat="43.44036384348908" lon="12.09844967621117"><ele>670.4</ele><time>2026-03-22T09:27:10.27Z</time></trkpt><trkpt lat="43.44040231329339" lon="12.098572708598569"><ele>668.1999999999999</ele><time>2026-03-22T09:27:11.268Z</time></trkpt><trkpt lat="43.44043659425279" lon="12.098713659616692"><ele>666.0</ele><time>2026-03-22T09:27:12.269Z</time></trkpt><trkpt lat="43.440463539658595" lon="12.098839063900577"><ele>667.5999999999999</ele><time>2026-03-22T09:27:13.269Z</time></trkpt><trkpt lat="43.44048971444093" lon="12.098952692508867"><ele>669.2</ele><time>2026-03-22T09:27:14.268Z</time></trkpt><trkpt lat="43.44052890951651" lon="12.099079808925543"><ele>670.8</ele><time>2026-03-22T09:27:15.27Z</time></trkpt><trkpt lat="43.44055938546338" lon="12.099188275414097"><ele>672.4000000000001</ele><time>2026-03-22T09:27:16.271Z</time></trkpt><trkpt lat="43.44060421799984" lon="12.099338298867965"><ele>674.0</ele><time>2026-03-22T09:27:18.269Z</time></trkpt><trkpt lat="43.440607506769645" lon="12.09943615183343"><ele>674.0</ele><time>2026-03-22T09:27:20.27Z</time></trkpt><trkpt lat="43.44057435264872" lon="12.09951009007636"><ele>674.0</ele><time>2026-03-22T09:27:23.27Z</time></trkpt><trkpt lat="43.44054235450634" lon="12.099608894835221"><ele>674.0</ele><time>2026-03-22T09:27:51.27Z</time></trkpt><trkpt lat="43.44061541703712" lon="12.099654612281864"><ele>674.0</ele><time>2026-03-22T09:27:55.269Z</time></trkpt><trkpt lat="43.440716030649874" lon="12.099691028651943"><ele>674.0</ele><time>2026-03-22T09:27:57.27Z</time></trkpt><trkpt lat="43.44077934394149" lon="12.099692425647966"><ele>674.0</ele><time>2026-03-22T09:27:58.27Z</time></trkpt><trkpt lat="43.44088861906759" lon="12.099713310949657"><ele>674.0000000000001</ele><time>2026-03-22T09:28:00.272Z</time></trkpt><trkpt lat="43.44095432370883" lon="12.099718248354826"><ele>674.0</ele><time>2026-03-22T09:28:01.262Z</time></trkpt><trkpt lat="43.44102767159583" lon="12.099702597309596"><ele>674.0</ele><time>2026-03-22T09:28:02.27Z</time></trkpt><trkpt lat="43.441101150782835" lon="12.099679964361743"><ele>674.0</ele><time>2026-03-22T09:28:03.269Z</time></trkpt><trkpt lat="43.44116279351695" lon="12.099652045346112"><ele>674.0</ele><time>2026-03-22T09:28:04.271Z</time></trkpt><trkpt lat="43.441226619429" lon="12.09959702267386"><ele>674.0000000000001</ele><time>2026-03-22T09:28:05.269Z</time></trkpt><trkpt lat="43.44128565997944" lon="12.099524143601283"><ele>674.0</ele><time>2026-03-22T09:28:06.269Z</time></trkpt><trkpt lat="43.44135501956813" lon="12.09945138689311"><ele>675.6666666666666</ele><time>2026-03-22T09:28:07.27Z</time></trkpt><trkpt lat="43.441416945220716" lon="12.099428406917372"><ele>677.3333333333333</ele><time>2026-03-22T09:28:08.27Z</time></trkpt><trkpt lat="43.441497594932756" lon="12.099453664697572"><ele>679.0</ele><time>2026-03-22T09:28:09.269Z</time></trkpt><trkpt lat="43.441565164220094" lon="12.099550926658695"><ele>680.6666666666666</ele><time>2026-03-22T09:28:10.268Z</time></trkpt><trkpt lat="43.44161973017902" lon="12.099639450806729"><ele>682.3333333333334</ele><time>2026-03-22T09:28:11.269Z</time></trkpt><trkpt lat="43.441683959540796" lon="12.099702122402938"><ele>684.0</ele><time>2026-03-22T09:28:12.27Z</time></trkpt><trkpt lat="43.441758936390265" lon="12.099716125749627"><ele>684.0</ele><time>2026-03-22T09:28:13.269Z</time></trkpt><trkpt lat="43.441848903583164" lon="12.099713865822388"><ele>684.0</ele><time>2026-03-22T09:28:14.263Z</time></trkpt><trkpt lat="43.441930122581596" lon="12.099672653525333"><ele>684.0</ele><time>2026-03-22T09:28:15.264Z</time></trkpt><trkpt lat="43.44199074423319" lon="12.09962856250674"><ele>684.0</ele><time>2026-03-22T09:28:16.271Z</time></trkpt><trkpt lat="43.44205614410235" lon="12.099585253557125"><ele>684.0</ele><time>2026-03-22T09:28:17.269Z</time></trkpt><trkpt lat="43.442119492971464" lon="12.09951474964598"><ele>684.0</ele><time>2026-03-22T09:28:18.269Z</time></trkpt><trkpt lat="43.442184811372115" lon="12.099440960076636"><ele>682.8000000000001</ele><time>2026-03-22T09:28:19.269Z</time></trkpt><trkpt lat="43.44227693363748" lon="12.099407748538654"><ele>681.6</ele><time>2026-03-22T09:28:20.264Z</time></trkpt><trkpt lat="43.44237723050859" lon="12.099432306858228"><ele>680.4</ele><time>2026-03-22T09:28:21.269Z</time></trkpt><trkpt lat="43.44246320232086" lon="12.099495885240316"><ele>679.2</ele><time>2026-03-22T09:28:22.269Z</time></trkpt><trkpt lat="43.442546806991324" lon="12.099589390639649"><ele>678.0</ele><time>2026-03-22T09:28:23.27Z</time></trkpt><trkpt lat="43.44262796178246" lon="12.09962819260556"><ele>678.0</ele><time>2026-03-22T09:28:24.271Z</time></trkpt><trkpt lat="43.442743304508994" lon="12.099644469625758"><ele>678.0</ele><time>2026-03-22T09:28:25.269Z</time></trkpt><trkpt lat="43.44286754016418" lon="12.099651646808939"><ele>678.0</ele><time>2026-03-22T09:28:26.269Z</time></trkpt><trkpt lat="43.44298665764024" lon="12.099664524317031"><ele>678.0</ele><time>2026-03-22T09:28:27.269Z</time></trkpt><trkpt lat="43.44308688243452" lon="12.099678614977737"><ele>674.8333333333334</ele><time>2026-03-22T09:28:28.272Z</time></trkpt><trkpt lat="43.44317268278594" lon="12.099693842929033"><ele>671.6666666666666</ele><time>2026-03-22T09:28:29.269Z</time></trkpt><trkpt lat="43.44324610882854" lon="12.099697803195163"><ele>668.5</ele><time>2026-03-22T09:28:30.269Z</time></trkpt><trkpt lat="43.443315236762686" lon="12.099718648312804"><ele>665.3333333333333</ele><time>2026-03-22T09:28:31.27Z</time></trkpt><trkpt lat="43.443362763779774" lon="12.099788608238615"><ele>662.1666666666666</ele><time>2026-03-22T09:28:32.265Z</time></trkpt><trkpt lat="43.443389101226586" lon="12.099908302006153"><ele>659.0</ele><time>2026-03-22T09:28:33.271Z</time></trkpt><trkpt lat="43.44339975437921" lon="12.100050500249237"><ele>658.1666666666666</ele><time>2026-03-22T09:28:34.27Z</time></trkpt><trkpt lat="43.443395838018894" lon="12.100172830238861"><ele>657.3333333333333</ele><time>2026-03-22T09:28:35.27Z</time></trkpt><trkpt lat="43.44338250380996" lon="12.10026835354894"><ele>656.5</ele><time>2026-03-22T09:28:36.271Z</time></trkpt><trkpt lat="43.44338040137901" lon="12.100356587818203"><ele>655.6666666666666</ele><time>2026-03-22T09:28:37.271Z</time></trkpt><trkpt lat="43.44340784013031" lon="12.100440871776378"><ele>654.8333333333334</ele><time>2026-03-22T09:28:38.27Z</time></trkpt><trkpt lat="43.443458095961944" lon="12.100500238186962"><ele>654.0</ele><time>2026-03-22T09:28:39.27Z</time></trkpt><trkpt lat="43.44357555996395" lon="12.100497332882552"><ele>654.0</ele><time>2026-03-22T09:28:41.271Z</time></trkpt><trkpt lat="43.4436178478363" lon="12.10041150652915"><ele>654.0</ele><time>2026-03-22T09:28:43.272Z</time></trkpt><trkpt lat="43.443660503320906" lon="12.100336351404312"><ele>654.0</ele><time>2026-03-22T09:28:52.271Z</time></trkpt><trkpt lat="43.44374412720038" lon="12.100431473147676"><ele>654.0</ele><time>2026-03-22T09:28:54.271Z</time></trkpt><trkpt lat="43.44382259466967" lon="12.100488907867556"><ele>654.0</ele><time>2026-03-22T09:28:55.269Z</time></trkpt><trkpt lat="43.44391559905918" lon="12.100557701020328"><ele>654.0</ele><time>2026-03-22T09:28:56.271Z</time></trkpt><trkpt lat="43.444000765796496" lon="12.100615793899314"><ele>650.0</ele><time>2026-03-22T09:28:57.269Z</time></trkpt><trkpt lat="43.444085481104956" lon="12.1007035609752"><ele>646.0</ele><time>2026-03-22T09:28:58.27Z</time></trkpt><trkpt lat="43.44415538195728" lon="12.100782478806627"><ele>642.0</ele><time>2026-03-22T09:28:59.269Z</time></trkpt><trkpt lat="43.44422920780176" lon="12.100875884429584"><ele>638.0</ele><time>2026-03-22T09:29:00.273Z</time></trkpt><trkpt lat="43.4443016907023" lon="12.100980997836691"><ele>634.0</ele><time>2026-03-22T09:29:01.269Z</time></trkpt><trkpt lat="43.444362607666925" lon="12.101056279139955"><ele>634.0</ele><time>2026-03-22T09:29:02.27Z</time></trkpt><trkpt lat="43.44442334405623" lon="12.101151592830062"><ele>634.0</ele><time>2026-03-22T09:29:03.272Z</time></trkpt><trkpt lat="43.44447915883071" lon="12.101222628074883"><ele>634.0</ele><time>2026-03-22T09:29:04.271Z</time></trkpt><trkpt lat="43.44455856990971" lon="12.101310112466972"><ele>634.0</ele><time>2026-03-22T09:29:05.27Z</time></trkpt><trkpt lat="43.44463242487091" lon="12.101376367162844"><ele>634.0</ele><time>2026-03-22T09:29:06.27Z</time></trkpt><trkpt lat="43.44469169987114" lon="12.101444120881215"><ele>634.0</ele><time>2026-03-22T09:29:07.271Z</time></trkpt><trkpt lat="43.44477962721531" lon="12.101541030169313"><ele>632.3333333333334</ele><time>2026-03-22T09:29:08.271Z</time></trkpt><trkpt lat="43.44487529893026" lon="12.101613339448164"><ele>630.6666666666667</ele><time>2026-03-22T09:29:09.27Z</time></trkpt><trkpt lat="43.44493227018037" lon="12.101686775010053"><ele>629.0</ele><time>2026-03-22T09:29:10.269Z</time></trkpt><trkpt lat="43.44500224181045" lon="12.101765461950274"><ele>627.3333333333334</ele><time>2026-03-22T09:29:11.271Z</time></trkpt><trkpt lat="43.44506752519577" lon="12.101833977603437"><ele>625.6666666666666</ele><time>2026-03-22T09:29:12.27Z</time></trkpt><trkpt lat="43.44513119680301" lon="12.101902967811247"><ele>624.0</ele><time>2026-03-22T09:29:13.27Z</time></trkpt><trkpt lat="43.44518798400376" lon="12.101982100215409"><ele>624.0</ele><time>2026-03-22T09:29:14.269Z</time></trkpt><trkpt lat="43.44525471305269" lon="12.102039669777154"><ele>624.0</ele><time>2026-03-22T09:29:15.271Z</time></trkpt><trkpt lat="43.445310834171494" lon="12.102090440392939"><ele>624.0</ele><time>2026-03-22T09:29:16.273Z</time></trkpt><trkpt lat="43.44535777572547" lon="12.10219074236536"><ele>624.0</ele><time>2026-03-22T09:29:18.27Z</time></trkpt><trkpt lat="43.445421529866564" lon="12.102325346383044"><ele>624.0</ele><time>2026-03-22T09:29:20.271Z</time></trkpt><trkpt lat="43.44546995171657" lon="12.102469381427937"><ele>620.2857142857143</ele><time>2026-03-22T09:29:22.268Z</time></trkpt><trkpt lat="43.445493056533415" lon="12.102551471290077"><ele>616.5714285714286</ele><time>2026-03-22T09:29:23.27Z</time></trkpt><trkpt lat="43.445547901029805" lon="12.102660194310147"><ele>612.8571428571429</ele><time>2026-03-22T09:29:25.269Z</time></trkpt><trkpt lat="43.44560275072465" lon="12.102730569802732"><ele>609.1428571428571</ele><time>2026-03-22T09:29:26.271Z</time></trkpt><trkpt lat="43.44566164621315" lon="12.102801167542285"><ele>605.4285714285714</ele><time>2026-03-22T09:29:27.269Z</time></trkpt><trkpt lat="43.445717870312556" lon="12.1028526010297"><ele>601.7142857142857</ele><time>2026-03-22T09:29:28.271Z</time></trkpt><trkpt lat="43.44576959832594" lon="12.102911298956686"><ele>598.0</ele><time>2026-03-22T09:29:29.269Z</time></trkpt><trkpt lat="43.445824095416654" lon="12.10295957189715"><ele>598.0</ele><time>2026-03-22T09:29:30.27Z</time></trkpt><trkpt lat="43.445874528522275" lon="12.103031361565476"><ele>598.0</ele><time>2026-03-22T09:29:31.271Z</time></trkpt><trkpt lat="43.44595509418824" lon="12.103144437545314"><ele>598.0</ele><time>2026-03-22T09:29:33.27Z</time></trkpt><trkpt lat="43.44602171860923" lon="12.103158063857583"><ele>598.0</ele><time>2026-03-22T09:29:34.271Z</time></trkpt><trkpt lat="43.446101369188256" lon="12.103168957474466"><ele>598.0</ele><time>2026-03-22T09:29:35.269Z</time></trkpt><trkpt lat="43.4461930498486" lon="12.103188160756941"><ele>598.0</ele><time>2026-03-22T09:29:36.273Z</time></trkpt><trkpt lat="43.44631659412186" lon="12.103169256603422"><ele>592.4</ele><time>2026-03-22T09:29:38.269Z</time></trkpt><trkpt lat="43.44644434710253" lon="12.103204015433992"><ele>586.8</ele><time>2026-03-22T09:29:40.272Z</time></trkpt><trkpt lat="43.44651091490786" lon="12.103202620222525"><ele>581.2</ele><time>2026-03-22T09:29:41.264Z</time></trkpt><trkpt lat="43.44660367250069" lon="12.103191667215516"><ele>575.6</ele><time>2026-03-22T09:29:42.27Z</time></trkpt><trkpt lat="43.44669069946596" lon="12.103197323893607"><ele>570.0</ele><time>2026-03-22T09:29:43.271Z</time></trkpt><trkpt lat="43.44679203593866" lon="12.103221636062708"><ele>570.0</ele><time>2026-03-22T09:29:44.275Z</time></trkpt><trkpt lat="43.44689962642612" lon="12.103241109875976"><ele>570.0</ele><time>2026-03-22T09:29:45.27Z</time></trkpt><trkpt lat="43.44699027831467" lon="12.103253266852018"><ele>570.0</ele><time>2026-03-22T09:29:46.272Z</time></trkpt><trkpt lat="43.44708113539546" lon="12.103269731885892"><ele>570.0</ele><time>2026-03-22T09:29:47.271Z</time></trkpt><trkpt lat="43.44715875982856" lon="12.10328817367681"><ele>570.0</ele><time>2026-03-22T09:29:48.274Z</time></trkpt><trkpt lat="43.44723832955865" lon="12.10339532450871"><ele>571.0</ele><time>2026-03-22T09:29:50.271Z</time></trkpt><trkpt lat="43.447299686708526" lon="12.103513874602907"><ele>572.0</ele><time>2026-03-22T09:29:52.273Z</time></trkpt><trkpt lat="43.44738077408595" lon="12.10356266467687"><ele>573.0</ele><time>2026-03-22T09:29:54.271Z</time></trkpt><trkpt lat="43.447466014826304" lon="12.103579861291667"><ele>574.0</ele><time>2026-03-22T09:29:56.273Z</time></trkpt><trkpt lat="43.447535286004324" lon="12.103657842273163"><ele>575.0</ele><time>2026-03-22T09:29:58.27Z</time></trkpt><trkpt lat="43.44759782051298" lon="12.103753080639738"><ele>575.0</ele><time>2026-03-22T09:30:00.266Z</time></trkpt><trkpt lat="43.44765803770429" lon="12.10390294331859"><ele>575.0</ele><time>2026-03-22T09:30:02.27Z</time></trkpt><trkpt lat="43.447682071488494" lon="12.103991832228827"><ele>575.0</ele><time>2026-03-22T09:30:03.27Z</time></trkpt><trkpt lat="43.447734951991784" lon="12.104078893738686"><ele>575.0</ele><time>2026-03-22T09:30:04.272Z</time></trkpt><trkpt lat="43.44779333899079" lon="12.104134773599576"><ele>575.0</ele><time>2026-03-22T09:30:05.271Z</time></trkpt><trkpt lat="43.447891061180755" lon="12.104204449165648"><ele>572.2</ele><time>2026-03-22T09:30:06.271Z</time></trkpt><trkpt lat="43.447986779812354" lon="12.104274571776635"><ele>569.4</ele><time>2026-03-22T09:30:07.269Z</time></trkpt><trkpt lat="43.44807966425619" lon="12.104324398247279"><ele>566.6</ele><time>2026-03-22T09:30:08.27Z</time></trkpt><trkpt lat="43.44815191535672" lon="12.104340034906238"><ele>563.8</ele><time>2026-03-22T09:30:09.27Z</time></trkpt><trkpt lat="43.44822817783564" lon="12.104330913740279"><ele>561.0</ele><time>2026-03-22T09:30:10.27Z</time></trkpt><trkpt lat="43.44832355353731" lon="12.104342620600018"><ele>561.0</ele><time>2026-03-22T09:30:11.27Z</time></trkpt><trkpt lat="43.4484038389154" lon="12.10436523274079"><ele>561.0</ele><time>2026-03-22T09:30:12.274Z</time></trkpt><trkpt lat="43.44850635536804" lon="12.10437682695768"><ele>561.0</ele><time>2026-03-22T09:30:13.27Z</time></trkpt><trkpt lat="43.44859379483539" lon="12.10436966675217"><ele>561.0</ele><time>2026-03-22T09:30:14.27Z</time></trkpt><trkpt lat="43.448687968737374" lon="12.104369985705706"><ele>561.0</ele><time>2026-03-22T09:30:15.268Z</time></trkpt><trkpt lat="43.44878018162256" lon="12.104386902635119"><ele>559.0</ele><time>2026-03-22T09:30:16.274Z</time></trkpt><trkpt lat="43.44886482183079" lon="12.104397576303183"><ele>557.0</ele><time>2026-03-22T09:30:17.271Z</time></trkpt><trkpt lat="43.448924121370354" lon="12.104429772371876"><ele>555.0</ele><time>2026-03-22T09:30:18.27Z</time></trkpt><trkpt lat="43.448981962052926" lon="12.104480259180333"><ele>553.0</ele><time>2026-03-22T09:30:19.27Z</time></trkpt><trkpt lat="43.449029202055826" lon="12.104553648483957"><ele>551.0</ele><time>2026-03-22T09:30:20.274Z</time></trkpt><trkpt lat="43.449093662107686" lon="12.104615103768449"><ele>549.0</ele><time>2026-03-22T09:30:21.27Z</time></trkpt><trkpt lat="43.44916977205128" lon="12.104662873938757"><ele>549.0</ele><time>2026-03-22T09:30:22.271Z</time></trkpt><trkpt lat="43.44927382414325" lon="12.104753795131629"><ele>549.0</ele><time>2026-03-22T09:30:24.275Z</time></trkpt><trkpt lat="43.44937640383465" lon="12.104837177532659"><ele>549.0</ele><time>2026-03-22T09:30:26.271Z</time></trkpt><trkpt lat="43.44944539232445" lon="12.10486298086648"><ele>549.0</ele><time>2026-03-22T09:30:27.27Z</time></trkpt><trkpt lat="43.44951311034575" lon="12.104880266608546"><ele>549.0</ele><time>2026-03-22T09:30:28.273Z</time></trkpt><trkpt lat="43.44963603402025" lon="12.104913608335854"><ele>549.1428571428571</ele><time>2026-03-22T09:30:30.269Z</time></trkpt><trkpt lat="43.44970799235546" lon="12.104930294315798"><ele>549.2857142857143</ele><time>2026-03-22T09:30:31.27Z</time></trkpt><trkpt lat="43.44978344037913" lon="12.104950219222694"><ele>549.4285714285714</ele><time>2026-03-22T09:30:32.271Z</time></trkpt><trkpt lat="43.449854541057434" lon="12.104967179449385"><ele>549.5714285714286</ele><time>2026-03-22T09:30:33.271Z</time></trkpt><trkpt lat="43.44992403668875" lon="12.104989245426161"><ele>549.7142857142857</ele><time>2026-03-22T09:30:34.269Z</time></trkpt><trkpt lat="43.44998518399308" lon="12.105012799127"><ele>549.8571428571429</ele><time>2026-03-22T09:30:35.271Z</time></trkpt><trkpt lat="43.45005035501377" lon="12.105036937365172"><ele>550.0</ele><time>2026-03-22T09:30:36.274Z</time></trkpt><trkpt lat="43.450118062632704" lon="12.105065684677811"><ele>550.0</ele><time>2026-03-22T09:30:37.27Z</time></trkpt><trkpt lat="43.45023227842962" lon="12.105124406465448"><ele>550.0</ele><time>2026-03-22T09:30:39.271Z</time></trkpt><trkpt lat="43.45030096914692" lon="12.105147390492489"><ele>550.0</ele><time>2026-03-22T09:30:40.273Z</time></trkpt><trkpt lat="43.450382722552355" lon="12.105176270255255"><ele>550.0</ele><time>2026-03-22T09:30:41.269Z</time></trkpt><trkpt lat="43.45045881082923" lon="12.105201187183185"><ele>550.0</ele><time>2026-03-22T09:30:42.27Z</time></trkpt><trkpt lat="43.450529380132" lon="12.105227012835199"><ele>550.0</ele><time>2026-03-22T09:30:43.27Z</time></trkpt><trkpt lat="43.450595193509905" lon="12.1052468564379"><ele>548.8</ele><time>2026-03-22T09:30:44.274Z</time></trkpt><trkpt lat="43.45066120494807" lon="12.105257598757147"><ele>547.6</ele><time>2026-03-22T09:30:45.27Z</time></trkpt><trkpt lat="43.45076302114701" lon="12.105228262909135"><ele>546.4</ele><time>2026-03-22T09:30:47.27Z</time></trkpt><trkpt lat="43.450854699343374" lon="12.105182600083085"><ele>545.2</ele><time>2026-03-22T09:30:49.271Z</time></trkpt><trkpt lat="43.45095533229942" lon="12.10513007005625"><ele>544.0</ele><time>2026-03-22T09:30:51.265Z</time></trkpt><trkpt lat="43.4510626621953" lon="12.105070752823918"><ele>544.0</ele><time>2026-03-22T09:30:53.273Z</time></trkpt><trkpt lat="43.45118758663855" lon="12.105024401643549"><ele>544.0</ele><time>2026-03-22T09:30:55.269Z</time></trkpt><trkpt lat="43.45126064511916" lon="12.10498947173504"><ele>544.0</ele><time>2026-03-22T09:30:56.272Z</time></trkpt><trkpt lat="43.45132697376057" lon="12.104960183806263"><ele>544.0</ele><time>2026-03-22T09:30:57.269Z</time></trkpt><trkpt lat="43.451453493560535" lon="12.104955529229306"><ele>544.0</ele><time>2026-03-22T09:30:59.263Z</time></trkpt><trkpt lat="43.45152066181502" lon="12.104982647169654"><ele>542.5</ele><time>2026-03-22T09:31:00.273Z</time></trkpt><trkpt lat="43.45157749758417" lon="12.105027842327223"><ele>541.0</ele><time>2026-03-22T09:31:01.265Z</time></trkpt><trkpt lat="43.45170392396917" lon="12.10502525174464"><ele>539.5</ele><time>2026-03-22T09:31:03.27Z</time></trkpt><trkpt lat="43.451756402481614" lon="12.104962441655244"><ele>538.0</ele><time>2026-03-22T09:31:04.272Z</time></trkpt><trkpt lat="43.45179179456852" lon="12.104889344967583"><ele>536.5</ele><time>2026-03-22T09:31:05.271Z</time></trkpt><trkpt lat="43.451871117994884" lon="12.104808165998842"><ele>535.0</ele><time>2026-03-22T09:31:07.272Z</time></trkpt><trkpt lat="43.45194594401605" lon="12.104890003663241"><ele>535.0</ele><time>2026-03-22T09:31:09.263Z</time></trkpt><trkpt lat="43.4519823089726" lon="12.105005462322366"><ele>535.0</ele><time>2026-03-22T09:31:11.27Z</time></trkpt><trkpt lat="43.45202599845393" lon="12.105104848627395"><ele>535.0</ele><time>2026-03-22T09:31:13.269Z</time></trkpt><trkpt lat="43.452140567796214" lon="12.105155124177298"><ele>535.0</ele><time>2026-03-22T09:31:15.271Z</time></trkpt><trkpt lat="43.452228933571156" lon="12.105102466865151"><ele>535.0</ele><time>2026-03-22T09:31:16.272Z</time></trkpt><trkpt lat="43.45229512759804" lon="12.105010573652997"><ele>532.0</ele><time>2026-03-22T09:31:17.27Z</time></trkpt><trkpt lat="43.4523340774709" lon="12.10491515387071"><ele>529.0</ele><time>2026-03-22T09:31:18.27Z</time></trkpt><trkpt lat="43.45242179875424" lon="12.104830143410991"><ele>526.0</ele><time>2026-03-22T09:31:20.272Z</time></trkpt><trkpt lat="43.45251885189116" lon="12.104813657186968"><ele>523.0</ele><time>2026-03-22T09:31:22.271Z</time></trkpt><trkpt lat="43.45262228973201" lon="12.104915852090366"><ele>520.0</ele><time>2026-03-22T09:31:24.274Z</time></trkpt><trkpt lat="43.45270164466173" lon="12.105030935976709"><ele>520.0</ele><time>2026-03-22T09:31:26.27Z</time></trkpt><trkpt lat="43.45280833774313" lon="12.105039580077202"><ele>520.0</ele><time>2026-03-22T09:31:28.271Z</time></trkpt><trkpt lat="43.452867633877965" lon="12.105010039977133"><ele>520.0</ele><time>2026-03-22T09:31:29.27Z</time></trkpt><trkpt lat="43.452933685283334" lon="12.104955025418544"><ele>520.0</ele><time>2026-03-22T09:31:30.27Z</time></trkpt><trkpt lat="43.45298051620373" lon="12.104854992602124"><ele>520.0</ele><time>2026-03-22T09:31:31.27Z</time></trkpt><trkpt lat="43.45303379138069" lon="12.104770256577876"><ele>520.0</ele><time>2026-03-22T09:31:32.272Z</time></trkpt><trkpt lat="43.453107716512015" lon="12.104727208429736"><ele>517.0</ele><time>2026-03-22T09:31:33.271Z</time></trkpt><trkpt lat="43.453190403064255" lon="12.104734252831133"><ele>514.0</ele><time>2026-03-22T09:31:34.27Z</time></trkpt><trkpt lat="43.453268984302134" lon="12.104787059898582"><ele>511.0</ele><time>2026-03-22T09:31:35.266Z</time></trkpt><trkpt lat="43.453352933867386" lon="12.104874285132267"><ele>508.0</ele><time>2026-03-22T09:31:36.273Z</time></trkpt><trkpt lat="43.453431324711126" lon="12.10500139907216"><ele>505.0</ele><time>2026-03-22T09:31:37.271Z</time></trkpt><trkpt lat="43.45352789736552" lon="12.10512029286548"><ele>505.0</ele><time>2026-03-22T09:31:38.269Z</time></trkpt><trkpt lat="43.45362535551072" lon="12.105231197091667"><ele>505.0</ele><time>2026-03-22T09:31:39.269Z</time></trkpt><trkpt lat="43.45372558006565" lon="12.10533710301559"><ele>505.0</ele><time>2026-03-22T09:31:40.261Z</time></trkpt><trkpt lat="43.45382313343877" lon="12.105471777071783"><ele>505.0</ele><time>2026-03-22T09:31:41.269Z</time></trkpt><trkpt lat="43.45390494000752" lon="12.105586756809252"><ele>502.8</ele><time>2026-03-22T09:31:42.269Z</time></trkpt><trkpt lat="43.45397812302066" lon="12.105690595326335"><ele>500.6</ele><time>2026-03-22T09:31:43.269Z</time></trkpt><trkpt lat="43.45405159563484" lon="12.105790720278147"><ele>498.4</ele><time>2026-03-22T09:31:44.269Z</time></trkpt><trkpt lat="43.45410713729925" lon="12.105895874987423"><ele>496.2</ele><time>2026-03-22T09:31:45.261Z</time></trkpt><trkpt lat="43.45418039993849" lon="12.106014567608318"><ele>494.0</ele><time>2026-03-22T09:31:46.269Z</time></trkpt><trkpt lat="43.4542721260545" lon="12.106146774874723"><ele>494.0</ele><time>2026-03-22T09:31:47.27Z</time></trkpt><trkpt lat="43.45434486983088" lon="12.106274907235852"><ele>494.0</ele><time>2026-03-22T09:31:48.271Z</time></trkpt><trkpt lat="43.45445095657527" lon="12.106388464660025"><ele>494.0</ele><time>2026-03-22T09:31:49.269Z</time></trkpt><trkpt lat="43.45457562368147" lon="12.106490906828785"><ele>494.0</ele><time>2026-03-22T09:31:50.268Z</time></trkpt><trkpt lat="43.45468106777724" lon="12.106568442397888"><ele>492.75</ele><time>2026-03-22T09:31:51.268Z</time></trkpt><trkpt lat="43.454763444608666" lon="12.106649370694875"><ele>491.5</ele><time>2026-03-22T09:31:52.273Z</time></trkpt><trkpt lat="43.45485723637124" lon="12.106731383432313"><ele>490.25</ele><time>2026-03-22T09:31:53.271Z</time></trkpt><trkpt lat="43.454950431613405" lon="12.10683048652425"><ele>489.0</ele><time>2026-03-22T09:31:54.269Z</time></trkpt><trkpt lat="43.45504057988212" lon="12.106943832859754"><ele>489.0</ele><time>2026-03-22T09:31:55.269Z</time></trkpt><trkpt lat="43.455142524897084" lon="12.107040319986622"><ele>489.0</ele><time>2026-03-22T09:31:56.271Z</time></trkpt><trkpt lat="43.45525208500157" lon="12.107126044995836"><ele>489.0</ele><time>2026-03-22T09:31:57.268Z</time></trkpt><trkpt lat="43.4553491117837" lon="12.10720035222549"><ele>489.0</ele><time>2026-03-22T09:31:58.275Z</time></trkpt><trkpt lat="43.45542418948111" lon="12.107278665676837"><ele>488.6666666666667</ele><time>2026-03-22T09:31:59.27Z</time></trkpt><trkpt lat="43.45547960430882" lon="12.107388059847578"><ele>488.33333333333337</ele><time>2026-03-22T09:32:00.272Z</time></trkpt><trkpt lat="43.45554914706622" lon="12.1074979705801"><ele>488.0</ele><time>2026-03-22T09:32:01.269Z</time></trkpt><trkpt lat="43.455599667153315" lon="12.107600608976826"><ele>487.6666666666667</ele><time>2026-03-22T09:32:02.269Z</time></trkpt><trkpt lat="43.45563529024995" lon="12.10768250500899"><ele>487.33333333333337</ele><time>2026-03-22T09:32:03.27Z</time></trkpt><trkpt lat="43.455671081998894" lon="12.107759417193524"><ele>487.0</ele><time>2026-03-22T09:32:04.273Z</time></trkpt><trkpt lat="43.455700337861636" lon="12.107868639178196"><ele>487.0</ele><time>2026-03-22T09:32:05.272Z</time></trkpt><trkpt lat="43.45575361543663" lon="12.108004848865301"><ele>487.00000000000006</ele><time>2026-03-22T09:32:06.27Z</time></trkpt><trkpt lat="43.45580814582903" lon="12.108156952788004"><ele>487.00000000000006</ele><time>2026-03-22T09:32:07.271Z</time></trkpt><trkpt lat="43.455853785802304" lon="12.10830026830313"><ele>487.0</ele><time>2026-03-22T09:32:08.272Z</time></trkpt><trkpt lat="43.45590181424867" lon="12.108418990818558"><ele>487.0</ele><time>2026-03-22T09:32:09.272Z</time></trkpt><trkpt lat="43.45595195256405" lon="12.108516716835089"><ele>487.20000000000005</ele><time>2026-03-22T09:32:10.27Z</time></trkpt><trkpt lat="43.45599269682326" lon="12.108624407466044"><ele>487.40000000000003</ele><time>2026-03-22T09:32:11.271Z</time></trkpt><trkpt lat="43.45605007502125" lon="12.108736050899402"><ele>487.59999999999997</ele><time>2026-03-22T09:32:12.273Z</time></trkpt><trkpt lat="43.45611379572236" lon="12.108836133790096"><ele>487.79999999999995</ele><time>2026-03-22T09:32:13.269Z</time></trkpt><trkpt lat="43.45618383131023" lon="12.108919927712734"><ele>488.0</ele><time>2026-03-22T09:32:14.27Z</time></trkpt><trkpt lat="43.456274671054025" lon="12.108999769567745"><ele>484.75</ele><time>2026-03-22T09:32:15.27Z</time></trkpt><trkpt lat="43.456370050542844" lon="12.109104714002518"><ele>481.5</ele><time>2026-03-22T09:32:16.272Z</time></trkpt><trkpt lat="43.45646122189829" lon="12.109244418688858"><ele>478.25</ele><time>2026-03-22T09:32:17.27Z</time></trkpt><trkpt lat="43.45652365245858" lon="12.109421669861897"><ele>475.0</ele><time>2026-03-22T09:32:18.268Z</time></trkpt><trkpt lat="43.45656513067342" lon="12.109610609579327"><ele>475.0</ele><time>2026-03-22T09:32:19.271Z</time></trkpt><trkpt lat="43.45659832093925" lon="12.109780106976846"><ele>475.0</ele><time>2026-03-22T09:32:20.273Z</time></trkpt><trkpt lat="43.45662461234479" lon="12.109932813145226"><ele>475.0</ele><time>2026-03-22T09:32:21.273Z</time></trkpt><trkpt lat="43.45665736670273" lon="12.11007152940687"><ele>475.0</ele><time>2026-03-22T09:32:22.27Z</time></trkpt><trkpt lat="43.456691052051674" lon="12.11018754239273"><ele>475.0</ele><time>2026-03-22T09:32:23.27Z</time></trkpt><trkpt lat="43.45672278708555" lon="12.110312659297978"><ele>474.2</ele><time>2026-03-22T09:32:24.272Z</time></trkpt><trkpt lat="43.45676451475312" lon="12.110433599574252"><ele>473.4</ele><time>2026-03-22T09:32:25.271Z</time></trkpt><trkpt lat="43.45682009988494" lon="12.11054646462173"><ele>472.6</ele><time>2026-03-22T09:32:26.271Z</time></trkpt><trkpt lat="43.456861904035996" lon="12.110680667041251"><ele>471.8</ele><time>2026-03-22T09:32:27.271Z</time></trkpt><trkpt lat="43.45689520619435" lon="12.110799481561324"><ele>471.0</ele><time>2026-03-22T09:32:28.272Z</time></trkpt><trkpt lat="43.456926709499534" lon="12.110903860754904"><ele>470.0</ele><time>2026-03-22T09:32:29.27Z</time></trkpt><trkpt lat="43.456961274848155" lon="12.111012042183305"><ele>469.0</ele><time>2026-03-22T09:32:30.271Z</time></trkpt><trkpt lat="43.45699249281993" lon="12.111113897250716"><ele>468.0</ele><time>2026-03-22T09:32:31.27Z</time></trkpt><trkpt lat="43.45703153556017" lon="12.111221413650208"><ele>467.0</ele><time>2026-03-22T09:32:32.274Z</time></trkpt><trkpt lat="43.45707328119793" lon="12.111351307039664"><ele>466.0</ele><time>2026-03-22T09:32:33.27Z</time></trkpt><trkpt lat="43.45711944399142" lon="12.111487635576587"><ele>463.6666666666667</ele><time>2026-03-22T09:32:34.273Z</time></trkpt><trkpt lat="43.45715977850663" lon="12.111616220539686"><ele>461.33333333333337</ele><time>2026-03-22T09:32:35.27Z</time></trkpt><trkpt lat="43.45720097869338" lon="12.111726259161655"><ele>459.0</ele><time>2026-03-22T09:32:36.274Z</time></trkpt><trkpt lat="43.45723387309557" lon="12.111836472422754"><ele>456.66666666666663</ele><time>2026-03-22T09:32:37.272Z</time></trkpt><trkpt lat="43.457265282616724" lon="12.111935812397007"><ele>454.3333333333333</ele><time>2026-03-22T09:32:38.272Z</time></trkpt><trkpt lat="43.45729615754307" lon="12.112030469784218"><ele>452.0</ele><time>2026-03-22T09:32:39.272Z</time></trkpt><trkpt lat="43.457324246600656" lon="12.112121524594452"><ele>452.0</ele><time>2026-03-22T09:32:40.272Z</time></trkpt><trkpt lat="43.457351121540384" lon="12.112209602403098"><ele>452.00000000000006</ele><time>2026-03-22T09:32:41.265Z</time></trkpt><trkpt lat="43.45739226968776" lon="12.112308732563093"><ele>452.00000000000006</ele><time>2026-03-22T09:32:42.27Z</time></trkpt><trkpt lat="43.457430140074614" lon="12.112443731478177"><ele>452.0</ele><time>2026-03-22T09:32:43.269Z</time></trkpt><trkpt lat="43.45747201647395" lon="12.11257775979696"><ele>452.0</ele><time>2026-03-22T09:32:44.273Z</time></trkpt><trkpt lat="43.45751057555528" lon="12.112713953462329"><ele>452.40000000000003</ele><time>2026-03-22T09:32:45.27Z</time></trkpt><trkpt lat="43.457548532052286" lon="12.112847139043295"><ele>452.80000000000007</ele><time>2026-03-22T09:32:46.269Z</time></trkpt><trkpt lat="43.45759520568113" lon="12.112963844460518"><ele>453.2</ele><time>2026-03-22T09:32:47.27Z</time></trkpt><trkpt lat="43.45763665235764" lon="12.113086522235955"><ele>453.6</ele><time>2026-03-22T09:32:48.273Z</time></trkpt><trkpt lat="43.45767580583361" lon="12.113205149123283"><ele>454.0</ele><time>2026-03-22T09:32:49.27Z</time></trkpt><trkpt lat="43.457711665816795" lon="12.113320057951617"><ele>452.4</ele><time>2026-03-22T09:32:50.271Z</time></trkpt><trkpt lat="43.4577464279031" lon="12.113435076472422"><ele>450.79999999999995</ele><time>2026-03-22T09:32:51.27Z</time></trkpt><trkpt lat="43.457790383551675" lon="12.11354617631263"><ele>449.20000000000005</ele><time>2026-03-22T09:32:52.279Z</time></trkpt><trkpt lat="43.45783577058771" lon="12.113697430445193"><ele>447.6</ele><time>2026-03-22T09:32:53.27Z</time></trkpt><trkpt lat="43.45789640093459" lon="12.113870925641796"><ele>446.0</ele><time>2026-03-22T09:32:54.269Z</time></trkpt><trkpt lat="43.45798041422453" lon="12.11405693487738"><ele>443.66666666666663</ele><time>2026-03-22T09:32:55.268Z</time></trkpt><trkpt lat="43.458085599268124" lon="12.114283198370735"><ele>441.33333333333337</ele><time>2026-03-22T09:32:56.273Z</time></trkpt><trkpt lat="43.45817721091623" lon="12.114511896714612"><ele>439.0</ele><time>2026-03-22T09:32:57.27Z</time></trkpt><trkpt lat="43.458251257238516" lon="12.114706418036286"><ele>439.0</ele><time>2026-03-22T09:32:58.269Z</time></trkpt><trkpt lat="43.45831745658702" lon="12.114892030539982"><ele>439.0</ele><time>2026-03-22T09:32:59.269Z</time></trkpt><trkpt lat="43.458405023533096" lon="12.11505785049687"><ele>439.0</ele><time>2026-03-22T09:33:00.271Z</time></trkpt><trkpt lat="43.458518949416366" lon="12.115221735280091"><ele>438.25</ele><time>2026-03-22T09:33:01.263Z</time></trkpt><trkpt lat="43.45863746150331" lon="12.115364234531073"><ele>437.5</ele><time>2026-03-22T09:33:02.268Z</time></trkpt><trkpt lat="43.45873786194075" lon="12.115500036417012"><ele>436.75</ele><time>2026-03-22T09:33:03.271Z</time></trkpt><trkpt lat="43.45884542130065" lon="12.115625096973947"><ele>436.0</ele><time>2026-03-22T09:33:04.271Z</time></trkpt><trkpt lat="43.458975191755215" lon="12.115780689430531"><ele>436.0</ele><time>2026-03-22T09:33:05.269Z</time></trkpt><trkpt lat="43.459102234856694" lon="12.115936484549994"><ele>436.0</ele><time>2026-03-22T09:33:06.269Z</time></trkpt><trkpt lat="43.45920614061019" lon="12.11607844594609"><ele>436.0</ele><time>2026-03-22T09:33:07.269Z</time></trkpt><trkpt lat="43.459317610082365" lon="12.116200209155554"><ele>436.0</ele><time>2026-03-22T09:33:08.271Z</time></trkpt><trkpt lat="43.459415875996456" lon="12.116329016200988"><ele>436.0</ele><time>2026-03-22T09:33:09.27Z</time></trkpt><trkpt lat="43.45952574501282" lon="12.11644119268066"><ele>436.0</ele><time>2026-03-22T09:33:10.27Z</time></trkpt><trkpt lat="43.459629967720815" lon="12.116545478602967"><ele>436.0</ele><time>2026-03-22T09:33:11.27Z</time></trkpt><trkpt lat="43.459721962203915" lon="12.116660651288127"><ele>431.75</ele><time>2026-03-22T09:33:12.271Z</time></trkpt><trkpt lat="43.459786082328144" lon="12.116806807661751"><ele>427.5</ele><time>2026-03-22T09:33:13.27Z</time></trkpt><trkpt lat="43.45982647096492" lon="12.116969242993552"><ele>423.25</ele><time>2026-03-22T09:33:14.271Z</time></trkpt><trkpt lat="43.45984572624519" lon="12.11714684165054"><ele>419.0</ele><time>2026-03-22T09:33:15.265Z</time></trkpt><trkpt lat="43.459850754473955" lon="12.117343521448017"><ele>418.66666666666663</ele><time>2026-03-22T09:33:16.273Z</time></trkpt><trkpt lat="43.45984175832095" lon="12.11754201142389"><ele>418.33333333333337</ele><time>2026-03-22T09:33:17.269Z</time></trkpt><trkpt lat="43.459822721617115" lon="12.117753599155218"><ele>418.0</ele><time>2026-03-22T09:33:18.27Z</time></trkpt><trkpt lat="43.459807795504226" lon="12.11796392229653"><ele>418.0</ele><time>2026-03-22T09:33:19.27Z</time></trkpt><trkpt lat="43.459813554442356" lon="12.11814691363418"><ele>418.0</ele><time>2026-03-22T09:33:20.265Z</time></trkpt><trkpt lat="43.45985354779694" lon="12.118318062441446"><ele>418.0</ele><time>2026-03-22T09:33:21.268Z</time></trkpt><trkpt lat="43.45990903139152" lon="12.118492915415924"><ele>418.0</ele><time>2026-03-22T09:33:22.27Z</time></trkpt><trkpt lat="43.45996207085475" lon="12.118667933362428"><ele>417.0</ele><time>2026-03-22T09:33:23.27Z</time></trkpt><trkpt lat="43.46000568898501" lon="12.118829997934736"><ele>416.0</ele><time>2026-03-22T09:33:24.273Z</time></trkpt><trkpt lat="43.46003907539342" lon="12.118977803432218"><ele>415.0</ele><time>2026-03-22T09:33:25.271Z</time></trkpt><trkpt lat="43.46005900488446" lon="12.119103390330324"><ele>414.0</ele><time>2026-03-22T09:33:26.269Z</time></trkpt><trkpt lat="43.46006333807926" lon="12.119202955017048"><ele>413.0</ele><time>2026-03-22T09:33:27.269Z</time></trkpt><trkpt lat="43.46005372164529" lon="12.119326810911799"><ele>412.66666666666663</ele><time>2026-03-22T09:33:29.269Z</time></trkpt><trkpt lat="43.459957664659015" lon="12.119349023426107"><ele>412.3333333333333</ele><time>2026-03-22T09:33:31.269Z</time></trkpt><trkpt lat="43.45989359648368" lon="12.119271379053924"><ele>412.0</ele><time>2026-03-22T09:33:33.269Z</time></trkpt><trkpt lat="43.459848107568625" lon="12.119209553724978"><ele>411.66666666666663</ele><time>2026-03-22T09:33:37.268Z</time></trkpt><trkpt lat="43.45989237136907" lon="12.119294316228437"><ele>411.3333333333333</ele><time>2026-03-22T09:34:00.266Z</time></trkpt><trkpt lat="43.45992897431973" lon="12.11937331766431"><ele>411.0</ele><time>2026-03-22T09:34:06.266Z</time></trkpt><trkpt lat="43.45994381772646" lon="12.11928721133561"><ele>411.0</ele><time>2026-03-22T10:13:26.27Z</time></trkpt><trkpt lat="43.45991538451248" lon="12.119196128465472"><ele>411.0</ele><time>2026-03-22T10:13:28.261Z</time></trkpt><trkpt lat="43.459837912508874" lon="12.119073743539591"><ele>411.0</ele><time>2026-03-22T10:13:30.271Z</time></trkpt><trkpt lat="43.45976047985724" lon="12.118969273678214"><ele>411.0</ele><time>2026-03-22T10:13:32.263Z</time></trkpt><trkpt lat="43.459696571221706" lon="12.118864252726919"><ele>411.0</ele><time>2026-03-22T10:13:34.268Z</time></trkpt><trkpt lat="43.45970027974389" lon="12.118699787395519"><ele>411.3333333333333</ele><time>2026-03-22T10:13:36.264Z</time></trkpt><trkpt lat="43.459736074939144" lon="12.118608982490143"><ele>411.66666666666663</ele><time>2026-03-22T10:13:37.268Z</time></trkpt><trkpt lat="43.459773582376144" lon="12.118443478368398"><ele>412.0</ele><time>2026-03-22T10:13:39.272Z</time></trkpt><trkpt lat="43.45978383099112" lon="12.118353896238064"><ele>412.3333333333333</ele><time>2026-03-22T10:13:40.265Z</time></trkpt><trkpt lat="43.459797668819476" lon="12.118263002248582"><ele>412.66666666666663</ele><time>2026-03-22T10:13:41.271Z</time></trkpt><trkpt lat="43.45981455101198" lon="12.118175112902243"><ele>413.0</ele><time>2026-03-22T10:13:42.271Z</time></trkpt><trkpt lat="43.459829055248434" lon="12.1180834039467"><ele>413.7142857142857</ele><time>2026-03-22T10:13:43.272Z</time></trkpt><trkpt lat="43.459847125428425" lon="12.117984123263787"><ele>414.42857142857144</ele><time>2026-03-22T10:13:44.265Z</time></trkpt><trkpt lat="43.45985738572078" lon="12.11788827487649"><ele>415.1428571428571</ele><time>2026-03-22T10:13:45.264Z</time></trkpt><trkpt lat="43.45986753149828" lon="12.117787857175301"><ele>415.8571428571429</ele><time>2026-03-22T10:13:46.271Z</time></trkpt><trkpt lat="43.45987566575535" lon="12.11768624223945"><ele>416.57142857142856</ele><time>2026-03-22T10:13:47.271Z</time></trkpt><trkpt lat="43.45988054614994" lon="12.117591528182102"><ele>417.2857142857143</ele><time>2026-03-22T10:13:48.263Z</time></trkpt><trkpt lat="43.45989024842065" lon="12.117492234718535"><ele>418.0</ele><time>2026-03-22T10:13:49.271Z</time></trkpt><trkpt lat="43.45989630763364" lon="12.117393302429312"><ele>418.1428571428571</ele><time>2026-03-22T10:13:50.27Z</time></trkpt><trkpt lat="43.45990168316698" lon="12.11728678186551"><ele>418.2857142857143</ele><time>2026-03-22T10:13:51.271Z</time></trkpt><trkpt lat="43.459900000511276" lon="12.117184903714948"><ele>418.42857142857144</ele><time>2026-03-22T10:13:52.265Z</time></trkpt><trkpt lat="43.459886927068965" lon="12.117087318514756"><ele>418.57142857142856</ele><time>2026-03-22T10:13:53.271Z</time></trkpt><trkpt lat="43.45987121568436" lon="12.116988146669362"><ele>418.7142857142857</ele><time>2026-03-22T10:13:54.27Z</time></trkpt><trkpt lat="43.459854877069844" lon="12.116889764205686"><ele>418.85714285714283</ele><time>2026-03-22T10:13:55.271Z</time></trkpt><trkpt lat="43.459833086433235" lon="12.116788163123779"><ele>419.0</ele><time>2026-03-22T10:13:56.266Z</time></trkpt><trkpt lat="43.45980493039158" lon="12.116691730638095"><ele>418.99999999999994</ele><time>2026-03-22T10:13:57.272Z</time></trkpt><trkpt lat="43.45975814474758" lon="12.116599064436219"><ele>419.0</ele><time>2026-03-22T10:13:58.27Z</time></trkpt><trkpt lat="43.45970248424797" lon="12.116524244363754"><ele>419.0</ele><time>2026-03-22T10:13:59.271Z</time></trkpt><trkpt lat="43.45964505868883" lon="12.116460147319984"><ele>419.0</ele><time>2026-03-22T10:14:00.263Z</time></trkpt><trkpt lat="43.459580706690694" lon="12.116396883973644"><ele>418.99999999999994</ele><time>2026-03-22T10:14:01.271Z</time></trkpt><trkpt lat="43.459522916335736" lon="12.116332687417096"><ele>419.0</ele><time>2026-03-22T10:14:02.271Z</time></trkpt><trkpt lat="43.45946628885047" lon="12.116268816811205"><ele>421.8333333333333</ele><time>2026-03-22T10:14:03.271Z</time></trkpt><trkpt lat="43.45940622283115" lon="12.116207547433584"><ele>424.66666666666663</ele><time>2026-03-22T10:14:04.265Z</time></trkpt><trkpt lat="43.45935002829164" lon="12.116140664827965"><ele>427.5</ele><time>2026-03-22T10:14:05.271Z</time></trkpt><trkpt lat="43.459290295139574" lon="12.116076018554205"><ele>430.33333333333337</ele><time>2026-03-22T10:14:06.27Z</time></trkpt><trkpt lat="43.45923072012579" lon="12.116012638122621"><ele>433.1666666666667</ele><time>2026-03-22T10:14:07.27Z</time></trkpt><trkpt lat="43.4591758435522" lon="12.115945544985777"><ele>436.0</ele><time>2026-03-22T10:14:08.262Z</time></trkpt><trkpt lat="43.459113068552355" lon="12.115876777093053"><ele>436.00000000000006</ele><time>2026-03-22T10:14:09.268Z</time></trkpt><trkpt lat="43.459049177927064" lon="12.115811531465011"><ele>436.0</ele><time>2026-03-22T10:14:10.268Z</time></trkpt><trkpt lat="43.45899573211033" lon="12.115745985569363"><ele>436.0</ele><time>2026-03-22T10:14:11.269Z</time></trkpt><trkpt lat="43.45893795670703" lon="12.11567966672609"><ele>436.0</ele><time>2026-03-22T10:14:12.263Z</time></trkpt><trkpt lat="43.458885674358086" lon="12.115615712612241"><ele>436.00000000000006</ele><time>2026-03-22T10:14:13.264Z</time></trkpt><trkpt lat="43.458833660134204" lon="12.115557426371849"><ele>436.0</ele><time>2026-03-22T10:14:14.271Z</time></trkpt><trkpt lat="43.458743140918536" lon="12.115438215384316"><ele>437.33333333333337</ele><time>2026-03-22T10:14:16.266Z</time></trkpt><trkpt lat="43.458644904884224" lon="12.115316453163329"><ele>438.6666666666667</ele><time>2026-03-22T10:14:18.27Z</time></trkpt><trkpt lat="43.458588272450584" lon="12.115245566789334"><ele>440.0</ele><time>2026-03-22T10:14:19.27Z</time></trkpt><trkpt lat="43.45853415963616" lon="12.11516775759128"><ele>441.33333333333337</ele><time>2026-03-22T10:14:20.263Z</time></trkpt><trkpt lat="43.45848846917314" lon="12.115087710718138"><ele>442.6666666666667</ele><time>2026-03-22T10:14:21.265Z</time></trkpt><trkpt lat="43.45843938519475" lon="12.11501485935579"><ele>444.0</ele><time>2026-03-22T10:14:22.27Z</time></trkpt><trkpt lat="43.45839095486669" lon="12.114932909078219"><ele>443.1666666666667</ele><time>2026-03-22T10:14:23.27Z</time></trkpt><trkpt lat="43.458351555609276" lon="12.114844759582033"><ele>442.33333333333337</ele><time>2026-03-22T10:14:24.266Z</time></trkpt><trkpt lat="43.458294757257214" lon="12.114741722490626"><ele>441.5</ele><time>2026-03-22T10:14:25.272Z</time></trkpt><trkpt lat="43.4582554537342" lon="12.114642014424144"><ele>440.6666666666667</ele><time>2026-03-22T10:14:26.27Z</time></trkpt><trkpt lat="43.45821604690488" lon="12.114546513739239"><ele>439.83333333333337</ele><time>2026-03-22T10:14:27.271Z</time></trkpt><trkpt lat="43.458177342814096" lon="12.114435424767208"><ele>439.0</ele><time>2026-03-22T10:14:28.264Z</time></trkpt><trkpt lat="43.458127458864325" lon="12.114324422136237"><ele>439.0</ele><time>2026-03-22T10:14:29.271Z</time></trkpt><trkpt lat="43.458080602247755" lon="12.114214968613439"><ele>439.0</ele><time>2026-03-22T10:14:30.271Z</time></trkpt><trkpt lat="43.45803996789556" lon="12.114109120776673"><ele>439.0</ele><time>2026-03-22T10:14:31.272Z</time></trkpt><trkpt lat="43.45799969544122" lon="12.114012154119125"><ele>439.0</ele><time>2026-03-22T10:14:32.266Z</time></trkpt><trkpt lat="43.45795471801451" lon="12.113886633929814"><ele>439.0</ele><time>2026-03-22T10:14:33.272Z</time></trkpt><trkpt lat="43.457908417089115" lon="12.113753221737129"><ele>440.4</ele><time>2026-03-22T10:14:34.271Z</time></trkpt><trkpt lat="43.45785753337591" lon="12.113613842019184"><ele>441.79999999999995</ele><time>2026-03-22T10:14:35.273Z</time></trkpt><trkpt lat="43.45781190640998" lon="12.113479726584856"><ele>443.20000000000005</ele><time>2026-03-22T10:14:36.266Z</time></trkpt><trkpt lat="43.45777039010659" lon="12.113346681828013"><ele>444.6</ele><time>2026-03-22T10:14:37.272Z</time></trkpt><trkpt lat="43.45773143544319" lon="12.113219101826495"><ele>446.0</ele><time>2026-03-22T10:14:38.272Z</time></trkpt><trkpt lat="43.45768967746877" lon="12.113091287984814"><ele>447.3333333333333</ele><time>2026-03-22T10:14:39.273Z</time></trkpt><trkpt lat="43.45764541153734" lon="12.112971448358977"><ele>448.66666666666663</ele><time>2026-03-22T10:14:40.265Z</time></trkpt><trkpt lat="43.457607653401425" lon="12.112852895183249"><ele>450.0</ele><time>2026-03-22T10:14:41.266Z</time></trkpt><trkpt lat="43.45757334146769" lon="12.11274237798627"><ele>451.33333333333337</ele><time>2026-03-22T10:14:42.272Z</time></trkpt><trkpt lat="43.457540389769456" lon="12.112622434500892"><ele>452.6666666666667</ele><time>2026-03-22T10:14:43.272Z</time></trkpt><trkpt lat="43.45751523520345" lon="12.112523883277603"><ele>454.0</ele><time>2026-03-22T10:14:44.263Z</time></trkpt><trkpt lat="43.45747160937383" lon="12.112418952118867"><ele>453.6666666666667</ele><time>2026-03-22T10:14:45.272Z</time></trkpt><trkpt lat="43.45743397938204" lon="12.112309392291687"><ele>453.33333333333337</ele><time>2026-03-22T10:14:46.271Z</time></trkpt><trkpt lat="43.45739350715005" lon="12.112204470805212"><ele>453.0</ele><time>2026-03-22T10:14:47.272Z</time></trkpt><trkpt lat="43.45735435620369" lon="12.112093890651272"><ele>452.66666666666663</ele><time>2026-03-22T10:14:48.264Z</time></trkpt><trkpt lat="43.45731269133891" lon="12.111980126179285"><ele>452.3333333333333</ele><time>2026-03-22T10:14:49.274Z</time></trkpt><trkpt lat="43.45727716943969" lon="12.111866940170467"><ele>452.0</ele><time>2026-03-22T10:14:50.273Z</time></trkpt><trkpt lat="43.45723954956946" lon="12.11174708953742"><ele>452.0</ele><time>2026-03-22T10:14:51.272Z</time></trkpt><trkpt lat="43.45719559016666" lon="12.11162323664328"><ele>452.00000000000006</ele><time>2026-03-22T10:14:52.263Z</time></trkpt><trkpt lat="43.457153619302716" lon="12.11149862194502"><ele>452.00000000000006</ele><time>2026-03-22T10:14:53.273Z</time></trkpt><trkpt lat="43.45711741756695" lon="12.111374523867301"><ele>452.0</ele><time>2026-03-22T10:14:54.273Z</time></trkpt><trkpt lat="43.45708158140538" lon="12.11125114206272"><ele>452.0</ele><time>2026-03-22T10:14:55.266Z</time></trkpt><trkpt lat="43.457039133967996" lon="12.111127578150432"><ele>454.8</ele><time>2026-03-22T10:14:56.267Z</time></trkpt><trkpt lat="43.45700277538988" lon="12.111009962155473"><ele>457.6</ele><time>2026-03-22T10:14:57.272Z</time></trkpt><trkpt lat="43.45696455068686" lon="12.110886810567013"><ele>460.40000000000003</ele><time>2026-03-22T10:14:58.272Z</time></trkpt><trkpt lat="43.45692850122632" lon="12.110762278785193"><ele>463.20000000000005</ele><time>2026-03-22T10:14:59.272Z</time></trkpt><trkpt lat="43.456891512172355" lon="12.110638766462221"><ele>466.0</ele><time>2026-03-22T10:15:00.265Z</time></trkpt><trkpt lat="43.4568554410581" lon="12.110514295437232"><ele>467.25</ele><time>2026-03-22T10:15:01.272Z</time></trkpt><trkpt lat="43.45681472848721" lon="12.110386747713024"><ele>468.5</ele><time>2026-03-22T10:15:02.273Z</time></trkpt><trkpt lat="43.45678015212915" lon="12.11023729189892"><ele>469.75</ele><time>2026-03-22T10:15:03.271Z</time></trkpt><trkpt lat="43.45674046567467" lon="12.110094463857862"><ele>471.0</ele><time>2026-03-22T10:15:04.265Z</time></trkpt><trkpt lat="43.45667822316072" lon="12.109935523718937"><ele>472.0</ele><time>2026-03-22T10:15:05.272Z</time></trkpt><trkpt lat="43.456630426384315" lon="12.1097655319662"><ele>473.0</ele><time>2026-03-22T10:15:06.27Z</time></trkpt><trkpt lat="43.45658876845215" lon="12.109584046018508"><ele>474.0</ele><time>2026-03-22T10:15:07.272Z</time></trkpt><trkpt lat="43.45654304621298" lon="12.10940395330994"><ele>475.0</ele><time>2026-03-22T10:15:08.264Z</time></trkpt><trkpt lat="43.456494959610865" lon="12.109245068650125"><ele>475.0</ele><time>2026-03-22T10:15:09.272Z</time></trkpt><trkpt lat="43.456429121372956" lon="12.109106876246196"><ele>475.0</ele><time>2026-03-22T10:15:10.272Z</time></trkpt><trkpt lat="43.45634710974479" lon="12.108994114885608"><ele>475.0</ele><time>2026-03-22T10:15:11.271Z</time></trkpt><trkpt lat="43.4562531413936" lon="12.108892818728467"><ele>475.0</ele><time>2026-03-22T10:15:12.265Z</time></trkpt><trkpt lat="43.45615499929914" lon="12.108794416542295"><ele>477.4</ele><time>2026-03-22T10:15:13.273Z</time></trkpt><trkpt lat="43.456078495425466" lon="12.108692902661087"><ele>479.8</ele><time>2026-03-22T10:15:14.27Z</time></trkpt><trkpt lat="43.45602308828147" lon="12.10858664358098"><ele>482.20000000000005</ele><time>2026-03-22T10:15:15.271Z</time></trkpt><trkpt lat="43.45596904501045" lon="12.108452233982758"><ele>484.6</ele><time>2026-03-22T10:15:16.265Z</time></trkpt><trkpt lat="43.45591517580936" lon="12.108305011597485"><ele>487.0</ele><time>2026-03-22T10:15:17.273Z</time></trkpt><trkpt lat="43.455856479137836" lon="12.108162058030546"><ele>487.0</ele><time>2026-03-22T10:15:18.273Z</time></trkpt><trkpt lat="43.45574834082197" lon="12.107872696122788"><ele>487.0</ele><time>2026-03-22T10:15:20.266Z</time></trkpt><trkpt lat="43.45568938242646" lon="12.107736109929695"><ele>487.0</ele><time>2026-03-22T10:15:21.271Z</time></trkpt><trkpt lat="43.45558335995664" lon="12.107520301433466"><ele>487.0</ele><time>2026-03-22T10:15:23.27Z</time></trkpt><trkpt lat="43.45552981099725" lon="12.10744649195743"><ele>487.00000000000006</ele><time>2026-03-22T10:15:24.264Z</time></trkpt><trkpt lat="43.455479490934145" lon="12.107356421678867"><ele>487.00000000000006</ele><time>2026-03-22T10:15:25.268Z</time></trkpt><trkpt lat="43.455421556797674" lon="12.107265425626407"><ele>487.0</ele><time>2026-03-22T10:15:26.27Z</time></trkpt><trkpt lat="43.45533753497067" lon="12.107167302951455"><ele>487.0</ele><time>2026-03-22T10:15:27.271Z</time></trkpt><trkpt lat="43.45524433850392" lon="12.107066453884944"><ele>487.5</ele><time>2026-03-22T10:15:28.263Z</time></trkpt><trkpt lat="43.455144816562196" lon="12.106969644341188"><ele>488.0</ele><time>2026-03-22T10:15:29.27Z</time></trkpt><trkpt lat="43.4550429906568" lon="12.106869784763017"><ele>488.5</ele><time>2026-03-22T10:15:30.272Z</time></trkpt><trkpt lat="43.45493992192483" lon="12.106767347878044"><ele>489.0</ele><time>2026-03-22T10:15:31.271Z</time></trkpt><trkpt lat="43.45482929247327" lon="12.106675727796535"><ele>489.0</ele><time>2026-03-22T10:15:32.265Z</time></trkpt><trkpt lat="43.45471489979454" lon="12.106580444120507"><ele>489.0</ele><time>2026-03-22T10:15:33.271Z</time></trkpt><trkpt lat="43.454587365511834" lon="12.10646964569738"><ele>489.0</ele><time>2026-03-22T10:15:34.272Z</time></trkpt><trkpt lat="43.45445938154388" lon="12.106341179265398"><ele>489.0</ele><time>2026-03-22T10:15:35.272Z</time></trkpt><trkpt lat="43.45434457883488" lon="12.106234216723637"><ele>490.66666666666663</ele><time>2026-03-22T10:15:36.264Z</time></trkpt><trkpt lat="43.45422560813934" lon="12.106083242954043"><ele>492.3333333333333</ele><time>2026-03-22T10:15:37.272Z</time></trkpt><trkpt lat="43.45412945803515" lon="12.105908949415452"><ele>494.0</ele><time>2026-03-22T10:15:38.273Z</time></trkpt><trkpt lat="43.454053020497845" lon="12.105756254776725"><ele>496.75</ele><time>2026-03-22T10:15:39.272Z</time></trkpt><trkpt lat="43.45397772646798" lon="12.105629747376192"><ele>499.5</ele><time>2026-03-22T10:15:40.264Z</time></trkpt><trkpt lat="43.45388983048451" lon="12.10551093660371"><ele>502.25</ele><time>2026-03-22T10:15:41.271Z</time></trkpt><trkpt lat="43.453797344944526" lon="12.105394780748362"><ele>505.0</ele><time>2026-03-22T10:15:42.272Z</time></trkpt><trkpt lat="43.45371129256439" lon="12.10528098488277"><ele>505.0</ele><time>2026-03-22T10:15:43.271Z</time></trkpt><trkpt lat="43.453621936989535" lon="12.105172272903793"><ele>505.0</ele><time>2026-03-22T10:15:44.263Z</time></trkpt><trkpt lat="43.453540255876675" lon="12.105069998802962"><ele>505.0</ele><time>2026-03-22T10:15:45.271Z</time></trkpt><trkpt lat="43.45345288093005" lon="12.104973311947536"><ele>505.0</ele><time>2026-03-22T10:15:46.27Z</time></trkpt><trkpt lat="43.45336703623069" lon="12.104879179305549"><ele>504.4</ele><time>2026-03-22T10:15:47.271Z</time></trkpt><trkpt lat="43.453287428329766" lon="12.104782762815935"><ele>503.8</ele><time>2026-03-22T10:15:48.263Z</time></trkpt><trkpt lat="43.45322483035729" lon="12.104699201293572"><ele>503.20000000000005</ele><time>2026-03-22T10:15:49.271Z</time></trkpt><trkpt lat="43.45313481953192" lon="12.104658598104042"><ele>502.6</ele><time>2026-03-22T10:15:51.272Z</time></trkpt><trkpt lat="43.453048525310635" lon="12.104772037362128"><ele>502.0</ele><time>2026-03-22T10:15:53.272Z</time></trkpt><trkpt lat="43.45297912450032" lon="12.104863720241983"><ele>505.6</ele><time>2026-03-22T10:15:54.273Z</time></trkpt><trkpt lat="43.452895021899636" lon="12.104951835234274"><ele>509.20000000000005</ele><time>2026-03-22T10:15:55.272Z</time></trkpt><trkpt lat="43.452815677434906" lon="12.105013169325773"><ele>512.8</ele><time>2026-03-22T10:15:56.267Z</time></trkpt><trkpt lat="43.452715753447535" lon="12.105013611001704"><ele>516.4</ele><time>2026-03-22T10:15:57.272Z</time></trkpt><trkpt lat="43.45264506203166" lon="12.104957710160534"><ele>520.0</ele><time>2026-03-22T10:15:58.271Z</time></trkpt><trkpt lat="43.452588821025216" lon="12.10485079537176"><ele>520.0</ele><time>2026-03-22T10:15:59.271Z</time></trkpt><trkpt lat="43.452536724208485" lon="12.104746566623144"><ele>520.0</ele><time>2026-03-22T10:16:00.266Z</time></trkpt><trkpt lat="43.45246120600826" lon="12.10472093598274"><ele>520.0</ele><time>2026-03-22T10:16:01.265Z</time></trkpt><trkpt lat="43.45237812595182" lon="12.10476611511314"><ele>520.0</ele><time>2026-03-22T10:16:02.272Z</time></trkpt><trkpt lat="43.45231797845088" lon="12.104875142803875"><ele>520.0</ele><time>2026-03-22T10:16:03.271Z</time></trkpt><trkpt lat="43.45228880423917" lon="12.105001081013967"><ele>520.0</ele><time>2026-03-22T10:16:04.264Z</time></trkpt><trkpt lat="43.4522434684846" lon="12.105108199029559"><ele>520.0</ele><time>2026-03-22T10:16:05.271Z</time></trkpt><trkpt lat="43.45216496908587" lon="12.10514459202441"><ele>520.0</ele><time>2026-03-22T10:16:06.271Z</time></trkpt><trkpt lat="43.4520712507791" lon="12.105127731010754"><ele>520.0</ele><time>2026-03-22T10:16:07.273Z</time></trkpt><trkpt lat="43.45201637048039" lon="12.105039907151284"><ele>520.0</ele><time>2026-03-22T10:16:08.265Z</time></trkpt><trkpt lat="43.451980379921594" lon="12.104927018690857"><ele>520.0</ele><time>2026-03-22T10:16:09.272Z</time></trkpt><trkpt lat="43.45194565294196" lon="12.104839717631018"><ele>521.1666666666667</ele><time>2026-03-22T10:16:10.272Z</time></trkpt><trkpt lat="43.45183065738574" lon="12.104824602771005"><ele>522.3333333333334</ele><time>2026-03-22T10:16:12.266Z</time></trkpt><trkpt lat="43.45177937095093" lon="12.104890986961513"><ele>523.5</ele><time>2026-03-22T10:16:13.272Z</time></trkpt><trkpt lat="43.45172889255177" lon="12.104980641427549"><ele>524.6666666666666</ele><time>2026-03-22T10:16:14.274Z</time></trkpt><trkpt lat="43.45166270967843" lon="12.105037590800288"><ele>525.8333333333333</ele><time>2026-03-22T10:16:15.272Z</time></trkpt><trkpt lat="43.45159386395345" lon="12.105013003836376"><ele>527.0</ele><time>2026-03-22T10:16:16.265Z</time></trkpt><trkpt lat="43.45151916510815" lon="12.104953089272778"><ele>528.6</ele><time>2026-03-22T10:16:17.272Z</time></trkpt><trkpt lat="43.451437125843135" lon="12.104921593653035"><ele>530.2</ele><time>2026-03-22T10:16:18.272Z</time></trkpt><trkpt lat="43.45135354685131" lon="12.104930960937429"><ele>531.8</ele><time>2026-03-22T10:16:19.271Z</time></trkpt><trkpt lat="43.45126426425843" lon="12.104963683650126"><ele>533.4</ele><time>2026-03-22T10:16:20.264Z</time></trkpt><trkpt lat="43.45117179148204" lon="12.105008173010276"><ele>535.0</ele><time>2026-03-22T10:16:21.264Z</time></trkpt><trkpt lat="43.45107328641256" lon="12.105054680788196"><ele>537.25</ele><time>2026-03-22T10:16:22.27Z</time></trkpt><trkpt lat="43.45097409062331" lon="12.10509793850018"><ele>539.5</ele><time>2026-03-22T10:16:23.271Z</time></trkpt><trkpt lat="43.45087236111818" lon="12.10514311163838"><ele>541.75</ele><time>2026-03-22T10:16:24.263Z</time></trkpt><trkpt lat="43.450759773027706" lon="12.105189714743325"><ele>544.0</ele><time>2026-03-22T10:16:25.271Z</time></trkpt><trkpt lat="43.45063851737036" lon="12.10522991377341"><ele>544.0</ele><time>2026-03-22T10:16:26.272Z</time></trkpt><trkpt lat="43.450510992175516" lon="12.105226282036599"><ele>544.0</ele><time>2026-03-22T10:16:27.273Z</time></trkpt><trkpt lat="43.45038505966047" lon="12.105172027960755"><ele>544.0</ele><time>2026-03-22T10:16:28.266Z</time></trkpt><trkpt lat="43.45026716147832" lon="12.105105576521222"><ele>544.0</ele><time>2026-03-22T10:16:29.272Z</time></trkpt><trkpt lat="43.45014319302148" lon="12.105060883818862"><ele>544.4</ele><time>2026-03-22T10:16:30.272Z</time></trkpt><trkpt lat="43.45003715461082" lon="12.105020506790162"><ele>544.8</ele><time>2026-03-22T10:16:31.271Z</time></trkpt><trkpt lat="43.44995351942178" lon="12.104979244600255"><ele>545.2</ele><time>2026-03-22T10:16:32.263Z</time></trkpt><trkpt lat="43.449877565575385" lon="12.104950204781115"><ele>545.6</ele><time>2026-03-22T10:16:33.271Z</time></trkpt><trkpt lat="43.44978485458446" lon="12.104920502236308"><ele>546.0</ele><time>2026-03-22T10:16:34.271Z</time></trkpt><trkpt lat="43.44968425647433" lon="12.104893341023715"><ele>546.6</ele><time>2026-03-22T10:16:35.265Z</time></trkpt><trkpt lat="43.449578117632065" lon="12.10486276260527"><ele>547.2</ele><time>2026-03-22T10:16:36.265Z</time></trkpt><trkpt lat="43.44947021384334" lon="12.104833789700407"><ele>547.8</ele><time>2026-03-22T10:16:37.272Z</time></trkpt><trkpt lat="43.44938219436281" lon="12.104807243856168"><ele>548.4</ele><time>2026-03-22T10:16:38.272Z</time></trkpt><trkpt lat="43.44931792690935" lon="12.104787940679127"><ele>549.0</ele><time>2026-03-22T10:16:39.273Z</time></trkpt><trkpt lat="43.449241111861674" lon="12.104729069940033"><ele>549.0</ele><time>2026-03-22T10:16:41.273Z</time></trkpt><trkpt lat="43.4492115207911" lon="12.104636441432367"><ele>549.0</ele><time>2026-03-22T10:16:50.266Z</time></trkpt><trkpt lat="43.44913589461874" lon="12.104594219984046"><ele>549.0</ele><time>2026-03-22T10:17:10.272Z</time></trkpt><trkpt lat="43.44903558250324" lon="12.104560773429382"><ele>549.0</ele><time>2026-03-22T10:17:12.266Z</time></trkpt><trkpt lat="43.448985312126524" lon="12.104504206046414"><ele>549.0</ele><time>2026-03-22T10:17:13.272Z</time></trkpt><trkpt lat="43.44887350089479" lon="12.104416790385693"><ele>551.4</ele><time>2026-03-22T10:17:15.272Z</time></trkpt><trkpt lat="43.448751356131865" lon="12.104377546110602"><ele>553.8</ele><time>2026-03-22T10:17:17.271Z</time></trkpt><trkpt lat="43.44866995191373" lon="12.104387648145712"><ele>556.2</ele><time>2026-03-22T10:17:18.27Z</time></trkpt><trkpt lat="43.44857593200657" lon="12.10438205677067"><ele>558.6</ele><time>2026-03-22T10:17:19.271Z</time></trkpt><trkpt lat="43.44849592519457" lon="12.104376748453062"><ele>561.0</ele><time>2026-03-22T10:17:20.265Z</time></trkpt><trkpt lat="43.44840217851515" lon="12.104375186193144"><ele>561.0</ele><time>2026-03-22T10:17:21.27Z</time></trkpt><trkpt lat="43.44831520351626" lon="12.104342180317978"><ele>561.0</ele><time>2026-03-22T10:17:22.271Z</time></trkpt><trkpt lat="43.4482223005179" lon="12.104313054003313"><ele>561.0</ele><time>2026-03-22T10:17:23.271Z</time></trkpt><trkpt lat="43.44812200514898" lon="12.1043052820712"><ele>561.0</ele><time>2026-03-22T10:17:24.264Z</time></trkpt><trkpt lat="43.44800209601825" lon="12.104271441104107"><ele>561.0</ele><time>2026-03-22T10:17:25.272Z</time></trkpt><trkpt lat="43.44787575426997" lon="12.104194157279204"><ele>564.5</ele><time>2026-03-22T10:17:26.264Z</time></trkpt><trkpt lat="43.447747861867285" lon="12.104139468836747"><ele>568.0</ele><time>2026-03-22T10:17:27.271Z</time></trkpt><trkpt lat="43.44760069336827" lon="12.104072333547593"><ele>571.5</ele><time>2026-03-22T10:17:28.264Z</time></trkpt><trkpt lat="43.44769928186587" lon="12.104022257479347"><ele>575.0</ele><time>2026-03-22T10:17:29.273Z</time></trkpt><trkpt lat="43.44765690915135" lon="12.10387550881351"><ele>575.0</ele><time>2026-03-22T10:17:31.272Z</time></trkpt><trkpt lat="43.44764544689071" lon="12.103772302025975"><ele>575.0</ele><time>2026-03-22T10:17:32.264Z</time></trkpt><trkpt lat="43.447575618952264" lon="12.103647048266799"><ele>575.0</ele><time>2026-03-22T10:17:34.272Z</time></trkpt><trkpt lat="43.44745483532875" lon="12.10355476166887"><ele>575.0</ele><time>2026-03-22T10:17:36.265Z</time></trkpt><trkpt lat="43.447374795083746" lon="12.103518681491563"><ele>575.0</ele><time>2026-03-22T10:17:37.272Z</time></trkpt><trkpt lat="43.44730218522756" lon="12.103464564316464"><ele>575.0</ele><time>2026-03-22T10:17:38.272Z</time></trkpt><trkpt lat="43.447210049640375" lon="12.103318708028015"><ele>575.0</ele><time>2026-03-22T10:17:40.265Z</time></trkpt><trkpt lat="43.447144384780444" lon="12.103244461519719"><ele>575.0</ele><time>2026-03-22T10:17:41.265Z</time></trkpt><trkpt lat="43.44705655490448" lon="12.103217186441569"><ele>575.0</ele><time>2026-03-22T10:17:42.272Z</time></trkpt><trkpt lat="43.446985288069456" lon="12.10323046719212"><ele>575.0</ele><time>2026-03-22T10:17:43.272Z</time></trkpt><trkpt lat="43.44691933594091" lon="12.10324784250996"><ele>574.1666666666666</ele><time>2026-03-22T10:17:44.267Z</time></trkpt><trkpt lat="43.446851489542524" lon="12.103239723717369"><ele>573.3333333333333</ele><time>2026-03-22T10:17:45.273Z</time></trkpt><trkpt lat="43.44678380655203" lon="12.103218428328608"><ele>572.5</ele><time>2026-03-22T10:17:46.271Z</time></trkpt><trkpt lat="43.446706359710056" lon="12.103181190944502"><ele>571.6666666666666</ele><time>2026-03-22T10:17:47.271Z</time></trkpt><trkpt lat="43.446628231132586" lon="12.103155938525486"><ele>570.8333333333334</ele><time>2026-03-22T10:17:48.265Z</time></trkpt><trkpt lat="43.44652973096961" lon="12.10316278399167"><ele>570.0</ele><time>2026-03-22T10:17:50.272Z</time></trkpt><trkpt lat="43.44642021072521" lon="12.103182488025677"><ele>570.0</ele><time>2026-03-22T10:17:52.264Z</time></trkpt><trkpt lat="43.44630832803687" lon="12.103148701625841"><ele>570.0</ele><time>2026-03-22T10:17:54.271Z</time></trkpt><trkpt lat="43.44624299374864" lon="12.103142606005607"><ele>570.0</ele><time>2026-03-22T10:17:55.272Z</time></trkpt><trkpt lat="43.44611960410677" lon="12.103132795119832"><ele>570.0</ele><time>2026-03-22T10:17:57.272Z</time></trkpt><trkpt lat="43.446044733001266" lon="12.103107475474513"><ele>570.0</ele><time>2026-03-22T10:17:58.271Z</time></trkpt><trkpt lat="43.4459732763" lon="12.103066035909421"><ele>574.6666666666666</ele><time>2026-03-22T10:17:59.271Z</time></trkpt><trkpt lat="43.445883721772574" lon="12.102992306300246"><ele>579.3333333333334</ele><time>2026-03-22T10:18:01.266Z</time></trkpt><trkpt lat="43.44584032490868" lon="12.102904725311591"><ele>584.0</ele><time>2026-03-22T10:18:02.273Z</time></trkpt><trkpt lat="43.445764344866355" lon="12.102808364176536"><ele>588.6666666666667</ele><time>2026-03-22T10:18:04.265Z</time></trkpt><trkpt lat="43.44571431892765" lon="12.102750092630613"><ele>593.3333333333334</ele><time>2026-03-22T10:18:05.271Z</time></trkpt><trkpt lat="43.4456548997355" lon="12.102707730661825"><ele>598.0</ele><time>2026-03-22T10:18:06.271Z</time></trkpt><trkpt lat="43.445609745278176" lon="12.102642423072087"><ele>598.0</ele><time>2026-03-22T10:18:07.271Z</time></trkpt><trkpt lat="43.4455641511829" lon="12.10255729035139"><ele>598.0</ele><time>2026-03-22T10:18:08.264Z</time></trkpt><trkpt lat="43.445508530128954" lon="12.102383712765034"><ele>598.0</ele><time>2026-03-22T10:18:10.271Z</time></trkpt><trkpt lat="43.44544781127263" lon="12.102254052343488"><ele>598.0</ele><time>2026-03-22T10:18:12.265Z</time></trkpt><trkpt lat="43.44537872005872" lon="12.102122258296234"><ele>598.0</ele><time>2026-03-22T10:18:14.271Z</time></trkpt><trkpt lat="43.44529996077136" lon="12.102024758477395"><ele>603.1999999999999</ele><time>2026-03-22T10:18:16.264Z</time></trkpt><trkpt lat="43.44519167842308" lon="12.101916287318078"><ele>608.4</ele><time>2026-03-22T10:18:18.272Z</time></trkpt><trkpt lat="43.445132365345486" lon="12.101863972229893"><ele>613.5999999999999</ele><time>2026-03-22T10:18:19.271Z</time></trkpt><trkpt lat="43.445066113886426" lon="12.101782821325477"><ele>618.8</ele><time>2026-03-22T10:18:20.266Z</time></trkpt><trkpt lat="43.44500136703636" lon="12.101694783755729"><ele>624.0</ele><time>2026-03-22T10:18:21.271Z</time></trkpt><trkpt lat="43.44490863270087" lon="12.101609230980987"><ele>626.0</ele><time>2026-03-22T10:18:23.272Z</time></trkpt><trkpt lat="43.44483821597129" lon="12.10153245537454"><ele>628.0</ele><time>2026-03-22T10:18:24.272Z</time></trkpt><trkpt lat="43.44471450542584" lon="12.101432661744468"><ele>630.0</ele><time>2026-03-22T10:18:26.271Z</time></trkpt><trkpt lat="43.44466254286759" lon="12.101369255159645"><ele>632.0</ele><time>2026-03-22T10:18:27.272Z</time></trkpt><trkpt lat="43.44455824342624" lon="12.101265991158092"><ele>634.0</ele><time>2026-03-22T10:18:29.272Z</time></trkpt><trkpt lat="43.44450048253549" lon="12.101201556198712"><ele>634.0</ele><time>2026-03-22T10:18:30.271Z</time></trkpt><trkpt lat="43.4444395245332" lon="12.101116640885447"><ele>634.0</ele><time>2026-03-22T10:18:31.271Z</time></trkpt><trkpt lat="43.444388736933966" lon="12.10105425742932"><ele>634.0</ele><time>2026-03-22T10:18:32.272Z</time></trkpt><trkpt lat="43.44430694564788" lon="12.100936789141391"><ele>634.0</ele><time>2026-03-22T10:18:34.271Z</time></trkpt><trkpt lat="43.44425639554565" lon="12.10087516750271"><ele>634.0</ele><time>2026-03-22T10:18:35.271Z</time></trkpt><trkpt lat="43.44420558669136" lon="12.100794202477775"><ele>634.0</ele><time>2026-03-22T10:18:36.265Z</time></trkpt><trkpt lat="43.44414768983435" lon="12.100718849810258"><ele>632.0</ele><time>2026-03-22T10:18:37.272Z</time></trkpt><trkpt lat="43.44406601569932" lon="12.100649482272983"><ele>630.0</ele><time>2026-03-22T10:18:38.271Z</time></trkpt><trkpt lat="43.443995938835094" lon="12.100581598273067"><ele>628.0</ele><time>2026-03-22T10:18:39.271Z</time></trkpt><trkpt lat="43.44393170287115" lon="12.100517965907043"><ele>626.0</ele><time>2026-03-22T10:18:40.265Z</time></trkpt><trkpt lat="43.44385732886863" lon="12.10045710056637"><ele>624.0</ele><time>2026-03-22T10:18:41.271Z</time></trkpt><trkpt lat="43.44377079636315" lon="12.100407294967098"><ele>622.0</ele><time>2026-03-22T10:18:42.271Z</time></trkpt><trkpt lat="43.44369740775021" lon="12.10036174074287"><ele>628.4000000000001</ele><time>2026-03-22T10:18:43.271Z</time></trkpt><trkpt lat="43.44363045956279" lon="12.100322652698951"><ele>634.8000000000001</ele><time>2026-03-22T10:18:46.272Z</time></trkpt><trkpt lat="43.443585556640336" lon="12.100450105732202"><ele>641.2</ele><time>2026-03-22T10:18:49.271Z</time></trkpt><trkpt lat="43.443511306406" lon="12.100500351255603"><ele>647.6</ele><time>2026-03-22T10:18:51.273Z</time></trkpt><trkpt lat="43.443422323798245" lon="12.100376409904985"><ele>654.0</ele><time>2026-03-22T10:18:53.272Z</time></trkpt><trkpt lat="43.443414104252646" lon="12.100271633045617"><ele>654.0</ele><time>2026-03-22T10:18:54.271Z</time></trkpt><trkpt lat="43.443426561862175" lon="12.100155813316015"><ele>654.0</ele><time>2026-03-22T10:18:55.272Z</time></trkpt><trkpt lat="43.44344450505326" lon="12.100028096139035"><ele>654.0</ele><time>2026-03-22T10:18:56.271Z</time></trkpt><trkpt lat="43.44343742961774" lon="12.099900808196933"><ele>654.0</ele><time>2026-03-22T10:18:57.273Z</time></trkpt><trkpt lat="43.443413512557406" lon="12.099766540661273"><ele>654.0</ele><time>2026-03-22T10:18:58.271Z</time></trkpt><trkpt lat="43.443375384394294" lon="12.09968962645263"><ele>654.0</ele><time>2026-03-22T10:18:59.271Z</time></trkpt><trkpt lat="43.443263381577744" lon="12.099649997672927"><ele>655.0</ele><time>2026-03-22T10:19:01.271Z</time></trkpt><trkpt lat="43.44315601458264" lon="12.099653685932791"><ele>656.0</ele><time>2026-03-22T10:19:02.27Z</time></trkpt><trkpt lat="43.44304786051132" lon="12.099656330011959"><ele>657.0</ele><time>2026-03-22T10:19:03.271Z</time></trkpt><trkpt lat="43.44294319554179" lon="12.099647015208484"><ele>658.0</ele><time>2026-03-22T10:19:04.27Z</time></trkpt><trkpt lat="43.44284041957211" lon="12.099627503210952"><ele>659.0</ele><time>2026-03-22T10:19:05.27Z</time></trkpt><trkpt lat="43.44274192834519" lon="12.099616612732994"><ele>662.1666666666666</ele><time>2026-03-22T10:19:06.27Z</time></trkpt><trkpt lat="43.4426501524713" lon="12.099602336675877"><ele>665.3333333333333</ele><time>2026-03-22T10:19:07.272Z</time></trkpt><trkpt lat="43.442566044562255" lon="12.099586133467362"><ele>668.5</ele><time>2026-03-22T10:19:08.263Z</time></trkpt><trkpt lat="43.44249286061416" lon="12.099531836921553"><ele>671.6666666666666</ele><time>2026-03-22T10:19:09.271Z</time></trkpt><trkpt lat="43.44242716255205" lon="12.099465873380408"><ele>674.8333333333334</ele><time>2026-03-22T10:19:10.269Z</time></trkpt><trkpt lat="43.442344119791564" lon="12.099407009491921"><ele>678.0</ele><time>2026-03-22T10:19:11.269Z</time></trkpt><trkpt lat="43.4422460135882" lon="12.099407042171931"><ele>678.0</ele><time>2026-03-22T10:19:12.268Z</time></trkpt><trkpt lat="43.442165842607345" lon="12.099460297664242"><ele>678.0</ele><time>2026-03-22T10:19:13.27Z</time></trkpt><trkpt lat="43.442089980096" lon="12.099552531057496"><ele>678.0</ele><time>2026-03-22T10:19:14.269Z</time></trkpt><trkpt lat="43.44200155563907" lon="12.099630534321488"><ele>678.0</ele><time>2026-03-22T10:19:15.27Z</time></trkpt><trkpt lat="43.441902186876995" lon="12.099684017359602"><ele>678.0</ele><time>2026-03-22T10:19:16.263Z</time></trkpt><trkpt lat="43.441803106262704" lon="12.09970021672419"><ele>679.0</ele><time>2026-03-22T10:19:17.269Z</time></trkpt><trkpt lat="43.441714059444855" lon="12.099693896585823"><ele>680.0</ele><time>2026-03-22T10:19:18.269Z</time></trkpt><trkpt lat="43.44165098016694" lon="12.099647308030091"><ele>681.0</ele><time>2026-03-22T10:19:19.27Z</time></trkpt><trkpt lat="43.44158546836772" lon="12.099561940530421"><ele>682.0</ele><time>2026-03-22T10:19:20.263Z</time></trkpt><trkpt lat="43.44151785255062" lon="12.099467465609658"><ele>683.0</ele><time>2026-03-22T10:19:21.262Z</time></trkpt><trkpt lat="43.441429212588424" lon="12.099434665699121"><ele>684.0</ele><time>2026-03-22T10:19:22.269Z</time></trkpt><trkpt lat="43.44133536686794" lon="12.099456577188775"><ele>682.0</ele><time>2026-03-22T10:19:23.271Z</time></trkpt><trkpt lat="43.44126238087254" lon="12.099535164866223"><ele>680.0</ele><time>2026-03-22T10:19:24.262Z</time></trkpt><trkpt lat="43.44118717963204" lon="12.099641887514727"><ele>678.0</ele><time>2026-03-22T10:19:25.27Z</time></trkpt><trkpt lat="43.44109193690404" lon="12.099700762659543"><ele>676.0</ele><time>2026-03-22T10:19:26.269Z</time></trkpt><trkpt lat="43.4409898740791" lon="12.09971311917878"><ele>674.0</ele><time>2026-03-22T10:19:27.263Z</time></trkpt><trkpt lat="43.44089894586316" lon="12.099705755725171"><ele>674.0</ele><time>2026-03-22T10:19:28.263Z</time></trkpt><trkpt lat="43.440834076470544" lon="12.099695825699076"><ele>674.0</ele><time>2026-03-22T10:19:29.269Z</time></trkpt><trkpt lat="43.44073223499102" lon="12.09967960375344"><ele>674.0</ele><time>2026-03-22T10:19:31.271Z</time></trkpt><trkpt lat="43.44066606618914" lon="12.09967661007491"><ele>674.0</ele><time>2026-03-22T10:19:33.271Z</time></trkpt><trkpt lat="43.44058296762745" lon="12.099631746572554"><ele>674.0</ele><time>2026-03-22T10:19:36.264Z</time></trkpt><trkpt lat="43.4405913058906" lon="12.099494854948725"><ele>674.0</ele><time>2026-03-22T10:19:39.27Z</time></trkpt><trkpt lat="43.440637000975464" lon="12.099360180571061"><ele>674.0</ele><time>2026-03-22T10:19:41.263Z</time></trkpt><trkpt lat="43.44063710178195" lon="12.099271223686678"><ele>674.0</ele><time>2026-03-22T10:19:42.269Z</time></trkpt><trkpt lat="43.440610349193655" lon="12.099151110824826"><ele>674.0</ele><time>2026-03-22T10:19:43.27Z</time></trkpt><trkpt lat="43.4405636728846" lon="12.099025263663364"><ele>674.0</ele><time>2026-03-22T10:19:44.262Z</time></trkpt><trkpt lat="43.44052035287411" lon="12.098874771877705"><ele>674.0</ele><time>2026-03-22T10:19:45.262Z</time></trkpt><trkpt lat="43.4404773280594" lon="12.098714409237733"><ele>674.6</ele><time>2026-03-22T10:19:46.268Z</time></trkpt><trkpt lat="43.440443440317544" lon="12.098575462188705"><ele>675.2</ele><time>2026-03-22T10:19:47.269Z</time></trkpt><trkpt lat="43.440403574242985" lon="12.098452543664227"><ele>675.8000000000001</ele><time>2026-03-22T10:19:48.261Z</time></trkpt><trkpt lat="43.440350170648465" lon="12.098351083773775"><ele>676.4000000000001</ele><time>2026-03-22T10:19:49.269Z</time></trkpt><trkpt lat="43.440279489552935" lon="12.098247636506049"><ele>677.0</ele><time>2026-03-22T10:19:50.271Z</time></trkpt><trkpt lat="43.44019623108323" lon="12.09818443120331"><ele>677.0</ele><time>2026-03-22T10:19:51.27Z</time></trkpt><trkpt lat="43.440130380821465" lon="12.09812838211889"><ele>677.0</ele><time>2026-03-22T10:19:52.264Z</time></trkpt><trkpt lat="43.44008253539961" lon="12.098042560668679"><ele>677.0</ele><time>2026-03-22T10:19:53.271Z</time></trkpt><trkpt lat="43.440056285866326" lon="12.097945820041755"><ele>677.0</ele><time>2026-03-22T10:19:54.269Z</time></trkpt><trkpt lat="43.44004921745156" lon="12.097842385799064"><ele>677.0</ele><time>2026-03-22T10:19:55.262Z</time></trkpt><trkpt lat="43.44003666541251" lon="12.097731301467942"><ele>677.0</ele><time>2026-03-22T10:19:56.261Z</time></trkpt><trkpt lat="43.44001639914345" lon="12.097594267995603"><ele>677.0</ele><time>2026-03-22T10:19:57.269Z</time></trkpt><trkpt lat="43.44001491913175" lon="12.097455155226896"><ele>677.0</ele><time>2026-03-22T10:19:58.268Z</time></trkpt><trkpt lat="43.44003326992976" lon="12.097294280806409"><ele>677.0</ele><time>2026-03-22T10:19:59.269Z</time></trkpt><trkpt lat="43.44005620349323" lon="12.097121198325109"><ele>677.0</ele><time>2026-03-22T10:20:00.262Z</time></trkpt><trkpt lat="43.44005790993702" lon="12.096956743545864"><ele>677.5</ele><time>2026-03-22T10:20:01.269Z</time></trkpt><trkpt lat="43.44003715092732" lon="12.096786483025346"><ele>678.0</ele><time>2026-03-22T10:20:02.269Z</time></trkpt><trkpt lat="43.44001451887267" lon="12.096617908665376"><ele>678.5</ele><time>2026-03-22T10:20:03.262Z</time></trkpt><trkpt lat="43.4399878187698" lon="12.096457734461898"><ele>679.0</ele><time>2026-03-22T10:20:04.265Z</time></trkpt><trkpt lat="43.43995846355224" lon="12.09633129608691"><ele>678.5</ele><time>2026-03-22T10:20:05.272Z</time></trkpt><trkpt lat="43.43990349245878" lon="12.09622029822829"><ele>678.0</ele><time>2026-03-22T10:20:06.271Z</time></trkpt><trkpt lat="43.439809469450104" lon="12.09612953328086"><ele>677.5</ele><time>2026-03-22T10:20:07.271Z</time></trkpt><trkpt lat="43.43969341313225" lon="12.096043946342297"><ele>677.0</ele><time>2026-03-22T10:20:08.266Z</time></trkpt><trkpt lat="43.43957002937672" lon="12.095961914362308"><ele>677.0</ele><time>2026-03-22T10:20:09.272Z</time></trkpt><trkpt lat="43.43945219582097" lon="12.095868723207813"><ele>677.0</ele><time>2026-03-22T10:20:10.272Z</time></trkpt><trkpt lat="43.43933374668479" lon="12.095769844303243"><ele>677.0</ele><time>2026-03-22T10:20:11.272Z</time></trkpt><trkpt lat="43.439216759111474" lon="12.095671058416738"><ele>677.0</ele><time>2026-03-22T10:20:12.265Z</time></trkpt><trkpt lat="43.43910293065307" lon="12.095574025947483"><ele>676.25</ele><time>2026-03-22T10:20:13.273Z</time></trkpt><trkpt lat="43.43899218277122" lon="12.095484944993517"><ele>675.5</ele><time>2026-03-22T10:20:14.272Z</time></trkpt><trkpt lat="43.43888894561867" lon="12.095394516318613"><ele>674.75</ele><time>2026-03-22T10:20:15.271Z</time></trkpt><trkpt lat="43.438789250855024" lon="12.095305063224249"><ele>674.0</ele><time>2026-03-22T10:20:16.272Z</time></trkpt><trkpt lat="43.438694675405245" lon="12.095208970257216"><ele>677.5</ele><time>2026-03-22T10:20:17.271Z</time></trkpt><trkpt lat="43.438605976147" lon="12.095091060481657"><ele>681.0</ele><time>2026-03-22T10:20:18.272Z</time></trkpt><trkpt lat="43.438525181376114" lon="12.094955720396893"><ele>684.5</ele><time>2026-03-22T10:20:19.27Z</time></trkpt><trkpt lat="43.438446425296235" lon="12.094826046053198"><ele>688.0</ele><time>2026-03-22T10:20:20.264Z</time></trkpt><trkpt lat="43.43836876841626" lon="12.094727206623718"><ele>691.0</ele><time>2026-03-22T10:20:21.263Z</time></trkpt><trkpt lat="43.43828439985549" lon="12.094618523189695"><ele>694.0</ele><time>2026-03-22T10:20:22.271Z</time></trkpt><trkpt lat="43.43820438984791" lon="12.09452215700347"><ele>697.0</ele><time>2026-03-22T10:20:23.273Z</time></trkpt><trkpt lat="43.438124931639145" lon="12.094422620963254"><ele>700.0</ele><time>2026-03-22T10:20:24.264Z</time></trkpt><trkpt lat="43.43804794005723" lon="12.094309673366972"><ele>703.0</ele><time>2026-03-22T10:20:25.271Z</time></trkpt><trkpt lat="43.4379939946396" lon="12.094180953042205"><ele>704.2</ele><time>2026-03-22T10:20:26.273Z</time></trkpt><trkpt lat="43.43793201928201" lon="12.094078749665455"><ele>705.4</ele><time>2026-03-22T10:20:27.271Z</time></trkpt><trkpt lat="43.43787800273324" lon="12.093977832560151"><ele>706.6</ele><time>2026-03-22T10:20:28.263Z</time></trkpt><trkpt lat="43.437820551791035" lon="12.093872822539149"><ele>707.8000000000001</ele><time>2026-03-22T10:20:29.271Z</time></trkpt><trkpt lat="43.43777445713773" lon="12.09376730237861"><ele>709.0</ele><time>2026-03-22T10:20:30.271Z</time></trkpt><trkpt lat="43.43774070871013" lon="12.093644631192467"><ele>709.0</ele><time>2026-03-22T10:20:31.269Z</time></trkpt><trkpt lat="43.4377130913634" lon="12.093517453017313"><ele>709.0</ele><time>2026-03-22T10:20:32.265Z</time></trkpt><trkpt lat="43.437702518411015" lon="12.093419737136738"><ele>709.0</ele><time>2026-03-22T10:20:33.272Z</time></trkpt><trkpt lat="43.43778004930428" lon="12.0933029248661"><ele>709.0</ele><time>2026-03-22T10:20:35.271Z</time></trkpt><trkpt lat="43.437844301578046" lon="12.093265318331332"><ele>709.0</ele><time>2026-03-22T10:20:36.264Z</time></trkpt><trkpt lat="43.43792257496552" lon="12.093237125533998"><ele>709.0</ele><time>2026-03-22T10:20:37.271Z</time></trkpt><trkpt lat="43.437977510736125" lon="12.093166497375774"><ele>711.0</ele><time>2026-03-22T10:20:38.272Z</time></trkpt><trkpt lat="43.43803011633903" lon="12.093057337492978"><ele>713.0</ele><time>2026-03-22T10:20:39.273Z</time></trkpt><trkpt lat="43.43804925100148" lon="12.092924161414347"><ele>715.0</ele><time>2026-03-22T10:20:40.265Z</time></trkpt><trkpt lat="43.43805651039846" lon="12.092775468582001"><ele>717.0</ele><time>2026-03-22T10:20:41.272Z</time></trkpt><trkpt lat="43.438052930648965" lon="12.09262819925264"><ele>719.0</ele><time>2026-03-22T10:20:42.271Z</time></trkpt><trkpt lat="43.43804289373266" lon="12.09246454293133"><ele>720.25</ele><time>2026-03-22T10:20:43.271Z</time></trkpt><trkpt lat="43.438022927531144" lon="12.092278059932609"><ele>721.5</ele><time>2026-03-22T10:20:44.266Z</time></trkpt><trkpt lat="43.437990429710375" lon="12.092089939660067"><ele>722.75</ele><time>2026-03-22T10:20:45.272Z</time></trkpt><trkpt lat="43.43794576598539" lon="12.091888366995695"><ele>724.0</ele><time>2026-03-22T10:20:46.272Z</time></trkpt><trkpt lat="43.437901397921415" lon="12.091710312419641"><ele>729.75</ele><time>2026-03-22T10:20:47.271Z</time></trkpt><trkpt lat="43.43785568268177" lon="12.091533746033821"><ele>735.5</ele><time>2026-03-22T10:20:48.266Z</time></trkpt><trkpt lat="43.43780813373312" lon="12.091354136756262"><ele>741.25</ele><time>2026-03-22T10:20:49.272Z</time></trkpt><trkpt lat="43.43775562654694" lon="12.091204129602803"><ele>747.0</ele><time>2026-03-22T10:20:50.272Z</time></trkpt><trkpt lat="43.43769351269141" lon="12.091065549890997"><ele>747.0</ele><time>2026-03-22T10:20:51.273Z</time></trkpt><trkpt lat="43.43760811013164" lon="12.09094943026263"><ele>747.0</ele><time>2026-03-22T10:20:52.265Z</time></trkpt><trkpt lat="43.43752372068557" lon="12.090838731177296"><ele>747.0</ele><time>2026-03-22T10:20:53.271Z</time></trkpt><trkpt lat="43.43744884541749" lon="12.090725813988447"><ele>747.0</ele><time>2026-03-22T10:20:54.272Z</time></trkpt><trkpt lat="43.43739007220034" lon="12.090603527517262"><ele>748.0</ele><time>2026-03-22T10:20:55.27Z</time></trkpt><trkpt lat="43.43733295080831" lon="12.090450319739368"><ele>749.0</ele><time>2026-03-22T10:20:56.264Z</time></trkpt><trkpt lat="43.43726517959991" lon="12.090311591547273"><ele>750.0</ele><time>2026-03-22T10:20:57.269Z</time></trkpt><trkpt lat="43.43717042335917" lon="12.090205580225158"><ele>751.0</ele><time>2026-03-22T10:20:58.269Z</time></trkpt><trkpt lat="43.43706106426143" lon="12.090132585408655"><ele>753.1999999999999</ele><time>2026-03-22T10:20:59.27Z</time></trkpt><trkpt lat="43.4369619489609" lon="12.090056995025504"><ele>755.4</ele><time>2026-03-22T10:21:00.263Z</time></trkpt><trkpt lat="43.43685815845594" lon="12.089984727806945"><ele>757.6</ele><time>2026-03-22T10:21:01.263Z</time></trkpt><trkpt lat="43.43677173165008" lon="12.089920630971866"><ele>759.8</ele><time>2026-03-22T10:21:02.271Z</time></trkpt><trkpt lat="43.436679531314105" lon="12.089834565290447"><ele>762.0</ele><time>2026-03-22T10:21:03.27Z</time></trkpt><trkpt lat="43.43659929767894" lon="12.089759099703013"><ele>763.2</ele><time>2026-03-22T10:21:04.263Z</time></trkpt><trkpt lat="43.4365256229838" lon="12.089677380563536"><ele>764.4000000000001</ele><time>2026-03-22T10:21:05.271Z</time></trkpt><trkpt lat="43.436457791909504" lon="12.089576362209772"><ele>765.5999999999999</ele><time>2026-03-22T10:21:06.269Z</time></trkpt><trkpt lat="43.43641627593032" lon="12.089469354055929"><ele>766.8</ele><time>2026-03-22T10:21:07.27Z</time></trkpt><trkpt lat="43.43636744503848" lon="12.089354090184225"><ele>768.0</ele><time>2026-03-22T10:21:08.263Z</time></trkpt><trkpt lat="43.43632614869695" lon="12.089239900711599"><ele>769.2</ele><time>2026-03-22T10:21:09.27Z</time></trkpt><trkpt lat="43.43626924792104" lon="12.089138604047024"><ele>770.4</ele><time>2026-03-22T10:21:10.271Z</time></trkpt><trkpt lat="43.436195222715554" lon="12.08902592446153"><ele>771.6</ele><time>2026-03-22T10:21:11.27Z</time></trkpt><trkpt lat="43.436108922968245" lon="12.088926875184523"><ele>772.8000000000001</ele><time>2026-03-22T10:21:12.265Z</time></trkpt><trkpt lat="43.43601901796043" lon="12.088835016162253"><ele>774.0</ele><time>2026-03-22T10:21:13.27Z</time></trkpt><trkpt lat="43.43592173001678" lon="12.088760075469311"><ele>778.75</ele><time>2026-03-22T10:21:14.27Z</time></trkpt><trkpt lat="43.43581118921218" lon="12.08871228072483"><ele>783.5</ele><time>2026-03-22T10:21:15.27Z</time></trkpt><trkpt lat="43.43570112855437" lon="12.08869006415948"><ele>788.25</ele><time>2026-03-22T10:21:16.263Z</time></trkpt><trkpt lat="43.435589489062416" lon="12.088652039125748"><ele>793.0</ele><time>2026-03-22T10:21:17.27Z</time></trkpt><trkpt lat="43.43548238426485" lon="12.088583602551518"><ele>794.25</ele><time>2026-03-22T10:21:18.27Z</time></trkpt><trkpt lat="43.435378548821205" lon="12.088505495695404"><ele>795.5</ele><time>2026-03-22T10:21:19.27Z</time></trkpt><trkpt lat="43.43527558570307" lon="12.088408475441161"><ele>796.75</ele><time>2026-03-22T10:21:20.264Z</time></trkpt><trkpt lat="43.43517951532317" lon="12.088300554897387"><ele>798.0</ele><time>2026-03-22T10:21:21.263Z</time></trkpt><trkpt lat="43.435092095803675" lon="12.088192636746609"><ele>802.4</ele><time>2026-03-22T10:21:22.269Z</time></trkpt><trkpt lat="43.435021868041375" lon="12.08808525683009"><ele>806.8</ele><time>2026-03-22T10:21:23.27Z</time></trkpt><trkpt lat="43.434937607978256" lon="12.088014979374828"><ele>811.2</ele><time>2026-03-22T10:21:24.262Z</time></trkpt><trkpt lat="43.434829067427415" lon="12.087979421683286"><ele>815.6</ele><time>2026-03-22T10:21:25.27Z</time></trkpt><trkpt lat="43.434717498973114" lon="12.08797436865165"><ele>820.0</ele><time>2026-03-22T10:21:26.269Z</time></trkpt><trkpt lat="43.43461542101581" lon="12.087992863190578"><ele>823.0</ele><time>2026-03-22T10:21:27.27Z</time></trkpt><trkpt lat="43.43452293073337" lon="12.088015309928862"><ele>826.0</ele><time>2026-03-22T10:21:28.264Z</time></trkpt><trkpt lat="43.434422525229955" lon="12.088041091007952"><ele>829.0</ele><time>2026-03-22T10:21:29.268Z</time></trkpt><trkpt lat="43.43432782743525" lon="12.08805571909807"><ele>832.0</ele><time>2026-03-22T10:21:30.269Z</time></trkpt><trkpt lat="43.43422262042509" lon="12.08805746123146"><ele>835.0</ele><time>2026-03-22T10:21:31.27Z</time></trkpt><trkpt lat="43.434114148101145" lon="12.08805273198437"><ele>835.0</ele><time>2026-03-22T10:21:32.264Z</time></trkpt><trkpt lat="43.43401054845332" lon="12.08802659679746"><ele>835.0</ele><time>2026-03-22T10:21:33.27Z</time></trkpt><trkpt lat="43.433903815709314" lon="12.088003669604127"><ele>835.0</ele><time>2026-03-22T10:21:34.269Z</time></trkpt><trkpt lat="43.43380052122725" lon="12.088006397343978"><ele>835.0</ele><time>2026-03-22T10:21:35.263Z</time></trkpt><trkpt lat="43.433699673041104" lon="12.088045072128839"><ele>835.0</ele><time>2026-03-22T10:21:36.264Z</time></trkpt><trkpt lat="43.43359737143408" lon="12.088096248667428"><ele>837.5</ele><time>2026-03-22T10:21:37.268Z</time></trkpt><trkpt lat="43.43348653037946" lon="12.088129775450073"><ele>840.0</ele><time>2026-03-22T10:21:38.269Z</time></trkpt><trkpt lat="43.43338294573691" lon="12.088125356593658"><ele>842.5</ele><time>2026-03-22T10:21:39.271Z</time></trkpt><trkpt lat="43.43326560099663" lon="12.088101247654256"><ele>845.0</ele><time>2026-03-22T10:21:40.264Z</time></trkpt><trkpt lat="43.43314979793835" lon="12.088046871880847"><ele>845.0</ele><time>2026-03-22T10:21:41.27Z</time></trkpt><trkpt lat="43.433043266333165" lon="12.08798471508694"><ele>845.0</ele><time>2026-03-22T10:21:42.272Z</time></trkpt><trkpt lat="43.432954330139346" lon="12.087893662494345"><ele>845.0</ele><time>2026-03-22T10:21:43.271Z</time></trkpt><trkpt lat="43.432894452560326" lon="12.087784721178659"><ele>845.0</ele><time>2026-03-22T10:21:44.265Z</time></trkpt><trkpt lat="43.43284272805642" lon="12.087633337720494"><ele>845.0</ele><time>2026-03-22T10:21:45.269Z</time></trkpt><trkpt lat="43.43278874478953" lon="12.087494424702715"><ele>845.25</ele><time>2026-03-22T10:21:46.262Z</time></trkpt><trkpt lat="43.43272693880756" lon="12.08735181585067"><ele>845.5</ele><time>2026-03-22T10:21:47.269Z</time></trkpt><trkpt lat="43.432663770201806" lon="12.08722131676289"><ele>845.75</ele><time>2026-03-22T10:21:48.263Z</time></trkpt><trkpt lat="43.43261370377118" lon="12.087042052300154"><ele>846.0</ele><time>2026-03-22T10:21:49.27Z</time></trkpt><trkpt lat="43.43258438637872" lon="12.086873140024446"><ele>846.0</ele><time>2026-03-22T10:21:50.27Z</time></trkpt><trkpt lat="43.432546538411344" lon="12.086731381465013"><ele>846.0</ele><time>2026-03-22T10:21:51.268Z</time></trkpt><trkpt lat="43.432499945641766" lon="12.08655920798836"><ele>846.0</ele><time>2026-03-22T10:21:52.262Z</time></trkpt><trkpt lat="43.43244336190428" lon="12.086413625946195"><ele>846.0</ele><time>2026-03-22T10:21:53.269Z</time></trkpt><trkpt lat="43.43239325566869" lon="12.086268345543255"><ele>847.25</ele><time>2026-03-22T10:21:54.269Z</time></trkpt><trkpt lat="43.432339598200535" lon="12.086122822892627"><ele>848.5</ele><time>2026-03-22T10:21:55.27Z</time></trkpt><trkpt lat="43.432274427521044" lon="12.08599069724842"><ele>849.75</ele><time>2026-03-22T10:21:56.263Z</time></trkpt><trkpt lat="43.4322256577602" lon="12.0858524409467"><ele>851.0</ele><time>2026-03-22T10:21:57.269Z</time></trkpt><trkpt lat="43.43214768580823" lon="12.085694893820655"><ele>849.0</ele><time>2026-03-22T10:21:58.269Z</time></trkpt><trkpt lat="43.432110430096394" lon="12.085551844591272"><ele>847.0</ele><time>2026-03-22T10:21:59.27Z</time></trkpt><trkpt lat="43.43206967566599" lon="12.085398635600102"><ele>845.0</ele><time>2026-03-22T10:22:00.262Z</time></trkpt><trkpt lat="43.43202367980723" lon="12.085243141998932"><ele>843.0</ele><time>2026-03-22T10:22:01.27Z</time></trkpt><trkpt lat="43.43198985086401" lon="12.085098275631122"><ele>843.0</ele><time>2026-03-22T10:22:02.27Z</time></trkpt><trkpt lat="43.43195519061045" lon="12.084940567347791"><ele>843.0</ele><time>2026-03-22T10:22:03.27Z</time></trkpt><trkpt lat="43.43192594818864" lon="12.084781023767384"><ele>843.0</ele><time>2026-03-22T10:22:04.263Z</time></trkpt><trkpt lat="43.431889791263146" lon="12.084619312785302"><ele>843.0</ele><time>2026-03-22T10:22:05.27Z</time></trkpt><trkpt lat="43.43184222428677" lon="12.084464961687946"><ele>845.75</ele><time>2026-03-22T10:22:06.269Z</time></trkpt><trkpt lat="43.43175166415663" lon="12.084314650919293"><ele>848.5</ele><time>2026-03-22T10:22:07.269Z</time></trkpt><trkpt lat="43.43163797510554" lon="12.084161037135642"><ele>851.25</ele><time>2026-03-22T10:22:08.27Z</time></trkpt><trkpt lat="43.431533777961725" lon="12.084033158489024"><ele>854.0</ele><time>2026-03-22T10:22:09.27Z</time></trkpt><trkpt lat="43.43144548863931" lon="12.083905799164345"><ele>854.25</ele><time>2026-03-22T10:22:10.271Z</time></trkpt><trkpt lat="43.43136502763896" lon="12.083817587826553"><ele>854.5</ele><time>2026-03-22T10:22:11.269Z</time></trkpt><trkpt lat="43.431265512300484" lon="12.083745012332697"><ele>854.75</ele><time>2026-03-22T10:22:12.264Z</time></trkpt><trkpt lat="43.43114796525469" lon="12.083666193025516"><ele>855.0</ele><time>2026-03-22T10:22:13.27Z</time></trkpt><trkpt lat="43.43106342682525" lon="12.083584367389593"><ele>855.0</ele><time>2026-03-22T10:22:14.269Z</time></trkpt><trkpt lat="43.43099352645937" lon="12.08350333405762"><ele>855.0</ele><time>2026-03-22T10:22:15.27Z</time></trkpt><trkpt lat="43.43094596948366" lon="12.083415341047916"><ele>855.0</ele><time>2026-03-22T10:22:16.263Z</time></trkpt><trkpt lat="43.43090230326745" lon="12.08332501714495"><ele>855.0</ele><time>2026-03-22T10:22:17.27Z</time></trkpt><trkpt lat="43.43085593099387" lon="12.083211497496062"><ele>855.0</ele><time>2026-03-22T10:22:18.262Z</time></trkpt><trkpt lat="43.43082410679889" lon="12.083084101999624"><ele>855.0</ele><time>2026-03-22T10:22:19.27Z</time></trkpt><trkpt lat="43.430807112182954" lon="12.082940008198461"><ele>857.1666666666666</ele><time>2026-03-22T10:22:20.262Z</time></trkpt><trkpt lat="43.43081018959258" lon="12.082794568062159"><ele>859.3333333333333</ele><time>2026-03-22T10:22:21.268Z</time></trkpt><trkpt lat="43.43084763704346" lon="12.082666394126859"><ele>861.5</ele><time>2026-03-22T10:22:22.264Z</time></trkpt><trkpt lat="43.43087064893807" lon="12.082574535246968"><ele>863.6666666666666</ele><time>2026-03-22T10:22:23.27Z</time></trkpt><trkpt lat="43.43086305327914" lon="12.082479855306246"><ele>865.8333333333333</ele><time>2026-03-22T10:22:24.262Z</time></trkpt><trkpt lat="43.43080126775117" lon="12.082400216154976"><ele>868.0</ele><time>2026-03-22T10:22:25.269Z</time></trkpt><trkpt lat="43.430718045329286" lon="12.082360644978102"><ele>869.8</ele><time>2026-03-22T10:22:26.268Z</time></trkpt><trkpt lat="43.43061521451465" lon="12.082351597586712"><ele>871.5999999999999</ele><time>2026-03-22T10:22:27.269Z</time></trkpt><trkpt lat="43.43050315340631" lon="12.08235626582503"><ele>873.4000000000001</ele><time>2026-03-22T10:22:28.269Z</time></trkpt><trkpt lat="43.43039344072533" lon="12.082349037468628"><ele>875.2</ele><time>2026-03-22T10:22:29.269Z</time></trkpt><trkpt lat="43.430287339639946" lon="12.082326760377175"><ele>877.0</ele><time>2026-03-22T10:22:30.269Z</time></trkpt><trkpt lat="43.43019735904912" lon="12.082295689066166"><ele>872.8</ele><time>2026-03-22T10:22:31.27Z</time></trkpt><trkpt lat="43.43012474253902" lon="12.082234263561809"><ele>868.6</ele><time>2026-03-22T10:22:32.265Z</time></trkpt><trkpt lat="43.43006334391381" lon="12.08211710216276"><ele>864.3999999999999</ele><time>2026-03-22T10:22:33.271Z</time></trkpt><trkpt lat="43.430024976267376" lon="12.081969712539504"><ele>860.1999999999999</ele><time>2026-03-22T10:22:34.27Z</time></trkpt><trkpt lat="43.43002997987886" lon="12.081828981873468"><ele>856.0</ele><time>2026-03-22T10:22:35.271Z</time></trkpt><trkpt lat="43.43006930244542" lon="12.081699050295512"><ele>856.0</ele><time>2026-03-22T10:22:36.266Z</time></trkpt><trkpt lat="43.43013534389172" lon="12.081580785401506"><ele>856.0</ele><time>2026-03-22T10:22:37.27Z</time></trkpt><trkpt lat="43.43023396181314" lon="12.081476473336034"><ele>856.0</ele><time>2026-03-22T10:22:38.27Z</time></trkpt><trkpt lat="43.43032178979894" lon="12.081368497892031"><ele>856.0</ele><time>2026-03-22T10:22:39.27Z</time></trkpt><trkpt lat="43.430393364944855" lon="12.081255256947845"><ele>856.0</ele><time>2026-03-22T10:22:40.263Z</time></trkpt><trkpt lat="43.43043953420049" lon="12.081147196844677"><ele>855.9999999999999</ele><time>2026-03-22T10:22:41.264Z</time></trkpt><trkpt lat="43.43044780623891" lon="12.081019696826534"><ele>855.9999999999999</ele><time>2026-03-22T10:22:42.268Z</time></trkpt><trkpt lat="43.43043769720408" lon="12.080898211702639"><ele>856.0</ele><time>2026-03-22T10:22:43.267Z</time></trkpt><trkpt lat="43.43038544610727" lon="12.08080919813064"><ele>856.0</ele><time>2026-03-22T10:22:44.263Z</time></trkpt><trkpt lat="43.43029509248321" lon="12.080754809207075"><ele>856.1999999999999</ele><time>2026-03-22T10:22:45.271Z</time></trkpt><trkpt lat="43.430206300251754" lon="12.080722070861386"><ele>856.3999999999999</ele><time>2026-03-22T10:22:46.269Z</time></trkpt><trkpt lat="43.43012981991573" lon="12.080656434160705"><ele>856.6</ele><time>2026-03-22T10:22:47.269Z</time></trkpt><trkpt lat="43.43007231600826" lon="12.0805376035555"><ele>856.8</ele><time>2026-03-22T10:22:48.263Z</time></trkpt><trkpt lat="43.43001786704702" lon="12.080381538360896"><ele>857.0</ele><time>2026-03-22T10:22:49.27Z</time></trkpt><trkpt lat="43.42998776297746" lon="12.080199294827253"><ele>857.0</ele><time>2026-03-22T10:22:50.269Z</time></trkpt><trkpt lat="43.42995804610723" lon="12.080046658249067"><ele>857.0</ele><time>2026-03-22T10:22:51.271Z</time></trkpt><trkpt lat="43.42991349573733" lon="12.079923040700514"><ele>857.0</ele><time>2026-03-22T10:22:52.262Z</time></trkpt><trkpt lat="43.429850948996" lon="12.079821699151038"><ele>857.0</ele><time>2026-03-22T10:22:53.269Z</time></trkpt><trkpt lat="43.42979186720374" lon="12.079701941649004"><ele>857.0</ele><time>2026-03-22T10:22:54.269Z</time></trkpt><trkpt lat="43.42975630455089" lon="12.079565689545548"><ele>858.2</ele><time>2026-03-22T10:22:55.269Z</time></trkpt><trkpt lat="43.42973651342009" lon="12.079438768183602"><ele>859.4000000000001</ele><time>2026-03-22T10:22:56.263Z</time></trkpt><trkpt lat="43.42972386462255" lon="12.07933325782443"><ele>860.5999999999999</ele><time>2026-03-22T10:22:57.269Z</time></trkpt><trkpt lat="43.42968421966306" lon="12.079222740063752"><ele>861.8</ele><time>2026-03-22T10:22:58.26Z</time></trkpt><trkpt lat="43.42962087366654" lon="12.079093664151658"><ele>863.0</ele><time>2026-03-22T10:22:59.269Z</time></trkpt><trkpt lat="43.42954854426354" lon="12.078989353103678"><ele>860.5999999999999</ele><time>2026-03-22T10:23:00.263Z</time></trkpt><trkpt lat="43.429476773484666" lon="12.078878709216806"><ele>858.1999999999999</ele><time>2026-03-22T10:23:01.264Z</time></trkpt><trkpt lat="43.42941984785412" lon="12.07876720525063"><ele>855.8</ele><time>2026-03-22T10:23:02.27Z</time></trkpt><trkpt lat="43.42937302818359" lon="12.078658314733925"><ele>853.4</ele><time>2026-03-22T10:23:03.27Z</time></trkpt><trkpt lat="43.42934753050015" lon="12.078535671102019"><ele>851.0</ele><time>2026-03-22T10:23:04.262Z</time></trkpt><trkpt lat="43.42932359553605" lon="12.078409751864434"><ele>851.0</ele><time>2026-03-22T10:23:05.269Z</time></trkpt><trkpt lat="43.429308187027864" lon="12.078287309545154"><ele>851.0</ele><time>2026-03-22T10:23:06.269Z</time></trkpt><trkpt lat="43.42930075865901" lon="12.078139713406983"><ele>851.0</ele><time>2026-03-22T10:23:07.269Z</time></trkpt><trkpt lat="43.42929753959523" lon="12.077972421016025"><ele>851.0</ele><time>2026-03-22T10:23:08.263Z</time></trkpt><trkpt lat="43.42930081253664" lon="12.077797323750243"><ele>851.0</ele><time>2026-03-22T10:23:09.27Z</time></trkpt><trkpt lat="43.42930887466873" lon="12.077609018157881"><ele>851.4</ele><time>2026-03-22T10:23:10.27Z</time></trkpt><trkpt lat="43.42931868721993" lon="12.077445768647891"><ele>851.8</ele><time>2026-03-22T10:23:11.278Z</time></trkpt><trkpt lat="43.42930172909353" lon="12.077306898669201"><ele>852.1999999999999</ele><time>2026-03-22T10:23:12.264Z</time></trkpt><trkpt lat="43.42926576525596" lon="12.077174043921413"><ele>852.5999999999999</ele><time>2026-03-22T10:23:13.269Z</time></trkpt><trkpt lat="43.42923103142752" lon="12.077066522683324"><ele>853.0</ele><time>2026-03-22T10:23:14.269Z</time></trkpt><trkpt lat="43.429214423729285" lon="12.07696386440253"><ele>852.9999999999999</ele><time>2026-03-22T10:23:15.264Z</time></trkpt><trkpt lat="43.429203442501176" lon="12.076843809888176"><ele>853.0</ele><time>2026-03-22T10:23:16.264Z</time></trkpt><trkpt lat="43.429187866444245" lon="12.076735902833596"><ele>853.0</ele><time>2026-03-22T10:23:17.272Z</time></trkpt><trkpt lat="43.42915928243403" lon="12.076636690762136"><ele>853.0</ele><time>2026-03-22T10:23:18.273Z</time></trkpt><trkpt lat="43.42910627239623" lon="12.076533942612524"><ele>852.9999999999999</ele><time>2026-03-22T10:23:19.271Z</time></trkpt><trkpt lat="43.42903100261785" lon="12.076441247641535"><ele>853.0</ele><time>2026-03-22T10:23:20.265Z</time></trkpt><trkpt lat="43.42893490406387" lon="12.076380372186167"><ele>851.2</ele><time>2026-03-22T10:23:21.272Z</time></trkpt><trkpt lat="43.42883058490151" lon="12.076341219453788"><ele>849.4</ele><time>2026-03-22T10:23:22.271Z</time></trkpt><trkpt lat="43.42873232846614" lon="12.07632681117208"><ele>847.6</ele><time>2026-03-22T10:23:23.272Z</time></trkpt><trkpt lat="43.428651035133065" lon="12.076326383100186"><ele>845.8000000000001</ele><time>2026-03-22T10:23:24.265Z</time></trkpt><trkpt lat="43.42856415374358" lon="12.07631844838215"><ele>844.0</ele><time>2026-03-22T10:23:25.272Z</time></trkpt><trkpt lat="43.428462538601785" lon="12.0763033485862"><ele>844.0</ele><time>2026-03-22T10:23:26.272Z</time></trkpt><trkpt lat="43.428363405668726" lon="12.076289068734111"><ele>844.0</ele><time>2026-03-22T10:23:27.272Z</time></trkpt><trkpt lat="43.42825851047304" lon="12.076261947551272"><ele>844.0</ele><time>2026-03-22T10:23:28.266Z</time></trkpt><trkpt lat="43.42815455896445" lon="12.076233882926555"><ele>844.0</ele><time>2026-03-22T10:23:29.274Z</time></trkpt><trkpt lat="43.42805142729906" lon="12.0762019957787"><ele>844.0</ele><time>2026-03-22T10:23:30.271Z</time></trkpt><trkpt lat="43.42794324891021" lon="12.07617158343109"><ele>845.4000000000001</ele><time>2026-03-22T10:23:31.271Z</time></trkpt><trkpt lat="43.427836320114125" lon="12.07614588174708"><ele>846.8</ele><time>2026-03-22T10:23:32.264Z</time></trkpt><trkpt lat="43.42772821039701" lon="12.07612950147934"><ele>848.2</ele><time>2026-03-22T10:23:33.272Z</time></trkpt><trkpt lat="43.4276191534213" lon="12.07611196651061"><ele>849.5999999999999</ele><time>2026-03-22T10:23:34.274Z</time></trkpt><trkpt lat="43.42751230206814" lon="12.076081192002516"><ele>851.0</ele><time>2026-03-22T10:23:35.272Z</time></trkpt><trkpt lat="43.42741040680455" lon="12.076053901410544"><ele>851.0</ele><time>2026-03-22T10:23:36.265Z</time></trkpt><trkpt lat="43.42729771603052" lon="12.076035858524602"><ele>851.0</ele><time>2026-03-22T10:23:37.272Z</time></trkpt><trkpt lat="43.42718996495552" lon="12.076016019283655"><ele>851.0</ele><time>2026-03-22T10:23:38.274Z</time></trkpt><trkpt lat="43.427085697270506" lon="12.075999529737029"><ele>851.0</ele><time>2026-03-22T10:23:39.272Z</time></trkpt><trkpt lat="43.42699818575979" lon="12.076000841432807"><ele>851.0</ele><time>2026-03-22T10:23:40.264Z</time></trkpt><trkpt lat="43.42692083562701" lon="12.07602213165094"><ele>851.1666666666667</ele><time>2026-03-22T10:23:41.274Z</time></trkpt><trkpt lat="43.42684268312036" lon="12.075984586125662"><ele>851.3333333333334</ele><time>2026-03-22T10:23:43.273Z</time></trkpt><trkpt lat="43.426810831234874" lon="12.075858363824244"><ele>851.5</ele><time>2026-03-22T10:23:45.273Z</time></trkpt><trkpt lat="43.426772511295674" lon="12.075774171424378"><ele>851.6666666666667</ele><time>2026-03-22T10:23:48.266Z</time></trkpt><trkpt lat="43.42670337024301" lon="12.075727110236366"><ele>851.8333333333334</ele><time>2026-03-22T10:23:59.273Z</time></trkpt><trkpt lat="43.426590942928776" lon="12.075680219705928"><ele>852.0</ele><time>2026-03-22T10:24:01.272Z</time></trkpt><trkpt lat="43.426511746724564" lon="12.0756596577714"><ele>852.0</ele><time>2026-03-22T10:24:02.272Z</time></trkpt><trkpt lat="43.4264404676601" lon="12.075638742677944"><ele>852.0</ele><time>2026-03-22T10:24:03.272Z</time></trkpt><trkpt lat="43.42634770298672" lon="12.075617030878389"><ele>852.0</ele><time>2026-03-22T10:24:04.266Z</time></trkpt><trkpt lat="43.42624647356001" lon="12.075594657786958"><ele>852.0</ele><time>2026-03-22T10:24:05.274Z</time></trkpt><trkpt lat="43.42615737785924" lon="12.075560394273866"><ele>852.0</ele><time>2026-03-22T10:24:06.273Z</time></trkpt><trkpt lat="43.426046982627625" lon="12.075505468808574"><ele>854.8333333333334</ele><time>2026-03-22T10:24:07.271Z</time></trkpt><trkpt lat="43.42594682174983" lon="12.075449418391083"><ele>857.6666666666667</ele><time>2026-03-22T10:24:08.265Z</time></trkpt><trkpt lat="43.425868067882476" lon="12.075392253456513"><ele>860.5</ele><time>2026-03-22T10:24:09.272Z</time></trkpt><trkpt lat="43.425795603639294" lon="12.075300009042735"><ele>863.3333333333334</ele><time>2026-03-22T10:24:10.272Z</time></trkpt><trkpt lat="43.42572653722326" lon="12.075246257965897"><ele>866.1666666666667</ele><time>2026-03-22T10:24:11.272Z</time></trkpt><trkpt lat="43.425659537420245" lon="12.075230414983375"><ele>869.0</ele><time>2026-03-22T10:24:12.266Z</time></trkpt><trkpt lat="43.42560712087546" lon="12.075160254286452"><ele>869.0000000000001</ele><time>2026-03-22T10:24:13.273Z</time></trkpt><trkpt lat="43.42558316092777" lon="12.075071533823394"><ele>869.0</ele><time>2026-03-22T10:24:14.273Z</time></trkpt><trkpt lat="43.42555292004915" lon="12.074886864498737"><ele>869.0</ele><time>2026-03-22T10:24:16.265Z</time></trkpt><trkpt lat="43.42551895973045" lon="12.074776780491616"><ele>869.0</ele><time>2026-03-22T10:24:17.272Z</time></trkpt><trkpt lat="43.42548328234159" lon="12.074701150177697"><ele>869.0000000000001</ele><time>2026-03-22T10:24:18.272Z</time></trkpt><trkpt lat="43.42544385106025" lon="12.074633420506874"><ele>869.0</ele><time>2026-03-22T10:24:19.271Z</time></trkpt><trkpt lat="43.42540658081297" lon="12.074551170101174"><ele>872.5000000000001</ele><time>2026-03-22T10:24:20.267Z</time></trkpt><trkpt lat="43.4253584929997" lon="12.074475914916881"><ele>876.0</ele><time>2026-03-22T10:24:21.266Z</time></trkpt><trkpt lat="43.425321945444004" lon="12.074390033711206"><ele>879.5</ele><time>2026-03-22T10:24:22.272Z</time></trkpt><trkpt lat="43.42527919402743" lon="12.074319419263457"><ele>883.0</ele><time>2026-03-22T10:24:23.273Z</time></trkpt><trkpt lat="43.42519382265099" lon="12.07418268752839"><ele>886.5000000000001</ele><time>2026-03-22T10:24:25.273Z</time></trkpt><trkpt lat="43.425143910243484" lon="12.074091457128192"><ele>890.0</ele><time>2026-03-22T10:24:26.271Z</time></trkpt><trkpt lat="43.42509101719061" lon="12.07400132235193"><ele>890.0</ele><time>2026-03-22T10:24:27.272Z</time></trkpt><trkpt lat="43.42503443789049" lon="12.073919464444687"><ele>890.0</ele><time>2026-03-22T10:24:28.265Z</time></trkpt><trkpt lat="43.42497073849624" lon="12.073843105259515"><ele>890.0</ele><time>2026-03-22T10:24:29.272Z</time></trkpt><trkpt lat="43.424897205786124" lon="12.073800413349863"><ele>890.0</ele><time>2026-03-22T10:24:30.271Z</time></trkpt><trkpt lat="43.4248123907381" lon="12.07377206291708"><ele>890.0</ele><time>2026-03-22T10:24:31.272Z</time></trkpt><trkpt lat="43.42468217006772" lon="12.073730304557394"><ele>892.5000000000001</ele><time>2026-03-22T10:24:33.271Z</time></trkpt><trkpt lat="43.42460569211642" lon="12.07372356162245"><ele>895.0</ele><time>2026-03-22T10:24:34.271Z</time></trkpt><trkpt lat="43.424535959141075" lon="12.073714127233712"><ele>897.5</ele><time>2026-03-22T10:24:35.272Z</time></trkpt><trkpt lat="43.424451198463686" lon="12.073698042365278"><ele>900.0</ele><time>2026-03-22T10:24:36.263Z</time></trkpt><trkpt lat="43.42436562723476" lon="12.073686649524673"><ele>902.5000000000001</ele><time>2026-03-22T10:24:37.273Z</time></trkpt><trkpt lat="43.42425537016508" lon="12.073694843888351"><ele>905.0</ele><time>2026-03-22T10:24:38.272Z</time></trkpt><trkpt lat="43.42417944863567" lon="12.073677849264529"><ele>905.0</ele><time>2026-03-22T10:24:39.271Z</time></trkpt><trkpt lat="43.42407675837912" lon="12.073659821919804"><ele>905.0</ele><time>2026-03-22T10:24:40.267Z</time></trkpt><trkpt lat="43.423992096186865" lon="12.073619422462476"><ele>905.0</ele><time>2026-03-22T10:24:41.266Z</time></trkpt><trkpt lat="43.42388791551295" lon="12.07360349496179"><ele>905.0</ele><time>2026-03-22T10:24:42.272Z</time></trkpt><trkpt lat="43.42378915420703" lon="12.07361030812753"><ele>905.0</ele><time>2026-03-22T10:24:43.272Z</time></trkpt><trkpt lat="43.42370401915261" lon="12.073623674800478"><ele>907.0</ele><time>2026-03-22T10:24:44.266Z</time></trkpt><trkpt lat="43.423622310174856" lon="12.07359786703523"><ele>909.0</ele><time>2026-03-22T10:24:45.273Z</time></trkpt><trkpt lat="43.4235813526101" lon="12.073525067278645"><ele>911.0</ele><time>2026-03-22T10:24:46.272Z</time></trkpt><trkpt lat="43.42351795475518" lon="12.073433921146679"><ele>913.0</ele><time>2026-03-22T10:24:47.273Z</time></trkpt><trkpt lat="43.423442199698286" lon="12.073338064019147"><ele>915.0</ele><time>2026-03-22T10:24:48.266Z</time></trkpt><trkpt lat="43.423345898806545" lon="12.073235791159433"><ele>916.2</ele><time>2026-03-22T10:24:49.272Z</time></trkpt><trkpt lat="43.42326260255657" lon="12.073138051356606"><ele>917.4</ele><time>2026-03-22T10:24:50.273Z</time></trkpt><trkpt lat="43.423179284856204" lon="12.073038274793886"><ele>918.5999999999999</ele><time>2026-03-22T10:24:51.273Z</time></trkpt><trkpt lat="43.423122635455115" lon="12.072925724619974"><ele>919.8</ele><time>2026-03-22T10:24:52.265Z</time></trkpt><trkpt lat="43.42305341543873" lon="12.072799555406379"><ele>921.0</ele><time>2026-03-22T10:24:53.272Z</time></trkpt><trkpt lat="43.42298690422657" lon="12.072700572480118"><ele>921.1666666666666</ele><time>2026-03-22T10:24:54.271Z</time></trkpt><trkpt lat="43.42289691325591" lon="12.072626537932077"><ele>921.3333333333333</ele><time>2026-03-22T10:24:55.266Z</time></trkpt><trkpt lat="43.42281556061868" lon="12.07257385249972"><ele>921.5</ele><time>2026-03-22T10:24:56.274Z</time></trkpt><trkpt lat="43.422757016209744" lon="12.07251615666774"><ele>921.6666666666666</ele><time>2026-03-22T10:24:57.273Z</time></trkpt><trkpt lat="43.422696990985685" lon="12.072453679411794"><ele>921.8333333333333</ele><time>2026-03-22T10:24:58.272Z</time></trkpt><trkpt lat="43.42262935378605" lon="12.072374082688269"><ele>922.0</ele><time>2026-03-22T10:24:59.265Z</time></trkpt><trkpt lat="43.42256380282731" lon="12.072312115640035"><ele>922.9999999999999</ele><time>2026-03-22T10:25:00.266Z</time></trkpt><trkpt lat="43.42248937557398" lon="12.072261248292904"><ele>924.0</ele><time>2026-03-22T10:25:01.272Z</time></trkpt><trkpt lat="43.42241541794792" lon="12.072239564040723"><ele>925.0</ele><time>2026-03-22T10:25:02.272Z</time></trkpt><trkpt lat="43.422338654194256" lon="12.072210109326166"><ele>926.0</ele><time>2026-03-22T10:25:03.272Z</time></trkpt><trkpt lat="43.422255943558234" lon="12.072176824339483"><ele>926.9999999999999</ele><time>2026-03-22T10:25:04.264Z</time></trkpt><trkpt lat="43.42216912027188" lon="12.072124745334722"><ele>928.0</ele><time>2026-03-22T10:25:05.272Z</time></trkpt><trkpt lat="43.42208672885432" lon="12.072066416046109"><ele>928.2</ele><time>2026-03-22T10:25:06.271Z</time></trkpt><trkpt lat="43.42200841779539" lon="12.07198723344098"><ele>928.4</ele><time>2026-03-22T10:25:07.27Z</time></trkpt><trkpt lat="43.42193705899216" lon="12.071930145424712"><ele>928.6000000000001</ele><time>2026-03-22T10:25:08.265Z</time></trkpt><trkpt lat="43.421857550986324" lon="12.071888653050841"><ele>928.8000000000001</ele><time>2026-03-22T10:25:09.27Z</time></trkpt><trkpt lat="43.42176839297156" lon="12.071839781306517"><ele>929.0</ele><time>2026-03-22T10:25:10.271Z</time></trkpt><trkpt lat="43.42167915567569" lon="12.071798973308592"><ele>929.0</ele><time>2026-03-22T10:25:11.271Z</time></trkpt><trkpt lat="43.42157578033174" lon="12.071774873646618"><ele>929.0000000000001</ele><time>2026-03-22T10:25:12.273Z</time></trkpt><trkpt lat="43.42146899621204" lon="12.071738244714505"><ele>929.0000000000001</ele><time>2026-03-22T10:25:13.272Z</time></trkpt><trkpt lat="43.42136396851233" lon="12.071701993492475"><ele>929.0</ele><time>2026-03-22T10:25:14.271Z</time></trkpt><trkpt lat="43.421271709029966" lon="12.071639640538121"><ele>929.0</ele><time>2026-03-22T10:25:15.273Z</time></trkpt><trkpt lat="43.421208229522904" lon="12.0715673613814"><ele>929.0000000000001</ele><time>2026-03-22T10:25:16.267Z</time></trkpt><trkpt lat="43.42113051336084" lon="12.0714872039721"><ele>929.0</ele><time>2026-03-22T10:25:17.266Z</time></trkpt><trkpt lat="43.4210694013818" lon="12.07142181140268"><ele>929.0</ele><time>2026-03-22T10:25:18.271Z</time></trkpt><trkpt lat="43.421011002625065" lon="12.071361995832238"><ele>929.0</ele><time>2026-03-22T10:25:19.271Z</time></trkpt><trkpt lat="43.420945848590996" lon="12.07128611172524"><ele>929.0000000000001</ele><time>2026-03-22T10:25:20.264Z</time></trkpt><trkpt lat="43.42087965881992" lon="12.071235288481434"><ele>929.0</ele><time>2026-03-22T10:25:21.272Z</time></trkpt><trkpt lat="43.42082478308694" lon="12.071172551447662"><ele>929.0</ele><time>2026-03-22T10:25:22.271Z</time></trkpt><trkpt lat="43.42074159227101" lon="12.071099583674577"><ele>929.0000000000001</ele><time>2026-03-22T10:25:23.271Z</time></trkpt><trkpt lat="43.420696066448585" lon="12.071004116704136"><ele>929.0000000000001</ele><time>2026-03-22T10:25:24.265Z</time></trkpt><trkpt lat="43.42066389660391" lon="12.070896063633588"><ele>929.0</ele><time>2026-03-22T10:25:25.271Z</time></trkpt><trkpt lat="43.420618026319815" lon="12.070774005899665"><ele>929.0</ele><time>2026-03-22T10:25:26.272Z</time></trkpt><trkpt lat="43.42058122603738" lon="12.07067027154271"><ele>930.8000000000001</ele><time>2026-03-22T10:25:27.27Z</time></trkpt><trkpt lat="43.4205370544837" lon="12.070559319461584"><ele>932.6000000000001</ele><time>2026-03-22T10:25:28.264Z</time></trkpt><trkpt lat="43.42048489775779" lon="12.070415305674693"><ele>934.4</ele><time>2026-03-22T10:25:29.271Z</time></trkpt><trkpt lat="43.42044175975168" lon="12.07030441552192"><ele>936.2</ele><time>2026-03-22T10:25:30.269Z</time></trkpt><trkpt lat="43.420392615730556" lon="12.070165605891518"><ele>938.0</ele><time>2026-03-22T10:25:31.27Z</time></trkpt><trkpt lat="43.420340489801404" lon="12.070048572630117"><ele>937.0</ele><time>2026-03-22T10:25:32.265Z</time></trkpt><trkpt lat="43.42028477102817" lon="12.069933247385645"><ele>936.0</ele><time>2026-03-22T10:25:33.271Z</time></trkpt><trkpt lat="43.42021678307993" lon="12.069814532053815"><ele>935.0</ele><time>2026-03-22T10:25:34.271Z</time></trkpt><trkpt lat="43.420150741105545" lon="12.069722527091056"><ele>934.0</ele><time>2026-03-22T10:25:35.264Z</time></trkpt><trkpt lat="43.420057377892185" lon="12.069650428978743"><ele>933.0</ele><time>2026-03-22T10:25:36.264Z</time></trkpt><trkpt lat="43.41996512017447" lon="12.06958769034904"><ele>933.0</ele><time>2026-03-22T10:25:37.27Z</time></trkpt><trkpt lat="43.419900368375124" lon="12.06950088258427"><ele>933.0</ele><time>2026-03-22T10:25:38.27Z</time></trkpt><trkpt lat="43.419876745195396" lon="12.069388252384293"><ele>933.0</ele><time>2026-03-22T10:25:39.271Z</time></trkpt><trkpt lat="43.419872043569626" lon="12.06924998143837"><ele>933.0</ele><time>2026-03-22T10:25:40.271Z</time></trkpt><trkpt lat="43.41985978441264" lon="12.069099506721411"><ele>933.0</ele><time>2026-03-22T10:25:41.271Z</time></trkpt><trkpt lat="43.41982356445582" lon="12.068956864289202"><ele>934.0</ele><time>2026-03-22T10:25:42.272Z</time></trkpt><trkpt lat="43.41976860332217" lon="12.068847469210569"><ele>935.0</ele><time>2026-03-22T10:25:43.271Z</time></trkpt><trkpt lat="43.41971100796997" lon="12.068761988710081"><ele>936.0</ele><time>2026-03-22T10:25:44.274Z</time></trkpt><trkpt lat="43.41964825330549" lon="12.068660842144903"><ele>937.0</ele><time>2026-03-22T10:25:45.272Z</time></trkpt><trkpt lat="43.419565370479155" lon="12.068566991911691"><ele>938.0</ele><time>2026-03-22T10:25:46.271Z</time></trkpt><trkpt lat="43.41947487511376" lon="12.068474154973677"><ele>938.0</ele><time>2026-03-22T10:25:47.271Z</time></trkpt><trkpt lat="43.41938543743137" lon="12.068374258978283"><ele>938.0</ele><time>2026-03-22T10:25:48.265Z</time></trkpt><trkpt lat="43.41932616481149" lon="12.068246289376622"><ele>938.0</ele><time>2026-03-22T10:25:49.272Z</time></trkpt><trkpt lat="43.41930233527993" lon="12.068115448855487"><ele>938.0</ele><time>2026-03-22T10:25:50.271Z</time></trkpt><trkpt lat="43.41929120204448" lon="12.067968891141648"><ele>938.0</ele><time>2026-03-22T10:25:51.272Z</time></trkpt><trkpt lat="43.419296316139224" lon="12.06782973098958"><ele>939.0</ele><time>2026-03-22T10:25:52.268Z</time></trkpt><trkpt lat="43.419319704378545" lon="12.067698315412304"><ele>940.0</ele><time>2026-03-22T10:25:53.264Z</time></trkpt><trkpt lat="43.41934680564585" lon="12.06754004768448"><ele>941.0</ele><time>2026-03-22T10:25:54.272Z</time></trkpt><trkpt lat="43.41935057575511" lon="12.067398539266481"><ele>942.0</ele><time>2026-03-22T10:25:55.274Z</time></trkpt><trkpt lat="43.41933842674141" lon="12.067299855253548"><ele>943.0</ele><time>2026-03-22T10:25:56.265Z</time></trkpt><trkpt lat="43.419319654856594" lon="12.067197716544307"><ele>942.9999999999999</ele><time>2026-03-22T10:25:57.275Z</time></trkpt><trkpt lat="43.419309733417656" lon="12.067102020701066"><ele>943.0</ele><time>2026-03-22T10:25:58.272Z</time></trkpt><trkpt lat="43.41929897393013" lon="12.066933976382666"><ele>943.0</ele><time>2026-03-22T10:26:00.267Z</time></trkpt><trkpt lat="43.41929237317893" lon="12.066843103237918"><ele>943.0</ele><time>2026-03-22T10:26:01.266Z</time></trkpt><trkpt lat="43.41927730240141" lon="12.066728080375745"><ele>942.9999999999999</ele><time>2026-03-22T10:26:02.272Z</time></trkpt><trkpt lat="43.4192544519096" lon="12.066620710143763"><ele>943.0</ele><time>2026-03-22T10:26:03.273Z</time></trkpt><trkpt lat="43.41924978473172" lon="12.066512686601026"><ele>942.1666666666666</ele><time>2026-03-22T10:26:04.274Z</time></trkpt><trkpt lat="43.41924759420332" lon="12.066419816417074"><ele>941.3333333333333</ele><time>2026-03-22T10:26:05.273Z</time></trkpt><trkpt lat="43.41924564678894" lon="12.066237578136107"><ele>940.5</ele><time>2026-03-22T10:26:07.272Z</time></trkpt><trkpt lat="43.41924281725265" lon="12.06611236498714"><ele>939.6666666666667</ele><time>2026-03-22T10:26:08.274Z</time></trkpt><trkpt lat="43.419238496612664" lon="12.066020818581526"><ele>938.8333333333334</ele><time>2026-03-22T10:26:09.273Z</time></trkpt><trkpt lat="43.4192167191398" lon="12.065911794010317"><ele>938.0</ele><time>2026-03-22T10:26:11.274Z</time></trkpt><trkpt lat="43.4191770068859" lon="12.065843845430205"><ele>936.1666666666667</ele><time>2026-03-22T10:26:15.271Z</time></trkpt><trkpt lat="43.419122036688044" lon="12.065747194747942"><ele>934.3333333333334</ele><time>2026-03-22T10:26:17.272Z</time></trkpt><trkpt lat="43.41908878986065" lon="12.065650996202066"><ele>932.5</ele><time>2026-03-22T10:26:18.271Z</time></trkpt><trkpt lat="43.419060325624294" lon="12.065538928356"><ele>930.6666666666667</ele><time>2026-03-22T10:26:19.271Z</time></trkpt><trkpt lat="43.41902958438987" lon="12.065424063686462"><ele>928.8333333333334</ele><time>2026-03-22T10:26:20.265Z</time></trkpt><trkpt lat="43.41898803259297" lon="12.06535795787611"><ele>927.0</ele><time>2026-03-22T10:26:21.265Z</time></trkpt><trkpt lat="43.41894413153595" lon="12.065270914936512"><ele>927.0</ele><time>2026-03-22T10:26:22.273Z</time></trkpt><trkpt lat="43.418917740875195" lon="12.065182082319811"><ele>927.0</ele><time>2026-03-22T10:26:23.271Z</time></trkpt><trkpt lat="43.41891961927379" lon="12.065080391550898"><ele>927.0</ele><time>2026-03-22T10:26:24.265Z</time></trkpt><trkpt lat="43.41892368112389" lon="12.064988065010498"><ele>927.0</ele><time>2026-03-22T10:26:25.271Z</time></trkpt><trkpt lat="43.41882843875595" lon="12.064887193168808"><ele>927.0</ele><time>2026-03-22T10:26:27.273Z</time></trkpt><trkpt lat="43.41875975088306" lon="12.06490239197729"><ele>927.0</ele><time>2026-03-22T10:26:28.265Z</time></trkpt><trkpt lat="43.418672597510614" lon="12.06494555399247"><ele>926.0</ele><time>2026-03-22T10:26:29.273Z</time></trkpt><trkpt lat="43.41857865093815" lon="12.065008841622038"><ele>925.0</ele><time>2026-03-22T10:26:30.271Z</time></trkpt><trkpt lat="43.418486772718545" lon="12.065059965524906"><ele>924.0</ele><time>2026-03-22T10:26:31.272Z</time></trkpt><trkpt lat="43.41839091984179" lon="12.065097234392304"><ele>923.0</ele><time>2026-03-22T10:26:32.264Z</time></trkpt><trkpt lat="43.41831098234765" lon="12.065139243874196"><ele>922.0</ele><time>2026-03-22T10:26:33.273Z</time></trkpt><trkpt lat="43.41823853911808" lon="12.06517474281479"><ele>922.0</ele><time>2026-03-22T10:26:34.27Z</time></trkpt><trkpt lat="43.418163784562985" lon="12.065180885870191"><ele>922.0</ele><time>2026-03-22T10:26:35.266Z</time></trkpt><trkpt lat="43.41803269320509" lon="12.06510274544793"><ele>922.0</ele><time>2026-03-22T10:26:37.272Z</time></trkpt><trkpt lat="43.41797983497177" lon="12.065024427063223"><ele>922.0</ele><time>2026-03-22T10:26:38.272Z</time></trkpt><trkpt lat="43.41793779508356" lon="12.064922702352758"><ele>922.0</ele><time>2026-03-22T10:26:39.272Z</time></trkpt><trkpt lat="43.417904873349215" lon="12.064819114763184"><ele>918.2</ele><time>2026-03-22T10:26:40.266Z</time></trkpt><trkpt lat="43.41788605464107" lon="12.064691221377982"><ele>914.4000000000001</ele><time>2026-03-22T10:26:41.272Z</time></trkpt><trkpt lat="43.41786628250812" lon="12.064559047335853"><ele>910.5999999999999</ele><time>2026-03-22T10:26:42.273Z</time></trkpt><trkpt lat="43.417845665356374" lon="12.064430315750835"><ele>906.8</ele><time>2026-03-22T10:26:43.271Z</time></trkpt><trkpt lat="43.417836802394326" lon="12.064320453893314"><ele>903.0</ele><time>2026-03-22T10:26:44.265Z</time></trkpt><trkpt lat="43.41782159968158" lon="12.064186293540544"><ele>901.8333333333334</ele><time>2026-03-22T10:26:45.271Z</time></trkpt><trkpt lat="43.41779646441406" lon="12.064053169421392"><ele>900.6666666666667</ele><time>2026-03-22T10:26:46.27Z</time></trkpt><trkpt lat="43.41776667983067" lon="12.06393732682715"><ele>899.5</ele><time>2026-03-22T10:26:47.272Z</time></trkpt><trkpt lat="43.417730882994285" lon="12.0638346832432"><ele>898.3333333333334</ele><time>2026-03-22T10:26:48.274Z</time></trkpt><trkpt lat="43.41768989719693" lon="12.063748205099747"><ele>897.1666666666667</ele><time>2026-03-22T10:26:49.271Z</time></trkpt><trkpt lat="43.417643302539865" lon="12.063681954766553"><ele>896.0</ele><time>2026-03-22T10:26:50.27Z</time></trkpt><trkpt lat="43.417588980002385" lon="12.063619928647688"><ele>896.0</ele><time>2026-03-22T10:26:51.27Z</time></trkpt><trkpt lat="43.41754566216599" lon="12.063424379403632"><ele>895.9999999999999</ele><time>2026-03-22T10:26:53.27Z</time></trkpt><trkpt lat="43.41753369283548" lon="12.06331218913016"><ele>895.9999999999999</ele><time>2026-03-22T10:26:54.271Z</time></trkpt><trkpt lat="43.41750522406754" lon="12.063180755621964"><ele>896.0</ele><time>2026-03-22T10:26:55.27Z</time></trkpt><trkpt lat="43.41748533703512" lon="12.063066749002576"><ele>896.0</ele><time>2026-03-22T10:26:56.263Z</time></trkpt><trkpt lat="43.417474156030906" lon="12.062927942185954"><ele>893.8</ele><time>2026-03-22T10:26:57.27Z</time></trkpt><trkpt lat="43.417451244244106" lon="12.062831423800885"><ele>891.5999999999999</ele><time>2026-03-22T10:26:58.271Z</time></trkpt><trkpt lat="43.417403055114406" lon="12.062732108333106"><ele>889.4</ele><time>2026-03-22T10:26:59.271Z</time></trkpt><trkpt lat="43.417329026621374" lon="12.06264980595811"><ele>887.2</ele><time>2026-03-22T10:27:00.275Z</time></trkpt><trkpt lat="43.417234880060164" lon="12.062540934818953"><ele>885.0</ele><time>2026-03-22T10:27:01.272Z</time></trkpt><trkpt lat="43.41713950517786" lon="12.062436959670748"><ele>884.8333333333334</ele><time>2026-03-22T10:27:02.271Z</time></trkpt><trkpt lat="43.41706058500675" lon="12.062347010166791"><ele>884.6666666666667</ele><time>2026-03-22T10:27:03.272Z</time></trkpt><trkpt lat="43.41698912352541" lon="12.06226073172842"><ele>884.5</ele><time>2026-03-22T10:27:04.274Z</time></trkpt><trkpt lat="43.41691786243932" lon="12.062195988357763"><ele>884.3333333333334</ele><time>2026-03-22T10:27:05.272Z</time></trkpt><trkpt lat="43.41685318145699" lon="12.062143187921983"><ele>884.1666666666667</ele><time>2026-03-22T10:27:06.272Z</time></trkpt><trkpt lat="43.41679977438049" lon="12.06209031165691"><ele>884.0</ele><time>2026-03-22T10:27:07.272Z</time></trkpt><trkpt lat="43.41670824328591" lon="12.061998600581816"><ele>884.0000000000001</ele><time>2026-03-22T10:27:09.273Z</time></trkpt><trkpt lat="43.41663361008073" lon="12.061918781073185"><ele>884.0</ele><time>2026-03-22T10:27:11.271Z</time></trkpt><trkpt lat="43.41657334207613" lon="12.06185881872376"><ele>884.0</ele><time>2026-03-22T10:27:13.272Z</time></trkpt><trkpt lat="43.416521519927834" lon="12.061771380744522"><ele>884.0</ele><time>2026-03-22T10:27:57.273Z</time></trkpt><trkpt lat="43.416451030786135" lon="12.06174035024661"><ele>884.0000000000001</ele><time>2026-03-22T10:27:59.271Z</time></trkpt><trkpt lat="43.41638588196305" lon="12.061679364756351"><ele>884.0</ele><time>2026-03-22T10:28:01.262Z</time></trkpt><trkpt lat="43.41635376782773" lon="12.06148490418238"><ele>884.1666666666667</ele><time>2026-03-22T10:28:03.271Z</time></trkpt><trkpt lat="43.416312145627494" lon="12.06136489595119"><ele>884.3333333333334</ele><time>2026-03-22T10:28:04.264Z</time></trkpt><trkpt lat="43.416245110129765" lon="12.061254339262039"><ele>884.5</ele><time>2026-03-22T10:28:05.27Z</time></trkpt><trkpt lat="43.41619240931408" lon="12.061205675922967"><ele>884.6666666666667</ele><time>2026-03-22T10:28:06.27Z</time></trkpt><trkpt lat="43.41613032975883" lon="12.061145650210499"><ele>884.8333333333334</ele><time>2026-03-22T10:28:08.265Z</time></trkpt><trkpt lat="43.416088770403654" lon="12.06106731646162"><ele>885.0</ele><time>2026-03-22T10:28:10.271Z</time></trkpt><trkpt lat="43.41600692820896" lon="12.060973078632278"><ele>885.0</ele><time>2026-03-22T10:28:12.265Z</time></trkpt><trkpt lat="43.41592718393782" lon="12.060885964839073"><ele>885.0</ele><time>2026-03-22T10:28:14.272Z</time></trkpt><trkpt lat="43.4158770658875" lon="12.060829844853266"><ele>885.0</ele><time>2026-03-22T10:28:15.265Z</time></trkpt><trkpt lat="43.4158133512981" lon="12.060761298142545"><ele>885.0</ele><time>2026-03-22T10:28:16.264Z</time></trkpt><trkpt lat="43.4157343982418" lon="12.060659545911644"><ele>885.0</ele><time>2026-03-22T10:28:17.273Z</time></trkpt><trkpt lat="43.41566264150054" lon="12.060551115396505"><ele>884.6</ele><time>2026-03-22T10:28:18.272Z</time></trkpt><trkpt lat="43.41561226297894" lon="12.060443526241487"><ele>884.2</ele><time>2026-03-22T10:28:19.273Z</time></trkpt><trkpt lat="43.415543675408486" lon="12.060334669729546"><ele>883.8</ele><time>2026-03-22T10:28:20.265Z</time></trkpt><trkpt lat="43.41547473881841" lon="12.060237091442232"><ele>883.4</ele><time>2026-03-22T10:28:21.273Z</time></trkpt><trkpt lat="43.41540906575824" lon="12.060164129289559"><ele>883.0</ele><time>2026-03-22T10:28:22.27Z</time></trkpt><trkpt lat="43.41531859502218" lon="12.060080208600242"><ele>883.0</ele><time>2026-03-22T10:28:23.271Z</time></trkpt><trkpt lat="43.415232433036905" lon="12.059993516364004"><ele>883.0</ele><time>2026-03-22T10:28:24.264Z</time></trkpt><trkpt lat="43.415152438639645" lon="12.059891923679396"><ele>883.0</ele><time>2026-03-22T10:28:25.272Z</time></trkpt><trkpt lat="43.4151012597235" lon="12.059786983418217"><ele>883.0</ele><time>2026-03-22T10:28:26.269Z</time></trkpt><trkpt lat="43.41502415004896" lon="12.059693611227223"><ele>883.0</ele><time>2026-03-22T10:28:27.268Z</time></trkpt><trkpt lat="43.41493586927392" lon="12.059604675659129"><ele>882.5999999999999</ele><time>2026-03-22T10:28:28.262Z</time></trkpt><trkpt lat="43.41485084658648" lon="12.05950268649875"><ele>882.1999999999999</ele><time>2026-03-22T10:28:29.269Z</time></trkpt><trkpt lat="43.414780464016125" lon="12.059394800360035"><ele>881.8</ele><time>2026-03-22T10:28:30.262Z</time></trkpt><trkpt lat="43.414711955795404" lon="12.059286435182864"><ele>881.4</ele><time>2026-03-22T10:28:31.269Z</time></trkpt><trkpt lat="43.41464500749427" lon="12.059175548580773"><ele>881.0</ele><time>2026-03-22T10:28:32.262Z</time></trkpt><trkpt lat="43.41456435378247" lon="12.059083761430449"><ele>882.0</ele><time>2026-03-22T10:28:33.269Z</time></trkpt><trkpt lat="43.41448055472315" lon="12.059011280911994"><ele>882.9999999999999</ele><time>2026-03-22T10:28:34.269Z</time></trkpt><trkpt lat="43.41441107218582" lon="12.058914605532369"><ele>883.9999999999999</ele><time>2026-03-22T10:28:35.269Z</time></trkpt><trkpt lat="43.41434728931968" lon="12.058810590895503"><ele>885.0</ele><time>2026-03-22T10:28:36.263Z</time></trkpt><trkpt lat="43.414308756463576" lon="12.058722023936975"><ele>886.0</ele><time>2026-03-22T10:28:37.271Z</time></trkpt><trkpt lat="43.41424904384212" lon="12.058638153009998"><ele>886.0</ele><time>2026-03-22T10:28:39.272Z</time></trkpt><trkpt lat="43.414233216388574" lon="12.058552779996976"><ele>886.0</ele><time>2026-03-22T10:28:42.271Z</time></trkpt><trkpt lat="43.414176984441" lon="12.058494811551697"><ele>886.0</ele><time>2026-03-22T10:28:44.273Z</time></trkpt><trkpt lat="43.41411829144833" lon="12.058457400853134"><ele>886.0</ele><time>2026-03-22T10:28:45.271Z</time></trkpt><trkpt lat="43.414057949378886" lon="12.058409903130645"><ele>886.0</ele><time>2026-03-22T10:28:46.271Z</time></trkpt><trkpt lat="43.41397679670051" lon="12.058364048897277"><ele>886.0</ele><time>2026-03-22T10:28:47.272Z</time></trkpt><trkpt lat="43.41388924456223" lon="12.058329843108423"><ele>886.0</ele><time>2026-03-22T10:28:48.272Z</time></trkpt><trkpt lat="43.413793557240766" lon="12.058268168130043"><ele>886.5</ele><time>2026-03-22T10:28:49.272Z</time></trkpt><trkpt lat="43.41371617982006" lon="12.058174831757203"><ele>887.0</ele><time>2026-03-22T10:28:50.271Z</time></trkpt><trkpt lat="43.41362625850314" lon="12.058063392125648"><ele>887.5</ele><time>2026-03-22T10:28:51.271Z</time></trkpt><trkpt lat="43.41353410263436" lon="12.057960845170669"><ele>888.0</ele><time>2026-03-22T10:28:52.266Z</time></trkpt><trkpt lat="43.41343564508085" lon="12.057830044277383"><ele>888.0</ele><time>2026-03-22T10:28:53.272Z</time></trkpt><trkpt lat="43.4133351749438" lon="12.057698469078208"><ele>888.0</ele><time>2026-03-22T10:28:54.273Z</time></trkpt><trkpt lat="43.413230267550794" lon="12.057560461416845"><ele>888.0</ele><time>2026-03-22T10:28:55.271Z</time></trkpt><trkpt lat="43.41311614333769" lon="12.057430233812381"><ele>888.0</ele><time>2026-03-22T10:28:56.264Z</time></trkpt><trkpt lat="43.413015378037805" lon="12.057327865264117"><ele>889.8</ele><time>2026-03-22T10:28:57.273Z</time></trkpt><trkpt lat="43.412947940064" lon="12.057250858822352"><ele>891.5999999999999</ele><time>2026-03-22T10:28:58.271Z</time></trkpt><trkpt lat="43.41284093773735" lon="12.057192019246196"><ele>893.4000000000001</ele><time>2026-03-22T10:29:00.275Z</time></trkpt><trkpt lat="43.412779203763776" lon="12.057174777208028"><ele>895.2</ele><time>2026-03-22T10:29:01.266Z</time></trkpt><trkpt lat="43.412693161859345" lon="12.057147269442794"><ele>897.0</ele><time>2026-03-22T10:29:02.271Z</time></trkpt><trkpt lat="43.412599428564214" lon="12.057092141126844"><ele>897.0</ele><time>2026-03-22T10:29:03.272Z</time></trkpt><trkpt lat="43.41251364774794" lon="12.057044016670359"><ele>897.0</ele><time>2026-03-22T10:29:04.264Z</time></trkpt><trkpt lat="43.41240709602444" lon="12.057001846895469"><ele>897.0</ele><time>2026-03-22T10:29:05.271Z</time></trkpt><trkpt lat="43.412300374847696" lon="12.056986553090077"><ele>897.0</ele><time>2026-03-22T10:29:06.272Z</time></trkpt><trkpt lat="43.412166546963974" lon="12.056978549728276"><ele>897.0</ele><time>2026-03-22T10:29:07.273Z</time></trkpt><trkpt lat="43.4120315791758" lon="12.056973049319401"><ele>899.6</ele><time>2026-03-22T10:29:08.266Z</time></trkpt><trkpt lat="43.41190368162909" lon="12.056950861696075"><ele>902.2</ele><time>2026-03-22T10:29:09.271Z</time></trkpt><trkpt lat="43.41177458461286" lon="12.056914983680446"><ele>904.8</ele><time>2026-03-22T10:29:10.271Z</time></trkpt><trkpt lat="43.41166866658105" lon="12.05690427419882"><ele>907.4</ele><time>2026-03-22T10:29:11.272Z</time></trkpt><trkpt lat="43.41158609523822" lon="12.056903024965216"><ele>910.0</ele><time>2026-03-22T10:29:12.262Z</time></trkpt><trkpt lat="43.41150940035788" lon="12.056896430134657"><ele>910.0</ele><time>2026-03-22T10:29:13.27Z</time></trkpt><trkpt lat="43.411442446490085" lon="12.05687982680997"><ele>910.0</ele><time>2026-03-22T10:29:14.271Z</time></trkpt><trkpt lat="43.41135077735907" lon="12.05683489085174"><ele>910.0</ele><time>2026-03-22T10:29:16.264Z</time></trkpt><trkpt lat="43.4112957635878" lon="12.056766855133747"><ele>910.0</ele><time>2026-03-22T10:29:17.269Z</time></trkpt><trkpt lat="43.411207071417465" lon="12.056681754167524"><ele>910.0</ele><time>2026-03-22T10:29:18.27Z</time></trkpt><trkpt lat="43.41111503646943" lon="12.05661071950901"><ele>910.9999999999999</ele><time>2026-03-22T10:29:19.272Z</time></trkpt><trkpt lat="43.41103454824474" lon="12.056562884148043"><ele>912.0</ele><time>2026-03-22T10:29:20.262Z</time></trkpt><trkpt lat="43.410968130722004" lon="12.056572211053572"><ele>913.0</ele><time>2026-03-22T10:29:21.262Z</time></trkpt><trkpt lat="43.4108917832652" lon="12.056598973111768"><ele>914.0</ele><time>2026-03-22T10:29:22.271Z</time></trkpt><trkpt lat="43.41082245086562" lon="12.056635879106494"><ele>914.9999999999999</ele><time>2026-03-22T10:29:23.27Z</time></trkpt><trkpt lat="43.410747090606314" lon="12.056675570913159"><ele>916.0</ele><time>2026-03-22T10:29:24.263Z</time></trkpt><trkpt lat="43.410664304288225" lon="12.056710654425581"><ele>917.1999999999999</ele><time>2026-03-22T10:29:25.272Z</time></trkpt><trkpt lat="43.410565577616" lon="12.056766964790684"><ele>918.3999999999999</ele><time>2026-03-22T10:29:26.27Z</time></trkpt><trkpt lat="43.410486804526506" lon="12.056827562314657"><ele>919.6</ele><time>2026-03-22T10:29:27.271Z</time></trkpt><trkpt lat="43.41042597420255" lon="12.056897810529891"><ele>920.8</ele><time>2026-03-22T10:29:28.264Z</time></trkpt><trkpt lat="43.41037035597404" lon="12.0569560325425"><ele>922.0</ele><time>2026-03-22T10:29:29.272Z</time></trkpt><trkpt lat="43.41024671448211" lon="12.05703546762117"><ele>925.4000000000001</ele><time>2026-03-22T10:29:30.27Z</time></trkpt><trkpt lat="43.41015164080336" lon="12.05710436993467"><ele>928.8000000000001</ele><time>2026-03-22T10:29:31.271Z</time></trkpt><trkpt lat="43.4100606886197" lon="12.05713438917045"><ele>932.2</ele><time>2026-03-22T10:29:32.268Z</time></trkpt><trkpt lat="43.409947257518176" lon="12.057150793313205"><ele>935.6</ele><time>2026-03-22T10:29:33.273Z</time></trkpt><trkpt lat="43.409862454445914" lon="12.057186265122628"><ele>939.0</ele><time>2026-03-22T10:29:34.272Z</time></trkpt><trkpt lat="43.409766179943226" lon="12.057221119504154"><ele>939.0</ele><time>2026-03-22T10:29:35.272Z</time></trkpt><trkpt lat="43.40969469802718" lon="12.057200484060154"><ele>939.0000000000001</ele><time>2026-03-22T10:29:36.268Z</time></trkpt><trkpt lat="43.40958014888958" lon="12.057145491693715"><ele>939.0000000000001</ele><time>2026-03-22T10:29:38.273Z</time></trkpt><trkpt lat="43.40950136119814" lon="12.056974767587755"><ele>939.0</ele><time>2026-03-22T10:29:40.269Z</time></trkpt><trkpt lat="43.409486555181516" lon="12.056890121588104"><ele>939.0</ele><time>2026-03-22T10:29:41.267Z</time></trkpt><trkpt lat="43.40946297423332" lon="12.056803087189383"><ele>940.6</ele><time>2026-03-22T10:29:42.273Z</time></trkpt><trkpt lat="43.4094072027947" lon="12.056689714026408"><ele>942.2</ele><time>2026-03-22T10:29:43.272Z</time></trkpt><trkpt lat="43.40933377631918" lon="12.05658513305989"><ele>943.8000000000001</ele><time>2026-03-22T10:29:44.267Z</time></trkpt><trkpt lat="43.40925935736693" lon="12.05647754848725"><ele>945.4000000000001</ele><time>2026-03-22T10:29:45.272Z</time></trkpt><trkpt lat="43.40917377138528" lon="12.056352616203544"><ele>947.0</ele><time>2026-03-22T10:29:46.271Z</time></trkpt><trkpt lat="43.40908975978858" lon="12.056246286855785"><ele>948.2</ele><time>2026-03-22T10:29:47.271Z</time></trkpt><trkpt lat="43.409025645232276" lon="12.056143978643645"><ele>949.4000000000001</ele><time>2026-03-22T10:29:48.265Z</time></trkpt><trkpt lat="43.40896715656631" lon="12.056055015162615"><ele>950.5999999999999</ele><time>2026-03-22T10:29:49.272Z</time></trkpt><trkpt lat="43.408893650930075" lon="12.055984918033735"><ele>951.8</ele><time>2026-03-22T10:29:50.272Z</time></trkpt><trkpt lat="43.40880114768617" lon="12.055941466529124"><ele>953.0</ele><time>2026-03-22T10:29:51.272Z</time></trkpt><trkpt lat="43.408719430760605" lon="12.055923464830105"><ele>956.0000000000001</ele><time>2026-03-22T10:29:52.275Z</time></trkpt><trkpt lat="43.40864990946074" lon="12.055926775275568"><ele>959.0</ele><time>2026-03-22T10:29:53.272Z</time></trkpt><trkpt lat="43.40856993801378" lon="12.055962490088618"><ele>962.0</ele><time>2026-03-22T10:29:54.273Z</time></trkpt><trkpt lat="43.40849252276021" lon="12.05594697586977"><ele>965.0</ele><time>2026-03-22T10:29:55.268Z</time></trkpt><trkpt lat="43.40840958897403" lon="12.055881418634478"><ele>968.0000000000001</ele><time>2026-03-22T10:29:56.267Z</time></trkpt><trkpt lat="43.40832705625679" lon="12.055820124063603"><ele>971.0</ele><time>2026-03-22T10:29:57.272Z</time></trkpt><trkpt lat="43.408245891962544" lon="12.055747055083456"><ele>971.4</ele><time>2026-03-22T10:29:58.273Z</time></trkpt><trkpt lat="43.4081724913575" lon="12.055653705820331"><ele>971.8</ele><time>2026-03-22T10:29:59.272Z</time></trkpt><trkpt lat="43.40811712409457" lon="12.055563057772293"><ele>972.1999999999999</ele><time>2026-03-22T10:30:00.266Z</time></trkpt><trkpt lat="43.4080487471716" lon="12.055470725931862"><ele>972.5999999999999</ele><time>2026-03-22T10:30:01.27Z</time></trkpt><trkpt lat="43.40798267391903" lon="12.055371253544465"><ele>973.0</ele><time>2026-03-22T10:30:02.27Z</time></trkpt><trkpt lat="43.407914033640196" lon="12.055259533822086"><ele>973.5999999999999</ele><time>2026-03-22T10:30:03.272Z</time></trkpt><trkpt lat="43.4078290281043" lon="12.055167972326757"><ele>974.1999999999999</ele><time>2026-03-22T10:30:04.273Z</time></trkpt><trkpt lat="43.407759421779794" lon="12.055066918349013"><ele>974.8</ele><time>2026-03-22T10:30:05.27Z</time></trkpt><trkpt lat="43.40770426417958" lon="12.05494539220502"><ele>975.4</ele><time>2026-03-22T10:30:06.27Z</time></trkpt><trkpt lat="43.40765508133192" lon="12.05484303568123"><ele>976.0</ele><time>2026-03-22T10:30:07.271Z</time></trkpt><trkpt lat="43.40753465967951" lon="12.054712390952414"><ele>975.9999999999999</ele><time>2026-03-22T10:30:09.272Z</time></trkpt><trkpt lat="43.40746379692303" lon="12.054659878006316"><ele>976.0</ele><time>2026-03-22T10:30:10.271Z</time></trkpt><trkpt lat="43.40736676171925" lon="12.054636796111934"><ele>976.0</ele><time>2026-03-22T10:30:11.271Z</time></trkpt><trkpt lat="43.40725884884505" lon="12.054648179712437"><ele>976.0</ele><time>2026-03-22T10:30:12.267Z</time></trkpt><trkpt lat="43.40717747343825" lon="12.054657598397819"><ele>975.9999999999999</ele><time>2026-03-22T10:30:13.273Z</time></trkpt><trkpt lat="43.40710431533888" lon="12.05466060931586"><ele>976.0</ele><time>2026-03-22T10:30:14.271Z</time></trkpt><trkpt lat="43.40700769172252" lon="12.054669757565511"><ele>978.8333333333333</ele><time>2026-03-22T10:30:15.273Z</time></trkpt><trkpt lat="43.40692849713834" lon="12.054652001336649"><ele>981.6666666666666</ele><time>2026-03-22T10:30:16.266Z</time></trkpt><trkpt lat="43.406839575598184" lon="12.054621533141637"><ele>984.5</ele><time>2026-03-22T10:30:17.273Z</time></trkpt><trkpt lat="43.40675755617028" lon="12.054591741845034"><ele>987.3333333333333</ele><time>2026-03-22T10:30:18.271Z</time></trkpt><trkpt lat="43.4066774893139" lon="12.054555475902966"><ele>990.1666666666666</ele><time>2026-03-22T10:30:19.272Z</time></trkpt><trkpt lat="43.406581590290166" lon="12.054521458342895"><ele>993.0</ele><time>2026-03-22T10:30:20.265Z</time></trkpt><trkpt lat="43.40647586649339" lon="12.054500982085756"><ele>993.0</ele><time>2026-03-22T10:30:21.271Z</time></trkpt><trkpt lat="43.406379583679126" lon="12.054508998134468"><ele>993.0</ele><time>2026-03-22T10:30:22.274Z</time></trkpt><trkpt lat="43.406288549856775" lon="12.054520259042643"><ele>993.0</ele><time>2026-03-22T10:30:23.272Z</time></trkpt><trkpt lat="43.406220223595575" lon="12.05451968975016"><ele>993.0</ele><time>2026-03-22T10:30:24.267Z</time></trkpt><trkpt lat="43.406113642701435" lon="12.054418383060316"><ele>993.0</ele><time>2026-03-22T10:30:26.272Z</time></trkpt><trkpt lat="43.40603894255925" lon="12.054322268098876"><ele>993.2</ele><time>2026-03-22T10:30:27.271Z</time></trkpt><trkpt lat="43.40596380702413" lon="12.054223874192026"><ele>993.4</ele><time>2026-03-22T10:30:28.267Z</time></trkpt><trkpt lat="43.405903762386764" lon="12.054124999907545"><ele>993.6000000000001</ele><time>2026-03-22T10:30:29.273Z</time></trkpt><trkpt lat="43.40584779907137" lon="12.05401755013988"><ele>993.8000000000001</ele><time>2026-03-22T10:30:30.271Z</time></trkpt><trkpt lat="43.40579216080164" lon="12.053937330085338"><ele>994.0</ele><time>2026-03-22T10:30:31.265Z</time></trkpt><trkpt lat="43.405740649645196" lon="12.053859069540003"><ele>994.3333333333333</ele><time>2026-03-22T10:30:32.265Z</time></trkpt><trkpt lat="43.405682669707815" lon="12.053777421363606"><ele>994.6666666666666</ele><time>2026-03-22T10:30:33.272Z</time></trkpt><trkpt lat="43.40562617974478" lon="12.053686032308955"><ele>995.0</ele><time>2026-03-22T10:30:34.271Z</time></trkpt><trkpt lat="43.40556118926088" lon="12.053621103058727"><ele>995.3333333333333</ele><time>2026-03-22T10:30:35.272Z</time></trkpt><trkpt lat="43.40548419168736" lon="12.053599576534108"><ele>995.6666666666666</ele><time>2026-03-22T10:30:36.266Z</time></trkpt><trkpt lat="43.40539062607653" lon="12.053604598597673"><ele>996.0</ele><time>2026-03-22T10:30:37.272Z</time></trkpt><trkpt lat="43.40531815491766" lon="12.053598146106653"><ele>996.0</ele><time>2026-03-22T10:30:38.273Z</time></trkpt><trkpt lat="43.405256504356025" lon="12.053537096610835"><ele>995.9999999999999</ele><time>2026-03-22T10:30:39.273Z</time></trkpt><trkpt lat="43.40517967264753" lon="12.053459576783204"><ele>995.9999999999999</ele><time>2026-03-22T10:30:40.276Z</time></trkpt><trkpt lat="43.40509829361937" lon="12.053370441292627"><ele>996.0</ele><time>2026-03-22T10:30:41.271Z</time></trkpt><trkpt lat="43.40500230071736" lon="12.05328740835077"><ele>996.0</ele><time>2026-03-22T10:30:42.272Z</time></trkpt><trkpt lat="43.40490462410021" lon="12.053196678906506"><ele>996.0</ele><time>2026-03-22T10:30:43.271Z</time></trkpt><trkpt lat="43.40481549699012" lon="12.053087364828516"><ele>995.9999999999999</ele><time>2026-03-22T10:30:44.264Z</time></trkpt><trkpt lat="43.40475561492316" lon="12.052951894332468"><ele>995.9999999999999</ele><time>2026-03-22T10:30:45.27Z</time></trkpt><trkpt lat="43.40468922843246" lon="12.052821741482969"><ele>996.0</ele><time>2026-03-22T10:30:46.27Z</time></trkpt><trkpt lat="43.40462616929795" lon="12.052721508060456"><ele>996.0</ele><time>2026-03-22T10:30:47.272Z</time></trkpt><trkpt lat="43.40457692872079" lon="12.052641166224028"><ele>997.0</ele><time>2026-03-22T10:30:48.264Z</time></trkpt><trkpt lat="43.404512976488256" lon="12.052592535358341"><ele>997.9999999999999</ele><time>2026-03-22T10:30:49.264Z</time></trkpt><trkpt lat="43.40443876410607" lon="12.052599511445594"><ele>998.9999999999999</ele><time>2026-03-22T10:30:50.271Z</time></trkpt><trkpt lat="43.404342562794966" lon="12.052604601644969"><ele>1000.0</ele><time>2026-03-22T10:30:51.272Z</time></trkpt><trkpt lat="43.40421597391554" lon="12.052491938505081"><ele>1001.0</ele><time>2026-03-22T10:30:53.272Z</time></trkpt><trkpt lat="43.40411342603557" lon="12.052402425415869"><ele>1001.0</ele><time>2026-03-22T10:30:54.271Z</time></trkpt><trkpt lat="43.40400876461911" lon="12.052345219195933"><ele>1000.9999999999999</ele><time>2026-03-22T10:30:55.272Z</time></trkpt><trkpt lat="43.40391119623981" lon="12.052265061080229"><ele>1000.9999999999999</ele><time>2026-03-22T10:30:56.266Z</time></trkpt><trkpt lat="43.403836987968404" lon="12.052155951856726"><ele>1001.0</ele><time>2026-03-22T10:30:57.271Z</time></trkpt><trkpt lat="43.4037884005078" lon="12.052051153725635"><ele>1001.0</ele><time>2026-03-22T10:30:58.27Z</time></trkpt><trkpt lat="43.403755105135616" lon="12.051939653479947"><ele>1003.4</ele><time>2026-03-22T10:30:59.27Z</time></trkpt><trkpt lat="43.40369980133171" lon="12.051831191552033"><ele>1005.8</ele><time>2026-03-22T10:31:00.264Z</time></trkpt><trkpt lat="43.40358477980695" lon="12.051815366677372"><ele>1008.1999999999999</ele><time>2026-03-22T10:31:02.27Z</time></trkpt><trkpt lat="43.40350394349992" lon="12.051819661743956"><ele>1010.5999999999999</ele><time>2026-03-22T10:31:03.272Z</time></trkpt><trkpt lat="43.403436586085064" lon="12.051821835369468"><ele>1013.0</ele><time>2026-03-22T10:31:04.265Z</time></trkpt><trkpt lat="43.40333584361107" lon="12.051798474172282"><ele>1013.0</ele><time>2026-03-22T10:31:05.271Z</time></trkpt><trkpt lat="43.40323275314145" lon="12.05173831009946"><ele>1013.0</ele><time>2026-03-22T10:31:06.271Z</time></trkpt><trkpt lat="43.40311934180353" lon="12.051641101561"><ele>1013.0</ele><time>2026-03-22T10:31:07.266Z</time></trkpt><trkpt lat="43.40302938365133" lon="12.051552558658576"><ele>1013.0</ele><time>2026-03-22T10:31:08.274Z</time></trkpt><trkpt lat="43.402930302130535" lon="12.051491907774714"><ele>1012.0</ele><time>2026-03-22T10:31:09.272Z</time></trkpt><trkpt lat="43.402839180026156" lon="12.051464559674594"><ele>1011.0000000000001</ele><time>2026-03-22T10:31:10.272Z</time></trkpt><trkpt lat="43.40277812800673" lon="12.051411312319964"><ele>1010.0</ele><time>2026-03-22T10:31:12.265Z</time></trkpt><trkpt lat="43.40272145616938" lon="12.051372912131937"><ele>1009.0</ele><time>2026-03-22T10:42:55.272Z</time></trkpt><trkpt lat="43.40265420050929" lon="12.051323915641238"><ele>1008.0000000000001</ele><time>2026-03-22T10:42:57.272Z</time></trkpt><trkpt lat="43.40259160184612" lon="12.051297778372057"><ele>1007.0</ele><time>2026-03-22T10:42:58.272Z</time></trkpt><trkpt lat="43.40252550646022" lon="12.051276145499818"><ele>1006.0</ele><time>2026-03-22T10:42:59.272Z</time></trkpt><trkpt lat="43.402454042328195" lon="12.051245219521306"><ele>1006.0</ele><time>2026-03-22T10:43:00.272Z</time></trkpt><trkpt lat="43.40238015567117" lon="12.051204800491227"><ele>1005.9999999999999</ele><time>2026-03-22T10:43:01.266Z</time></trkpt><trkpt lat="43.40231723023206" lon="12.051161286172825"><ele>1005.9999999999999</ele><time>2026-03-22T10:43:02.27Z</time></trkpt><trkpt lat="43.40220901604437" lon="12.051122232816791"><ele>1006.0</ele><time>2026-03-22T10:43:03.27Z</time></trkpt><trkpt lat="43.40208421598299" lon="12.051101134250844"><ele>1006.0</ele><time>2026-03-22T10:43:04.263Z</time></trkpt><trkpt lat="43.40198569338914" lon="12.051077427539823"><ele>1005.0</ele><time>2026-03-22T10:43:05.272Z</time></trkpt><trkpt lat="43.40188104194075" lon="12.051047397054981"><ele>1003.9999999999999</ele><time>2026-03-22T10:43:07.27Z</time></trkpt><trkpt lat="43.40181273638499" lon="12.050988631965732"><ele>1002.9999999999999</ele><time>2026-03-22T10:43:09.272Z</time></trkpt><trkpt lat="43.40170247192287" lon="12.050878685421734"><ele>1002.0</ele><time>2026-03-22T10:43:11.271Z</time></trkpt><trkpt lat="43.40161689531134" lon="12.050805739958554"><ele>1001.0</ele><time>2026-03-22T10:43:12.263Z</time></trkpt><trkpt lat="43.401559016201894" lon="12.050698194324898"><ele>1001.0000000000001</ele><time>2026-03-22T10:43:13.269Z</time></trkpt><trkpt lat="43.401492067645215" lon="12.050618164702131"><ele>1001.0</ele><time>2026-03-22T10:43:14.27Z</time></trkpt><trkpt lat="43.40143300244375" lon="12.0505520334898"><ele>1001.0</ele><time>2026-03-22T10:43:15.265Z</time></trkpt><trkpt lat="43.40138518864244" lon="12.050463043397153"><ele>1001.0</ele><time>2026-03-22T10:43:16.265Z</time></trkpt><trkpt lat="43.40136843396741" lon="12.050333610412968"><ele>1001.0000000000001</ele><time>2026-03-22T10:43:17.269Z</time></trkpt><trkpt lat="43.4013568269962" lon="12.050195384337176"><ele>1001.0</ele><time>2026-03-22T10:43:18.272Z</time></trkpt><trkpt lat="43.40133412986242" lon="12.050067926632112"><ele>1004.8333333333334</ele><time>2026-03-22T10:43:19.268Z</time></trkpt><trkpt lat="43.40126327774523" lon="12.049994115180874"><ele>1008.6666666666667</ele><time>2026-03-22T10:43:20.264Z</time></trkpt><trkpt lat="43.401179231902404" lon="12.049933773137147"><ele>1012.5</ele><time>2026-03-22T10:43:21.271Z</time></trkpt><trkpt lat="43.401097813395474" lon="12.049885285711547"><ele>1016.3333333333333</ele><time>2026-03-22T10:43:22.271Z</time></trkpt><trkpt lat="43.401051652795395" lon="12.049808771404539"><ele>1020.1666666666666</ele><time>2026-03-22T10:43:23.272Z</time></trkpt><trkpt lat="43.4010362513077" lon="12.049720853444509"><ele>1024.0</ele><time>2026-03-22T10:43:24.265Z</time></trkpt><trkpt lat="43.401001504904386" lon="12.04957864013459"><ele>1024.0</ele><time>2026-03-22T10:43:26.272Z</time></trkpt><trkpt lat="43.401004400085114" lon="12.049478750342722"><ele>1024.0</ele><time>2026-03-22T10:43:27.271Z</time></trkpt><trkpt lat="43.40100130062622" lon="12.049350557549081"><ele>1024.0</ele><time>2026-03-22T10:43:28.266Z</time></trkpt><trkpt lat="43.40099976792064" lon="12.049184974207646"><ele>1024.0</ele><time>2026-03-22T10:43:29.272Z</time></trkpt><trkpt lat="43.40098207085742" lon="12.04907318732009"><ele>1024.0</ele><time>2026-03-22T10:43:30.271Z</time></trkpt><trkpt lat="43.40093801287505" lon="12.04897763463382"><ele>1021.4000000000001</ele><time>2026-03-22T10:43:31.272Z</time></trkpt><trkpt lat="43.400892907458996" lon="12.048855617563325"><ele>1018.8000000000001</ele><time>2026-03-22T10:43:32.266Z</time></trkpt><trkpt lat="43.400823683780644" lon="12.04877669253922"><ele>1016.1999999999999</ele><time>2026-03-22T10:43:33.271Z</time></trkpt><trkpt lat="43.40073797661662" lon="12.048700283848321"><ele>1013.5999999999999</ele><time>2026-03-22T10:43:34.27Z</time></trkpt><trkpt lat="43.40064263900826" lon="12.048615161012098"><ele>1011.0</ele><time>2026-03-22T10:43:35.271Z</time></trkpt><trkpt lat="43.40052437906076" lon="12.048569117405373"><ele>1015.6666666666666</ele><time>2026-03-22T10:43:36.264Z</time></trkpt><trkpt lat="43.40047145608903" lon="12.048497079873824"><ele>1020.3333333333333</ele><time>2026-03-22T10:43:37.271Z</time></trkpt><trkpt lat="43.40045214005171" lon="12.048405409750547"><ele>1025.0</ele><time>2026-03-22T10:43:38.269Z</time></trkpt><trkpt lat="43.400417308270505" lon="12.048293199101925"><ele>1029.6666666666665</ele><time>2026-03-22T10:43:39.27Z</time></trkpt><trkpt lat="43.40038261293334" lon="12.048193746813364"><ele>1034.3333333333333</ele><time>2026-03-22T10:43:40.265Z</time></trkpt><trkpt lat="43.40034997761669" lon="12.048102715937802"><ele>1039.0</ele><time>2026-03-22T10:43:41.271Z</time></trkpt><trkpt lat="43.400310556505445" lon="12.04801384109591"><ele>1039.0</ele><time>2026-03-22T10:43:42.269Z</time></trkpt><trkpt lat="43.40027491825748" lon="12.047910747885384"><ele>1039.0</ele><time>2026-03-22T10:43:43.269Z</time></trkpt><trkpt lat="43.4002698341237" lon="12.047795981170529"><ele>1039.0</ele><time>2026-03-22T10:43:44.264Z</time></trkpt><trkpt lat="43.4002600704041" lon="12.047681224458179"><ele>1039.0</ele><time>2026-03-22T10:43:45.27Z</time></trkpt><trkpt lat="43.40026210617125" lon="12.047573739814842"><ele>1039.0</ele><time>2026-03-22T10:43:46.27Z</time></trkpt><trkpt lat="43.400256558825156" lon="12.04745511822888"><ele>1039.0</ele><time>2026-03-22T10:43:47.272Z</time></trkpt><trkpt lat="43.400225840499544" lon="12.047353340833036"><ele>1037.4</ele><time>2026-03-22T10:43:48.265Z</time></trkpt><trkpt lat="43.4001114400314" lon="12.047260184609362"><ele>1035.8000000000002</ele><time>2026-03-22T10:43:50.271Z</time></trkpt><trkpt lat="43.40005054913918" lon="12.047208409237262"><ele>1034.1999999999998</ele><time>2026-03-22T10:43:51.271Z</time></trkpt><trkpt lat="43.39999012041978" lon="12.047126998466402"><ele>1032.6</ele><time>2026-03-22T10:43:52.264Z</time></trkpt><trkpt lat="43.399958130839956" lon="12.047027665331397"><ele>1031.0</ele><time>2026-03-22T10:43:53.271Z</time></trkpt><trkpt lat="43.39994671633762" lon="12.046914598717708"><ele>1031.0</ele><time>2026-03-22T10:43:54.273Z</time></trkpt><trkpt lat="43.39991982223719" lon="12.04680705773656"><ele>1031.0</ele><time>2026-03-22T10:43:55.271Z</time></trkpt><trkpt lat="43.399900574010026" lon="12.046699231183752"><ele>1031.0</ele><time>2026-03-22T10:43:56.264Z</time></trkpt><trkpt lat="43.39989005276616" lon="12.046537322918049"><ele>1031.0</ele><time>2026-03-22T10:43:58.27Z</time></trkpt><trkpt lat="43.39994050188543" lon="12.04644554451415"><ele>1031.0</ele><time>2026-03-22T10:43:59.271Z</time></trkpt><trkpt lat="43.400008474126494" lon="12.04636109480871"><ele>1032.3333333333335</ele><time>2026-03-22T10:44:00.266Z</time></trkpt><trkpt lat="43.400076378137726" lon="12.04630386892112"><ele>1033.6666666666667</ele><time>2026-03-22T10:44:01.271Z</time></trkpt><trkpt lat="43.40013947662426" lon="12.046246681563147"><ele>1035.0</ele><time>2026-03-22T10:44:02.271Z</time></trkpt><trkpt lat="43.40018962467207" lon="12.04617401983284"><ele>1036.3333333333333</ele><time>2026-03-22T10:44:03.272Z</time></trkpt><trkpt lat="43.40019143469997" lon="12.04607464065343"><ele>1037.6666666666665</ele><time>2026-03-22T10:44:04.265Z</time></trkpt><trkpt lat="43.400173757525494" lon="12.04597389532809"><ele>1039.0</ele><time>2026-03-22T10:44:05.271Z</time></trkpt><trkpt lat="43.40012944925947" lon="12.045784183336563"><ele>1041.0</ele><time>2026-03-22T10:44:07.271Z</time></trkpt><trkpt lat="43.40009089449281" lon="12.045672805067216"><ele>1043.0</ele><time>2026-03-22T10:44:08.266Z</time></trkpt><trkpt lat="43.40005860109735" lon="12.045594113377277"><ele>1045.0</ele><time>2026-03-22T10:44:09.272Z</time></trkpt><trkpt lat="43.40004620610442" lon="12.045499813100093"><ele>1047.0</ele><time>2026-03-22T10:44:10.271Z</time></trkpt><trkpt lat="43.40006094058097" lon="12.045397658475963"><ele>1049.0</ele><time>2026-03-22T10:44:11.271Z</time></trkpt><trkpt lat="43.40005685313994" lon="12.045251525044469"><ele>1051.0</ele><time>2026-03-22T10:44:12.264Z</time></trkpt><trkpt lat="43.40008803768944" lon="12.045115588235856"><ele>1051.0</ele><time>2026-03-22T10:44:13.27Z</time></trkpt><trkpt lat="43.40010885421921" lon="12.044991645894367"><ele>1051.0</ele><time>2026-03-22T10:44:14.268Z</time></trkpt><trkpt lat="43.40014380610231" lon="12.044900623914828"><ele>1051.0</ele><time>2026-03-22T10:44:15.271Z</time></trkpt><trkpt lat="43.40016917809691" lon="12.044816508373257"><ele>1051.0</ele><time>2026-03-22T10:44:16.265Z</time></trkpt><trkpt lat="43.40020077993303" lon="12.044707070229077"><ele>1051.0</ele><time>2026-03-22T10:44:17.272Z</time></trkpt><trkpt lat="43.400206663722344" lon="12.044611817412358"><ele>1051.0</ele><time>2026-03-22T10:44:18.27Z</time></trkpt><trkpt lat="43.40025228606175" lon="12.044447510550329"><ele>1051.0</ele><time>2026-03-22T10:44:20.264Z</time></trkpt><trkpt lat="43.400298378315824" lon="12.044388016295528"><ele>1051.0</ele><time>2026-03-22T10:44:21.266Z</time></trkpt><trkpt lat="43.40035663400795" lon="12.044294947486705"><ele>1051.0</ele><time>2026-03-22T10:44:23.272Z</time></trkpt><trkpt lat="43.40037552074085" lon="12.044200901318966"><ele>1051.0</ele><time>2026-03-22T10:44:30.274Z</time></trkpt><trkpt lat="43.40039605890988" lon="12.0440845065743"><ele>1051.0</ele><time>2026-03-22T10:44:35.272Z</time></trkpt><trkpt lat="43.400423843486635" lon="12.043989935238084"><ele>1051.0</ele><time>2026-03-22T10:44:36.263Z</time></trkpt><trkpt lat="43.40050732655731" lon="12.04390148684848"><ele>1048.8</ele><time>2026-03-22T10:44:38.271Z</time></trkpt><trkpt lat="43.40056668438426" lon="12.04380263417955"><ele>1046.6</ele><time>2026-03-22T10:44:40.265Z</time></trkpt><trkpt lat="43.4006182056129" lon="12.043726725550231"><ele>1044.4</ele><time>2026-03-22T10:44:42.272Z</time></trkpt><trkpt lat="43.40073456998414" lon="12.043664747138955"><ele>1042.2</ele><time>2026-03-22T10:44:44.273Z</time></trkpt><trkpt lat="43.400753608973204" lon="12.043572930454202"><ele>1040.0</ele><time>2026-03-22T10:44:46.272Z</time></trkpt><trkpt lat="43.40072453792603" lon="12.043444380776181"><ele>1040.0</ele><time>2026-03-22T10:44:48.269Z</time></trkpt><trkpt lat="43.40066419529604" lon="12.043322696739445"><ele>1040.0</ele><time>2026-03-22T10:44:50.273Z</time></trkpt><trkpt lat="43.40067320308302" lon="12.043233847564393"><ele>1040.0</ele><time>2026-03-22T10:45:05.272Z</time></trkpt><trkpt lat="43.400655112176985" lon="12.043072439433228"><ele>1040.0</ele><time>2026-03-22T10:45:07.274Z</time></trkpt><trkpt lat="43.400684039467414" lon="12.042936210188913"><ele>1040.0</ele><time>2026-03-22T10:45:09.27Z</time></trkpt><trkpt lat="43.400706365588775" lon="12.042822750902642"><ele>1040.0</ele><time>2026-03-22T10:45:11.273Z</time></trkpt><trkpt lat="43.400742746214405" lon="12.042699473638088"><ele>1040.0</ele><time>2026-03-22T10:49:44.265Z</time></trkpt><trkpt lat="43.400798463547545" lon="12.042565070567312"><ele>1040.0</ele><time>2026-03-22T10:49:46.272Z</time></trkpt><trkpt lat="43.40084095038275" lon="12.042448377287513"><ele>1040.0</ele><time>2026-03-22T10:49:48.273Z</time></trkpt><trkpt lat="43.400882154788604" lon="12.042350747754057"><ele>1040.0</ele><time>2026-03-22T10:49:49.273Z</time></trkpt><trkpt lat="43.40090757790301" lon="12.042266667805077"><ele>1039.5</ele><time>2026-03-22T10:49:50.273Z</time></trkpt><trkpt lat="43.40092835380231" lon="12.042167519708094"><ele>1039.0</ele><time>2026-03-22T10:49:51.272Z</time></trkpt><trkpt lat="43.40095239036976" lon="12.042086108613313"><ele>1038.5</ele><time>2026-03-22T10:49:52.274Z</time></trkpt><trkpt lat="43.40100246549486" lon="12.041992708126283"><ele>1038.0</ele><time>2026-03-22T10:49:53.275Z</time></trkpt><trkpt lat="43.40105938134285" lon="12.041923010147736"><ele>1037.5</ele><time>2026-03-22T10:49:54.272Z</time></trkpt><trkpt lat="43.40117047464601" lon="12.041840827944618"><ele>1037.0</ele><time>2026-03-22T10:49:56.275Z</time></trkpt><trkpt lat="43.401230764248915" lon="12.041740426969358"><ele>1037.0</ele><time>2026-03-22T10:49:58.272Z</time></trkpt><trkpt lat="43.40125329077639" lon="12.041635602961525"><ele>1037.0</ele><time>2026-03-22T10:50:00.266Z</time></trkpt><trkpt lat="43.40123210783988" lon="12.041551565602253"><ele>1037.0</ele><time>2026-03-22T10:50:15.273Z</time></trkpt><trkpt lat="43.40121897849148" lon="12.041427903534865"><ele>1037.0</ele><time>2026-03-22T10:50:17.273Z</time></trkpt><trkpt lat="43.40121605197182" lon="12.0413104550169"><ele>1037.0</ele><time>2026-03-22T10:50:19.272Z</time></trkpt><trkpt lat="43.4012124158523" lon="12.041175100540366"><ele>1037.0</ele><time>2026-03-22T10:50:21.271Z</time></trkpt><trkpt lat="43.401211374468915" lon="12.04108839400599"><ele>1035.3333333333335</ele><time>2026-03-22T10:50:22.271Z</time></trkpt><trkpt lat="43.40123193586816" lon="12.040968821550619"><ele>1033.6666666666667</ele><time>2026-03-22T10:50:23.272Z</time></trkpt><trkpt lat="43.401262879055984" lon="12.04082929169419"><ele>1032.0</ele><time>2026-03-22T10:50:24.263Z</time></trkpt><trkpt lat="43.40127462821798" lon="12.040708441031596"><ele>1030.3333333333333</ele><time>2026-03-22T10:50:25.27Z</time></trkpt><trkpt lat="43.40127631497446" lon="12.040606445989473"><ele>1028.6666666666665</ele><time>2026-03-22T10:50:26.268Z</time></trkpt><trkpt lat="43.40127021447125" lon="12.040499273661988"><ele>1027.0</ele><time>2026-03-22T10:50:27.27Z</time></trkpt><trkpt lat="43.40124848859793" lon="12.040335239713778"><ele>1027.8</ele><time>2026-03-22T10:50:29.271Z</time></trkpt><trkpt lat="43.401298395029535" lon="12.040206910343237"><ele>1028.6</ele><time>2026-03-22T10:50:31.271Z</time></trkpt><trkpt lat="43.40130799544373" lon="12.040117112755237"><ele>1029.3999999999999</ele><time>2026-03-22T10:50:33.271Z</time></trkpt><trkpt lat="43.401295196799815" lon="12.039971667770642"><ele>1030.2</ele><time>2026-03-22T10:50:35.274Z</time></trkpt><trkpt lat="43.401328876197674" lon="12.03979351057086"><ele>1031.0</ele><time>2026-03-22T10:50:37.272Z</time></trkpt><trkpt lat="43.40136072877504" lon="12.039702131831582"><ele>1031.0</ele><time>2026-03-22T10:50:38.266Z</time></trkpt><trkpt lat="43.40139754589389" lon="12.039598765535438"><ele>1031.0</ele><time>2026-03-22T10:50:39.272Z</time></trkpt><trkpt lat="43.40140213856094" lon="12.039428108019816"><ele>1031.0</ele><time>2026-03-22T10:50:41.273Z</time></trkpt><trkpt lat="43.40139175710333" lon="12.039314628741678"><ele>1031.0</ele><time>2026-03-22T10:50:42.272Z</time></trkpt><trkpt lat="43.401393174740605" lon="12.03921676490504"><ele>1031.0</ele><time>2026-03-22T10:50:43.273Z</time></trkpt><trkpt lat="43.40141463202207" lon="12.039130456973636"><ele>1031.0</ele><time>2026-03-22T10:50:44.274Z</time></trkpt><trkpt lat="43.4014393406907" lon="12.039048843391585"><ele>1028.3999999999999</ele><time>2026-03-22T10:50:45.272Z</time></trkpt><trkpt lat="43.401469407023434" lon="12.038959203640848"><ele>1025.8</ele><time>2026-03-22T10:50:46.273Z</time></trkpt><trkpt lat="43.40154383944259" lon="12.038843257440451"><ele>1023.1999999999999</ele><time>2026-03-22T10:50:48.276Z</time></trkpt><trkpt lat="43.40161413898773" lon="12.038778518198304"><ele>1020.5999999999999</ele><time>2026-03-22T10:50:50.272Z</time></trkpt><trkpt lat="43.40173884678969" lon="12.038724951040058"><ele>1018.0</ele><time>2026-03-22T10:50:52.273Z</time></trkpt><trkpt lat="43.401793733964716" lon="12.038674894045641"><ele>1018.0</ele><time>2026-03-22T10:50:53.272Z</time></trkpt><trkpt lat="43.40188430413545" lon="12.038622187776328"><ele>1018.0</ele><time>2026-03-22T10:50:55.271Z</time></trkpt><trkpt lat="43.40194185775988" lon="12.038490284792177"><ele>1018.0</ele><time>2026-03-22T10:50:57.271Z</time></trkpt><trkpt lat="43.40197700001981" lon="12.038393452565646"><ele>1018.0</ele><time>2026-03-22T10:50:58.272Z</time></trkpt><trkpt lat="43.40202354250983" lon="12.038276945552516"><ele>1018.0</ele><time>2026-03-22T10:50:59.271Z</time></trkpt><trkpt lat="43.402050517254644" lon="12.038150997879404"><ele>1018.4</ele><time>2026-03-22T10:51:00.275Z</time></trkpt><trkpt lat="43.40206224098219" lon="12.038035720167617"><ele>1018.8</ele><time>2026-03-22T10:51:01.266Z</time></trkpt><trkpt lat="43.402067174295915" lon="12.037915340554395"><ele>1019.2</ele><time>2026-03-22T10:51:02.272Z</time></trkpt><trkpt lat="43.40207035633166" lon="12.037826191418874"><ele>1019.6</ele><time>2026-03-22T10:51:03.271Z</time></trkpt><trkpt lat="43.40214023480961" lon="12.0376765885065"><ele>1020.0</ele><time>2026-03-22T10:51:05.272Z</time></trkpt><trkpt lat="43.4022355838497" lon="12.037553744038535"><ele>1017.2</ele><time>2026-03-22T10:51:07.27Z</time></trkpt><trkpt lat="43.40230586748872" lon="12.037468565613503"><ele>1014.4</ele><time>2026-03-22T10:51:08.274Z</time></trkpt><trkpt lat="43.40237017829848" lon="12.037406779465746"><ele>1011.5999999999999</ele><time>2026-03-22T10:51:09.269Z</time></trkpt><trkpt lat="43.40245457393658" lon="12.037328909828801"><ele>1008.8</ele><time>2026-03-22T10:51:10.271Z</time></trkpt><trkpt lat="43.40256394792746" lon="12.037232517185794"><ele>1006.0</ele><time>2026-03-22T10:51:12.267Z</time></trkpt><trkpt lat="43.402623881224585" lon="12.037189971320819"><ele>1006.0</ele><time>2026-03-22T10:51:13.272Z</time></trkpt><trkpt lat="43.40268089152427" lon="12.03715253064019"><ele>1006.0</ele><time>2026-03-22T10:51:14.264Z</time></trkpt><trkpt lat="43.40280871369549" lon="12.037136933585431"><ele>1006.0</ele><time>2026-03-22T10:51:16.273Z</time></trkpt><trkpt lat="43.40291966734529" lon="12.037123985436713"><ele>1006.0</ele><time>2026-03-22T10:51:18.27Z</time></trkpt><trkpt lat="43.4030586819783" lon="12.037025164478026"><ele>1006.0</ele><time>2026-03-22T10:51:20.273Z</time></trkpt><trkpt lat="43.403118363247444" lon="12.036897177967889"><ele>1005.9999999999999</ele><time>2026-03-22T10:51:22.27Z</time></trkpt><trkpt lat="43.40313960066224" lon="12.03674763315576"><ele>1005.9999999999999</ele><time>2026-03-22T10:51:24.272Z</time></trkpt><trkpt lat="43.40313909776592" lon="12.036565036306776"><ele>1006.0</ele><time>2026-03-22T10:51:26.27Z</time></trkpt><trkpt lat="43.40312190420905" lon="12.036463654775238"><ele>1006.0</ele><time>2026-03-22T10:51:27.271Z</time></trkpt><trkpt lat="43.403126677449244" lon="12.036346665467097"><ele>1005.9999999999999</ele><time>2026-03-22T10:51:28.273Z</time></trkpt><trkpt lat="43.403161937728704" lon="12.036249325684766"><ele>1006.0</ele><time>2026-03-22T10:51:29.27Z</time></trkpt><trkpt lat="43.40318221328198" lon="12.036152726054661"><ele>1006.0</ele><time>2026-03-22T10:51:31.271Z</time></trkpt><trkpt lat="43.40321329096062" lon="12.03606934797319"><ele>1006.0</ele><time>2026-03-22T10:51:32.272Z</time></trkpt><trkpt lat="43.403287791524626" lon="12.036010860408217"><ele>1005.9999999999999</ele><time>2026-03-22T10:51:33.271Z</time></trkpt><trkpt lat="43.403403018856714" lon="12.0359572136411"><ele>1006.0</ele><time>2026-03-22T10:51:35.266Z</time></trkpt><trkpt lat="43.40351295919112" lon="12.03602474194853"><ele>1005.9999999999999</ele><time>2026-03-22T10:51:37.269Z</time></trkpt><trkpt lat="43.40356657049937" lon="12.036115129699295"><ele>1006.0</ele><time>2026-03-22T10:51:38.268Z</time></trkpt><trkpt lat="43.40363297899062" lon="12.036191521192343"><ele>1006.0</ele><time>2026-03-22T10:51:39.268Z</time></trkpt><trkpt lat="43.40371260704051" lon="12.036191486377087"><ele>1006.0</ele><time>2026-03-22T10:51:41.271Z</time></trkpt><trkpt lat="43.4037639232512" lon="12.03608910421754"><ele>1005.9999999999999</ele><time>2026-03-22T10:51:43.268Z</time></trkpt><trkpt lat="43.40381319746733" lon="12.036029316443859"><ele>1006.0</ele><time>2026-03-22T10:51:44.26Z</time></trkpt><trkpt lat="43.40388854165433" lon="12.035981479173335"><ele>1006.5</ele><time>2026-03-22T10:51:45.272Z</time></trkpt><trkpt lat="43.40400381738718" lon="12.035901193447865"><ele>1007.0</ele><time>2026-03-22T10:51:46.268Z</time></trkpt><trkpt lat="43.4041125512433" lon="12.035833588798281"><ele>1007.5</ele><time>2026-03-22T10:51:47.269Z</time></trkpt><trkpt lat="43.404226012618615" lon="12.03572902628863"><ele>1008.0</ele><time>2026-03-22T10:51:48.271Z</time></trkpt><trkpt lat="43.40430860638757" lon="12.035644328282112"><ele>1008.0</ele><time>2026-03-22T10:51:49.273Z</time></trkpt><trkpt lat="43.40436384635719" lon="12.035595296329626"><ele>1008.0</ele><time>2026-03-22T10:51:50.27Z</time></trkpt><trkpt lat="43.40446872949748" lon="12.03554906966373"><ele>1008.0</ele><time>2026-03-22T10:51:52.274Z</time></trkpt><trkpt lat="43.40457724886904" lon="12.035541424839439"><ele>1008.0</ele><time>2026-03-22T10:51:54.271Z</time></trkpt><trkpt lat="43.4046598912937" lon="12.035517926911634"><ele>1008.0</ele><time>2026-03-22T10:51:55.271Z</time></trkpt><trkpt lat="43.40473780471001" lon="12.035480185816764"><ele>1008.4</ele><time>2026-03-22T10:51:56.272Z</time></trkpt><trkpt lat="43.40479863097546" lon="12.035380012156411"><ele>1008.8</ele><time>2026-03-22T10:51:57.271Z</time></trkpt><trkpt lat="43.404856226126526" lon="12.035314426202667"><ele>1009.2</ele><time>2026-03-22T10:51:58.272Z</time></trkpt><trkpt lat="43.4049143190424" lon="12.035245353380793"><ele>1009.6</ele><time>2026-03-22T10:51:59.271Z</time></trkpt><trkpt lat="43.40496580188561" lon="12.035107553622307"><ele>1010.0</ele><time>2026-03-22T10:52:01.271Z</time></trkpt><trkpt lat="43.405040481836615" lon="12.035017230696205"><ele>1010.0000000000001</ele><time>2026-03-22T10:52:03.272Z</time></trkpt><trkpt lat="43.40513110103028" lon="12.035027942635137"><ele>1010.0</ele><time>2026-03-22T10:52:05.271Z</time></trkpt><trkpt lat="43.40521503183374" lon="12.0350403660586"><ele>1010.0</ele><time>2026-03-22T10:52:06.271Z</time></trkpt><trkpt lat="43.40529672583849" lon="12.035040631447545"><ele>1010.0</ele><time>2026-03-22T10:52:07.271Z</time></trkpt><trkpt lat="43.40537699069993" lon="12.03502979650412"><ele>1010.0000000000001</ele><time>2026-03-22T10:52:08.263Z</time></trkpt><trkpt lat="43.40545315024786" lon="12.03501959106293"><ele>1010.0</ele><time>2026-03-22T10:52:09.27Z</time></trkpt><trkpt lat="43.40553909603499" lon="12.034930594418588"><ele>1009.1666666666667</ele><time>2026-03-22T10:52:11.269Z</time></trkpt><trkpt lat="43.40560690723926" lon="12.034921474046039"><ele>1008.3333333333334</ele><time>2026-03-22T10:52:12.272Z</time></trkpt><trkpt lat="43.40567655056036" lon="12.034896513045503"><ele>1007.5</ele><time>2026-03-22T10:52:13.27Z</time></trkpt><trkpt lat="43.405755091317424" lon="12.034876391555883"><ele>1006.6666666666667</ele><time>2026-03-22T10:52:14.27Z</time></trkpt><trkpt lat="43.40583053498732" lon="12.034851574600676"><ele>1005.8333333333334</ele><time>2026-03-22T10:52:15.271Z</time></trkpt><trkpt lat="43.4059713052474" lon="12.034868615941846"><ele>1005.0</ele><time>2026-03-22T10:52:17.271Z</time></trkpt><trkpt lat="43.40605590756058" lon="12.03486935876446"><ele>1005.0</ele><time>2026-03-22T10:52:18.266Z</time></trkpt><trkpt lat="43.40615556407998" lon="12.034834147914792"><ele>1005.0</ele><time>2026-03-22T10:52:20.263Z</time></trkpt><trkpt lat="43.406238482553675" lon="12.034879564265042"><ele>1005.0</ele><time>2026-03-22T10:52:22.271Z</time></trkpt><trkpt lat="43.406321106050456" lon="12.034912307597786"><ele>1005.0</ele><time>2026-03-22T10:52:23.273Z</time></trkpt><trkpt lat="43.406423384304496" lon="12.034934143527328"><ele>1005.0</ele><time>2026-03-22T10:52:24.273Z</time></trkpt><trkpt lat="43.40650729703926" lon="12.034959331985375"><ele>1006.5</ele><time>2026-03-22T10:52:25.272Z</time></trkpt><trkpt lat="43.40656735700406" lon="12.035002409302974"><ele>1008.0</ele><time>2026-03-22T10:52:26.272Z</time></trkpt><trkpt lat="43.40663910875901" lon="12.035080689335265"><ele>1009.5</ele><time>2026-03-22T10:52:27.274Z</time></trkpt><trkpt lat="43.40669539127751" lon="12.035168871090432"><ele>1011.0</ele><time>2026-03-22T10:52:28.275Z</time></trkpt><trkpt lat="43.406748423176175" lon="12.035262510030408"><ele>1012.5</ele><time>2026-03-22T10:52:29.273Z</time></trkpt><trkpt lat="43.40680728892682" lon="12.035367847307628"><ele>1014.0</ele><time>2026-03-22T10:52:30.273Z</time></trkpt><trkpt lat="43.40686972082908" lon="12.035453866607389"><ele>1014.0</ele><time>2026-03-22T10:52:31.272Z</time></trkpt><trkpt lat="43.40691035627187" lon="12.035522223553597"><ele>1014.0</ele><time>2026-03-22T10:52:32.266Z</time></trkpt><trkpt lat="43.40696897879361" lon="12.035557671521717"><ele>1014.0</ele><time>2026-03-22T10:52:33.271Z</time></trkpt><trkpt lat="43.40704080372101" lon="12.03556780096505"><ele>1014.0</ele><time>2026-03-22T10:52:34.271Z</time></trkpt><trkpt lat="43.407121058136205" lon="12.035571550355247"><ele>1014.0</ele><time>2026-03-22T10:52:35.271Z</time></trkpt><trkpt lat="43.40719294477299" lon="12.03558343168299"><ele>1014.0</ele><time>2026-03-22T10:52:36.264Z</time></trkpt><trkpt lat="43.40732572205139" lon="12.035606488280218"><ele>1012.5714285714286</ele><time>2026-03-22T10:52:38.271Z</time></trkpt><trkpt lat="43.40739174467809" lon="12.03560102371524"><ele>1011.1428571428571</ele><time>2026-03-22T10:52:39.27Z</time></trkpt><trkpt lat="43.40746332867221" lon="12.035641044000226"><ele>1009.7142857142857</ele><time>2026-03-22T10:52:40.273Z</time></trkpt><trkpt lat="43.40752565139778" lon="12.035659105824271"><ele>1008.2857142857142</ele><time>2026-03-22T10:52:41.267Z</time></trkpt><trkpt lat="43.40759856607378" lon="12.035674435065433"><ele>1006.8571428571429</ele><time>2026-03-22T10:52:42.272Z</time></trkpt><trkpt lat="43.40767344511857" lon="12.035711110719237"><ele>1005.4285714285713</ele><time>2026-03-22T10:52:43.272Z</time></trkpt><trkpt lat="43.407747177968616" lon="12.03572110879474"><ele>1003.9999999999999</ele><time>2026-03-22T10:52:44.264Z</time></trkpt><trkpt lat="43.40781945348327" lon="12.035739455488143"><ele>1004.0000000000001</ele><time>2026-03-22T10:52:45.27Z</time></trkpt><trkpt lat="43.40789541159331" lon="12.035779169830567"><ele>1004.0</ele><time>2026-03-22T10:52:46.272Z</time></trkpt><trkpt lat="43.40800894526311" lon="12.035835289257244"><ele>1004.0</ele><time>2026-03-22T10:52:48.274Z</time></trkpt><trkpt lat="43.40807836734769" lon="12.035907760284463"><ele>1004.0</ele><time>2026-03-22T10:52:50.271Z</time></trkpt><trkpt lat="43.408148934628734" lon="12.035964697288602"><ele>1004.0000000000001</ele><time>2026-03-22T10:52:52.266Z</time></trkpt><trkpt lat="43.408206578833095" lon="12.035928590316416"><ele>1004.0</ele><time>2026-03-22T10:52:54.271Z</time></trkpt><trkpt lat="43.40830387513148" lon="12.035824974654489"><ele>1005.6</ele><time>2026-03-22T10:52:56.274Z</time></trkpt><trkpt lat="43.40839209117672" lon="12.035686158579065"><ele>1007.2</ele><time>2026-03-22T10:52:58.271Z</time></trkpt><trkpt lat="43.408443072553496" lon="12.035609477155507"><ele>1008.8000000000001</ele><time>2026-03-22T10:52:59.271Z</time></trkpt><trkpt lat="43.408509408224816" lon="12.035455368947645"><ele>1010.4000000000001</ele><time>2026-03-22T10:53:01.264Z</time></trkpt><trkpt lat="43.40855532366006" lon="12.035366158474428"><ele>1012.0</ele><time>2026-03-22T10:53:02.271Z</time></trkpt><trkpt lat="43.40863134801676" lon="12.03522010936028"><ele>1012.0</ele><time>2026-03-22T10:53:04.273Z</time></trkpt><trkpt lat="43.40867039208104" lon="12.035141273009117"><ele>1012.0</ele><time>2026-03-22T10:53:06.27Z</time></trkpt><trkpt lat="43.408718410852494" lon="12.034959969014428"><ele>1012.0</ele><time>2026-03-22T10:55:13.27Z</time></trkpt><trkpt lat="43.40875437036398" lon="12.03503893579271"><ele>1012.0</ele><time>2026-03-22T11:01:30.27Z</time></trkpt><trkpt lat="43.40883173387612" lon="12.034956581642833"><ele>1012.0</ele><time>2026-03-22T11:01:33.272Z</time></trkpt><trkpt lat="43.40893452918731" lon="12.034872915804748"><ele>1011.8</ele><time>2026-03-22T11:01:35.265Z</time></trkpt><trkpt lat="43.40905439322058" lon="12.034801077006927"><ele>1011.6</ele><time>2026-03-22T11:01:37.273Z</time></trkpt><trkpt lat="43.40914559668373" lon="12.034802062873675"><ele>1011.3999999999999</ele><time>2026-03-22T11:01:38.268Z</time></trkpt><trkpt lat="43.409228632737786" lon="12.034773532186028"><ele>1011.1999999999999</ele><time>2026-03-22T11:01:39.27Z</time></trkpt><trkpt lat="43.40930840541993" lon="12.034731756829123"><ele>1011.0</ele><time>2026-03-22T11:01:40.263Z</time></trkpt><trkpt lat="43.40941819232058" lon="12.03468239633222"><ele>1011.0</ele><time>2026-03-22T11:01:41.269Z</time></trkpt><trkpt lat="43.40948446396263" lon="12.034678607168644"><ele>1010.9999999999999</ele><time>2026-03-22T11:01:42.263Z</time></trkpt><trkpt lat="43.40954684109957" lon="12.034666910558025"><ele>1010.9999999999999</ele><time>2026-03-22T11:01:43.269Z</time></trkpt><trkpt lat="43.40967862545585" lon="12.034666681770311"><ele>1011.0</ele><time>2026-03-22T11:01:45.27Z</time></trkpt><trkpt lat="43.40975163563994" lon="12.034665385720373"><ele>1011.0</ele><time>2026-03-22T11:01:46.269Z</time></trkpt><trkpt lat="43.40988918996053" lon="12.034611475612067"><ele>1009.8333333333334</ele><time>2026-03-22T11:01:48.273Z</time></trkpt><trkpt lat="43.4099579469839" lon="12.034598112968734"><ele>1008.6666666666667</ele><time>2026-03-22T11:01:49.27Z</time></trkpt><trkpt lat="43.410038057081664" lon="12.034586694562597"><ele>1007.5</ele><time>2026-03-22T11:01:50.271Z</time></trkpt><trkpt lat="43.41013259688984" lon="12.03453611033449"><ele>1006.3333333333334</ele><time>2026-03-22T11:01:51.272Z</time></trkpt><trkpt lat="43.41020131785134" lon="12.03450581323293"><ele>1005.1666666666667</ele><time>2026-03-22T11:01:52.263Z</time></trkpt><trkpt lat="43.41027021791698" lon="12.034476768052205"><ele>1004.0</ele><time>2026-03-22T11:01:53.27Z</time></trkpt><trkpt lat="43.41039502216336" lon="12.034397131364333"><ele>1004.0</ele><time>2026-03-22T11:01:55.272Z</time></trkpt><trkpt lat="43.41047755626792" lon="12.03429217598925"><ele>1004.0000000000001</ele><time>2026-03-22T11:01:57.271Z</time></trkpt><trkpt lat="43.41057824536542" lon="12.034198194508908"><ele>1004.0000000000001</ele><time>2026-03-22T11:01:59.271Z</time></trkpt><trkpt lat="43.41064048533578" lon="12.034163780625892"><ele>1004.0</ele><time>2026-03-22T11:02:00.264Z</time></trkpt><trkpt lat="43.41074953471562" lon="12.034131749966035"><ele>1004.0</ele><time>2026-03-22T11:02:02.272Z</time></trkpt><trkpt lat="43.410822884882045" lon="12.034114615982215"><ele>1000.8000000000001</ele><time>2026-03-22T11:02:03.273Z</time></trkpt><trkpt lat="43.41090829749441" lon="12.03403461114274"><ele>997.6000000000001</ele><time>2026-03-22T11:02:07.27Z</time></trkpt><trkpt lat="43.41098284317595" lon="12.03399587586542"><ele>994.4</ele><time>2026-03-22T11:02:08.262Z</time></trkpt><trkpt lat="43.41107438096154" lon="12.033960730587589"><ele>991.2</ele><time>2026-03-22T11:02:09.271Z</time></trkpt><trkpt lat="43.41115920238223" lon="12.033933329960279"><ele>988.0</ele><time>2026-03-22T11:02:10.27Z</time></trkpt><trkpt lat="43.41129955808543" lon="12.033888201845228"><ele>986.8</ele><time>2026-03-22T11:02:12.274Z</time></trkpt><trkpt lat="43.41139509627526" lon="12.033876816512265"><ele>985.5999999999999</ele><time>2026-03-22T11:02:14.271Z</time></trkpt><trkpt lat="43.4114923791899" lon="12.03385871449854"><ele>984.4000000000001</ele><time>2026-03-22T11:02:15.269Z</time></trkpt><trkpt lat="43.41156262384262" lon="12.033874722041464"><ele>983.2</ele><time>2026-03-22T11:02:16.261Z</time></trkpt><trkpt lat="43.4116772503324" lon="12.033847745031004"><ele>982.0</ele><time>2026-03-22T11:02:18.267Z</time></trkpt><trkpt lat="43.41180038727964" lon="12.033803404004589"><ele>981.9999999999999</ele><time>2026-03-22T11:02:20.264Z</time></trkpt><trkpt lat="43.41189539254487" lon="12.033803455686117"><ele>982.0</ele><time>2026-03-22T11:02:22.27Z</time></trkpt><trkpt lat="43.41197032713795" lon="12.033838331524938"><ele>982.0</ele><time>2026-03-22T11:02:25.272Z</time></trkpt><trkpt lat="43.41201782119281" lon="12.03377562794541"><ele>982.0</ele><time>2026-03-22T11:02:28.263Z</time></trkpt><trkpt lat="43.41201806966656" lon="12.033666070004077"><ele>981.9999999999999</ele><time>2026-03-22T11:02:30.269Z</time></trkpt><trkpt lat="43.412003799576176" lon="12.033548116315792"><ele>982.0</ele><time>2026-03-22T11:02:31.269Z</time></trkpt><trkpt lat="43.41198164600983" lon="12.033429966333571"><ele>982.0</ele><time>2026-03-22T11:02:32.261Z</time></trkpt><trkpt lat="43.41196054627272" lon="12.033315092006788"><ele>981.9999999999999</ele><time>2026-03-22T11:02:33.27Z</time></trkpt><trkpt lat="43.411928082456456" lon="12.033233933714856"><ele>982.0</ele><time>2026-03-22T11:02:34.27Z</time></trkpt><trkpt lat="43.41188920633901" lon="12.033163274298373"><ele>982.0</ele><time>2026-03-22T11:02:35.269Z</time></trkpt><trkpt lat="43.41183712732596" lon="12.033085012911265"><ele>981.9999999999999</ele><time>2026-03-22T11:02:36.264Z</time></trkpt><trkpt lat="43.41179914801169" lon="12.03299917455813"><ele>982.0</ele><time>2026-03-22T11:02:37.269Z</time></trkpt><trkpt lat="43.411739296728214" lon="12.032951203371729"><ele>982.0</ele><time>2026-03-22T11:02:38.268Z</time></trkpt><trkpt lat="43.41165679249269" lon="12.032824377253066"><ele>977.75</ele><time>2026-03-22T11:02:40.262Z</time></trkpt><trkpt lat="43.41157429792977" lon="12.032783197971973"><ele>973.5</ele><time>2026-03-22T11:02:41.264Z</time></trkpt><trkpt lat="43.41145708795701" lon="12.032617969064736"><ele>969.25</ele><time>2026-03-22T11:02:43.269Z</time></trkpt><trkpt lat="43.411448023947024" lon="12.032500435582673"><ele>965.0</ele><time>2026-03-22T11:02:44.261Z</time></trkpt><trkpt lat="43.41139106983691" lon="12.032323999114432"><ele>963.6</ele><time>2026-03-22T11:02:46.269Z</time></trkpt><trkpt lat="43.4113503131455" lon="12.032249215025399"><ele>962.2</ele><time>2026-03-22T11:02:47.27Z</time></trkpt><trkpt lat="43.4113088047222" lon="12.032180672705566"><ele>960.8</ele><time>2026-03-22T11:02:48.262Z</time></trkpt><trkpt lat="43.411197898803735" lon="12.032010416561228"><ele>959.4</ele><time>2026-03-22T11:02:50.268Z</time></trkpt><trkpt lat="43.4111639531117" lon="12.031921714367193"><ele>958.0</ele><time>2026-03-22T11:02:51.269Z</time></trkpt><trkpt lat="43.41106557334157" lon="12.031753646850778"><ele>958.0</ele><time>2026-03-22T11:02:53.27Z</time></trkpt><trkpt lat="43.41100191625506" lon="12.031687641077161"><ele>958.0</ele><time>2026-03-22T11:02:54.269Z</time></trkpt><trkpt lat="43.410953643759235" lon="12.031603556450671"><ele>958.0</ele><time>2026-03-22T11:02:55.27Z</time></trkpt><trkpt lat="43.410908322950505" lon="12.03150818848016"><ele>958.0</ele><time>2026-03-22T11:02:56.262Z</time></trkpt><trkpt lat="43.410803893750234" lon="12.031336390404173"><ele>958.0</ele><time>2026-03-22T11:02:58.269Z</time></trkpt><trkpt lat="43.41074054577479" lon="12.03125315706977"><ele>954.9999999999999</ele><time>2026-03-22T11:02:59.268Z</time></trkpt><trkpt lat="43.4106760932242" lon="12.031153911987136"><ele>952.0</ele><time>2026-03-22T11:03:00.263Z</time></trkpt><trkpt lat="43.41058986253782" lon="12.031030196391898"><ele>949.0</ele><time>2026-03-22T11:03:02.27Z</time></trkpt><trkpt lat="43.41053796214524" lon="12.030975564835126"><ele>946.0</ele><time>2026-03-22T11:03:03.269Z</time></trkpt><trkpt lat="43.41046769193791" lon="12.030929540409373"><ele>942.9999999999999</ele><time>2026-03-22T11:03:04.263Z</time></trkpt><trkpt lat="43.41040035292866" lon="12.030865244591368"><ele>940.0</ele><time>2026-03-22T11:03:05.274Z</time></trkpt><trkpt lat="43.41033164189443" lon="12.030826044582472"><ele>935.2</ele><time>2026-03-22T11:03:06.27Z</time></trkpt><trkpt lat="43.41027826354983" lon="12.030752671274884"><ele>930.4</ele><time>2026-03-22T11:03:07.27Z</time></trkpt><trkpt lat="43.41016936173704" lon="12.030665139922647"><ele>925.5999999999999</ele><time>2026-03-22T11:03:09.27Z</time></trkpt><trkpt lat="43.41007152399653" lon="12.03062025274066"><ele>920.8</ele><time>2026-03-22T11:03:11.269Z</time></trkpt><trkpt lat="43.40994942885444" lon="12.030606399624554"><ele>916.0</ele><time>2026-03-22T11:03:13.27Z</time></trkpt><trkpt lat="43.409884057408455" lon="12.030608740641023"><ele>916.0</ele><time>2026-03-22T11:03:14.268Z</time></trkpt><trkpt lat="43.40980820473416" lon="12.03061320965891"><ele>915.9999999999999</ele><time>2026-03-22T11:03:15.262Z</time></trkpt><trkpt lat="43.40973723280517" lon="12.030619907716117"><ele>915.9999999999999</ele><time>2026-03-22T11:03:16.261Z</time></trkpt><trkpt lat="43.40962575916677" lon="12.030611986728529"><ele>916.0</ele><time>2026-03-22T11:03:18.271Z</time></trkpt><trkpt lat="43.40951372528671" lon="12.030586897341877"><ele>916.0</ele><time>2026-03-22T11:03:20.262Z</time></trkpt><trkpt lat="43.4094212994183" lon="12.030673303955293"><ele>915.0</ele><time>2026-03-22T11:03:22.269Z</time></trkpt><trkpt lat="43.4093669857709" lon="12.030756764185492"><ele>913.9999999999999</ele><time>2026-03-22T11:03:23.27Z</time></trkpt><trkpt lat="43.40929600318541" lon="12.030895297452364"><ele>912.9999999999999</ele><time>2026-03-22T11:03:25.27Z</time></trkpt><trkpt lat="43.409195141157966" lon="12.030934504270633"><ele>912.0</ele><time>2026-03-22T11:03:27.268Z</time></trkpt><trkpt lat="43.409135679387376" lon="12.030866471586068"><ele>911.0</ele><time>2026-03-22T11:03:28.262Z</time></trkpt><trkpt lat="43.40906378960821" lon="12.030782823169538"><ele>911.0</ele><time>2026-03-22T11:03:29.269Z</time></trkpt><trkpt lat="43.408964139047804" lon="12.030662996935655"><ele>911.0</ele><time>2026-03-22T11:03:30.269Z</time></trkpt><trkpt lat="43.40885104821724" lon="12.03056130929002"><ele>911.0</ele><time>2026-03-22T11:03:31.269Z</time></trkpt><trkpt lat="43.40875133744306" lon="12.030485014740117"><ele>911.0</ele><time>2026-03-22T11:03:32.262Z</time></trkpt><trkpt lat="43.408672466655375" lon="12.030450568687256"><ele>913.5999999999999</ele><time>2026-03-22T11:03:33.271Z</time></trkpt><trkpt lat="43.40857032501593" lon="12.030395591211017"><ele>916.1999999999999</ele><time>2026-03-22T11:03:34.27Z</time></trkpt><trkpt lat="43.40848185466168" lon="12.030334359085124"><ele>918.8000000000001</ele><time>2026-03-22T11:03:35.269Z</time></trkpt><trkpt lat="43.40839883134845" lon="12.030261535887778"><ele>921.4000000000001</ele><time>2026-03-22T11:03:36.262Z</time></trkpt><trkpt lat="43.40831452185192" lon="12.03016587631434"><ele>924.0</ele><time>2026-03-22T11:03:37.27Z</time></trkpt><trkpt lat="43.408233950028524" lon="12.030070993677052"><ele>924.0</ele><time>2026-03-22T11:03:38.271Z</time></trkpt><trkpt lat="43.408178670748086" lon="12.029989100647155"><ele>924.0000000000001</ele><time>2026-03-22T11:03:39.271Z</time></trkpt><trkpt lat="43.40813344910417" lon="12.029875049200024"><ele>924.0000000000001</ele><time>2026-03-22T11:03:40.264Z</time></trkpt><trkpt lat="43.40810220163773" lon="12.029735546705703"><ele>924.0</ele><time>2026-03-22T11:03:41.272Z</time></trkpt><trkpt lat="43.40809028099318" lon="12.02959384226728"><ele>924.0</ele><time>2026-03-22T11:03:42.271Z</time></trkpt><trkpt lat="43.40808353994117" lon="12.029491210611612"><ele>920.8333333333334</ele><time>2026-03-22T11:03:43.272Z</time></trkpt><trkpt lat="43.40800329633831" lon="12.029374388064099"><ele>917.6666666666667</ele><time>2026-03-22T11:03:45.273Z</time></trkpt><trkpt lat="43.40791288695157" lon="12.029317241504671"><ele>914.5</ele><time>2026-03-22T11:03:46.271Z</time></trkpt><trkpt lat="43.40784811133536" lon="12.029252782090985"><ele>911.3333333333334</ele><time>2026-03-22T11:03:47.272Z</time></trkpt><trkpt lat="43.407795112664125" lon="12.029199568065643"><ele>908.1666666666667</ele><time>2026-03-22T11:03:48.274Z</time></trkpt><trkpt lat="43.407718806622896" lon="12.029179022467655"><ele>905.0</ele><time>2026-03-22T11:03:49.272Z</time></trkpt><trkpt lat="43.40763220689443" lon="12.029184544003472"><ele>905.0000000000001</ele><time>2026-03-22T11:03:50.271Z</time></trkpt><trkpt lat="43.40754308620306" lon="12.029208470117725"><ele>905.0</ele><time>2026-03-22T11:03:51.271Z</time></trkpt><trkpt lat="43.4074815478576" lon="12.029239864883047"><ele>905.0</ele><time>2026-03-22T11:03:52.264Z</time></trkpt><trkpt lat="43.40742608100688" lon="12.029293612143697"><ele>905.0</ele><time>2026-03-22T11:03:53.271Z</time></trkpt><trkpt lat="43.40738061962707" lon="12.029356323701476"><ele>905.0000000000001</ele><time>2026-03-22T11:03:54.271Z</time></trkpt><trkpt lat="43.40733741927299" lon="12.029420763856436"><ele>905.0</ele><time>2026-03-22T11:03:55.271Z</time></trkpt><trkpt lat="43.40730062498333" lon="12.029627202322976"><ele>905.0</ele><time>2026-03-22T11:03:57.271Z</time></trkpt><trkpt lat="43.40727822897327" lon="12.029731395240557"><ele>904.9999999999999</ele><time>2026-03-22T11:03:58.27Z</time></trkpt><trkpt lat="43.40724520377943" lon="12.029830874839742"><ele>905.0</ele><time>2026-03-22T11:03:59.27Z</time></trkpt><trkpt lat="43.4071948112403" lon="12.029891176411374"><ele>905.0</ele><time>2026-03-22T11:04:00.264Z</time></trkpt><trkpt lat="43.40713366018629" lon="12.029922301102754"><ele>904.9999999999999</ele><time>2026-03-22T11:04:01.262Z</time></trkpt><trkpt lat="43.407072647724334" lon="12.029946078193428"><ele>905.0</ele><time>2026-03-22T11:04:02.271Z</time></trkpt><trkpt lat="43.40699711733975" lon="12.029929840293576"><ele>905.0</ele><time>2026-03-22T11:04:03.27Z</time></trkpt><trkpt lat="43.406905283745665" lon="12.029884710765653"><ele>901.8</ele><time>2026-03-22T11:04:04.261Z</time></trkpt><trkpt lat="43.40680832687719" lon="12.029857009249222"><ele>898.6</ele><time>2026-03-22T11:04:05.27Z</time></trkpt><trkpt lat="43.40668558590555" lon="12.029839985868964"><ele>895.4000000000001</ele><time>2026-03-22T11:04:06.268Z</time></trkpt><trkpt lat="43.40657573333705" lon="12.029836942256498"><ele>892.2</ele><time>2026-03-22T11:04:07.27Z</time></trkpt><trkpt lat="43.40647524767484" lon="12.029814932137857"><ele>889.0</ele><time>2026-03-22T11:04:08.269Z</time></trkpt><trkpt lat="43.40639789687231" lon="12.0298092355071"><ele>892.6</ele><time>2026-03-22T11:04:09.27Z</time></trkpt><trkpt lat="43.406259699645965" lon="12.029891637739638"><ele>896.2</ele><time>2026-03-22T11:04:11.27Z</time></trkpt><trkpt lat="43.40616058503788" lon="12.029940991536119"><ele>899.8000000000001</ele><time>2026-03-22T11:04:12.261Z</time></trkpt><trkpt lat="43.40607391547785" lon="12.029976462349582"><ele>903.4000000000001</ele><time>2026-03-22T11:04:13.269Z</time></trkpt><trkpt lat="43.40600345926002" lon="12.030023503748867"><ele>907.0</ele><time>2026-03-22T11:04:14.268Z</time></trkpt><trkpt lat="43.40594983723754" lon="12.030090266596678"><ele>908.25</ele><time>2026-03-22T11:04:15.268Z</time></trkpt><trkpt lat="43.405833166936596" lon="12.030155123105926"><ele>909.5</ele><time>2026-03-22T11:04:17.269Z</time></trkpt><trkpt lat="43.40568972141399" lon="12.030096975018854"><ele>910.75</ele><time>2026-03-22T11:04:19.264Z</time></trkpt><trkpt lat="43.40558978226385" lon="12.030064071606516"><ele>912.0</ele><time>2026-03-22T11:04:20.264Z</time></trkpt><trkpt lat="43.405494726833794" lon="12.030029338963848"><ele>912.8333333333334</ele><time>2026-03-22T11:04:21.263Z</time></trkpt><trkpt lat="43.40542338109965" lon="12.030036791770637"><ele>913.6666666666667</ele><time>2026-03-22T11:04:22.27Z</time></trkpt><trkpt lat="43.405361457533985" lon="12.030018661199048"><ele>914.5</ele><time>2026-03-22T11:04:23.268Z</time></trkpt><trkpt lat="43.40522729970218" lon="12.029970217458386"><ele>915.3333333333334</ele><time>2026-03-22T11:04:25.269Z</time></trkpt><trkpt lat="43.40515425338553" lon="12.029966396347156"><ele>916.1666666666667</ele><time>2026-03-22T11:04:26.269Z</time></trkpt><trkpt lat="43.40507372611863" lon="12.029970513507703"><ele>917.0</ele><time>2026-03-22T11:04:27.27Z</time></trkpt><trkpt lat="43.40498212471344" lon="12.029915827042561"><ele>919.0</ele><time>2026-03-22T11:04:29.269Z</time></trkpt><trkpt lat="43.40496775769914" lon="12.02978667506884"><ele>921.0</ele><time>2026-03-22T11:04:31.27Z</time></trkpt><trkpt lat="43.40500570191492" lon="12.0297144373482"><ele>923.0</ele><time>2026-03-22T11:04:32.261Z</time></trkpt><trkpt lat="43.405142480534224" lon="12.029635570981354"><ele>925.0</ele><time>2026-03-22T11:04:34.27Z</time></trkpt><trkpt lat="43.40523417860874" lon="12.029589025398325"><ele>927.0</ele><time>2026-03-22T11:04:35.27Z</time></trkpt><trkpt lat="43.405325505266994" lon="12.029502680479991"><ele>927.0</ele><time>2026-03-22T11:04:36.261Z</time></trkpt><trkpt lat="43.40541028736588" lon="12.029366755427986"><ele>927.0</ele><time>2026-03-22T11:04:37.265Z</time></trkpt><trkpt lat="43.40548740861105" lon="12.029262617065449"><ele>927.0</ele><time>2026-03-22T11:04:38.27Z</time></trkpt><trkpt lat="43.405537952695276" lon="12.029149447313339"><ele>927.0</ele><time>2026-03-22T11:04:39.27Z</time></trkpt><trkpt lat="43.40555339129067" lon="12.02903163975822"><ele>927.0</ele><time>2026-03-22T11:04:40.262Z</time></trkpt><trkpt lat="43.40557693240368" lon="12.02890659969864"><ele>926.0</ele><time>2026-03-22T11:04:41.263Z</time></trkpt><trkpt lat="43.40563299352396" lon="12.028764643438995"><ele>925.0</ele><time>2026-03-22T11:04:42.27Z</time></trkpt><trkpt lat="43.40568486200756" lon="12.028696294029992"><ele>924.0</ele><time>2026-03-22T11:04:43.27Z</time></trkpt><trkpt lat="43.40569727625268" lon="12.028605955186023"><ele>923.0</ele><time>2026-03-22T11:04:44.261Z</time></trkpt><trkpt lat="43.405695465123245" lon="12.028513132858748"><ele>922.0</ele><time>2026-03-22T11:04:45.268Z</time></trkpt><trkpt lat="43.405676424773226" lon="12.028423179724484"><ele>921.0</ele><time>2026-03-22T11:04:46.269Z</time></trkpt><trkpt lat="43.40565353741006" lon="12.02830464079917"><ele>924.5999999999999</ele><time>2026-03-22T11:04:47.27Z</time></trkpt><trkpt lat="43.405665100503604" lon="12.028178634679854"><ele>928.1999999999999</ele><time>2026-03-22T11:04:48.262Z</time></trkpt><trkpt lat="43.4056928129956" lon="12.028086655057708"><ele>931.8000000000001</ele><time>2026-03-22T11:04:49.268Z</time></trkpt><trkpt lat="43.4057402348853" lon="12.027945255414233"><ele>935.4000000000001</ele><time>2026-03-22T11:04:50.269Z</time></trkpt><trkpt lat="43.405815303085184" lon="12.027814055124477"><ele>939.0</ele><time>2026-03-22T11:04:51.269Z</time></trkpt><trkpt lat="43.4058698643262" lon="12.027669645987825"><ele>939.0</ele><time>2026-03-22T11:04:52.261Z</time></trkpt><trkpt lat="43.405926645185865" lon="12.027542986575401"><ele>939.0000000000001</ele><time>2026-03-22T11:04:53.27Z</time></trkpt><trkpt lat="43.40602537837096" lon="12.027456842965632"><ele>939.0000000000001</ele><time>2026-03-22T11:04:54.27Z</time></trkpt><trkpt lat="43.40604958992777" lon="12.027290053863421"><ele>939.0</ele><time>2026-03-22T11:04:56.262Z</time></trkpt><trkpt lat="43.40603592200407" lon="12.027168575944339"><ele>939.0</ele><time>2026-03-22T11:04:57.273Z</time></trkpt><trkpt lat="43.406000427707355" lon="12.0270565073098"><ele>938.8000000000001</ele><time>2026-03-22T11:04:58.271Z</time></trkpt><trkpt lat="43.40597634804243" lon="12.026954311556294"><ele>938.6000000000001</ele><time>2026-03-22T11:04:59.277Z</time></trkpt><trkpt lat="43.40594436849056" lon="12.026820944693103"><ele>938.4</ele><time>2026-03-22T11:05:00.266Z</time></trkpt><trkpt lat="43.4058869451373" lon="12.02666479157186"><ele>938.2</ele><time>2026-03-22T11:05:01.272Z</time></trkpt><trkpt lat="43.405824827678586" lon="12.026488984141693"><ele>938.0</ele><time>2026-03-22T11:05:02.273Z</time></trkpt><trkpt lat="43.405761937047714" lon="12.026324232763582"><ele>938.0</ele><time>2026-03-22T11:05:03.272Z</time></trkpt><trkpt lat="43.40568924401421" lon="12.026177463172122"><ele>938.0</ele><time>2026-03-22T11:05:04.265Z</time></trkpt><trkpt lat="43.40562144572886" lon="12.026058166309113"><ele>938.0</ele><time>2026-03-22T11:05:05.273Z</time></trkpt><trkpt lat="43.40552958928271" lon="12.025961205366745"><ele>938.0</ele><time>2026-03-22T11:05:06.271Z</time></trkpt><trkpt lat="43.40546671086087" lon="12.025839505082265"><ele>938.8333333333334</ele><time>2026-03-22T11:05:07.271Z</time></trkpt><trkpt lat="43.40539364138118" lon="12.02576083735774"><ele>939.6666666666667</ele><time>2026-03-22T11:05:08.269Z</time></trkpt><trkpt lat="43.40532904193541" lon="12.025741863107143"><ele>940.5</ele><time>2026-03-22T11:05:09.271Z</time></trkpt><trkpt lat="43.40526539344806" lon="12.025713349308637"><ele>941.3333333333333</ele><time>2026-03-22T11:05:10.271Z</time></trkpt><trkpt lat="43.40520370143216" lon="12.025655418966902"><ele>942.1666666666666</ele><time>2026-03-22T11:05:11.272Z</time></trkpt><trkpt lat="43.405112477668716" lon="12.025610072347982"><ele>943.0</ele><time>2026-03-22T11:05:13.264Z</time></trkpt><trkpt lat="43.40508188770446" lon="12.025527074984998"><ele>943.0</ele><time>2026-03-22T11:08:25.272Z</time></trkpt><trkpt lat="43.405013925935584" lon="12.025470789117964"><ele>943.0000000000001</ele><time>2026-03-22T11:08:29.271Z</time></trkpt><trkpt lat="43.40494926638201" lon="12.025448924405179"><ele>943.0</ele><time>2026-03-22T11:08:32.271Z</time></trkpt><trkpt lat="43.40502638879867" lon="12.025497305394353"><ele>943.0</ele><time>2026-03-22T11:08:40.267Z</time></trkpt><trkpt lat="43.40508146272921" lon="12.025551847040061"><ele>943.0000000000001</ele><time>2026-03-22T11:10:00.265Z</time></trkpt><trkpt lat="43.40512246831046" lon="12.025618087897383"><ele>943.0</ele><time>2026-03-22T11:10:06.271Z</time></trkpt><trkpt lat="43.405186316809164" lon="12.025663998383628"><ele>943.0</ele><time>2026-03-22T11:10:09.266Z</time></trkpt><trkpt lat="43.405242214994146" lon="12.02570615721153"><ele>942.9999999999999</ele><time>2026-03-22T11:10:12.271Z</time></trkpt><trkpt lat="43.40530031784934" lon="12.025740220593004"><ele>943.0</ele><time>2026-03-22T11:10:15.273Z</time></trkpt><trkpt lat="43.405378900365115" lon="12.025690851325665"><ele>943.0</ele><time>2026-03-22T11:10:18.273Z</time></trkpt><trkpt lat="43.405390425984486" lon="12.025570356543716"><ele>943.0</ele><time>2026-03-22T11:10:20.272Z</time></trkpt><trkpt lat="43.40537985212593" lon="12.025440884561185"><ele>942.9999999999999</ele><time>2026-03-22T11:10:21.271Z</time></trkpt><trkpt lat="43.405331934533464" lon="12.025300773359044"><ele>943.0</ele><time>2026-03-22T11:10:22.272Z</time></trkpt><trkpt lat="43.40530508360055" lon="12.02516627004651"><ele>942.9999999999999</ele><time>2026-03-22T11:10:23.271Z</time></trkpt><trkpt lat="43.405289449248386" lon="12.025034844336895"><ele>943.0</ele><time>2026-03-22T11:10:24.267Z</time></trkpt><trkpt lat="43.405258868262095" lon="12.02492271334235"><ele>943.0</ele><time>2026-03-22T11:10:25.271Z</time></trkpt><trkpt lat="43.405237984422655" lon="12.024817061831362"><ele>943.0</ele><time>2026-03-22T11:10:26.27Z</time></trkpt><trkpt lat="43.40522830996557" lon="12.024710981786622"><ele>942.9999999999999</ele><time>2026-03-22T11:10:27.265Z</time></trkpt><trkpt lat="43.40528144278619" lon="12.024655507576648"><ele>943.0</ele><time>2026-03-22T11:10:28.266Z</time></trkpt><trkpt lat="43.40545284269483" lon="12.024590788530954"><ele>942.4999999999999</ele><time>2026-03-22T11:10:30.271Z</time></trkpt><trkpt lat="43.40556163341291" lon="12.024544329968863"><ele>942.0</ele><time>2026-03-22T11:10:31.273Z</time></trkpt><trkpt lat="43.40563936789782" lon="12.024494046445406"><ele>941.5</ele><time>2026-03-22T11:10:32.265Z</time></trkpt><trkpt lat="43.40571569937717" lon="12.024465143903075"><ele>941.0</ele><time>2026-03-22T11:10:33.272Z</time></trkpt><trkpt lat="43.405795438307685" lon="12.024433851320712"><ele>940.4999999999999</ele><time>2026-03-22T11:10:34.272Z</time></trkpt><trkpt lat="43.40587411416893" lon="12.024402767664618"><ele>940.0</ele><time>2026-03-22T11:10:35.273Z</time></trkpt><trkpt lat="43.40595299575759" lon="12.024368446692618"><ele>939.9999999999999</ele><time>2026-03-22T11:10:36.272Z</time></trkpt><trkpt lat="43.40603982172629" lon="12.024328007051794"><ele>940.0</ele><time>2026-03-22T11:10:37.272Z</time></trkpt><trkpt lat="43.406110469742764" lon="12.024285187523253"><ele>940.0</ele><time>2026-03-22T11:10:38.272Z</time></trkpt><trkpt lat="43.406181101086645" lon="12.024252659588694"><ele>940.0</ele><time>2026-03-22T11:10:39.272Z</time></trkpt><trkpt lat="43.406245017310766" lon="12.024218560181492"><ele>939.9999999999999</ele><time>2026-03-22T11:10:40.27Z</time></trkpt><trkpt lat="43.40632156654484" lon="12.024144387311095"><ele>940.0</ele><time>2026-03-22T11:10:41.272Z</time></trkpt><trkpt lat="43.4063943699627" lon="12.024072856823462"><ele>939.0</ele><time>2026-03-22T11:10:42.275Z</time></trkpt><trkpt lat="43.40646348853469" lon="12.023994275957014"><ele>938.0</ele><time>2026-03-22T11:10:43.273Z</time></trkpt><trkpt lat="43.40653009318516" lon="12.023930756704704"><ele>937.0</ele><time>2026-03-22T11:10:44.265Z</time></trkpt><trkpt lat="43.406608826124405" lon="12.023861471717446"><ele>936.0</ele><time>2026-03-22T11:10:45.265Z</time></trkpt><trkpt lat="43.406696379515004" lon="12.023784958673227"><ele>935.0</ele><time>2026-03-22T11:10:46.272Z</time></trkpt><trkpt lat="43.406782260924935" lon="12.023720338938126"><ele>935.0000000000001</ele><time>2026-03-22T11:10:47.274Z</time></trkpt><trkpt lat="43.40684689025178" lon="12.023684794133338"><ele>935.0</ele><time>2026-03-22T11:10:48.269Z</time></trkpt><trkpt lat="43.40692824153965" lon="12.023641566281558"><ele>935.0</ele><time>2026-03-22T11:10:49.273Z</time></trkpt><trkpt lat="43.40701839565135" lon="12.023609928063156"><ele>935.0</ele><time>2026-03-22T11:10:50.272Z</time></trkpt><trkpt lat="43.407118721779035" lon="12.023585767983324"><ele>935.0000000000001</ele><time>2026-03-22T11:10:51.272Z</time></trkpt><trkpt lat="43.40719043004874" lon="12.023581201564149"><ele>935.0</ele><time>2026-03-22T11:10:52.271Z</time></trkpt><trkpt lat="43.407281229994254" lon="12.023576234958023"><ele>935.8333333333334</ele><time>2026-03-22T11:10:53.273Z</time></trkpt><trkpt lat="43.40737093063997" lon="12.023567508007853"><ele>936.6666666666667</ele><time>2026-03-22T11:10:54.274Z</time></trkpt><trkpt lat="43.407438314655884" lon="12.023556042646744"><ele>937.5</ele><time>2026-03-22T11:10:55.273Z</time></trkpt><trkpt lat="43.407528736137444" lon="12.023524269216644"><ele>938.3333333333333</ele><time>2026-03-22T11:10:56.271Z</time></trkpt><trkpt lat="43.40762588594511" lon="12.023483445230184"><ele>939.1666666666666</ele><time>2026-03-22T11:10:57.273Z</time></trkpt><trkpt lat="43.40771237691474" lon="12.02343647671032"><ele>940.0</ele><time>2026-03-22T11:10:58.278Z</time></trkpt><trkpt lat="43.40777944459491" lon="12.023406835343264"><ele>940.0</ele><time>2026-03-22T11:10:59.275Z</time></trkpt><trkpt lat="43.407845020198245" lon="12.023384197142457"><ele>940.0</ele><time>2026-03-22T11:11:00.272Z</time></trkpt><trkpt lat="43.40796756934878" lon="12.023319463852522"><ele>940.0</ele><time>2026-03-22T11:11:02.274Z</time></trkpt><trkpt lat="43.40804117758549" lon="12.023271928235737"><ele>940.0</ele><time>2026-03-22T11:11:03.275Z</time></trkpt><trkpt lat="43.408146831628535" lon="12.023221250384523"><ele>940.0</ele><time>2026-03-22T11:11:04.266Z</time></trkpt><trkpt lat="43.408264116270736" lon="12.023166692674794"><ele>939.0</ele><time>2026-03-22T11:11:05.273Z</time></trkpt><trkpt lat="43.4083823053886" lon="12.0231151267312"><ele>938.0</ele><time>2026-03-22T11:11:06.273Z</time></trkpt><trkpt lat="43.40847468730633" lon="12.023074001810086"><ele>937.0</ele><time>2026-03-22T11:11:07.275Z</time></trkpt><trkpt lat="43.408538324348335" lon="12.023033897037758"><ele>936.0</ele><time>2026-03-22T11:11:08.268Z</time></trkpt><trkpt lat="43.408623031300166" lon="12.022970615440567"><ele>935.0</ele><time>2026-03-22T11:11:10.274Z</time></trkpt><trkpt lat="43.40871984715787" lon="12.022963867276596"><ele>935.0000000000001</ele><time>2026-03-22T11:11:12.271Z</time></trkpt><trkpt lat="43.40879055838139" lon="12.022937147536442"><ele>935.0</ele><time>2026-03-22T11:11:13.273Z</time></trkpt><trkpt lat="43.40885197378058" lon="12.022903377397576"><ele>935.0</ele><time>2026-03-22T11:11:14.274Z</time></trkpt><trkpt lat="43.40892054002704" lon="12.022831435328147"><ele>935.0</ele><time>2026-03-22T11:11:15.275Z</time></trkpt><trkpt lat="43.40899496805648" lon="12.022742752349211"><ele>935.0000000000001</ele><time>2026-03-22T11:11:16.275Z</time></trkpt><trkpt lat="43.40908300825568" lon="12.022641454699547"><ele>935.0</ele><time>2026-03-22T11:11:17.272Z</time></trkpt><trkpt lat="43.40915686211661" lon="12.022540636981043"><ele>933.4</ele><time>2026-03-22T11:11:18.272Z</time></trkpt><trkpt lat="43.409227408868915" lon="12.022444894668824"><ele>931.8</ele><time>2026-03-22T11:11:20.266Z</time></trkpt><trkpt lat="43.40926307687621" lon="12.022355305840039"><ele>930.2</ele><time>2026-03-22T11:11:21.268Z</time></trkpt><trkpt lat="43.40930781431565" lon="12.022251318977721"><ele>928.6</ele><time>2026-03-22T11:11:22.273Z</time></trkpt><trkpt lat="43.409375997649384" lon="12.022144352366313"><ele>927.0</ele><time>2026-03-22T11:11:23.274Z</time></trkpt><trkpt lat="43.40941803900783" lon="12.022033270437781"><ele>927.0</ele><time>2026-03-22T11:11:24.272Z</time></trkpt><trkpt lat="43.409445876917864" lon="12.021949816899948"><ele>927.0</ele><time>2026-03-22T11:11:25.273Z</time></trkpt><trkpt lat="43.409546417288695" lon="12.021865415590007"><ele>927.0</ele><time>2026-03-22T11:11:27.273Z</time></trkpt><trkpt lat="43.40961049884348" lon="12.021876418011292"><ele>927.0</ele><time>2026-03-22T11:11:28.266Z</time></trkpt><trkpt lat="43.40969743954328" lon="12.02190935689744"><ele>927.0</ele><time>2026-03-22T11:11:29.273Z</time></trkpt><trkpt lat="43.4098011782462" lon="12.021939594258995"><ele>927.0</ele><time>2026-03-22T11:11:30.273Z</time></trkpt><trkpt lat="43.40987776220158" lon="12.0219510726177"><ele>926.0</ele><time>2026-03-22T11:11:31.275Z</time></trkpt><trkpt lat="43.40996607644094" lon="12.021960452033902"><ele>925.0</ele><time>2026-03-22T11:11:32.267Z</time></trkpt><trkpt lat="43.41006812524836" lon="12.021975372338376"><ele>924.0</ele><time>2026-03-22T11:11:33.27Z</time></trkpt><trkpt lat="43.410157096538036" lon="12.021983306015718"><ele>923.0</ele><time>2026-03-22T11:11:34.273Z</time></trkpt><trkpt lat="43.41024349932945" lon="12.021982026157477"><ele>922.0</ele><time>2026-03-22T11:11:35.267Z</time></trkpt><trkpt lat="43.410335239272484" lon="12.021987548628456"><ele>921.9999999999999</ele><time>2026-03-22T11:11:36.267Z</time></trkpt><trkpt lat="43.41043656823544" lon="12.021990868685092"><ele>922.0</ele><time>2026-03-22T11:11:37.273Z</time></trkpt><trkpt lat="43.41051651873946" lon="12.02200969358639"><ele>922.0</ele><time>2026-03-22T11:11:38.273Z</time></trkpt><trkpt lat="43.410590279686616" lon="12.022041624859435"><ele>922.0</ele><time>2026-03-22T11:11:39.271Z</time></trkpt><trkpt lat="43.41065978078561" lon="12.022062392097743"><ele>921.9999999999999</ele><time>2026-03-22T11:11:40.266Z</time></trkpt><trkpt lat="43.41072262862173" lon="12.02207010661594"><ele>922.0</ele><time>2026-03-22T11:11:41.272Z</time></trkpt><trkpt lat="43.410796369161105" lon="12.022026736570314"><ele>922.8</ele><time>2026-03-22T11:11:42.272Z</time></trkpt><trkpt lat="43.41089120959657" lon="12.021932569878784"><ele>923.6</ele><time>2026-03-22T11:11:43.274Z</time></trkpt><trkpt lat="43.41100259219152" lon="12.021862276120455"><ele>924.3999999999999</ele><time>2026-03-22T11:11:44.269Z</time></trkpt><trkpt lat="43.41112139774463" lon="12.021843476214253"><ele>925.1999999999999</ele><time>2026-03-22T11:11:45.274Z</time></trkpt><trkpt lat="43.411203472320395" lon="12.021831636965908"><ele>926.0</ele><time>2026-03-22T11:11:46.273Z</time></trkpt><trkpt lat="43.411281030291" lon="12.021771520603329"><ele>926.5000000000001</ele><time>2026-03-22T11:11:47.273Z</time></trkpt><trkpt lat="43.41135405836803" lon="12.021692395556755"><ele>927.0</ele><time>2026-03-22T11:11:48.269Z</time></trkpt><trkpt lat="43.411434484869474" lon="12.021631022848817"><ele>927.5</ele><time>2026-03-22T11:11:49.273Z</time></trkpt><trkpt lat="43.411509056322316" lon="12.021605796572434"><ele>928.0</ele><time>2026-03-22T11:11:50.273Z</time></trkpt><trkpt lat="43.41159859933255" lon="12.021596626239445"><ele>928.5000000000001</ele><time>2026-03-22T11:11:51.274Z</time></trkpt><trkpt lat="43.4116878237984" lon="12.021564590228278"><ele>929.0</ele><time>2026-03-22T11:11:52.273Z</time></trkpt><trkpt lat="43.411768007670126" lon="12.021531190690396"><ele>929.4000000000001</ele><time>2026-03-22T11:11:53.273Z</time></trkpt><trkpt lat="43.411876456557856" lon="12.021527472184054"><ele>929.8000000000001</ele><time>2026-03-22T11:11:55.274Z</time></trkpt><trkpt lat="43.41192247000983" lon="12.021465596507557"><ele>930.1999999999999</ele><time>2026-03-22T11:11:56.272Z</time></trkpt><trkpt lat="43.41196713358575" lon="12.021371178741294"><ele>930.5999999999999</ele><time>2026-03-22T11:11:57.273Z</time></trkpt><trkpt lat="43.41200493466574" lon="12.021219933802193"><ele>931.0</ele><time>2026-03-22T11:11:58.274Z</time></trkpt><trkpt lat="43.41204728586296" lon="12.021086728548651"><ele>931.0</ele><time>2026-03-22T11:11:59.274Z</time></trkpt><trkpt lat="43.41209069713198" lon="12.020979817608133"><ele>930.9999999999999</ele><time>2026-03-22T11:12:00.271Z</time></trkpt><trkpt lat="43.4121219515812" lon="12.020871460590428"><ele>930.9999999999999</ele><time>2026-03-22T11:12:01.273Z</time></trkpt><trkpt lat="43.412137730595255" lon="12.020760502997401"><ele>931.0</ele><time>2026-03-22T11:12:02.272Z</time></trkpt><trkpt lat="43.41213450283281" lon="12.020629124458251"><ele>931.0</ele><time>2026-03-22T11:12:03.273Z</time></trkpt><trkpt lat="43.412126287274454" lon="12.020486575114251"><ele>929.1666666666666</ele><time>2026-03-22T11:12:04.272Z</time></trkpt><trkpt lat="43.412106465718395" lon="12.020371173836029"><ele>927.3333333333333</ele><time>2026-03-22T11:12:05.273Z</time></trkpt><trkpt lat="43.41208546878066" lon="12.020248555733874"><ele>925.5</ele><time>2026-03-22T11:12:06.274Z</time></trkpt><trkpt lat="43.4120655675062" lon="12.020145540711752"><ele>923.6666666666667</ele><time>2026-03-22T11:12:07.273Z</time></trkpt><trkpt lat="43.41204700813104" lon="12.020030170730946"><ele>921.8333333333334</ele><time>2026-03-22T11:12:08.272Z</time></trkpt><trkpt lat="43.412021781048686" lon="12.019929549604166"><ele>920.0</ele><time>2026-03-22T11:12:09.273Z</time></trkpt><trkpt lat="43.411999021009514" lon="12.019837566023465"><ele>918.8</ele><time>2026-03-22T11:12:10.275Z</time></trkpt><trkpt lat="43.411984605206506" lon="12.01973402025089"><ele>917.6</ele><time>2026-03-22T11:12:11.276Z</time></trkpt><trkpt lat="43.41202000298276" lon="12.019548361345093"><ele>916.4000000000001</ele><time>2026-03-22T11:12:13.272Z</time></trkpt><trkpt lat="43.412067852853205" lon="12.01948734423624"><ele>915.2</ele><time>2026-03-22T11:12:14.273Z</time></trkpt><trkpt lat="43.41214719167496" lon="12.019475076385527"><ele>914.0</ele><time>2026-03-22T11:12:15.272Z</time></trkpt><trkpt lat="43.412249617481024" lon="12.019469200964657"><ele>914.0</ele><time>2026-03-22T11:12:16.27Z</time></trkpt><trkpt lat="43.412372749492455" lon="12.019488249944347"><ele>914.0000000000001</ele><time>2026-03-22T11:12:17.272Z</time></trkpt><trkpt lat="43.41246728473381" lon="12.019493420164507"><ele>914.0000000000001</ele><time>2026-03-22T11:12:18.268Z</time></trkpt><trkpt lat="43.41253989099534" lon="12.019485831945076"><ele>914.0</ele><time>2026-03-22T11:12:19.274Z</time></trkpt><trkpt lat="43.41265669859552" lon="12.019573299257136"><ele>914.0</ele><time>2026-03-22T11:12:21.273Z</time></trkpt><trkpt lat="43.4127307972898" lon="12.019658406207537"><ele>914.0</ele><time>2026-03-22T11:12:22.272Z</time></trkpt><trkpt lat="43.4128097779501" lon="12.019735828388365"><ele>914.0000000000001</ele><time>2026-03-22T11:12:23.273Z</time></trkpt><trkpt lat="43.41290248305456" lon="12.019779026108734"><ele>914.0000000000001</ele><time>2026-03-22T11:12:24.265Z</time></trkpt><trkpt lat="43.41299570826081" lon="12.019839377614451"><ele>914.0</ele><time>2026-03-22T11:12:25.273Z</time></trkpt><trkpt lat="43.41307547438292" lon="12.019944029296415"><ele>914.0</ele><time>2026-03-22T11:12:26.272Z</time></trkpt><trkpt lat="43.41313664504428" lon="12.02004712001443"><ele>913.2</ele><time>2026-03-22T11:12:27.272Z</time></trkpt><trkpt lat="43.41319636560966" lon="12.020128142999084"><ele>912.4000000000001</ele><time>2026-03-22T11:12:28.273Z</time></trkpt><trkpt lat="43.41329241178401" lon="12.020243523421868"><ele>911.6</ele><time>2026-03-22T11:12:30.272Z</time></trkpt><trkpt lat="43.41335818491607" lon="12.02029155914267"><ele>910.8</ele><time>2026-03-22T11:12:31.273Z</time></trkpt><trkpt lat="43.413419823580895" lon="12.020347129033315"><ele>910.0</ele><time>2026-03-22T11:12:32.269Z</time></trkpt><trkpt lat="43.413511761108424" lon="12.02044238374182"><ele>910.0</ele><time>2026-03-22T11:12:34.274Z</time></trkpt><trkpt lat="43.41360963600401" lon="12.020362125554955"><ele>910.0</ele><time>2026-03-22T11:12:36.265Z</time></trkpt><trkpt lat="43.41364063728201" lon="12.02025871611087"><ele>910.0</ele><time>2026-03-22T11:12:37.273Z</time></trkpt><trkpt lat="43.413642731807215" lon="12.020126505745063"><ele>910.0</ele><time>2026-03-22T11:12:38.273Z</time></trkpt><trkpt lat="43.41363844179417" lon="12.020012254943444"><ele>910.0</ele><time>2026-03-22T11:12:39.272Z</time></trkpt><trkpt lat="43.41369330181011" lon="12.01987496767581"><ele>910.2</ele><time>2026-03-22T11:12:41.266Z</time></trkpt><trkpt lat="43.41375185752014" lon="12.019775417912383"><ele>910.4</ele><time>2026-03-22T11:12:42.271Z</time></trkpt><trkpt lat="43.41380518666881" lon="12.019659779124057"><ele>910.5999999999999</ele><time>2026-03-22T11:12:43.271Z</time></trkpt><trkpt lat="43.41386720427675" lon="12.019530466664191"><ele>910.8</ele><time>2026-03-22T11:12:44.268Z</time></trkpt><trkpt lat="43.41395233381074" lon="12.01940111913327"><ele>911.0</ele><time>2026-03-22T11:12:45.271Z</time></trkpt><trkpt lat="43.41403296644925" lon="12.019281935907232"><ele>911.0</ele><time>2026-03-22T11:12:46.266Z</time></trkpt><trkpt lat="43.41409734669115" lon="12.019178389216995"><ele>910.9999999999999</ele><time>2026-03-22T11:12:47.272Z</time></trkpt><trkpt lat="43.414154384610086" lon="12.019074785301873"><ele>910.9999999999999</ele><time>2026-03-22T11:12:48.265Z</time></trkpt><trkpt lat="43.414213911212165" lon="12.018982917332833"><ele>911.0</ele><time>2026-03-22T11:12:49.272Z</time></trkpt><trkpt lat="43.414280057101735" lon="12.018834430096852"><ele>911.0</ele><time>2026-03-22T11:12:51.274Z</time></trkpt><trkpt lat="43.414349601262835" lon="12.018747653979988"><ele>907.8</ele><time>2026-03-22T11:12:52.268Z</time></trkpt><trkpt lat="43.41442677908397" lon="12.018729278080674"><ele>904.5999999999999</ele><time>2026-03-22T11:12:53.272Z</time></trkpt><trkpt lat="43.41449276524801" lon="12.01874018150123"><ele>901.4</ele><time>2026-03-22T11:12:54.271Z</time></trkpt><trkpt lat="43.41462699849759" lon="12.018744262914486"><ele>898.2</ele><time>2026-03-22T11:12:55.27Z</time></trkpt><trkpt lat="43.41476091007242" lon="12.018786084127761"><ele>895.0</ele><time>2026-03-22T11:12:56.266Z</time></trkpt><trkpt lat="43.41490773636654" lon="12.01881318370164"><ele>894.0</ele><time>2026-03-22T11:12:57.271Z</time></trkpt><trkpt lat="43.415031334846276" lon="12.018825358851844"><ele>893.0</ele><time>2026-03-22T11:12:58.271Z</time></trkpt><trkpt lat="43.41512660954016" lon="12.018813834499925"><ele>892.0</ele><time>2026-03-22T11:12:59.272Z</time></trkpt><trkpt lat="43.41523146156317" lon="12.018774822989538"><ele>891.0</ele><time>2026-03-22T11:13:00.266Z</time></trkpt><trkpt lat="43.4153296130607" lon="12.018774026476159"><ele>890.0</ele><time>2026-03-22T11:13:01.265Z</time></trkpt><trkpt lat="43.41543433524938" lon="12.018759905617053"><ele>890.0</ele><time>2026-03-22T11:13:02.271Z</time></trkpt><trkpt lat="43.41552721204085" lon="12.018755945758652"><ele>890.0</ele><time>2026-03-22T11:13:03.269Z</time></trkpt><trkpt lat="43.41561993669115" lon="12.018812954567325"><ele>890.0</ele><time>2026-03-22T11:13:04.266Z</time></trkpt><trkpt lat="43.41568035886289" lon="12.018919850459458"><ele>890.0</ele><time>2026-03-22T11:13:05.272Z</time></trkpt><trkpt lat="43.41573398125314" lon="12.019013952085034"><ele>890.0</ele><time>2026-03-22T11:13:06.272Z</time></trkpt><trkpt lat="43.41580831515287" lon="12.01906401336875"><ele>890.0</ele><time>2026-03-22T11:13:07.269Z</time></trkpt><trkpt lat="43.41587248662739" lon="12.019107717685484"><ele>890.0</ele><time>2026-03-22T11:13:08.268Z</time></trkpt><trkpt lat="43.41595658476683" lon="12.01909745208119"><ele>890.0</ele><time>2026-03-22T11:13:10.272Z</time></trkpt><trkpt lat="43.41602047370167" lon="12.019133598401181"><ele>890.0</ele><time>2026-03-22T11:13:14.273Z</time></trkpt><trkpt lat="43.416086744195816" lon="12.019141245670577"><ele>890.0</ele><time>2026-03-22T11:13:17.272Z</time></trkpt><trkpt lat="43.41615543731273" lon="12.019147161101673"><ele>890.0</ele><time>2026-03-22T11:13:19.274Z</time></trkpt><trkpt lat="43.416225200853134" lon="12.019195169956479"><ele>890.0</ele><time>2026-03-22T11:13:22.266Z</time></trkpt><trkpt lat="43.41628864919191" lon="12.019176874317168"><ele>890.1666666666667</ele><time>2026-03-22T11:15:21.272Z</time></trkpt><trkpt lat="43.41635601965894" lon="12.019177234793233"><ele>890.3333333333334</ele><time>2026-03-22T11:16:26.272Z</time></trkpt><trkpt lat="43.41642991016331" lon="12.01916927994489"><ele>890.5</ele><time>2026-03-22T11:16:29.273Z</time></trkpt><trkpt lat="43.416543762523176" lon="12.01915281763117"><ele>890.6666666666667</ele><time>2026-03-22T11:17:09.274Z</time></trkpt><trkpt lat="43.41662678604475" lon="12.019116980214983"><ele>890.8333333333334</ele><time>2026-03-22T11:17:10.272Z</time></trkpt><trkpt lat="43.416718071059776" lon="12.019088533627375"><ele>891.0</ele><time>2026-03-22T11:17:11.274Z</time></trkpt><trkpt lat="43.41682559791526" lon="12.019005935098141"><ele>891.0</ele><time>2026-03-22T11:17:13.273Z</time></trkpt><trkpt lat="43.41685897988579" lon="12.018928257367675"><ele>890.9999999999999</ele><time>2026-03-22T11:17:14.274Z</time></trkpt><trkpt lat="43.416866181993704" lon="12.01882033337661"><ele>890.9999999999999</ele><time>2026-03-22T11:17:15.274Z</time></trkpt><trkpt lat="43.416878407992655" lon="12.0186574409181"><ele>891.0</ele><time>2026-03-22T11:17:17.273Z</time></trkpt><trkpt lat="43.41688357894213" lon="12.018550401152723"><ele>891.0</ele><time>2026-03-22T11:17:18.272Z</time></trkpt><trkpt lat="43.41691546303686" lon="12.018402744087123"><ele>891.0</ele><time>2026-03-22T11:17:20.267Z</time></trkpt><trkpt lat="43.417023073895656" lon="12.018368521909029"><ele>890.9999999999999</ele><time>2026-03-22T11:17:22.274Z</time></trkpt><trkpt lat="43.417086846730264" lon="12.018374334965442"><ele>890.9999999999999</ele><time>2026-03-22T11:17:23.274Z</time></trkpt><trkpt lat="43.417229305675015" lon="12.018298009082466"><ele>891.0</ele><time>2026-03-22T11:17:25.273Z</time></trkpt><trkpt lat="43.4173063524481" lon="12.018252692272032"><ele>891.0</ele><time>2026-03-22T11:17:26.274Z</time></trkpt><trkpt lat="43.41737025513191" lon="12.018284876416198"><ele>893.0</ele><time>2026-03-22T11:17:27.275Z</time></trkpt><trkpt lat="43.417471700363045" lon="12.018344573889216"><ele>894.9999999999999</ele><time>2026-03-22T11:17:29.274Z</time></trkpt><trkpt lat="43.417519622019476" lon="12.018402559164787"><ele>896.9999999999999</ele><time>2026-03-22T11:17:30.274Z</time></trkpt><trkpt lat="43.417579868089405" lon="12.018444761222877"><ele>899.0</ele><time>2026-03-22T11:17:31.274Z</time></trkpt><trkpt lat="43.41769216658438" lon="12.018481319439168"><ele>901.0</ele><time>2026-03-22T11:17:33.274Z</time></trkpt><trkpt lat="43.417776768621025" lon="12.018533942282145"><ele>901.0</ele><time>2026-03-22T11:17:35.274Z</time></trkpt><trkpt lat="43.41787667369837" lon="12.018566693663649"><ele>900.9999999999999</ele><time>2026-03-22T11:17:37.274Z</time></trkpt><trkpt lat="43.41797714331156" lon="12.018596598101285"><ele>900.9999999999999</ele><time>2026-03-22T11:17:39.274Z</time></trkpt><trkpt lat="43.418036198587174" lon="12.018639766382691"><ele>901.0</ele><time>2026-03-22T11:17:40.276Z</time></trkpt><trkpt lat="43.41814631477241" lon="12.018740897527035"><ele>901.0</ele><time>2026-03-22T11:17:42.276Z</time></trkpt><trkpt lat="43.418207612317225" lon="12.018779279449182"><ele>902.1666666666666</ele><time>2026-03-22T11:17:43.273Z</time></trkpt><trkpt lat="43.41832081912889" lon="12.018825915312215"><ele>903.3333333333333</ele><time>2026-03-22T11:17:45.274Z</time></trkpt><trkpt lat="43.41837849872131" lon="12.018890796247376"><ele>904.5</ele><time>2026-03-22T11:17:46.274Z</time></trkpt><trkpt lat="43.418437440407324" lon="12.018953600620975"><ele>905.6666666666667</ele><time>2026-03-22T11:17:47.274Z</time></trkpt><trkpt lat="43.41848867587311" lon="12.01901543098128"><ele>906.8333333333334</ele><time>2026-03-22T11:17:48.275Z</time></trkpt><trkpt lat="43.41854707669119" lon="12.019078627875697"><ele>908.0</ele><time>2026-03-22T11:17:49.273Z</time></trkpt><trkpt lat="43.41863780906369" lon="12.019112396796038"><ele>908.0</ele><time>2026-03-22T11:17:50.274Z</time></trkpt><trkpt lat="43.41874076779217" lon="12.019099613851877"><ele>908.0</ele><time>2026-03-22T11:17:51.274Z</time></trkpt><trkpt lat="43.41882046393374" lon="12.019048212669068"><ele>908.0</ele><time>2026-03-22T11:17:52.267Z</time></trkpt><trkpt lat="43.41890452012958" lon="12.01906201244054"><ele>908.0</ele><time>2026-03-22T11:17:53.273Z</time></trkpt><trkpt lat="43.418994214336806" lon="12.019090515910586"><ele>908.0</ele><time>2026-03-22T11:17:54.273Z</time></trkpt><trkpt lat="43.41907094720016" lon="12.019137040321386"><ele>909.0</ele><time>2026-03-22T11:17:55.273Z</time></trkpt><trkpt lat="43.41913572708394" lon="12.01918906582041"><ele>910.0</ele><time>2026-03-22T11:17:56.268Z</time></trkpt><trkpt lat="43.41921100328937" lon="12.019216508490755"><ele>911.0</ele><time>2026-03-22T11:17:57.273Z</time></trkpt><trkpt lat="43.419332919303834" lon="12.019233612454421"><ele>912.0</ele><time>2026-03-22T11:17:59.273Z</time></trkpt><trkpt lat="43.419405830061685" lon="12.019130597100872"><ele>913.0</ele><time>2026-03-22T11:18:01.268Z</time></trkpt><trkpt lat="43.41942920802646" lon="12.018978490392264"><ele>913.4</ele><time>2026-03-22T11:18:03.274Z</time></trkpt><trkpt lat="43.41951095048586" lon="12.018904892143519"><ele>913.8</ele><time>2026-03-22T11:18:05.272Z</time></trkpt><trkpt lat="43.4195917538004" lon="12.01882740409009"><ele>914.2</ele><time>2026-03-22T11:18:07.274Z</time></trkpt><trkpt lat="43.41967716310357" lon="12.018760068282026"><ele>914.6</ele><time>2026-03-22T11:18:09.274Z</time></trkpt><trkpt lat="43.41977220293979" lon="12.018684206089604"><ele>915.0</ele><time>2026-03-22T11:18:11.274Z</time></trkpt><trkpt lat="43.41982701042996" lon="12.018624846740494"><ele>917.0</ele><time>2026-03-22T11:18:12.275Z</time></trkpt><trkpt lat="43.41989356062939" lon="12.018563586420907"><ele>919.0</ele><time>2026-03-22T11:18:13.273Z</time></trkpt><trkpt lat="43.41995815784327" lon="12.018483265605536"><ele>921.0</ele><time>2026-03-22T11:18:14.274Z</time></trkpt><trkpt lat="43.42002594126795" lon="12.018406588001293"><ele>923.0</ele><time>2026-03-22T11:18:15.273Z</time></trkpt><trkpt lat="43.4200843786743" lon="12.01832982641082"><ele>925.0</ele><time>2026-03-22T11:18:16.273Z</time></trkpt><trkpt lat="43.42018768265959" lon="12.018294036465242"><ele>927.0</ele><time>2026-03-22T11:18:18.27Z</time></trkpt><trkpt lat="43.420331363721544" lon="12.018200268356567"><ele>927.0</ele><time>2026-03-22T11:18:20.27Z</time></trkpt><trkpt lat="43.420413894230876" lon="12.018136794644128"><ele>927.0</ele><time>2026-03-22T11:18:21.274Z</time></trkpt><trkpt lat="43.42047565292212" lon="12.018092179545409"><ele>927.0</ele><time>2026-03-22T11:18:22.278Z</time></trkpt><trkpt lat="43.420568897177695" lon="12.018037038368725"><ele>927.0</ele><time>2026-03-22T11:18:24.276Z</time></trkpt><trkpt lat="43.42063416243573" lon="12.018031169693929"><ele>927.0</ele><time>2026-03-22T11:18:26.274Z</time></trkpt><trkpt lat="43.42072086443792" lon="12.017986806623991"><ele>927.0</ele><time>2026-03-22T11:18:55.273Z</time></trkpt><trkpt lat="43.420780304494286" lon="12.017955539186369"><ele>926.0</ele><time>2026-03-22T11:18:56.274Z</time></trkpt><trkpt lat="43.4208350118675" lon="12.017912392443236"><ele>925.0</ele><time>2026-03-22T11:18:57.276Z</time></trkpt><trkpt lat="43.420901616981894" lon="12.017832503285861"><ele>924.0</ele><time>2026-03-22T11:18:59.274Z</time></trkpt><trkpt lat="43.42094634664081" lon="12.017721394406527"><ele>923.0</ele><time>2026-03-22T11:19:01.275Z</time></trkpt><trkpt lat="43.42105203885796" lon="12.017624801753534"><ele>922.0</ele><time>2026-03-22T11:19:03.273Z</time></trkpt><trkpt lat="43.42115940482143" lon="12.017573548746187"><ele>921.9999999999999</ele><time>2026-03-22T11:19:04.276Z</time></trkpt><trkpt lat="43.421237126023435" lon="12.01752590275861"><ele>922.0</ele><time>2026-03-22T11:19:05.272Z</time></trkpt><trkpt lat="43.42129994438322" lon="12.017448760802253"><ele>922.0</ele><time>2026-03-22T11:19:06.273Z</time></trkpt><trkpt lat="43.421334394224886" lon="12.017355301437536"><ele>922.0</ele><time>2026-03-22T11:19:07.272Z</time></trkpt><trkpt lat="43.42138934906428" lon="12.01728939361615"><ele>921.9999999999999</ele><time>2026-03-22T11:19:08.274Z</time></trkpt><trkpt lat="43.421448138685754" lon="12.017228879736244"><ele>922.0</ele><time>2026-03-22T11:19:09.273Z</time></trkpt><trkpt lat="43.42149745433521" lon="12.017171967574884"><ele>918.6</ele><time>2026-03-22T11:19:10.274Z</time></trkpt><trkpt lat="43.421534762622194" lon="12.017018054188851"><ele>915.2</ele><time>2026-03-22T11:19:12.266Z</time></trkpt><trkpt lat="43.42158075407146" lon="12.016850948814222"><ele>911.8</ele><time>2026-03-22T11:19:14.273Z</time></trkpt><trkpt lat="43.42163264189669" lon="12.016796933174673"><ele>908.4</ele><time>2026-03-22T11:19:17.272Z</time></trkpt><trkpt lat="43.42163177178795" lon="12.016884107606918"><ele>905.0</ele><time>2026-03-22T11:19:22.272Z</time></trkpt><trkpt lat="43.42154171591773" lon="12.016895104165439"><ele>905.0000000000001</ele><time>2026-03-22T11:19:24.275Z</time></trkpt><trkpt lat="43.4215069394328" lon="12.016807545184584"><ele>905.0</ele><time>2026-03-22T11:19:26.273Z</time></trkpt><trkpt lat="43.421451195559555" lon="12.01667197345872"><ele>905.0</ele><time>2026-03-22T11:19:28.272Z</time></trkpt><trkpt lat="43.4214211584219" lon="12.01659174766357"><ele>905.0</ele><time>2026-03-22T11:19:29.272Z</time></trkpt><trkpt lat="43.42140848323944" lon="12.016495558659555"><ele>905.0000000000001</ele><time>2026-03-22T11:19:30.275Z</time></trkpt><trkpt lat="43.42141587250961" lon="12.016404064377003"><ele>905.0</ele><time>2026-03-22T11:19:31.274Z</time></trkpt><trkpt lat="43.4214658926521" lon="12.016274492274867"><ele>905.6666666666667</ele><time>2026-03-22T11:19:33.273Z</time></trkpt><trkpt lat="43.421457731645454" lon="12.016111567399514"><ele>906.3333333333334</ele><time>2026-03-22T11:19:35.275Z</time></trkpt><trkpt lat="43.42141979121735" lon="12.016027903666005"><ele>907.0</ele><time>2026-03-22T11:19:36.275Z</time></trkpt><trkpt lat="43.421377679855034" lon="12.01594952091493"><ele>907.6666666666667</ele><time>2026-03-22T11:19:37.274Z</time></trkpt><trkpt lat="43.42134621648385" lon="12.015861311487797"><ele>908.3333333333334</ele><time>2026-03-22T11:19:38.273Z</time></trkpt><trkpt lat="43.421312654049935" lon="12.015759035694465"><ele>909.0</ele><time>2026-03-22T11:19:39.273Z</time></trkpt><trkpt lat="43.42127634717389" lon="12.015683279280536"><ele>906.6</ele><time>2026-03-22T11:19:40.274Z</time></trkpt><trkpt lat="43.42120664078791" lon="12.01559440602903"><ele>904.2</ele><time>2026-03-22T11:19:42.274Z</time></trkpt><trkpt lat="43.42115061195097" lon="12.015492555388189"><ele>901.8000000000001</ele><time>2026-03-22T11:19:44.276Z</time></trkpt><trkpt lat="43.42107572125333" lon="12.015351820137495"><ele>899.4000000000001</ele><time>2026-03-22T11:19:46.273Z</time></trkpt><trkpt lat="43.4210083016795" lon="12.015289025751873"><ele>897.0</ele><time>2026-03-22T11:19:47.275Z</time></trkpt><trkpt lat="43.42093888152622" lon="12.015231036597347"><ele>897.0</ele><time>2026-03-22T11:19:48.278Z</time></trkpt><trkpt lat="43.42082434793985" lon="12.015118911674447"><ele>897.0</ele><time>2026-03-22T11:19:50.274Z</time></trkpt><trkpt lat="43.42076068154251" lon="12.015017766148729"><ele>897.0</ele><time>2026-03-22T11:19:51.275Z</time></trkpt><trkpt lat="43.42070108922636" lon="12.014873516826569"><ele>897.0</ele><time>2026-03-22T11:19:52.269Z</time></trkpt><trkpt lat="43.420654699307" lon="12.014721152041743"><ele>896.8333333333334</ele><time>2026-03-22T11:19:53.273Z</time></trkpt><trkpt lat="43.420615006459094" lon="12.014604600119428"><ele>896.6666666666667</ele><time>2026-03-22T11:19:54.273Z</time></trkpt><trkpt lat="43.42059464120599" lon="12.014504008861408"><ele>896.5</ele><time>2026-03-22T11:19:55.27Z</time></trkpt><trkpt lat="43.420581966099036" lon="12.014401674140826"><ele>896.3333333333334</ele><time>2026-03-22T11:19:56.274Z</time></trkpt><trkpt lat="43.420566061182974" lon="12.014315666549326"><ele>896.1666666666667</ele><time>2026-03-22T11:19:57.273Z</time></trkpt><trkpt lat="43.42054425723385" lon="12.014225291612108"><ele>896.0</ele><time>2026-03-22T11:19:58.275Z</time></trkpt><trkpt lat="43.420523470183745" lon="12.014117727920903"><ele>896.0000000000001</ele><time>2026-03-22T11:19:59.274Z</time></trkpt><trkpt lat="43.42051385103496" lon="12.013982786347633"><ele>896.0</ele><time>2026-03-22T11:20:00.267Z</time></trkpt><trkpt lat="43.42050029378033" lon="12.013872926589027"><ele>896.0</ele><time>2026-03-22T11:20:01.275Z</time></trkpt><trkpt lat="43.42047500446066" lon="12.013777055199647"><ele>896.0</ele><time>2026-03-22T11:20:02.274Z</time></trkpt><trkpt lat="43.42045073012219" lon="12.013677334205047"><ele>896.0000000000001</ele><time>2026-03-22T11:20:03.273Z</time></trkpt><trkpt lat="43.42043791993096" lon="12.013552108113558"><ele>896.0</ele><time>2026-03-22T11:20:04.276Z</time></trkpt><trkpt lat="43.420399650923734" lon="12.013397112615815"><ele>892.8333333333334</ele><time>2026-03-22T11:20:05.274Z</time></trkpt><trkpt lat="43.42035395479023" lon="12.013264300136234"><ele>889.6666666666667</ele><time>2026-03-22T11:20:06.272Z</time></trkpt><trkpt lat="43.42030875000609" lon="12.013155273022637"><ele>886.5</ele><time>2026-03-22T11:20:07.274Z</time></trkpt><trkpt lat="43.420284599932096" lon="12.013045301142768"><ele>883.3333333333333</ele><time>2026-03-22T11:20:08.274Z</time></trkpt><trkpt lat="43.4202459135023" lon="12.012942277428435"><ele>880.1666666666666</ele><time>2026-03-22T11:20:09.274Z</time></trkpt><trkpt lat="43.420242532874546" lon="12.012843681864487"><ele>877.0</ele><time>2026-03-22T11:20:10.275Z</time></trkpt><trkpt lat="43.420276013340725" lon="12.012719793226424"><ele>877.0</ele><time>2026-03-22T11:20:11.278Z</time></trkpt><trkpt lat="43.42033355655161" lon="12.012601245514219"><ele>877.0</ele><time>2026-03-22T11:20:12.269Z</time></trkpt><trkpt lat="43.42037121332842" lon="12.01248017047803"><ele>877.0</ele><time>2026-03-22T11:20:13.274Z</time></trkpt><trkpt lat="43.420384264307806" lon="12.012349179426504"><ele>877.0</ele><time>2026-03-22T11:20:14.273Z</time></trkpt><trkpt lat="43.42038726955404" lon="12.012179801237998"><ele>877.0</ele><time>2026-03-22T11:20:15.273Z</time></trkpt><trkpt lat="43.420379870955195" lon="12.011996556875534"><ele>876.75</ele><time>2026-03-22T11:20:16.273Z</time></trkpt><trkpt lat="43.42037043978399" lon="12.011811110497371"><ele>876.5</ele><time>2026-03-22T11:20:17.274Z</time></trkpt><trkpt lat="43.42035053302823" lon="12.01166060233117"><ele>876.25</ele><time>2026-03-22T11:20:18.274Z</time></trkpt><trkpt lat="43.420323179653295" lon="12.01150885371229"><ele>876.0</ele><time>2026-03-22T11:20:19.276Z</time></trkpt><trkpt lat="43.42030590016038" lon="12.011355390867228"><ele>876.0</ele><time>2026-03-22T11:20:20.278Z</time></trkpt><trkpt lat="43.42028660966346" lon="12.011220180760949"><ele>876.0</ele><time>2026-03-22T11:20:21.273Z</time></trkpt><trkpt lat="43.42025313698723" lon="12.011087581750758"><ele>876.0</ele><time>2026-03-22T11:20:22.273Z</time></trkpt><trkpt lat="43.420226407581154" lon="12.010914762505006"><ele>876.0</ele><time>2026-03-22T11:20:23.275Z</time></trkpt><trkpt lat="43.420207895115" lon="12.01073322281373"><ele>876.0</ele><time>2026-03-22T11:20:24.276Z</time></trkpt><trkpt lat="43.42018004352519" lon="12.010578134159989"><ele>875.9999999999999</ele><time>2026-03-22T11:20:25.275Z</time></trkpt><trkpt lat="43.420152753319286" lon="12.010438592635476"><ele>875.9999999999999</ele><time>2026-03-22T11:20:26.274Z</time></trkpt><trkpt lat="43.42013370609728" lon="12.01031268710532"><ele>876.0</ele><time>2026-03-22T11:20:27.276Z</time></trkpt><trkpt lat="43.42010899829252" lon="12.010191965896118"><ele>876.0</ele><time>2026-03-22T11:20:28.268Z</time></trkpt><trkpt lat="43.42004730716535" lon="12.010064321671491"><ele>875.8</ele><time>2026-03-22T11:20:29.276Z</time></trkpt><trkpt lat="43.41998046007971" lon="12.009919825490773"><ele>875.5999999999999</ele><time>2026-03-22T11:20:30.275Z</time></trkpt><trkpt lat="43.41992676712452" lon="12.009782658853448"><ele>875.4</ele><time>2026-03-22T11:20:31.275Z</time></trkpt><trkpt lat="43.419880525957865" lon="12.00966496317463"><ele>875.2</ele><time>2026-03-22T11:20:32.274Z</time></trkpt><trkpt lat="43.419825230529554" lon="12.009558841097054"><ele>875.0</ele><time>2026-03-22T11:20:33.276Z</time></trkpt><trkpt lat="43.41975443968979" lon="12.009485203916412"><ele>875.0000000000001</ele><time>2026-03-22T11:20:34.274Z</time></trkpt><trkpt lat="43.41967460001475" lon="12.009415070127766"><ele>875.0</ele><time>2026-03-22T11:20:35.275Z</time></trkpt><trkpt lat="43.41961153582157" lon="12.009344629300937"><ele>875.0</ele><time>2026-03-22T11:20:36.275Z</time></trkpt><trkpt lat="43.41955939327271" lon="12.009256164513356"><ele>875.0</ele><time>2026-03-22T11:20:37.27Z</time></trkpt><trkpt lat="43.419517728198876" lon="12.00916905434687"><ele>875.0000000000001</ele><time>2026-03-22T11:20:38.274Z</time></trkpt><trkpt lat="43.41948018864669" lon="12.00908498167082"><ele>875.0</ele><time>2026-03-22T11:20:39.275Z</time></trkpt><trkpt lat="43.41952562504534" lon="12.008953533003512"><ele>874.1666666666667</ele><time>2026-03-22T11:20:41.275Z</time></trkpt><trkpt lat="43.419509370054115" lon="12.008842338778988"><ele>873.3333333333334</ele><time>2026-03-22T11:23:20.268Z</time></trkpt><trkpt lat="43.41951933722085" lon="12.00875469700091"><ele>872.5</ele><time>2026-03-22T11:23:21.274Z</time></trkpt><trkpt lat="43.4195525801739" lon="12.008670781486142"><ele>871.6666666666667</ele><time>2026-03-22T11:23:22.277Z</time></trkpt><trkpt lat="43.41957672712683" lon="12.008563180523742"><ele>870.8333333333334</ele><time>2026-03-22T11:23:23.274Z</time></trkpt><trkpt lat="43.41958996659595" lon="12.008450719653831"><ele>870.0</ele><time>2026-03-22T11:23:24.275Z</time></trkpt><trkpt lat="43.41957860074854" lon="12.008348054844642"><ele>871.2</ele><time>2026-03-22T11:23:25.273Z</time></trkpt><trkpt lat="43.41952879183233" lon="12.008209110833535"><ele>872.4</ele><time>2026-03-22T11:23:27.273Z</time></trkpt><trkpt lat="43.41947657572844" lon="12.008106459347589"><ele>873.5999999999999</ele><time>2026-03-22T11:23:28.276Z</time></trkpt><trkpt lat="43.419435788493175" lon="12.008003553361183"><ele>874.8</ele><time>2026-03-22T11:23:29.274Z</time></trkpt><trkpt lat="43.41939017176209" lon="12.007879217263064"><ele>876.0</ele><time>2026-03-22T11:23:30.274Z</time></trkpt><trkpt lat="43.41935190667516" lon="12.0078060103406"><ele>876.0</ele><time>2026-03-22T11:23:31.274Z</time></trkpt><trkpt lat="43.419297104710175" lon="12.007701770563349"><ele>876.0</ele><time>2026-03-22T11:23:32.275Z</time></trkpt><trkpt lat="43.41925420303622" lon="12.00762719723994"><ele>876.0</ele><time>2026-03-22T11:23:33.275Z</time></trkpt><trkpt lat="43.41921632204979" lon="12.007541895794073"><ele>876.0</ele><time>2026-03-22T11:23:34.275Z</time></trkpt><trkpt lat="43.419175723604006" lon="12.007465143988476"><ele>876.0</ele><time>2026-03-22T11:23:35.275Z</time></trkpt><trkpt lat="43.41908887134556" lon="12.00736154009972"><ele>876.0</ele><time>2026-03-22T11:23:37.274Z</time></trkpt><trkpt lat="43.41903284604446" lon="12.007307270828342"><ele>874.3333333333334</ele><time>2026-03-22T11:23:38.275Z</time></trkpt><trkpt lat="43.418984075276036" lon="12.007230584729998"><ele>872.6666666666667</ele><time>2026-03-22T11:23:39.274Z</time></trkpt><trkpt lat="43.4189505758997" lon="12.007145034982992"><ele>871.0</ele><time>2026-03-22T11:23:40.276Z</time></trkpt><trkpt lat="43.41895689480678" lon="12.006973779783806"><ele>869.3333333333334</ele><time>2026-03-22T11:23:42.273Z</time></trkpt><trkpt lat="43.418959067737255" lon="12.006874132075936"><ele>867.6666666666667</ele><time>2026-03-22T11:23:43.273Z</time></trkpt><trkpt lat="43.41896207588849" lon="12.00678517036563"><ele>866.0</ele><time>2026-03-22T11:23:44.269Z</time></trkpt><trkpt lat="43.41896465567152" lon="12.006686313900246"><ele>864.0</ele><time>2026-03-22T11:23:45.273Z</time></trkpt><trkpt lat="43.418985422206994" lon="12.006520255706002"><ele>861.9999999999999</ele><time>2026-03-22T11:23:47.273Z</time></trkpt><trkpt lat="43.41900454336265" lon="12.006366693227859"><ele>859.9999999999999</ele><time>2026-03-22T11:23:49.272Z</time></trkpt><trkpt lat="43.41907888759466" lon="12.006285446905505"><ele>858.0</ele><time>2026-03-22T11:23:51.273Z</time></trkpt><trkpt lat="43.41914270900929" lon="12.006247260589083"><ele>856.0</ele><time>2026-03-22T11:23:52.274Z</time></trkpt><trkpt lat="43.41922275933935" lon="12.006197553811397"><ele>855.9999999999999</ele><time>2026-03-22T11:23:53.272Z</time></trkpt><trkpt lat="43.41929614791481" lon="12.006129532727043"><ele>856.0</ele><time>2026-03-22T11:23:54.273Z</time></trkpt><trkpt lat="43.41936861155353" lon="12.00605895739306"><ele>856.0</ele><time>2026-03-22T11:23:55.272Z</time></trkpt><trkpt lat="43.41944252795006" lon="12.00600254667275"><ele>856.0</ele><time>2026-03-22T11:23:56.267Z</time></trkpt><trkpt lat="43.41952176248543" lon="12.005990124835112"><ele>855.9999999999999</ele><time>2026-03-22T11:23:57.272Z</time></trkpt><trkpt lat="43.41959777647039" lon="12.005965588663296"><ele>856.0</ele><time>2026-03-22T11:23:58.272Z</time></trkpt><trkpt lat="43.41966149986279" lon="12.005916711877784"><ele>855.4285714285714</ele><time>2026-03-22T11:23:59.272Z</time></trkpt><trkpt lat="43.41971807410628" lon="12.005828418339044"><ele>854.8571428571429</ele><time>2026-03-22T11:24:00.275Z</time></trkpt><trkpt lat="43.419761623014296" lon="12.00575607591234"><ele>854.2857142857142</ele><time>2026-03-22T11:24:01.272Z</time></trkpt><trkpt lat="43.41981149200463" lon="12.005699210151672"><ele>853.7142857142858</ele><time>2026-03-22T11:24:02.272Z</time></trkpt><trkpt lat="43.41987825330855" lon="12.005654522166967"><ele>853.1428571428571</ele><time>2026-03-22T11:24:03.273Z</time></trkpt><trkpt lat="43.41994646780156" lon="12.005614867163247"><ele>852.5714285714286</ele><time>2026-03-22T11:24:04.268Z</time></trkpt><trkpt lat="43.42000885836859" lon="12.005561016440357"><ele>852.0</ele><time>2026-03-22T11:24:05.273Z</time></trkpt><trkpt lat="43.42006184000954" lon="12.005484543691143"><ele>852.0</ele><time>2026-03-22T11:24:06.274Z</time></trkpt><trkpt lat="43.420132585228906" lon="12.005332981656283"><ele>852.0</ele><time>2026-03-22T11:24:08.268Z</time></trkpt><trkpt lat="43.42015600366577" lon="12.005224821365115"><ele>852.0</ele><time>2026-03-22T11:24:09.273Z</time></trkpt><trkpt lat="43.42016694194725" lon="12.00512179098151"><ele>852.0</ele><time>2026-03-22T11:24:10.273Z</time></trkpt><trkpt lat="43.42017945137626" lon="12.005036693838875"><ele>852.0</ele><time>2026-03-22T11:24:11.274Z</time></trkpt><trkpt lat="43.420230027516645" lon="12.004877308959236"><ele>850.4000000000001</ele><time>2026-03-22T11:24:13.274Z</time></trkpt><trkpt lat="43.42027346094937" lon="12.00474185149242"><ele>848.8000000000001</ele><time>2026-03-22T11:24:15.273Z</time></trkpt><trkpt lat="43.42030809154317" lon="12.004615182353367"><ele>847.2</ele><time>2026-03-22T11:24:17.272Z</time></trkpt><trkpt lat="43.420363217045995" lon="12.004513191062847"><ele>845.6</ele><time>2026-03-22T11:24:19.273Z</time></trkpt><trkpt lat="43.42042094918836" lon="12.00442059779878"><ele>844.0</ele><time>2026-03-22T11:24:21.266Z</time></trkpt><trkpt lat="43.420408683586025" lon="12.004318305881549"><ele>844.0</ele><time>2026-03-22T11:24:23.273Z</time></trkpt><trkpt lat="43.420343140571674" lon="12.00419883438503"><ele>844.0</ele><time>2026-03-22T11:24:25.273Z</time></trkpt><trkpt lat="43.42026596398971" lon="12.004079443957197"><ele>844.0</ele><time>2026-03-22T11:24:27.271Z</time></trkpt><trkpt lat="43.420226370311475" lon="12.003998422314202"><ele>844.0</ele><time>2026-03-22T11:24:28.267Z</time></trkpt><trkpt lat="43.42019007022885" lon="12.00391799933034"><ele>844.0</ele><time>2026-03-22T11:24:29.272Z</time></trkpt><trkpt lat="43.42011954604676" lon="12.003806647586856"><ele>841.8000000000001</ele><time>2026-03-22T11:24:31.273Z</time></trkpt><trkpt lat="43.420047692363646" lon="12.003716486517641"><ele>839.6</ele><time>2026-03-22T11:24:33.273Z</time></trkpt><trkpt lat="43.42002902059564" lon="12.003575124906371"><ele>837.4</ele><time>2026-03-22T11:24:35.273Z</time></trkpt><trkpt lat="43.42005828410884" lon="12.003484448519666"><ele>835.2</ele><time>2026-03-22T11:24:36.268Z</time></trkpt><trkpt lat="43.420100552455345" lon="12.003343067320834"><ele>833.0</ele><time>2026-03-22T11:24:38.276Z</time></trkpt><trkpt lat="43.42017225934748" lon="12.00318509716253"><ele>830.5000000000001</ele><time>2026-03-22T11:24:40.275Z</time></trkpt><trkpt lat="43.42021602404613" lon="12.003117598681438"><ele>828.0</ele><time>2026-03-22T11:24:41.267Z</time></trkpt><trkpt lat="43.42028425381072" lon="12.003029460038023"><ele>825.5</ele><time>2026-03-22T11:24:43.273Z</time></trkpt><trkpt lat="43.42031585276569" lon="12.002925352670458"><ele>823.0</ele><time>2026-03-22T11:24:45.273Z</time></trkpt><trkpt lat="43.42034442335801" lon="12.002773035592261"><ele>820.5000000000001</ele><time>2026-03-22T11:24:47.273Z</time></trkpt><trkpt lat="43.42036090328747" lon="12.00265727914789"><ele>818.0</ele><time>2026-03-22T11:24:49.273Z</time></trkpt><trkpt lat="43.420396084594415" lon="12.002545789975771"><ele>815.2</ele><time>2026-03-22T11:24:51.273Z</time></trkpt><trkpt lat="43.420396801181326" lon="12.002405029577057"><ele>812.4</ele><time>2026-03-22T11:24:54.274Z</time></trkpt><trkpt lat="43.42048518382615" lon="12.002306778504932"><ele>809.6</ele><time>2026-03-22T11:24:56.274Z</time></trkpt><trkpt lat="43.4205432290948" lon="12.002255966356117"><ele>806.8000000000001</ele><time>2026-03-22T11:24:57.274Z</time></trkpt><trkpt lat="43.42057795052581" lon="12.00212149182082"><ele>804.0</ele><time>2026-03-22T11:24:59.273Z</time></trkpt><trkpt lat="43.4204778598481" lon="12.002017830107109"><ele>804.0</ele><time>2026-03-22T11:25:01.273Z</time></trkpt><trkpt lat="43.4203672803422" lon="12.002004568854744"><ele>804.0</ele><time>2026-03-22T11:25:03.273Z</time></trkpt><trkpt lat="43.42027184359676" lon="12.002027264483456"><ele>804.0</ele><time>2026-03-22T11:25:05.273Z</time></trkpt><trkpt lat="43.42020638816259" lon="12.00204261748922"><ele>804.0</ele><time>2026-03-22T11:25:07.273Z</time></trkpt><trkpt lat="43.420108122323796" lon="12.002002412163753"><ele>804.0</ele><time>2026-03-22T11:25:09.274Z</time></trkpt><trkpt lat="43.4200449859104" lon="12.001958792333037"><ele>804.0</ele><time>2026-03-22T11:25:10.272Z</time></trkpt><trkpt lat="43.41993212886399" lon="12.001913329658564"><ele>804.0</ele><time>2026-03-22T11:25:12.268Z</time></trkpt><trkpt lat="43.41986470452925" lon="12.001915597329964"><ele>804.0</ele><time>2026-03-22T11:25:13.273Z</time></trkpt><trkpt lat="43.419797105783225" lon="12.001929347878654"><ele>804.0</ele><time>2026-03-22T11:25:14.272Z</time></trkpt><trkpt lat="43.41972800050802" lon="12.00194322291986"><ele>804.0</ele><time>2026-03-22T11:25:15.273Z</time></trkpt><trkpt lat="43.41964940438254" lon="12.00192859594872"><ele>804.0</ele><time>2026-03-22T11:25:16.274Z</time></trkpt><trkpt lat="43.4195444978809" lon="12.001932518998519"><ele>804.0</ele><time>2026-03-22T11:25:18.273Z</time></trkpt><trkpt lat="43.419440538137714" lon="12.001911991035975"><ele>801.4000000000001</ele><time>2026-03-22T11:25:21.273Z</time></trkpt><trkpt lat="43.419472542918236" lon="12.00177849312991"><ele>798.8</ele><time>2026-03-22T11:25:23.272Z</time></trkpt><trkpt lat="43.41951793279846" lon="12.001666815641235"><ele>796.2</ele><time>2026-03-22T11:25:24.274Z</time></trkpt><trkpt lat="43.41956671724302" lon="12.001557761380653"><ele>793.5999999999999</ele><time>2026-03-22T11:25:25.274Z</time></trkpt><trkpt lat="43.41960673034026" lon="12.001469683791418"><ele>791.0</ele><time>2026-03-22T11:25:26.273Z</time></trkpt><trkpt lat="43.41964864799564" lon="12.001301518069383"><ele>791.0000000000001</ele><time>2026-03-22T11:25:28.268Z</time></trkpt><trkpt lat="43.419654309200574" lon="12.00121374820631"><ele>791.0</ele><time>2026-03-22T11:25:29.271Z</time></trkpt><trkpt lat="43.41967477469583" lon="12.001119815586993"><ele>791.0</ele><time>2026-03-22T11:25:30.272Z</time></trkpt><trkpt lat="43.41970427588129" lon="12.001012059517839"><ele>791.0</ele><time>2026-03-22T11:25:31.273Z</time></trkpt><trkpt lat="43.41973088375639" lon="12.00091394205962"><ele>791.0000000000001</ele><time>2026-03-22T11:25:32.269Z</time></trkpt><trkpt lat="43.41976073897331" lon="12.000826238461153"><ele>791.0</ele><time>2026-03-22T11:25:33.274Z</time></trkpt><trkpt lat="43.41980462671342" lon="12.00069955207783"><ele>788.4</ele><time>2026-03-22T11:25:35.272Z</time></trkpt><trkpt lat="43.41983824347873" lon="12.00059317338675"><ele>785.8</ele><time>2026-03-22T11:25:37.273Z</time></trkpt><trkpt lat="43.41990490198042" lon="12.000458860288807"><ele>783.1999999999999</ele><time>2026-03-22T11:25:39.272Z</time></trkpt><trkpt lat="43.4199423889221" lon="12.000366674291065"><ele>780.5999999999999</ele><time>2026-03-22T11:25:40.268Z</time></trkpt><trkpt lat="43.42001422186387" lon="12.000237452582681"><ele>778.0</ele><time>2026-03-22T11:25:42.273Z</time></trkpt><trkpt lat="43.42005960614469" lon="12.00010867654432"><ele>778.0</ele><time>2026-03-22T11:25:44.273Z</time></trkpt><trkpt lat="43.42009849658693" lon="11.999963459284864"><ele>778.0</ele><time>2026-03-22T11:25:46.274Z</time></trkpt><trkpt lat="43.42013154897901" lon="11.999824398322485"><ele>778.0</ele><time>2026-03-22T11:25:48.267Z</time></trkpt><trkpt lat="43.42014528456942" lon="11.999683012610648"><ele>778.0</ele><time>2026-03-22T11:25:50.273Z</time></trkpt><trkpt lat="43.42010161956615" lon="11.99955192416383"><ele>778.0</ele><time>2026-03-22T11:25:52.274Z</time></trkpt><trkpt lat="43.420052902944086" lon="11.999483367477746"><ele>778.0</ele><time>2026-03-22T11:25:53.273Z</time></trkpt><trkpt lat="43.419984095585114" lon="11.99943810489791"><ele>778.0</ele><time>2026-03-22T11:25:54.274Z</time></trkpt><trkpt lat="43.419921920497764" lon="11.99938833089651"><ele>778.0</ele><time>2026-03-22T11:25:55.272Z</time></trkpt><trkpt lat="43.41980742294191" lon="11.999286370718737"><ele>778.0</ele><time>2026-03-22T11:25:57.273Z</time></trkpt><trkpt lat="43.4197511438622" lon="11.999211795405698"><ele>778.0</ele><time>2026-03-22T11:25:58.273Z</time></trkpt><trkpt lat="43.4196655530037" lon="11.999096879168766"><ele>774.8333333333333</ele><time>2026-03-22T11:26:00.274Z</time></trkpt><trkpt lat="43.4195440648208" lon="11.99906405366384"><ele>771.6666666666666</ele><time>2026-03-22T11:26:02.273Z</time></trkpt><trkpt lat="43.41947253098109" lon="11.999052891718405"><ele>768.5</ele><time>2026-03-22T11:26:03.273Z</time></trkpt><trkpt lat="43.41942430388446" lon="11.998975733421691"><ele>765.3333333333333</ele><time>2026-03-22T11:26:05.273Z</time></trkpt><trkpt lat="43.419371029879706" lon="11.998891753350941"><ele>762.1666666666666</ele><time>2026-03-22T11:26:07.273Z</time></trkpt><trkpt lat="43.419320796164044" lon="11.998820616198827"><ele>759.0</ele><time>2026-03-22T11:26:08.274Z</time></trkpt><trkpt lat="43.4192778101102" lon="11.998756976675343"><ele>759.0</ele><time>2026-03-22T11:26:09.274Z</time></trkpt><trkpt lat="43.41919494847912" lon="11.998647405712697"><ele>759.0</ele><time>2026-03-22T11:26:11.272Z</time></trkpt><trkpt lat="43.419120841054145" lon="11.9985588755483"><ele>759.0</ele><time>2026-03-22T11:26:13.273Z</time></trkpt><trkpt lat="43.419075244634286" lon="11.99845410429601"><ele>759.0</ele><time>2026-03-22T11:26:15.272Z</time></trkpt><trkpt lat="43.41902329617202" lon="11.998301295582289"><ele>759.0</ele><time>2026-03-22T11:26:17.272Z</time></trkpt><trkpt lat="43.419020533836694" lon="11.998120810499493"><ele>757.8333333333334</ele><time>2026-03-22T11:26:19.273Z</time></trkpt><trkpt lat="43.41902809655096" lon="11.998005740807619"><ele>756.6666666666666</ele><time>2026-03-22T11:26:20.268Z</time></trkpt><trkpt lat="43.419023961235844" lon="11.997893760544397"><ele>755.5</ele><time>2026-03-22T11:26:21.266Z</time></trkpt><trkpt lat="43.4190183339209" lon="11.997789476486656"><ele>754.3333333333333</ele><time>2026-03-22T11:26:22.273Z</time></trkpt><trkpt lat="43.41903419842412" lon="11.997681048567555"><ele>753.1666666666666</ele><time>2026-03-22T11:26:23.272Z</time></trkpt><trkpt lat="43.41904655043882" lon="11.99753161550391"><ele>752.0</ele><time>2026-03-22T11:26:24.276Z</time></trkpt><trkpt lat="43.41905787471314" lon="11.997406283954675"><ele>750.5714285714286</ele><time>2026-03-22T11:26:25.273Z</time></trkpt><trkpt lat="43.41905316498527" lon="11.997296174126225"><ele>749.1428571428571</ele><time>2026-03-22T11:26:26.272Z</time></trkpt><trkpt lat="43.419055346127244" lon="11.997177730934283"><ele>747.7142857142858</ele><time>2026-03-22T11:26:27.274Z</time></trkpt><trkpt lat="43.41905942216135" lon="11.997073749927793"><ele>746.2857142857142</ele><time>2026-03-22T11:26:28.273Z</time></trkpt><trkpt lat="43.41902678923866" lon="11.996994504469923"><ele>744.8571428571429</ele><time>2026-03-22T11:26:29.272Z</time></trkpt><trkpt lat="43.418979894297436" lon="11.99692217810776"><ele>743.4285714285714</ele><time>2026-03-22T11:26:30.272Z</time></trkpt><trkpt lat="43.41895846818009" lon="11.996835998687352"><ele>742.0</ele><time>2026-03-22T11:26:31.273Z</time></trkpt><trkpt lat="43.41894495415903" lon="11.996751098901525"><ele>740.8571428571429</ele><time>2026-03-22T11:26:32.275Z</time></trkpt><trkpt lat="43.41892042785508" lon="11.996660717369707"><ele>739.7142857142858</ele><time>2026-03-22T11:26:33.273Z</time></trkpt><trkpt lat="43.41886892709508" lon="11.996568223625324"><ele>738.5714285714286</ele><time>2026-03-22T11:26:34.273Z</time></trkpt><trkpt lat="43.418825197208896" lon="11.996490112807551"><ele>737.4285714285714</ele><time>2026-03-22T11:26:35.268Z</time></trkpt><trkpt lat="43.41878785787247" lon="11.9964011777484"><ele>736.2857142857143</ele><time>2026-03-22T11:26:36.267Z</time></trkpt><trkpt lat="43.41876324496284" lon="11.9963066075831"><ele>735.1428571428571</ele><time>2026-03-22T11:26:37.273Z</time></trkpt><trkpt lat="43.41873932993686" lon="11.99621806210102"><ele>734.0</ele><time>2026-03-22T11:26:38.275Z</time></trkpt><trkpt lat="43.41871142554145" lon="11.99608435765621"><ele>731.3333333333333</ele><time>2026-03-22T11:26:39.272Z</time></trkpt><trkpt lat="43.41869182872153" lon="11.995980318800825"><ele>728.6666666666666</ele><time>2026-03-22T11:26:40.268Z</time></trkpt><trkpt lat="43.41867175282801" lon="11.995867807456378"><ele>726.0</ele><time>2026-03-22T11:26:41.272Z</time></trkpt><trkpt lat="43.41866345562794" lon="11.995779224744323"><ele>723.3333333333334</ele><time>2026-03-22T11:26:42.273Z</time></trkpt><trkpt lat="43.41867056833033" lon="11.995611868472832"><ele>720.6666666666667</ele><time>2026-03-22T11:26:44.274Z</time></trkpt><trkpt lat="43.4187067259714" lon="11.995522722512124"><ele>718.0</ele><time>2026-03-22T11:26:45.268Z</time></trkpt><trkpt lat="43.41875657716647" lon="11.99545469462729"><ele>719.0</ele><time>2026-03-22T11:26:46.273Z</time></trkpt><trkpt lat="43.41882452641217" lon="11.995401769454867"><ele>720.0</ele><time>2026-03-22T11:26:47.272Z</time></trkpt><trkpt lat="43.418899299001296" lon="11.995364943193433"><ele>721.0</ele><time>2026-03-22T11:26:48.266Z</time></trkpt><trkpt lat="43.41898891727791" lon="11.995324503651629"><ele>722.0</ele><time>2026-03-22T11:26:49.272Z</time></trkpt><trkpt lat="43.41909785823005" lon="11.995256456728224"><ele>723.0</ele><time>2026-03-22T11:26:51.271Z</time></trkpt><trkpt lat="43.41916338790481" lon="11.995185875548556"><ele>723.0</ele><time>2026-03-22T11:26:53.271Z</time></trkpt><trkpt lat="43.419200304860034" lon="11.995103291424671"><ele>723.0</ele><time>2026-03-22T11:26:55.271Z</time></trkpt><trkpt lat="43.41913529849355" lon="11.99499414951433"><ele>723.0</ele><time>2026-03-22T11:26:57.272Z</time></trkpt><trkpt lat="43.419048670812266" lon="11.994918998000376"><ele>723.0</ele><time>2026-03-22T11:26:58.273Z</time></trkpt><trkpt lat="43.418960465264995" lon="11.994860416380243"><ele>723.0</ele><time>2026-03-22T11:26:59.272Z</time></trkpt><trkpt lat="43.41889270629275" lon="11.994836574273544"><ele>723.0</ele><time>2026-03-22T11:27:00.273Z</time></trkpt><trkpt lat="43.41879746450997" lon="11.99475759840776"><ele>718.8</ele><time>2026-03-22T11:27:02.274Z</time></trkpt><trkpt lat="43.41868408448999" lon="11.994674900896337"><ele>714.5999999999999</ele><time>2026-03-22T11:27:04.274Z</time></trkpt><trkpt lat="43.41863669088866" lon="11.99461275138396"><ele>710.4000000000001</ele><time>2026-03-22T11:27:06.274Z</time></trkpt><trkpt lat="43.41868729529137" lon="11.994527944425222"><ele>706.2</ele><time>2026-03-22T11:27:08.273Z</time></trkpt><trkpt lat="43.41879138492302" lon="11.99439848229077"><ele>702.0</ele><time>2026-03-22T11:27:10.272Z</time></trkpt><trkpt lat="43.41883579019745" lon="11.99432822198041"><ele>702.0</ele><time>2026-03-22T11:27:11.271Z</time></trkpt><trkpt lat="43.418913856317936" lon="11.99420073349256"><ele>702.0</ele><time>2026-03-22T11:27:13.271Z</time></trkpt><trkpt lat="43.41897594250279" lon="11.994118443588423"><ele>702.0</ele><time>2026-03-22T11:27:14.272Z</time></trkpt><trkpt lat="43.41902354957626" lon="11.994052396014403"><ele>702.0</ele><time>2026-03-22T11:27:15.272Z</time></trkpt><trkpt lat="43.41907916616718" lon="11.993997802474459"><ele>702.0</ele><time>2026-03-22T11:27:16.267Z</time></trkpt><trkpt lat="43.4191574051533" lon="11.993937408134979"><ele>702.0</ele><time>2026-03-22T11:27:17.271Z</time></trkpt><trkpt lat="43.41921522579782" lon="11.99386673791774"><ele>698.8</ele><time>2026-03-22T11:27:18.27Z</time></trkpt><trkpt lat="43.41923822521234" lon="11.993747321285554"><ele>695.6</ele><time>2026-03-22T11:27:20.273Z</time></trkpt><trkpt lat="43.419147957650814" lon="11.993664260190751"><ele>692.4</ele><time>2026-03-22T11:27:22.273Z</time></trkpt><trkpt lat="43.41907648077927" lon="11.993614250385926"><ele>689.1999999999999</ele><time>2026-03-22T11:27:23.272Z</time></trkpt><trkpt lat="43.41900210008053" lon="11.993584933119353"><ele>686.0</ele><time>2026-03-22T11:27:24.265Z</time></trkpt><trkpt lat="43.418891467257204" lon="11.993542257094537"><ele>685.0</ele><time>2026-03-22T11:27:26.272Z</time></trkpt><trkpt lat="43.41880112770755" lon="11.993475109244798"><ele>684.0</ele><time>2026-03-22T11:27:28.274Z</time></trkpt><trkpt lat="43.418763484252906" lon="11.993338784605728"><ele>683.0</ele><time>2026-03-22T11:27:30.273Z</time></trkpt><trkpt lat="43.41879177004499" lon="11.993208915245733"><ele>682.0</ele><time>2026-03-22T11:27:31.273Z</time></trkpt><trkpt lat="43.41882643994695" lon="11.993087009420705"><ele>681.0</ele><time>2026-03-22T11:27:32.274Z</time></trkpt><trkpt lat="43.41882797488258" lon="11.992975653661356"><ele>679.0</ele><time>2026-03-22T11:27:33.273Z</time></trkpt><trkpt lat="43.41882698368939" lon="11.992880624804284"><ele>677.0</ele><time>2026-03-22T11:27:34.272Z</time></trkpt><trkpt lat="43.41884671526202" lon="11.992723613233947"><ele>675.0</ele><time>2026-03-22T11:27:36.274Z</time></trkpt><trkpt lat="43.418918681181914" lon="11.992554969524253"><ele>673.0</ele><time>2026-03-22T11:27:38.273Z</time></trkpt><trkpt lat="43.418961274657754" lon="11.992464446199287"><ele>671.0</ele><time>2026-03-22T11:27:39.266Z</time></trkpt><trkpt lat="43.41901483016821" lon="11.992385418606366"><ele>668.0</ele><time>2026-03-22T11:27:40.274Z</time></trkpt><trkpt lat="43.41907003374084" lon="11.992315810221463"><ele>665.0</ele><time>2026-03-22T11:27:41.267Z</time></trkpt><trkpt lat="43.41913194162736" lon="11.992205096729142"><ele>662.0</ele><time>2026-03-22T11:27:43.272Z</time></trkpt><trkpt lat="43.41916377388867" lon="11.992105072180678"><ele>659.0</ele><time>2026-03-22T11:27:45.272Z</time></trkpt><trkpt lat="43.41913181581192" lon="11.992024915886578"><ele>656.0</ele><time>2026-03-22T11:27:47.272Z</time></trkpt><trkpt lat="43.4189908383308" lon="11.992005573679952"><ele>656.0</ele><time>2026-03-22T11:27:49.272Z</time></trkpt><trkpt lat="43.41890525116903" lon="11.99198510702456"><ele>656.0</ele><time>2026-03-22T11:27:50.273Z</time></trkpt><trkpt lat="43.41884097728728" lon="11.991953400276799"><ele>656.0</ele><time>2026-03-22T11:27:52.266Z</time></trkpt><trkpt lat="43.41884716130435" lon="11.991832200273523"><ele>656.0</ele><time>2026-03-22T11:27:54.274Z</time></trkpt><trkpt lat="43.41889458612964" lon="11.99176924160507"><ele>656.0</ele><time>2026-03-22T11:27:55.272Z</time></trkpt><trkpt lat="43.418952704046276" lon="11.991714566218294"><ele>656.0</ele><time>2026-03-22T11:27:56.274Z</time></trkpt><trkpt lat="43.41901459068554" lon="11.991662694584495"><ele>652.8</ele><time>2026-03-22T11:27:57.273Z</time></trkpt><trkpt lat="43.41906936518029" lon="11.99161697109708"><ele>649.5999999999999</ele><time>2026-03-22T11:27:58.272Z</time></trkpt><trkpt lat="43.41915368632421" lon="11.991514277186116"><ele>646.4</ele><time>2026-03-22T11:28:00.273Z</time></trkpt><trkpt lat="43.41923324312463" lon="11.991437512783047"><ele>643.2</ele><time>2026-03-22T11:28:02.272Z</time></trkpt><trkpt lat="43.41931037840298" lon="11.991352789862841"><ele>640.0</ele><time>2026-03-22T11:28:04.267Z</time></trkpt><trkpt lat="43.419336648160645" lon="11.991240142273616"><ele>640.0</ele><time>2026-03-22T11:28:06.273Z</time></trkpt><trkpt lat="43.419320109078676" lon="11.991152558135006"><ele>640.0</ele><time>2026-03-22T11:28:07.272Z</time></trkpt><trkpt lat="43.41929273078455" lon="11.991066784615455"><ele>640.0</ele><time>2026-03-22T11:28:08.273Z</time></trkpt><trkpt lat="43.41925257142143" lon="11.990986884503384"><ele>640.0</ele><time>2026-03-22T11:28:09.271Z</time></trkpt><trkpt lat="43.419208286104684" lon="11.990914412044903"><ele>640.0</ele><time>2026-03-22T11:28:10.274Z</time></trkpt><trkpt lat="43.41913617371158" lon="11.990778300073508"><ele>640.0</ele><time>2026-03-22T11:28:12.267Z</time></trkpt><trkpt lat="43.4190949380932" lon="11.990651249294572"><ele>637.0</ele><time>2026-03-22T11:28:14.272Z</time></trkpt><trkpt lat="43.4190480118977" lon="11.990571714075259"><ele>634.0</ele><time>2026-03-22T11:28:17.274Z</time></trkpt><trkpt lat="43.41894204811913" lon="11.990547599202566"><ele>631.0</ele><time>2026-03-22T11:28:22.273Z</time></trkpt><trkpt lat="43.418868586670335" lon="11.990525518178154"><ele>628.0</ele><time>2026-03-22T11:28:23.274Z</time></trkpt><trkpt lat="43.4188031438846" lon="11.990489167059723"><ele>625.0</ele><time>2026-03-22T11:28:24.274Z</time></trkpt><trkpt lat="43.418747809025554" lon="11.990410375078897"><ele>622.0</ele><time>2026-03-22T11:28:25.273Z</time></trkpt><trkpt lat="43.41870002402726" lon="11.990316180195114"><ele>619.4</ele><time>2026-03-22T11:28:26.275Z</time></trkpt><trkpt lat="43.418631697299865" lon="11.99013826999395"><ele>616.8000000000001</ele><time>2026-03-22T11:28:28.274Z</time></trkpt><trkpt lat="43.418606339256904" lon="11.99003451582367"><ele>614.2</ele><time>2026-03-22T11:28:29.273Z</time></trkpt><trkpt lat="43.41857962874304" lon="11.989944005873047"><ele>611.6</ele><time>2026-03-22T11:28:30.273Z</time></trkpt><trkpt lat="43.4185545894654" lon="11.98984336045441"><ele>609.0</ele><time>2026-03-22T11:28:31.272Z</time></trkpt><trkpt lat="43.41853184704726" lon="11.989733824447685"><ele>606.2</ele><time>2026-03-22T11:28:32.273Z</time></trkpt><trkpt lat="43.41851204694715" lon="11.989648014606866"><ele>603.4</ele><time>2026-03-22T11:28:33.272Z</time></trkpt><trkpt lat="43.41851488156529" lon="11.989475226151125"><ele>600.6</ele><time>2026-03-22T11:28:35.273Z</time></trkpt><trkpt lat="43.418526983377006" lon="11.989367347785379"><ele>597.8</ele><time>2026-03-22T11:28:36.273Z</time></trkpt><trkpt lat="43.4185358182996" lon="11.989272727889567"><ele>595.0</ele><time>2026-03-22T11:28:37.273Z</time></trkpt><trkpt lat="43.41851493235176" lon="11.98909728102985"><ele>594.1666666666667</ele><time>2026-03-22T11:28:39.273Z</time></trkpt><trkpt lat="43.41845263581472" lon="11.988938124930135"><ele>593.3333333333334</ele><time>2026-03-22T11:28:41.272Z</time></trkpt><trkpt lat="43.418411235906866" lon="11.988863712002258"><ele>592.5</ele><time>2026-03-22T11:28:42.271Z</time></trkpt><trkpt lat="43.41835877244832" lon="11.988790362554319"><ele>591.6666666666666</ele><time>2026-03-22T11:28:43.273Z</time></trkpt><trkpt lat="43.41830375352197" lon="11.988708683401587"><ele>590.8333333333333</ele><time>2026-03-22T11:28:44.267Z</time></trkpt><trkpt lat="43.418259813656086" lon="11.98864389572242"><ele>590.0</ele><time>2026-03-22T11:28:45.271Z</time></trkpt><trkpt lat="43.41820351032737" lon="11.988570420580515"><ele>590.0</ele><time>2026-03-22T11:28:46.275Z</time></trkpt><trkpt lat="43.41814532067803" lon="11.988521662142356"><ele>590.0</ele><time>2026-03-22T11:28:47.272Z</time></trkpt><trkpt lat="43.41803833642314" lon="11.988461517911915"><ele>590.0</ele><time>2026-03-22T11:28:49.272Z</time></trkpt><trkpt lat="43.417965586059886" lon="11.988456482631264"><ele>590.0</ele><time>2026-03-22T11:28:50.272Z</time></trkpt><trkpt lat="43.41790331261382" lon="11.988479451452426"><ele>590.0</ele><time>2026-03-22T11:28:51.272Z</time></trkpt><trkpt lat="43.41783840663431" lon="11.988493391995176"><ele>590.0</ele><time>2026-03-22T11:28:53.273Z</time></trkpt><trkpt lat="43.41780581793361" lon="11.988374613193512"><ele>586.8</ele><time>2026-03-22T11:28:55.272Z</time></trkpt><trkpt lat="43.417812837126235" lon="11.988287664029588"><ele>583.6</ele><time>2026-03-22T11:28:56.273Z</time></trkpt><trkpt lat="43.41783194586683" lon="11.98820251835324"><ele>580.4</ele><time>2026-03-22T11:28:57.273Z</time></trkpt><trkpt lat="43.4179287813977" lon="11.988054405053347"><ele>577.2</ele><time>2026-03-22T11:28:59.272Z</time></trkpt><trkpt lat="43.41801300759939" lon="11.987981307491323"><ele>574.0</ele><time>2026-03-22T11:29:00.267Z</time></trkpt><trkpt lat="43.418081108247684" lon="11.987908977856607"><ele>574.0</ele><time>2026-03-22T11:29:01.272Z</time></trkpt><trkpt lat="43.41816543762764" lon="11.987830908410023"><ele>574.0</ele><time>2026-03-22T11:29:02.273Z</time></trkpt><trkpt lat="43.41824496922645" lon="11.987764677318685"><ele>574.0</ele><time>2026-03-22T11:29:03.272Z</time></trkpt><trkpt lat="43.41831643962743" lon="11.987708437586587"><ele>574.0</ele><time>2026-03-22T11:29:04.267Z</time></trkpt><trkpt lat="43.418391576528315" lon="11.987638202934352"><ele>574.0</ele><time>2026-03-22T11:29:05.272Z</time></trkpt><trkpt lat="43.41849724728867" lon="11.987540073286382"><ele>573.0</ele><time>2026-03-22T11:29:07.273Z</time></trkpt><trkpt lat="43.41861572602212" lon="11.987484383058392"><ele>572.0</ele><time>2026-03-22T11:29:09.273Z</time></trkpt><trkpt lat="43.41868541547074" lon="11.987480474983698"><ele>571.0</ele><time>2026-03-22T11:29:10.275Z</time></trkpt><trkpt lat="43.41876950391033" lon="11.987497539136164"><ele>570.0</ele><time>2026-03-22T11:29:11.272Z</time></trkpt><trkpt lat="43.41884430217065" lon="11.987524429730815"><ele>569.0</ele><time>2026-03-22T11:29:12.267Z</time></trkpt><trkpt lat="43.418921154023096" lon="11.98754435398386"><ele>568.0</ele><time>2026-03-22T11:29:13.273Z</time></trkpt><trkpt lat="43.41900214682877" lon="11.987549906160009"><ele>568.0</ele><time>2026-03-22T11:29:14.275Z</time></trkpt><trkpt lat="43.419088046259" lon="11.987556425582534"><ele>568.0</ele><time>2026-03-22T11:29:15.27Z</time></trkpt><trkpt lat="43.41916374819822" lon="11.987563602729043"><ele>568.0</ele><time>2026-03-22T11:29:16.264Z</time></trkpt><trkpt lat="43.419249056080965" lon="11.987538370587819"><ele>568.0</ele><time>2026-03-22T11:29:17.272Z</time></trkpt><trkpt lat="43.41933622065361" lon="11.987429240223069"><ele>568.0</ele><time>2026-03-22T11:29:19.271Z</time></trkpt><trkpt lat="43.419445579871244" lon="11.987353579559354"><ele>563.8333333333334</ele><time>2026-03-22T11:29:21.267Z</time></trkpt><trkpt lat="43.41959039668581" lon="11.987355217701678"><ele>559.6666666666667</ele><time>2026-03-22T11:29:23.273Z</time></trkpt><trkpt lat="43.41966812379201" lon="11.987357883272796"><ele>555.5</ele><time>2026-03-22T11:29:24.273Z</time></trkpt><trkpt lat="43.41973950803029" lon="11.987360534375606"><ele>551.3333333333334</ele><time>2026-03-22T11:29:25.272Z</time></trkpt><trkpt lat="43.41980561138463" lon="11.987361756292206"><ele>547.1666666666666</ele><time>2026-03-22T11:29:26.275Z</time></trkpt><trkpt lat="43.41986925245679" lon="11.98738122021281"><ele>543.0</ele><time>2026-03-22T11:29:27.273Z</time></trkpt><trkpt lat="43.419935417052876" lon="11.987406781505854"><ele>542.6666666666666</ele><time>2026-03-22T11:29:28.265Z</time></trkpt><trkpt lat="43.42000782187278" lon="11.987428948579899"><ele>542.3333333333334</ele><time>2026-03-22T11:29:29.273Z</time></trkpt><trkpt lat="43.420089929901735" lon="11.987549302282513"><ele>542.0</ele><time>2026-03-22T11:29:31.272Z</time></trkpt><trkpt lat="43.42012288638502" lon="11.987651222486518"><ele>541.6666666666667</ele><time>2026-03-22T11:29:33.272Z</time></trkpt><trkpt lat="43.42013222344434" lon="11.987762390861322"><ele>541.3333333333334</ele><time>2026-03-22T11:29:35.271Z</time></trkpt><trkpt lat="43.420212043955225" lon="11.987781286896759"><ele>541.0</ele><time>2026-03-22T11:29:42.272Z</time></trkpt><trkpt lat="43.420202543052355" lon="11.987649747830105"><ele>541.0</ele><time>2026-03-22T11:29:45.272Z</time></trkpt><trkpt lat="43.420183457916465" lon="11.98751183345094"><ele>541.0</ele><time>2026-03-22T11:29:47.27Z</time></trkpt><trkpt lat="43.42019468877477" lon="11.987420025275979"><ele>541.0</ele><time>2026-03-22T11:29:48.265Z</time></trkpt><trkpt lat="43.42021733283561" lon="11.987317058041933"><ele>541.0</ele><time>2026-03-22T11:29:49.27Z</time></trkpt><trkpt lat="43.42023021987233" lon="11.987220636775263"><ele>541.0</ele><time>2026-03-22T11:29:50.271Z</time></trkpt><trkpt lat="43.42024413408237" lon="11.987133519585067"><ele>541.0</ele><time>2026-03-22T11:29:51.273Z</time></trkpt><trkpt lat="43.420263282257416" lon="11.986980591991996"><ele>538.6</ele><time>2026-03-22T11:29:53.272Z</time></trkpt><trkpt lat="43.42028861816011" lon="11.98680047999129"><ele>536.2</ele><time>2026-03-22T11:29:55.268Z</time></trkpt><trkpt lat="43.4203098211152" lon="11.986700117584926"><ele>533.8</ele><time>2026-03-22T11:29:56.274Z</time></trkpt><trkpt lat="43.42033002463872" lon="11.986595831604543"><ele>531.4</ele><time>2026-03-22T11:29:57.273Z</time></trkpt><trkpt lat="43.42034667128252" lon="11.986490281498154"><ele>529.0</ele><time>2026-03-22T11:29:58.266Z</time></trkpt><trkpt lat="43.4203591053692" lon="11.986372382990169"><ele>526.8333333333334</ele><time>2026-03-22T11:29:59.272Z</time></trkpt><trkpt lat="43.42038624031209" lon="11.986272867914469"><ele>524.6666666666667</ele><time>2026-03-22T11:30:00.266Z</time></trkpt><trkpt lat="43.420407091281184" lon="11.986186749373017"><ele>522.5</ele><time>2026-03-22T11:30:01.272Z</time></trkpt><trkpt lat="43.420445126598146" lon="11.986079420305625"><ele>520.3333333333334</ele><time>2026-03-22T11:30:03.272Z</time></trkpt><trkpt lat="43.420478135938026" lon="11.985983040647307"><ele>518.1666666666666</ele><time>2026-03-22T11:30:05.273Z</time></trkpt><trkpt lat="43.42050109223458" lon="11.985865653545087"><ele>516.0</ele><time>2026-03-22T11:30:07.271Z</time></trkpt><trkpt lat="43.42052900684065" lon="11.985765752884015"><ele>513.4</ele><time>2026-03-22T11:30:09.27Z</time></trkpt><trkpt lat="43.420592766337016" lon="11.985687616409827"><ele>510.8</ele><time>2026-03-22T11:30:11.27Z</time></trkpt><trkpt lat="43.42064725677654" lon="11.985574339717635"><ele>508.19999999999993</ele><time>2026-03-22T11:30:13.273Z</time></trkpt><trkpt lat="43.42064241991545" lon="11.985452579085976"><ele>505.59999999999997</ele><time>2026-03-22T11:30:15.271Z</time></trkpt><trkpt lat="43.42061115720035" lon="11.985322869871831"><ele>503.0</ele><time>2026-03-22T11:30:18.271Z</time></trkpt><trkpt lat="43.42060978476094" lon="11.985179785684698"><ele>503.0</ele><time>2026-03-22T11:30:21.272Z</time></trkpt><trkpt lat="43.42068965204513" lon="11.985112351584231"><ele>502.99999999999994</ele><time>2026-03-22T11:30:23.271Z</time></trkpt><trkpt lat="43.42076628718137" lon="11.98501210851894"><ele>502.99999999999994</ele><time>2026-03-22T11:30:25.271Z</time></trkpt><trkpt lat="43.42079789984999" lon="11.984852717083916"><ele>503.0</ele><time>2026-03-22T11:30:27.273Z</time></trkpt><trkpt lat="43.4207959461344" lon="11.98475933995224"><ele>503.0</ele><time>2026-03-22T11:30:28.268Z</time></trkpt><trkpt lat="43.42077225650657" lon="11.984602443983693"><ele>502.49999999999994</ele><time>2026-03-22T11:30:30.274Z</time></trkpt><trkpt lat="43.420768341224495" lon="11.984469400920117"><ele>502.0</ele><time>2026-03-22T11:30:32.274Z</time></trkpt><trkpt lat="43.42075127844265" lon="11.984350380558437"><ele>501.5</ele><time>2026-03-22T11:30:34.275Z</time></trkpt><trkpt lat="43.4207654218453" lon="11.984241474064673"><ele>501.0</ele><time>2026-03-22T11:30:36.268Z</time></trkpt><trkpt lat="43.42079364136417" lon="11.984139528759975"><ele>500.49999999999994</ele><time>2026-03-22T11:30:38.272Z</time></trkpt><trkpt lat="43.420784945716704" lon="11.984033281287743"><ele>500.0</ele><time>2026-03-22T11:30:40.273Z</time></trkpt><trkpt lat="43.42075576415769" lon="11.98392264946773"><ele>497.2</ele><time>2026-03-22T11:30:42.271Z</time></trkpt><trkpt lat="43.42075194348671" lon="11.983804607465164"><ele>494.4</ele><time>2026-03-22T11:30:45.272Z</time></trkpt><trkpt lat="43.420841760354925" lon="11.983757286322799"><ele>491.6</ele><time>2026-03-22T11:30:47.274Z</time></trkpt><trkpt lat="43.420939916624015" lon="11.983811095014326"><ele>488.8</ele><time>2026-03-22T11:30:49.273Z</time></trkpt><trkpt lat="43.42104217643532" lon="11.983852548078366"><ele>486.0</ele><time>2026-03-22T11:30:51.271Z</time></trkpt><trkpt lat="43.42115274414566" lon="11.983888260761638"><ele>486.0</ele><time>2026-03-22T11:30:53.272Z</time></trkpt><trkpt lat="43.42127237627356" lon="11.983919334186245"><ele>486.0</ele><time>2026-03-22T11:30:55.271Z</time></trkpt><trkpt lat="43.421367715403925" lon="11.98390730756556"><ele>486.0</ele><time>2026-03-22T11:30:57.271Z</time></trkpt><trkpt lat="43.42143764458227" lon="11.983783020931222"><ele>486.0</ele><time>2026-03-22T11:30:59.273Z</time></trkpt><trkpt lat="43.421453405892485" lon="11.983686258500349"><ele>486.0</ele><time>2026-03-22T11:31:00.269Z</time></trkpt><trkpt lat="43.421478554005304" lon="11.983518351866962"><ele>482.20000000000005</ele><time>2026-03-22T11:31:02.274Z</time></trkpt><trkpt lat="43.421490345913654" lon="11.983359488205485"><ele>478.40000000000003</ele><time>2026-03-22T11:31:04.274Z</time></trkpt><trkpt lat="43.42147966746603" lon="11.983240917380133"><ele>474.6</ele><time>2026-03-22T11:31:06.276Z</time></trkpt><trkpt lat="43.421456087952215" lon="11.983138052182326"><ele>470.8</ele><time>2026-03-22T11:31:07.272Z</time></trkpt><trkpt lat="43.421410026650726" lon="11.98298248708289"><ele>467.0</ele><time>2026-03-22T11:31:09.272Z</time></trkpt><trkpt lat="43.42139065908947" lon="11.982890495409576"><ele>466.0</ele><time>2026-03-22T11:31:10.272Z</time></trkpt><trkpt lat="43.42137203631817" lon="11.982740225349286"><ele>465.00000000000006</ele><time>2026-03-22T11:31:12.273Z</time></trkpt><trkpt lat="43.42134024580247" lon="11.982598993215207"><ele>464.00000000000006</ele><time>2026-03-22T11:31:14.273Z</time></trkpt><trkpt lat="43.42131371467758" lon="11.982410041818198"><ele>463.0</ele><time>2026-03-22T11:31:16.275Z</time></trkpt><trkpt lat="43.421307967459775" lon="11.982305321284752"><ele>462.0</ele><time>2026-03-22T11:31:17.272Z</time></trkpt><trkpt lat="43.421298398863" lon="11.982208160352057"><ele>461.20000000000005</ele><time>2026-03-22T11:31:18.274Z</time></trkpt><trkpt lat="43.42128021824196" lon="11.982108557810395"><ele>460.40000000000003</ele><time>2026-03-22T11:31:19.274Z</time></trkpt><trkpt lat="43.42126682682323" lon="11.982008930409998"><ele>459.59999999999997</ele><time>2026-03-22T11:31:20.265Z</time></trkpt><trkpt lat="43.421266094561155" lon="11.981851133160765"><ele>458.79999999999995</ele><time>2026-03-22T11:31:22.273Z</time></trkpt><trkpt lat="43.42125648973324" lon="11.981718041520649"><ele>458.0</ele><time>2026-03-22T11:31:24.266Z</time></trkpt><trkpt lat="43.421148589822586" lon="11.981635489295408"><ele>455.16666666666663</ele><time>2026-03-22T11:31:26.272Z</time></trkpt><trkpt lat="43.42108063076239" lon="11.981642672610736"><ele>452.3333333333333</ele><time>2026-03-22T11:31:27.271Z</time></trkpt><trkpt lat="43.420989638614934" lon="11.981639127936802"><ele>449.5</ele><time>2026-03-22T11:31:29.271Z</time></trkpt><trkpt lat="43.420956685150635" lon="11.981554324954812"><ele>446.66666666666663</ele><time>2026-03-22T11:31:30.271Z</time></trkpt><trkpt lat="43.42093116524146" lon="11.981416732868391"><ele>443.8333333333333</ele><time>2026-03-22T11:31:31.272Z</time></trkpt><trkpt lat="43.4209334738442" lon="11.981281471853794"><ele>441.0</ele><time>2026-03-22T11:31:32.268Z</time></trkpt><trkpt lat="43.4209383700929" lon="11.981124833443857"><ele>441.0</ele><time>2026-03-22T11:31:33.273Z</time></trkpt><trkpt lat="43.420929460848" lon="11.980965865770639"><ele>441.0</ele><time>2026-03-22T11:31:34.273Z</time></trkpt><trkpt lat="43.42091418517002" lon="11.980821218616756"><ele>441.0</ele><time>2026-03-22T11:31:35.266Z</time></trkpt><trkpt lat="43.420904794300085" lon="11.98067466035747"><ele>441.0</ele><time>2026-03-22T11:31:36.265Z</time></trkpt><trkpt lat="43.42089475850915" lon="11.980531501677463"><ele>441.0</ele><time>2026-03-22T11:31:37.271Z</time></trkpt><trkpt lat="43.42088646570474" lon="11.980409540475662"><ele>438.6666666666667</ele><time>2026-03-22T11:31:38.271Z</time></trkpt><trkpt lat="43.4208814913837" lon="11.980293636295041"><ele>436.33333333333337</ele><time>2026-03-22T11:31:39.272Z</time></trkpt><trkpt lat="43.42087746911866" lon="11.98017378577132"><ele>434.0</ele><time>2026-03-22T11:31:40.267Z</time></trkpt><trkpt lat="43.42087177145229" lon="11.980049218814447"><ele>431.6666666666667</ele><time>2026-03-22T11:31:41.272Z</time></trkpt><trkpt lat="43.42088141627565" lon="11.979936294703176"><ele>429.33333333333337</ele><time>2026-03-22T11:31:42.271Z</time></trkpt><trkpt lat="43.42087605224175" lon="11.979821009940778"><ele>427.0</ele><time>2026-03-22T11:31:43.272Z</time></trkpt><trkpt lat="43.42087488356807" lon="11.97972078903916"><ele>425.2857142857143</ele><time>2026-03-22T11:31:44.272Z</time></trkpt><trkpt lat="43.42088020880703" lon="11.97962499109937"><ele>423.57142857142856</ele><time>2026-03-22T11:31:45.272Z</time></trkpt><trkpt lat="43.420885599279075" lon="11.979531925364077"><ele>421.8571428571429</ele><time>2026-03-22T11:31:46.273Z</time></trkpt><trkpt lat="43.42088675426753" lon="11.979442830948333"><ele>420.1428571428571</ele><time>2026-03-22T11:31:47.273Z</time></trkpt><trkpt lat="43.42088703353152" lon="11.979344311280814"><ele>418.42857142857144</ele><time>2026-03-22T11:31:48.273Z</time></trkpt><trkpt lat="43.42089483916513" lon="11.979245802974924"><ele>416.7142857142857</ele><time>2026-03-22T11:31:49.272Z</time></trkpt><trkpt lat="43.42091073856111" lon="11.97913924454235"><ele>415.0</ele><time>2026-03-22T11:31:50.273Z</time></trkpt><trkpt lat="43.42093515052198" lon="11.97903805891523"><ele>414.1666666666667</ele><time>2026-03-22T11:31:51.274Z</time></trkpt><trkpt lat="43.42095769240098" lon="11.978943447715876"><ele>413.33333333333337</ele><time>2026-03-22T11:31:52.267Z</time></trkpt><trkpt lat="43.42098353595939" lon="11.978840648036341"><ele>412.5</ele><time>2026-03-22T11:31:53.272Z</time></trkpt><trkpt lat="43.421001412069074" lon="11.978731449931365"><ele>411.66666666666663</ele><time>2026-03-22T11:31:54.272Z</time></trkpt><trkpt lat="43.42102306954038" lon="11.978632797921545"><ele>410.8333333333333</ele><time>2026-03-22T11:31:55.271Z</time></trkpt><trkpt lat="43.4210444996845" lon="11.978531554435328"><ele>410.0</ele><time>2026-03-22T11:31:56.267Z</time></trkpt><trkpt lat="43.421061998965605" lon="11.978443501483813"><ele>409.8</ele><time>2026-03-22T11:31:57.272Z</time></trkpt><trkpt lat="43.421090423983266" lon="11.97832909854132"><ele>409.6</ele><time>2026-03-22T11:31:59.268Z</time></trkpt><trkpt lat="43.42119420476008" lon="11.97827089626376"><ele>409.4</ele><time>2026-03-22T11:32:02.272Z</time></trkpt><trkpt lat="43.42127644945571" lon="11.978287398100596"><ele>409.2</ele><time>2026-03-22T11:32:03.272Z</time></trkpt><trkpt lat="43.421363970790836" lon="11.9783093159981"><ele>409.0</ele><time>2026-03-22T11:32:04.275Z</time></trkpt><trkpt lat="43.42145144700784" lon="11.978317591369"><ele>409.00000000000006</ele><time>2026-03-22T11:32:05.272Z</time></trkpt><trkpt lat="43.42153449143994" lon="11.978318950831056"><ele>409.0</ele><time>2026-03-22T11:32:06.274Z</time></trkpt><trkpt lat="43.4216130415913" lon="11.97830633483806"><ele>409.0</ele><time>2026-03-22T11:32:07.27Z</time></trkpt><trkpt lat="43.421681030428715" lon="11.97826704065558"><ele>409.0</ele><time>2026-03-22T11:32:08.273Z</time></trkpt><trkpt lat="43.42174411630019" lon="11.9781911156788"><ele>409.00000000000006</ele><time>2026-03-22T11:32:09.271Z</time></trkpt><trkpt lat="43.42179916796464" lon="11.978096404698086"><ele>409.0</ele><time>2026-03-22T11:32:10.272Z</time></trkpt><trkpt lat="43.42184733296071" lon="11.977980131639264"><ele>409.0</ele><time>2026-03-22T11:32:11.272Z</time></trkpt><trkpt lat="43.42188616271165" lon="11.977861857242333"><ele>409.0</ele><time>2026-03-22T11:32:12.274Z</time></trkpt><trkpt lat="43.42192336255734" lon="11.977732457218531"><ele>409.0</ele><time>2026-03-22T11:32:13.273Z</time></trkpt><trkpt lat="43.421965540741404" lon="11.977607843694166"><ele>409.0</ele><time>2026-03-22T11:32:14.273Z</time></trkpt><trkpt lat="43.4220008075831" lon="11.977494556742363"><ele>409.0</ele><time>2026-03-22T11:32:15.272Z</time></trkpt><trkpt lat="43.42203939793837" lon="11.977390420774773"><ele>408.33333333333337</ele><time>2026-03-22T11:32:16.274Z</time></trkpt><trkpt lat="43.42207606605098" lon="11.977294278193652"><ele>407.6666666666667</ele><time>2026-03-22T11:32:17.268Z</time></trkpt><trkpt lat="43.42210992504796" lon="11.977197928155093"><ele>407.0</ele><time>2026-03-22T11:32:18.272Z</time></trkpt><trkpt lat="43.42213497386107" lon="11.97710453776296"><ele>406.33333333333337</ele><time>2026-03-22T11:32:19.272Z</time></trkpt><trkpt lat="43.4221709081204" lon="11.976959648246115"><ele>405.6666666666667</ele><time>2026-03-22T11:32:21.273Z</time></trkpt><trkpt lat="43.42219968415672" lon="11.976863251284673"><ele>405.0</ele><time>2026-03-22T11:32:23.272Z</time></trkpt><trkpt lat="43.422231926636414" lon="11.976756894969608"><ele>405.0</ele><time>2026-03-22T11:32:26.273Z</time></trkpt><trkpt lat="43.422245521824074" lon="11.976610114320698"><ele>405.0</ele><time>2026-03-22T11:32:28.268Z</time></trkpt><trkpt lat="43.42222478493688" lon="11.976489018976174"><ele>405.0</ele><time>2026-03-22T11:32:29.273Z</time></trkpt><trkpt lat="43.42218703665119" lon="11.97635942829846"><ele>405.0</ele><time>2026-03-22T11:32:30.272Z</time></trkpt><trkpt lat="43.422153199489614" lon="11.976219798190545"><ele>405.0</ele><time>2026-03-22T11:32:31.273Z</time></trkpt><trkpt lat="43.42212339672746" lon="11.97607317987779"><ele>404.6</ele><time>2026-03-22T11:32:32.274Z</time></trkpt><trkpt lat="43.42209404000625" lon="11.97592890397322"><ele>404.2</ele><time>2026-03-22T11:32:33.275Z</time></trkpt><trkpt lat="43.422062772390845" lon="11.975794378240193"><ele>403.79999999999995</ele><time>2026-03-22T11:32:34.273Z</time></trkpt><trkpt lat="43.42203351074458" lon="11.975666588790846"><ele>403.4</ele><time>2026-03-22T11:32:35.266Z</time></trkpt><trkpt lat="43.42200668869852" lon="11.975540854811923"><ele>403.0</ele><time>2026-03-22T11:32:36.274Z</time></trkpt><trkpt lat="43.42197975530293" lon="11.975416776514901"><ele>402.0</ele><time>2026-03-22T11:32:37.273Z</time></trkpt><trkpt lat="43.421955656989375" lon="11.975300565886796"><ele>402.0</ele><time>2026-03-22T11:32:38.275Z</time></trkpt><trkpt lat="43.421934882654234" lon="11.975201805841355"><ele>402.0</ele><time>2026-03-22T11:32:39.271Z</time></trkpt><trkpt lat="43.42190155520819" lon="11.975049477936382"><ele>402.0</ele><time>2026-03-22T11:32:41.266Z</time></trkpt><trkpt lat="43.421890144615865" lon="11.97493367175358"><ele>404.0</ele><time>2026-03-22T11:32:43.272Z</time></trkpt></trkseg><trkseg><trkpt lat="43.42539001797452" lon="11.952606365168574"><ele>445.8333333333333</ele><time>2026-03-22T11:48:43.266Z</time></trkpt><trkpt lat="43.42542014202034" lon="11.952479629115725"><ele>444.66666666666663</ele><time>2026-03-22T11:48:44.266Z</time></trkpt><trkpt lat="43.42544701669615" lon="11.952374404338219"><ele>443.5</ele><time>2026-03-22T11:48:45.266Z</time></trkpt><trkpt lat="43.425480295060154" lon="11.952279572909378"><ele>442.3333333333333</ele><time>2026-03-22T11:48:46.264Z</time></trkpt><trkpt lat="43.42551201240755" lon="11.952199481329645"><ele>441.16666666666663</ele><time>2026-03-22T11:48:47.269Z</time></trkpt><trkpt lat="43.42559935460528" lon="11.952114752053415"><ele>440.0</ele><time>2026-03-22T11:48:49.263Z</time></trkpt><trkpt lat="43.4256754948314" lon="11.95211488499819"><ele>440.0</ele><time>2026-03-22T11:48:50.266Z</time></trkpt><trkpt lat="43.42575338511639" lon="11.952120424030579"><ele>440.0</ele><time>2026-03-22T11:48:51.265Z</time></trkpt><trkpt lat="43.42583187324254" lon="11.95209292345591"><ele>440.0</ele><time>2026-03-22T11:48:52.266Z</time></trkpt><trkpt lat="43.42590710589561" lon="11.95202079488544"><ele>440.0</ele><time>2026-03-22T11:48:53.266Z</time></trkpt><trkpt lat="43.425953102991464" lon="11.951908590228072"><ele>440.0</ele><time>2026-03-22T11:48:54.266Z</time></trkpt><trkpt lat="43.425971405203406" lon="11.951765240090488"><ele>441.6</ele><time>2026-03-22T11:48:55.265Z</time></trkpt><trkpt lat="43.42596760844579" lon="11.951615748206617"><ele>443.2</ele><time>2026-03-22T11:48:56.265Z</time></trkpt><trkpt lat="43.425964265136685" lon="11.951455519138074"><ele>444.79999999999995</ele><time>2026-03-22T11:48:57.265Z</time></trkpt><trkpt lat="43.425974677409926" lon="11.951309996670405"><ele>446.4</ele><time>2026-03-22T11:48:58.265Z</time></trkpt><trkpt lat="43.425991435730296" lon="11.95119082248316"><ele>448.0</ele><time>2026-03-22T11:48:59.265Z</time></trkpt><trkpt lat="43.42601201578424" lon="11.951075406840397"><ele>448.0</ele><time>2026-03-22T11:49:00.266Z</time></trkpt><trkpt lat="43.42604326120804" lon="11.950958945810989"><ele>447.99999999999994</ele><time>2026-03-22T11:49:01.264Z</time></trkpt><trkpt lat="43.426074538715554" lon="11.950866039999148"><ele>447.99999999999994</ele><time>2026-03-22T11:49:02.268Z</time></trkpt><trkpt lat="43.42609176239403" lon="11.95074833631161"><ele>448.0</ele><time>2026-03-22T11:49:04.265Z</time></trkpt><trkpt lat="43.42604168682523" lon="11.95068642291793"><ele>448.0</ele><time>2026-03-22T11:49:07.264Z</time></trkpt><trkpt lat="43.42592157286776" lon="11.95058275596707"><ele>448.59999999999997</ele><time>2026-03-22T11:49:09.266Z</time></trkpt><trkpt lat="43.42585203792893" lon="11.950499573784654"><ele>449.19999999999993</ele><time>2026-03-22T11:49:10.268Z</time></trkpt><trkpt lat="43.42582692527237" lon="11.95038050604627"><ele>449.8</ele><time>2026-03-22T11:49:11.264Z</time></trkpt><trkpt lat="43.4258233473631" lon="11.950230141978082"><ele>450.4</ele><time>2026-03-22T11:49:12.264Z</time></trkpt><trkpt lat="43.425841716460724" lon="11.950033083781998"><ele>451.0</ele><time>2026-03-22T11:49:13.264Z</time></trkpt><trkpt lat="43.42587614018641" lon="11.949824190571558"><ele>451.0</ele><time>2026-03-22T11:49:14.265Z</time></trkpt><trkpt lat="43.42591803734313" lon="11.949645816373588"><ele>451.0</ele><time>2026-03-22T11:49:15.264Z</time></trkpt><trkpt lat="43.425976637983794" lon="11.949489882338895"><ele>451.0</ele><time>2026-03-22T11:49:16.266Z</time></trkpt><trkpt lat="43.42604762456852" lon="11.949342293173912"><ele>451.0</ele><time>2026-03-22T11:49:17.266Z</time></trkpt><trkpt lat="43.42612014834144" lon="11.949183267397238"><ele>451.25</ele><time>2026-03-22T11:49:18.266Z</time></trkpt><trkpt lat="43.42619534681706" lon="11.949016046316816"><ele>451.5</ele><time>2026-03-22T11:49:19.265Z</time></trkpt><trkpt lat="43.42626707407481" lon="11.948855221498842"><ele>451.75</ele><time>2026-03-22T11:49:20.267Z</time></trkpt><trkpt lat="43.42633489740126" lon="11.94869758728981"><ele>452.0</ele><time>2026-03-22T11:49:21.265Z</time></trkpt><trkpt lat="43.426395829173615" lon="11.948538824932625"><ele>451.75</ele><time>2026-03-22T11:49:22.266Z</time></trkpt><trkpt lat="43.42644452356616" lon="11.948396728254513"><ele>451.5</ele><time>2026-03-22T11:49:23.266Z</time></trkpt><trkpt lat="43.426479194764525" lon="11.94826233621655"><ele>451.25</ele><time>2026-03-22T11:49:24.272Z</time></trkpt><trkpt lat="43.42650607131152" lon="11.948112123558516"><ele>451.0</ele><time>2026-03-22T11:49:25.264Z</time></trkpt><trkpt lat="43.42651914031854" lon="11.947947701236455"><ele>451.0</ele><time>2026-03-22T11:49:26.266Z</time></trkpt><trkpt lat="43.42652218384027" lon="11.947774366575308"><ele>451.0</ele><time>2026-03-22T11:49:27.265Z</time></trkpt><trkpt lat="43.42651116436719" lon="11.947595393161492"><ele>451.0</ele><time>2026-03-22T11:49:28.265Z</time></trkpt><trkpt lat="43.42649823113364" lon="11.947411868299632"><ele>451.0</ele><time>2026-03-22T11:49:29.264Z</time></trkpt><trkpt lat="43.426477175066175" lon="11.947226790031173"><ele>451.75</ele><time>2026-03-22T11:49:30.265Z</time></trkpt><trkpt lat="43.42645742848178" lon="11.94705308764893"><ele>452.5</ele><time>2026-03-22T11:49:31.264Z</time></trkpt><trkpt lat="43.42644416430449" lon="11.946879673369256"><ele>453.25</ele><time>2026-03-22T11:49:32.266Z</time></trkpt><trkpt lat="43.426427783731235" lon="11.946715526648365"><ele>454.0</ele><time>2026-03-22T11:49:33.264Z</time></trkpt><trkpt lat="43.42641966249369" lon="11.946536914726925"><ele>454.25</ele><time>2026-03-22T11:49:34.265Z</time></trkpt><trkpt lat="43.42641183515603" lon="11.946356841926058"><ele>454.5</ele><time>2026-03-22T11:49:35.264Z</time></trkpt><trkpt lat="43.42642762657501" lon="11.94618151585273"><ele>454.75</ele><time>2026-03-22T11:49:36.264Z</time></trkpt><trkpt lat="43.42646361368906" lon="11.94601046489769"><ele>455.0</ele><time>2026-03-22T11:49:37.265Z</time></trkpt><trkpt lat="43.42651135511108" lon="11.945843623781736"><ele>456.5</ele><time>2026-03-22T11:49:38.265Z</time></trkpt><trkpt lat="43.426563123467034" lon="11.9456739858595"><ele>458.0</ele><time>2026-03-22T11:49:39.267Z</time></trkpt><trkpt lat="43.426609724475675" lon="11.945489948296874"><ele>459.5</ele><time>2026-03-22T11:49:40.266Z</time></trkpt><trkpt lat="43.42665255093766" lon="11.945319701628497"><ele>461.0</ele><time>2026-03-22T11:49:41.263Z</time></trkpt><trkpt lat="43.42668435027763" lon="11.945156572316295"><ele>462.6</ele><time>2026-03-22T11:49:42.265Z</time></trkpt><trkpt lat="43.426701022409915" lon="11.944989618248664"><ele>464.20000000000005</ele><time>2026-03-22T11:49:43.268Z</time></trkpt><trkpt lat="43.426733787990045" lon="11.944838248224997"><ele>465.79999999999995</ele><time>2026-03-22T11:49:44.267Z</time></trkpt><trkpt lat="43.42673438483948" lon="11.944702962349877"><ele>467.4</ele><time>2026-03-22T11:49:45.267Z</time></trkpt><trkpt lat="43.426738495525036" lon="11.944557518160842"><ele>469.0</ele><time>2026-03-22T11:49:46.264Z</time></trkpt><trkpt lat="43.426743978212976" lon="11.944401808167454"><ele>469.0</ele><time>2026-03-22T11:49:47.265Z</time></trkpt><trkpt lat="43.42673552146075" lon="11.944258542897622"><ele>469.0</ele><time>2026-03-22T11:49:48.267Z</time></trkpt><trkpt lat="43.426724133090644" lon="11.944127529828982"><ele>469.0</ele><time>2026-03-22T11:49:49.266Z</time></trkpt><trkpt lat="43.42671967479321" lon="11.943988660111591"><ele>469.0</ele><time>2026-03-22T11:49:50.267Z</time></trkpt><trkpt lat="43.426696831381804" lon="11.943834526359419"><ele>469.0</ele><time>2026-03-22T11:49:51.265Z</time></trkpt><trkpt lat="43.42667303377851" lon="11.94366602150321"><ele>468.6</ele><time>2026-03-22T11:49:52.265Z</time></trkpt><trkpt lat="43.42664629643702" lon="11.943502552012573"><ele>468.2</ele><time>2026-03-22T11:49:53.265Z</time></trkpt><trkpt lat="43.426615753377334" lon="11.943379188551793"><ele>467.80000000000007</ele><time>2026-03-22T11:49:54.265Z</time></trkpt><trkpt lat="43.42655927998624" lon="11.943247453123762"><ele>467.40000000000003</ele><time>2026-03-22T11:49:55.265Z</time></trkpt><trkpt lat="43.42648896523006" lon="11.94311211748597"><ele>467.0</ele><time>2026-03-22T11:49:56.266Z</time></trkpt><trkpt lat="43.426417531147216" lon="11.942985619421087"><ele>466.25</ele><time>2026-03-22T11:49:57.265Z</time></trkpt><trkpt lat="43.426337967529975" lon="11.942871765707807"><ele>465.5</ele><time>2026-03-22T11:49:58.264Z</time></trkpt><trkpt lat="43.426236129341696" lon="11.942796651687928"><ele>464.75</ele><time>2026-03-22T11:49:59.264Z</time></trkpt><trkpt lat="43.42613295426432" lon="11.942736976620704"><ele>464.0</ele><time>2026-03-22T11:50:00.266Z</time></trkpt><trkpt lat="43.42602585385236" lon="11.942684811445142"><ele>463.75</ele><time>2026-03-22T11:50:01.266Z</time></trkpt><trkpt lat="43.42589695804222" lon="11.942632341369059"><ele>463.5</ele><time>2026-03-22T11:50:02.271Z</time></trkpt><trkpt lat="43.42578765957036" lon="11.942571990392668"><ele>463.25</ele><time>2026-03-22T11:50:03.267Z</time></trkpt><trkpt lat="43.425673471275026" lon="11.94248883396732"><ele>463.0</ele><time>2026-03-22T11:50:04.267Z</time></trkpt><trkpt lat="43.42555598281137" lon="11.942417112621058"><ele>464.25</ele><time>2026-03-22T11:50:05.264Z</time></trkpt><trkpt lat="43.425440972589655" lon="11.942339821725353"><ele>465.5</ele><time>2026-03-22T11:50:06.268Z</time></trkpt><trkpt lat="43.42532213432823" lon="11.942266951696231"><ele>466.75</ele><time>2026-03-22T11:50:07.265Z</time></trkpt><trkpt lat="43.425226545700575" lon="11.942213575512739"><ele>468.0</ele><time>2026-03-22T11:50:08.265Z</time></trkpt><trkpt lat="43.42510427057866" lon="11.942139047944643"><ele>468.0</ele><time>2026-03-22T11:50:09.264Z</time></trkpt><trkpt lat="43.42500187712525" lon="11.942070039377771"><ele>467.99999999999994</ele><time>2026-03-22T11:50:10.266Z</time></trkpt><trkpt lat="43.424887115683305" lon="11.942005601266814"><ele>467.99999999999994</ele><time>2026-03-22T11:50:11.265Z</time></trkpt><trkpt lat="43.424791295099716" lon="11.941933121629782"><ele>468.0</ele><time>2026-03-22T11:50:12.265Z</time></trkpt><trkpt lat="43.424715074490365" lon="11.941842193270231"><ele>468.0</ele><time>2026-03-22T11:50:13.265Z</time></trkpt><trkpt lat="43.424643249773645" lon="11.941723062078822"><ele>470.5</ele><time>2026-03-22T11:50:14.265Z</time></trkpt><trkpt lat="43.424531567889794" lon="11.94161073472892"><ele>473.0</ele><time>2026-03-22T11:50:15.265Z</time></trkpt><trkpt lat="43.424424805640214" lon="11.941499012978987"><ele>475.5</ele><time>2026-03-22T11:50:16.266Z</time></trkpt><trkpt lat="43.42432629973021" lon="11.941387338188296"><ele>478.0</ele><time>2026-03-22T11:50:17.266Z</time></trkpt><trkpt lat="43.424224307436894" lon="11.941278594321828"><ele>478.0</ele><time>2026-03-22T11:50:18.266Z</time></trkpt><trkpt lat="43.424145944480856" lon="11.941201653744214"><ele>477.99999999999994</ele><time>2026-03-22T11:50:19.266Z</time></trkpt><trkpt lat="43.42406545552603" lon="11.941120477902897"><ele>477.99999999999994</ele><time>2026-03-22T11:50:20.266Z</time></trkpt><trkpt lat="43.42397159485052" lon="11.941006439622099"><ele>478.0</ele><time>2026-03-22T11:50:21.266Z</time></trkpt><trkpt lat="43.423875964175714" lon="11.940900883161111"><ele>478.0</ele><time>2026-03-22T11:50:22.269Z</time></trkpt><trkpt lat="43.4237920935944" lon="11.940798787158625"><ele>477.4</ele><time>2026-03-22T11:50:23.269Z</time></trkpt><trkpt lat="43.423736577931464" lon="11.940688574774198"><ele>476.79999999999995</ele><time>2026-03-22T11:50:24.266Z</time></trkpt><trkpt lat="43.42364241950781" lon="11.940629986173683"><ele>476.2</ele><time>2026-03-22T11:50:25.266Z</time></trkpt><trkpt lat="43.42355155201457" lon="11.94058020750266"><ele>475.6</ele><time>2026-03-22T11:50:26.266Z</time></trkpt><trkpt lat="43.42343178578482" lon="11.940544969007986"><ele>475.0</ele><time>2026-03-22T11:50:27.265Z</time></trkpt><trkpt lat="43.423311013942225" lon="11.940524752926587"><ele>475.0</ele><time>2026-03-22T11:50:28.266Z</time></trkpt><trkpt lat="43.42318971148313" lon="11.940531502644378"><ele>475.0</ele><time>2026-03-22T11:50:29.264Z</time></trkpt><trkpt lat="43.42306888056955" lon="11.94056042939706"><ele>475.0</ele><time>2026-03-22T11:50:30.264Z</time></trkpt><trkpt lat="43.422950164242074" lon="11.94061100737634"><ele>475.0</ele><time>2026-03-22T11:50:31.264Z</time></trkpt><trkpt lat="43.422829460661795" lon="11.940671781746314"><ele>477.2</ele><time>2026-03-22T11:50:32.265Z</time></trkpt><trkpt lat="43.42271130108582" lon="11.940704807241113"><ele>479.4</ele><time>2026-03-22T11:50:33.265Z</time></trkpt><trkpt lat="43.42259504514058" lon="11.940718950665996"><ele>481.6</ele><time>2026-03-22T11:50:34.265Z</time></trkpt><trkpt lat="43.422507777508756" lon="11.940714432366727"><ele>483.8</ele><time>2026-03-22T11:50:35.265Z</time></trkpt><trkpt lat="43.42242279774786" lon="11.940719569333698"><ele>486.0</ele><time>2026-03-22T11:50:36.266Z</time></trkpt><trkpt lat="43.4223167698239" lon="11.940698913153826"><ele>486.0</ele><time>2026-03-22T11:50:37.264Z</time></trkpt><trkpt lat="43.422219969256915" lon="11.94066683169185"><ele>486.0</ele><time>2026-03-22T11:50:38.266Z</time></trkpt><trkpt lat="43.422107771466116" lon="11.940610045536724"><ele>486.0</ele><time>2026-03-22T11:50:39.264Z</time></trkpt><trkpt lat="43.42201936676245" lon="11.940550801131815"><ele>486.0</ele><time>2026-03-22T11:50:40.264Z</time></trkpt><trkpt lat="43.42192567586986" lon="11.940482821887315"><ele>486.0</ele><time>2026-03-22T11:50:41.263Z</time></trkpt><trkpt lat="43.421837603035044" lon="11.940399058348174"><ele>486.0</ele><time>2026-03-22T11:50:42.265Z</time></trkpt><trkpt lat="43.42172907360885" lon="11.94031740229708"><ele>486.0</ele><time>2026-03-22T11:50:43.265Z</time></trkpt><trkpt lat="43.421633764729194" lon="11.940254881888995"><ele>486.0</ele><time>2026-03-22T11:50:44.265Z</time></trkpt><trkpt lat="43.42153647437719" lon="11.940197417051257"><ele>486.0</ele><time>2026-03-22T11:50:45.265Z</time></trkpt><trkpt lat="43.42143518409177" lon="11.940132565347207"><ele>486.0</ele><time>2026-03-22T11:50:46.265Z</time></trkpt><trkpt lat="43.42136580352805" lon="11.94005868163475"><ele>485.8</ele><time>2026-03-22T11:50:47.264Z</time></trkpt><trkpt lat="43.42128877029896" lon="11.940009629170003"><ele>485.6</ele><time>2026-03-22T11:50:48.266Z</time></trkpt><trkpt lat="43.42120488883472" lon="11.939947605824164"><ele>485.4</ele><time>2026-03-22T11:50:49.266Z</time></trkpt><trkpt lat="43.42111929866796" lon="11.939912238819357"><ele>485.2</ele><time>2026-03-22T11:50:50.265Z</time></trkpt><trkpt lat="43.42102968070926" lon="11.939866635791239"><ele>485.0</ele><time>2026-03-22T11:50:51.264Z</time></trkpt><trkpt lat="43.42093689670668" lon="11.939849011214582"><ele>484.99999999999994</ele><time>2026-03-22T11:50:52.265Z</time></trkpt><trkpt lat="43.420871442338935" lon="11.939823850633335"><ele>485.0</ele><time>2026-03-22T11:50:53.265Z</time></trkpt><trkpt lat="43.420802529788496" lon="11.939801583365586"><ele>485.0</ele><time>2026-03-22T11:50:54.266Z</time></trkpt><trkpt lat="43.420738111438524" lon="11.93975895887486"><ele>485.0</ele><time>2026-03-22T11:50:55.265Z</time></trkpt><trkpt lat="43.42064485966707" lon="11.939717955218265"><ele>484.99999999999994</ele><time>2026-03-22T11:50:56.265Z</time></trkpt><trkpt lat="43.42055724108134" lon="11.93968122022317"><ele>485.0</ele><time>2026-03-22T11:50:57.265Z</time></trkpt><trkpt lat="43.420474932858085" lon="11.939638749884239"><ele>487.3333333333333</ele><time>2026-03-22T11:50:58.265Z</time></trkpt><trkpt lat="43.42034381742952" lon="11.93961604419023"><ele>489.66666666666663</ele><time>2026-03-22T11:51:00.265Z</time></trkpt><trkpt lat="43.420279256493124" lon="11.939585741195513"><ele>492.0</ele><time>2026-03-22T11:51:01.261Z</time></trkpt><trkpt lat="43.420202724879594" lon="11.939553999126629"><ele>494.33333333333337</ele><time>2026-03-22T11:51:02.262Z</time></trkpt><trkpt lat="43.42013026598898" lon="11.939523273727279"><ele>496.6666666666667</ele><time>2026-03-22T11:51:03.26Z</time></trkpt><trkpt lat="43.420055677718736" lon="11.939493324375281"><ele>499.0</ele><time>2026-03-22T11:51:04.261Z</time></trkpt><trkpt lat="43.41998121781721" lon="11.939465619683817"><ele>499.0</ele><time>2026-03-22T11:51:05.26Z</time></trkpt><trkpt lat="43.41990939673926" lon="11.939437829700678"><ele>499.0</ele><time>2026-03-22T11:51:06.259Z</time></trkpt><trkpt lat="43.419725696000135" lon="11.939348329016726"><ele>499.0</ele><time>2026-03-22T11:51:09.266Z</time></trkpt><trkpt lat="43.41951908637002" lon="11.939075709929199"><ele>497.0</ele><time>2026-03-22T11:51:10.267Z</time></trkpt><trkpt lat="43.41942970881099" lon="11.938996567422494"><ele>495.0</ele><time>2026-03-22T11:51:11.264Z</time></trkpt><trkpt lat="43.41934167765046" lon="11.938927141191957"><ele>493.0</ele><time>2026-03-22T11:51:12.266Z</time></trkpt><trkpt lat="43.41926071848403" lon="11.938881217696046"><ele>491.0</ele><time>2026-03-22T11:51:13.267Z</time></trkpt><trkpt lat="43.41919703171584" lon="11.938839125997875"><ele>489.0</ele><time>2026-03-22T11:51:14.267Z</time></trkpt><trkpt lat="43.419124532990004" lon="11.938775704810407"><ele>489.0</ele><time>2026-03-22T11:51:15.268Z</time></trkpt><trkpt lat="43.419063508137846" lon="11.938744869993405"><ele>489.0</ele><time>2026-03-22T11:51:16.265Z</time></trkpt><trkpt lat="43.419006821196376" lon="11.938685877196708"><ele>489.0</ele><time>2026-03-22T11:51:17.266Z</time></trkpt><trkpt lat="43.41891790980758" lon="11.938636066287495"><ele>489.0</ele><time>2026-03-22T11:51:18.266Z</time></trkpt><trkpt lat="43.41880916120904" lon="11.938565221430808"><ele>489.0</ele><time>2026-03-22T11:51:19.264Z</time></trkpt><trkpt lat="43.41873485750591" lon="11.938495355002024"><ele>489.0</ele><time>2026-03-22T11:51:20.266Z</time></trkpt><trkpt lat="43.418634015547816" lon="11.938412105897465"><ele>489.4</ele><time>2026-03-22T11:51:21.262Z</time></trkpt><trkpt lat="43.41855945411912" lon="11.938350443982964"><ele>489.79999999999995</ele><time>2026-03-22T11:51:22.266Z</time></trkpt><trkpt lat="43.41848919395022" lon="11.938303120563097"><ele>490.20000000000005</ele><time>2026-03-22T11:51:23.266Z</time></trkpt><trkpt lat="43.41842185643033" lon="11.938264399945208"><ele>490.6</ele><time>2026-03-22T11:51:24.266Z</time></trkpt><trkpt lat="43.41833103364049" lon="11.938190356392875"><ele>491.0</ele><time>2026-03-22T11:51:26.266Z</time></trkpt><trkpt lat="43.418240734108224" lon="11.938092262308214"><ele>491.0</ele><time>2026-03-22T11:51:28.262Z</time></trkpt><trkpt lat="43.41819360075653" lon="11.938027936163886"><ele>490.99999999999994</ele><time>2026-03-22T11:51:29.262Z</time></trkpt><trkpt lat="43.41814625112206" lon="11.937965262866292"><ele>491.0</ele><time>2026-03-22T11:51:30.261Z</time></trkpt><trkpt lat="43.418097991126615" lon="11.937904314086975"><ele>491.0</ele><time>2026-03-22T11:51:31.261Z</time></trkpt><trkpt lat="43.41801283993817" lon="11.937791248982647"><ele>490.99999999999994</ele><time>2026-03-22T11:51:33.261Z</time></trkpt><trkpt lat="43.41796854059695" lon="11.937728516869694"><ele>491.0</ele><time>2026-03-22T11:51:34.262Z</time></trkpt><trkpt lat="43.41792303364578" lon="11.937660715983881"><ele>491.0</ele><time>2026-03-22T11:51:35.259Z</time></trkpt><trkpt lat="43.41781566638868" lon="11.937456125122738"><ele>498.0</ele><time>2026-03-22T11:51:38.267Z</time></trkpt><trkpt lat="43.41770236399076" lon="11.937121824155621"><ele>505.0</ele><time>2026-03-22T11:51:39.265Z</time></trkpt><trkpt lat="43.417659170529575" lon="11.936992437546927"><ele>512.0</ele><time>2026-03-22T11:51:40.265Z</time></trkpt><trkpt lat="43.41759156952594" lon="11.936882133649576"><ele>512.0</ele><time>2026-03-22T11:51:41.266Z</time></trkpt><trkpt lat="43.41753896268718" lon="11.936738679926847"><ele>512.0</ele><time>2026-03-22T11:51:43.269Z</time></trkpt><trkpt lat="43.41749014299116" lon="11.936647995587725"><ele>512.0</ele><time>2026-03-22T11:51:44.265Z</time></trkpt><trkpt lat="43.417423771579486" lon="11.936561701019922"><ele>512.0</ele><time>2026-03-22T11:51:45.267Z</time></trkpt><trkpt lat="43.41736305002349" lon="11.936472387719434"><ele>512.0</ele><time>2026-03-22T11:51:46.266Z</time></trkpt><trkpt lat="43.41727638199423" lon="11.936370969724313"><ele>514.8000000000001</ele><time>2026-03-22T11:51:47.265Z</time></trkpt><trkpt lat="43.41721313350378" lon="11.936256159011808"><ele>517.6</ele><time>2026-03-22T11:51:48.265Z</time></trkpt><trkpt lat="43.41713471840869" lon="11.93617745733247"><ele>520.4000000000001</ele><time>2026-03-22T11:51:49.266Z</time></trkpt><trkpt lat="43.41709939992585" lon="11.936087341978482"><ele>523.2</ele><time>2026-03-22T11:51:51.266Z</time></trkpt><trkpt lat="43.41701839093859" lon="11.936028883127324"><ele>526.0</ele><time>2026-03-22T11:51:54.265Z</time></trkpt><trkpt lat="43.41694524614961" lon="11.935957352239518"><ele>520.6</ele><time>2026-03-22T11:51:55.265Z</time></trkpt><trkpt lat="43.41690175080668" lon="11.935878854275535"><ele>515.2</ele><time>2026-03-22T11:51:56.266Z</time></trkpt><trkpt lat="43.41681236500925" lon="11.935760209112793"><ele>509.79999999999995</ele><time>2026-03-22T11:51:58.266Z</time></trkpt><trkpt lat="43.4167426856375" lon="11.93566779303141"><ele>504.4</ele><time>2026-03-22T11:51:59.267Z</time></trkpt><trkpt lat="43.4166682978883" lon="11.935611213331176"><ele>499.0</ele><time>2026-03-22T11:52:00.266Z</time></trkpt><trkpt lat="43.41657868324776" lon="11.935530118110435"><ele>499.0</ele><time>2026-03-22T11:52:01.264Z</time></trkpt><trkpt lat="43.41648342330651" lon="11.935438836714077"><ele>499.0</ele><time>2026-03-22T11:52:02.265Z</time></trkpt><trkpt lat="43.41637575962856" lon="11.935342585222283"><ele>499.0</ele><time>2026-03-22T11:52:03.266Z</time></trkpt><trkpt lat="43.416289353677" lon="11.935243745808883"><ele>499.0</ele><time>2026-03-22T11:52:04.266Z</time></trkpt><trkpt lat="43.41622873702056" lon="11.935171019389172"><ele>499.0</ele><time>2026-03-22T11:52:05.266Z</time></trkpt><trkpt lat="43.41616398216136" lon="11.93512294160051"><ele>498.33333333333337</ele><time>2026-03-22T11:52:06.267Z</time></trkpt><trkpt lat="43.41607762634318" lon="11.93506914838551"><ele>497.6666666666667</ele><time>2026-03-22T11:52:07.266Z</time></trkpt><trkpt lat="43.416016593812664" lon="11.93504421627752"><ele>497.0</ele><time>2026-03-22T11:52:08.265Z</time></trkpt><trkpt lat="43.41593167785927" lon="11.934920131785901"><ele>496.33333333333337</ele><time>2026-03-22T11:52:10.267Z</time></trkpt><trkpt lat="43.4158812875752" lon="11.934835714431491"><ele>495.6666666666667</ele><time>2026-03-22T11:52:11.266Z</time></trkpt><trkpt lat="43.41582116250534" lon="11.934779709361642"><ele>495.0</ele><time>2026-03-22T11:52:12.268Z</time></trkpt><trkpt lat="43.41572424695962" lon="11.934693279523568"><ele>495.0</ele><time>2026-03-22T11:52:14.266Z</time></trkpt><trkpt lat="43.41566982015398" lon="11.934648134517257"><ele>495.0</ele><time>2026-03-22T11:52:15.265Z</time></trkpt><trkpt lat="43.415612267968854" lon="11.934599059062664"><ele>495.0</ele><time>2026-03-22T11:52:16.262Z</time></trkpt><trkpt lat="43.41550606699166" lon="11.934501509413654"><ele>495.0</ele><time>2026-03-22T11:52:18.259Z</time></trkpt><trkpt lat="43.415406264912015" lon="11.934413690035043"><ele>495.0</ele><time>2026-03-22T11:52:20.26Z</time></trkpt><trkpt lat="43.415313323282554" lon="11.934318659136189"><ele>509.0</ele><time>2026-03-22T11:52:22.26Z</time></trkpt><trkpt lat="43.415231774296764" lon="11.934229430191051"><ele>523.0</ele><time>2026-03-22T11:52:24.268Z</time></trkpt><trkpt lat="43.41509678276416" lon="11.933568924345602"><ele>523.0</ele><time>2026-03-22T11:52:25.266Z</time></trkpt><trkpt lat="43.41503158298916" lon="11.933451607124852"><ele>523.0</ele><time>2026-03-22T11:52:26.268Z</time></trkpt><trkpt lat="43.41497149687815" lon="11.93333942457197"><ele>523.0</ele><time>2026-03-22T11:52:27.269Z</time></trkpt><trkpt lat="43.41493968075962" lon="11.933233572397413"><ele>523.0</ele><time>2026-03-22T11:52:28.269Z</time></trkpt><trkpt lat="43.414952185190685" lon="11.93307014074019"><ele>523.0</ele><time>2026-03-22T11:52:29.267Z</time></trkpt><trkpt lat="43.41494736289044" lon="11.932891539627905"><ele>519.4</ele><time>2026-03-22T11:52:30.269Z</time></trkpt><trkpt lat="43.41495534882122" lon="11.932708241958787"><ele>515.8</ele><time>2026-03-22T11:52:31.269Z</time></trkpt><trkpt lat="43.41497485527494" lon="11.932568041543055"><ele>512.2</ele><time>2026-03-22T11:52:32.268Z</time></trkpt><trkpt lat="43.41501264541031" lon="11.932460473317244"><ele>508.6</ele><time>2026-03-22T11:52:33.269Z</time></trkpt><trkpt lat="43.41512279575778" lon="11.932411661690429"><ele>505.0</ele><time>2026-03-22T11:52:35.266Z</time></trkpt><trkpt lat="43.415173973316826" lon="11.932462797207158"><ele>505.0</ele><time>2026-03-22T11:52:36.268Z</time></trkpt><trkpt lat="43.41524180557738" lon="11.932617980709427"><ele>505.0</ele><time>2026-03-22T11:52:38.269Z</time></trkpt><trkpt lat="43.41528513612718" lon="11.93270139629789"><ele>505.0</ele><time>2026-03-22T11:52:39.268Z</time></trkpt><trkpt lat="43.41535093405176" lon="11.932786292329828"><ele>505.0</ele><time>2026-03-22T11:52:40.267Z</time></trkpt><trkpt lat="43.41543736177581" lon="11.932859960783736"><ele>505.0</ele><time>2026-03-22T11:52:41.268Z</time></trkpt><trkpt lat="43.41553343052833" lon="11.93294735656954"><ele>503.0</ele><time>2026-03-22T11:52:42.269Z</time></trkpt><trkpt lat="43.41563636760142" lon="11.933039037156322"><ele>501.0</ele><time>2026-03-22T11:52:43.269Z</time></trkpt><trkpt lat="43.41574607376205" lon="11.933120409095045"><ele>499.0</ele><time>2026-03-22T11:52:44.267Z</time></trkpt><trkpt lat="43.41584877364665" lon="11.933181315813826"><ele>497.0</ele><time>2026-03-22T11:52:45.27Z</time></trkpt><trkpt lat="43.41596494968342" lon="11.933247071631694"><ele>497.0</ele><time>2026-03-22T11:52:46.268Z</time></trkpt><trkpt lat="43.41606208706131" lon="11.933327182003513"><ele>497.0</ele><time>2026-03-22T11:52:47.268Z</time></trkpt><trkpt lat="43.41613480371202" lon="11.933448898604935"><ele>497.0</ele><time>2026-03-22T11:52:48.268Z</time></trkpt><trkpt lat="43.41619299012532" lon="11.933610836334754"><ele>497.0</ele><time>2026-03-22T11:52:49.267Z</time></trkpt><trkpt lat="43.41625341467232" lon="11.933744585894601"><ele>497.49999999999994</ele><time>2026-03-22T11:52:50.269Z</time></trkpt><trkpt lat="43.41633748049514" lon="11.933849177800306"><ele>498.0</ele><time>2026-03-22T11:52:51.269Z</time></trkpt><trkpt lat="43.41640101674395" lon="11.93392781338046"><ele>498.5</ele><time>2026-03-22T11:52:52.269Z</time></trkpt><trkpt lat="43.4164711850749" lon="11.933984658948841"><ele>499.0</ele><time>2026-03-22T11:52:53.268Z</time></trkpt><trkpt lat="43.41653252043269" lon="11.93401315380649"><ele>499.49999999999994</ele><time>2026-03-22T11:52:54.269Z</time></trkpt><trkpt lat="43.41658853702341" lon="11.933952874183822"><ele>500.0</ele><time>2026-03-22T11:52:56.269Z</time></trkpt><trkpt lat="43.416545464714204" lon="11.933826738201146"><ele>500.0</ele><time>2026-03-22T11:52:58.269Z</time></trkpt><trkpt lat="43.4164917693052" lon="11.93374525569857"><ele>500.0</ele><time>2026-03-22T11:52:59.27Z</time></trkpt><trkpt lat="43.41644909651047" lon="11.933634092174746"><ele>500.0</ele><time>2026-03-22T11:53:00.269Z</time></trkpt><trkpt lat="43.41642052443594" lon="11.933509013778309"><ele>500.0</ele><time>2026-03-22T11:53:01.27Z</time></trkpt><trkpt lat="43.41639839716091" lon="11.933366308708637"><ele>500.0</ele><time>2026-03-22T11:53:02.269Z</time></trkpt><trkpt lat="43.416381611578934" lon="11.933209106501758"><ele>499.25</ele><time>2026-03-22T11:53:03.268Z</time></trkpt><trkpt lat="43.41637668597003" lon="11.933042533024288"><ele>498.5</ele><time>2026-03-22T11:53:04.269Z</time></trkpt><trkpt lat="43.41636624851672" lon="11.93287062731369"><ele>497.75</ele><time>2026-03-22T11:53:05.269Z</time></trkpt><trkpt lat="43.41634251917173" lon="11.932718835310709"><ele>497.0</ele><time>2026-03-22T11:53:06.27Z</time></trkpt><trkpt lat="43.416302230810714" lon="11.93259732612723"><ele>499.40000000000003</ele><time>2026-03-22T11:53:07.27Z</time></trkpt><trkpt lat="43.41623671736283" lon="11.932496001263354"><ele>501.80000000000007</ele><time>2026-03-22T11:53:08.269Z</time></trkpt><trkpt lat="43.4161522405649" lon="11.932405447621472"><ele>504.2</ele><time>2026-03-22T11:53:09.269Z</time></trkpt><trkpt lat="43.4160612139102" lon="11.93231633216417"><ele>506.6</ele><time>2026-03-22T11:53:10.268Z</time></trkpt><trkpt lat="43.41599849741078" lon="11.932181521694064"><ele>509.0</ele><time>2026-03-22T11:53:11.27Z</time></trkpt><trkpt lat="43.4159363052193" lon="11.932071888027911"><ele>509.0</ele><time>2026-03-22T11:53:12.268Z</time></trkpt><trkpt lat="43.41585936993445" lon="11.932024362716158"><ele>509.0</ele><time>2026-03-22T11:53:13.27Z</time></trkpt><trkpt lat="43.41583462170507" lon="11.931855429187515"><ele>509.0</ele><time>2026-03-22T11:53:15.271Z</time></trkpt><trkpt lat="43.41585635006884" lon="11.93176390443041"><ele>509.0</ele><time>2026-03-22T11:53:16.276Z</time></trkpt><trkpt lat="43.415815255097186" lon="11.931617112800327"><ele>509.0</ele><time>2026-03-22T11:53:18.27Z</time></trkpt><trkpt lat="43.41575634405873" lon="11.931534287476016"><ele>510.79999999999995</ele><time>2026-03-22T11:53:19.27Z</time></trkpt><trkpt lat="43.415694448027985" lon="11.931452260915934"><ele>512.5999999999999</ele><time>2026-03-22T11:53:20.271Z</time></trkpt><trkpt lat="43.41564154894475" lon="11.931351347960275"><ele>514.4</ele><time>2026-03-22T11:53:21.269Z</time></trkpt><trkpt lat="43.41558494795169" lon="11.931225796189455"><ele>516.1999999999999</ele><time>2026-03-22T11:53:22.269Z</time></trkpt><trkpt lat="43.4155336785085" lon="11.931102674078698"><ele>518.0</ele><time>2026-03-22T11:53:23.269Z</time></trkpt><trkpt lat="43.41549016169302" lon="11.930984902929145"><ele>518.6</ele><time>2026-03-22T11:53:24.267Z</time></trkpt><trkpt lat="43.4154483166583" lon="11.93087045047745"><ele>519.1999999999999</ele><time>2026-03-22T11:53:25.268Z</time></trkpt><trkpt lat="43.41540534247396" lon="11.930767551160976"><ele>519.8</ele><time>2026-03-22T11:53:26.268Z</time></trkpt><trkpt lat="43.41535418828304" lon="11.93065026692215"><ele>520.4</ele><time>2026-03-22T11:53:27.267Z</time></trkpt><trkpt lat="43.41531409672033" lon="11.930531082486258"><ele>521.0</ele><time>2026-03-22T11:53:28.268Z</time></trkpt><trkpt lat="43.415289162632014" lon="11.930378500720034"><ele>521.0</ele><time>2026-03-22T11:53:29.269Z</time></trkpt><trkpt lat="43.41529109980464" lon="11.930201706029857"><ele>521.0</ele><time>2026-03-22T11:53:30.27Z</time></trkpt><trkpt lat="43.415301192693455" lon="11.93003190071588"><ele>521.0</ele><time>2026-03-22T11:53:31.27Z</time></trkpt><trkpt lat="43.4152977153899" lon="11.929872511720585"><ele>521.0</ele><time>2026-03-22T11:53:32.27Z</time></trkpt><trkpt lat="43.41527806439498" lon="11.92971241522156"><ele>521.8</ele><time>2026-03-22T11:53:33.27Z</time></trkpt><trkpt lat="43.415246026727914" lon="11.92955814624916"><ele>522.6</ele><time>2026-03-22T11:53:34.27Z</time></trkpt><trkpt lat="43.4152042052818" lon="11.929412116010429"><ele>523.4</ele><time>2026-03-22T11:53:35.27Z</time></trkpt><trkpt lat="43.41515140674308" lon="11.929281573233833"><ele>524.2</ele><time>2026-03-22T11:53:36.271Z</time></trkpt><trkpt lat="43.415086406744656" lon="11.929163694236923"><ele>525.0</ele><time>2026-03-22T11:53:37.268Z</time></trkpt><trkpt lat="43.41500715895296" lon="11.92905631370516"><ele>526.6</ele><time>2026-03-22T11:53:38.269Z</time></trkpt><trkpt lat="43.414925731241986" lon="11.928942464910033"><ele>528.2</ele><time>2026-03-22T11:53:39.27Z</time></trkpt><trkpt lat="43.41485202582679" lon="11.928825826460013"><ele>529.8</ele><time>2026-03-22T11:53:40.271Z</time></trkpt><trkpt lat="43.41480431742237" lon="11.92870499730416"><ele>531.4</ele><time>2026-03-22T11:53:41.269Z</time></trkpt><trkpt lat="43.41479647243762" lon="11.928570575663363"><ele>533.0</ele><time>2026-03-22T11:53:42.27Z</time></trkpt><trkpt lat="43.41481693403304" lon="11.92843225589443"><ele>536.0</ele><time>2026-03-22T11:53:43.268Z</time></trkpt><trkpt lat="43.41486683013593" lon="11.928315540000945"><ele>539.0</ele><time>2026-03-22T11:53:44.273Z</time></trkpt><trkpt lat="43.41493161814594" lon="11.928198574114"><ele>542.0</ele><time>2026-03-22T11:53:45.27Z</time></trkpt><trkpt lat="43.414999530899316" lon="11.928051519555664"><ele>545.0</ele><time>2026-03-22T11:53:46.268Z</time></trkpt><trkpt lat="43.415044084293335" lon="11.927886723372097"><ele>545.0</ele><time>2026-03-22T11:53:47.27Z</time></trkpt><trkpt lat="43.41505956401573" lon="11.927699898570088"><ele>545.0</ele><time>2026-03-22T11:53:48.27Z</time></trkpt><trkpt lat="43.415073329539496" lon="11.927536201011787"><ele>545.0</ele><time>2026-03-22T11:53:49.27Z</time></trkpt><trkpt lat="43.41508830981683" lon="11.927367846575011"><ele>545.0</ele><time>2026-03-22T11:53:50.27Z</time></trkpt><trkpt lat="43.4150967682691" lon="11.927225387135001"><ele>546.0</ele><time>2026-03-22T11:53:51.27Z</time></trkpt><trkpt lat="43.41509220183578" lon="11.927079080049545"><ele>547.0</ele><time>2026-03-22T11:53:52.27Z</time></trkpt><trkpt lat="43.41507924097382" lon="11.92693104250532"><ele>548.0</ele><time>2026-03-22T11:53:53.272Z</time></trkpt><trkpt lat="43.415058544706426" lon="11.926794014708497"><ele>549.0</ele><time>2026-03-22T11:53:54.268Z</time></trkpt><trkpt lat="43.41506639772919" lon="11.926643633301051"><ele>550.0</ele><time>2026-03-22T11:53:55.269Z</time></trkpt><trkpt lat="43.415102957459474" lon="11.926504044167691"><ele>550.2</ele><time>2026-03-22T11:53:56.27Z</time></trkpt><trkpt lat="43.415153844740615" lon="11.926373673012275"><ele>550.4</ele><time>2026-03-22T11:53:57.27Z</time></trkpt><trkpt lat="43.4152121022307" lon="11.926251050241111"><ele>550.6</ele><time>2026-03-22T11:53:58.27Z</time></trkpt><trkpt lat="43.415272063179714" lon="11.926150482110542"><ele>550.8</ele><time>2026-03-22T11:53:59.269Z</time></trkpt><trkpt lat="43.41535158956875" lon="11.926064050773602"><ele>551.0</ele><time>2026-03-22T11:54:00.271Z</time></trkpt><trkpt lat="43.41544008503536" lon="11.92599740015192"><ele>551.6</ele><time>2026-03-22T11:54:01.271Z</time></trkpt><trkpt lat="43.415540243374735" lon="11.925949794820697"><ele>552.2</ele><time>2026-03-22T11:54:02.27Z</time></trkpt><trkpt lat="43.4156460159362" lon="11.925906560766604"><ele>552.8</ele><time>2026-03-22T11:54:03.269Z</time></trkpt><trkpt lat="43.41573360062742" lon="11.925857105851353"><ele>553.4</ele><time>2026-03-22T11:54:04.27Z</time></trkpt><trkpt lat="43.41582113498401" lon="11.925810305764154"><ele>554.0</ele><time>2026-03-22T11:54:05.271Z</time></trkpt><trkpt lat="43.415903218399805" lon="11.925777424761817"><ele>554.0</ele><time>2026-03-22T11:54:06.268Z</time></trkpt><trkpt lat="43.41599418601152" lon="11.925754730966123"><ele>554.0</ele><time>2026-03-22T11:54:07.269Z</time></trkpt><trkpt lat="43.416097292460144" lon="11.92575018698272"><ele>554.0</ele><time>2026-03-22T11:54:08.27Z</time></trkpt><trkpt lat="43.41618938098924" lon="11.92572514706363"><ele>554.0</ele><time>2026-03-22T11:54:09.271Z</time></trkpt><trkpt lat="43.41625511419947" lon="11.925685955945376"><ele>554.0</ele><time>2026-03-22T11:54:10.272Z</time></trkpt><trkpt lat="43.4163145546779" lon="11.925531569966038"><ele>556.8</ele><time>2026-03-22T11:54:12.269Z</time></trkpt><trkpt lat="43.41632523818945" lon="11.925396972628342"><ele>559.5999999999999</ele><time>2026-03-22T11:54:13.269Z</time></trkpt><trkpt lat="43.416320081980096" lon="11.925240678870964"><ele>562.4</ele><time>2026-03-22T11:54:14.267Z</time></trkpt><trkpt lat="43.41632251941429" lon="11.925084583917187"><ele>565.1999999999999</ele><time>2026-03-22T11:54:15.269Z</time></trkpt><trkpt lat="43.416323906655116" lon="11.924946095198006"><ele>568.0</ele><time>2026-03-22T11:54:16.268Z</time></trkpt><trkpt lat="43.41629590530245" lon="11.924813194847017"><ele>568.0</ele><time>2026-03-22T11:54:17.267Z</time></trkpt><trkpt lat="43.416302012709515" lon="11.924693961942133"><ele>568.0</ele><time>2026-03-22T11:54:18.267Z</time></trkpt><trkpt lat="43.41633148009771" lon="11.924557471295602"><ele>568.0</ele><time>2026-03-22T11:54:19.268Z</time></trkpt><trkpt lat="43.416374339866074" lon="11.924424905806964"><ele>568.0</ele><time>2026-03-22T11:54:20.268Z</time></trkpt><trkpt lat="43.416386828146884" lon="11.924304380089815"><ele>568.0</ele><time>2026-03-22T11:54:21.269Z</time></trkpt><trkpt lat="43.41636051270425" lon="11.924173920334804"><ele>569.4</ele><time>2026-03-22T11:54:22.269Z</time></trkpt><trkpt lat="43.41632428507896" lon="11.924005298090139"><ele>570.8</ele><time>2026-03-22T11:54:23.269Z</time></trkpt><trkpt lat="43.416304895932925" lon="11.923833157867868"><ele>572.2</ele><time>2026-03-22T11:54:24.267Z</time></trkpt><trkpt lat="43.41630385592437" lon="11.92369165834747"><ele>573.6</ele><time>2026-03-22T11:54:25.267Z</time></trkpt><trkpt lat="43.41633404918571" lon="11.923580571966756"><ele>575.0</ele><time>2026-03-22T11:54:26.267Z</time></trkpt><trkpt lat="43.41640032706758" lon="11.923491315187887"><ele>569.6</ele><time>2026-03-22T11:54:27.266Z</time></trkpt><trkpt lat="43.41648370123524" lon="11.923427205492262"><ele>564.2</ele><time>2026-03-22T11:54:28.268Z</time></trkpt><trkpt lat="43.41659841999886" lon="11.923370545891693"><ele>558.8</ele><time>2026-03-22T11:54:29.268Z</time></trkpt><trkpt lat="43.416696911507245" lon="11.923283584807493"><ele>553.4</ele><time>2026-03-22T11:54:30.269Z</time></trkpt><trkpt lat="43.41677857282661" lon="11.923173820070652"><ele>548.0</ele><time>2026-03-22T11:54:31.269Z</time></trkpt><trkpt lat="43.41684169290386" lon="11.923060039027641"><ele>548.0</ele><time>2026-03-22T11:54:32.269Z</time></trkpt><trkpt lat="43.416881769415745" lon="11.92295532680365"><ele>548.0</ele><time>2026-03-22T11:54:33.268Z</time></trkpt><trkpt lat="43.41687489593447" lon="11.922863605528114"><ele>548.0</ele><time>2026-03-22T11:54:34.269Z</time></trkpt><trkpt lat="43.416820361346" lon="11.922726829313932"><ele>548.0</ele><time>2026-03-22T11:54:36.27Z</time></trkpt><trkpt lat="43.41679631559557" lon="11.922623930486472"><ele>548.0</ele><time>2026-03-22T11:54:37.271Z</time></trkpt><trkpt lat="43.41677981425053" lon="11.922494372178326"><ele>548.0</ele><time>2026-03-22T11:54:38.272Z</time></trkpt><trkpt lat="43.41680190093686" lon="11.922339218379205"><ele>548.4</ele><time>2026-03-22T11:54:39.272Z</time></trkpt><trkpt lat="43.41684038603422" lon="11.922203797172546"><ele>548.8</ele><time>2026-03-22T11:54:40.27Z</time></trkpt><trkpt lat="43.41686703964886" lon="11.922079966218202"><ele>549.2</ele><time>2026-03-22T11:54:41.268Z</time></trkpt><trkpt lat="43.416896749042095" lon="11.92195936953327"><ele>549.6</ele><time>2026-03-22T11:54:42.27Z</time></trkpt><trkpt lat="43.416937797242866" lon="11.921852144049751"><ele>550.0</ele><time>2026-03-22T11:54:43.27Z</time></trkpt><trkpt lat="43.417002745464636" lon="11.92175860516057"><ele>548.1666666666667</ele><time>2026-03-22T11:54:44.269Z</time></trkpt><trkpt lat="43.41708552843416" lon="11.921680660015895"><ele>546.3333333333334</ele><time>2026-03-22T11:54:45.27Z</time></trkpt><trkpt lat="43.41716420223532" lon="11.921632009238778"><ele>544.5</ele><time>2026-03-22T11:54:46.269Z</time></trkpt><trkpt lat="43.41722631874235" lon="11.921558397983793"><ele>542.6666666666666</ele><time>2026-03-22T11:54:47.27Z</time></trkpt><trkpt lat="43.41727587315281" lon="11.921460972271781"><ele>540.8333333333333</ele><time>2026-03-22T11:54:48.27Z</time></trkpt><trkpt lat="43.417332587476665" lon="11.921377805520846"><ele>539.0</ele><time>2026-03-22T11:54:49.269Z</time></trkpt><trkpt lat="43.41740443780622" lon="11.921305363403405"><ele>539.0</ele><time>2026-03-22T11:54:50.27Z</time></trkpt><trkpt lat="43.41748557885646" lon="11.921253020398822"><ele>539.0</ele><time>2026-03-22T11:54:51.27Z</time></trkpt><trkpt lat="43.41758892185572" lon="11.921209702196444"><ele>539.0</ele><time>2026-03-22T11:54:52.271Z</time></trkpt><trkpt lat="43.417695113836565" lon="11.921191965511008"><ele>539.0</ele><time>2026-03-22T11:54:53.271Z</time></trkpt><trkpt lat="43.41779169677544" lon="11.921188280394047"><ele>539.0</ele><time>2026-03-22T11:54:54.27Z</time></trkpt><trkpt lat="43.41786659070527" lon="11.921181574174785"><ele>539.0</ele><time>2026-03-22T11:54:55.27Z</time></trkpt><trkpt lat="43.41796470825131" lon="11.921151525831096"><ele>539.0</ele><time>2026-03-22T11:54:57.272Z</time></trkpt><trkpt lat="43.417986744778325" lon="11.92104823154227"><ele>539.0</ele><time>2026-03-22T11:54:59.27Z</time></trkpt><trkpt lat="43.41789408154312" lon="11.92096786393053"><ele>539.0</ele><time>2026-03-22T11:55:01.273Z</time></trkpt><trkpt lat="43.41780879308334" lon="11.9209419682145"><ele>539.0</ele><time>2026-03-22T11:55:02.269Z</time></trkpt><trkpt lat="43.41768736723791" lon="11.920828072457956"><ele>536.4</ele><time>2026-03-22T11:55:04.277Z</time></trkpt><trkpt lat="43.4176322495212" lon="11.920708920599054"><ele>533.8</ele><time>2026-03-22T11:55:05.269Z</time></trkpt><trkpt lat="43.417575712622885" lon="11.920610706424494"><ele>531.2</ele><time>2026-03-22T11:55:06.268Z</time></trkpt><trkpt lat="43.417506471168466" lon="11.920530618140058"><ele>528.6</ele><time>2026-03-22T11:55:07.268Z</time></trkpt><trkpt lat="43.41742591055922" lon="11.920472197208898"><ele>526.0</ele><time>2026-03-22T11:55:08.275Z</time></trkpt><trkpt lat="43.417341383404356" lon="11.920421366455557"><ele>526.0</ele><time>2026-03-22T11:55:09.269Z</time></trkpt><trkpt lat="43.417249902103634" lon="11.920391814433925"><ele>526.0</ele><time>2026-03-22T11:55:10.268Z</time></trkpt><trkpt lat="43.41715567872477" lon="11.920372218952126"><ele>526.0</ele><time>2026-03-22T11:55:11.268Z</time></trkpt><trkpt lat="43.417066960272976" lon="11.920367262344824"><ele>526.0</ele><time>2026-03-22T11:55:12.269Z</time></trkpt><trkpt lat="43.416980582233705" lon="11.920365691082148"><ele>526.0</ele><time>2026-03-22T11:55:13.269Z</time></trkpt><trkpt lat="43.41690944558715" lon="11.920370948299645"><ele>526.0</ele><time>2026-03-22T11:55:14.269Z</time></trkpt><trkpt lat="43.416851020677" lon="11.920336713928538"><ele>525.0</ele><time>2026-03-22T11:55:15.269Z</time></trkpt><trkpt lat="43.416789539643275" lon="11.920292674637743"><ele>524.0</ele><time>2026-03-22T11:55:16.268Z</time></trkpt><trkpt lat="43.416714526191804" lon="11.920265805694033"><ele>523.0</ele><time>2026-03-22T11:55:17.27Z</time></trkpt><trkpt lat="43.41664253410695" lon="11.920283437957087"><ele>522.0</ele><time>2026-03-22T11:55:18.268Z</time></trkpt><trkpt lat="43.416568273504865" lon="11.920319463457176"><ele>521.0</ele><time>2026-03-22T11:55:19.267Z</time></trkpt><trkpt lat="43.416505583646405" lon="11.920357859206579"><ele>520.0</ele><time>2026-03-22T11:55:20.267Z</time></trkpt><trkpt lat="43.41641402829572" lon="11.920443199483227"><ele>520.0</ele><time>2026-03-22T11:55:22.266Z</time></trkpt><trkpt lat="43.41632554186834" lon="11.920486161988475"><ele>520.0</ele><time>2026-03-22T11:55:24.268Z</time></trkpt><trkpt lat="43.41619613614655" lon="11.920447515553505"><ele>520.0</ele><time>2026-03-22T11:55:26.268Z</time></trkpt><trkpt lat="43.41612181571444" lon="11.920396549173109"><ele>520.0</ele><time>2026-03-22T11:55:27.268Z</time></trkpt><trkpt lat="43.41605747995155" lon="11.920344535136266"><ele>520.0</ele><time>2026-03-22T11:55:28.269Z</time></trkpt><trkpt lat="43.4159991556921" lon="11.920284522161152"><ele>518.0</ele><time>2026-03-22T11:55:29.27Z</time></trkpt><trkpt lat="43.41594353741471" lon="11.920224915286175"><ele>516.0</ele><time>2026-03-22T11:55:30.269Z</time></trkpt><trkpt lat="43.41588187145341" lon="11.920171861824203"><ele>514.0</ele><time>2026-03-22T11:55:31.269Z</time></trkpt><trkpt lat="43.41582884936328" lon="11.92012271693727"><ele>512.0</ele><time>2026-03-22T11:55:32.27Z</time></trkpt><trkpt lat="43.41574898383785" lon="11.920002800973307"><ele>510.00000000000006</ele><time>2026-03-22T11:55:34.268Z</time></trkpt><trkpt lat="43.41567879791865" lon="11.91988459019718"><ele>508.0</ele><time>2026-03-22T11:55:36.276Z</time></trkpt><trkpt lat="43.41567376953892" lon="11.919775102120886"><ele>505.6666666666667</ele><time>2026-03-22T11:55:37.27Z</time></trkpt><trkpt lat="43.41571011052095" lon="11.919650543238726"><ele>503.33333333333337</ele><time>2026-03-22T11:55:38.269Z</time></trkpt><trkpt lat="43.41575834317303" lon="11.919524974187736"><ele>501.0</ele><time>2026-03-22T11:55:39.27Z</time></trkpt><trkpt lat="43.415808530858975" lon="11.919416522527925"><ele>498.66666666666663</ele><time>2026-03-22T11:55:40.275Z</time></trkpt><trkpt lat="43.415842322844256" lon="11.919321094780821"><ele>496.3333333333333</ele><time>2026-03-22T11:55:41.27Z</time></trkpt><trkpt lat="43.41584523389953" lon="11.919222153661478"><ele>494.0</ele><time>2026-03-22T11:55:42.268Z</time></trkpt><trkpt lat="43.41581644908428" lon="11.919114255124713"><ele>492.16666666666663</ele><time>2026-03-22T11:55:43.271Z</time></trkpt><trkpt lat="43.41578422120121" lon="11.919018463485642"><ele>490.3333333333333</ele><time>2026-03-22T11:55:44.276Z</time></trkpt><trkpt lat="43.41578257831062" lon="11.918915051589526"><ele>488.5</ele><time>2026-03-22T11:55:45.27Z</time></trkpt><trkpt lat="43.41582271448302" lon="11.918830270891776"><ele>486.66666666666663</ele><time>2026-03-22T11:55:46.27Z</time></trkpt><trkpt lat="43.41588820909357" lon="11.918754243760057"><ele>484.8333333333333</ele><time>2026-03-22T11:55:47.27Z</time></trkpt><trkpt lat="43.41596784214515" lon="11.918681925565645"><ele>483.0</ele><time>2026-03-22T11:55:48.271Z</time></trkpt><trkpt lat="43.41604100822821" lon="11.918629939152654"><ele>483.0</ele><time>2026-03-22T11:55:49.27Z</time></trkpt><trkpt lat="43.41610166968707" lon="11.918597499143392"><ele>482.99999999999994</ele><time>2026-03-22T11:55:50.27Z</time></trkpt><trkpt lat="43.41621608176317" lon="11.918603438015742"><ele>482.99999999999994</ele><time>2026-03-22T11:55:52.27Z</time></trkpt><trkpt lat="43.416289770831284" lon="11.91874705564379"><ele>483.0</ele><time>2026-03-22T11:55:54.269Z</time></trkpt><trkpt lat="43.41634037567216" lon="11.918843242102858"><ele>483.0</ele><time>2026-03-22T11:55:55.268Z</time></trkpt><trkpt lat="43.416399682973086" lon="11.91893905539521"><ele>483.4</ele><time>2026-03-22T11:55:56.267Z</time></trkpt><trkpt lat="43.416468626354515" lon="11.919018637740631"><ele>483.79999999999995</ele><time>2026-03-22T11:55:57.269Z</time></trkpt><trkpt lat="43.41655712277763" lon="11.919100114737802"><ele>484.2</ele><time>2026-03-22T11:55:58.269Z</time></trkpt><trkpt lat="43.416658374161656" lon="11.919147574371543"><ele>484.6</ele><time>2026-03-22T11:55:59.267Z</time></trkpt><trkpt lat="43.41676882267845" lon="11.919165973406312"><ele>485.0</ele><time>2026-03-22T11:56:00.267Z</time></trkpt><trkpt lat="43.416865226066186" lon="11.919157954151297"><ele>485.0</ele><time>2026-03-22T11:56:01.269Z</time></trkpt><trkpt lat="43.41692665781673" lon="11.91910225713004"><ele>485.0</ele><time>2026-03-22T11:56:02.27Z</time></trkpt><trkpt lat="43.4169881751611" lon="11.919014295102999"><ele>485.0</ele><time>2026-03-22T11:56:03.27Z</time></trkpt><trkpt lat="43.41704227141897" lon="11.918921480264176"><ele>485.0</ele><time>2026-03-22T11:56:04.268Z</time></trkpt><trkpt lat="43.41716125111506" lon="11.918877200855531"><ele>485.0</ele><time>2026-03-22T11:56:06.27Z</time></trkpt><trkpt lat="43.417246614018694" lon="11.91892295363542"><ele>486.25</ele><time>2026-03-22T11:56:07.27Z</time></trkpt><trkpt lat="43.41736404567066" lon="11.918969207471653"><ele>487.5</ele><time>2026-03-22T11:56:08.269Z</time></trkpt><trkpt lat="43.4174979919995" lon="11.918991921383789"><ele>488.75</ele><time>2026-03-22T11:56:09.266Z</time></trkpt><trkpt lat="43.41760404219246" lon="11.919040731119816"><ele>490.0</ele><time>2026-03-22T11:56:10.267Z</time></trkpt><trkpt lat="43.41769190837923" lon="11.919092646342616"><ele>490.0</ele><time>2026-03-22T11:56:11.268Z</time></trkpt><trkpt lat="43.41780981846303" lon="11.91912085701697"><ele>490.0</ele><time>2026-03-22T11:56:12.272Z</time></trkpt><trkpt lat="43.41792515886634" lon="11.919135950922074"><ele>490.0</ele><time>2026-03-22T11:56:13.269Z</time></trkpt><trkpt lat="43.41803319621452" lon="11.919121836131"><ele>490.0</ele><time>2026-03-22T11:56:14.264Z</time></trkpt><trkpt lat="43.41814971282033" lon="11.919092418280862"><ele>488.5</ele><time>2026-03-22T11:56:15.267Z</time></trkpt><trkpt lat="43.41827529922707" lon="11.919069144191248"><ele>487.0</ele><time>2026-03-22T11:56:16.273Z</time></trkpt><trkpt lat="43.41841019087944" lon="11.919051591708662"><ele>485.5</ele><time>2026-03-22T11:56:17.268Z</time></trkpt><trkpt lat="43.41854889596315" lon="11.919034617590073"><ele>484.0</ele><time>2026-03-22T11:56:18.269Z</time></trkpt><trkpt lat="43.4186599157336" lon="11.919017423972027"><ele>484.0</ele><time>2026-03-22T11:56:19.269Z</time></trkpt><trkpt lat="43.41874926248322" lon="11.919010597467327"><ele>484.0</ele><time>2026-03-22T11:56:20.269Z</time></trkpt><trkpt lat="43.418828841206405" lon="11.91900133583953"><ele>484.0</ele><time>2026-03-22T11:56:21.27Z</time></trkpt><trkpt lat="43.41891787757163" lon="11.91892255637859"><ele>484.0</ele><time>2026-03-22T11:56:23.269Z</time></trkpt><trkpt lat="43.41888458522714" lon="11.91882305648973"><ele>484.0</ele><time>2026-03-22T11:56:57.269Z</time></trkpt><trkpt lat="43.41887144710519" lon="11.9186908165395"><ele>483.4</ele><time>2026-03-22T11:56:59.27Z</time></trkpt><trkpt lat="43.41888538245534" lon="11.918532567832788"><ele>482.79999999999995</ele><time>2026-03-22T11:57:16.27Z</time></trkpt><trkpt lat="43.41890669801169" lon="11.918431571774954"><ele>482.20000000000005</ele><time>2026-03-22T11:57:17.269Z</time></trkpt><trkpt lat="43.41893978790299" lon="11.918338253305485"><ele>481.6</ele><time>2026-03-22T11:57:18.267Z</time></trkpt><trkpt lat="43.419010394035226" lon="11.918262705680005"><ele>481.0</ele><time>2026-03-22T11:57:20.268Z</time></trkpt><trkpt lat="43.419127509046746" lon="11.918285654368194"><ele>481.00000000000006</ele><time>2026-03-22T11:57:28.274Z</time></trkpt><trkpt lat="43.41919185135421" lon="11.918294308101192"><ele>481.0</ele><time>2026-03-22T11:57:29.269Z</time></trkpt><trkpt lat="43.41928201446173" lon="11.91819344239167"><ele>481.0</ele><time>2026-03-22T11:57:31.267Z</time></trkpt><trkpt lat="43.41930022027862" lon="11.918108613237928"><ele>481.0</ele><time>2026-03-22T11:57:32.276Z</time></trkpt><trkpt lat="43.419295871656196" lon="11.918020537793517"><ele>481.00000000000006</ele><time>2026-03-22T11:57:33.269Z</time></trkpt><trkpt lat="43.419283990125244" lon="11.917904745375317"><ele>481.0</ele><time>2026-03-22T11:57:34.269Z</time></trkpt><trkpt lat="43.41927884631862" lon="11.917803890093785"><ele>481.00000000000006</ele><time>2026-03-22T11:57:35.268Z</time></trkpt><trkpt lat="43.419337722100956" lon="11.917682729212503"><ele>481.0</ele><time>2026-03-22T11:57:37.27Z</time></trkpt><trkpt lat="43.419402820893225" lon="11.917662524649513"><ele>481.0</ele><time>2026-03-22T11:57:38.268Z</time></trkpt><trkpt lat="43.41948093194132" lon="11.917678924769067"><ele>481.0</ele><time>2026-03-22T11:57:39.267Z</time></trkpt><trkpt lat="43.41955041790793" lon="11.91765291514121"><ele>481.00000000000006</ele><time>2026-03-22T11:57:40.274Z</time></trkpt><trkpt lat="43.4196035359414" lon="11.917565911080189"><ele>481.0</ele><time>2026-03-22T11:57:41.269Z</time></trkpt><trkpt lat="43.41965124364365" lon="11.91744730501673"><ele>478.0</ele><time>2026-03-22T11:57:42.269Z</time></trkpt><trkpt lat="43.41969764955742" lon="11.917325613910126"><ele>475.0</ele><time>2026-03-22T11:57:43.268Z</time></trkpt><trkpt lat="43.41977043776242" lon="11.917226976692058"><ele>472.0</ele><time>2026-03-22T11:57:44.275Z</time></trkpt><trkpt lat="43.41985026352351" lon="11.917161327489435"><ele>469.0</ele><time>2026-03-22T11:57:45.27Z</time></trkpt><trkpt lat="43.41993213151246" lon="11.91712359360947"><ele>466.0</ele><time>2026-03-22T11:57:46.272Z</time></trkpt><trkpt lat="43.42001404234646" lon="11.917116627890325"><ele>466.0</ele><time>2026-03-22T11:57:47.27Z</time></trkpt><trkpt lat="43.420092660321224" lon="11.91712508453822"><ele>466.0</ele><time>2026-03-22T11:57:48.275Z</time></trkpt><trkpt lat="43.42016817614214" lon="11.917160241670736"><ele>466.0</ele><time>2026-03-22T11:57:49.268Z</time></trkpt><trkpt lat="43.420258691064205" lon="11.9171833762329"><ele>466.0</ele><time>2026-03-22T11:57:50.268Z</time></trkpt><trkpt lat="43.42034321973318" lon="11.917158318956155"><ele>466.0</ele><time>2026-03-22T11:57:51.256Z</time></trkpt><trkpt lat="43.420439897126876" lon="11.917077026491308"><ele>465.5</ele><time>2026-03-22T11:57:52.26Z</time></trkpt><trkpt lat="43.42053787754447" lon="11.916963462970347"><ele>465.0</ele><time>2026-03-22T11:57:53.256Z</time></trkpt><trkpt lat="43.420620447030366" lon="11.91682948587311"><ele>464.5</ele><time>2026-03-22T11:57:54.257Z</time></trkpt><trkpt lat="43.42068588929048" lon="11.91669809364821"><ele>464.0</ele><time>2026-03-22T11:57:55.257Z</time></trkpt><trkpt lat="43.42077032895538" lon="11.916572148471554"><ele>464.0</ele><time>2026-03-22T11:57:56.261Z</time></trkpt><trkpt lat="43.42083764766005" lon="11.916467377553024"><ele>464.0</ele><time>2026-03-22T11:57:57.257Z</time></trkpt><trkpt lat="43.42088960460109" lon="11.916359798065827"><ele>464.0</ele><time>2026-03-22T11:57:58.257Z</time></trkpt><trkpt lat="43.42091601062884" lon="11.916254821019717"><ele>464.0</ele><time>2026-03-22T11:57:59.258Z</time></trkpt><trkpt lat="43.42099819747167" lon="11.916127239640065"><ele>464.0</ele><time>2026-03-22T11:58:01.257Z</time></trkpt><trkpt lat="43.42105887692568" lon="11.91608653473454"><ele>463.99999999999994</ele><time>2026-03-22T11:58:02.256Z</time></trkpt><trkpt lat="43.42113798184781" lon="11.916060222177315"><ele>464.0</ele><time>2026-03-22T11:58:04.257Z</time></trkpt><trkpt lat="43.421105260321276" lon="11.915944723133057"><ele>464.0</ele><time>2026-03-22T11:58:06.256Z</time></trkpt><trkpt lat="43.42104688950274" lon="11.915860015472662"><ele>464.0</ele><time>2026-03-22T11:58:07.255Z</time></trkpt><trkpt lat="43.42097357569206" lon="11.915763631507145"><ele>463.99999999999994</ele><time>2026-03-22T11:58:08.26Z</time></trkpt><trkpt lat="43.42092309079681" lon="11.915673474607384"><ele>464.0</ele><time>2026-03-22T11:58:09.255Z</time></trkpt><trkpt lat="43.420810927120215" lon="11.915572592404265"><ele>462.3333333333333</ele><time>2026-03-22T11:58:11.255Z</time></trkpt><trkpt lat="43.42073859180856" lon="11.915515204312548"><ele>460.66666666666663</ele><time>2026-03-22T11:58:12.255Z</time></trkpt><trkpt lat="43.42067938263744" lon="11.915470520655665"><ele>459.0</ele><time>2026-03-22T11:58:13.256Z</time></trkpt><trkpt lat="43.4206246320514" lon="11.915423094615946"><ele>457.33333333333337</ele><time>2026-03-22T11:58:14.255Z</time></trkpt><trkpt lat="43.42050644121089" lon="11.915394215435812"><ele>455.6666666666667</ele><time>2026-03-22T11:58:16.26Z</time></trkpt><trkpt lat="43.42043929548448" lon="11.915385832209571"><ele>454.0</ele><time>2026-03-22T11:58:17.256Z</time></trkpt><trkpt lat="43.420331749439924" lon="11.915262215523617"><ele>451.4</ele><time>2026-03-22T11:58:19.256Z</time></trkpt><trkpt lat="43.42030235464478" lon="11.915136633090576"><ele>448.79999999999995</ele><time>2026-03-22T11:58:20.261Z</time></trkpt><trkpt lat="43.42027383556856" lon="11.915033512869089"><ele>446.20000000000005</ele><time>2026-03-22T11:58:21.257Z</time></trkpt><trkpt lat="43.42023729315685" lon="11.914952413402585"><ele>443.6</ele><time>2026-03-22T11:58:22.266Z</time></trkpt><trkpt lat="43.42018072168079" lon="11.914814374370199"><ele>441.0</ele><time>2026-03-22T11:58:24.265Z</time></trkpt><trkpt lat="43.420216199449015" lon="11.914661653166435"><ele>440.6666666666667</ele><time>2026-03-22T11:58:26.269Z</time></trkpt><trkpt lat="43.420276816693125" lon="11.91461542576034"><ele>440.33333333333337</ele><time>2026-03-22T11:58:27.269Z</time></trkpt><trkpt lat="43.42035879693454" lon="11.914591181208275"><ele>440.0</ele><time>2026-03-22T11:58:28.269Z</time></trkpt><trkpt lat="43.42046459373699" lon="11.914548619019586"><ele>439.6666666666667</ele><time>2026-03-22T11:58:29.268Z</time></trkpt><trkpt lat="43.42055168323763" lon="11.914506372894515"><ele>439.33333333333337</ele><time>2026-03-22T11:58:30.268Z</time></trkpt><trkpt lat="43.42063493816511" lon="11.914459606314896"><ele>439.0</ele><time>2026-03-22T11:58:31.269Z</time></trkpt><trkpt lat="43.420714813354635" lon="11.914450437128771"><ele>439.00000000000006</ele><time>2026-03-22T11:58:32.269Z</time></trkpt><trkpt lat="43.42079513239937" lon="11.914467138900655"><ele>439.0</ele><time>2026-03-22T11:58:33.268Z</time></trkpt><trkpt lat="43.420876423712855" lon="11.914526556250408"><ele>439.0</ele><time>2026-03-22T11:58:34.268Z</time></trkpt><trkpt lat="43.420953948370986" lon="11.914586144904975"><ele>439.0</ele><time>2026-03-22T11:58:35.265Z</time></trkpt><trkpt lat="43.421035640709746" lon="11.914611269177318"><ele>439.00000000000006</ele><time>2026-03-22T11:58:36.273Z</time></trkpt><trkpt lat="43.42110921105313" lon="11.9145889887405"><ele>439.0</ele><time>2026-03-22T11:58:37.267Z</time></trkpt><trkpt lat="43.421170982604885" lon="11.914537838330673"><ele>439.0</ele><time>2026-03-22T11:58:38.267Z</time></trkpt><trkpt lat="43.421205852264606" lon="11.914358095308158"><ele>439.0</ele><time>2026-03-22T11:58:40.267Z</time></trkpt><trkpt lat="43.42117269239189" lon="11.91421059847209"><ele>439.0</ele><time>2026-03-22T11:58:41.266Z</time></trkpt><trkpt lat="43.42112371192323" lon="11.914034281755391"><ele>439.0</ele><time>2026-03-22T11:58:42.27Z</time></trkpt><trkpt lat="43.42111585046678" lon="11.913878979259342"><ele>435.6</ele><time>2026-03-22T11:58:43.266Z</time></trkpt><trkpt lat="43.421104914430984" lon="11.913718368250734"><ele>432.2</ele><time>2026-03-22T11:58:44.275Z</time></trkpt><trkpt lat="43.42109249239931" lon="11.913574031543197"><ele>428.8</ele><time>2026-03-22T11:58:45.268Z</time></trkpt><trkpt lat="43.42107699100268" lon="11.913438910413639"><ele>425.40000000000003</ele><time>2026-03-22T11:58:46.268Z</time></trkpt><trkpt lat="43.42105656522463" lon="11.91331172036872"><ele>422.0</ele><time>2026-03-22T11:58:47.269Z</time></trkpt><trkpt lat="43.421037947962134" lon="11.913211989632982"><ele>421.42857142857144</ele><time>2026-03-22T11:58:48.276Z</time></trkpt><trkpt lat="43.42101626889398" lon="11.91312440142252"><ele>420.8571428571429</ele><time>2026-03-22T11:58:49.269Z</time></trkpt><trkpt lat="43.421018954073446" lon="11.913022059619589"><ele>420.2857142857143</ele><time>2026-03-22T11:58:50.27Z</time></trkpt><trkpt lat="43.42103125608994" lon="11.912927347209484"><ele>419.7142857142857</ele><time>2026-03-22T11:58:51.269Z</time></trkpt><trkpt lat="43.42107388058785" lon="11.912858721277274"><ele>419.1428571428571</ele><time>2026-03-22T11:58:52.269Z</time></trkpt><trkpt lat="43.42111855521023" lon="11.912784431992094"><ele>418.57142857142856</ele><time>2026-03-22T11:58:54.269Z</time></trkpt><trkpt lat="43.4210324954733" lon="11.912727857501569"><ele>418.0</ele><time>2026-03-22T11:58:56.278Z</time></trkpt><trkpt lat="43.42096466545329" lon="11.912769990034851"><ele>418.00000000000006</ele><time>2026-03-22T11:58:57.271Z</time></trkpt><trkpt lat="43.420886109594704" lon="11.912824859205712"><ele>418.0</ele><time>2026-03-22T11:58:58.269Z</time></trkpt><trkpt lat="43.42081230512458" lon="11.912830653806992"><ele>418.0</ele><time>2026-03-22T11:58:59.27Z</time></trkpt><trkpt lat="43.42071108750574" lon="11.912806232588524"><ele>418.0</ele><time>2026-03-22T11:59:01.27Z</time></trkpt><trkpt lat="43.4206675786477" lon="11.912732140667416"><ele>418.00000000000006</ele><time>2026-03-22T11:59:02.27Z</time></trkpt><trkpt lat="43.42066381377603" lon="11.912619605367762"><ele>418.0</ele><time>2026-03-22T11:59:03.269Z</time></trkpt><trkpt lat="43.42067177536054" lon="11.912492172993327"><ele>417.4</ele><time>2026-03-22T11:59:04.269Z</time></trkpt><trkpt lat="43.42066295036671" lon="11.912395494880808"><ele>416.79999999999995</ele><time>2026-03-22T11:59:05.269Z</time></trkpt><trkpt lat="43.420626585331064" lon="11.912290863461662"><ele>416.2</ele><time>2026-03-22T11:59:07.27Z</time></trkpt><trkpt lat="43.42050850538796" lon="11.912299340923273"><ele>415.6</ele><time>2026-03-22T11:59:09.27Z</time></trkpt><trkpt lat="43.420449785528476" lon="11.912195651127304"><ele>415.0</ele><time>2026-03-22T11:59:11.269Z</time></trkpt><trkpt lat="43.420405531135614" lon="11.912052011109447"><ele>409.6</ele><time>2026-03-22T11:59:13.269Z</time></trkpt><trkpt lat="43.42031360458924" lon="11.91188728747932"><ele>404.2</ele><time>2026-03-22T11:59:15.269Z</time></trkpt><trkpt lat="43.420267017836615" lon="11.91176166050123"><ele>398.79999999999995</ele><time>2026-03-22T11:59:16.267Z</time></trkpt><trkpt lat="43.42024383809253" lon="11.911647827185341"><ele>393.4</ele><time>2026-03-22T11:59:17.269Z</time></trkpt><trkpt lat="43.42024818196279" lon="11.911553994506454"><ele>388.0</ele><time>2026-03-22T11:59:18.27Z</time></trkpt><trkpt lat="43.42034822430766" lon="11.911468236858294"><ele>387.83333333333337</ele><time>2026-03-22T11:59:20.276Z</time></trkpt><trkpt lat="43.420423536906505" lon="11.911501723106033"><ele>387.6666666666667</ele><time>2026-03-22T11:59:21.266Z</time></trkpt><trkpt lat="43.4204838263858" lon="11.911577006357795"><ele>387.5</ele><time>2026-03-22T11:59:22.268Z</time></trkpt><trkpt lat="43.42052367442798" lon="11.911652131800638"><ele>387.33333333333337</ele><time>2026-03-22T11:59:23.267Z</time></trkpt><trkpt lat="43.42058583292827" lon="11.911691876060937"><ele>387.1666666666667</ele><time>2026-03-22T11:59:24.267Z</time></trkpt><trkpt lat="43.42064959494315" lon="11.911697237728154"><ele>387.0</ele><time>2026-03-22T11:59:25.269Z</time></trkpt><trkpt lat="43.420754130893506" lon="11.911715777480211"><ele>388.6666666666667</ele><time>2026-03-22T11:59:27.267Z</time></trkpt><trkpt lat="43.42077395352257" lon="11.91159876223349"><ele>390.33333333333337</ele><time>2026-03-22T11:59:29.266Z</time></trkpt><trkpt lat="43.42072802232152" lon="11.911536521168903"><ele>392.0</ele><time>2026-03-22T11:59:30.267Z</time></trkpt><trkpt lat="43.42065353481473" lon="11.911488758708145"><ele>393.6666666666667</ele><time>2026-03-22T11:59:31.267Z</time></trkpt><trkpt lat="43.420597953841536" lon="11.911439094803068"><ele>395.33333333333337</ele><time>2026-03-22T11:59:32.272Z</time></trkpt><trkpt lat="43.42055129555924" lon="11.911365278218332"><ele>397.0</ele><time>2026-03-22T11:59:33.266Z</time></trkpt><trkpt lat="43.42050899727418" lon="11.911264847010179"><ele>395.33333333333337</ele><time>2026-03-22T11:59:34.267Z</time></trkpt><trkpt lat="43.42047514555316" lon="11.911140962500893"><ele>393.6666666666667</ele><time>2026-03-22T11:59:35.268Z</time></trkpt><trkpt lat="43.42042597134706" lon="11.911032399013429"><ele>392.0</ele><time>2026-03-22T11:59:36.277Z</time></trkpt><trkpt lat="43.420369243836426" lon="11.910943771476369"><ele>390.33333333333337</ele><time>2026-03-22T11:59:37.268Z</time></trkpt><trkpt lat="43.42031278503291" lon="11.910871551817651"><ele>388.6666666666667</ele><time>2026-03-22T11:59:38.268Z</time></trkpt><trkpt lat="43.42026266995785" lon="11.910812513101469"><ele>387.0</ele><time>2026-03-22T11:59:39.268Z</time></trkpt><trkpt lat="43.42019433224735" lon="11.910772979151417"><ele>385.1666666666667</ele><time>2026-03-22T11:59:40.267Z</time></trkpt><trkpt lat="43.4201220978619" lon="11.910741810412386"><ele>383.3333333333333</ele><time>2026-03-22T11:59:41.267Z</time></trkpt><trkpt lat="43.42004654005504" lon="11.910720705782396"><ele>381.5</ele><time>2026-03-22T11:59:42.266Z</time></trkpt><trkpt lat="43.41995874487524" lon="11.910720886635028"><ele>379.66666666666663</ele><time>2026-03-22T11:59:43.268Z</time></trkpt><trkpt lat="43.41987044861421" lon="11.910738805405197"><ele>377.8333333333333</ele><time>2026-03-22T11:59:44.275Z</time></trkpt><trkpt lat="43.419795881514396" lon="11.910783772997409"><ele>376.0</ele><time>2026-03-22T11:59:45.27Z</time></trkpt><trkpt lat="43.41972638338869" lon="11.910842806288974"><ele>378.20000000000005</ele><time>2026-03-22T11:59:46.269Z</time></trkpt><trkpt lat="43.41965400218815" lon="11.910920861498095"><ele>380.40000000000003</ele><time>2026-03-22T11:59:47.268Z</time></trkpt><trkpt lat="43.41956850885266" lon="11.911015030793143"><ele>382.6</ele><time>2026-03-22T11:59:48.276Z</time></trkpt><trkpt lat="43.41949199474995" lon="11.911094224718246"><ele>384.8</ele><time>2026-03-22T11:59:49.268Z</time></trkpt><trkpt lat="43.41942533946038" lon="11.911162293939375"><ele>387.0</ele><time>2026-03-22T11:59:50.268Z</time></trkpt><trkpt lat="43.41936030374438" lon="11.911223740437748"><ele>383.8333333333333</ele><time>2026-03-22T11:59:51.27Z</time></trkpt><trkpt lat="43.41930625492983" lon="11.91129220704947"><ele>380.6666666666667</ele><time>2026-03-22T11:59:52.266Z</time></trkpt><trkpt lat="43.41925915966026" lon="11.911377358551407"><ele>377.5</ele><time>2026-03-22T11:59:53.266Z</time></trkpt><trkpt lat="43.419234044322565" lon="11.911476800621799"><ele>374.33333333333337</ele><time>2026-03-22T11:59:54.268Z</time></trkpt><trkpt lat="43.41922971848101" lon="11.911581912252851"><ele>371.1666666666667</ele><time>2026-03-22T11:59:55.268Z</time></trkpt><trkpt lat="43.419247904335116" lon="11.911682937856725"><ele>368.0</ele><time>2026-03-22T11:59:56.275Z</time></trkpt><trkpt lat="43.41927679321746" lon="11.911783076745262"><ele>368.0</ele><time>2026-03-22T11:59:57.269Z</time></trkpt><trkpt lat="43.41931758721256" lon="11.911880027603017"><ele>368.0</ele><time>2026-03-22T11:59:58.268Z</time></trkpt><trkpt lat="43.41935982795463" lon="11.911963602992957"><ele>368.0</ele><time>2026-03-22T11:59:59.27Z</time></trkpt><trkpt lat="43.419396791895984" lon="11.912050425186555"><ele>368.0</ele><time>2026-03-22T12:00:00.275Z</time></trkpt><trkpt lat="43.419436161835534" lon="11.912126218180719"><ele>368.0</ele><time>2026-03-22T12:00:01.269Z</time></trkpt><trkpt lat="43.41949235833501" lon="11.912199804866269"><ele>368.0</ele><time>2026-03-22T12:00:03.269Z</time></trkpt><trkpt lat="43.41942562460144" lon="11.91224808860046"><ele>368.0</ele><time>2026-03-22T12:00:05.267Z</time></trkpt><trkpt lat="43.41930760750718" lon="11.912113939443989"><ele>368.0</ele><time>2026-03-22T12:00:07.268Z</time></trkpt><trkpt lat="43.41922839090583" lon="11.912006133363436"><ele>368.0</ele><time>2026-03-22T12:00:08.276Z</time></trkpt><trkpt lat="43.419143342910445" lon="11.911928837257769"><ele>368.0</ele><time>2026-03-22T12:00:09.268Z</time></trkpt><trkpt lat="43.41907391403427" lon="11.911852066268159"><ele>368.0</ele><time>2026-03-22T12:00:10.266Z</time></trkpt><trkpt lat="43.41901540430362" lon="11.911766412423939"><ele>368.0</ele><time>2026-03-22T12:00:11.268Z</time></trkpt><trkpt lat="43.41896084572231" lon="11.91167731882686"><ele>366.59999999999997</ele><time>2026-03-22T12:00:12.275Z</time></trkpt><trkpt lat="43.41891376809129" lon="11.911571410116895"><ele>365.2</ele><time>2026-03-22T12:00:13.266Z</time></trkpt><trkpt lat="43.41887668817804" lon="11.911436519695824"><ele>363.8</ele><time>2026-03-22T12:00:14.27Z</time></trkpt><trkpt lat="43.41884836694283" lon="11.911315657497637"><ele>362.4</ele><time>2026-03-22T12:00:15.267Z</time></trkpt><trkpt lat="43.418817829280236" lon="11.91119637742572"><ele>361.0</ele><time>2026-03-22T12:00:16.269Z</time></trkpt><trkpt lat="43.41879351262425" lon="11.911090023331885"><ele>359.4</ele><time>2026-03-22T12:00:17.27Z</time></trkpt><trkpt lat="43.41878854599601" lon="11.910964322997101"><ele>357.8</ele><time>2026-03-22T12:00:18.269Z</time></trkpt><trkpt lat="43.41881661514803" lon="11.910829847221743"><ele>356.2</ele><time>2026-03-22T12:00:19.268Z</time></trkpt><trkpt lat="43.418861873613274" lon="11.910700419080229"><ele>354.59999999999997</ele><time>2026-03-22T12:00:20.276Z</time></trkpt><trkpt lat="43.41888472983475" lon="11.910563077409172"><ele>353.0</ele><time>2026-03-22T12:00:21.268Z</time></trkpt><trkpt lat="43.41892318752555" lon="11.910456850309867"><ele>353.0</ele><time>2026-03-22T12:00:22.269Z</time></trkpt><trkpt lat="43.41897134963339" lon="11.910361041899405"><ele>353.0</ele><time>2026-03-22T12:00:23.267Z</time></trkpt><trkpt lat="43.41902059869468" lon="11.910272237613235"><ele>353.0</ele><time>2026-03-22T12:00:24.274Z</time></trkpt><trkpt lat="43.419062811447674" lon="11.910164728835378"><ele>353.0</ele><time>2026-03-22T12:00:25.268Z</time></trkpt><trkpt lat="43.41909595362085" lon="11.910050323023327"><ele>353.0</ele><time>2026-03-22T12:00:26.268Z</time></trkpt><trkpt lat="43.41912580081541" lon="11.90994548247465"><ele>353.0</ele><time>2026-03-22T12:00:27.269Z</time></trkpt><trkpt lat="43.41914800571337" lon="11.90984753881384"><ele>350.83333333333337</ele><time>2026-03-22T12:00:28.27Z</time></trkpt><trkpt lat="43.41919356073765" lon="11.909723344263162"><ele>348.6666666666667</ele><time>2026-03-22T12:00:30.267Z</time></trkpt><trkpt lat="43.41913019126183" lon="11.909647343703787"><ele>346.5</ele><time>2026-03-22T12:00:32.275Z</time></trkpt><trkpt lat="43.41904871528715" lon="11.909729356335834"><ele>344.3333333333333</ele><time>2026-03-22T12:00:34.268Z</time></trkpt><trkpt lat="43.41900044408326" lon="11.909654680863287"><ele>342.16666666666663</ele><time>2026-03-22T12:00:36.27Z</time></trkpt><trkpt lat="43.41903439881062" lon="11.909558742644391"><ele>340.0</ele><time>2026-03-22T12:00:37.27Z</time></trkpt><trkpt lat="43.419101311447484" lon="11.909449737922966"><ele>340.0</ele><time>2026-03-22T12:00:38.268Z</time></trkpt><trkpt lat="43.419153810509876" lon="11.9093286255878"><ele>340.0</ele><time>2026-03-22T12:00:39.268Z</time></trkpt><trkpt lat="43.419180435475596" lon="11.909216183679534"><ele>340.0</ele><time>2026-03-22T12:00:40.277Z</time></trkpt><trkpt lat="43.41919534391118" lon="11.909103638863785"><ele>340.0</ele><time>2026-03-22T12:00:41.267Z</time></trkpt><trkpt lat="43.41920769502641" lon="11.908990742092701"><ele>340.0</ele><time>2026-03-22T12:00:42.266Z</time></trkpt><trkpt lat="43.419221383356785" lon="11.908876148099605"><ele>340.0</ele><time>2026-03-22T12:00:43.269Z</time></trkpt><trkpt lat="43.41923410408328" lon="11.908768474863244"><ele>337.5</ele><time>2026-03-22T12:00:44.268Z</time></trkpt><trkpt lat="43.4192636052481" lon="11.908682282593736"><ele>335.0</ele><time>2026-03-22T12:00:45.268Z</time></trkpt><trkpt lat="43.419356243908666" lon="11.908588774324395"><ele>332.5</ele><time>2026-03-22T12:00:47.269Z</time></trkpt><trkpt lat="43.41946449453575" lon="11.908478682944285"><ele>330.0</ele><time>2026-03-22T12:00:49.269Z</time></trkpt><trkpt lat="43.419507504534614" lon="11.90841319635644"><ele>327.5</ele><time>2026-03-22T12:00:50.268Z</time></trkpt><trkpt lat="43.41953698898814" lon="11.908331895399545"><ele>325.0</ele><time>2026-03-22T12:00:51.268Z</time></trkpt><trkpt lat="43.41958637163256" lon="11.908272732402086"><ele>325.0</ele><time>2026-03-22T12:00:52.274Z</time></trkpt><trkpt lat="43.4196752281225" lon="11.908304077479311"><ele>325.0</ele><time>2026-03-22T12:00:54.267Z</time></trkpt><trkpt lat="43.41968530324234" lon="11.908188128757557"><ele>325.0</ele><time>2026-03-22T12:00:57.269Z</time></trkpt><trkpt lat="43.419622179318665" lon="11.908167641007733"><ele>325.0</ele><time>2026-03-22T12:00:58.268Z</time></trkpt><trkpt lat="43.41954961720093" lon="11.908155091215296"><ele>325.0</ele><time>2026-03-22T12:00:59.269Z</time></trkpt><trkpt lat="43.41947668714472" lon="11.908154822770504"><ele>325.0</ele><time>2026-03-22T12:01:00.277Z</time></trkpt><trkpt lat="43.41940044431155" lon="11.908177171591445"><ele>322.75</ele><time>2026-03-22T12:01:01.269Z</time></trkpt><trkpt lat="43.41933169987914" lon="11.908222307598601"><ele>320.5</ele><time>2026-03-22T12:01:02.268Z</time></trkpt><trkpt lat="43.4192271158878" lon="11.908280534717978"><ele>318.25</ele><time>2026-03-22T12:01:04.269Z</time></trkpt><trkpt lat="43.41913925041638" lon="11.908171233675068"><ele>316.0</ele><time>2026-03-22T12:01:06.267Z</time></trkpt><trkpt lat="43.41918102050618" lon="11.907983333660704"><ele>316.0</ele><time>2026-03-22T12:01:08.27Z</time></trkpt><trkpt lat="43.41924680380739" lon="11.907881645343563"><ele>316.0</ele><time>2026-03-22T12:01:09.269Z</time></trkpt><trkpt lat="43.419302423217175" lon="11.907764526624472"><ele>316.0</ele><time>2026-03-22T12:01:10.268Z</time></trkpt><trkpt lat="43.41932330822223" lon="11.907623316406843"><ele>316.0</ele><time>2026-03-22T12:01:11.271Z</time></trkpt><trkpt lat="43.419306719458234" lon="11.907474350718253"><ele>316.0</ele><time>2026-03-22T12:01:12.276Z</time></trkpt><trkpt lat="43.419272410889654" lon="11.907312863558296"><ele>314.2</ele><time>2026-03-22T12:01:13.27Z</time></trkpt><trkpt lat="43.41924545158542" lon="11.907153138850004"><ele>312.40000000000003</ele><time>2026-03-22T12:01:14.27Z</time></trkpt><trkpt lat="43.4192268063464" lon="11.907000458318592"><ele>310.6</ele><time>2026-03-22T12:01:15.267Z</time></trkpt><trkpt lat="43.419218155456385" lon="11.906859063189222"><ele>308.8</ele><time>2026-03-22T12:01:16.267Z</time></trkpt><trkpt lat="43.41921478621785" lon="11.906713914336947"><ele>307.0</ele><time>2026-03-22T12:01:17.269Z</time></trkpt><trkpt lat="43.41922270118606" lon="11.90657353199924"><ele>306.8</ele><time>2026-03-22T12:01:18.269Z</time></trkpt><trkpt lat="43.41922596634966" lon="11.90643422304761"><ele>306.6</ele><time>2026-03-22T12:01:19.269Z</time></trkpt><trkpt lat="43.41922736568743" lon="11.906281567093695"><ele>306.40000000000003</ele><time>2026-03-22T12:01:20.277Z</time></trkpt><trkpt lat="43.41922688232139" lon="11.906145996580316"><ele>306.2</ele><time>2026-03-22T12:01:21.268Z</time></trkpt><trkpt lat="43.41923083751135" lon="11.90601335717375"><ele>306.0</ele><time>2026-03-22T12:01:22.268Z</time></trkpt><trkpt lat="43.4192312579878" lon="11.90590339373585"><ele>306.0</ele><time>2026-03-22T12:01:23.269Z</time></trkpt><trkpt lat="43.41923236933075" lon="11.90576518947224"><ele>306.0</ele><time>2026-03-22T12:01:25.27Z</time></trkpt><trkpt lat="43.419308744761864" lon="11.90567063442515"><ele>306.0</ele><time>2026-03-22T12:01:29.27Z</time></trkpt><trkpt lat="43.41938406797789" lon="11.905690980816026"><ele>306.0</ele><time>2026-03-22T12:01:30.269Z</time></trkpt><trkpt lat="43.41947915011705" lon="11.905717206790635"><ele>306.0</ele><time>2026-03-22T12:01:31.269Z</time></trkpt><trkpt lat="43.41956762971718" lon="11.905721140342033"><ele>306.0</ele><time>2026-03-22T12:01:32.277Z</time></trkpt><trkpt lat="43.419643449225184" lon="11.905726613631032"><ele>306.0</ele><time>2026-03-22T12:01:33.269Z</time></trkpt><trkpt lat="43.419722592366405" lon="11.905733454617868"><ele>306.0</ele><time>2026-03-22T12:01:34.27Z</time></trkpt><trkpt lat="43.41980371844261" lon="11.905741355896636"><ele>306.0</ele><time>2026-03-22T12:01:35.269Z</time></trkpt><trkpt lat="43.41988153122113" lon="11.90574150521917"><ele>306.0</ele><time>2026-03-22T12:01:36.279Z</time></trkpt><trkpt lat="43.419952302267404" lon="11.90574696965396"><ele>306.0</ele><time>2026-03-22T12:01:37.27Z</time></trkpt><trkpt lat="43.42001628752137" lon="11.905749137425333"><ele>306.0</ele><time>2026-03-22T12:01:38.268Z</time></trkpt><trkpt lat="43.42008830110192" lon="11.905746700209596"><ele>305.3333333333333</ele><time>2026-03-22T12:01:39.27Z</time></trkpt><trkpt lat="43.42016035835871" lon="11.905746425588722"><ele>304.6666666666667</ele><time>2026-03-22T12:01:40.268Z</time></trkpt><trkpt lat="43.420237817586035" lon="11.905740592971192"><ele>304.0</ele><time>2026-03-22T12:01:41.274Z</time></trkpt><trkpt lat="43.42032003914934" lon="11.9057355210927"><ele>303.33333333333337</ele><time>2026-03-22T12:01:42.269Z</time></trkpt><trkpt lat="43.4204018184091" lon="11.90572234119586"><ele>302.6666666666667</ele><time>2026-03-22T12:01:43.27Z</time></trkpt><trkpt lat="43.42049011893181" lon="11.905697035806984"><ele>302.0</ele><time>2026-03-22T12:01:44.276Z</time></trkpt><trkpt lat="43.4205784202442" lon="11.905670445329157"><ele>301.6</ele><time>2026-03-22T12:01:45.268Z</time></trkpt><trkpt lat="43.42066992613418" lon="11.905638775768784"><ele>301.2</ele><time>2026-03-22T12:01:46.272Z</time></trkpt><trkpt lat="43.420758721980306" lon="11.905617458433616"><ele>300.8</ele><time>2026-03-22T12:01:47.269Z</time></trkpt><trkpt lat="43.42088209481873" lon="11.90557701715777"><ele>300.4</ele><time>2026-03-22T12:01:48.276Z</time></trkpt><trkpt lat="43.42100338551125" lon="11.905545396473658"><ele>300.0</ele><time>2026-03-22T12:01:49.269Z</time></trkpt><trkpt lat="43.42111611607302" lon="11.905514843130149"><ele>300.0</ele><time>2026-03-22T12:01:50.27Z</time></trkpt><trkpt lat="43.42122367220662" lon="11.905478274730164"><ele>300.0</ele><time>2026-03-22T12:01:51.27Z</time></trkpt><trkpt lat="43.42133205393053" lon="11.905445063632984"><ele>300.0</ele><time>2026-03-22T12:01:52.277Z</time></trkpt><trkpt lat="43.42144102932477" lon="11.905411081548104"><ele>300.0</ele><time>2026-03-22T12:01:53.269Z</time></trkpt><trkpt lat="43.421552279663835" lon="11.905377234676683"><ele>300.0</ele><time>2026-03-22T12:01:54.269Z</time></trkpt><trkpt lat="43.42167070126112" lon="11.90533668897488"><ele>300.0</ele><time>2026-03-22T12:01:55.269Z</time></trkpt><trkpt lat="43.421787621001876" lon="11.905285688489826"><ele>300.0</ele><time>2026-03-22T12:01:56.277Z</time></trkpt><trkpt lat="43.42190197908788" lon="11.905233245612195"><ele>300.0</ele><time>2026-03-22T12:01:57.269Z</time></trkpt><trkpt lat="43.42202599179059" lon="11.905177966113639"><ele>300.0</ele><time>2026-03-22T12:01:58.269Z</time></trkpt><trkpt lat="43.42215496818798" lon="11.905129380814113"><ele>299.75</ele><time>2026-03-22T12:01:59.269Z</time></trkpt><trkpt lat="43.42229837136124" lon="11.905083688254257"><ele>299.5</ele><time>2026-03-22T12:02:00.27Z</time></trkpt><trkpt lat="43.42243835918236" lon="11.905057576139637"><ele>299.25</ele><time>2026-03-22T12:02:01.269Z</time></trkpt><trkpt lat="43.42258654633077" lon="11.905025040638192"><ele>299.0</ele><time>2026-03-22T12:02:02.27Z</time></trkpt><trkpt lat="43.42273509683224" lon="11.904982930706565"><ele>298.5</ele><time>2026-03-22T12:02:03.27Z</time></trkpt><trkpt lat="43.42287836964854" lon="11.904923330300592"><ele>298.0</ele><time>2026-03-22T12:02:04.276Z</time></trkpt><trkpt lat="43.42301656661154" lon="11.904852154692131"><ele>297.5</ele><time>2026-03-22T12:02:05.27Z</time></trkpt><trkpt lat="43.42315221626512" lon="11.904758524678444"><ele>297.0</ele><time>2026-03-22T12:02:06.27Z</time></trkpt><trkpt lat="43.423274077384384" lon="11.904639222060444"><ele>296.3333333333333</ele><time>2026-03-22T12:02:07.27Z</time></trkpt><trkpt lat="43.423389979301525" lon="11.904501992065146"><ele>295.66666666666663</ele><time>2026-03-22T12:02:08.277Z</time></trkpt><trkpt lat="43.42350464659983" lon="11.904362306415134"><ele>295.0</ele><time>2026-03-22T12:02:09.27Z</time></trkpt><trkpt lat="43.423619494120445" lon="11.904233303415063"><ele>295.0</ele><time>2026-03-22T12:02:10.27Z</time></trkpt><trkpt lat="43.42373687868145" lon="11.904103488512394"><ele>295.0</ele><time>2026-03-22T12:02:11.277Z</time></trkpt><trkpt lat="43.42385269716987" lon="11.903979589382132"><ele>295.0</ele><time>2026-03-22T12:02:12.268Z</time></trkpt><trkpt lat="43.42397631344803" lon="11.90386574722183"><ele>295.0</ele><time>2026-03-22T12:02:13.269Z</time></trkpt><trkpt lat="43.42410156327262" lon="11.90376429165176"><ele>295.0</ele><time>2026-03-22T12:02:14.27Z</time></trkpt><trkpt lat="43.42421955076275" lon="11.903669894852523"><ele>295.0</ele><time>2026-03-22T12:02:15.27Z</time></trkpt><trkpt lat="43.4243338017422" lon="11.90357022481868"><ele>295.0</ele><time>2026-03-22T12:02:16.28Z</time></trkpt><trkpt lat="43.42444201048893" lon="11.90347351687578"><ele>295.0</ele><time>2026-03-22T12:02:17.27Z</time></trkpt><trkpt lat="43.4245399542133" lon="11.903379961459262"><ele>294.25</ele><time>2026-03-22T12:02:18.273Z</time></trkpt><trkpt lat="43.424624750121716" lon="11.903256450235629"><ele>293.5</ele><time>2026-03-22T12:02:19.271Z</time></trkpt><trkpt lat="43.424696667407915" lon="11.903103495899748"><ele>292.75</ele><time>2026-03-22T12:02:20.277Z</time></trkpt><trkpt lat="43.42476510971778" lon="11.902939398468227"><ele>292.0</ele><time>2026-03-22T12:02:21.271Z</time></trkpt><trkpt lat="43.42485595847633" lon="11.902785595669828"><ele>292.0</ele><time>2026-03-22T12:02:22.27Z</time></trkpt><trkpt lat="43.424964615142514" lon="11.902646542772402"><ele>292.0</ele><time>2026-03-22T12:02:23.27Z</time></trkpt><trkpt lat="43.425086920911255" lon="11.902517475918165"><ele>292.0</ele><time>2026-03-22T12:02:24.27Z</time></trkpt><trkpt lat="43.42520182418032" lon="11.902383354663506"><ele>292.0</ele><time>2026-03-22T12:02:25.271Z</time></trkpt><trkpt lat="43.42531857675026" lon="11.902242573895752"><ele>292.0</ele><time>2026-03-22T12:02:26.269Z</time></trkpt><trkpt lat="43.42543086199629" lon="11.902112799304927"><ele>292.0</ele><time>2026-03-22T12:02:27.271Z</time></trkpt><trkpt lat="43.425549809840874" lon="11.901981807806841"><ele>291.75</ele><time>2026-03-22T12:02:28.278Z</time></trkpt><trkpt lat="43.425662652786535" lon="11.901860363049584"><ele>291.5</ele><time>2026-03-22T12:02:29.268Z</time></trkpt><trkpt lat="43.42578054656335" lon="11.901729395381722"><ele>291.25</ele><time>2026-03-22T12:02:30.27Z</time></trkpt><trkpt lat="43.425889438357395" lon="11.901598926326539"><ele>291.0</ele><time>2026-03-22T12:02:31.27Z</time></trkpt><trkpt lat="43.42599881722342" lon="11.901467701750885"><ele>290.5</ele><time>2026-03-22T12:02:32.277Z</time></trkpt><trkpt lat="43.42610252774705" lon="11.901345711000653"><ele>290.0</ele><time>2026-03-22T12:02:33.27Z</time></trkpt><trkpt lat="43.426205695448935" lon="11.901217891833221"><ele>289.5</ele><time>2026-03-22T12:02:34.271Z</time></trkpt><trkpt lat="43.42630617408863" lon="11.901086520259344"><ele>289.0</ele><time>2026-03-22T12:02:35.272Z</time></trkpt><trkpt lat="43.42640441412931" lon="11.900948318090839"><ele>288.5</ele><time>2026-03-22T12:02:36.275Z</time></trkpt><trkpt lat="43.42650065604891" lon="11.900811174195853"><ele>288.0</ele><time>2026-03-22T12:02:37.27Z</time></trkpt><trkpt lat="43.426593817763994" lon="11.900671409214969"><ele>287.5</ele><time>2026-03-22T12:02:38.27Z</time></trkpt><trkpt lat="43.426678879865904" lon="11.90052180626093"><ele>287.0</ele><time>2026-03-22T12:02:39.27Z</time></trkpt><trkpt lat="43.426757386269664" lon="11.900372655148084"><ele>287.0</ele><time>2026-03-22T12:02:40.278Z</time></trkpt><trkpt lat="43.42684512556595" lon="11.900220482086509"><ele>287.0</ele><time>2026-03-22T12:02:41.273Z</time></trkpt><trkpt lat="43.42694292150536" lon="11.900081411288184"><ele>287.0</ele><time>2026-03-22T12:02:42.269Z</time></trkpt><trkpt lat="43.427044563358244" lon="11.899937035167746"><ele>287.0</ele><time>2026-03-22T12:02:43.269Z</time></trkpt><trkpt lat="43.427150579391906" lon="11.899778263607292"><ele>286.5</ele><time>2026-03-22T12:02:44.277Z</time></trkpt><trkpt lat="43.4272532888194" lon="11.899636234700134"><ele>286.0</ele><time>2026-03-22T12:02:45.269Z</time></trkpt><trkpt lat="43.4273674675039" lon="11.899499244960854"><ele>285.5</ele><time>2026-03-22T12:02:46.268Z</time></trkpt><trkpt lat="43.42748440286858" lon="11.899378296113154"><ele>285.0</ele><time>2026-03-22T12:02:47.268Z</time></trkpt><trkpt lat="43.42760767850811" lon="11.899275571711645"><ele>284.75</ele><time>2026-03-22T12:02:48.277Z</time></trkpt><trkpt lat="43.42773147585634" lon="11.899185677814142"><ele>284.5</ele><time>2026-03-22T12:02:49.271Z</time></trkpt><trkpt lat="43.427860797046534" lon="11.899100895851115"><ele>284.25</ele><time>2026-03-22T12:02:50.268Z</time></trkpt><trkpt lat="43.42798856954673" lon="11.899036930927634"><ele>284.0</ele><time>2026-03-22T12:02:51.269Z</time></trkpt><trkpt lat="43.42811873082538" lon="11.898993143010863"><ele>284.0</ele><time>2026-03-22T12:02:52.277Z</time></trkpt><trkpt lat="43.42824574126979" lon="11.898947092251577"><ele>284.0</ele><time>2026-03-22T12:02:53.27Z</time></trkpt><trkpt lat="43.42836799291602" lon="11.898861458937354"><ele>284.0</ele><time>2026-03-22T12:02:54.271Z</time></trkpt><trkpt lat="43.42848413157207" lon="11.898745273038992"><ele>284.0</ele><time>2026-03-22T12:02:55.271Z</time></trkpt><trkpt lat="43.4286008672488" lon="11.89861411541491"><ele>284.0</ele><time>2026-03-22T12:02:56.277Z</time></trkpt><trkpt lat="43.428715922148996" lon="11.89848386123956"><ele>284.0</ele><time>2026-03-22T12:02:57.272Z</time></trkpt><trkpt lat="43.42882661466351" lon="11.898348770789553"><ele>284.0</ele><time>2026-03-22T12:02:58.272Z</time></trkpt><trkpt lat="43.42893419245961" lon="11.898204317864803"><ele>284.0</ele><time>2026-03-22T12:02:59.269Z</time></trkpt><trkpt lat="43.42903287320353" lon="11.898060697968372"><ele>283.25</ele><time>2026-03-22T12:03:00.278Z</time></trkpt><trkpt lat="43.42913277642031" lon="11.897916454053487"><ele>282.5</ele><time>2026-03-22T12:03:01.269Z</time></trkpt><trkpt lat="43.42923361844931" lon="11.89777763441809"><ele>281.75</ele><time>2026-03-22T12:03:02.273Z</time></trkpt><trkpt lat="43.42934182383871" lon="11.897642667266208"><ele>281.0</ele><time>2026-03-22T12:03:03.271Z</time></trkpt><trkpt lat="43.42945632755965" lon="11.897511534243073"><ele>280.75</ele><time>2026-03-22T12:03:04.27Z</time></trkpt><trkpt lat="43.429578132927425" lon="11.897405280217743"><ele>280.5</ele><time>2026-03-22T12:03:05.271Z</time></trkpt><trkpt lat="43.429701221636286" lon="11.897308372566428"><ele>280.25</ele><time>2026-03-22T12:03:06.27Z</time></trkpt><trkpt lat="43.42982644441448" lon="11.89719711676479"><ele>280.0</ele><time>2026-03-22T12:03:07.27Z</time></trkpt><trkpt lat="43.429949986564594" lon="11.897081512914635"><ele>280.0</ele><time>2026-03-22T12:03:08.278Z</time></trkpt><trkpt lat="43.430069602585974" lon="11.896959152811677"><ele>280.0</ele><time>2026-03-22T12:03:09.27Z</time></trkpt><trkpt lat="43.43017243895146" lon="11.896830100134105"><ele>280.0</ele><time>2026-03-22T12:03:10.272Z</time></trkpt><trkpt lat="43.43026402056532" lon="11.896711713076366"><ele>280.0</ele><time>2026-03-22T12:03:11.271Z</time></trkpt><trkpt lat="43.43034659816345" lon="11.896605524182732"><ele>280.0</ele><time>2026-03-22T12:03:12.276Z</time></trkpt><trkpt lat="43.43042700188561" lon="11.896511767724148"><ele>280.0</ele><time>2026-03-22T12:03:13.273Z</time></trkpt><trkpt lat="43.4305018897824" lon="11.89642626440038"><ele>280.0</ele><time>2026-03-22T12:03:14.272Z</time></trkpt><trkpt lat="43.43057628760817" lon="11.896335375213274"><ele>280.0</ele><time>2026-03-22T12:03:15.269Z</time></trkpt><trkpt lat="43.4306515517567" lon="11.89624386680516"><ele>280.0</ele><time>2026-03-22T12:03:16.27Z</time></trkpt><trkpt lat="43.430734438973694" lon="11.896161030475145"><ele>279.8</ele><time>2026-03-22T12:03:17.272Z</time></trkpt><trkpt lat="43.43083360308037" lon="11.896085398663592"><ele>279.6</ele><time>2026-03-22T12:03:18.272Z</time></trkpt><trkpt lat="43.43094143373647" lon="11.896016985221763"><ele>279.4</ele><time>2026-03-22T12:03:19.271Z</time></trkpt><trkpt lat="43.431030375115775" lon="11.895963651056078"><ele>279.2</ele><time>2026-03-22T12:03:20.278Z</time></trkpt><trkpt lat="43.431104152267146" lon="11.895908761771766"><ele>279.0</ele><time>2026-03-22T12:03:21.27Z</time></trkpt><trkpt lat="43.43117382063663" lon="11.895856315467002"><ele>279.0</ele><time>2026-03-22T12:03:22.271Z</time></trkpt><trkpt lat="43.43123688286064" lon="11.895802551809108"><ele>279.0</ele><time>2026-03-22T12:03:23.271Z</time></trkpt><trkpt lat="43.431340036678556" lon="11.895730058099566"><ele>279.0</ele><time>2026-03-22T12:03:25.27Z</time></trkpt><trkpt lat="43.43145670440524" lon="11.895638060645767"><ele>279.0</ele><time>2026-03-22T12:03:27.269Z</time></trkpt><trkpt lat="43.43153964506553" lon="11.895576659221096"><ele>279.0</ele><time>2026-03-22T12:03:28.276Z</time></trkpt><trkpt lat="43.431620511354666" lon="11.895511281238404"><ele>279.0</ele><time>2026-03-22T12:03:29.273Z</time></trkpt><trkpt lat="43.43170895687286" lon="11.89543214911952"><ele>279.0</ele><time>2026-03-22T12:03:30.27Z</time></trkpt><trkpt lat="43.43180104526997" lon="11.895344738067266"><ele>279.0</ele><time>2026-03-22T12:03:31.268Z</time></trkpt><trkpt lat="43.43190061151003" lon="11.89524893602509"><ele>279.0</ele><time>2026-03-22T12:03:32.278Z</time></trkpt><trkpt lat="43.4319955838761" lon="11.895148297190708"><ele>279.0</ele><time>2026-03-22T12:03:33.271Z</time></trkpt><trkpt lat="43.43210028240071" lon="11.895038601121348"><ele>279.0</ele><time>2026-03-22T12:03:34.272Z</time></trkpt><trkpt lat="43.43220954272867" lon="11.894931072559347"><ele>279.0</ele><time>2026-03-22T12:03:35.272Z</time></trkpt><trkpt lat="43.432318728949646" lon="11.894817322650283"><ele>279.0</ele><time>2026-03-22T12:03:36.267Z</time></trkpt><trkpt lat="43.43242888636529" lon="11.894694791104026"><ele>278.75</ele><time>2026-03-22T12:03:37.271Z</time></trkpt><trkpt lat="43.43254060148181" lon="11.89457383827175"><ele>278.5</ele><time>2026-03-22T12:03:38.272Z</time></trkpt><trkpt lat="43.43265589494696" lon="11.894444480306184"><ele>278.25</ele><time>2026-03-22T12:03:39.271Z</time></trkpt><trkpt lat="43.4327588721709" lon="11.89432274456881"><ele>278.0</ele><time>2026-03-22T12:03:40.279Z</time></trkpt><trkpt lat="43.432854020528104" lon="11.89422372550836"><ele>277.75</ele><time>2026-03-22T12:03:41.269Z</time></trkpt><trkpt lat="43.432945854675246" lon="11.894136957786923"><ele>277.5</ele><time>2026-03-22T12:03:42.269Z</time></trkpt><trkpt lat="43.43304658077743" lon="11.894046334212936"><ele>277.25</ele><time>2026-03-22T12:03:43.27Z</time></trkpt><trkpt lat="43.433156683387885" lon="11.893950334338406"><ele>277.0</ele><time>2026-03-22T12:03:44.269Z</time></trkpt><trkpt lat="43.433249113727015" lon="11.893865948989273"><ele>277.0</ele><time>2026-03-22T12:03:45.27Z</time></trkpt><trkpt lat="43.43333291352171" lon="11.893791179019523"><ele>277.0</ele><time>2026-03-22T12:03:46.269Z</time></trkpt><trkpt lat="43.433406559727395" lon="11.893724451616853"><ele>277.0</ele><time>2026-03-22T12:03:47.267Z</time></trkpt><trkpt lat="43.43347127396643" lon="11.893661086930562"><ele>277.0</ele><time>2026-03-22T12:03:48.276Z</time></trkpt><trkpt lat="43.43352739463156" lon="11.893602251755967"><ele>277.0</ele><time>2026-03-22T12:03:49.274Z</time></trkpt><trkpt lat="43.43362527495024" lon="11.893511520779592"><ele>277.0</ele><time>2026-03-22T12:03:51.269Z</time></trkpt><trkpt lat="43.43368037772262" lon="11.893454287257812"><ele>277.0</ele><time>2026-03-22T12:03:52.27Z</time></trkpt><trkpt lat="43.43373372158928" lon="11.893398977665766"><ele>277.0</ele><time>2026-03-22T12:03:53.268Z</time></trkpt><trkpt lat="43.433813912248354" lon="11.893344714107865"><ele>277.0</ele><time>2026-03-22T12:03:55.273Z</time></trkpt><trkpt lat="43.433913127754444" lon="11.893416946138405"><ele>277.0</ele><time>2026-03-22T12:04:04.277Z</time></trkpt><trkpt lat="43.433986052396044" lon="11.893471775311003"><ele>277.0</ele><time>2026-03-22T12:04:05.271Z</time></trkpt><trkpt lat="43.43408087211097" lon="11.893514242215002"><ele>277.0</ele><time>2026-03-22T12:04:06.269Z</time></trkpt><trkpt lat="43.43418509902925" lon="11.893542799415895"><ele>277.0</ele><time>2026-03-22T12:04:07.271Z</time></trkpt><trkpt lat="43.434310163803" lon="11.893564438347127"><ele>277.0</ele><time>2026-03-22T12:04:08.269Z</time></trkpt><trkpt lat="43.43444434375562" lon="11.893596458013619"><ele>277.0</ele><time>2026-03-22T12:04:09.27Z</time></trkpt><trkpt lat="43.43455532462045" lon="11.893621797924526"><ele>276.66666666666663</ele><time>2026-03-22T12:04:10.268Z</time></trkpt><trkpt lat="43.43464019214805" lon="11.893625206654033"><ele>276.3333333333333</ele><time>2026-03-22T12:04:11.271Z</time></trkpt><trkpt lat="43.43472881746159" lon="11.893594583416503"><ele>276.0</ele><time>2026-03-22T12:04:12.268Z</time></trkpt><trkpt lat="43.43482633366028" lon="11.893513858894954"><ele>275.6666666666667</ele><time>2026-03-22T12:04:13.272Z</time></trkpt><trkpt lat="43.43490240428452" lon="11.893452280895366"><ele>275.33333333333337</ele><time>2026-03-22T12:04:14.273Z</time></trkpt><trkpt lat="43.43497028607676" lon="11.893423233012832"><ele>275.0</ele><time>2026-03-22T12:04:15.273Z</time></trkpt><trkpt lat="43.43506723919881" lon="11.89334249106985"><ele>275.0</ele><time>2026-03-22T12:04:17.27Z</time></trkpt><trkpt lat="43.43511335062727" lon="11.893406985353508"><ele>275.0</ele><time>2026-03-22T12:04:19.272Z</time></trkpt><trkpt lat="43.435061407229846" lon="11.893507399157068"><ele>275.0</ele><time>2026-03-22T12:04:21.272Z</time></trkpt><trkpt lat="43.434906713983295" lon="11.893449071128115"><ele>275.0</ele><time>2026-03-22T12:04:23.272Z</time></trkpt><trkpt lat="43.43483657543053" lon="11.893427555094629"><ele>275.0</ele><time>2026-03-22T12:04:24.279Z</time></trkpt><trkpt lat="43.43479973111195" lon="11.893518752537073"><ele>273.0</ele><time>2026-03-22T12:04:26.269Z</time></trkpt><trkpt lat="43.43466491264445" lon="11.893585798551612"><ele>273.0</ele><time>2026-03-22T12:06:47.268Z</time></trkpt><trkpt lat="43.434552540247324" lon="11.893598529535426"><ele>277.0</ele><time>2026-03-22T12:06:48.272Z</time></trkpt><trkpt lat="43.43448013983687" lon="11.893595607835945"><ele>277.0</ele><time>2026-03-22T12:06:49.271Z</time></trkpt><trkpt lat="43.43438758487813" lon="11.893595315446484"><ele>277.0</ele><time>2026-03-22T12:06:51.269Z</time></trkpt></trkseg></trk></gpx>